<?xml version="1.0" encoding="UTF-8" standalone="no" ?>
<gpx xmlns="http://www.topografix.com/GPX/1/1" xmlns:xsi="http://www.w3.org/2001/XMLSchema-instance" xsi:schemaLocation="http://www.topografix.com/GPX/1/1 http://www.topografix.com/GPX/1/1/gpx.xsd" version="1.1" creator="VisuGPX - https://www.visugpx.com">
  <metadata>
    <name>Randonnée de St Cyr en Val</name>
    <desc><![CDATA[Randonnée du club de Saint-Cyr en Val

4 guerriers pris dans le froid de l'hiver : -10°c]]></desc>
  </metadata>
  <trk>
    <name><![CDATA[Randonnée de St Cyr en Val_1]]></name>
    <trkseg>
      <trkpt lat="47.83198" lon="1.9662">
        <ele>97</ele>
        <time>2017-01-22T07:52:04.156Z</time>
      </trkpt>
      <trkpt lat="47.83198" lon="1.9662">
        <ele>97</ele>
        <time>2017-01-22T07:52:05.134Z</time>
      </trkpt>
      <trkpt lat="47.83197" lon="1.96628">
        <ele>97</ele>
        <time>2017-01-22T07:52:06.148Z</time>
      </trkpt>
      <trkpt lat="47.83196" lon="1.96632">
        <ele>97</ele>
        <time>2017-01-22T07:52:07.124Z</time>
      </trkpt>
      <trkpt lat="47.83196" lon="1.96637">
        <ele>97</ele>
        <time>2017-01-22T07:52:08.146Z</time>
      </trkpt>
      <trkpt lat="47.83196" lon="1.96637">
        <ele>97</ele>
        <time>2017-01-22T07:52:09.140Z</time>
      </trkpt>
      <trkpt lat="47.83195" lon="1.96645">
        <ele>96</ele>
        <time>2017-01-22T07:52:10.144Z</time>
      </trkpt>
      <trkpt lat="47.83195" lon="1.96645">
        <ele>96</ele>
        <time>2017-01-22T07:52:11.119Z</time>
      </trkpt>
      <trkpt lat="47.83188" lon="1.96647">
        <ele>94</ele>
        <time>2017-01-22T07:52:12.121Z</time>
      </trkpt>
      <trkpt lat="47.83184" lon="1.96645">
        <ele>94</ele>
        <time>2017-01-22T07:52:13.144Z</time>
      </trkpt>
      <trkpt lat="47.83184" lon="1.96645">
        <ele>94</ele>
        <time>2017-01-22T07:52:14.141Z</time>
      </trkpt>
      <trkpt lat="47.83176" lon="1.96641">
        <ele>93</ele>
        <time>2017-01-22T07:52:15.143Z</time>
      </trkpt>
      <trkpt lat="47.83176" lon="1.96641">
        <ele>93</ele>
        <time>2017-01-22T07:52:16.146Z</time>
      </trkpt>
      <trkpt lat="47.83168" lon="1.96641">
        <ele>93</ele>
        <time>2017-01-22T07:52:17.143Z</time>
      </trkpt>
      <trkpt lat="47.83168" lon="1.96641">
        <ele>93</ele>
        <time>2017-01-22T07:52:18.146Z</time>
      </trkpt>
      <trkpt lat="47.83159" lon="1.96638">
        <ele>94</ele>
        <time>2017-01-22T07:52:19.144Z</time>
      </trkpt>
      <trkpt lat="47.83159" lon="1.96638">
        <ele>94</ele>
        <time>2017-01-22T07:52:20.154Z</time>
      </trkpt>
      <trkpt lat="47.8315" lon="1.96632">
        <ele>93</ele>
        <time>2017-01-22T07:52:21.143Z</time>
      </trkpt>
      <trkpt lat="47.8315" lon="1.96632">
        <ele>93</ele>
        <time>2017-01-22T07:52:22.143Z</time>
      </trkpt>
      <trkpt lat="47.83141" lon="1.96625">
        <ele>93</ele>
        <time>2017-01-22T07:52:23.143Z</time>
      </trkpt>
      <trkpt lat="47.83137" lon="1.96623">
        <ele>93</ele>
        <time>2017-01-22T07:52:24.144Z</time>
      </trkpt>
      <trkpt lat="47.83137" lon="1.96623">
        <ele>93</ele>
        <time>2017-01-22T07:52:25.143Z</time>
      </trkpt>
      <trkpt lat="47.8313" lon="1.96622">
        <ele>93</ele>
        <time>2017-01-22T07:52:26.127Z</time>
      </trkpt>
      <trkpt lat="47.83127" lon="1.96625">
        <ele>94</ele>
        <time>2017-01-22T07:52:27.141Z</time>
      </trkpt>
      <trkpt lat="47.83127" lon="1.96625">
        <ele>94</ele>
        <time>2017-01-22T07:52:28.139Z</time>
      </trkpt>
      <trkpt lat="47.83122" lon="1.96632">
        <ele>94</ele>
        <time>2017-01-22T07:52:29.142Z</time>
      </trkpt>
      <trkpt lat="47.8312" lon="1.96634">
        <ele>93</ele>
        <time>2017-01-22T07:52:30.142Z</time>
      </trkpt>
      <trkpt lat="47.8312" lon="1.96634">
        <ele>93</ele>
        <time>2017-01-22T07:52:31.138Z</time>
      </trkpt>
      <trkpt lat="47.83113" lon="1.96631">
        <ele>94</ele>
        <time>2017-01-22T07:52:32.141Z</time>
      </trkpt>
      <trkpt lat="47.83109" lon="1.96629">
        <ele>94</ele>
        <time>2017-01-22T07:52:33.141Z</time>
      </trkpt>
      <trkpt lat="47.83109" lon="1.96629">
        <ele>94</ele>
        <time>2017-01-22T07:52:34.134Z</time>
      </trkpt>
      <trkpt lat="47.831" lon="1.96622">
        <ele>94</ele>
        <time>2017-01-22T07:52:35.143Z</time>
      </trkpt>
      <trkpt lat="47.831" lon="1.96622">
        <ele>94</ele>
        <time>2017-01-22T07:52:36.156Z</time>
      </trkpt>
      <trkpt lat="47.83092" lon="1.96615">
        <ele>94</ele>
        <time>2017-01-22T07:52:37.156Z</time>
      </trkpt>
      <trkpt lat="47.83092" lon="1.96615">
        <ele>94</ele>
        <time>2017-01-22T07:52:38.148Z</time>
      </trkpt>
      <trkpt lat="47.83084" lon="1.96609">
        <ele>93</ele>
        <time>2017-01-22T07:52:39.144Z</time>
      </trkpt>
      <trkpt lat="47.83084" lon="1.96609">
        <ele>93</ele>
        <time>2017-01-22T07:52:40.141Z</time>
      </trkpt>
      <trkpt lat="47.83075" lon="1.96609">
        <ele>94</ele>
        <time>2017-01-22T07:52:41.141Z</time>
      </trkpt>
      <trkpt lat="47.83075" lon="1.96609">
        <ele>94</ele>
        <time>2017-01-22T07:52:42.136Z</time>
      </trkpt>
      <trkpt lat="47.83068" lon="1.96617">
        <ele>94</ele>
        <time>2017-01-22T07:52:43.142Z</time>
      </trkpt>
      <trkpt lat="47.83066" lon="1.96624">
        <ele>94</ele>
        <time>2017-01-22T07:52:44.141Z</time>
      </trkpt>
      <trkpt lat="47.83066" lon="1.96624">
        <ele>94</ele>
        <time>2017-01-22T07:52:45.138Z</time>
      </trkpt>
      <trkpt lat="47.8306" lon="1.96637">
        <ele>94</ele>
        <time>2017-01-22T07:52:46.140Z</time>
      </trkpt>
      <trkpt lat="47.83057" lon="1.96644">
        <ele>94</ele>
        <time>2017-01-22T07:52:47.143Z</time>
      </trkpt>
      <trkpt lat="47.83057" lon="1.96644">
        <ele>94</ele>
        <time>2017-01-22T07:52:48.134Z</time>
      </trkpt>
      <trkpt lat="47.83053" lon="1.96658">
        <ele>94</ele>
        <time>2017-01-22T07:52:49.141Z</time>
      </trkpt>
      <trkpt lat="47.83053" lon="1.96658">
        <ele>94</ele>
        <time>2017-01-22T07:52:50.156Z</time>
      </trkpt>
      <trkpt lat="47.83049" lon="1.9667">
        <ele>92</ele>
        <time>2017-01-22T07:52:51.149Z</time>
      </trkpt>
      <trkpt lat="47.83049" lon="1.9667">
        <ele>92</ele>
        <time>2017-01-22T07:52:52.140Z</time>
      </trkpt>
      <trkpt lat="47.83045" lon="1.96675">
        <ele>92</ele>
        <time>2017-01-22T07:52:53.141Z</time>
      </trkpt>
      <trkpt lat="47.83045" lon="1.96675">
        <ele>92</ele>
        <time>2017-01-22T07:52:54.136Z</time>
      </trkpt>
      <trkpt lat="47.83041" lon="1.96676">
        <ele>91</ele>
        <time>2017-01-22T07:52:55.141Z</time>
      </trkpt>
      <trkpt lat="47.83041" lon="1.96676">
        <ele>91</ele>
        <time>2017-01-22T07:52:56.149Z</time>
      </trkpt>
      <trkpt lat="47.83035" lon="1.96672">
        <ele>91</ele>
        <time>2017-01-22T07:52:57.142Z</time>
      </trkpt>
      <trkpt lat="47.83032" lon="1.96669">
        <ele>91</ele>
        <time>2017-01-22T07:52:58.142Z</time>
      </trkpt>
      <trkpt lat="47.83032" lon="1.96669">
        <ele>91</ele>
        <time>2017-01-22T07:52:59.135Z</time>
      </trkpt>
      <trkpt lat="47.83025" lon="1.96663">
        <ele>91</ele>
        <time>2017-01-22T07:53:00.143Z</time>
      </trkpt>
      <trkpt lat="47.83021" lon="1.9666">
        <ele>91</ele>
        <time>2017-01-22T07:53:01.144Z</time>
      </trkpt>
      <trkpt lat="47.83017" lon="1.96657">
        <ele>91</ele>
        <time>2017-01-22T07:53:02.143Z</time>
      </trkpt>
      <trkpt lat="47.83017" lon="1.96657">
        <ele>91</ele>
        <time>2017-01-22T07:53:03.138Z</time>
      </trkpt>
      <trkpt lat="47.83009" lon="1.96652">
        <ele>92</ele>
        <time>2017-01-22T07:53:04.157Z</time>
      </trkpt>
      <trkpt lat="47.83005" lon="1.96648">
        <ele>92</ele>
        <time>2017-01-22T07:53:05.155Z</time>
      </trkpt>
      <trkpt lat="47.83001" lon="1.96645">
        <ele>91</ele>
        <time>2017-01-22T07:53:06.148Z</time>
      </trkpt>
      <trkpt lat="47.83001" lon="1.96645">
        <ele>91</ele>
        <time>2017-01-22T07:53:07.144Z</time>
      </trkpt>
      <trkpt lat="47.82993" lon="1.9664">
        <ele>91</ele>
        <time>2017-01-22T07:53:08.142Z</time>
      </trkpt>
      <trkpt lat="47.82989" lon="1.96637">
        <ele>92</ele>
        <time>2017-01-22T07:53:09.141Z</time>
      </trkpt>
      <trkpt lat="47.82989" lon="1.96637">
        <ele>92</ele>
        <time>2017-01-22T07:53:10.136Z</time>
      </trkpt>
      <trkpt lat="47.82982" lon="1.96631">
        <ele>92</ele>
        <time>2017-01-22T07:53:11.143Z</time>
      </trkpt>
      <trkpt lat="47.82982" lon="1.96631">
        <ele>92</ele>
        <time>2017-01-22T07:53:12.134Z</time>
      </trkpt>
      <trkpt lat="47.82975" lon="1.96624">
        <ele>91</ele>
        <time>2017-01-22T07:53:13.141Z</time>
      </trkpt>
      <trkpt lat="47.82975" lon="1.96624">
        <ele>91</ele>
        <time>2017-01-22T07:53:14.142Z</time>
      </trkpt>
      <trkpt lat="47.8297" lon="1.96621">
        <ele>91</ele>
        <time>2017-01-22T07:53:15.140Z</time>
      </trkpt>
      <trkpt lat="47.82968" lon="1.96619">
        <ele>91</ele>
        <time>2017-01-22T07:53:16.138Z</time>
      </trkpt>
      <trkpt lat="47.82968" lon="1.96619">
        <ele>91</ele>
        <time>2017-01-22T07:53:17.135Z</time>
      </trkpt>
      <trkpt lat="47.82963" lon="1.96616">
        <ele>91</ele>
        <time>2017-01-22T07:53:18.140Z</time>
      </trkpt>
      <trkpt lat="47.82963" lon="1.96616">
        <ele>91</ele>
        <time>2017-01-22T07:53:19.136Z</time>
      </trkpt>
      <trkpt lat="47.82956" lon="1.96614">
        <ele>91</ele>
        <time>2017-01-22T07:53:20.132Z</time>
      </trkpt>
      <trkpt lat="47.82953" lon="1.96615">
        <ele>91</ele>
        <time>2017-01-22T07:53:21.126Z</time>
      </trkpt>
      <trkpt lat="47.82949" lon="1.96617">
        <ele>92</ele>
        <time>2017-01-22T07:53:22.139Z</time>
      </trkpt>
      <trkpt lat="47.82949" lon="1.96617">
        <ele>92</ele>
        <time>2017-01-22T07:53:23.135Z</time>
      </trkpt>
      <trkpt lat="47.82943" lon="1.96623">
        <ele>91</ele>
        <time>2017-01-22T07:53:24.137Z</time>
      </trkpt>
      <trkpt lat="47.82941" lon="1.96627">
        <ele>91</ele>
        <time>2017-01-22T07:53:25.141Z</time>
      </trkpt>
      <trkpt lat="47.82941" lon="1.96627">
        <ele>91</ele>
        <time>2017-01-22T07:53:26.136Z</time>
      </trkpt>
      <trkpt lat="47.82937" lon="1.96638">
        <ele>91</ele>
        <time>2017-01-22T07:53:27.137Z</time>
      </trkpt>
      <trkpt lat="47.82936" lon="1.96644">
        <ele>92</ele>
        <time>2017-01-22T07:53:28.140Z</time>
      </trkpt>
      <trkpt lat="47.82936" lon="1.96644">
        <ele>92</ele>
        <time>2017-01-22T07:53:29.135Z</time>
      </trkpt>
      <trkpt lat="47.82933" lon="1.96655">
        <ele>92</ele>
        <time>2017-01-22T07:53:30.139Z</time>
      </trkpt>
      <trkpt lat="47.82931" lon="1.9666">
        <ele>92</ele>
        <time>2017-01-22T07:53:31.141Z</time>
      </trkpt>
      <trkpt lat="47.82931" lon="1.9666">
        <ele>92</ele>
        <time>2017-01-22T07:53:32.134Z</time>
      </trkpt>
      <trkpt lat="47.82926" lon="1.96669">
        <ele>92</ele>
        <time>2017-01-22T07:53:33.140Z</time>
      </trkpt>
      <trkpt lat="47.82926" lon="1.96669">
        <ele>92</ele>
        <time>2017-01-22T07:53:34.133Z</time>
      </trkpt>
      <trkpt lat="47.8292" lon="1.96673">
        <ele>93</ele>
        <time>2017-01-22T07:53:35.140Z</time>
      </trkpt>
      <trkpt lat="47.8292" lon="1.96673">
        <ele>93</ele>
        <time>2017-01-22T07:53:36.134Z</time>
      </trkpt>
      <trkpt lat="47.82913" lon="1.96672">
        <ele>94</ele>
        <time>2017-01-22T07:53:37.142Z</time>
      </trkpt>
      <trkpt lat="47.82913" lon="1.96672">
        <ele>94</ele>
        <time>2017-01-22T07:53:38.135Z</time>
      </trkpt>
      <trkpt lat="47.82906" lon="1.9667">
        <ele>94</ele>
        <time>2017-01-22T07:53:39.140Z</time>
      </trkpt>
      <trkpt lat="47.82906" lon="1.9667">
        <ele>94</ele>
        <time>2017-01-22T07:53:40.133Z</time>
      </trkpt>
      <trkpt lat="47.82898" lon="1.96666">
        <ele>94</ele>
        <time>2017-01-22T07:53:41.140Z</time>
      </trkpt>
      <trkpt lat="47.82898" lon="1.96666">
        <ele>94</ele>
        <time>2017-01-22T07:53:42.135Z</time>
      </trkpt>
      <trkpt lat="47.82891" lon="1.96661">
        <ele>95</ele>
        <time>2017-01-22T07:53:43.141Z</time>
      </trkpt>
      <trkpt lat="47.82891" lon="1.96661">
        <ele>95</ele>
        <time>2017-01-22T07:53:44.135Z</time>
      </trkpt>
      <trkpt lat="47.82882" lon="1.96659">
        <ele>95</ele>
        <time>2017-01-22T07:53:45.140Z</time>
      </trkpt>
      <trkpt lat="47.82882" lon="1.96659">
        <ele>95</ele>
        <time>2017-01-22T07:53:46.134Z</time>
      </trkpt>
      <trkpt lat="47.82875" lon="1.96659">
        <ele>96</ele>
        <time>2017-01-22T07:53:47.140Z</time>
      </trkpt>
      <trkpt lat="47.82875" lon="1.96659">
        <ele>96</ele>
        <time>2017-01-22T07:53:48.135Z</time>
      </trkpt>
      <trkpt lat="47.82867" lon="1.96659">
        <ele>97</ele>
        <time>2017-01-22T07:53:49.138Z</time>
      </trkpt>
      <trkpt lat="47.82867" lon="1.96659">
        <ele>97</ele>
        <time>2017-01-22T07:53:50.135Z</time>
      </trkpt>
      <trkpt lat="47.82859" lon="1.96659">
        <ele>97</ele>
        <time>2017-01-22T07:53:51.154Z</time>
      </trkpt>
      <trkpt lat="47.82859" lon="1.96659">
        <ele>97</ele>
        <time>2017-01-22T07:53:52.147Z</time>
      </trkpt>
      <trkpt lat="47.82851" lon="1.96658">
        <ele>98</ele>
        <time>2017-01-22T07:53:53.137Z</time>
      </trkpt>
      <trkpt lat="47.82848" lon="1.96657">
        <ele>99</ele>
        <time>2017-01-22T07:53:54.140Z</time>
      </trkpt>
      <trkpt lat="47.82848" lon="1.96657">
        <ele>99</ele>
        <time>2017-01-22T07:53:55.139Z</time>
      </trkpt>
      <trkpt lat="47.82839" lon="1.96654">
        <ele>99</ele>
        <time>2017-01-22T07:53:56.157Z</time>
      </trkpt>
      <trkpt lat="47.82835" lon="1.96652">
        <ele>99</ele>
        <time>2017-01-22T07:53:57.147Z</time>
      </trkpt>
      <trkpt lat="47.82835" lon="1.96652">
        <ele>99</ele>
        <time>2017-01-22T07:53:58.137Z</time>
      </trkpt>
      <trkpt lat="47.82828" lon="1.96648">
        <ele>99</ele>
        <time>2017-01-22T07:53:59.137Z</time>
      </trkpt>
      <trkpt lat="47.82824" lon="1.96646">
        <ele>100</ele>
        <time>2017-01-22T07:54:00.144Z</time>
      </trkpt>
      <trkpt lat="47.8282" lon="1.96645">
        <ele>100</ele>
        <time>2017-01-22T07:54:01.143Z</time>
      </trkpt>
      <trkpt lat="47.8282" lon="1.96645">
        <ele>100</ele>
        <time>2017-01-22T07:54:02.135Z</time>
      </trkpt>
      <trkpt lat="47.82813" lon="1.96644">
        <ele>100</ele>
        <time>2017-01-22T07:54:03.141Z</time>
      </trkpt>
      <trkpt lat="47.82813" lon="1.96644">
        <ele>100</ele>
        <time>2017-01-22T07:54:04.134Z</time>
      </trkpt>
      <trkpt lat="47.82807" lon="1.96641">
        <ele>101</ele>
        <time>2017-01-22T07:54:05.142Z</time>
      </trkpt>
      <trkpt lat="47.82807" lon="1.96641">
        <ele>101</ele>
        <time>2017-01-22T07:54:06.134Z</time>
      </trkpt>
      <trkpt lat="47.82801" lon="1.96637">
        <ele>101</ele>
        <time>2017-01-22T07:54:07.141Z</time>
      </trkpt>
      <trkpt lat="47.82798" lon="1.96637">
        <ele>101</ele>
        <time>2017-01-22T07:54:08.141Z</time>
      </trkpt>
      <trkpt lat="47.82798" lon="1.96637">
        <ele>101</ele>
        <time>2017-01-22T07:54:09.137Z</time>
      </trkpt>
      <trkpt lat="47.82795" lon="1.96642">
        <ele>101</ele>
        <time>2017-01-22T07:54:10.154Z</time>
      </trkpt>
      <trkpt lat="47.82795" lon="1.96642">
        <ele>101</ele>
        <time>2017-01-22T07:54:11.156Z</time>
      </trkpt>
      <trkpt lat="47.82794" lon="1.96647">
        <ele>101</ele>
        <time>2017-01-22T07:54:12.144Z</time>
      </trkpt>
      <trkpt lat="47.82793" lon="1.96651">
        <ele>101</ele>
        <time>2017-01-22T07:54:13.141Z</time>
      </trkpt>
      <trkpt lat="47.82793" lon="1.96651">
        <ele>101</ele>
        <time>2017-01-22T07:54:14.136Z</time>
      </trkpt>
      <trkpt lat="47.82792" lon="1.96658">
        <ele>102</ele>
        <time>2017-01-22T07:54:15.140Z</time>
      </trkpt>
      <trkpt lat="47.82792" lon="1.96658">
        <ele>102</ele>
        <time>2017-01-22T07:54:16.134Z</time>
      </trkpt>
      <trkpt lat="47.8279" lon="1.96663">
        <ele>101</ele>
        <time>2017-01-22T07:54:17.148Z</time>
      </trkpt>
      <trkpt lat="47.82789" lon="1.96666">
        <ele>101</ele>
        <time>2017-01-22T07:54:18.141Z</time>
      </trkpt>
      <trkpt lat="47.82788" lon="1.96669">
        <ele>102</ele>
        <time>2017-01-22T07:54:19.141Z</time>
      </trkpt>
      <trkpt lat="47.82788" lon="1.96669">
        <ele>102</ele>
        <time>2017-01-22T07:54:20.135Z</time>
      </trkpt>
      <trkpt lat="47.82787" lon="1.96677">
        <ele>102</ele>
        <time>2017-01-22T07:54:21.141Z</time>
      </trkpt>
      <trkpt lat="47.82787" lon="1.9668">
        <ele>103</ele>
        <time>2017-01-22T07:54:22.141Z</time>
      </trkpt>
      <trkpt lat="47.82787" lon="1.9668">
        <ele>103</ele>
        <time>2017-01-22T07:54:23.135Z</time>
      </trkpt>
      <trkpt lat="47.82787" lon="1.96686">
        <ele>104</ele>
        <time>2017-01-22T07:54:24.140Z</time>
      </trkpt>
      <trkpt lat="47.82787" lon="1.96688">
        <ele>104</ele>
        <time>2017-01-22T07:54:25.142Z</time>
      </trkpt>
      <trkpt lat="47.82787" lon="1.96688">
        <ele>104</ele>
        <time>2017-01-22T07:54:26.135Z</time>
      </trkpt>
      <trkpt lat="47.82786" lon="1.96692">
        <ele>104</ele>
        <time>2017-01-22T07:54:27.140Z</time>
      </trkpt>
      <trkpt lat="47.82786" lon="1.96692">
        <ele>104</ele>
        <time>2017-01-22T07:54:28.132Z</time>
      </trkpt>
      <trkpt lat="47.82786" lon="1.96696">
        <ele>105</ele>
        <time>2017-01-22T07:54:29.140Z</time>
      </trkpt>
      <trkpt lat="47.82786" lon="1.96696">
        <ele>105</ele>
        <time>2017-01-22T07:54:30.135Z</time>
      </trkpt>
      <trkpt lat="47.82787" lon="1.96701">
        <ele>105</ele>
        <time>2017-01-22T07:54:31.147Z</time>
      </trkpt>
      <trkpt lat="47.82788" lon="1.96704">
        <ele>105</ele>
        <time>2017-01-22T07:54:32.140Z</time>
      </trkpt>
      <trkpt lat="47.82788" lon="1.96704">
        <ele>105</ele>
        <time>2017-01-22T07:54:33.135Z</time>
      </trkpt>
      <trkpt lat="47.82789" lon="1.96708">
        <ele>106</ele>
        <time>2017-01-22T07:54:34.143Z</time>
      </trkpt>
      <trkpt lat="47.82789" lon="1.96708">
        <ele>106</ele>
        <time>2017-01-22T07:54:35.135Z</time>
      </trkpt>
      <trkpt lat="47.8279" lon="1.96713">
        <ele>106</ele>
        <time>2017-01-22T07:54:36.140Z</time>
      </trkpt>
      <trkpt lat="47.82791" lon="1.96716">
        <ele>106</ele>
        <time>2017-01-22T07:54:37.141Z</time>
      </trkpt>
      <trkpt lat="47.82791" lon="1.96716">
        <ele>106</ele>
        <time>2017-01-22T07:54:38.135Z</time>
      </trkpt>
      <trkpt lat="47.82792" lon="1.96721">
        <ele>106</ele>
        <time>2017-01-22T07:54:39.141Z</time>
      </trkpt>
      <trkpt lat="47.82792" lon="1.96721">
        <ele>106</ele>
        <time>2017-01-22T07:54:40.135Z</time>
      </trkpt>
      <trkpt lat="47.82793" lon="1.96726">
        <ele>107</ele>
        <time>2017-01-22T07:54:41.140Z</time>
      </trkpt>
      <trkpt lat="47.82793" lon="1.96729">
        <ele>107</ele>
        <time>2017-01-22T07:54:42.140Z</time>
      </trkpt>
      <trkpt lat="47.82794" lon="1.96731">
        <ele>107</ele>
        <time>2017-01-22T07:54:43.142Z</time>
      </trkpt>
      <trkpt lat="47.82794" lon="1.96733">
        <ele>108</ele>
        <time>2017-01-22T07:54:44.142Z</time>
      </trkpt>
      <trkpt lat="47.82795" lon="1.96735">
        <ele>108</ele>
        <time>2017-01-22T07:54:45.141Z</time>
      </trkpt>
      <trkpt lat="47.82795" lon="1.96735">
        <ele>108</ele>
        <time>2017-01-22T07:54:46.154Z</time>
      </trkpt>
      <trkpt lat="47.82796" lon="1.96739">
        <ele>108</ele>
        <time>2017-01-22T07:54:47.144Z</time>
      </trkpt>
      <trkpt lat="47.82796" lon="1.96739">
        <ele>108</ele>
        <time>2017-01-22T07:54:48.136Z</time>
      </trkpt>
      <trkpt lat="47.82796" lon="1.96743">
        <ele>108</ele>
        <time>2017-01-22T07:54:49.140Z</time>
      </trkpt>
      <trkpt lat="47.82796" lon="1.96743">
        <ele>108</ele>
        <time>2017-01-22T07:54:50.137Z</time>
      </trkpt>
      <trkpt lat="47.82796" lon="1.96747">
        <ele>108</ele>
        <time>2017-01-22T07:54:51.155Z</time>
      </trkpt>
      <trkpt lat="47.82796" lon="1.96749">
        <ele>108</ele>
        <time>2017-01-22T07:54:52.148Z</time>
      </trkpt>
      <trkpt lat="47.82796" lon="1.96749">
        <ele>108</ele>
        <time>2017-01-22T07:54:53.138Z</time>
      </trkpt>
      <trkpt lat="47.82796" lon="1.96752">
        <ele>108</ele>
        <time>2017-01-22T07:54:54.140Z</time>
      </trkpt>
      <trkpt lat="47.82795" lon="1.96755">
        <ele>108</ele>
        <time>2017-01-22T07:54:55.142Z</time>
      </trkpt>
      <trkpt lat="47.82795" lon="1.96755">
        <ele>108</ele>
        <time>2017-01-22T07:54:56.135Z</time>
      </trkpt>
      <trkpt lat="47.82795" lon="1.9676">
        <ele>108</ele>
        <time>2017-01-22T07:54:57.140Z</time>
      </trkpt>
      <trkpt lat="47.82795" lon="1.9676">
        <ele>108</ele>
        <time>2017-01-22T07:54:58.135Z</time>
      </trkpt>
      <trkpt lat="47.82793" lon="1.96765">
        <ele>108</ele>
        <time>2017-01-22T07:54:59.140Z</time>
      </trkpt>
      <trkpt lat="47.82793" lon="1.96765">
        <ele>108</ele>
        <time>2017-01-22T07:55:00.145Z</time>
      </trkpt>
      <trkpt lat="47.82791" lon="1.9677">
        <ele>107</ele>
        <time>2017-01-22T07:55:01.156Z</time>
      </trkpt>
      <trkpt lat="47.82791" lon="1.96773">
        <ele>107</ele>
        <time>2017-01-22T07:55:02.119Z</time>
      </trkpt>
      <trkpt lat="47.82791" lon="1.96773">
        <ele>107</ele>
        <time>2017-01-22T07:55:03.149Z</time>
      </trkpt>
      <trkpt lat="47.8279" lon="1.96779">
        <ele>108</ele>
        <time>2017-01-22T07:55:04.140Z</time>
      </trkpt>
      <trkpt lat="47.82789" lon="1.96781">
        <ele>108</ele>
        <time>2017-01-22T07:55:05.141Z</time>
      </trkpt>
      <trkpt lat="47.82789" lon="1.96781">
        <ele>108</ele>
        <time>2017-01-22T07:55:06.135Z</time>
      </trkpt>
      <trkpt lat="47.82789" lon="1.96786">
        <ele>108</ele>
        <time>2017-01-22T07:55:07.141Z</time>
      </trkpt>
      <trkpt lat="47.82789" lon="1.96786">
        <ele>108</ele>
        <time>2017-01-22T07:55:08.136Z</time>
      </trkpt>
      <trkpt lat="47.82788" lon="1.96791">
        <ele>108</ele>
        <time>2017-01-22T07:55:09.141Z</time>
      </trkpt>
      <trkpt lat="47.82788" lon="1.96791">
        <ele>108</ele>
        <time>2017-01-22T07:55:10.135Z</time>
      </trkpt>
      <trkpt lat="47.82787" lon="1.96796">
        <ele>108</ele>
        <time>2017-01-22T07:55:11.141Z</time>
      </trkpt>
      <trkpt lat="47.82787" lon="1.96796">
        <ele>108</ele>
        <time>2017-01-22T07:55:12.145Z</time>
      </trkpt>
      <trkpt lat="47.82786" lon="1.96801">
        <ele>108</ele>
        <time>2017-01-22T07:55:13.142Z</time>
      </trkpt>
      <trkpt lat="47.82786" lon="1.96801">
        <ele>108</ele>
        <time>2017-01-22T07:55:14.135Z</time>
      </trkpt>
      <trkpt lat="47.82785" lon="1.96807">
        <ele>108</ele>
        <time>2017-01-22T07:55:15.151Z</time>
      </trkpt>
      <trkpt lat="47.82785" lon="1.96807">
        <ele>108</ele>
        <time>2017-01-22T07:55:16.145Z</time>
      </trkpt>
      <trkpt lat="47.82783" lon="1.96812">
        <ele>108</ele>
        <time>2017-01-22T07:55:17.141Z</time>
      </trkpt>
      <trkpt lat="47.82783" lon="1.96812">
        <ele>108</ele>
        <time>2017-01-22T07:55:18.135Z</time>
      </trkpt>
      <trkpt lat="47.82782" lon="1.96818">
        <ele>108</ele>
        <time>2017-01-22T07:55:19.142Z</time>
      </trkpt>
      <trkpt lat="47.82782" lon="1.96818">
        <ele>108</ele>
        <time>2017-01-22T07:55:20.137Z</time>
      </trkpt>
      <trkpt lat="47.82781" lon="1.96824">
        <ele>108</ele>
        <time>2017-01-22T07:55:21.141Z</time>
      </trkpt>
      <trkpt lat="47.82781" lon="1.96824">
        <ele>108</ele>
        <time>2017-01-22T07:55:22.138Z</time>
      </trkpt>
      <trkpt lat="47.82779" lon="1.9683">
        <ele>108</ele>
        <time>2017-01-22T07:55:23.142Z</time>
      </trkpt>
      <trkpt lat="47.82779" lon="1.9683">
        <ele>108</ele>
        <time>2017-01-22T07:55:24.137Z</time>
      </trkpt>
      <trkpt lat="47.82777" lon="1.96835">
        <ele>108</ele>
        <time>2017-01-22T07:55:25.141Z</time>
      </trkpt>
      <trkpt lat="47.82777" lon="1.96835">
        <ele>108</ele>
        <time>2017-01-22T07:55:26.136Z</time>
      </trkpt>
      <trkpt lat="47.82775" lon="1.9684">
        <ele>109</ele>
        <time>2017-01-22T07:55:27.141Z</time>
      </trkpt>
      <trkpt lat="47.82775" lon="1.9684">
        <ele>109</ele>
        <time>2017-01-22T07:55:28.135Z</time>
      </trkpt>
      <trkpt lat="47.82771" lon="1.96845">
        <ele>108</ele>
        <time>2017-01-22T07:55:29.140Z</time>
      </trkpt>
      <trkpt lat="47.82771" lon="1.96845">
        <ele>108</ele>
        <time>2017-01-22T07:55:30.134Z</time>
      </trkpt>
      <trkpt lat="47.82769" lon="1.96851">
        <ele>108</ele>
        <time>2017-01-22T07:55:31.143Z</time>
      </trkpt>
      <trkpt lat="47.82768" lon="1.96855">
        <ele>108</ele>
        <time>2017-01-22T07:55:32.143Z</time>
      </trkpt>
      <trkpt lat="47.82768" lon="1.96855">
        <ele>108</ele>
        <time>2017-01-22T07:55:33.135Z</time>
      </trkpt>
      <trkpt lat="47.82766" lon="1.96863">
        <ele>109</ele>
        <time>2017-01-22T07:55:34.142Z</time>
      </trkpt>
      <trkpt lat="47.82766" lon="1.96863">
        <ele>109</ele>
        <time>2017-01-22T07:55:35.138Z</time>
      </trkpt>
      <trkpt lat="47.82764" lon="1.96872">
        <ele>109</ele>
        <time>2017-01-22T07:55:36.137Z</time>
      </trkpt>
      <trkpt lat="47.82763" lon="1.96877">
        <ele>109</ele>
        <time>2017-01-22T07:55:37.142Z</time>
      </trkpt>
      <trkpt lat="47.82763" lon="1.96877">
        <ele>109</ele>
        <time>2017-01-22T07:55:38.135Z</time>
      </trkpt>
      <trkpt lat="47.82761" lon="1.96887">
        <ele>109</ele>
        <time>2017-01-22T07:55:39.141Z</time>
      </trkpt>
      <trkpt lat="47.82761" lon="1.96887">
        <ele>109</ele>
        <time>2017-01-22T07:55:40.137Z</time>
      </trkpt>
      <trkpt lat="47.8276" lon="1.96896">
        <ele>108</ele>
        <time>2017-01-22T07:55:41.140Z</time>
      </trkpt>
      <trkpt lat="47.82759" lon="1.96901">
        <ele>108</ele>
        <time>2017-01-22T07:55:42.132Z</time>
      </trkpt>
      <trkpt lat="47.82759" lon="1.96901">
        <ele>108</ele>
        <time>2017-01-22T07:55:43.138Z</time>
      </trkpt>
      <trkpt lat="47.82757" lon="1.96911">
        <ele>108</ele>
        <time>2017-01-22T07:55:44.142Z</time>
      </trkpt>
      <trkpt lat="47.82756" lon="1.96915">
        <ele>108</ele>
        <time>2017-01-22T07:55:45.142Z</time>
      </trkpt>
      <trkpt lat="47.82756" lon="1.96915">
        <ele>108</ele>
        <time>2017-01-22T07:55:46.136Z</time>
      </trkpt>
      <trkpt lat="47.82754" lon="1.96922">
        <ele>108</ele>
        <time>2017-01-22T07:55:47.143Z</time>
      </trkpt>
      <trkpt lat="47.82754" lon="1.96922">
        <ele>108</ele>
        <time>2017-01-22T07:55:48.137Z</time>
      </trkpt>
      <trkpt lat="47.82751" lon="1.96923">
        <ele>109</ele>
        <time>2017-01-22T07:55:49.142Z</time>
      </trkpt>
      <trkpt lat="47.82751" lon="1.96923">
        <ele>109</ele>
        <time>2017-01-22T07:55:50.136Z</time>
      </trkpt>
      <trkpt lat="47.82746" lon="1.96919">
        <ele>110</ele>
        <time>2017-01-22T07:55:51.141Z</time>
      </trkpt>
      <trkpt lat="47.82746" lon="1.96919">
        <ele>110</ele>
        <time>2017-01-22T07:55:52.136Z</time>
      </trkpt>
      <trkpt lat="47.82742" lon="1.96913">
        <ele>110</ele>
        <time>2017-01-22T07:55:53.142Z</time>
      </trkpt>
      <trkpt lat="47.82742" lon="1.96913">
        <ele>110</ele>
        <time>2017-01-22T07:55:54.135Z</time>
      </trkpt>
      <trkpt lat="47.82736" lon="1.96906">
        <ele>110</ele>
        <time>2017-01-22T07:55:55.142Z</time>
      </trkpt>
      <trkpt lat="47.82736" lon="1.96906">
        <ele>110</ele>
        <time>2017-01-22T07:55:56.135Z</time>
      </trkpt>
      <trkpt lat="47.8273" lon="1.96897">
        <ele>109</ele>
        <time>2017-01-22T07:55:57.140Z</time>
      </trkpt>
      <trkpt lat="47.82727" lon="1.96893">
        <ele>109</ele>
        <time>2017-01-22T07:55:58.141Z</time>
      </trkpt>
      <trkpt lat="47.82727" lon="1.96893">
        <ele>109</ele>
        <time>2017-01-22T07:55:59.135Z</time>
      </trkpt>
      <trkpt lat="47.82723" lon="1.96885">
        <ele>109</ele>
        <time>2017-01-22T07:56:00.146Z</time>
      </trkpt>
      <trkpt lat="47.82723" lon="1.96885">
        <ele>109</ele>
        <time>2017-01-22T07:56:01.136Z</time>
      </trkpt>
      <trkpt lat="47.82718" lon="1.96876">
        <ele>108</ele>
        <time>2017-01-22T07:56:02.141Z</time>
      </trkpt>
      <trkpt lat="47.82715" lon="1.96871">
        <ele>108</ele>
        <time>2017-01-22T07:56:03.141Z</time>
      </trkpt>
      <trkpt lat="47.82715" lon="1.96871">
        <ele>108</ele>
        <time>2017-01-22T07:56:04.137Z</time>
      </trkpt>
      <trkpt lat="47.8271" lon="1.96862">
        <ele>107</ele>
        <time>2017-01-22T07:56:05.140Z</time>
      </trkpt>
      <trkpt lat="47.8271" lon="1.96862">
        <ele>107</ele>
        <time>2017-01-22T07:56:06.134Z</time>
      </trkpt>
      <trkpt lat="47.82705" lon="1.96853">
        <ele>106</ele>
        <time>2017-01-22T07:56:07.142Z</time>
      </trkpt>
      <trkpt lat="47.82705" lon="1.96853">
        <ele>106</ele>
        <time>2017-01-22T07:56:08.136Z</time>
      </trkpt>
      <trkpt lat="47.827" lon="1.96845">
        <ele>106</ele>
        <time>2017-01-22T07:56:09.142Z</time>
      </trkpt>
      <trkpt lat="47.827" lon="1.96845">
        <ele>106</ele>
        <time>2017-01-22T07:56:10.137Z</time>
      </trkpt>
      <trkpt lat="47.82695" lon="1.96836">
        <ele>106</ele>
        <time>2017-01-22T07:56:11.142Z</time>
      </trkpt>
      <trkpt lat="47.82695" lon="1.96836">
        <ele>106</ele>
        <time>2017-01-22T07:56:12.135Z</time>
      </trkpt>
      <trkpt lat="47.8269" lon="1.96828">
        <ele>104</ele>
        <time>2017-01-22T07:56:13.142Z</time>
      </trkpt>
      <trkpt lat="47.8269" lon="1.96828">
        <ele>104</ele>
        <time>2017-01-22T07:56:14.135Z</time>
      </trkpt>
      <trkpt lat="47.82687" lon="1.96819">
        <ele>104</ele>
        <time>2017-01-22T07:56:15.142Z</time>
      </trkpt>
      <trkpt lat="47.82687" lon="1.96819">
        <ele>104</ele>
        <time>2017-01-22T07:56:16.138Z</time>
      </trkpt>
      <trkpt lat="47.82686" lon="1.96809">
        <ele>104</ele>
        <time>2017-01-22T07:56:17.141Z</time>
      </trkpt>
      <trkpt lat="47.82686" lon="1.96809">
        <ele>104</ele>
        <time>2017-01-22T07:56:18.136Z</time>
      </trkpt>
      <trkpt lat="47.82686" lon="1.96799">
        <ele>104</ele>
        <time>2017-01-22T07:56:19.141Z</time>
      </trkpt>
      <trkpt lat="47.82686" lon="1.96799">
        <ele>104</ele>
        <time>2017-01-22T07:56:20.139Z</time>
      </trkpt>
      <trkpt lat="47.82684" lon="1.96787">
        <ele>103</ele>
        <time>2017-01-22T07:56:21.140Z</time>
      </trkpt>
      <trkpt lat="47.82684" lon="1.96787">
        <ele>103</ele>
        <time>2017-01-22T07:56:22.131Z</time>
      </trkpt>
      <trkpt lat="47.82679" lon="1.96776">
        <ele>102</ele>
        <time>2017-01-22T07:56:23.140Z</time>
      </trkpt>
      <trkpt lat="47.82676" lon="1.96771">
        <ele>102</ele>
        <time>2017-01-22T07:56:24.141Z</time>
      </trkpt>
      <trkpt lat="47.82676" lon="1.96771">
        <ele>102</ele>
        <time>2017-01-22T07:56:25.139Z</time>
      </trkpt>
      <trkpt lat="47.82673" lon="1.96758">
        <ele>101</ele>
        <time>2017-01-22T07:56:26.141Z</time>
      </trkpt>
      <trkpt lat="47.82673" lon="1.96753">
        <ele>101</ele>
        <time>2017-01-22T07:56:27.142Z</time>
      </trkpt>
      <trkpt lat="47.82673" lon="1.96753">
        <ele>101</ele>
        <time>2017-01-22T07:56:28.135Z</time>
      </trkpt>
      <trkpt lat="47.8267" lon="1.96742">
        <ele>102</ele>
        <time>2017-01-22T07:56:29.151Z</time>
      </trkpt>
      <trkpt lat="47.8267" lon="1.96742">
        <ele>102</ele>
        <time>2017-01-22T07:56:30.140Z</time>
      </trkpt>
      <trkpt lat="47.82668" lon="1.96728">
        <ele>102</ele>
        <time>2017-01-22T07:56:31.142Z</time>
      </trkpt>
      <trkpt lat="47.82668" lon="1.96728">
        <ele>102</ele>
        <time>2017-01-22T07:56:32.135Z</time>
      </trkpt>
      <trkpt lat="47.82665" lon="1.96716">
        <ele>102</ele>
        <time>2017-01-22T07:56:33.141Z</time>
      </trkpt>
      <trkpt lat="47.82665" lon="1.96716">
        <ele>102</ele>
        <time>2017-01-22T07:56:34.137Z</time>
      </trkpt>
      <trkpt lat="47.82661" lon="1.96705">
        <ele>102</ele>
        <time>2017-01-22T07:56:35.142Z</time>
      </trkpt>
      <trkpt lat="47.82661" lon="1.96705">
        <ele>102</ele>
        <time>2017-01-22T07:56:36.138Z</time>
      </trkpt>
      <trkpt lat="47.82654" lon="1.96699">
        <ele>101</ele>
        <time>2017-01-22T07:56:37.142Z</time>
      </trkpt>
      <trkpt lat="47.8265" lon="1.96696">
        <ele>101</ele>
        <time>2017-01-22T07:56:38.141Z</time>
      </trkpt>
      <trkpt lat="47.8265" lon="1.96696">
        <ele>101</ele>
        <time>2017-01-22T07:56:39.135Z</time>
      </trkpt>
      <trkpt lat="47.82642" lon="1.96691">
        <ele>101</ele>
        <time>2017-01-22T07:56:40.141Z</time>
      </trkpt>
      <trkpt lat="47.82642" lon="1.96691">
        <ele>101</ele>
        <time>2017-01-22T07:56:41.138Z</time>
      </trkpt>
      <trkpt lat="47.82634" lon="1.96693">
        <ele>101</ele>
        <time>2017-01-22T07:56:42.141Z</time>
      </trkpt>
      <trkpt lat="47.82631" lon="1.96695">
        <ele>101</ele>
        <time>2017-01-22T07:56:43.144Z</time>
      </trkpt>
      <trkpt lat="47.82631" lon="1.96695">
        <ele>101</ele>
        <time>2017-01-22T07:56:44.137Z</time>
      </trkpt>
      <trkpt lat="47.82627" lon="1.96702">
        <ele>101</ele>
        <time>2017-01-22T07:56:45.141Z</time>
      </trkpt>
      <trkpt lat="47.82627" lon="1.96702">
        <ele>101</ele>
        <time>2017-01-22T07:56:46.138Z</time>
      </trkpt>
      <trkpt lat="47.82624" lon="1.96712">
        <ele>101</ele>
        <time>2017-01-22T07:56:47.142Z</time>
      </trkpt>
      <trkpt lat="47.82623" lon="1.96717">
        <ele>102</ele>
        <time>2017-01-22T07:56:48.141Z</time>
      </trkpt>
      <trkpt lat="47.82621" lon="1.96721">
        <ele>102</ele>
        <time>2017-01-22T07:56:49.144Z</time>
      </trkpt>
      <trkpt lat="47.82621" lon="1.96721">
        <ele>102</ele>
        <time>2017-01-22T07:56:50.139Z</time>
      </trkpt>
      <trkpt lat="47.82617" lon="1.96727">
        <ele>102</ele>
        <time>2017-01-22T07:56:51.140Z</time>
      </trkpt>
      <trkpt lat="47.82614" lon="1.96729">
        <ele>103</ele>
        <time>2017-01-22T07:56:52.141Z</time>
      </trkpt>
      <trkpt lat="47.82614" lon="1.96729">
        <ele>103</ele>
        <time>2017-01-22T07:56:53.136Z</time>
      </trkpt>
      <trkpt lat="47.8261" lon="1.96733">
        <ele>103</ele>
        <time>2017-01-22T07:56:54.141Z</time>
      </trkpt>
      <trkpt lat="47.82607" lon="1.96735">
        <ele>104</ele>
        <time>2017-01-22T07:56:55.143Z</time>
      </trkpt>
      <trkpt lat="47.82607" lon="1.96735">
        <ele>104</ele>
        <time>2017-01-22T07:56:56.135Z</time>
      </trkpt>
      <trkpt lat="47.82601" lon="1.96737">
        <ele>104</ele>
        <time>2017-01-22T07:56:57.141Z</time>
      </trkpt>
      <trkpt lat="47.82601" lon="1.96737">
        <ele>104</ele>
        <time>2017-01-22T07:56:58.137Z</time>
      </trkpt>
      <trkpt lat="47.82595" lon="1.96734">
        <ele>105</ele>
        <time>2017-01-22T07:56:59.139Z</time>
      </trkpt>
      <trkpt lat="47.82595" lon="1.96734">
        <ele>105</ele>
        <time>2017-01-22T07:57:00.144Z</time>
      </trkpt>
      <trkpt lat="47.82588" lon="1.96731">
        <ele>105</ele>
        <time>2017-01-22T07:57:01.144Z</time>
      </trkpt>
      <trkpt lat="47.82584" lon="1.9673">
        <ele>105</ele>
        <time>2017-01-22T07:57:02.140Z</time>
      </trkpt>
      <trkpt lat="47.82584" lon="1.9673">
        <ele>105</ele>
        <time>2017-01-22T07:57:03.149Z</time>
      </trkpt>
      <trkpt lat="47.82577" lon="1.9673">
        <ele>105</ele>
        <time>2017-01-22T07:57:04.142Z</time>
      </trkpt>
      <trkpt lat="47.82577" lon="1.9673">
        <ele>105</ele>
        <time>2017-01-22T07:57:05.138Z</time>
      </trkpt>
      <trkpt lat="47.8257" lon="1.9673">
        <ele>106</ele>
        <time>2017-01-22T07:57:06.142Z</time>
      </trkpt>
      <trkpt lat="47.82567" lon="1.96727">
        <ele>106</ele>
        <time>2017-01-22T07:57:07.143Z</time>
      </trkpt>
      <trkpt lat="47.82567" lon="1.96727">
        <ele>106</ele>
        <time>2017-01-22T07:57:08.138Z</time>
      </trkpt>
      <trkpt lat="47.82561" lon="1.96723">
        <ele>105</ele>
        <time>2017-01-22T07:57:09.142Z</time>
      </trkpt>
      <trkpt lat="47.82561" lon="1.96723">
        <ele>105</ele>
        <time>2017-01-22T07:57:10.140Z</time>
      </trkpt>
      <trkpt lat="47.82553" lon="1.96721">
        <ele>106</ele>
        <time>2017-01-22T07:57:11.141Z</time>
      </trkpt>
      <trkpt lat="47.82553" lon="1.96721">
        <ele>106</ele>
        <time>2017-01-22T07:57:12.133Z</time>
      </trkpt>
      <trkpt lat="47.82543" lon="1.96723">
        <ele>106</ele>
        <time>2017-01-22T07:57:13.122Z</time>
      </trkpt>
      <trkpt lat="47.82543" lon="1.96723">
        <ele>106</ele>
        <time>2017-01-22T07:57:14.125Z</time>
      </trkpt>
      <trkpt lat="47.82535" lon="1.96719">
        <ele>106</ele>
        <time>2017-01-22T07:57:15.155Z</time>
      </trkpt>
      <trkpt lat="47.82535" lon="1.96719">
        <ele>106</ele>
        <time>2017-01-22T07:57:16.143Z</time>
      </trkpt>
      <trkpt lat="47.82529" lon="1.96712">
        <ele>105</ele>
        <time>2017-01-22T07:57:17.140Z</time>
      </trkpt>
      <trkpt lat="47.82529" lon="1.96712">
        <ele>105</ele>
        <time>2017-01-22T07:57:18.138Z</time>
      </trkpt>
      <trkpt lat="47.8252" lon="1.9671">
        <ele>105</ele>
        <time>2017-01-22T07:57:19.142Z</time>
      </trkpt>
      <trkpt lat="47.8252" lon="1.9671">
        <ele>105</ele>
        <time>2017-01-22T07:57:20.135Z</time>
      </trkpt>
      <trkpt lat="47.82511" lon="1.96713">
        <ele>105</ele>
        <time>2017-01-22T07:57:21.151Z</time>
      </trkpt>
      <trkpt lat="47.82511" lon="1.96713">
        <ele>105</ele>
        <time>2017-01-22T07:57:22.141Z</time>
      </trkpt>
      <trkpt lat="47.82501" lon="1.96711">
        <ele>105</ele>
        <time>2017-01-22T07:57:23.140Z</time>
      </trkpt>
      <trkpt lat="47.82498" lon="1.96708">
        <ele>105</ele>
        <time>2017-01-22T07:57:24.141Z</time>
      </trkpt>
      <trkpt lat="47.82494" lon="1.96705">
        <ele>105</ele>
        <time>2017-01-22T07:57:25.140Z</time>
      </trkpt>
      <trkpt lat="47.82494" lon="1.96705">
        <ele>105</ele>
        <time>2017-01-22T07:57:26.136Z</time>
      </trkpt>
      <trkpt lat="47.82485" lon="1.96704">
        <ele>104</ele>
        <time>2017-01-22T07:57:27.141Z</time>
      </trkpt>
      <trkpt lat="47.82481" lon="1.96705">
        <ele>104</ele>
        <time>2017-01-22T07:57:28.141Z</time>
      </trkpt>
      <trkpt lat="47.82481" lon="1.96705">
        <ele>104</ele>
        <time>2017-01-22T07:57:29.137Z</time>
      </trkpt>
      <trkpt lat="47.82473" lon="1.9671">
        <ele>103</ele>
        <time>2017-01-22T07:57:30.141Z</time>
      </trkpt>
      <trkpt lat="47.82472" lon="1.96715">
        <ele>103</ele>
        <time>2017-01-22T07:57:31.144Z</time>
      </trkpt>
      <trkpt lat="47.82472" lon="1.96715">
        <ele>103</ele>
        <time>2017-01-22T07:57:32.135Z</time>
      </trkpt>
      <trkpt lat="47.82467" lon="1.96721">
        <ele>103</ele>
        <time>2017-01-22T07:57:33.150Z</time>
      </trkpt>
      <trkpt lat="47.82463" lon="1.96723">
        <ele>103</ele>
        <time>2017-01-22T07:57:34.142Z</time>
      </trkpt>
      <trkpt lat="47.82463" lon="1.96723">
        <ele>103</ele>
        <time>2017-01-22T07:57:35.135Z</time>
      </trkpt>
      <trkpt lat="47.82457" lon="1.96728">
        <ele>103</ele>
        <time>2017-01-22T07:57:36.142Z</time>
      </trkpt>
      <trkpt lat="47.82455" lon="1.96732">
        <ele>103</ele>
        <time>2017-01-22T07:57:37.139Z</time>
      </trkpt>
      <trkpt lat="47.82455" lon="1.96732">
        <ele>103</ele>
        <time>2017-01-22T07:57:38.137Z</time>
      </trkpt>
      <trkpt lat="47.82455" lon="1.96741">
        <ele>103</ele>
        <time>2017-01-22T07:57:39.143Z</time>
      </trkpt>
      <trkpt lat="47.82455" lon="1.96741">
        <ele>103</ele>
        <time>2017-01-22T07:57:40.135Z</time>
      </trkpt>
      <trkpt lat="47.82455" lon="1.96752">
        <ele>103</ele>
        <time>2017-01-22T07:57:41.142Z</time>
      </trkpt>
      <trkpt lat="47.82455" lon="1.96757">
        <ele>103</ele>
        <time>2017-01-22T07:57:42.142Z</time>
      </trkpt>
      <trkpt lat="47.82455" lon="1.96757">
        <ele>103</ele>
        <time>2017-01-22T07:57:43.135Z</time>
      </trkpt>
      <trkpt lat="47.82453" lon="1.96768">
        <ele>103</ele>
        <time>2017-01-22T07:57:44.142Z</time>
      </trkpt>
      <trkpt lat="47.82453" lon="1.96772">
        <ele>103</ele>
        <time>2017-01-22T07:57:45.142Z</time>
      </trkpt>
      <trkpt lat="47.82453" lon="1.96772">
        <ele>103</ele>
        <time>2017-01-22T07:57:46.135Z</time>
      </trkpt>
      <trkpt lat="47.82451" lon="1.96783">
        <ele>103</ele>
        <time>2017-01-22T07:57:47.141Z</time>
      </trkpt>
      <trkpt lat="47.82451" lon="1.96783">
        <ele>103</ele>
        <time>2017-01-22T07:57:48.137Z</time>
      </trkpt>
      <trkpt lat="47.8245" lon="1.96794">
        <ele>103</ele>
        <time>2017-01-22T07:57:49.144Z</time>
      </trkpt>
      <trkpt lat="47.8245" lon="1.96794">
        <ele>103</ele>
        <time>2017-01-22T07:57:50.136Z</time>
      </trkpt>
      <trkpt lat="47.82448" lon="1.96806">
        <ele>103</ele>
        <time>2017-01-22T07:57:51.141Z</time>
      </trkpt>
      <trkpt lat="47.82448" lon="1.96812">
        <ele>104</ele>
        <time>2017-01-22T07:57:52.139Z</time>
      </trkpt>
      <trkpt lat="47.82448" lon="1.96812">
        <ele>104</ele>
        <time>2017-01-22T07:57:53.136Z</time>
      </trkpt>
      <trkpt lat="47.82446" lon="1.96824">
        <ele>104</ele>
        <time>2017-01-22T07:57:54.141Z</time>
      </trkpt>
      <trkpt lat="47.82446" lon="1.96831">
        <ele>104</ele>
        <time>2017-01-22T07:57:55.142Z</time>
      </trkpt>
      <trkpt lat="47.82446" lon="1.96831">
        <ele>104</ele>
        <time>2017-01-22T07:57:56.139Z</time>
      </trkpt>
      <trkpt lat="47.82446" lon="1.96844">
        <ele>104</ele>
        <time>2017-01-22T07:57:57.141Z</time>
      </trkpt>
      <trkpt lat="47.82446" lon="1.96844">
        <ele>104</ele>
        <time>2017-01-22T07:57:58.137Z</time>
      </trkpt>
      <trkpt lat="47.82444" lon="1.96854">
        <ele>104</ele>
        <time>2017-01-22T07:57:59.141Z</time>
      </trkpt>
      <trkpt lat="47.82441" lon="1.9686">
        <ele>104</ele>
        <time>2017-01-22T07:58:00.143Z</time>
      </trkpt>
      <trkpt lat="47.82439" lon="1.96864">
        <ele>104</ele>
        <time>2017-01-22T07:58:01.145Z</time>
      </trkpt>
      <trkpt lat="47.82439" lon="1.96864">
        <ele>104</ele>
        <time>2017-01-22T07:58:02.136Z</time>
      </trkpt>
      <trkpt lat="47.82434" lon="1.9687">
        <ele>105</ele>
        <time>2017-01-22T07:58:03.139Z</time>
      </trkpt>
      <trkpt lat="47.8243" lon="1.96872">
        <ele>106</ele>
        <time>2017-01-22T07:58:04.142Z</time>
      </trkpt>
      <trkpt lat="47.8243" lon="1.96872">
        <ele>106</ele>
        <time>2017-01-22T07:58:05.137Z</time>
      </trkpt>
      <trkpt lat="47.82423" lon="1.96876">
        <ele>106</ele>
        <time>2017-01-22T07:58:06.142Z</time>
      </trkpt>
      <trkpt lat="47.8242" lon="1.96878">
        <ele>106</ele>
        <time>2017-01-22T07:58:07.143Z</time>
      </trkpt>
      <trkpt lat="47.8242" lon="1.96878">
        <ele>106</ele>
        <time>2017-01-22T07:58:08.137Z</time>
      </trkpt>
      <trkpt lat="47.82414" lon="1.96882">
        <ele>106</ele>
        <time>2017-01-22T07:58:09.142Z</time>
      </trkpt>
      <trkpt lat="47.82414" lon="1.96882">
        <ele>106</ele>
        <time>2017-01-22T07:58:10.140Z</time>
      </trkpt>
      <trkpt lat="47.82409" lon="1.96885">
        <ele>107</ele>
        <time>2017-01-22T07:58:11.140Z</time>
      </trkpt>
      <trkpt lat="47.82409" lon="1.96885">
        <ele>107</ele>
        <time>2017-01-22T07:58:12.136Z</time>
      </trkpt>
      <trkpt lat="47.82402" lon="1.96889">
        <ele>108</ele>
        <time>2017-01-22T07:58:13.143Z</time>
      </trkpt>
      <trkpt lat="47.82402" lon="1.96889">
        <ele>108</ele>
        <time>2017-01-22T07:58:14.137Z</time>
      </trkpt>
      <trkpt lat="47.82393" lon="1.96895">
        <ele>108</ele>
        <time>2017-01-22T07:58:15.142Z</time>
      </trkpt>
      <trkpt lat="47.82393" lon="1.96895">
        <ele>108</ele>
        <time>2017-01-22T07:58:16.135Z</time>
      </trkpt>
      <trkpt lat="47.82385" lon="1.969">
        <ele>108</ele>
        <time>2017-01-22T07:58:17.142Z</time>
      </trkpt>
      <trkpt lat="47.82385" lon="1.969">
        <ele>108</ele>
        <time>2017-01-22T07:58:18.137Z</time>
      </trkpt>
      <trkpt lat="47.82377" lon="1.96905">
        <ele>107</ele>
        <time>2017-01-22T07:58:19.143Z</time>
      </trkpt>
      <trkpt lat="47.82377" lon="1.96905">
        <ele>107</ele>
        <time>2017-01-22T07:58:20.136Z</time>
      </trkpt>
      <trkpt lat="47.82369" lon="1.96909">
        <ele>107</ele>
        <time>2017-01-22T07:58:21.140Z</time>
      </trkpt>
      <trkpt lat="47.82364" lon="1.96911">
        <ele>107</ele>
        <time>2017-01-22T07:58:22.141Z</time>
      </trkpt>
      <trkpt lat="47.82364" lon="1.96911">
        <ele>107</ele>
        <time>2017-01-22T07:58:23.137Z</time>
      </trkpt>
      <trkpt lat="47.82357" lon="1.96917">
        <ele>106</ele>
        <time>2017-01-22T07:58:24.142Z</time>
      </trkpt>
      <trkpt lat="47.82354" lon="1.96922">
        <ele>106</ele>
        <time>2017-01-22T07:58:25.144Z</time>
      </trkpt>
      <trkpt lat="47.82354" lon="1.96922">
        <ele>106</ele>
        <time>2017-01-22T07:58:26.137Z</time>
      </trkpt>
      <trkpt lat="47.82352" lon="1.96933">
        <ele>106</ele>
        <time>2017-01-22T07:58:27.141Z</time>
      </trkpt>
      <trkpt lat="47.82352" lon="1.96933">
        <ele>106</ele>
        <time>2017-01-22T07:58:28.137Z</time>
      </trkpt>
      <trkpt lat="47.82349" lon="1.96946">
        <ele>107</ele>
        <time>2017-01-22T07:58:29.137Z</time>
      </trkpt>
      <trkpt lat="47.82349" lon="1.96946">
        <ele>107</ele>
        <time>2017-01-22T07:58:30.133Z</time>
      </trkpt>
      <trkpt lat="47.82346" lon="1.96961">
        <ele>107</ele>
        <time>2017-01-22T07:58:31.140Z</time>
      </trkpt>
      <trkpt lat="47.82346" lon="1.96961">
        <ele>107</ele>
        <time>2017-01-22T07:58:32.137Z</time>
      </trkpt>
      <trkpt lat="47.82344" lon="1.96974">
        <ele>107</ele>
        <time>2017-01-22T07:58:33.143Z</time>
      </trkpt>
      <trkpt lat="47.82344" lon="1.96974">
        <ele>107</ele>
        <time>2017-01-22T07:58:34.139Z</time>
      </trkpt>
      <trkpt lat="47.82342" lon="1.96989">
        <ele>107</ele>
        <time>2017-01-22T07:58:35.143Z</time>
      </trkpt>
      <trkpt lat="47.82342" lon="1.96989">
        <ele>107</ele>
        <time>2017-01-22T07:58:36.137Z</time>
      </trkpt>
      <trkpt lat="47.82338" lon="1.97003">
        <ele>107</ele>
        <time>2017-01-22T07:58:37.141Z</time>
      </trkpt>
      <trkpt lat="47.82338" lon="1.97003">
        <ele>107</ele>
        <time>2017-01-22T07:58:38.137Z</time>
      </trkpt>
      <trkpt lat="47.82336" lon="1.97017">
        <ele>107</ele>
        <time>2017-01-22T07:58:39.142Z</time>
      </trkpt>
      <trkpt lat="47.82336" lon="1.97017">
        <ele>107</ele>
        <time>2017-01-22T07:58:40.137Z</time>
      </trkpt>
      <trkpt lat="47.82333" lon="1.9703">
        <ele>107</ele>
        <time>2017-01-22T07:58:41.142Z</time>
      </trkpt>
      <trkpt lat="47.82332" lon="1.97037">
        <ele>107</ele>
        <time>2017-01-22T07:58:42.142Z</time>
      </trkpt>
      <trkpt lat="47.82331" lon="1.97044">
        <ele>107</ele>
        <time>2017-01-22T07:58:43.145Z</time>
      </trkpt>
      <trkpt lat="47.82331" lon="1.97044">
        <ele>107</ele>
        <time>2017-01-22T07:58:44.136Z</time>
      </trkpt>
      <trkpt lat="47.82329" lon="1.97056">
        <ele>107</ele>
        <time>2017-01-22T07:58:45.139Z</time>
      </trkpt>
      <trkpt lat="47.82329" lon="1.97056">
        <ele>107</ele>
        <time>2017-01-22T07:58:46.137Z</time>
      </trkpt>
      <trkpt lat="47.82329" lon="1.97066">
        <ele>107</ele>
        <time>2017-01-22T07:58:47.143Z</time>
      </trkpt>
      <trkpt lat="47.82329" lon="1.97066">
        <ele>107</ele>
        <time>2017-01-22T07:58:48.133Z</time>
      </trkpt>
      <trkpt lat="47.82335" lon="1.97072">
        <ele>109</ele>
        <time>2017-01-22T07:58:49.144Z</time>
      </trkpt>
      <trkpt lat="47.82335" lon="1.97072">
        <ele>109</ele>
        <time>2017-01-22T07:58:50.137Z</time>
      </trkpt>
      <trkpt lat="47.82342" lon="1.97074">
        <ele>109</ele>
        <time>2017-01-22T07:58:51.156Z</time>
      </trkpt>
      <trkpt lat="47.82342" lon="1.97074">
        <ele>109</ele>
        <time>2017-01-22T07:58:52.145Z</time>
      </trkpt>
      <trkpt lat="47.82349" lon="1.97076">
        <ele>109</ele>
        <time>2017-01-22T07:58:53.142Z</time>
      </trkpt>
      <trkpt lat="47.82349" lon="1.97076">
        <ele>109</ele>
        <time>2017-01-22T07:58:54.136Z</time>
      </trkpt>
      <trkpt lat="47.82357" lon="1.97078">
        <ele>108</ele>
        <time>2017-01-22T07:58:55.142Z</time>
      </trkpt>
      <trkpt lat="47.82357" lon="1.97078">
        <ele>108</ele>
        <time>2017-01-22T07:58:56.140Z</time>
      </trkpt>
      <trkpt lat="47.82366" lon="1.9708">
        <ele>108</ele>
        <time>2017-01-22T07:58:57.142Z</time>
      </trkpt>
      <trkpt lat="47.82371" lon="1.97081">
        <ele>109</ele>
        <time>2017-01-22T07:58:58.142Z</time>
      </trkpt>
      <trkpt lat="47.82371" lon="1.97081">
        <ele>109</ele>
        <time>2017-01-22T07:58:59.146Z</time>
      </trkpt>
      <trkpt lat="47.82379" lon="1.97083">
        <ele>109</ele>
        <time>2017-01-22T07:59:00.149Z</time>
      </trkpt>
      <trkpt lat="47.82383" lon="1.97084">
        <ele>109</ele>
        <time>2017-01-22T07:59:01.145Z</time>
      </trkpt>
      <trkpt lat="47.82383" lon="1.97084">
        <ele>109</ele>
        <time>2017-01-22T07:59:02.140Z</time>
      </trkpt>
      <trkpt lat="47.8239" lon="1.97087">
        <ele>109</ele>
        <time>2017-01-22T07:59:03.142Z</time>
      </trkpt>
      <trkpt lat="47.8239" lon="1.97087">
        <ele>109</ele>
        <time>2017-01-22T07:59:04.137Z</time>
      </trkpt>
      <trkpt lat="47.82399" lon="1.9709">
        <ele>109</ele>
        <time>2017-01-22T07:59:05.141Z</time>
      </trkpt>
      <trkpt lat="47.82399" lon="1.9709">
        <ele>109</ele>
        <time>2017-01-22T07:59:06.136Z</time>
      </trkpt>
      <trkpt lat="47.82407" lon="1.97092">
        <ele>109</ele>
        <time>2017-01-22T07:59:07.145Z</time>
      </trkpt>
      <trkpt lat="47.82407" lon="1.97092">
        <ele>109</ele>
        <time>2017-01-22T07:59:08.137Z</time>
      </trkpt>
      <trkpt lat="47.82413" lon="1.97097">
        <ele>109</ele>
        <time>2017-01-22T07:59:09.142Z</time>
      </trkpt>
      <trkpt lat="47.82413" lon="1.97097">
        <ele>109</ele>
        <time>2017-01-22T07:59:10.138Z</time>
      </trkpt>
      <trkpt lat="47.82419" lon="1.97103">
        <ele>109</ele>
        <time>2017-01-22T07:59:11.139Z</time>
      </trkpt>
      <trkpt lat="47.82419" lon="1.97107">
        <ele>109</ele>
        <time>2017-01-22T07:59:12.140Z</time>
      </trkpt>
      <trkpt lat="47.82419" lon="1.9711">
        <ele>108</ele>
        <time>2017-01-22T07:59:13.141Z</time>
      </trkpt>
      <trkpt lat="47.82419" lon="1.9711">
        <ele>108</ele>
        <time>2017-01-22T07:59:14.136Z</time>
      </trkpt>
      <trkpt lat="47.82418" lon="1.97118">
        <ele>107</ele>
        <time>2017-01-22T07:59:15.142Z</time>
      </trkpt>
      <trkpt lat="47.82418" lon="1.97118">
        <ele>107</ele>
        <time>2017-01-22T07:59:16.136Z</time>
      </trkpt>
      <trkpt lat="47.82421" lon="1.97124">
        <ele>106</ele>
        <time>2017-01-22T07:59:17.142Z</time>
      </trkpt>
      <trkpt lat="47.82421" lon="1.97124">
        <ele>106</ele>
        <time>2017-01-22T07:59:18.137Z</time>
      </trkpt>
      <trkpt lat="47.82428" lon="1.97125">
        <ele>107</ele>
        <time>2017-01-22T07:59:19.143Z</time>
      </trkpt>
      <trkpt lat="47.82428" lon="1.97125">
        <ele>107</ele>
        <time>2017-01-22T07:59:20.137Z</time>
      </trkpt>
      <trkpt lat="47.82434" lon="1.97125">
        <ele>107</ele>
        <time>2017-01-22T07:59:21.141Z</time>
      </trkpt>
      <trkpt lat="47.82434" lon="1.97125">
        <ele>107</ele>
        <time>2017-01-22T07:59:22.133Z</time>
      </trkpt>
      <trkpt lat="47.82441" lon="1.97126">
        <ele>107</ele>
        <time>2017-01-22T07:59:23.143Z</time>
      </trkpt>
      <trkpt lat="47.82441" lon="1.97126">
        <ele>107</ele>
        <time>2017-01-22T07:59:24.136Z</time>
      </trkpt>
      <trkpt lat="47.82448" lon="1.97126">
        <ele>107</ele>
        <time>2017-01-22T07:59:25.143Z</time>
      </trkpt>
      <trkpt lat="47.82448" lon="1.97126">
        <ele>107</ele>
        <time>2017-01-22T07:59:26.146Z</time>
      </trkpt>
      <trkpt lat="47.82456" lon="1.97127">
        <ele>107</ele>
        <time>2017-01-22T07:59:27.143Z</time>
      </trkpt>
      <trkpt lat="47.82459" lon="1.97128">
        <ele>107</ele>
        <time>2017-01-22T07:59:28.142Z</time>
      </trkpt>
      <trkpt lat="47.82459" lon="1.97128">
        <ele>107</ele>
        <time>2017-01-22T07:59:29.139Z</time>
      </trkpt>
      <trkpt lat="47.82468" lon="1.97129">
        <ele>107</ele>
        <time>2017-01-22T07:59:30.143Z</time>
      </trkpt>
      <trkpt lat="47.82468" lon="1.97129">
        <ele>107</ele>
        <time>2017-01-22T07:59:31.137Z</time>
      </trkpt>
      <trkpt lat="47.82477" lon="1.97131">
        <ele>107</ele>
        <time>2017-01-22T07:59:32.142Z</time>
      </trkpt>
      <trkpt lat="47.82477" lon="1.97131">
        <ele>107</ele>
        <time>2017-01-22T07:59:33.139Z</time>
      </trkpt>
      <trkpt lat="47.82485" lon="1.97131">
        <ele>107</ele>
        <time>2017-01-22T07:59:34.134Z</time>
      </trkpt>
      <trkpt lat="47.82489" lon="1.97132">
        <ele>107</ele>
        <time>2017-01-22T07:59:35.142Z</time>
      </trkpt>
      <trkpt lat="47.82489" lon="1.97132">
        <ele>107</ele>
        <time>2017-01-22T07:59:36.137Z</time>
      </trkpt>
      <trkpt lat="47.82498" lon="1.97133">
        <ele>108</ele>
        <time>2017-01-22T07:59:37.143Z</time>
      </trkpt>
      <trkpt lat="47.82498" lon="1.97133">
        <ele>108</ele>
        <time>2017-01-22T07:59:38.139Z</time>
      </trkpt>
      <trkpt lat="47.82506" lon="1.97134">
        <ele>107</ele>
        <time>2017-01-22T07:59:39.142Z</time>
      </trkpt>
      <trkpt lat="47.82506" lon="1.97134">
        <ele>107</ele>
        <time>2017-01-22T07:59:40.139Z</time>
      </trkpt>
      <trkpt lat="47.82514" lon="1.97134">
        <ele>107</ele>
        <time>2017-01-22T07:59:41.149Z</time>
      </trkpt>
      <trkpt lat="47.82518" lon="1.97133">
        <ele>107</ele>
        <time>2017-01-22T07:59:42.142Z</time>
      </trkpt>
      <trkpt lat="47.82522" lon="1.97133">
        <ele>107</ele>
        <time>2017-01-22T07:59:43.143Z</time>
      </trkpt>
      <trkpt lat="47.82522" lon="1.97133">
        <ele>107</ele>
        <time>2017-01-22T07:59:44.139Z</time>
      </trkpt>
      <trkpt lat="47.82529" lon="1.97133">
        <ele>108</ele>
        <time>2017-01-22T07:59:45.143Z</time>
      </trkpt>
      <trkpt lat="47.82529" lon="1.97133">
        <ele>108</ele>
        <time>2017-01-22T07:59:46.140Z</time>
      </trkpt>
      <trkpt lat="47.82536" lon="1.97136">
        <ele>108</ele>
        <time>2017-01-22T07:59:47.142Z</time>
      </trkpt>
      <trkpt lat="47.82536" lon="1.97136">
        <ele>108</ele>
        <time>2017-01-22T07:59:48.137Z</time>
      </trkpt>
      <trkpt lat="47.82541" lon="1.97144">
        <ele>108</ele>
        <time>2017-01-22T07:59:49.145Z</time>
      </trkpt>
      <trkpt lat="47.82541" lon="1.97144">
        <ele>108</ele>
        <time>2017-01-22T07:59:50.137Z</time>
      </trkpt>
      <trkpt lat="47.8254" lon="1.97154">
        <ele>108</ele>
        <time>2017-01-22T07:59:51.143Z</time>
      </trkpt>
      <trkpt lat="47.8254" lon="1.97154">
        <ele>108</ele>
        <time>2017-01-22T07:59:52.137Z</time>
      </trkpt>
      <trkpt lat="47.82538" lon="1.97164">
        <ele>108</ele>
        <time>2017-01-22T07:59:53.142Z</time>
      </trkpt>
      <trkpt lat="47.82538" lon="1.97164">
        <ele>108</ele>
        <time>2017-01-22T07:59:54.137Z</time>
      </trkpt>
      <trkpt lat="47.82534" lon="1.97175">
        <ele>108</ele>
        <time>2017-01-22T07:59:55.150Z</time>
      </trkpt>
      <trkpt lat="47.82534" lon="1.97175">
        <ele>108</ele>
        <time>2017-01-22T07:59:56.140Z</time>
      </trkpt>
      <trkpt lat="47.8253" lon="1.97187">
        <ele>108</ele>
        <time>2017-01-22T07:59:57.142Z</time>
      </trkpt>
      <trkpt lat="47.82529" lon="1.97194">
        <ele>108</ele>
        <time>2017-01-22T07:59:58.140Z</time>
      </trkpt>
      <trkpt lat="47.82529" lon="1.97194">
        <ele>108</ele>
        <time>2017-01-22T07:59:59.140Z</time>
      </trkpt>
      <trkpt lat="47.82525" lon="1.97206">
        <ele>107</ele>
        <time>2017-01-22T08:00:00.146Z</time>
      </trkpt>
      <trkpt lat="47.82525" lon="1.97206">
        <ele>107</ele>
        <time>2017-01-22T08:00:01.141Z</time>
      </trkpt>
      <trkpt lat="47.8252" lon="1.97218">
        <ele>107</ele>
        <time>2017-01-22T08:00:02.143Z</time>
      </trkpt>
      <trkpt lat="47.82518" lon="1.97224">
        <ele>107</ele>
        <time>2017-01-22T08:00:03.143Z</time>
      </trkpt>
      <trkpt lat="47.82518" lon="1.97224">
        <ele>107</ele>
        <time>2017-01-22T08:00:04.137Z</time>
      </trkpt>
      <trkpt lat="47.82514" lon="1.97237">
        <ele>107</ele>
        <time>2017-01-22T08:00:05.142Z</time>
      </trkpt>
      <trkpt lat="47.82514" lon="1.97237">
        <ele>107</ele>
        <time>2017-01-22T08:00:06.137Z</time>
      </trkpt>
      <trkpt lat="47.8251" lon="1.97249">
        <ele>107</ele>
        <time>2017-01-22T08:00:07.144Z</time>
      </trkpt>
      <trkpt lat="47.8251" lon="1.97249">
        <ele>107</ele>
        <time>2017-01-22T08:00:08.134Z</time>
      </trkpt>
      <trkpt lat="47.82506" lon="1.9726">
        <ele>107</ele>
        <time>2017-01-22T08:00:09.143Z</time>
      </trkpt>
      <trkpt lat="47.82504" lon="1.97266">
        <ele>107</ele>
        <time>2017-01-22T08:00:10.143Z</time>
      </trkpt>
      <trkpt lat="47.82504" lon="1.97266">
        <ele>107</ele>
        <time>2017-01-22T08:00:11.150Z</time>
      </trkpt>
      <trkpt lat="47.825" lon="1.97278">
        <ele>107</ele>
        <time>2017-01-22T08:00:12.143Z</time>
      </trkpt>
      <trkpt lat="47.825" lon="1.97278">
        <ele>107</ele>
        <time>2017-01-22T08:00:13.141Z</time>
      </trkpt>
      <trkpt lat="47.82496" lon="1.9729">
        <ele>107</ele>
        <time>2017-01-22T08:00:14.143Z</time>
      </trkpt>
      <trkpt lat="47.82496" lon="1.9729">
        <ele>107</ele>
        <time>2017-01-22T08:00:15.149Z</time>
      </trkpt>
      <trkpt lat="47.82492" lon="1.97302">
        <ele>107</ele>
        <time>2017-01-22T08:00:16.143Z</time>
      </trkpt>
      <trkpt lat="47.8249" lon="1.97308">
        <ele>107</ele>
        <time>2017-01-22T08:00:17.143Z</time>
      </trkpt>
      <trkpt lat="47.8249" lon="1.97308">
        <ele>107</ele>
        <time>2017-01-22T08:00:18.138Z</time>
      </trkpt>
      <trkpt lat="47.82486" lon="1.97321">
        <ele>107</ele>
        <time>2017-01-22T08:00:19.143Z</time>
      </trkpt>
      <trkpt lat="47.82483" lon="1.97327">
        <ele>107</ele>
        <time>2017-01-22T08:00:20.126Z</time>
      </trkpt>
      <trkpt lat="47.82482" lon="1.97333">
        <ele>107</ele>
        <time>2017-01-22T08:00:21.118Z</time>
      </trkpt>
      <trkpt lat="47.82482" lon="1.97333">
        <ele>107</ele>
        <time>2017-01-22T08:00:22.149Z</time>
      </trkpt>
      <trkpt lat="47.82478" lon="1.97345">
        <ele>107</ele>
        <time>2017-01-22T08:00:23.143Z</time>
      </trkpt>
      <trkpt lat="47.82478" lon="1.97345">
        <ele>107</ele>
        <time>2017-01-22T08:00:24.138Z</time>
      </trkpt>
      <trkpt lat="47.82473" lon="1.97358">
        <ele>107</ele>
        <time>2017-01-22T08:00:25.144Z</time>
      </trkpt>
      <trkpt lat="47.82473" lon="1.97358">
        <ele>107</ele>
        <time>2017-01-22T08:00:26.137Z</time>
      </trkpt>
      <trkpt lat="47.82469" lon="1.97372">
        <ele>107</ele>
        <time>2017-01-22T08:00:27.143Z</time>
      </trkpt>
      <trkpt lat="47.82469" lon="1.97372">
        <ele>107</ele>
        <time>2017-01-22T08:00:28.139Z</time>
      </trkpt>
      <trkpt lat="47.82465" lon="1.97384">
        <ele>107</ele>
        <time>2017-01-22T08:00:29.143Z</time>
      </trkpt>
      <trkpt lat="47.82465" lon="1.97384">
        <ele>107</ele>
        <time>2017-01-22T08:00:30.141Z</time>
      </trkpt>
      <trkpt lat="47.8246" lon="1.97397">
        <ele>107</ele>
        <time>2017-01-22T08:00:31.143Z</time>
      </trkpt>
      <trkpt lat="47.82458" lon="1.97405">
        <ele>107</ele>
        <time>2017-01-22T08:00:32.134Z</time>
      </trkpt>
      <trkpt lat="47.82458" lon="1.97405">
        <ele>107</ele>
        <time>2017-01-22T08:00:33.141Z</time>
      </trkpt>
      <trkpt lat="47.82453" lon="1.97419">
        <ele>107</ele>
        <time>2017-01-22T08:00:34.142Z</time>
      </trkpt>
      <trkpt lat="47.82453" lon="1.97419">
        <ele>107</ele>
        <time>2017-01-22T08:00:35.141Z</time>
      </trkpt>
      <trkpt lat="47.82449" lon="1.97433">
        <ele>107</ele>
        <time>2017-01-22T08:00:36.140Z</time>
      </trkpt>
      <trkpt lat="47.82446" lon="1.97439">
        <ele>107</ele>
        <time>2017-01-22T08:00:37.157Z</time>
      </trkpt>
      <trkpt lat="47.82446" lon="1.97439">
        <ele>107</ele>
        <time>2017-01-22T08:00:38.146Z</time>
      </trkpt>
      <trkpt lat="47.82442" lon="1.97452">
        <ele>108</ele>
        <time>2017-01-22T08:00:39.141Z</time>
      </trkpt>
      <trkpt lat="47.8244" lon="1.97458">
        <ele>108</ele>
        <time>2017-01-22T08:00:40.144Z</time>
      </trkpt>
      <trkpt lat="47.82437" lon="1.97464">
        <ele>108</ele>
        <time>2017-01-22T08:00:41.146Z</time>
      </trkpt>
      <trkpt lat="47.82437" lon="1.97464">
        <ele>108</ele>
        <time>2017-01-22T08:00:42.137Z</time>
      </trkpt>
      <trkpt lat="47.82433" lon="1.97478">
        <ele>109</ele>
        <time>2017-01-22T08:00:43.145Z</time>
      </trkpt>
      <trkpt lat="47.82433" lon="1.97478">
        <ele>109</ele>
        <time>2017-01-22T08:00:44.137Z</time>
      </trkpt>
      <trkpt lat="47.82428" lon="1.97492">
        <ele>108</ele>
        <time>2017-01-22T08:00:45.138Z</time>
      </trkpt>
      <trkpt lat="47.82426" lon="1.97499">
        <ele>109</ele>
        <time>2017-01-22T08:00:46.141Z</time>
      </trkpt>
      <trkpt lat="47.82424" lon="1.97506">
        <ele>108</ele>
        <time>2017-01-22T08:00:47.143Z</time>
      </trkpt>
      <trkpt lat="47.82424" lon="1.97506">
        <ele>108</ele>
        <time>2017-01-22T08:00:48.137Z</time>
      </trkpt>
      <trkpt lat="47.82419" lon="1.9752">
        <ele>107</ele>
        <time>2017-01-22T08:00:49.142Z</time>
      </trkpt>
      <trkpt lat="47.82416" lon="1.97526">
        <ele>108</ele>
        <time>2017-01-22T08:00:50.150Z</time>
      </trkpt>
      <trkpt lat="47.82416" lon="1.97526">
        <ele>108</ele>
        <time>2017-01-22T08:00:51.140Z</time>
      </trkpt>
      <trkpt lat="47.82409" lon="1.97538">
        <ele>108</ele>
        <time>2017-01-22T08:00:52.143Z</time>
      </trkpt>
      <trkpt lat="47.82405" lon="1.97543">
        <ele>108</ele>
        <time>2017-01-22T08:00:53.119Z</time>
      </trkpt>
      <trkpt lat="47.82405" lon="1.97543">
        <ele>108</ele>
        <time>2017-01-22T08:00:54.149Z</time>
      </trkpt>
      <trkpt lat="47.82397" lon="1.97553">
        <ele>107</ele>
        <time>2017-01-22T08:00:55.142Z</time>
      </trkpt>
      <trkpt lat="47.82397" lon="1.97553">
        <ele>107</ele>
        <time>2017-01-22T08:00:56.137Z</time>
      </trkpt>
      <trkpt lat="47.82388" lon="1.97563">
        <ele>107</ele>
        <time>2017-01-22T08:00:57.144Z</time>
      </trkpt>
      <trkpt lat="47.82384" lon="1.97567">
        <ele>107</ele>
        <time>2017-01-22T08:00:58.143Z</time>
      </trkpt>
      <trkpt lat="47.82384" lon="1.97567">
        <ele>107</ele>
        <time>2017-01-22T08:00:59.141Z</time>
      </trkpt>
      <trkpt lat="47.82375" lon="1.97577">
        <ele>107</ele>
        <time>2017-01-22T08:01:00.149Z</time>
      </trkpt>
      <trkpt lat="47.82375" lon="1.97577">
        <ele>107</ele>
        <time>2017-01-22T08:01:01.143Z</time>
      </trkpt>
      <trkpt lat="47.82366" lon="1.97586">
        <ele>106</ele>
        <time>2017-01-22T08:01:02.142Z</time>
      </trkpt>
      <trkpt lat="47.82362" lon="1.97591">
        <ele>106</ele>
        <time>2017-01-22T08:01:03.146Z</time>
      </trkpt>
      <trkpt lat="47.82362" lon="1.97591">
        <ele>106</ele>
        <time>2017-01-22T08:01:04.139Z</time>
      </trkpt>
      <trkpt lat="47.82353" lon="1.97601">
        <ele>106</ele>
        <time>2017-01-22T08:01:05.139Z</time>
      </trkpt>
      <trkpt lat="47.82349" lon="1.97607">
        <ele>106</ele>
        <time>2017-01-22T08:01:06.144Z</time>
      </trkpt>
      <trkpt lat="47.82349" lon="1.97607">
        <ele>106</ele>
        <time>2017-01-22T08:01:07.148Z</time>
      </trkpt>
      <trkpt lat="47.82341" lon="1.97617">
        <ele>106</ele>
        <time>2017-01-22T08:01:08.144Z</time>
      </trkpt>
      <trkpt lat="47.82341" lon="1.97617">
        <ele>106</ele>
        <time>2017-01-22T08:01:09.140Z</time>
      </trkpt>
      <trkpt lat="47.82334" lon="1.97626">
        <ele>106</ele>
        <time>2017-01-22T08:01:10.143Z</time>
      </trkpt>
      <trkpt lat="47.8233" lon="1.97631">
        <ele>107</ele>
        <time>2017-01-22T08:01:11.144Z</time>
      </trkpt>
      <trkpt lat="47.8233" lon="1.97631">
        <ele>107</ele>
        <time>2017-01-22T08:01:12.140Z</time>
      </trkpt>
      <trkpt lat="47.82322" lon="1.97642">
        <ele>106</ele>
        <time>2017-01-22T08:01:13.143Z</time>
      </trkpt>
      <trkpt lat="47.82318" lon="1.97648">
        <ele>106</ele>
        <time>2017-01-22T08:01:14.143Z</time>
      </trkpt>
      <trkpt lat="47.82318" lon="1.97648">
        <ele>106</ele>
        <time>2017-01-22T08:01:15.137Z</time>
      </trkpt>
      <trkpt lat="47.8231" lon="1.97659">
        <ele>106</ele>
        <time>2017-01-22T08:01:16.122Z</time>
      </trkpt>
      <trkpt lat="47.82306" lon="1.97666">
        <ele>106</ele>
        <time>2017-01-22T08:01:17.119Z</time>
      </trkpt>
      <trkpt lat="47.82306" lon="1.97666">
        <ele>106</ele>
        <time>2017-01-22T08:01:18.149Z</time>
      </trkpt>
      <trkpt lat="47.82301" lon="1.97681">
        <ele>105</ele>
        <time>2017-01-22T08:01:19.144Z</time>
      </trkpt>
      <trkpt lat="47.82299" lon="1.97687">
        <ele>105</ele>
        <time>2017-01-22T08:01:20.144Z</time>
      </trkpt>
      <trkpt lat="47.82299" lon="1.97687">
        <ele>105</ele>
        <time>2017-01-22T08:01:21.139Z</time>
      </trkpt>
      <trkpt lat="47.82293" lon="1.97701">
        <ele>105</ele>
        <time>2017-01-22T08:01:22.144Z</time>
      </trkpt>
      <trkpt lat="47.82293" lon="1.97701">
        <ele>105</ele>
        <time>2017-01-22T08:01:23.134Z</time>
      </trkpt>
      <trkpt lat="47.82288" lon="1.97714">
        <ele>104</ele>
        <time>2017-01-22T08:01:24.142Z</time>
      </trkpt>
      <trkpt lat="47.82284" lon="1.9772">
        <ele>104</ele>
        <time>2017-01-22T08:01:25.144Z</time>
      </trkpt>
      <trkpt lat="47.82284" lon="1.9772">
        <ele>104</ele>
        <time>2017-01-22T08:01:26.135Z</time>
      </trkpt>
      <trkpt lat="47.82277" lon="1.97729">
        <ele>103</ele>
        <time>2017-01-22T08:01:27.144Z</time>
      </trkpt>
      <trkpt lat="47.82277" lon="1.97729">
        <ele>103</ele>
        <time>2017-01-22T08:01:28.134Z</time>
      </trkpt>
      <trkpt lat="47.82269" lon="1.97737">
        <ele>102</ele>
        <time>2017-01-22T08:01:29.143Z</time>
      </trkpt>
      <trkpt lat="47.82265" lon="1.97741">
        <ele>101</ele>
        <time>2017-01-22T08:01:30.143Z</time>
      </trkpt>
      <trkpt lat="47.82265" lon="1.97741">
        <ele>101</ele>
        <time>2017-01-22T08:01:31.142Z</time>
      </trkpt>
      <trkpt lat="47.82258" lon="1.97748">
        <ele>101</ele>
        <time>2017-01-22T08:01:32.126Z</time>
      </trkpt>
      <trkpt lat="47.82258" lon="1.97748">
        <ele>101</ele>
        <time>2017-01-22T08:01:33.157Z</time>
      </trkpt>
      <trkpt lat="47.82249" lon="1.97756">
        <ele>100</ele>
        <time>2017-01-22T08:01:34.149Z</time>
      </trkpt>
      <trkpt lat="47.82249" lon="1.97756">
        <ele>100</ele>
        <time>2017-01-22T08:01:35.141Z</time>
      </trkpt>
      <trkpt lat="47.82241" lon="1.97764">
        <ele>101</ele>
        <time>2017-01-22T08:01:36.143Z</time>
      </trkpt>
      <trkpt lat="47.82241" lon="1.97764">
        <ele>101</ele>
        <time>2017-01-22T08:01:37.139Z</time>
      </trkpt>
      <trkpt lat="47.82235" lon="1.97771">
        <ele>100</ele>
        <time>2017-01-22T08:01:38.143Z</time>
      </trkpt>
      <trkpt lat="47.82235" lon="1.97771">
        <ele>100</ele>
        <time>2017-01-22T08:01:39.141Z</time>
      </trkpt>
      <trkpt lat="47.82229" lon="1.97775">
        <ele>101</ele>
        <time>2017-01-22T08:01:40.143Z</time>
      </trkpt>
      <trkpt lat="47.82229" lon="1.97775">
        <ele>101</ele>
        <time>2017-01-22T08:01:41.141Z</time>
      </trkpt>
      <trkpt lat="47.82223" lon="1.97779">
        <ele>101</ele>
        <time>2017-01-22T08:01:42.142Z</time>
      </trkpt>
      <trkpt lat="47.82221" lon="1.97782">
        <ele>101</ele>
        <time>2017-01-22T08:01:43.144Z</time>
      </trkpt>
      <trkpt lat="47.82221" lon="1.97782">
        <ele>101</ele>
        <time>2017-01-22T08:01:44.141Z</time>
      </trkpt>
      <trkpt lat="47.82215" lon="1.97787">
        <ele>101</ele>
        <time>2017-01-22T08:01:45.130Z</time>
      </trkpt>
      <trkpt lat="47.82215" lon="1.97787">
        <ele>101</ele>
        <time>2017-01-22T08:01:46.137Z</time>
      </trkpt>
      <trkpt lat="47.82209" lon="1.97787">
        <ele>101</ele>
        <time>2017-01-22T08:01:47.142Z</time>
      </trkpt>
      <trkpt lat="47.82205" lon="1.97784">
        <ele>101</ele>
        <time>2017-01-22T08:01:48.143Z</time>
      </trkpt>
      <trkpt lat="47.82205" lon="1.97784">
        <ele>101</ele>
        <time>2017-01-22T08:01:49.141Z</time>
      </trkpt>
      <trkpt lat="47.822" lon="1.97773">
        <ele>100</ele>
        <time>2017-01-22T08:01:50.144Z</time>
      </trkpt>
      <trkpt lat="47.822" lon="1.97773">
        <ele>100</ele>
        <time>2017-01-22T08:01:51.139Z</time>
      </trkpt>
      <trkpt lat="47.82197" lon="1.97757">
        <ele>100</ele>
        <time>2017-01-22T08:01:52.143Z</time>
      </trkpt>
      <trkpt lat="47.82197" lon="1.97757">
        <ele>100</ele>
        <time>2017-01-22T08:01:53.141Z</time>
      </trkpt>
      <trkpt lat="47.82192" lon="1.97741">
        <ele>100</ele>
        <time>2017-01-22T08:01:54.144Z</time>
      </trkpt>
      <trkpt lat="47.82192" lon="1.97741">
        <ele>100</ele>
        <time>2017-01-22T08:01:55.142Z</time>
      </trkpt>
      <trkpt lat="47.82184" lon="1.97729">
        <ele>99</ele>
        <time>2017-01-22T08:01:56.120Z</time>
      </trkpt>
      <trkpt lat="47.82181" lon="1.97723">
        <ele>99</ele>
        <time>2017-01-22T08:01:57.153Z</time>
      </trkpt>
      <trkpt lat="47.82181" lon="1.97723">
        <ele>99</ele>
        <time>2017-01-22T08:01:58.142Z</time>
      </trkpt>
      <trkpt lat="47.82173" lon="1.97712">
        <ele>98</ele>
        <time>2017-01-22T08:01:59.144Z</time>
      </trkpt>
      <trkpt lat="47.82173" lon="1.97712">
        <ele>98</ele>
        <time>2017-01-22T08:02:00.146Z</time>
      </trkpt>
      <trkpt lat="47.82166" lon="1.97701">
        <ele>98</ele>
        <time>2017-01-22T08:02:01.145Z</time>
      </trkpt>
      <trkpt lat="47.82166" lon="1.97701">
        <ele>98</ele>
        <time>2017-01-22T08:02:02.137Z</time>
      </trkpt>
      <trkpt lat="47.82157" lon="1.97691">
        <ele>98</ele>
        <time>2017-01-22T08:02:03.145Z</time>
      </trkpt>
      <trkpt lat="47.82157" lon="1.97691">
        <ele>98</ele>
        <time>2017-01-22T08:02:04.143Z</time>
      </trkpt>
      <trkpt lat="47.82149" lon="1.97679">
        <ele>97</ele>
        <time>2017-01-22T08:02:05.143Z</time>
      </trkpt>
      <trkpt lat="47.82145" lon="1.97672">
        <ele>97</ele>
        <time>2017-01-22T08:02:06.143Z</time>
      </trkpt>
      <trkpt lat="47.82145" lon="1.97672">
        <ele>97</ele>
        <time>2017-01-22T08:02:07.142Z</time>
      </trkpt>
      <trkpt lat="47.82136" lon="1.97661">
        <ele>97</ele>
        <time>2017-01-22T08:02:08.143Z</time>
      </trkpt>
      <trkpt lat="47.82131" lon="1.97657">
        <ele>97</ele>
        <time>2017-01-22T08:02:09.152Z</time>
      </trkpt>
      <trkpt lat="47.82131" lon="1.97657">
        <ele>97</ele>
        <time>2017-01-22T08:02:10.156Z</time>
      </trkpt>
      <trkpt lat="47.82117" lon="1.97651">
        <ele>97</ele>
        <time>2017-01-22T08:02:11.142Z</time>
      </trkpt>
      <trkpt lat="47.8211" lon="1.97651">
        <ele>97</ele>
        <time>2017-01-22T08:02:12.144Z</time>
      </trkpt>
      <trkpt lat="47.8211" lon="1.97651">
        <ele>97</ele>
        <time>2017-01-22T08:02:13.142Z</time>
      </trkpt>
      <trkpt lat="47.82099" lon="1.97647">
        <ele>97</ele>
        <time>2017-01-22T08:02:14.143Z</time>
      </trkpt>
      <trkpt lat="47.82099" lon="1.97647">
        <ele>97</ele>
        <time>2017-01-22T08:02:15.141Z</time>
      </trkpt>
      <trkpt lat="47.82086" lon="1.97643">
        <ele>96</ele>
        <time>2017-01-22T08:02:16.143Z</time>
      </trkpt>
      <trkpt lat="47.8208" lon="1.97642">
        <ele>96</ele>
        <time>2017-01-22T08:02:17.143Z</time>
      </trkpt>
      <trkpt lat="47.82074" lon="1.9764">
        <ele>96</ele>
        <time>2017-01-22T08:02:18.144Z</time>
      </trkpt>
      <trkpt lat="47.82074" lon="1.9764">
        <ele>96</ele>
        <time>2017-01-22T08:02:19.142Z</time>
      </trkpt>
      <trkpt lat="47.82061" lon="1.97634">
        <ele>96</ele>
        <time>2017-01-22T08:02:20.143Z</time>
      </trkpt>
      <trkpt lat="47.82061" lon="1.97634">
        <ele>96</ele>
        <time>2017-01-22T08:02:21.144Z</time>
      </trkpt>
      <trkpt lat="47.82049" lon="1.97626">
        <ele>96</ele>
        <time>2017-01-22T08:02:22.142Z</time>
      </trkpt>
      <trkpt lat="47.82044" lon="1.97621">
        <ele>96</ele>
        <time>2017-01-22T08:02:23.143Z</time>
      </trkpt>
      <trkpt lat="47.82044" lon="1.97621">
        <ele>96</ele>
        <time>2017-01-22T08:02:24.140Z</time>
      </trkpt>
      <trkpt lat="47.82032" lon="1.97617">
        <ele>96</ele>
        <time>2017-01-22T08:02:25.145Z</time>
      </trkpt>
      <trkpt lat="47.82032" lon="1.97617">
        <ele>96</ele>
        <time>2017-01-22T08:02:26.137Z</time>
      </trkpt>
      <trkpt lat="47.82021" lon="1.9761">
        <ele>96</ele>
        <time>2017-01-22T08:02:27.143Z</time>
      </trkpt>
      <trkpt lat="47.82021" lon="1.9761">
        <ele>96</ele>
        <time>2017-01-22T08:02:28.142Z</time>
      </trkpt>
      <trkpt lat="47.82008" lon="1.97603">
        <ele>96</ele>
        <time>2017-01-22T08:02:29.143Z</time>
      </trkpt>
      <trkpt lat="47.82008" lon="1.97603">
        <ele>96</ele>
        <time>2017-01-22T08:02:30.138Z</time>
      </trkpt>
      <trkpt lat="47.81997" lon="1.97598">
        <ele>96</ele>
        <time>2017-01-22T08:02:31.145Z</time>
      </trkpt>
      <trkpt lat="47.81997" lon="1.97598">
        <ele>96</ele>
        <time>2017-01-22T08:02:32.145Z</time>
      </trkpt>
      <trkpt lat="47.8199" lon="1.976">
        <ele>97</ele>
        <time>2017-01-22T08:02:33.144Z</time>
      </trkpt>
      <trkpt lat="47.8199" lon="1.976">
        <ele>97</ele>
        <time>2017-01-22T08:02:34.141Z</time>
      </trkpt>
      <trkpt lat="47.81985" lon="1.97608">
        <ele>97</ele>
        <time>2017-01-22T08:02:35.144Z</time>
      </trkpt>
      <trkpt lat="47.81985" lon="1.97608">
        <ele>97</ele>
        <time>2017-01-22T08:02:36.137Z</time>
      </trkpt>
      <trkpt lat="47.8198" lon="1.97615">
        <ele>96</ele>
        <time>2017-01-22T08:02:37.144Z</time>
      </trkpt>
      <trkpt lat="47.8198" lon="1.97615">
        <ele>96</ele>
        <time>2017-01-22T08:02:38.138Z</time>
      </trkpt>
      <trkpt lat="47.81974" lon="1.97622">
        <ele>96</ele>
        <time>2017-01-22T08:02:39.144Z</time>
      </trkpt>
      <trkpt lat="47.81974" lon="1.97622">
        <ele>96</ele>
        <time>2017-01-22T08:02:40.141Z</time>
      </trkpt>
      <trkpt lat="47.81964" lon="1.97626">
        <ele>95</ele>
        <time>2017-01-22T08:02:41.143Z</time>
      </trkpt>
      <trkpt lat="47.81958" lon="1.97625">
        <ele>96</ele>
        <time>2017-01-22T08:02:42.143Z</time>
      </trkpt>
      <trkpt lat="47.81953" lon="1.97624">
        <ele>96</ele>
        <time>2017-01-22T08:02:43.145Z</time>
      </trkpt>
      <trkpt lat="47.81953" lon="1.97624">
        <ele>96</ele>
        <time>2017-01-22T08:02:44.141Z</time>
      </trkpt>
      <trkpt lat="47.81942" lon="1.97622">
        <ele>96</ele>
        <time>2017-01-22T08:02:45.144Z</time>
      </trkpt>
      <trkpt lat="47.81942" lon="1.97622">
        <ele>96</ele>
        <time>2017-01-22T08:02:46.138Z</time>
      </trkpt>
      <trkpt lat="47.81931" lon="1.97618">
        <ele>96</ele>
        <time>2017-01-22T08:02:47.144Z</time>
      </trkpt>
      <trkpt lat="47.81931" lon="1.97618">
        <ele>96</ele>
        <time>2017-01-22T08:02:48.141Z</time>
      </trkpt>
      <trkpt lat="47.81921" lon="1.97618">
        <ele>97</ele>
        <time>2017-01-22T08:02:49.145Z</time>
      </trkpt>
      <trkpt lat="47.81921" lon="1.97618">
        <ele>97</ele>
        <time>2017-01-22T08:02:50.141Z</time>
      </trkpt>
      <trkpt lat="47.8191" lon="1.97621">
        <ele>98</ele>
        <time>2017-01-22T08:02:51.118Z</time>
      </trkpt>
      <trkpt lat="47.8191" lon="1.97621">
        <ele>98</ele>
        <time>2017-01-22T08:02:52.149Z</time>
      </trkpt>
      <trkpt lat="47.81901" lon="1.97626">
        <ele>99</ele>
        <time>2017-01-22T08:02:53.146Z</time>
      </trkpt>
      <trkpt lat="47.81901" lon="1.97626">
        <ele>99</ele>
        <time>2017-01-22T08:02:54.139Z</time>
      </trkpt>
      <trkpt lat="47.81891" lon="1.9763">
        <ele>99</ele>
        <time>2017-01-22T08:02:55.145Z</time>
      </trkpt>
      <trkpt lat="47.81891" lon="1.9763">
        <ele>99</ele>
        <time>2017-01-22T08:02:56.118Z</time>
      </trkpt>
      <trkpt lat="47.81881" lon="1.97632">
        <ele>100</ele>
        <time>2017-01-22T08:02:57.149Z</time>
      </trkpt>
      <trkpt lat="47.81876" lon="1.97632">
        <ele>100</ele>
        <time>2017-01-22T08:02:58.143Z</time>
      </trkpt>
      <trkpt lat="47.81876" lon="1.97632">
        <ele>100</ele>
        <time>2017-01-22T08:02:59.141Z</time>
      </trkpt>
      <trkpt lat="47.81865" lon="1.97633">
        <ele>100</ele>
        <time>2017-01-22T08:03:00.154Z</time>
      </trkpt>
      <trkpt lat="47.8186" lon="1.97634">
        <ele>101</ele>
        <time>2017-01-22T08:03:01.144Z</time>
      </trkpt>
      <trkpt lat="47.8186" lon="1.97634">
        <ele>101</ele>
        <time>2017-01-22T08:03:02.141Z</time>
      </trkpt>
      <trkpt lat="47.81849" lon="1.97637">
        <ele>101</ele>
        <time>2017-01-22T08:03:03.143Z</time>
      </trkpt>
      <trkpt lat="47.81849" lon="1.97637">
        <ele>101</ele>
        <time>2017-01-22T08:03:04.148Z</time>
      </trkpt>
      <trkpt lat="47.81839" lon="1.97641">
        <ele>101</ele>
        <time>2017-01-22T08:03:05.144Z</time>
      </trkpt>
      <trkpt lat="47.81839" lon="1.97641">
        <ele>101</ele>
        <time>2017-01-22T08:03:06.137Z</time>
      </trkpt>
      <trkpt lat="47.8183" lon="1.97645">
        <ele>102</ele>
        <time>2017-01-22T08:03:07.144Z</time>
      </trkpt>
      <trkpt lat="47.8183" lon="1.97645">
        <ele>102</ele>
        <time>2017-01-22T08:03:08.138Z</time>
      </trkpt>
      <trkpt lat="47.8182" lon="1.97649">
        <ele>102</ele>
        <time>2017-01-22T08:03:09.142Z</time>
      </trkpt>
      <trkpt lat="47.8182" lon="1.97649">
        <ele>102</ele>
        <time>2017-01-22T08:03:10.138Z</time>
      </trkpt>
      <trkpt lat="47.8181" lon="1.97652">
        <ele>102</ele>
        <time>2017-01-22T08:03:11.143Z</time>
      </trkpt>
      <trkpt lat="47.81805" lon="1.97654">
        <ele>101</ele>
        <time>2017-01-22T08:03:12.145Z</time>
      </trkpt>
      <trkpt lat="47.81805" lon="1.97654">
        <ele>101</ele>
        <time>2017-01-22T08:03:13.142Z</time>
      </trkpt>
      <trkpt lat="47.81794" lon="1.97659">
        <ele>102</ele>
        <time>2017-01-22T08:03:14.144Z</time>
      </trkpt>
      <trkpt lat="47.81789" lon="1.97661">
        <ele>102</ele>
        <time>2017-01-22T08:03:15.141Z</time>
      </trkpt>
      <trkpt lat="47.81789" lon="1.97661">
        <ele>102</ele>
        <time>2017-01-22T08:03:16.135Z</time>
      </trkpt>
      <trkpt lat="47.8178" lon="1.97667">
        <ele>103</ele>
        <time>2017-01-22T08:03:17.144Z</time>
      </trkpt>
      <trkpt lat="47.8178" lon="1.97667">
        <ele>103</ele>
        <time>2017-01-22T08:03:18.118Z</time>
      </trkpt>
      <trkpt lat="47.8177" lon="1.97674">
        <ele>103</ele>
        <time>2017-01-22T08:03:19.146Z</time>
      </trkpt>
      <trkpt lat="47.8177" lon="1.97674">
        <ele>103</ele>
        <time>2017-01-22T08:03:20.141Z</time>
      </trkpt>
      <trkpt lat="47.81761" lon="1.97681">
        <ele>104</ele>
        <time>2017-01-22T08:03:21.145Z</time>
      </trkpt>
      <trkpt lat="47.81761" lon="1.97681">
        <ele>104</ele>
        <time>2017-01-22T08:03:22.141Z</time>
      </trkpt>
      <trkpt lat="47.81752" lon="1.9769">
        <ele>104</ele>
        <time>2017-01-22T08:03:23.144Z</time>
      </trkpt>
      <trkpt lat="47.81752" lon="1.9769">
        <ele>104</ele>
        <time>2017-01-22T08:03:24.138Z</time>
      </trkpt>
      <trkpt lat="47.81743" lon="1.97698">
        <ele>104</ele>
        <time>2017-01-22T08:03:25.145Z</time>
      </trkpt>
      <trkpt lat="47.81738" lon="1.97703">
        <ele>105</ele>
        <time>2017-01-22T08:03:26.119Z</time>
      </trkpt>
      <trkpt lat="47.81738" lon="1.97703">
        <ele>105</ele>
        <time>2017-01-22T08:03:27.130Z</time>
      </trkpt>
      <trkpt lat="47.81729" lon="1.97711">
        <ele>105</ele>
        <time>2017-01-22T08:03:28.151Z</time>
      </trkpt>
      <trkpt lat="47.81729" lon="1.97711">
        <ele>105</ele>
        <time>2017-01-22T08:03:29.134Z</time>
      </trkpt>
      <trkpt lat="47.81721" lon="1.9772">
        <ele>105</ele>
        <time>2017-01-22T08:03:30.157Z</time>
      </trkpt>
      <trkpt lat="47.81717" lon="1.97724">
        <ele>106</ele>
        <time>2017-01-22T08:03:31.118Z</time>
      </trkpt>
      <trkpt lat="47.81717" lon="1.97724">
        <ele>106</ele>
        <time>2017-01-22T08:03:32.140Z</time>
      </trkpt>
      <trkpt lat="47.8171" lon="1.97734">
        <ele>105</ele>
        <time>2017-01-22T08:03:33.120Z</time>
      </trkpt>
      <trkpt lat="47.8171" lon="1.97734">
        <ele>105</ele>
        <time>2017-01-22T08:03:34.141Z</time>
      </trkpt>
      <trkpt lat="47.81702" lon="1.97744">
        <ele>106</ele>
        <time>2017-01-22T08:03:35.122Z</time>
      </trkpt>
      <trkpt lat="47.81699" lon="1.97749">
        <ele>106</ele>
        <time>2017-01-22T08:03:36.145Z</time>
      </trkpt>
      <trkpt lat="47.81695" lon="1.97754">
        <ele>106</ele>
        <time>2017-01-22T08:03:37.152Z</time>
      </trkpt>
      <trkpt lat="47.81695" lon="1.97754">
        <ele>106</ele>
        <time>2017-01-22T08:03:38.118Z</time>
      </trkpt>
      <trkpt lat="47.81686" lon="1.97765">
        <ele>105</ele>
        <time>2017-01-22T08:03:39.144Z</time>
      </trkpt>
      <trkpt lat="47.81686" lon="1.97765">
        <ele>105</ele>
        <time>2017-01-22T08:03:40.139Z</time>
      </trkpt>
      <trkpt lat="47.81678" lon="1.97776">
        <ele>105</ele>
        <time>2017-01-22T08:03:41.143Z</time>
      </trkpt>
      <trkpt lat="47.81678" lon="1.97776">
        <ele>105</ele>
        <time>2017-01-22T08:03:42.141Z</time>
      </trkpt>
      <trkpt lat="47.81669" lon="1.97787">
        <ele>106</ele>
        <time>2017-01-22T08:03:43.145Z</time>
      </trkpt>
      <trkpt lat="47.81669" lon="1.97787">
        <ele>106</ele>
        <time>2017-01-22T08:03:44.138Z</time>
      </trkpt>
      <trkpt lat="47.81661" lon="1.97797">
        <ele>106</ele>
        <time>2017-01-22T08:03:45.143Z</time>
      </trkpt>
      <trkpt lat="47.81661" lon="1.97797">
        <ele>106</ele>
        <time>2017-01-22T08:03:46.138Z</time>
      </trkpt>
      <trkpt lat="47.81653" lon="1.9781">
        <ele>106</ele>
        <time>2017-01-22T08:03:47.143Z</time>
      </trkpt>
      <trkpt lat="47.81649" lon="1.97815">
        <ele>107</ele>
        <time>2017-01-22T08:03:48.144Z</time>
      </trkpt>
      <trkpt lat="47.81645" lon="1.97821">
        <ele>107</ele>
        <time>2017-01-22T08:03:49.145Z</time>
      </trkpt>
      <trkpt lat="47.81645" lon="1.97821">
        <ele>107</ele>
        <time>2017-01-22T08:03:50.141Z</time>
      </trkpt>
      <trkpt lat="47.81637" lon="1.97832">
        <ele>107</ele>
        <time>2017-01-22T08:03:51.145Z</time>
      </trkpt>
      <trkpt lat="47.81634" lon="1.97837">
        <ele>107</ele>
        <time>2017-01-22T08:03:52.143Z</time>
      </trkpt>
      <trkpt lat="47.8163" lon="1.97839">
        <ele>107</ele>
        <time>2017-01-22T08:03:53.142Z</time>
      </trkpt>
      <trkpt lat="47.8163" lon="1.97839">
        <ele>107</ele>
        <time>2017-01-22T08:03:54.142Z</time>
      </trkpt>
      <trkpt lat="47.81621" lon="1.97836">
        <ele>106</ele>
        <time>2017-01-22T08:03:55.145Z</time>
      </trkpt>
      <trkpt lat="47.81621" lon="1.97836">
        <ele>106</ele>
        <time>2017-01-22T08:03:56.141Z</time>
      </trkpt>
      <trkpt lat="47.8161" lon="1.97825">
        <ele>106</ele>
        <time>2017-01-22T08:03:57.143Z</time>
      </trkpt>
      <trkpt lat="47.81605" lon="1.97819">
        <ele>106</ele>
        <time>2017-01-22T08:03:58.143Z</time>
      </trkpt>
      <trkpt lat="47.816" lon="1.97814">
        <ele>106</ele>
        <time>2017-01-22T08:03:59.143Z</time>
      </trkpt>
      <trkpt lat="47.816" lon="1.97814">
        <ele>106</ele>
        <time>2017-01-22T08:04:00.144Z</time>
      </trkpt>
      <trkpt lat="47.8159" lon="1.97808">
        <ele>105</ele>
        <time>2017-01-22T08:04:01.145Z</time>
      </trkpt>
      <trkpt lat="47.8159" lon="1.97808">
        <ele>105</ele>
        <time>2017-01-22T08:04:02.141Z</time>
      </trkpt>
      <trkpt lat="47.8158" lon="1.97812">
        <ele>105</ele>
        <time>2017-01-22T08:04:03.144Z</time>
      </trkpt>
      <trkpt lat="47.8158" lon="1.97812">
        <ele>105</ele>
        <time>2017-01-22T08:04:04.141Z</time>
      </trkpt>
      <trkpt lat="47.81572" lon="1.9782">
        <ele>105</ele>
        <time>2017-01-22T08:04:05.144Z</time>
      </trkpt>
      <trkpt lat="47.81572" lon="1.9782">
        <ele>105</ele>
        <time>2017-01-22T08:04:06.142Z</time>
      </trkpt>
      <trkpt lat="47.81565" lon="1.97833">
        <ele>105</ele>
        <time>2017-01-22T08:04:07.142Z</time>
      </trkpt>
      <trkpt lat="47.81561" lon="1.97838">
        <ele>105</ele>
        <time>2017-01-22T08:04:08.144Z</time>
      </trkpt>
      <trkpt lat="47.81556" lon="1.97843">
        <ele>106</ele>
        <time>2017-01-22T08:04:09.144Z</time>
      </trkpt>
      <trkpt lat="47.81556" lon="1.97843">
        <ele>106</ele>
        <time>2017-01-22T08:04:10.141Z</time>
      </trkpt>
      <trkpt lat="47.81547" lon="1.97852">
        <ele>106</ele>
        <time>2017-01-22T08:04:11.144Z</time>
      </trkpt>
      <trkpt lat="47.81547" lon="1.97852">
        <ele>106</ele>
        <time>2017-01-22T08:04:12.141Z</time>
      </trkpt>
      <trkpt lat="47.81538" lon="1.97861">
        <ele>106</ele>
        <time>2017-01-22T08:04:13.145Z</time>
      </trkpt>
      <trkpt lat="47.81538" lon="1.97861">
        <ele>106</ele>
        <time>2017-01-22T08:04:14.142Z</time>
      </trkpt>
      <trkpt lat="47.81529" lon="1.9787">
        <ele>105</ele>
        <time>2017-01-22T08:04:15.144Z</time>
      </trkpt>
      <trkpt lat="47.81529" lon="1.9787">
        <ele>105</ele>
        <time>2017-01-22T08:04:16.138Z</time>
      </trkpt>
      <trkpt lat="47.81521" lon="1.97879">
        <ele>105</ele>
        <time>2017-01-22T08:04:17.137Z</time>
      </trkpt>
      <trkpt lat="47.81516" lon="1.97882">
        <ele>105</ele>
        <time>2017-01-22T08:04:18.142Z</time>
      </trkpt>
      <trkpt lat="47.81512" lon="1.97887">
        <ele>105</ele>
        <time>2017-01-22T08:04:19.145Z</time>
      </trkpt>
      <trkpt lat="47.81512" lon="1.97887">
        <ele>105</ele>
        <time>2017-01-22T08:04:20.139Z</time>
      </trkpt>
      <trkpt lat="47.81505" lon="1.97895">
        <ele>105</ele>
        <time>2017-01-22T08:04:21.144Z</time>
      </trkpt>
      <trkpt lat="47.81501" lon="1.97899">
        <ele>105</ele>
        <time>2017-01-22T08:04:22.144Z</time>
      </trkpt>
      <trkpt lat="47.81501" lon="1.97899">
        <ele>105</ele>
        <time>2017-01-22T08:04:23.142Z</time>
      </trkpt>
      <trkpt lat="47.8149" lon="1.97902">
        <ele>105</ele>
        <time>2017-01-22T08:04:24.141Z</time>
      </trkpt>
      <trkpt lat="47.8149" lon="1.97902">
        <ele>105</ele>
        <time>2017-01-22T08:04:25.139Z</time>
      </trkpt>
      <trkpt lat="47.81479" lon="1.979">
        <ele>105</ele>
        <time>2017-01-22T08:04:26.119Z</time>
      </trkpt>
      <trkpt lat="47.81479" lon="1.979">
        <ele>105</ele>
        <time>2017-01-22T08:04:27.148Z</time>
      </trkpt>
      <trkpt lat="47.81467" lon="1.97899">
        <ele>104</ele>
        <time>2017-01-22T08:04:28.144Z</time>
      </trkpt>
      <trkpt lat="47.81467" lon="1.97899">
        <ele>104</ele>
        <time>2017-01-22T08:04:29.140Z</time>
      </trkpt>
      <trkpt lat="47.81456" lon="1.97896">
        <ele>104</ele>
        <time>2017-01-22T08:04:30.144Z</time>
      </trkpt>
      <trkpt lat="47.81451" lon="1.97895">
        <ele>104</ele>
        <time>2017-01-22T08:04:31.134Z</time>
      </trkpt>
      <trkpt lat="47.81451" lon="1.97895">
        <ele>104</ele>
        <time>2017-01-22T08:04:32.138Z</time>
      </trkpt>
      <trkpt lat="47.81439" lon="1.97896">
        <ele>104</ele>
        <time>2017-01-22T08:04:33.143Z</time>
      </trkpt>
      <trkpt lat="47.81439" lon="1.97896">
        <ele>104</ele>
        <time>2017-01-22T08:04:34.142Z</time>
      </trkpt>
      <trkpt lat="47.81426" lon="1.97897">
        <ele>103</ele>
        <time>2017-01-22T08:04:35.145Z</time>
      </trkpt>
      <trkpt lat="47.81426" lon="1.97897">
        <ele>103</ele>
        <time>2017-01-22T08:04:36.138Z</time>
      </trkpt>
      <trkpt lat="47.81414" lon="1.97898">
        <ele>104</ele>
        <time>2017-01-22T08:04:37.145Z</time>
      </trkpt>
      <trkpt lat="47.81414" lon="1.97898">
        <ele>104</ele>
        <time>2017-01-22T08:04:38.141Z</time>
      </trkpt>
      <trkpt lat="47.81402" lon="1.97897">
        <ele>103</ele>
        <time>2017-01-22T08:04:39.145Z</time>
      </trkpt>
      <trkpt lat="47.81396" lon="1.97897">
        <ele>103</ele>
        <time>2017-01-22T08:04:40.144Z</time>
      </trkpt>
      <trkpt lat="47.81396" lon="1.97897">
        <ele>103</ele>
        <time>2017-01-22T08:04:41.140Z</time>
      </trkpt>
      <trkpt lat="47.81385" lon="1.97898">
        <ele>104</ele>
        <time>2017-01-22T08:04:42.143Z</time>
      </trkpt>
      <trkpt lat="47.81385" lon="1.97898">
        <ele>104</ele>
        <time>2017-01-22T08:04:43.142Z</time>
      </trkpt>
      <trkpt lat="47.81374" lon="1.97899">
        <ele>104</ele>
        <time>2017-01-22T08:04:44.145Z</time>
      </trkpt>
      <trkpt lat="47.81374" lon="1.97899">
        <ele>104</ele>
        <time>2017-01-22T08:04:45.139Z</time>
      </trkpt>
      <trkpt lat="47.8136" lon="1.97901">
        <ele>105</ele>
        <time>2017-01-22T08:04:46.144Z</time>
      </trkpt>
      <trkpt lat="47.81354" lon="1.97901">
        <ele>105</ele>
        <time>2017-01-22T08:04:47.144Z</time>
      </trkpt>
      <trkpt lat="47.81347" lon="1.97902">
        <ele>105</ele>
        <time>2017-01-22T08:04:48.145Z</time>
      </trkpt>
      <trkpt lat="47.81347" lon="1.97902">
        <ele>105</ele>
        <time>2017-01-22T08:04:49.143Z</time>
      </trkpt>
      <trkpt lat="47.81334" lon="1.97903">
        <ele>105</ele>
        <time>2017-01-22T08:04:50.141Z</time>
      </trkpt>
      <trkpt lat="47.81328" lon="1.97904">
        <ele>105</ele>
        <time>2017-01-22T08:04:51.144Z</time>
      </trkpt>
      <trkpt lat="47.81328" lon="1.97904">
        <ele>105</ele>
        <time>2017-01-22T08:04:52.141Z</time>
      </trkpt>
      <trkpt lat="47.81317" lon="1.97906">
        <ele>105</ele>
        <time>2017-01-22T08:04:53.144Z</time>
      </trkpt>
      <trkpt lat="47.81317" lon="1.97906">
        <ele>105</ele>
        <time>2017-01-22T08:04:54.139Z</time>
      </trkpt>
      <trkpt lat="47.81305" lon="1.97909">
        <ele>105</ele>
        <time>2017-01-22T08:04:55.145Z</time>
      </trkpt>
      <trkpt lat="47.81305" lon="1.97909">
        <ele>105</ele>
        <time>2017-01-22T08:04:56.141Z</time>
      </trkpt>
      <trkpt lat="47.81295" lon="1.9791">
        <ele>106</ele>
        <time>2017-01-22T08:04:57.142Z</time>
      </trkpt>
      <trkpt lat="47.81295" lon="1.9791">
        <ele>106</ele>
        <time>2017-01-22T08:04:58.146Z</time>
      </trkpt>
      <trkpt lat="47.81284" lon="1.97915">
        <ele>106</ele>
        <time>2017-01-22T08:04:59.143Z</time>
      </trkpt>
      <trkpt lat="47.81284" lon="1.97915">
        <ele>106</ele>
        <time>2017-01-22T08:05:00.143Z</time>
      </trkpt>
      <trkpt lat="47.81273" lon="1.97923">
        <ele>106</ele>
        <time>2017-01-22T08:05:01.126Z</time>
      </trkpt>
      <trkpt lat="47.81273" lon="1.97923">
        <ele>106</ele>
        <time>2017-01-22T08:05:02.155Z</time>
      </trkpt>
      <trkpt lat="47.81265" lon="1.97931">
        <ele>107</ele>
        <time>2017-01-22T08:05:03.144Z</time>
      </trkpt>
      <trkpt lat="47.81265" lon="1.97931">
        <ele>107</ele>
        <time>2017-01-22T08:05:04.141Z</time>
      </trkpt>
      <trkpt lat="47.81259" lon="1.97937">
        <ele>107</ele>
        <time>2017-01-22T08:05:05.144Z</time>
      </trkpt>
      <trkpt lat="47.81259" lon="1.97937">
        <ele>107</ele>
        <time>2017-01-22T08:05:06.138Z</time>
      </trkpt>
      <trkpt lat="47.81251" lon="1.97943">
        <ele>107</ele>
        <time>2017-01-22T08:05:07.143Z</time>
      </trkpt>
      <trkpt lat="47.81251" lon="1.97943">
        <ele>107</ele>
        <time>2017-01-22T08:05:08.142Z</time>
      </trkpt>
      <trkpt lat="47.81245" lon="1.97951">
        <ele>107</ele>
        <time>2017-01-22T08:05:09.145Z</time>
      </trkpt>
      <trkpt lat="47.81242" lon="1.97955">
        <ele>107</ele>
        <time>2017-01-22T08:05:10.144Z</time>
      </trkpt>
      <trkpt lat="47.81241" lon="1.97959">
        <ele>107</ele>
        <time>2017-01-22T08:05:11.146Z</time>
      </trkpt>
      <trkpt lat="47.81241" lon="1.97959">
        <ele>107</ele>
        <time>2017-01-22T08:05:12.141Z</time>
      </trkpt>
      <trkpt lat="47.81235" lon="1.97963">
        <ele>107</ele>
        <time>2017-01-22T08:05:13.145Z</time>
      </trkpt>
      <trkpt lat="47.81235" lon="1.97963">
        <ele>107</ele>
        <time>2017-01-22T08:05:14.142Z</time>
      </trkpt>
      <trkpt lat="47.8123" lon="1.97967">
        <ele>108</ele>
        <time>2017-01-22T08:05:15.145Z</time>
      </trkpt>
      <trkpt lat="47.8123" lon="1.97967">
        <ele>108</ele>
        <time>2017-01-22T08:05:16.141Z</time>
      </trkpt>
      <trkpt lat="47.81225" lon="1.97966">
        <ele>108</ele>
        <time>2017-01-22T08:05:17.141Z</time>
      </trkpt>
      <trkpt lat="47.81224" lon="1.97963">
        <ele>108</ele>
        <time>2017-01-22T08:05:18.143Z</time>
      </trkpt>
      <trkpt lat="47.81222" lon="1.97958">
        <ele>108</ele>
        <time>2017-01-22T08:05:19.146Z</time>
      </trkpt>
      <trkpt lat="47.81222" lon="1.97958">
        <ele>108</ele>
        <time>2017-01-22T08:05:20.141Z</time>
      </trkpt>
      <trkpt lat="47.81218" lon="1.97947">
        <ele>108</ele>
        <time>2017-01-22T08:05:21.144Z</time>
      </trkpt>
      <trkpt lat="47.81218" lon="1.97947">
        <ele>108</ele>
        <time>2017-01-22T08:05:22.139Z</time>
      </trkpt>
      <trkpt lat="47.81213" lon="1.97935">
        <ele>109</ele>
        <time>2017-01-22T08:05:23.145Z</time>
      </trkpt>
      <trkpt lat="47.81213" lon="1.97935">
        <ele>109</ele>
        <time>2017-01-22T08:05:24.142Z</time>
      </trkpt>
      <trkpt lat="47.81209" lon="1.97924">
        <ele>109</ele>
        <time>2017-01-22T08:05:25.145Z</time>
      </trkpt>
      <trkpt lat="47.81209" lon="1.97924">
        <ele>109</ele>
        <time>2017-01-22T08:05:26.138Z</time>
      </trkpt>
      <trkpt lat="47.81206" lon="1.97914">
        <ele>109</ele>
        <time>2017-01-22T08:05:27.146Z</time>
      </trkpt>
      <trkpt lat="47.81206" lon="1.97914">
        <ele>109</ele>
        <time>2017-01-22T08:05:28.139Z</time>
      </trkpt>
      <trkpt lat="47.81203" lon="1.97904">
        <ele>109</ele>
        <time>2017-01-22T08:05:29.145Z</time>
      </trkpt>
      <trkpt lat="47.81203" lon="1.97904">
        <ele>109</ele>
        <time>2017-01-22T08:05:30.142Z</time>
      </trkpt>
      <trkpt lat="47.81201" lon="1.97894">
        <ele>109</ele>
        <time>2017-01-22T08:05:31.145Z</time>
      </trkpt>
      <trkpt lat="47.81199" lon="1.97889">
        <ele>109</ele>
        <time>2017-01-22T08:05:32.126Z</time>
      </trkpt>
      <trkpt lat="47.81199" lon="1.97889">
        <ele>109</ele>
        <time>2017-01-22T08:05:33.119Z</time>
      </trkpt>
      <trkpt lat="47.81197" lon="1.97879">
        <ele>109</ele>
        <time>2017-01-22T08:05:34.118Z</time>
      </trkpt>
      <trkpt lat="47.81197" lon="1.97879">
        <ele>109</ele>
        <time>2017-01-22T08:05:35.144Z</time>
      </trkpt>
      <trkpt lat="47.81194" lon="1.9787">
        <ele>109</ele>
        <time>2017-01-22T08:05:36.144Z</time>
      </trkpt>
      <trkpt lat="47.81192" lon="1.97865">
        <ele>108</ele>
        <time>2017-01-22T08:05:37.145Z</time>
      </trkpt>
      <trkpt lat="47.81191" lon="1.9786">
        <ele>109</ele>
        <time>2017-01-22T08:05:38.145Z</time>
      </trkpt>
      <trkpt lat="47.81191" lon="1.9786">
        <ele>109</ele>
        <time>2017-01-22T08:05:39.145Z</time>
      </trkpt>
      <trkpt lat="47.81188" lon="1.9785">
        <ele>109</ele>
        <time>2017-01-22T08:05:40.145Z</time>
      </trkpt>
      <trkpt lat="47.81187" lon="1.97845">
        <ele>109</ele>
        <time>2017-01-22T08:05:41.146Z</time>
      </trkpt>
      <trkpt lat="47.81187" lon="1.97845">
        <ele>109</ele>
        <time>2017-01-22T08:05:42.142Z</time>
      </trkpt>
      <trkpt lat="47.81184" lon="1.97835">
        <ele>109</ele>
        <time>2017-01-22T08:05:43.145Z</time>
      </trkpt>
      <trkpt lat="47.81184" lon="1.97835">
        <ele>109</ele>
        <time>2017-01-22T08:05:44.142Z</time>
      </trkpt>
      <trkpt lat="47.81181" lon="1.97825">
        <ele>109</ele>
        <time>2017-01-22T08:05:45.145Z</time>
      </trkpt>
      <trkpt lat="47.81181" lon="1.97825">
        <ele>109</ele>
        <time>2017-01-22T08:05:46.144Z</time>
      </trkpt>
      <trkpt lat="47.81179" lon="1.97816">
        <ele>109</ele>
        <time>2017-01-22T08:05:47.142Z</time>
      </trkpt>
      <trkpt lat="47.81179" lon="1.97816">
        <ele>109</ele>
        <time>2017-01-22T08:05:48.134Z</time>
      </trkpt>
      <trkpt lat="47.81176" lon="1.97807">
        <ele>109</ele>
        <time>2017-01-22T08:05:49.144Z</time>
      </trkpt>
      <trkpt lat="47.81176" lon="1.97807">
        <ele>109</ele>
        <time>2017-01-22T08:05:50.142Z</time>
      </trkpt>
      <trkpt lat="47.81173" lon="1.97797">
        <ele>109</ele>
        <time>2017-01-22T08:05:51.145Z</time>
      </trkpt>
      <trkpt lat="47.81173" lon="1.97797">
        <ele>109</ele>
        <time>2017-01-22T08:05:52.141Z</time>
      </trkpt>
      <trkpt lat="47.81171" lon="1.97787">
        <ele>109</ele>
        <time>2017-01-22T08:05:53.145Z</time>
      </trkpt>
      <trkpt lat="47.81171" lon="1.97787">
        <ele>109</ele>
        <time>2017-01-22T08:05:54.141Z</time>
      </trkpt>
      <trkpt lat="47.81168" lon="1.97777">
        <ele>109</ele>
        <time>2017-01-22T08:05:55.145Z</time>
      </trkpt>
      <trkpt lat="47.81168" lon="1.97777">
        <ele>109</ele>
        <time>2017-01-22T08:05:56.136Z</time>
      </trkpt>
      <trkpt lat="47.81165" lon="1.97767">
        <ele>109</ele>
        <time>2017-01-22T08:05:57.145Z</time>
      </trkpt>
      <trkpt lat="47.81165" lon="1.97767">
        <ele>109</ele>
        <time>2017-01-22T08:05:58.119Z</time>
      </trkpt>
      <trkpt lat="47.81162" lon="1.97758">
        <ele>109</ele>
        <time>2017-01-22T08:05:59.150Z</time>
      </trkpt>
      <trkpt lat="47.81162" lon="1.97758">
        <ele>109</ele>
        <time>2017-01-22T08:06:00.146Z</time>
      </trkpt>
      <trkpt lat="47.81159" lon="1.97747">
        <ele>109</ele>
        <time>2017-01-22T08:06:01.145Z</time>
      </trkpt>
      <trkpt lat="47.81157" lon="1.97742">
        <ele>109</ele>
        <time>2017-01-22T08:06:02.145Z</time>
      </trkpt>
      <trkpt lat="47.81157" lon="1.97742">
        <ele>109</ele>
        <time>2017-01-22T08:06:03.142Z</time>
      </trkpt>
      <trkpt lat="47.81154" lon="1.97732">
        <ele>110</ele>
        <time>2017-01-22T08:06:04.120Z</time>
      </trkpt>
      <trkpt lat="47.81154" lon="1.97732">
        <ele>110</ele>
        <time>2017-01-22T08:06:05.151Z</time>
      </trkpt>
      <trkpt lat="47.81151" lon="1.97722">
        <ele>110</ele>
        <time>2017-01-22T08:06:06.145Z</time>
      </trkpt>
      <trkpt lat="47.81151" lon="1.97722">
        <ele>110</ele>
        <time>2017-01-22T08:06:07.137Z</time>
      </trkpt>
      <trkpt lat="47.81148" lon="1.97712">
        <ele>110</ele>
        <time>2017-01-22T08:06:08.129Z</time>
      </trkpt>
      <trkpt lat="47.81147" lon="1.97707">
        <ele>110</ele>
        <time>2017-01-22T08:06:09.120Z</time>
      </trkpt>
      <trkpt lat="47.81147" lon="1.97707">
        <ele>110</ele>
        <time>2017-01-22T08:06:10.149Z</time>
      </trkpt>
      <trkpt lat="47.81144" lon="1.97697">
        <ele>110</ele>
        <time>2017-01-22T08:06:11.145Z</time>
      </trkpt>
      <trkpt lat="47.81144" lon="1.97697">
        <ele>110</ele>
        <time>2017-01-22T08:06:12.142Z</time>
      </trkpt>
      <trkpt lat="47.81141" lon="1.97687">
        <ele>110</ele>
        <time>2017-01-22T08:06:13.145Z</time>
      </trkpt>
      <trkpt lat="47.81141" lon="1.97687">
        <ele>110</ele>
        <time>2017-01-22T08:06:14.139Z</time>
      </trkpt>
      <trkpt lat="47.81138" lon="1.97676">
        <ele>111</ele>
        <time>2017-01-22T08:06:15.144Z</time>
      </trkpt>
      <trkpt lat="47.81137" lon="1.97671">
        <ele>111</ele>
        <time>2017-01-22T08:06:16.145Z</time>
      </trkpt>
      <trkpt lat="47.81137" lon="1.97671">
        <ele>111</ele>
        <time>2017-01-22T08:06:17.142Z</time>
      </trkpt>
      <trkpt lat="47.81134" lon="1.97661">
        <ele>111</ele>
        <time>2017-01-22T08:06:18.143Z</time>
      </trkpt>
      <trkpt lat="47.81134" lon="1.97661">
        <ele>111</ele>
        <time>2017-01-22T08:06:19.140Z</time>
      </trkpt>
      <trkpt lat="47.81131" lon="1.97652">
        <ele>111</ele>
        <time>2017-01-22T08:06:20.144Z</time>
      </trkpt>
      <trkpt lat="47.81129" lon="1.97647">
        <ele>111</ele>
        <time>2017-01-22T08:06:21.145Z</time>
      </trkpt>
      <trkpt lat="47.81129" lon="1.97647">
        <ele>111</ele>
        <time>2017-01-22T08:06:22.142Z</time>
      </trkpt>
      <trkpt lat="47.81127" lon="1.97638">
        <ele>111</ele>
        <time>2017-01-22T08:06:23.122Z</time>
      </trkpt>
      <trkpt lat="47.81125" lon="1.97633">
        <ele>111</ele>
        <time>2017-01-22T08:06:24.154Z</time>
      </trkpt>
      <trkpt lat="47.81125" lon="1.97633">
        <ele>111</ele>
        <time>2017-01-22T08:06:25.145Z</time>
      </trkpt>
      <trkpt lat="47.81122" lon="1.97623">
        <ele>111</ele>
        <time>2017-01-22T08:06:26.145Z</time>
      </trkpt>
      <trkpt lat="47.81122" lon="1.97623">
        <ele>111</ele>
        <time>2017-01-22T08:06:27.140Z</time>
      </trkpt>
      <trkpt lat="47.8112" lon="1.97615">
        <ele>111</ele>
        <time>2017-01-22T08:06:28.144Z</time>
      </trkpt>
      <trkpt lat="47.8112" lon="1.97615">
        <ele>111</ele>
        <time>2017-01-22T08:06:29.142Z</time>
      </trkpt>
      <trkpt lat="47.81118" lon="1.97607">
        <ele>111</ele>
        <time>2017-01-22T08:06:30.145Z</time>
      </trkpt>
      <trkpt lat="47.81118" lon="1.97607">
        <ele>111</ele>
        <time>2017-01-22T08:06:31.142Z</time>
      </trkpt>
      <trkpt lat="47.81116" lon="1.976">
        <ele>111</ele>
        <time>2017-01-22T08:06:32.145Z</time>
      </trkpt>
      <trkpt lat="47.81116" lon="1.976">
        <ele>111</ele>
        <time>2017-01-22T08:06:33.140Z</time>
      </trkpt>
      <trkpt lat="47.81116" lon="1.97594">
        <ele>110</ele>
        <time>2017-01-22T08:06:34.145Z</time>
      </trkpt>
      <trkpt lat="47.81116" lon="1.97594">
        <ele>110</ele>
        <time>2017-01-22T08:06:35.142Z</time>
      </trkpt>
      <trkpt lat="47.81114" lon="1.97589">
        <ele>110</ele>
        <time>2017-01-22T08:06:36.150Z</time>
      </trkpt>
      <trkpt lat="47.81114" lon="1.97589">
        <ele>110</ele>
        <time>2017-01-22T08:06:37.141Z</time>
      </trkpt>
      <trkpt lat="47.81112" lon="1.97586">
        <ele>110</ele>
        <time>2017-01-22T08:06:38.145Z</time>
      </trkpt>
      <trkpt lat="47.81111" lon="1.97584">
        <ele>110</ele>
        <time>2017-01-22T08:06:39.154Z</time>
      </trkpt>
      <trkpt lat="47.81111" lon="1.97584">
        <ele>110</ele>
        <time>2017-01-22T08:06:40.143Z</time>
      </trkpt>
      <trkpt lat="47.8111" lon="1.97577">
        <ele>110</ele>
        <time>2017-01-22T08:06:41.145Z</time>
      </trkpt>
      <trkpt lat="47.8111" lon="1.97577">
        <ele>110</ele>
        <time>2017-01-22T08:06:42.141Z</time>
      </trkpt>
      <trkpt lat="47.81109" lon="1.97569">
        <ele>110</ele>
        <time>2017-01-22T08:06:43.145Z</time>
      </trkpt>
      <trkpt lat="47.81108" lon="1.97565">
        <ele>110</ele>
        <time>2017-01-22T08:06:44.144Z</time>
      </trkpt>
      <trkpt lat="47.81106" lon="1.97561">
        <ele>110</ele>
        <time>2017-01-22T08:06:45.145Z</time>
      </trkpt>
      <trkpt lat="47.81106" lon="1.97561">
        <ele>110</ele>
        <time>2017-01-22T08:06:46.142Z</time>
      </trkpt>
      <trkpt lat="47.81103" lon="1.97553">
        <ele>110</ele>
        <time>2017-01-22T08:06:47.146Z</time>
      </trkpt>
      <trkpt lat="47.81103" lon="1.97553">
        <ele>110</ele>
        <time>2017-01-22T08:06:48.142Z</time>
      </trkpt>
      <trkpt lat="47.811" lon="1.97543">
        <ele>110</ele>
        <time>2017-01-22T08:06:49.145Z</time>
      </trkpt>
      <trkpt lat="47.81099" lon="1.97539">
        <ele>110</ele>
        <time>2017-01-22T08:06:50.143Z</time>
      </trkpt>
      <trkpt lat="47.81099" lon="1.97539">
        <ele>110</ele>
        <time>2017-01-22T08:06:51.149Z</time>
      </trkpt>
      <trkpt lat="47.81096" lon="1.9753">
        <ele>110</ele>
        <time>2017-01-22T08:06:52.143Z</time>
      </trkpt>
      <trkpt lat="47.81096" lon="1.9753">
        <ele>110</ele>
        <time>2017-01-22T08:06:53.137Z</time>
      </trkpt>
      <trkpt lat="47.8109" lon="1.97525">
        <ele>109</ele>
        <time>2017-01-22T08:06:54.146Z</time>
      </trkpt>
      <trkpt lat="47.8109" lon="1.97525">
        <ele>109</ele>
        <time>2017-01-22T08:06:55.143Z</time>
      </trkpt>
      <trkpt lat="47.81084" lon="1.97528">
        <ele>109</ele>
        <time>2017-01-22T08:06:56.120Z</time>
      </trkpt>
      <trkpt lat="47.81081" lon="1.97531">
        <ele>109</ele>
        <time>2017-01-22T08:06:57.122Z</time>
      </trkpt>
      <trkpt lat="47.81081" lon="1.97531">
        <ele>109</ele>
        <time>2017-01-22T08:06:58.152Z</time>
      </trkpt>
      <trkpt lat="47.81075" lon="1.97539">
        <ele>109</ele>
        <time>2017-01-22T08:06:59.145Z</time>
      </trkpt>
      <trkpt lat="47.81075" lon="1.97539">
        <ele>109</ele>
        <time>2017-01-22T08:07:00.146Z</time>
      </trkpt>
      <trkpt lat="47.81069" lon="1.97548">
        <ele>109</ele>
        <time>2017-01-22T08:07:01.127Z</time>
      </trkpt>
      <trkpt lat="47.81069" lon="1.97548">
        <ele>109</ele>
        <time>2017-01-22T08:07:02.119Z</time>
      </trkpt>
      <trkpt lat="47.81064" lon="1.97557">
        <ele>109</ele>
        <time>2017-01-22T08:07:03.151Z</time>
      </trkpt>
      <trkpt lat="47.81064" lon="1.97557">
        <ele>109</ele>
        <time>2017-01-22T08:07:04.142Z</time>
      </trkpt>
      <trkpt lat="47.81059" lon="1.97567">
        <ele>109</ele>
        <time>2017-01-22T08:07:05.145Z</time>
      </trkpt>
      <trkpt lat="47.81057" lon="1.97571">
        <ele>109</ele>
        <time>2017-01-22T08:07:06.145Z</time>
      </trkpt>
      <trkpt lat="47.81057" lon="1.97571">
        <ele>109</ele>
        <time>2017-01-22T08:07:07.143Z</time>
      </trkpt>
      <trkpt lat="47.8105" lon="1.97579">
        <ele>109</ele>
        <time>2017-01-22T08:07:08.145Z</time>
      </trkpt>
      <trkpt lat="47.8105" lon="1.97579">
        <ele>109</ele>
        <time>2017-01-22T08:07:09.137Z</time>
      </trkpt>
      <trkpt lat="47.81043" lon="1.97588">
        <ele>108</ele>
        <time>2017-01-22T08:07:10.145Z</time>
      </trkpt>
      <trkpt lat="47.81043" lon="1.97588">
        <ele>108</ele>
        <time>2017-01-22T08:07:11.145Z</time>
      </trkpt>
      <trkpt lat="47.81038" lon="1.97597">
        <ele>108</ele>
        <time>2017-01-22T08:07:12.145Z</time>
      </trkpt>
      <trkpt lat="47.81038" lon="1.97597">
        <ele>108</ele>
        <time>2017-01-22T08:07:13.137Z</time>
      </trkpt>
      <trkpt lat="47.81031" lon="1.97605">
        <ele>108</ele>
        <time>2017-01-22T08:07:14.145Z</time>
      </trkpt>
      <trkpt lat="47.81028" lon="1.9761">
        <ele>108</ele>
        <time>2017-01-22T08:07:15.144Z</time>
      </trkpt>
      <trkpt lat="47.81028" lon="1.9761">
        <ele>108</ele>
        <time>2017-01-22T08:07:16.142Z</time>
      </trkpt>
      <trkpt lat="47.81022" lon="1.97619">
        <ele>108</ele>
        <time>2017-01-22T08:07:17.145Z</time>
      </trkpt>
      <trkpt lat="47.81022" lon="1.97619">
        <ele>108</ele>
        <time>2017-01-22T08:07:18.142Z</time>
      </trkpt>
      <trkpt lat="47.81014" lon="1.97624">
        <ele>108</ele>
        <time>2017-01-22T08:07:19.139Z</time>
      </trkpt>
      <trkpt lat="47.81009" lon="1.97627">
        <ele>108</ele>
        <time>2017-01-22T08:07:20.145Z</time>
      </trkpt>
      <trkpt lat="47.81009" lon="1.97627">
        <ele>108</ele>
        <time>2017-01-22T08:07:21.142Z</time>
      </trkpt>
      <trkpt lat="47.81" lon="1.97633">
        <ele>108</ele>
        <time>2017-01-22T08:07:22.145Z</time>
      </trkpt>
      <trkpt lat="47.81" lon="1.97633">
        <ele>108</ele>
        <time>2017-01-22T08:07:23.142Z</time>
      </trkpt>
      <trkpt lat="47.8099" lon="1.97638">
        <ele>108</ele>
        <time>2017-01-22T08:07:24.145Z</time>
      </trkpt>
      <trkpt lat="47.80986" lon="1.97641">
        <ele>108</ele>
        <time>2017-01-22T08:07:25.147Z</time>
      </trkpt>
      <trkpt lat="47.80986" lon="1.97641">
        <ele>108</ele>
        <time>2017-01-22T08:07:26.142Z</time>
      </trkpt>
      <trkpt lat="47.80976" lon="1.97646">
        <ele>108</ele>
        <time>2017-01-22T08:07:27.145Z</time>
      </trkpt>
      <trkpt lat="47.80976" lon="1.97646">
        <ele>108</ele>
        <time>2017-01-22T08:07:28.143Z</time>
      </trkpt>
      <trkpt lat="47.80966" lon="1.97651">
        <ele>108</ele>
        <time>2017-01-22T08:07:29.143Z</time>
      </trkpt>
      <trkpt lat="47.80961" lon="1.97654">
        <ele>108</ele>
        <time>2017-01-22T08:07:30.144Z</time>
      </trkpt>
      <trkpt lat="47.80961" lon="1.97654">
        <ele>108</ele>
        <time>2017-01-22T08:07:31.150Z</time>
      </trkpt>
      <trkpt lat="47.80951" lon="1.97659">
        <ele>108</ele>
        <time>2017-01-22T08:07:32.143Z</time>
      </trkpt>
      <trkpt lat="47.80947" lon="1.97662">
        <ele>108</ele>
        <time>2017-01-22T08:07:33.145Z</time>
      </trkpt>
      <trkpt lat="47.80947" lon="1.97662">
        <ele>108</ele>
        <time>2017-01-22T08:07:34.147Z</time>
      </trkpt>
      <trkpt lat="47.80939" lon="1.97666">
        <ele>108</ele>
        <time>2017-01-22T08:07:35.145Z</time>
      </trkpt>
      <trkpt lat="47.80939" lon="1.97666">
        <ele>108</ele>
        <time>2017-01-22T08:07:36.143Z</time>
      </trkpt>
      <trkpt lat="47.8093" lon="1.97671">
        <ele>108</ele>
        <time>2017-01-22T08:07:37.146Z</time>
      </trkpt>
      <trkpt lat="47.8093" lon="1.97671">
        <ele>108</ele>
        <time>2017-01-22T08:07:38.142Z</time>
      </trkpt>
      <trkpt lat="47.80921" lon="1.97676">
        <ele>108</ele>
        <time>2017-01-22T08:07:39.146Z</time>
      </trkpt>
      <trkpt lat="47.80917" lon="1.97679">
        <ele>108</ele>
        <time>2017-01-22T08:07:40.144Z</time>
      </trkpt>
      <trkpt lat="47.80912" lon="1.97681">
        <ele>108</ele>
        <time>2017-01-22T08:07:41.147Z</time>
      </trkpt>
      <trkpt lat="47.80912" lon="1.97681">
        <ele>108</ele>
        <time>2017-01-22T08:07:42.142Z</time>
      </trkpt>
      <trkpt lat="47.80903" lon="1.97686">
        <ele>108</ele>
        <time>2017-01-22T08:07:43.145Z</time>
      </trkpt>
      <trkpt lat="47.80903" lon="1.97686">
        <ele>108</ele>
        <time>2017-01-22T08:07:44.142Z</time>
      </trkpt>
      <trkpt lat="47.80894" lon="1.97691">
        <ele>108</ele>
        <time>2017-01-22T08:07:45.145Z</time>
      </trkpt>
      <trkpt lat="47.80894" lon="1.97691">
        <ele>108</ele>
        <time>2017-01-22T08:07:46.137Z</time>
      </trkpt>
      <trkpt lat="47.80885" lon="1.97696">
        <ele>108</ele>
        <time>2017-01-22T08:07:47.145Z</time>
      </trkpt>
      <trkpt lat="47.80885" lon="1.97696">
        <ele>108</ele>
        <time>2017-01-22T08:07:48.142Z</time>
      </trkpt>
      <trkpt lat="47.80876" lon="1.97701">
        <ele>108</ele>
        <time>2017-01-22T08:07:49.152Z</time>
      </trkpt>
      <trkpt lat="47.80871" lon="1.97703">
        <ele>108</ele>
        <time>2017-01-22T08:07:50.126Z</time>
      </trkpt>
      <trkpt lat="47.80871" lon="1.97703">
        <ele>108</ele>
        <time>2017-01-22T08:07:51.121Z</time>
      </trkpt>
      <trkpt lat="47.80862" lon="1.97708">
        <ele>108</ele>
        <time>2017-01-22T08:07:52.157Z</time>
      </trkpt>
      <trkpt lat="47.80857" lon="1.97711">
        <ele>108</ele>
        <time>2017-01-22T08:07:53.123Z</time>
      </trkpt>
      <trkpt lat="47.80857" lon="1.97711">
        <ele>108</ele>
        <time>2017-01-22T08:07:54.135Z</time>
      </trkpt>
      <trkpt lat="47.80848" lon="1.97716">
        <ele>108</ele>
        <time>2017-01-22T08:07:55.142Z</time>
      </trkpt>
      <trkpt lat="47.80848" lon="1.97716">
        <ele>108</ele>
        <time>2017-01-22T08:07:56.142Z</time>
      </trkpt>
      <trkpt lat="47.80839" lon="1.97721">
        <ele>108</ele>
        <time>2017-01-22T08:07:57.120Z</time>
      </trkpt>
      <trkpt lat="47.80839" lon="1.97721">
        <ele>108</ele>
        <time>2017-01-22T08:07:58.120Z</time>
      </trkpt>
      <trkpt lat="47.80831" lon="1.97726">
        <ele>108</ele>
        <time>2017-01-22T08:07:59.156Z</time>
      </trkpt>
      <trkpt lat="47.80831" lon="1.97726">
        <ele>108</ele>
        <time>2017-01-22T08:08:00.154Z</time>
      </trkpt>
      <trkpt lat="47.80824" lon="1.97729">
        <ele>107</ele>
        <time>2017-01-22T08:08:01.149Z</time>
      </trkpt>
      <trkpt lat="47.80824" lon="1.97729">
        <ele>107</ele>
        <time>2017-01-22T08:08:02.143Z</time>
      </trkpt>
      <trkpt lat="47.80817" lon="1.97733">
        <ele>107</ele>
        <time>2017-01-22T08:08:03.145Z</time>
      </trkpt>
      <trkpt lat="47.80817" lon="1.97733">
        <ele>107</ele>
        <time>2017-01-22T08:08:04.141Z</time>
      </trkpt>
      <trkpt lat="47.8081" lon="1.97736">
        <ele>107</ele>
        <time>2017-01-22T08:08:05.145Z</time>
      </trkpt>
      <trkpt lat="47.8081" lon="1.97736">
        <ele>107</ele>
        <time>2017-01-22T08:08:06.140Z</time>
      </trkpt>
      <trkpt lat="47.80804" lon="1.97739">
        <ele>107</ele>
        <time>2017-01-22T08:08:07.146Z</time>
      </trkpt>
      <trkpt lat="47.80804" lon="1.97739">
        <ele>107</ele>
        <time>2017-01-22T08:08:08.142Z</time>
      </trkpt>
      <trkpt lat="47.80799" lon="1.97744">
        <ele>108</ele>
        <time>2017-01-22T08:08:09.147Z</time>
      </trkpt>
      <trkpt lat="47.80799" lon="1.97744">
        <ele>108</ele>
        <time>2017-01-22T08:08:10.142Z</time>
      </trkpt>
      <trkpt lat="47.80796" lon="1.97752">
        <ele>108</ele>
        <time>2017-01-22T08:08:11.145Z</time>
      </trkpt>
      <trkpt lat="47.80796" lon="1.97752">
        <ele>108</ele>
        <time>2017-01-22T08:08:12.142Z</time>
      </trkpt>
      <trkpt lat="47.80792" lon="1.97757">
        <ele>109</ele>
        <time>2017-01-22T08:08:13.147Z</time>
      </trkpt>
      <trkpt lat="47.80789" lon="1.97759">
        <ele>109</ele>
        <time>2017-01-22T08:08:14.153Z</time>
      </trkpt>
      <trkpt lat="47.80789" lon="1.97759">
        <ele>109</ele>
        <time>2017-01-22T08:08:15.143Z</time>
      </trkpt>
      <trkpt lat="47.80782" lon="1.97763">
        <ele>109</ele>
        <time>2017-01-22T08:08:16.145Z</time>
      </trkpt>
      <trkpt lat="47.80779" lon="1.97766">
        <ele>109</ele>
        <time>2017-01-22T08:08:17.146Z</time>
      </trkpt>
      <trkpt lat="47.80779" lon="1.97766">
        <ele>109</ele>
        <time>2017-01-22T08:08:18.141Z</time>
      </trkpt>
      <trkpt lat="47.80771" lon="1.97772">
        <ele>108</ele>
        <time>2017-01-22T08:08:19.147Z</time>
      </trkpt>
      <trkpt lat="47.80771" lon="1.97772">
        <ele>108</ele>
        <time>2017-01-22T08:08:20.143Z</time>
      </trkpt>
      <trkpt lat="47.80764" lon="1.97779">
        <ele>108</ele>
        <time>2017-01-22T08:08:21.143Z</time>
      </trkpt>
      <trkpt lat="47.80764" lon="1.97779">
        <ele>108</ele>
        <time>2017-01-22T08:08:22.143Z</time>
      </trkpt>
      <trkpt lat="47.80758" lon="1.97786">
        <ele>108</ele>
        <time>2017-01-22T08:08:23.146Z</time>
      </trkpt>
      <trkpt lat="47.80758" lon="1.97786">
        <ele>108</ele>
        <time>2017-01-22T08:08:24.143Z</time>
      </trkpt>
      <trkpt lat="47.80752" lon="1.97793">
        <ele>108</ele>
        <time>2017-01-22T08:08:25.147Z</time>
      </trkpt>
      <trkpt lat="47.80752" lon="1.97793">
        <ele>108</ele>
        <time>2017-01-22T08:08:26.143Z</time>
      </trkpt>
      <trkpt lat="47.80745" lon="1.978">
        <ele>108</ele>
        <time>2017-01-22T08:08:27.145Z</time>
      </trkpt>
      <trkpt lat="47.80742" lon="1.97805">
        <ele>108</ele>
        <time>2017-01-22T08:08:28.146Z</time>
      </trkpt>
      <trkpt lat="47.80742" lon="1.97805">
        <ele>108</ele>
        <time>2017-01-22T08:08:29.140Z</time>
      </trkpt>
      <trkpt lat="47.80735" lon="1.97814">
        <ele>108</ele>
        <time>2017-01-22T08:08:30.146Z</time>
      </trkpt>
      <trkpt lat="47.80731" lon="1.97818">
        <ele>108</ele>
        <time>2017-01-22T08:08:31.121Z</time>
      </trkpt>
      <trkpt lat="47.80731" lon="1.97818">
        <ele>108</ele>
        <time>2017-01-22T08:08:32.150Z</time>
      </trkpt>
      <trkpt lat="47.80724" lon="1.97828">
        <ele>108</ele>
        <time>2017-01-22T08:08:33.145Z</time>
      </trkpt>
      <trkpt lat="47.80724" lon="1.97828">
        <ele>108</ele>
        <time>2017-01-22T08:08:34.142Z</time>
      </trkpt>
      <trkpt lat="47.80716" lon="1.97838">
        <ele>107</ele>
        <time>2017-01-22T08:08:35.146Z</time>
      </trkpt>
      <trkpt lat="47.80712" lon="1.97843">
        <ele>107</ele>
        <time>2017-01-22T08:08:36.146Z</time>
      </trkpt>
      <trkpt lat="47.80712" lon="1.97843">
        <ele>107</ele>
        <time>2017-01-22T08:08:37.144Z</time>
      </trkpt>
      <trkpt lat="47.80703" lon="1.97853">
        <ele>107</ele>
        <time>2017-01-22T08:08:38.145Z</time>
      </trkpt>
      <trkpt lat="47.80699" lon="1.97859">
        <ele>107</ele>
        <time>2017-01-22T08:08:39.145Z</time>
      </trkpt>
      <trkpt lat="47.80699" lon="1.97859">
        <ele>107</ele>
        <time>2017-01-22T08:08:40.142Z</time>
      </trkpt>
      <trkpt lat="47.8069" lon="1.97869">
        <ele>107</ele>
        <time>2017-01-22T08:08:41.145Z</time>
      </trkpt>
      <trkpt lat="47.8069" lon="1.97869">
        <ele>107</ele>
        <time>2017-01-22T08:08:42.142Z</time>
      </trkpt>
      <trkpt lat="47.80681" lon="1.9788">
        <ele>107</ele>
        <time>2017-01-22T08:08:43.146Z</time>
      </trkpt>
      <trkpt lat="47.80681" lon="1.9788">
        <ele>107</ele>
        <time>2017-01-22T08:08:44.141Z</time>
      </trkpt>
      <trkpt lat="47.80672" lon="1.97892">
        <ele>106</ele>
        <time>2017-01-22T08:08:45.147Z</time>
      </trkpt>
      <trkpt lat="47.80672" lon="1.97892">
        <ele>106</ele>
        <time>2017-01-22T08:08:46.146Z</time>
      </trkpt>
      <trkpt lat="47.80663" lon="1.97903">
        <ele>106</ele>
        <time>2017-01-22T08:08:47.146Z</time>
      </trkpt>
      <trkpt lat="47.80663" lon="1.97903">
        <ele>106</ele>
        <time>2017-01-22T08:08:48.143Z</time>
      </trkpt>
      <trkpt lat="47.80654" lon="1.97914">
        <ele>106</ele>
        <time>2017-01-22T08:08:49.151Z</time>
      </trkpt>
      <trkpt lat="47.80649" lon="1.9792">
        <ele>106</ele>
        <time>2017-01-22T08:08:50.144Z</time>
      </trkpt>
      <trkpt lat="47.80643" lon="1.97925">
        <ele>105</ele>
        <time>2017-01-22T08:08:51.132Z</time>
      </trkpt>
      <trkpt lat="47.80643" lon="1.97925">
        <ele>105</ele>
        <time>2017-01-22T08:08:52.121Z</time>
      </trkpt>
      <trkpt lat="47.80633" lon="1.97936">
        <ele>105</ele>
        <time>2017-01-22T08:08:53.148Z</time>
      </trkpt>
      <trkpt lat="47.80633" lon="1.97936">
        <ele>105</ele>
        <time>2017-01-22T08:08:54.138Z</time>
      </trkpt>
      <trkpt lat="47.80623" lon="1.97946">
        <ele>105</ele>
        <time>2017-01-22T08:08:55.130Z</time>
      </trkpt>
      <trkpt lat="47.80618" lon="1.97951">
        <ele>105</ele>
        <time>2017-01-22T08:08:56.145Z</time>
      </trkpt>
      <trkpt lat="47.80612" lon="1.97955">
        <ele>105</ele>
        <time>2017-01-22T08:08:57.130Z</time>
      </trkpt>
      <trkpt lat="47.80612" lon="1.97955">
        <ele>105</ele>
        <time>2017-01-22T08:08:58.154Z</time>
      </trkpt>
      <trkpt lat="47.80602" lon="1.97964">
        <ele>105</ele>
        <time>2017-01-22T08:08:59.123Z</time>
      </trkpt>
      <trkpt lat="47.80602" lon="1.97964">
        <ele>105</ele>
        <time>2017-01-22T08:09:00.151Z</time>
      </trkpt>
      <trkpt lat="47.80591" lon="1.97972">
        <ele>105</ele>
        <time>2017-01-22T08:09:01.161Z</time>
      </trkpt>
      <trkpt lat="47.80591" lon="1.97972">
        <ele>105</ele>
        <time>2017-01-22T08:09:02.148Z</time>
      </trkpt>
      <trkpt lat="47.8058" lon="1.9798">
        <ele>105</ele>
        <time>2017-01-22T08:09:03.125Z</time>
      </trkpt>
      <trkpt lat="47.8058" lon="1.9798">
        <ele>105</ele>
        <time>2017-01-22T08:09:04.149Z</time>
      </trkpt>
      <trkpt lat="47.80569" lon="1.97988">
        <ele>105</ele>
        <time>2017-01-22T08:09:05.120Z</time>
      </trkpt>
      <trkpt lat="47.80569" lon="1.97988">
        <ele>105</ele>
        <time>2017-01-22T08:09:06.143Z</time>
      </trkpt>
      <trkpt lat="47.80558" lon="1.97997">
        <ele>105</ele>
        <time>2017-01-22T08:09:07.120Z</time>
      </trkpt>
      <trkpt lat="47.80558" lon="1.97997">
        <ele>105</ele>
        <time>2017-01-22T08:09:08.142Z</time>
      </trkpt>
      <trkpt lat="47.80547" lon="1.98005">
        <ele>105</ele>
        <time>2017-01-22T08:09:09.148Z</time>
      </trkpt>
      <trkpt lat="47.80547" lon="1.98005">
        <ele>105</ele>
        <time>2017-01-22T08:09:10.152Z</time>
      </trkpt>
      <trkpt lat="47.80537" lon="1.98012">
        <ele>105</ele>
        <time>2017-01-22T08:09:11.133Z</time>
      </trkpt>
      <trkpt lat="47.80532" lon="1.98016">
        <ele>105</ele>
        <time>2017-01-22T08:09:12.126Z</time>
      </trkpt>
      <trkpt lat="47.80532" lon="1.98016">
        <ele>105</ele>
        <time>2017-01-22T08:09:13.143Z</time>
      </trkpt>
      <trkpt lat="47.80521" lon="1.98024">
        <ele>105</ele>
        <time>2017-01-22T08:09:14.161Z</time>
      </trkpt>
      <trkpt lat="47.80516" lon="1.98027">
        <ele>105</ele>
        <time>2017-01-22T08:09:15.162Z</time>
      </trkpt>
      <trkpt lat="47.80516" lon="1.98027">
        <ele>105</ele>
        <time>2017-01-22T08:09:16.140Z</time>
      </trkpt>
      <trkpt lat="47.80506" lon="1.98035">
        <ele>105</ele>
        <time>2017-01-22T08:09:17.126Z</time>
      </trkpt>
      <trkpt lat="47.80506" lon="1.98035">
        <ele>105</ele>
        <time>2017-01-22T08:09:18.120Z</time>
      </trkpt>
      <trkpt lat="47.80496" lon="1.98042">
        <ele>106</ele>
        <time>2017-01-22T08:09:19.125Z</time>
      </trkpt>
      <trkpt lat="47.80496" lon="1.98042">
        <ele>106</ele>
        <time>2017-01-22T08:09:20.126Z</time>
      </trkpt>
      <trkpt lat="47.80486" lon="1.98049">
        <ele>106</ele>
        <time>2017-01-22T08:09:21.149Z</time>
      </trkpt>
      <trkpt lat="47.80486" lon="1.98049">
        <ele>106</ele>
        <time>2017-01-22T08:09:22.142Z</time>
      </trkpt>
      <trkpt lat="47.80475" lon="1.98051">
        <ele>106</ele>
        <time>2017-01-22T08:09:23.158Z</time>
      </trkpt>
      <trkpt lat="47.80475" lon="1.98051">
        <ele>106</ele>
        <time>2017-01-22T08:09:24.143Z</time>
      </trkpt>
      <trkpt lat="47.80465" lon="1.98047">
        <ele>107</ele>
        <time>2017-01-22T08:09:25.120Z</time>
      </trkpt>
      <trkpt lat="47.80465" lon="1.98047">
        <ele>107</ele>
        <time>2017-01-22T08:09:26.143Z</time>
      </trkpt>
      <trkpt lat="47.80454" lon="1.98042">
        <ele>108</ele>
        <time>2017-01-22T08:09:27.126Z</time>
      </trkpt>
      <trkpt lat="47.80454" lon="1.98042">
        <ele>108</ele>
        <time>2017-01-22T08:09:28.120Z</time>
      </trkpt>
      <trkpt lat="47.80444" lon="1.98037">
        <ele>108</ele>
        <time>2017-01-22T08:09:29.123Z</time>
      </trkpt>
      <trkpt lat="47.80444" lon="1.98037">
        <ele>108</ele>
        <time>2017-01-22T08:09:30.145Z</time>
      </trkpt>
      <trkpt lat="47.80434" lon="1.98033">
        <ele>109</ele>
        <time>2017-01-22T08:09:31.132Z</time>
      </trkpt>
      <trkpt lat="47.80434" lon="1.98033">
        <ele>109</ele>
        <time>2017-01-22T08:09:32.148Z</time>
      </trkpt>
      <trkpt lat="47.80423" lon="1.98026">
        <ele>109</ele>
        <time>2017-01-22T08:09:33.122Z</time>
      </trkpt>
      <trkpt lat="47.80423" lon="1.98026">
        <ele>109</ele>
        <time>2017-01-22T08:09:34.141Z</time>
      </trkpt>
      <trkpt lat="47.80413" lon="1.98021">
        <ele>110</ele>
        <time>2017-01-22T08:09:35.125Z</time>
      </trkpt>
      <trkpt lat="47.80413" lon="1.98021">
        <ele>110</ele>
        <time>2017-01-22T08:09:36.143Z</time>
      </trkpt>
      <trkpt lat="47.80403" lon="1.98016">
        <ele>110</ele>
        <time>2017-01-22T08:09:37.124Z</time>
      </trkpt>
      <trkpt lat="47.80403" lon="1.98016">
        <ele>110</ele>
        <time>2017-01-22T08:09:38.143Z</time>
      </trkpt>
      <trkpt lat="47.80393" lon="1.9801">
        <ele>111</ele>
        <time>2017-01-22T08:09:39.156Z</time>
      </trkpt>
      <trkpt lat="47.80393" lon="1.9801">
        <ele>111</ele>
        <time>2017-01-22T08:09:40.140Z</time>
      </trkpt>
      <trkpt lat="47.80382" lon="1.98005">
        <ele>111</ele>
        <time>2017-01-22T08:09:41.126Z</time>
      </trkpt>
      <trkpt lat="47.80377" lon="1.98002">
        <ele>111</ele>
        <time>2017-01-22T08:09:42.125Z</time>
      </trkpt>
      <trkpt lat="47.80377" lon="1.98002">
        <ele>111</ele>
        <time>2017-01-22T08:09:43.148Z</time>
      </trkpt>
      <trkpt lat="47.80366" lon="1.97997">
        <ele>111</ele>
        <time>2017-01-22T08:09:44.146Z</time>
      </trkpt>
      <trkpt lat="47.80366" lon="1.97997">
        <ele>111</ele>
        <time>2017-01-22T08:09:45.140Z</time>
      </trkpt>
      <trkpt lat="47.80356" lon="1.97994">
        <ele>111</ele>
        <time>2017-01-22T08:09:46.151Z</time>
      </trkpt>
      <trkpt lat="47.80356" lon="1.97994">
        <ele>111</ele>
        <time>2017-01-22T08:09:47.143Z</time>
      </trkpt>
      <trkpt lat="47.80347" lon="1.97988">
        <ele>111</ele>
        <time>2017-01-22T08:09:48.156Z</time>
      </trkpt>
      <trkpt lat="47.80342" lon="1.97985">
        <ele>111</ele>
        <time>2017-01-22T08:09:49.160Z</time>
      </trkpt>
      <trkpt lat="47.80342" lon="1.97985">
        <ele>111</ele>
        <time>2017-01-22T08:09:50.140Z</time>
      </trkpt>
      <trkpt lat="47.80332" lon="1.97981">
        <ele>111</ele>
        <time>2017-01-22T08:09:51.148Z</time>
      </trkpt>
      <trkpt lat="47.80332" lon="1.97981">
        <ele>111</ele>
        <time>2017-01-22T08:09:52.142Z</time>
      </trkpt>
      <trkpt lat="47.80322" lon="1.97977">
        <ele>111</ele>
        <time>2017-01-22T08:09:53.146Z</time>
      </trkpt>
      <trkpt lat="47.80322" lon="1.97977">
        <ele>111</ele>
        <time>2017-01-22T08:09:54.137Z</time>
      </trkpt>
      <trkpt lat="47.80311" lon="1.97972">
        <ele>111</ele>
        <time>2017-01-22T08:09:55.118Z</time>
      </trkpt>
      <trkpt lat="47.80311" lon="1.97972">
        <ele>111</ele>
        <time>2017-01-22T08:09:56.142Z</time>
      </trkpt>
      <trkpt lat="47.80301" lon="1.97968">
        <ele>111</ele>
        <time>2017-01-22T08:09:57.156Z</time>
      </trkpt>
      <trkpt lat="47.80301" lon="1.97968">
        <ele>111</ele>
        <time>2017-01-22T08:09:58.142Z</time>
      </trkpt>
      <trkpt lat="47.80291" lon="1.97963">
        <ele>111</ele>
        <time>2017-01-22T08:09:59.156Z</time>
      </trkpt>
      <trkpt lat="47.80291" lon="1.97963">
        <ele>111</ele>
        <time>2017-01-22T08:10:00.144Z</time>
      </trkpt>
      <trkpt lat="47.80281" lon="1.97959">
        <ele>111</ele>
        <time>2017-01-22T08:10:01.160Z</time>
      </trkpt>
      <trkpt lat="47.80281" lon="1.97959">
        <ele>111</ele>
        <time>2017-01-22T08:10:02.143Z</time>
      </trkpt>
      <trkpt lat="47.8027" lon="1.97955">
        <ele>111</ele>
        <time>2017-01-22T08:10:03.121Z</time>
      </trkpt>
      <trkpt lat="47.8027" lon="1.97955">
        <ele>111</ele>
        <time>2017-01-22T08:10:04.151Z</time>
      </trkpt>
      <trkpt lat="47.8026" lon="1.97951">
        <ele>111</ele>
        <time>2017-01-22T08:10:05.152Z</time>
      </trkpt>
      <trkpt lat="47.80255" lon="1.97948">
        <ele>111</ele>
        <time>2017-01-22T08:10:06.124Z</time>
      </trkpt>
      <trkpt lat="47.8025" lon="1.97946">
        <ele>111</ele>
        <time>2017-01-22T08:10:07.157Z</time>
      </trkpt>
      <trkpt lat="47.8025" lon="1.97946">
        <ele>111</ele>
        <time>2017-01-22T08:10:08.124Z</time>
      </trkpt>
      <trkpt lat="47.80239" lon="1.97941">
        <ele>111</ele>
        <time>2017-01-22T08:10:09.130Z</time>
      </trkpt>
      <trkpt lat="47.80239" lon="1.97941">
        <ele>111</ele>
        <time>2017-01-22T08:10:10.153Z</time>
      </trkpt>
      <trkpt lat="47.80228" lon="1.97936">
        <ele>111</ele>
        <time>2017-01-22T08:10:11.135Z</time>
      </trkpt>
      <trkpt lat="47.80228" lon="1.97936">
        <ele>111</ele>
        <time>2017-01-22T08:10:12.143Z</time>
      </trkpt>
      <trkpt lat="47.80217" lon="1.97931">
        <ele>111</ele>
        <time>2017-01-22T08:10:13.162Z</time>
      </trkpt>
      <trkpt lat="47.80217" lon="1.97931">
        <ele>111</ele>
        <time>2017-01-22T08:10:14.143Z</time>
      </trkpt>
      <trkpt lat="47.80206" lon="1.97926">
        <ele>111</ele>
        <time>2017-01-22T08:10:15.156Z</time>
      </trkpt>
      <trkpt lat="47.80201" lon="1.97924">
        <ele>111</ele>
        <time>2017-01-22T08:10:16.126Z</time>
      </trkpt>
      <trkpt lat="47.80201" lon="1.97924">
        <ele>111</ele>
        <time>2017-01-22T08:10:17.142Z</time>
      </trkpt>
      <trkpt lat="47.8019" lon="1.97919">
        <ele>111</ele>
        <time>2017-01-22T08:10:18.125Z</time>
      </trkpt>
      <trkpt lat="47.80185" lon="1.97916">
        <ele>111</ele>
        <time>2017-01-22T08:10:19.163Z</time>
      </trkpt>
      <trkpt lat="47.8018" lon="1.97913">
        <ele>111</ele>
        <time>2017-01-22T08:10:20.147Z</time>
      </trkpt>
      <trkpt lat="47.8018" lon="1.97913">
        <ele>111</ele>
        <time>2017-01-22T08:10:21.152Z</time>
      </trkpt>
      <trkpt lat="47.8017" lon="1.97908">
        <ele>111</ele>
        <time>2017-01-22T08:10:22.118Z</time>
      </trkpt>
      <trkpt lat="47.80165" lon="1.97905">
        <ele>111</ele>
        <time>2017-01-22T08:10:23.162Z</time>
      </trkpt>
      <trkpt lat="47.80165" lon="1.97905">
        <ele>111</ele>
        <time>2017-01-22T08:10:24.140Z</time>
      </trkpt>
      <trkpt lat="47.80155" lon="1.97899">
        <ele>111</ele>
        <time>2017-01-22T08:10:25.126Z</time>
      </trkpt>
      <trkpt lat="47.80155" lon="1.97899">
        <ele>111</ele>
        <time>2017-01-22T08:10:26.144Z</time>
      </trkpt>
      <trkpt lat="47.80144" lon="1.97894">
        <ele>111</ele>
        <time>2017-01-22T08:10:27.126Z</time>
      </trkpt>
      <trkpt lat="47.80144" lon="1.97894">
        <ele>111</ele>
        <time>2017-01-22T08:10:28.143Z</time>
      </trkpt>
      <trkpt lat="47.80134" lon="1.97888">
        <ele>111</ele>
        <time>2017-01-22T08:10:29.159Z</time>
      </trkpt>
      <trkpt lat="47.80128" lon="1.97885">
        <ele>111</ele>
        <time>2017-01-22T08:10:30.120Z</time>
      </trkpt>
      <trkpt lat="47.80128" lon="1.97885">
        <ele>111</ele>
        <time>2017-01-22T08:10:31.122Z</time>
      </trkpt>
      <trkpt lat="47.80118" lon="1.9788">
        <ele>111</ele>
        <time>2017-01-22T08:10:32.131Z</time>
      </trkpt>
      <trkpt lat="47.80118" lon="1.9788">
        <ele>111</ele>
        <time>2017-01-22T08:10:33.148Z</time>
      </trkpt>
      <trkpt lat="47.80107" lon="1.97874">
        <ele>111</ele>
        <time>2017-01-22T08:10:34.162Z</time>
      </trkpt>
      <trkpt lat="47.80107" lon="1.97874">
        <ele>111</ele>
        <time>2017-01-22T08:10:35.138Z</time>
      </trkpt>
      <trkpt lat="47.80097" lon="1.97868">
        <ele>111</ele>
        <time>2017-01-22T08:10:36.125Z</time>
      </trkpt>
      <trkpt lat="47.80091" lon="1.97865">
        <ele>111</ele>
        <time>2017-01-22T08:10:37.128Z</time>
      </trkpt>
      <trkpt lat="47.80091" lon="1.97865">
        <ele>111</ele>
        <time>2017-01-22T08:10:38.121Z</time>
      </trkpt>
      <trkpt lat="47.80081" lon="1.9786">
        <ele>111</ele>
        <time>2017-01-22T08:10:39.122Z</time>
      </trkpt>
      <trkpt lat="47.80081" lon="1.9786">
        <ele>111</ele>
        <time>2017-01-22T08:10:40.140Z</time>
      </trkpt>
      <trkpt lat="47.8007" lon="1.97854">
        <ele>111</ele>
        <time>2017-01-22T08:10:41.123Z</time>
      </trkpt>
      <trkpt lat="47.80065" lon="1.97851">
        <ele>111</ele>
        <time>2017-01-22T08:10:42.156Z</time>
      </trkpt>
      <trkpt lat="47.80059" lon="1.97848">
        <ele>111</ele>
        <time>2017-01-22T08:10:43.161Z</time>
      </trkpt>
      <trkpt lat="47.80059" lon="1.97848">
        <ele>111</ele>
        <time>2017-01-22T08:10:44.148Z</time>
      </trkpt>
      <trkpt lat="47.80049" lon="1.97842">
        <ele>111</ele>
        <time>2017-01-22T08:10:45.156Z</time>
      </trkpt>
      <trkpt lat="47.80049" lon="1.97842">
        <ele>111</ele>
        <time>2017-01-22T08:10:46.143Z</time>
      </trkpt>
      <trkpt lat="47.80038" lon="1.97836">
        <ele>111</ele>
        <time>2017-01-22T08:10:47.162Z</time>
      </trkpt>
      <trkpt lat="47.80038" lon="1.97836">
        <ele>111</ele>
        <time>2017-01-22T08:10:48.143Z</time>
      </trkpt>
      <trkpt lat="47.80027" lon="1.9783">
        <ele>111</ele>
        <time>2017-01-22T08:10:49.156Z</time>
      </trkpt>
      <trkpt lat="47.80027" lon="1.9783">
        <ele>111</ele>
        <time>2017-01-22T08:10:50.143Z</time>
      </trkpt>
      <trkpt lat="47.80016" lon="1.97824">
        <ele>110</ele>
        <time>2017-01-22T08:10:51.151Z</time>
      </trkpt>
      <trkpt lat="47.80016" lon="1.97824">
        <ele>110</ele>
        <time>2017-01-22T08:10:52.155Z</time>
      </trkpt>
      <trkpt lat="47.80005" lon="1.97818">
        <ele>110</ele>
        <time>2017-01-22T08:10:53.162Z</time>
      </trkpt>
      <trkpt lat="47.80005" lon="1.97818">
        <ele>110</ele>
        <time>2017-01-22T08:10:54.139Z</time>
      </trkpt>
      <trkpt lat="47.79995" lon="1.97812">
        <ele>111</ele>
        <time>2017-01-22T08:10:55.162Z</time>
      </trkpt>
      <trkpt lat="47.79995" lon="1.97812">
        <ele>111</ele>
        <time>2017-01-22T08:10:56.143Z</time>
      </trkpt>
      <trkpt lat="47.79984" lon="1.97807">
        <ele>111</ele>
        <time>2017-01-22T08:10:57.118Z</time>
      </trkpt>
      <trkpt lat="47.79984" lon="1.97807">
        <ele>111</ele>
        <time>2017-01-22T08:10:58.148Z</time>
      </trkpt>
      <trkpt lat="47.79973" lon="1.97801">
        <ele>111</ele>
        <time>2017-01-22T08:10:59.159Z</time>
      </trkpt>
      <trkpt lat="47.79968" lon="1.97798">
        <ele>111</ele>
        <time>2017-01-22T08:11:00.153Z</time>
      </trkpt>
      <trkpt lat="47.79968" lon="1.97798">
        <ele>111</ele>
        <time>2017-01-22T08:11:01.156Z</time>
      </trkpt>
      <trkpt lat="47.79957" lon="1.97792">
        <ele>111</ele>
        <time>2017-01-22T08:11:02.133Z</time>
      </trkpt>
      <trkpt lat="47.79957" lon="1.97792">
        <ele>111</ele>
        <time>2017-01-22T08:11:03.121Z</time>
      </trkpt>
      <trkpt lat="47.79946" lon="1.97787">
        <ele>111</ele>
        <time>2017-01-22T08:11:04.124Z</time>
      </trkpt>
      <trkpt lat="47.79941" lon="1.97784">
        <ele>111</ele>
        <time>2017-01-22T08:11:05.161Z</time>
      </trkpt>
      <trkpt lat="47.79941" lon="1.97784">
        <ele>111</ele>
        <time>2017-01-22T08:11:06.148Z</time>
      </trkpt>
      <trkpt lat="47.79931" lon="1.97778">
        <ele>111</ele>
        <time>2017-01-22T08:11:07.125Z</time>
      </trkpt>
      <trkpt lat="47.79931" lon="1.97778">
        <ele>111</ele>
        <time>2017-01-22T08:11:08.148Z</time>
      </trkpt>
      <trkpt lat="47.7992" lon="1.97773">
        <ele>111</ele>
        <time>2017-01-22T08:11:09.163Z</time>
      </trkpt>
      <trkpt lat="47.7992" lon="1.97773">
        <ele>111</ele>
        <time>2017-01-22T08:11:10.121Z</time>
      </trkpt>
      <trkpt lat="47.7991" lon="1.97767">
        <ele>110</ele>
        <time>2017-01-22T08:11:11.160Z</time>
      </trkpt>
      <trkpt lat="47.79905" lon="1.97764">
        <ele>111</ele>
        <time>2017-01-22T08:11:12.128Z</time>
      </trkpt>
      <trkpt lat="47.799" lon="1.97761">
        <ele>111</ele>
        <time>2017-01-22T08:11:13.126Z</time>
      </trkpt>
      <trkpt lat="47.799" lon="1.97761">
        <ele>111</ele>
        <time>2017-01-22T08:11:14.148Z</time>
      </trkpt>
      <trkpt lat="47.79889" lon="1.97756">
        <ele>111</ele>
        <time>2017-01-22T08:11:15.156Z</time>
      </trkpt>
      <trkpt lat="47.79884" lon="1.97753">
        <ele>111</ele>
        <time>2017-01-22T08:11:16.125Z</time>
      </trkpt>
      <trkpt lat="47.79884" lon="1.97753">
        <ele>111</ele>
        <time>2017-01-22T08:11:17.143Z</time>
      </trkpt>
      <trkpt lat="47.79873" lon="1.9775">
        <ele>111</ele>
        <time>2017-01-22T08:11:18.152Z</time>
      </trkpt>
      <trkpt lat="47.79868" lon="1.97749">
        <ele>111</ele>
        <time>2017-01-22T08:11:19.156Z</time>
      </trkpt>
      <trkpt lat="47.79868" lon="1.97749">
        <ele>111</ele>
        <time>2017-01-22T08:11:20.141Z</time>
      </trkpt>
      <trkpt lat="47.79857" lon="1.9775">
        <ele>111</ele>
        <time>2017-01-22T08:11:21.163Z</time>
      </trkpt>
      <trkpt lat="47.79857" lon="1.9775">
        <ele>111</ele>
        <time>2017-01-22T08:11:22.121Z</time>
      </trkpt>
      <trkpt lat="47.79846" lon="1.97753">
        <ele>111</ele>
        <time>2017-01-22T08:11:23.135Z</time>
      </trkpt>
      <trkpt lat="47.7984" lon="1.97756">
        <ele>111</ele>
        <time>2017-01-22T08:11:24.135Z</time>
      </trkpt>
      <trkpt lat="47.79835" lon="1.97759">
        <ele>111</ele>
        <time>2017-01-22T08:11:25.135Z</time>
      </trkpt>
      <trkpt lat="47.79835" lon="1.97759">
        <ele>111</ele>
        <time>2017-01-22T08:11:26.146Z</time>
      </trkpt>
      <trkpt lat="47.79825" lon="1.97767">
        <ele>111</ele>
        <time>2017-01-22T08:11:27.126Z</time>
      </trkpt>
      <trkpt lat="47.79825" lon="1.97767">
        <ele>111</ele>
        <time>2017-01-22T08:11:28.143Z</time>
      </trkpt>
      <trkpt lat="47.79815" lon="1.97775">
        <ele>111</ele>
        <time>2017-01-22T08:11:29.153Z</time>
      </trkpt>
      <trkpt lat="47.7981" lon="1.97779">
        <ele>111</ele>
        <time>2017-01-22T08:11:30.164Z</time>
      </trkpt>
      <trkpt lat="47.7981" lon="1.97779">
        <ele>111</ele>
        <time>2017-01-22T08:11:31.144Z</time>
      </trkpt>
      <trkpt lat="47.798" lon="1.97787">
        <ele>111</ele>
        <time>2017-01-22T08:11:32.126Z</time>
      </trkpt>
      <trkpt lat="47.79794" lon="1.97791">
        <ele>111</ele>
        <time>2017-01-22T08:11:33.162Z</time>
      </trkpt>
      <trkpt lat="47.79794" lon="1.97791">
        <ele>111</ele>
        <time>2017-01-22T08:11:34.155Z</time>
      </trkpt>
      <trkpt lat="47.79784" lon="1.978">
        <ele>111</ele>
        <time>2017-01-22T08:11:35.156Z</time>
      </trkpt>
      <trkpt lat="47.79784" lon="1.978">
        <ele>111</ele>
        <time>2017-01-22T08:11:36.143Z</time>
      </trkpt>
      <trkpt lat="47.79773" lon="1.97808">
        <ele>111</ele>
        <time>2017-01-22T08:11:37.157Z</time>
      </trkpt>
      <trkpt lat="47.79773" lon="1.97808">
        <ele>111</ele>
        <time>2017-01-22T08:11:38.144Z</time>
      </trkpt>
      <trkpt lat="47.79762" lon="1.97816">
        <ele>110</ele>
        <time>2017-01-22T08:11:39.161Z</time>
      </trkpt>
      <trkpt lat="47.79762" lon="1.97816">
        <ele>110</ele>
        <time>2017-01-22T08:11:40.142Z</time>
      </trkpt>
      <trkpt lat="47.79752" lon="1.97825">
        <ele>110</ele>
        <time>2017-01-22T08:11:41.149Z</time>
      </trkpt>
      <trkpt lat="47.79752" lon="1.97825">
        <ele>110</ele>
        <time>2017-01-22T08:11:42.155Z</time>
      </trkpt>
      <trkpt lat="47.79741" lon="1.97833">
        <ele>110</ele>
        <time>2017-01-22T08:11:43.161Z</time>
      </trkpt>
      <trkpt lat="47.79741" lon="1.97833">
        <ele>110</ele>
        <time>2017-01-22T08:11:44.150Z</time>
      </trkpt>
      <trkpt lat="47.7973" lon="1.97841">
        <ele>110</ele>
        <time>2017-01-22T08:11:45.126Z</time>
      </trkpt>
      <trkpt lat="47.7973" lon="1.97841">
        <ele>110</ele>
        <time>2017-01-22T08:11:46.143Z</time>
      </trkpt>
      <trkpt lat="47.79719" lon="1.97849">
        <ele>110</ele>
        <time>2017-01-22T08:11:47.126Z</time>
      </trkpt>
      <trkpt lat="47.79719" lon="1.97849">
        <ele>110</ele>
        <time>2017-01-22T08:11:48.148Z</time>
      </trkpt>
      <trkpt lat="47.79708" lon="1.97858">
        <ele>109</ele>
        <time>2017-01-22T08:11:49.121Z</time>
      </trkpt>
      <trkpt lat="47.79708" lon="1.97858">
        <ele>109</ele>
        <time>2017-01-22T08:11:50.157Z</time>
      </trkpt>
      <trkpt lat="47.79697" lon="1.97867">
        <ele>109</ele>
        <time>2017-01-22T08:11:51.132Z</time>
      </trkpt>
      <trkpt lat="47.79691" lon="1.97872">
        <ele>109</ele>
        <time>2017-01-22T08:11:52.135Z</time>
      </trkpt>
      <trkpt lat="47.79691" lon="1.97872">
        <ele>109</ele>
        <time>2017-01-22T08:11:53.122Z</time>
      </trkpt>
      <trkpt lat="47.7968" lon="1.97882">
        <ele>108</ele>
        <time>2017-01-22T08:11:54.159Z</time>
      </trkpt>
      <trkpt lat="47.79675" lon="1.97887">
        <ele>108</ele>
        <time>2017-01-22T08:11:55.130Z</time>
      </trkpt>
      <trkpt lat="47.79675" lon="1.97887">
        <ele>108</ele>
        <time>2017-01-22T08:11:56.152Z</time>
      </trkpt>
      <trkpt lat="47.79665" lon="1.97899">
        <ele>109</ele>
        <time>2017-01-22T08:11:57.119Z</time>
      </trkpt>
      <trkpt lat="47.79665" lon="1.97899">
        <ele>109</ele>
        <time>2017-01-22T08:11:58.148Z</time>
      </trkpt>
      <trkpt lat="47.79655" lon="1.97911">
        <ele>109</ele>
        <time>2017-01-22T08:11:59.147Z</time>
      </trkpt>
      <trkpt lat="47.79655" lon="1.97911">
        <ele>109</ele>
        <time>2017-01-22T08:12:00.146Z</time>
      </trkpt>
      <trkpt lat="47.79646" lon="1.97923">
        <ele>109</ele>
        <time>2017-01-22T08:12:01.151Z</time>
      </trkpt>
      <trkpt lat="47.79646" lon="1.97923">
        <ele>109</ele>
        <time>2017-01-22T08:12:02.146Z</time>
      </trkpt>
      <trkpt lat="47.79637" lon="1.97937">
        <ele>109</ele>
        <time>2017-01-22T08:12:03.126Z</time>
      </trkpt>
      <trkpt lat="47.79637" lon="1.97937">
        <ele>109</ele>
        <time>2017-01-22T08:12:04.140Z</time>
      </trkpt>
      <trkpt lat="47.79629" lon="1.97949">
        <ele>110</ele>
        <time>2017-01-22T08:12:05.146Z</time>
      </trkpt>
      <trkpt lat="47.79629" lon="1.97949">
        <ele>110</ele>
        <time>2017-01-22T08:12:06.121Z</time>
      </trkpt>
      <trkpt lat="47.7962" lon="1.97961">
        <ele>110</ele>
        <time>2017-01-22T08:12:07.121Z</time>
      </trkpt>
      <trkpt lat="47.7962" lon="1.97961">
        <ele>110</ele>
        <time>2017-01-22T08:12:08.144Z</time>
      </trkpt>
      <trkpt lat="47.79612" lon="1.97973">
        <ele>110</ele>
        <time>2017-01-22T08:12:09.126Z</time>
      </trkpt>
      <trkpt lat="47.79612" lon="1.97973">
        <ele>110</ele>
        <time>2017-01-22T08:12:10.157Z</time>
      </trkpt>
      <trkpt lat="47.79603" lon="1.97985">
        <ele>109</ele>
        <time>2017-01-22T08:12:11.128Z</time>
      </trkpt>
      <trkpt lat="47.79603" lon="1.97985">
        <ele>109</ele>
        <time>2017-01-22T08:12:12.150Z</time>
      </trkpt>
      <trkpt lat="47.79595" lon="1.97996">
        <ele>110</ele>
        <time>2017-01-22T08:12:13.126Z</time>
      </trkpt>
      <trkpt lat="47.79595" lon="1.97996">
        <ele>110</ele>
        <time>2017-01-22T08:12:14.148Z</time>
      </trkpt>
      <trkpt lat="47.79586" lon="1.98007">
        <ele>110</ele>
        <time>2017-01-22T08:12:15.156Z</time>
      </trkpt>
      <trkpt lat="47.79586" lon="1.98007">
        <ele>110</ele>
        <time>2017-01-22T08:12:16.130Z</time>
      </trkpt>
      <trkpt lat="47.79578" lon="1.98019">
        <ele>110</ele>
        <time>2017-01-22T08:12:17.133Z</time>
      </trkpt>
      <trkpt lat="47.79578" lon="1.98019">
        <ele>110</ele>
        <time>2017-01-22T08:12:18.144Z</time>
      </trkpt>
      <trkpt lat="47.79569" lon="1.9803">
        <ele>111</ele>
        <time>2017-01-22T08:12:19.152Z</time>
      </trkpt>
      <trkpt lat="47.79569" lon="1.9803">
        <ele>111</ele>
        <time>2017-01-22T08:12:20.142Z</time>
      </trkpt>
      <trkpt lat="47.7956" lon="1.98041">
        <ele>111</ele>
        <time>2017-01-22T08:12:21.120Z</time>
      </trkpt>
      <trkpt lat="47.7956" lon="1.98041">
        <ele>111</ele>
        <time>2017-01-22T08:12:22.146Z</time>
      </trkpt>
      <trkpt lat="47.79551" lon="1.98051">
        <ele>111</ele>
        <time>2017-01-22T08:12:23.125Z</time>
      </trkpt>
      <trkpt lat="47.79551" lon="1.98051">
        <ele>111</ele>
        <time>2017-01-22T08:12:24.157Z</time>
      </trkpt>
      <trkpt lat="47.79543" lon="1.9806">
        <ele>111</ele>
        <time>2017-01-22T08:12:25.123Z</time>
      </trkpt>
      <trkpt lat="47.79543" lon="1.9806">
        <ele>111</ele>
        <time>2017-01-22T08:12:26.142Z</time>
      </trkpt>
      <trkpt lat="47.79534" lon="1.98069">
        <ele>111</ele>
        <time>2017-01-22T08:12:27.150Z</time>
      </trkpt>
      <trkpt lat="47.79534" lon="1.98069">
        <ele>111</ele>
        <time>2017-01-22T08:12:28.144Z</time>
      </trkpt>
      <trkpt lat="47.79524" lon="1.98077">
        <ele>112</ele>
        <time>2017-01-22T08:12:29.123Z</time>
      </trkpt>
      <trkpt lat="47.79524" lon="1.98077">
        <ele>112</ele>
        <time>2017-01-22T08:12:30.145Z</time>
      </trkpt>
      <trkpt lat="47.79514" lon="1.98085">
        <ele>112</ele>
        <time>2017-01-22T08:12:31.156Z</time>
      </trkpt>
      <trkpt lat="47.79514" lon="1.98085">
        <ele>112</ele>
        <time>2017-01-22T08:12:32.144Z</time>
      </trkpt>
      <trkpt lat="47.79504" lon="1.98091">
        <ele>112</ele>
        <time>2017-01-22T08:12:33.161Z</time>
      </trkpt>
      <trkpt lat="47.79499" lon="1.98093">
        <ele>112</ele>
        <time>2017-01-22T08:12:34.153Z</time>
      </trkpt>
      <trkpt lat="47.79499" lon="1.98093">
        <ele>112</ele>
        <time>2017-01-22T08:12:35.144Z</time>
      </trkpt>
      <trkpt lat="47.79488" lon="1.98097">
        <ele>111</ele>
        <time>2017-01-22T08:12:36.126Z</time>
      </trkpt>
      <trkpt lat="47.79482" lon="1.98098">
        <ele>111</ele>
        <time>2017-01-22T08:12:37.135Z</time>
      </trkpt>
      <trkpt lat="47.79482" lon="1.98098">
        <ele>111</ele>
        <time>2017-01-22T08:12:38.144Z</time>
      </trkpt>
      <trkpt lat="47.7947" lon="1.98099">
        <ele>111</ele>
        <time>2017-01-22T08:12:39.129Z</time>
      </trkpt>
      <trkpt lat="47.7947" lon="1.98099">
        <ele>111</ele>
        <time>2017-01-22T08:12:40.121Z</time>
      </trkpt>
      <trkpt lat="47.79458" lon="1.981">
        <ele>111</ele>
        <time>2017-01-22T08:12:41.124Z</time>
      </trkpt>
      <trkpt lat="47.79453" lon="1.98099">
        <ele>111</ele>
        <time>2017-01-22T08:12:42.134Z</time>
      </trkpt>
      <trkpt lat="47.79447" lon="1.98099">
        <ele>112</ele>
        <time>2017-01-22T08:12:43.135Z</time>
      </trkpt>
      <trkpt lat="47.79447" lon="1.98099">
        <ele>112</ele>
        <time>2017-01-22T08:12:44.121Z</time>
      </trkpt>
      <trkpt lat="47.79436" lon="1.98097">
        <ele>112</ele>
        <time>2017-01-22T08:12:45.127Z</time>
      </trkpt>
      <trkpt lat="47.7943" lon="1.98095">
        <ele>111</ele>
        <time>2017-01-22T08:12:46.150Z</time>
      </trkpt>
      <trkpt lat="47.7943" lon="1.98095">
        <ele>111</ele>
        <time>2017-01-22T08:12:47.122Z</time>
      </trkpt>
      <trkpt lat="47.79419" lon="1.98092">
        <ele>112</ele>
        <time>2017-01-22T08:12:48.134Z</time>
      </trkpt>
      <trkpt lat="47.79413" lon="1.98091">
        <ele>112</ele>
        <time>2017-01-22T08:12:49.149Z</time>
      </trkpt>
      <trkpt lat="47.79413" lon="1.98091">
        <ele>112</ele>
        <time>2017-01-22T08:12:50.146Z</time>
      </trkpt>
      <trkpt lat="47.79402" lon="1.98089">
        <ele>112</ele>
        <time>2017-01-22T08:12:51.126Z</time>
      </trkpt>
      <trkpt lat="47.79396" lon="1.98088">
        <ele>112</ele>
        <time>2017-01-22T08:12:52.135Z</time>
      </trkpt>
      <trkpt lat="47.79396" lon="1.98088">
        <ele>112</ele>
        <time>2017-01-22T08:12:53.144Z</time>
      </trkpt>
      <trkpt lat="47.79385" lon="1.98085">
        <ele>112</ele>
        <time>2017-01-22T08:12:54.125Z</time>
      </trkpt>
      <trkpt lat="47.7938" lon="1.98084">
        <ele>112</ele>
        <time>2017-01-22T08:12:55.161Z</time>
      </trkpt>
      <trkpt lat="47.7938" lon="1.98084">
        <ele>112</ele>
        <time>2017-01-22T08:12:56.148Z</time>
      </trkpt>
      <trkpt lat="47.79369" lon="1.98081">
        <ele>112</ele>
        <time>2017-01-22T08:12:57.153Z</time>
      </trkpt>
      <trkpt lat="47.79369" lon="1.98081">
        <ele>112</ele>
        <time>2017-01-22T08:12:58.144Z</time>
      </trkpt>
      <trkpt lat="47.79359" lon="1.98079">
        <ele>112</ele>
        <time>2017-01-22T08:12:59.162Z</time>
      </trkpt>
      <trkpt lat="47.79359" lon="1.98079">
        <ele>112</ele>
        <time>2017-01-22T08:13:00.146Z</time>
      </trkpt>
      <trkpt lat="47.79349" lon="1.98076">
        <ele>112</ele>
        <time>2017-01-22T08:13:01.157Z</time>
      </trkpt>
      <trkpt lat="47.79349" lon="1.98076">
        <ele>112</ele>
        <time>2017-01-22T08:13:02.151Z</time>
      </trkpt>
      <trkpt lat="47.79338" lon="1.98074">
        <ele>113</ele>
        <time>2017-01-22T08:13:03.161Z</time>
      </trkpt>
      <trkpt lat="47.79333" lon="1.98073">
        <ele>113</ele>
        <time>2017-01-22T08:13:04.132Z</time>
      </trkpt>
      <trkpt lat="47.79333" lon="1.98073">
        <ele>113</ele>
        <time>2017-01-22T08:13:05.144Z</time>
      </trkpt>
      <trkpt lat="47.79323" lon="1.98071">
        <ele>113</ele>
        <time>2017-01-22T08:13:06.162Z</time>
      </trkpt>
      <trkpt lat="47.79318" lon="1.9807">
        <ele>113</ele>
        <time>2017-01-22T08:13:07.163Z</time>
      </trkpt>
      <trkpt lat="47.79318" lon="1.9807">
        <ele>113</ele>
        <time>2017-01-22T08:13:08.144Z</time>
      </trkpt>
      <trkpt lat="47.79308" lon="1.98068">
        <ele>113</ele>
        <time>2017-01-22T08:13:09.119Z</time>
      </trkpt>
      <trkpt lat="47.79308" lon="1.98068">
        <ele>113</ele>
        <time>2017-01-22T08:13:10.145Z</time>
      </trkpt>
      <trkpt lat="47.79298" lon="1.98066">
        <ele>113</ele>
        <time>2017-01-22T08:13:11.146Z</time>
      </trkpt>
      <trkpt lat="47.79298" lon="1.98066">
        <ele>113</ele>
        <time>2017-01-22T08:13:12.156Z</time>
      </trkpt>
      <trkpt lat="47.79289" lon="1.98067">
        <ele>113</ele>
        <time>2017-01-22T08:13:13.153Z</time>
      </trkpt>
      <trkpt lat="47.79284" lon="1.98068">
        <ele>113</ele>
        <time>2017-01-22T08:13:14.160Z</time>
      </trkpt>
      <trkpt lat="47.79279" lon="1.98071">
        <ele>113</ele>
        <time>2017-01-22T08:13:15.125Z</time>
      </trkpt>
      <trkpt lat="47.79279" lon="1.98071">
        <ele>113</ele>
        <time>2017-01-22T08:13:16.144Z</time>
      </trkpt>
      <trkpt lat="47.79273" lon="1.9808">
        <ele>113</ele>
        <time>2017-01-22T08:13:17.159Z</time>
      </trkpt>
      <trkpt lat="47.79273" lon="1.9808">
        <ele>113</ele>
        <time>2017-01-22T08:13:18.148Z</time>
      </trkpt>
      <trkpt lat="47.7927" lon="1.98094">
        <ele>113</ele>
        <time>2017-01-22T08:13:19.156Z</time>
      </trkpt>
      <trkpt lat="47.7927" lon="1.98094">
        <ele>113</ele>
        <time>2017-01-22T08:13:20.144Z</time>
      </trkpt>
      <trkpt lat="47.7927" lon="1.98108">
        <ele>113</ele>
        <time>2017-01-22T08:13:21.153Z</time>
      </trkpt>
      <trkpt lat="47.79269" lon="1.98115">
        <ele>113</ele>
        <time>2017-01-22T08:13:22.126Z</time>
      </trkpt>
      <trkpt lat="47.79269" lon="1.98115">
        <ele>113</ele>
        <time>2017-01-22T08:13:23.157Z</time>
      </trkpt>
      <trkpt lat="47.79263" lon="1.98126">
        <ele>112</ele>
        <time>2017-01-22T08:13:24.125Z</time>
      </trkpt>
      <trkpt lat="47.79258" lon="1.98128">
        <ele>112</ele>
        <time>2017-01-22T08:13:25.161Z</time>
      </trkpt>
      <trkpt lat="47.79258" lon="1.98128">
        <ele>112</ele>
        <time>2017-01-22T08:13:26.142Z</time>
      </trkpt>
      <trkpt lat="47.79248" lon="1.98131">
        <ele>112</ele>
        <time>2017-01-22T08:13:27.126Z</time>
      </trkpt>
      <trkpt lat="47.79248" lon="1.98131">
        <ele>112</ele>
        <time>2017-01-22T08:13:28.144Z</time>
      </trkpt>
      <trkpt lat="47.79238" lon="1.98135">
        <ele>112</ele>
        <time>2017-01-22T08:13:29.125Z</time>
      </trkpt>
      <trkpt lat="47.79233" lon="1.98136">
        <ele>112</ele>
        <time>2017-01-22T08:13:30.162Z</time>
      </trkpt>
      <trkpt lat="47.79229" lon="1.98138">
        <ele>112</ele>
        <time>2017-01-22T08:13:31.141Z</time>
      </trkpt>
      <trkpt lat="47.79224" lon="1.98139">
        <ele>112</ele>
        <time>2017-01-22T08:13:32.119Z</time>
      </trkpt>
      <trkpt lat="47.79224" lon="1.98139">
        <ele>112</ele>
        <time>2017-01-22T08:13:33.151Z</time>
      </trkpt>
      <trkpt lat="47.79214" lon="1.98144">
        <ele>112</ele>
        <time>2017-01-22T08:13:34.119Z</time>
      </trkpt>
      <trkpt lat="47.79214" lon="1.98144">
        <ele>112</ele>
        <time>2017-01-22T08:13:35.144Z</time>
      </trkpt>
      <trkpt lat="47.79205" lon="1.9815">
        <ele>112</ele>
        <time>2017-01-22T08:13:36.152Z</time>
      </trkpt>
      <trkpt lat="47.79201" lon="1.98153">
        <ele>112</ele>
        <time>2017-01-22T08:13:37.126Z</time>
      </trkpt>
      <trkpt lat="47.79201" lon="1.98153">
        <ele>112</ele>
        <time>2017-01-22T08:13:38.146Z</time>
      </trkpt>
      <trkpt lat="47.79193" lon="1.98162">
        <ele>112</ele>
        <time>2017-01-22T08:13:39.120Z</time>
      </trkpt>
      <trkpt lat="47.79193" lon="1.98162">
        <ele>112</ele>
        <time>2017-01-22T08:13:40.144Z</time>
      </trkpt>
      <trkpt lat="47.79188" lon="1.98174">
        <ele>112</ele>
        <time>2017-01-22T08:13:41.126Z</time>
      </trkpt>
      <trkpt lat="47.79186" lon="1.98181">
        <ele>111</ele>
        <time>2017-01-22T08:13:42.126Z</time>
      </trkpt>
      <trkpt lat="47.79184" lon="1.98187">
        <ele>112</ele>
        <time>2017-01-22T08:13:43.128Z</time>
      </trkpt>
      <trkpt lat="47.79184" lon="1.98187">
        <ele>112</ele>
        <time>2017-01-22T08:13:44.144Z</time>
      </trkpt>
      <trkpt lat="47.7918" lon="1.98199">
        <ele>112</ele>
        <time>2017-01-22T08:13:45.160Z</time>
      </trkpt>
      <trkpt lat="47.7918" lon="1.98199">
        <ele>112</ele>
        <time>2017-01-22T08:13:46.142Z</time>
      </trkpt>
      <trkpt lat="47.79177" lon="1.98211">
        <ele>113</ele>
        <time>2017-01-22T08:13:47.120Z</time>
      </trkpt>
      <trkpt lat="47.79177" lon="1.98211">
        <ele>113</ele>
        <time>2017-01-22T08:13:48.145Z</time>
      </trkpt>
      <trkpt lat="47.79176" lon="1.98224">
        <ele>113</ele>
        <time>2017-01-22T08:13:49.151Z</time>
      </trkpt>
      <trkpt lat="47.79176" lon="1.98224">
        <ele>113</ele>
        <time>2017-01-22T08:13:50.142Z</time>
      </trkpt>
      <trkpt lat="47.79175" lon="1.98236">
        <ele>114</ele>
        <time>2017-01-22T08:13:51.154Z</time>
      </trkpt>
      <trkpt lat="47.79175" lon="1.98236">
        <ele>114</ele>
        <time>2017-01-22T08:13:52.144Z</time>
      </trkpt>
      <trkpt lat="47.79172" lon="1.98248">
        <ele>114</ele>
        <time>2017-01-22T08:13:53.120Z</time>
      </trkpt>
      <trkpt lat="47.79172" lon="1.98248">
        <ele>114</ele>
        <time>2017-01-22T08:13:54.145Z</time>
      </trkpt>
      <trkpt lat="47.79168" lon="1.9826">
        <ele>115</ele>
        <time>2017-01-22T08:13:55.157Z</time>
      </trkpt>
      <trkpt lat="47.79168" lon="1.9826">
        <ele>115</ele>
        <time>2017-01-22T08:13:56.122Z</time>
      </trkpt>
      <trkpt lat="47.79163" lon="1.9827">
        <ele>114</ele>
        <time>2017-01-22T08:13:57.126Z</time>
      </trkpt>
      <trkpt lat="47.79163" lon="1.9827">
        <ele>114</ele>
        <time>2017-01-22T08:13:58.144Z</time>
      </trkpt>
      <trkpt lat="47.79158" lon="1.98281">
        <ele>115</ele>
        <time>2017-01-22T08:13:59.162Z</time>
      </trkpt>
      <trkpt lat="47.79158" lon="1.98281">
        <ele>115</ele>
        <time>2017-01-22T08:14:00.143Z</time>
      </trkpt>
      <trkpt lat="47.79153" lon="1.98292">
        <ele>115</ele>
        <time>2017-01-22T08:14:01.141Z</time>
      </trkpt>
      <trkpt lat="47.79153" lon="1.98292">
        <ele>115</ele>
        <time>2017-01-22T08:14:02.148Z</time>
      </trkpt>
      <trkpt lat="47.79148" lon="1.98303">
        <ele>115</ele>
        <time>2017-01-22T08:14:03.160Z</time>
      </trkpt>
      <trkpt lat="47.79148" lon="1.98303">
        <ele>115</ele>
        <time>2017-01-22T08:14:04.144Z</time>
      </trkpt>
      <trkpt lat="47.79142" lon="1.98315">
        <ele>115</ele>
        <time>2017-01-22T08:14:05.151Z</time>
      </trkpt>
      <trkpt lat="47.79142" lon="1.98315">
        <ele>115</ele>
        <time>2017-01-22T08:14:06.126Z</time>
      </trkpt>
      <trkpt lat="47.79137" lon="1.98328">
        <ele>114</ele>
        <time>2017-01-22T08:14:07.140Z</time>
      </trkpt>
      <trkpt lat="47.79137" lon="1.98328">
        <ele>114</ele>
        <time>2017-01-22T08:14:08.123Z</time>
      </trkpt>
      <trkpt lat="47.79131" lon="1.9834">
        <ele>114</ele>
        <time>2017-01-22T08:14:09.126Z</time>
      </trkpt>
      <trkpt lat="47.79131" lon="1.9834">
        <ele>114</ele>
        <time>2017-01-22T08:14:10.151Z</time>
      </trkpt>
      <trkpt lat="47.79127" lon="1.98352">
        <ele>114</ele>
        <time>2017-01-22T08:14:11.124Z</time>
      </trkpt>
      <trkpt lat="47.79124" lon="1.98358">
        <ele>114</ele>
        <time>2017-01-22T08:14:12.135Z</time>
      </trkpt>
      <trkpt lat="47.79121" lon="1.98363">
        <ele>114</ele>
        <time>2017-01-22T08:14:13.118Z</time>
      </trkpt>
      <trkpt lat="47.79121" lon="1.98363">
        <ele>114</ele>
        <time>2017-01-22T08:14:14.142Z</time>
      </trkpt>
      <trkpt lat="47.79117" lon="1.98374">
        <ele>114</ele>
        <time>2017-01-22T08:14:15.162Z</time>
      </trkpt>
      <trkpt lat="47.79117" lon="1.98374">
        <ele>114</ele>
        <time>2017-01-22T08:14:16.145Z</time>
      </trkpt>
      <trkpt lat="47.79114" lon="1.98385">
        <ele>115</ele>
        <time>2017-01-22T08:14:17.125Z</time>
      </trkpt>
      <trkpt lat="47.79114" lon="1.98385">
        <ele>115</ele>
        <time>2017-01-22T08:14:18.142Z</time>
      </trkpt>
      <trkpt lat="47.79111" lon="1.98396">
        <ele>115</ele>
        <time>2017-01-22T08:14:19.156Z</time>
      </trkpt>
      <trkpt lat="47.79111" lon="1.98396">
        <ele>115</ele>
        <time>2017-01-22T08:14:20.144Z</time>
      </trkpt>
      <trkpt lat="47.79108" lon="1.98407">
        <ele>115</ele>
        <time>2017-01-22T08:14:21.124Z</time>
      </trkpt>
      <trkpt lat="47.79106" lon="1.98413">
        <ele>116</ele>
        <time>2017-01-22T08:14:22.162Z</time>
      </trkpt>
      <trkpt lat="47.79106" lon="1.98413">
        <ele>116</ele>
        <time>2017-01-22T08:14:23.141Z</time>
      </trkpt>
      <trkpt lat="47.79104" lon="1.98425">
        <ele>116</ele>
        <time>2017-01-22T08:14:24.120Z</time>
      </trkpt>
      <trkpt lat="47.79102" lon="1.98431">
        <ele>116</ele>
        <time>2017-01-22T08:14:25.126Z</time>
      </trkpt>
      <trkpt lat="47.79102" lon="1.98431">
        <ele>116</ele>
        <time>2017-01-22T08:14:26.127Z</time>
      </trkpt>
      <trkpt lat="47.791" lon="1.98445">
        <ele>116</ele>
        <time>2017-01-22T08:14:27.134Z</time>
      </trkpt>
      <trkpt lat="47.79099" lon="1.98451">
        <ele>116</ele>
        <time>2017-01-22T08:14:28.146Z</time>
      </trkpt>
      <trkpt lat="47.79099" lon="1.98451">
        <ele>116</ele>
        <time>2017-01-22T08:14:29.147Z</time>
      </trkpt>
      <trkpt lat="47.79097" lon="1.98465">
        <ele>116</ele>
        <time>2017-01-22T08:14:30.126Z</time>
      </trkpt>
      <trkpt lat="47.79097" lon="1.98465">
        <ele>116</ele>
        <time>2017-01-22T08:14:31.145Z</time>
      </trkpt>
      <trkpt lat="47.79094" lon="1.98478">
        <ele>117</ele>
        <time>2017-01-22T08:14:32.153Z</time>
      </trkpt>
      <trkpt lat="47.79094" lon="1.98478">
        <ele>117</ele>
        <time>2017-01-22T08:14:33.143Z</time>
      </trkpt>
      <trkpt lat="47.79091" lon="1.98491">
        <ele>117</ele>
        <time>2017-01-22T08:14:34.154Z</time>
      </trkpt>
      <trkpt lat="47.7909" lon="1.98497">
        <ele>117</ele>
        <time>2017-01-22T08:14:35.126Z</time>
      </trkpt>
      <trkpt lat="47.7909" lon="1.98497">
        <ele>117</ele>
        <time>2017-01-22T08:14:36.144Z</time>
      </trkpt>
      <trkpt lat="47.79088" lon="1.9851">
        <ele>118</ele>
        <time>2017-01-22T08:14:37.118Z</time>
      </trkpt>
      <trkpt lat="47.79088" lon="1.9851">
        <ele>118</ele>
        <time>2017-01-22T08:14:38.157Z</time>
      </trkpt>
      <trkpt lat="47.79086" lon="1.98523">
        <ele>118</ele>
        <time>2017-01-22T08:14:39.126Z</time>
      </trkpt>
      <trkpt lat="47.79086" lon="1.98523">
        <ele>118</ele>
        <time>2017-01-22T08:14:40.145Z</time>
      </trkpt>
      <trkpt lat="47.79084" lon="1.98535">
        <ele>119</ele>
        <time>2017-01-22T08:14:41.161Z</time>
      </trkpt>
      <trkpt lat="47.79083" lon="1.98541">
        <ele>119</ele>
        <time>2017-01-22T08:14:42.131Z</time>
      </trkpt>
      <trkpt lat="47.79081" lon="1.98547">
        <ele>118</ele>
        <time>2017-01-22T08:14:43.150Z</time>
      </trkpt>
      <trkpt lat="47.79081" lon="1.98547">
        <ele>118</ele>
        <time>2017-01-22T08:14:44.138Z</time>
      </trkpt>
      <trkpt lat="47.79075" lon="1.98557">
        <ele>117</ele>
        <time>2017-01-22T08:14:45.126Z</time>
      </trkpt>
      <trkpt lat="47.79075" lon="1.98557">
        <ele>117</ele>
        <time>2017-01-22T08:14:46.140Z</time>
      </trkpt>
      <trkpt lat="47.79069" lon="1.98567">
        <ele>118</ele>
        <time>2017-01-22T08:14:47.148Z</time>
      </trkpt>
      <trkpt lat="47.79069" lon="1.98567">
        <ele>118</ele>
        <time>2017-01-22T08:14:48.123Z</time>
      </trkpt>
      <trkpt lat="47.79063" lon="1.98576">
        <ele>118</ele>
        <time>2017-01-22T08:14:49.126Z</time>
      </trkpt>
      <trkpt lat="47.79063" lon="1.98576">
        <ele>118</ele>
        <time>2017-01-22T08:14:50.122Z</time>
      </trkpt>
      <trkpt lat="47.79056" lon="1.98587">
        <ele>117</ele>
        <time>2017-01-22T08:14:51.138Z</time>
      </trkpt>
      <trkpt lat="47.79056" lon="1.98587">
        <ele>117</ele>
        <time>2017-01-22T08:14:52.141Z</time>
      </trkpt>
      <trkpt lat="47.7905" lon="1.98598">
        <ele>118</ele>
        <time>2017-01-22T08:14:53.156Z</time>
      </trkpt>
      <trkpt lat="47.7905" lon="1.98598">
        <ele>118</ele>
        <time>2017-01-22T08:14:54.153Z</time>
      </trkpt>
      <trkpt lat="47.79043" lon="1.98608">
        <ele>118</ele>
        <time>2017-01-22T08:14:55.123Z</time>
      </trkpt>
      <trkpt lat="47.79043" lon="1.98608">
        <ele>118</ele>
        <time>2017-01-22T08:14:56.152Z</time>
      </trkpt>
      <trkpt lat="47.79036" lon="1.98618">
        <ele>118</ele>
        <time>2017-01-22T08:14:57.160Z</time>
      </trkpt>
      <trkpt lat="47.79036" lon="1.98618">
        <ele>118</ele>
        <time>2017-01-22T08:14:58.148Z</time>
      </trkpt>
      <trkpt lat="47.79029" lon="1.98629">
        <ele>119</ele>
        <time>2017-01-22T08:14:59.124Z</time>
      </trkpt>
      <trkpt lat="47.79026" lon="1.98634">
        <ele>119</ele>
        <time>2017-01-22T08:15:00.122Z</time>
      </trkpt>
      <trkpt lat="47.79022" lon="1.9864">
        <ele>119</ele>
        <time>2017-01-22T08:15:01.158Z</time>
      </trkpt>
      <trkpt lat="47.79022" lon="1.9864">
        <ele>119</ele>
        <time>2017-01-22T08:15:02.144Z</time>
      </trkpt>
      <trkpt lat="47.79015" lon="1.9865">
        <ele>119</ele>
        <time>2017-01-22T08:15:03.159Z</time>
      </trkpt>
      <trkpt lat="47.79015" lon="1.9865">
        <ele>119</ele>
        <time>2017-01-22T08:15:04.138Z</time>
      </trkpt>
      <trkpt lat="47.79008" lon="1.9866">
        <ele>120</ele>
        <time>2017-01-22T08:15:05.153Z</time>
      </trkpt>
      <trkpt lat="47.79008" lon="1.9866">
        <ele>120</ele>
        <time>2017-01-22T08:15:06.127Z</time>
      </trkpt>
      <trkpt lat="47.79001" lon="1.9867">
        <ele>120</ele>
        <time>2017-01-22T08:15:07.140Z</time>
      </trkpt>
      <trkpt lat="47.79001" lon="1.9867">
        <ele>120</ele>
        <time>2017-01-22T08:15:08.147Z</time>
      </trkpt>
      <trkpt lat="47.78995" lon="1.98679">
        <ele>121</ele>
        <time>2017-01-22T08:15:09.120Z</time>
      </trkpt>
      <trkpt lat="47.78995" lon="1.98679">
        <ele>121</ele>
        <time>2017-01-22T08:15:10.148Z</time>
      </trkpt>
      <trkpt lat="47.78988" lon="1.9869">
        <ele>121</ele>
        <time>2017-01-22T08:15:11.126Z</time>
      </trkpt>
      <trkpt lat="47.78985" lon="1.98694">
        <ele>121</ele>
        <time>2017-01-22T08:15:12.135Z</time>
      </trkpt>
      <trkpt lat="47.78982" lon="1.98699">
        <ele>121</ele>
        <time>2017-01-22T08:15:13.118Z</time>
      </trkpt>
      <trkpt lat="47.78982" lon="1.98699">
        <ele>121</ele>
        <time>2017-01-22T08:15:14.149Z</time>
      </trkpt>
      <trkpt lat="47.78976" lon="1.98709">
        <ele>121</ele>
        <time>2017-01-22T08:15:15.126Z</time>
      </trkpt>
      <trkpt lat="47.78976" lon="1.98709">
        <ele>121</ele>
        <time>2017-01-22T08:15:16.149Z</time>
      </trkpt>
      <trkpt lat="47.78969" lon="1.98721">
        <ele>122</ele>
        <time>2017-01-22T08:15:17.118Z</time>
      </trkpt>
      <trkpt lat="47.78969" lon="1.98721">
        <ele>122</ele>
        <time>2017-01-22T08:15:18.148Z</time>
      </trkpt>
      <trkpt lat="47.78963" lon="1.98732">
        <ele>123</ele>
        <time>2017-01-22T08:15:19.156Z</time>
      </trkpt>
      <trkpt lat="47.78963" lon="1.98732">
        <ele>123</ele>
        <time>2017-01-22T08:15:20.144Z</time>
      </trkpt>
      <trkpt lat="47.78956" lon="1.98742">
        <ele>123</ele>
        <time>2017-01-22T08:15:21.118Z</time>
      </trkpt>
      <trkpt lat="47.78956" lon="1.98742">
        <ele>123</ele>
        <time>2017-01-22T08:15:22.154Z</time>
      </trkpt>
      <trkpt lat="47.78949" lon="1.98752">
        <ele>124</ele>
        <time>2017-01-22T08:15:23.120Z</time>
      </trkpt>
      <trkpt lat="47.78949" lon="1.98752">
        <ele>124</ele>
        <time>2017-01-22T08:15:24.144Z</time>
      </trkpt>
      <trkpt lat="47.78941" lon="1.98762">
        <ele>125</ele>
        <time>2017-01-22T08:15:25.142Z</time>
      </trkpt>
      <trkpt lat="47.78941" lon="1.98762">
        <ele>125</ele>
        <time>2017-01-22T08:15:26.123Z</time>
      </trkpt>
      <trkpt lat="47.78935" lon="1.98772">
        <ele>125</ele>
        <time>2017-01-22T08:15:27.160Z</time>
      </trkpt>
      <trkpt lat="47.78932" lon="1.98777">
        <ele>124</ele>
        <time>2017-01-22T08:15:28.151Z</time>
      </trkpt>
      <trkpt lat="47.78932" lon="1.98777">
        <ele>124</ele>
        <time>2017-01-22T08:15:29.124Z</time>
      </trkpt>
      <trkpt lat="47.78926" lon="1.98787">
        <ele>124</ele>
        <time>2017-01-22T08:15:30.125Z</time>
      </trkpt>
      <trkpt lat="47.78923" lon="1.98791">
        <ele>124</ele>
        <time>2017-01-22T08:15:31.157Z</time>
      </trkpt>
      <trkpt lat="47.78923" lon="1.98791">
        <ele>124</ele>
        <time>2017-01-22T08:15:32.123Z</time>
      </trkpt>
      <trkpt lat="47.78917" lon="1.988">
        <ele>124</ele>
        <time>2017-01-22T08:15:33.132Z</time>
      </trkpt>
      <trkpt lat="47.78917" lon="1.988">
        <ele>124</ele>
        <time>2017-01-22T08:15:34.145Z</time>
      </trkpt>
      <trkpt lat="47.78912" lon="1.98808">
        <ele>125</ele>
        <time>2017-01-22T08:15:35.120Z</time>
      </trkpt>
      <trkpt lat="47.78912" lon="1.98808">
        <ele>125</ele>
        <time>2017-01-22T08:15:36.142Z</time>
      </trkpt>
      <trkpt lat="47.78905" lon="1.98817">
        <ele>125</ele>
        <time>2017-01-22T08:15:37.148Z</time>
      </trkpt>
      <trkpt lat="47.78905" lon="1.98817">
        <ele>125</ele>
        <time>2017-01-22T08:15:38.144Z</time>
      </trkpt>
      <trkpt lat="47.78899" lon="1.98827">
        <ele>126</ele>
        <time>2017-01-22T08:15:39.156Z</time>
      </trkpt>
      <trkpt lat="47.78897" lon="1.98831">
        <ele>127</ele>
        <time>2017-01-22T08:15:40.150Z</time>
      </trkpt>
      <trkpt lat="47.78897" lon="1.98831">
        <ele>127</ele>
        <time>2017-01-22T08:15:41.127Z</time>
      </trkpt>
      <trkpt lat="47.78891" lon="1.9884">
        <ele>126</ele>
        <time>2017-01-22T08:15:42.134Z</time>
      </trkpt>
      <trkpt lat="47.78888" lon="1.98845">
        <ele>126</ele>
        <time>2017-01-22T08:15:43.148Z</time>
      </trkpt>
      <trkpt lat="47.78888" lon="1.98845">
        <ele>126</ele>
        <time>2017-01-22T08:15:44.142Z</time>
      </trkpt>
      <trkpt lat="47.78882" lon="1.98855">
        <ele>126</ele>
        <time>2017-01-22T08:15:45.146Z</time>
      </trkpt>
      <trkpt lat="47.78882" lon="1.98855">
        <ele>126</ele>
        <time>2017-01-22T08:15:46.145Z</time>
      </trkpt>
      <trkpt lat="47.78875" lon="1.98865">
        <ele>125</ele>
        <time>2017-01-22T08:15:47.126Z</time>
      </trkpt>
      <trkpt lat="47.78875" lon="1.98865">
        <ele>125</ele>
        <time>2017-01-22T08:15:48.145Z</time>
      </trkpt>
      <trkpt lat="47.78869" lon="1.98875">
        <ele>124</ele>
        <time>2017-01-22T08:15:49.118Z</time>
      </trkpt>
      <trkpt lat="47.78869" lon="1.98875">
        <ele>124</ele>
        <time>2017-01-22T08:15:50.126Z</time>
      </trkpt>
      <trkpt lat="47.78862" lon="1.98885">
        <ele>124</ele>
        <time>2017-01-22T08:15:51.136Z</time>
      </trkpt>
      <trkpt lat="47.78862" lon="1.98885">
        <ele>124</ele>
        <time>2017-01-22T08:15:52.145Z</time>
      </trkpt>
      <trkpt lat="47.78856" lon="1.98896">
        <ele>124</ele>
        <time>2017-01-22T08:15:53.151Z</time>
      </trkpt>
      <trkpt lat="47.78856" lon="1.98896">
        <ele>124</ele>
        <time>2017-01-22T08:15:54.123Z</time>
      </trkpt>
      <trkpt lat="47.78849" lon="1.98907">
        <ele>124</ele>
        <time>2017-01-22T08:15:55.126Z</time>
      </trkpt>
      <trkpt lat="47.78846" lon="1.98911">
        <ele>124</ele>
        <time>2017-01-22T08:15:56.123Z</time>
      </trkpt>
      <trkpt lat="47.78846" lon="1.98911">
        <ele>124</ele>
        <time>2017-01-22T08:15:57.145Z</time>
      </trkpt>
      <trkpt lat="47.7884" lon="1.98919">
        <ele>124</ele>
        <time>2017-01-22T08:15:58.126Z</time>
      </trkpt>
      <trkpt lat="47.7884" lon="1.98919">
        <ele>124</ele>
        <time>2017-01-22T08:15:59.144Z</time>
      </trkpt>
      <trkpt lat="47.78833" lon="1.98927">
        <ele>124</ele>
        <time>2017-01-22T08:16:00.157Z</time>
      </trkpt>
      <trkpt lat="47.78833" lon="1.98927">
        <ele>124</ele>
        <time>2017-01-22T08:16:01.123Z</time>
      </trkpt>
      <trkpt lat="47.78827" lon="1.98936">
        <ele>124</ele>
        <time>2017-01-22T08:16:02.160Z</time>
      </trkpt>
      <trkpt lat="47.78823" lon="1.98941">
        <ele>123</ele>
        <time>2017-01-22T08:16:03.136Z</time>
      </trkpt>
      <trkpt lat="47.78823" lon="1.98941">
        <ele>123</ele>
        <time>2017-01-22T08:16:04.123Z</time>
      </trkpt>
      <trkpt lat="47.78817" lon="1.98949">
        <ele>123</ele>
        <time>2017-01-22T08:16:05.134Z</time>
      </trkpt>
      <trkpt lat="47.78817" lon="1.98949">
        <ele>123</ele>
        <time>2017-01-22T08:16:06.145Z</time>
      </trkpt>
      <trkpt lat="47.7881" lon="1.98957">
        <ele>122</ele>
        <time>2017-01-22T08:16:07.119Z</time>
      </trkpt>
      <trkpt lat="47.7881" lon="1.98957">
        <ele>122</ele>
        <time>2017-01-22T08:16:08.145Z</time>
      </trkpt>
      <trkpt lat="47.78804" lon="1.98967">
        <ele>122</ele>
        <time>2017-01-22T08:16:09.156Z</time>
      </trkpt>
      <trkpt lat="47.78804" lon="1.98967">
        <ele>122</ele>
        <time>2017-01-22T08:16:10.123Z</time>
      </trkpt>
      <trkpt lat="47.78797" lon="1.98976">
        <ele>122</ele>
        <time>2017-01-22T08:16:11.136Z</time>
      </trkpt>
      <trkpt lat="47.78797" lon="1.98976">
        <ele>122</ele>
        <time>2017-01-22T08:16:12.125Z</time>
      </trkpt>
      <trkpt lat="47.7879" lon="1.98985">
        <ele>122</ele>
        <time>2017-01-22T08:16:13.120Z</time>
      </trkpt>
      <trkpt lat="47.7879" lon="1.98985">
        <ele>122</ele>
        <time>2017-01-22T08:16:14.145Z</time>
      </trkpt>
      <trkpt lat="47.78784" lon="1.98994">
        <ele>121</ele>
        <time>2017-01-22T08:16:15.125Z</time>
      </trkpt>
      <trkpt lat="47.78781" lon="1.98998">
        <ele>121</ele>
        <time>2017-01-22T08:16:16.141Z</time>
      </trkpt>
      <trkpt lat="47.78781" lon="1.98998">
        <ele>121</ele>
        <time>2017-01-22T08:16:17.148Z</time>
      </trkpt>
      <trkpt lat="47.78773" lon="1.99008">
        <ele>121</ele>
        <time>2017-01-22T08:16:18.153Z</time>
      </trkpt>
      <trkpt lat="47.7877" lon="1.99012">
        <ele>120</ele>
        <time>2017-01-22T08:16:19.156Z</time>
      </trkpt>
      <trkpt lat="47.7877" lon="1.99012">
        <ele>120</ele>
        <time>2017-01-22T08:16:20.137Z</time>
      </trkpt>
      <trkpt lat="47.78763" lon="1.9902">
        <ele>120</ele>
        <time>2017-01-22T08:16:21.120Z</time>
      </trkpt>
      <trkpt lat="47.78763" lon="1.9902">
        <ele>120</ele>
        <time>2017-01-22T08:16:22.149Z</time>
      </trkpt>
      <trkpt lat="47.78757" lon="1.99028">
        <ele>121</ele>
        <time>2017-01-22T08:16:23.136Z</time>
      </trkpt>
      <trkpt lat="47.78757" lon="1.99028">
        <ele>121</ele>
        <time>2017-01-22T08:16:24.144Z</time>
      </trkpt>
      <trkpt lat="47.7875" lon="1.99036">
        <ele>121</ele>
        <time>2017-01-22T08:16:25.148Z</time>
      </trkpt>
      <trkpt lat="47.78747" lon="1.99041">
        <ele>121</ele>
        <time>2017-01-22T08:16:26.118Z</time>
      </trkpt>
      <trkpt lat="47.78744" lon="1.99045">
        <ele>122</ele>
        <time>2017-01-22T08:16:27.124Z</time>
      </trkpt>
      <trkpt lat="47.78744" lon="1.99045">
        <ele>122</ele>
        <time>2017-01-22T08:16:28.143Z</time>
      </trkpt>
      <trkpt lat="47.78738" lon="1.99053">
        <ele>121</ele>
        <time>2017-01-22T08:16:29.151Z</time>
      </trkpt>
      <trkpt lat="47.78738" lon="1.99053">
        <ele>121</ele>
        <time>2017-01-22T08:16:30.145Z</time>
      </trkpt>
      <trkpt lat="47.78732" lon="1.99062">
        <ele>121</ele>
        <time>2017-01-22T08:16:31.118Z</time>
      </trkpt>
      <trkpt lat="47.78728" lon="1.99066">
        <ele>121</ele>
        <time>2017-01-22T08:16:32.151Z</time>
      </trkpt>
      <trkpt lat="47.78725" lon="1.9907">
        <ele>121</ele>
        <time>2017-01-22T08:16:33.118Z</time>
      </trkpt>
      <trkpt lat="47.78725" lon="1.9907">
        <ele>121</ele>
        <time>2017-01-22T08:16:34.143Z</time>
      </trkpt>
      <trkpt lat="47.78718" lon="1.99079">
        <ele>121</ele>
        <time>2017-01-22T08:16:35.131Z</time>
      </trkpt>
      <trkpt lat="47.78718" lon="1.99079">
        <ele>121</ele>
        <time>2017-01-22T08:16:36.126Z</time>
      </trkpt>
      <trkpt lat="47.78712" lon="1.99088">
        <ele>121</ele>
        <time>2017-01-22T08:16:37.139Z</time>
      </trkpt>
      <trkpt lat="47.78712" lon="1.99088">
        <ele>121</ele>
        <time>2017-01-22T08:16:38.151Z</time>
      </trkpt>
      <trkpt lat="47.78705" lon="1.99097">
        <ele>121</ele>
        <time>2017-01-22T08:16:39.126Z</time>
      </trkpt>
      <trkpt lat="47.78705" lon="1.99097">
        <ele>121</ele>
        <time>2017-01-22T08:16:40.144Z</time>
      </trkpt>
      <trkpt lat="47.78699" lon="1.99106">
        <ele>121</ele>
        <time>2017-01-22T08:16:41.147Z</time>
      </trkpt>
      <trkpt lat="47.78699" lon="1.99106">
        <ele>121</ele>
        <time>2017-01-22T08:16:42.157Z</time>
      </trkpt>
      <trkpt lat="47.78692" lon="1.99115">
        <ele>121</ele>
        <time>2017-01-22T08:16:43.151Z</time>
      </trkpt>
      <trkpt lat="47.78692" lon="1.99115">
        <ele>121</ele>
        <time>2017-01-22T08:16:44.144Z</time>
      </trkpt>
      <trkpt lat="47.78685" lon="1.99124">
        <ele>121</ele>
        <time>2017-01-22T08:16:45.126Z</time>
      </trkpt>
      <trkpt lat="47.78685" lon="1.99124">
        <ele>121</ele>
        <time>2017-01-22T08:16:46.146Z</time>
      </trkpt>
      <trkpt lat="47.78678" lon="1.99134">
        <ele>122</ele>
        <time>2017-01-22T08:16:47.160Z</time>
      </trkpt>
      <trkpt lat="47.78674" lon="1.99138">
        <ele>122</ele>
        <time>2017-01-22T08:16:48.147Z</time>
      </trkpt>
      <trkpt lat="47.7867" lon="1.99143">
        <ele>122</ele>
        <time>2017-01-22T08:16:49.126Z</time>
      </trkpt>
      <trkpt lat="47.7867" lon="1.99143">
        <ele>122</ele>
        <time>2017-01-22T08:16:50.145Z</time>
      </trkpt>
      <trkpt lat="47.78663" lon="1.99153">
        <ele>122</ele>
        <time>2017-01-22T08:16:51.124Z</time>
      </trkpt>
      <trkpt lat="47.78659" lon="1.99158">
        <ele>122</ele>
        <time>2017-01-22T08:16:52.160Z</time>
      </trkpt>
      <trkpt lat="47.78656" lon="1.99162">
        <ele>122</ele>
        <time>2017-01-22T08:16:53.123Z</time>
      </trkpt>
      <trkpt lat="47.78656" lon="1.99162">
        <ele>122</ele>
        <time>2017-01-22T08:16:54.145Z</time>
      </trkpt>
      <trkpt lat="47.78649" lon="1.99171">
        <ele>122</ele>
        <time>2017-01-22T08:16:55.120Z</time>
      </trkpt>
      <trkpt lat="47.78649" lon="1.99171">
        <ele>122</ele>
        <time>2017-01-22T08:16:56.148Z</time>
      </trkpt>
      <trkpt lat="47.78641" lon="1.99181">
        <ele>122</ele>
        <time>2017-01-22T08:16:57.161Z</time>
      </trkpt>
      <trkpt lat="47.78641" lon="1.99181">
        <ele>122</ele>
        <time>2017-01-22T08:16:58.143Z</time>
      </trkpt>
      <trkpt lat="47.78634" lon="1.99191">
        <ele>122</ele>
        <time>2017-01-22T08:16:59.126Z</time>
      </trkpt>
      <trkpt lat="47.78631" lon="1.99196">
        <ele>122</ele>
        <time>2017-01-22T08:17:00.151Z</time>
      </trkpt>
      <trkpt lat="47.78631" lon="1.99196">
        <ele>122</ele>
        <time>2017-01-22T08:17:01.153Z</time>
      </trkpt>
      <trkpt lat="47.78624" lon="1.99206">
        <ele>122</ele>
        <time>2017-01-22T08:17:02.150Z</time>
      </trkpt>
      <trkpt lat="47.78621" lon="1.9921">
        <ele>122</ele>
        <time>2017-01-22T08:17:03.150Z</time>
      </trkpt>
      <trkpt lat="47.78621" lon="1.9921">
        <ele>122</ele>
        <time>2017-01-22T08:17:04.153Z</time>
      </trkpt>
      <trkpt lat="47.78614" lon="1.9922">
        <ele>122</ele>
        <time>2017-01-22T08:17:05.123Z</time>
      </trkpt>
      <trkpt lat="47.78614" lon="1.9922">
        <ele>122</ele>
        <time>2017-01-22T08:17:06.145Z</time>
      </trkpt>
      <trkpt lat="47.78608" lon="1.99231">
        <ele>123</ele>
        <time>2017-01-22T08:17:07.144Z</time>
      </trkpt>
      <trkpt lat="47.78608" lon="1.99231">
        <ele>123</ele>
        <time>2017-01-22T08:17:08.146Z</time>
      </trkpt>
      <trkpt lat="47.786" lon="1.9924">
        <ele>123</ele>
        <time>2017-01-22T08:17:09.120Z</time>
      </trkpt>
      <trkpt lat="47.78596" lon="1.99245">
        <ele>123</ele>
        <time>2017-01-22T08:17:10.160Z</time>
      </trkpt>
      <trkpt lat="47.78596" lon="1.99245">
        <ele>123</ele>
        <time>2017-01-22T08:17:11.152Z</time>
      </trkpt>
      <trkpt lat="47.78589" lon="1.99255">
        <ele>124</ele>
        <time>2017-01-22T08:17:12.118Z</time>
      </trkpt>
      <trkpt lat="47.78585" lon="1.9926">
        <ele>124</ele>
        <time>2017-01-22T08:17:13.138Z</time>
      </trkpt>
      <trkpt lat="47.78585" lon="1.9926">
        <ele>124</ele>
        <time>2017-01-22T08:17:14.118Z</time>
      </trkpt>
      <trkpt lat="47.78578" lon="1.99271">
        <ele>123</ele>
        <time>2017-01-22T08:17:15.120Z</time>
      </trkpt>
      <trkpt lat="47.78578" lon="1.99271">
        <ele>123</ele>
        <time>2017-01-22T08:17:16.145Z</time>
      </trkpt>
      <trkpt lat="47.78571" lon="1.99281">
        <ele>123</ele>
        <time>2017-01-22T08:17:17.136Z</time>
      </trkpt>
      <trkpt lat="47.78571" lon="1.99281">
        <ele>123</ele>
        <time>2017-01-22T08:17:18.146Z</time>
      </trkpt>
      <trkpt lat="47.78564" lon="1.99289">
        <ele>124</ele>
        <time>2017-01-22T08:17:19.118Z</time>
      </trkpt>
      <trkpt lat="47.78564" lon="1.99289">
        <ele>124</ele>
        <time>2017-01-22T08:17:20.119Z</time>
      </trkpt>
      <trkpt lat="47.78556" lon="1.99299">
        <ele>123</ele>
        <time>2017-01-22T08:17:21.135Z</time>
      </trkpt>
      <trkpt lat="47.78553" lon="1.99303">
        <ele>123</ele>
        <time>2017-01-22T08:17:22.124Z</time>
      </trkpt>
      <trkpt lat="47.78553" lon="1.99303">
        <ele>123</ele>
        <time>2017-01-22T08:17:23.145Z</time>
      </trkpt>
      <trkpt lat="47.78545" lon="1.99312">
        <ele>123</ele>
        <time>2017-01-22T08:17:24.118Z</time>
      </trkpt>
      <trkpt lat="47.78541" lon="1.99317">
        <ele>124</ele>
        <time>2017-01-22T08:17:25.138Z</time>
      </trkpt>
      <trkpt lat="47.78541" lon="1.99317">
        <ele>124</ele>
        <time>2017-01-22T08:17:26.145Z</time>
      </trkpt>
      <trkpt lat="47.78535" lon="1.99327">
        <ele>124</ele>
        <time>2017-01-22T08:17:27.125Z</time>
      </trkpt>
      <trkpt lat="47.78535" lon="1.99327">
        <ele>124</ele>
        <time>2017-01-22T08:17:28.122Z</time>
      </trkpt>
      <trkpt lat="47.78528" lon="1.99338">
        <ele>124</ele>
        <time>2017-01-22T08:17:29.136Z</time>
      </trkpt>
      <trkpt lat="47.78524" lon="1.99343">
        <ele>124</ele>
        <time>2017-01-22T08:17:30.126Z</time>
      </trkpt>
      <trkpt lat="47.78524" lon="1.99343">
        <ele>124</ele>
        <time>2017-01-22T08:17:31.152Z</time>
      </trkpt>
      <trkpt lat="47.78517" lon="1.99352">
        <ele>124</ele>
        <time>2017-01-22T08:17:32.151Z</time>
      </trkpt>
      <trkpt lat="47.78514" lon="1.99357">
        <ele>124</ele>
        <time>2017-01-22T08:17:33.126Z</time>
      </trkpt>
      <trkpt lat="47.78514" lon="1.99357">
        <ele>124</ele>
        <time>2017-01-22T08:17:34.143Z</time>
      </trkpt>
      <trkpt lat="47.78507" lon="1.99366">
        <ele>124</ele>
        <time>2017-01-22T08:17:35.120Z</time>
      </trkpt>
      <trkpt lat="47.78507" lon="1.99366">
        <ele>124</ele>
        <time>2017-01-22T08:17:36.145Z</time>
      </trkpt>
      <trkpt lat="47.785" lon="1.99377">
        <ele>124</ele>
        <time>2017-01-22T08:17:37.119Z</time>
      </trkpt>
      <trkpt lat="47.785" lon="1.99377">
        <ele>124</ele>
        <time>2017-01-22T08:17:38.143Z</time>
      </trkpt>
      <trkpt lat="47.78492" lon="1.99387">
        <ele>124</ele>
        <time>2017-01-22T08:17:39.126Z</time>
      </trkpt>
      <trkpt lat="47.78489" lon="1.99392">
        <ele>124</ele>
        <time>2017-01-22T08:17:40.157Z</time>
      </trkpt>
      <trkpt lat="47.78489" lon="1.99392">
        <ele>124</ele>
        <time>2017-01-22T08:17:41.146Z</time>
      </trkpt>
      <trkpt lat="47.78481" lon="1.99402">
        <ele>124</ele>
        <time>2017-01-22T08:17:42.160Z</time>
      </trkpt>
      <trkpt lat="47.78481" lon="1.99402">
        <ele>124</ele>
        <time>2017-01-22T08:17:43.148Z</time>
      </trkpt>
      <trkpt lat="47.78474" lon="1.99413">
        <ele>125</ele>
        <time>2017-01-22T08:17:44.151Z</time>
      </trkpt>
      <trkpt lat="47.78471" lon="1.99419">
        <ele>125</ele>
        <time>2017-01-22T08:17:45.132Z</time>
      </trkpt>
      <trkpt lat="47.78471" lon="1.99419">
        <ele>125</ele>
        <time>2017-01-22T08:17:46.149Z</time>
      </trkpt>
      <trkpt lat="47.78463" lon="1.99429">
        <ele>125</ele>
        <time>2017-01-22T08:17:47.160Z</time>
      </trkpt>
      <trkpt lat="47.78463" lon="1.99429">
        <ele>125</ele>
        <time>2017-01-22T08:17:48.143Z</time>
      </trkpt>
      <trkpt lat="47.78456" lon="1.99438">
        <ele>125</ele>
        <time>2017-01-22T08:17:49.120Z</time>
      </trkpt>
      <trkpt lat="47.78456" lon="1.99438">
        <ele>125</ele>
        <time>2017-01-22T08:17:50.143Z</time>
      </trkpt>
      <trkpt lat="47.78449" lon="1.99447">
        <ele>125</ele>
        <time>2017-01-22T08:17:51.125Z</time>
      </trkpt>
      <trkpt lat="47.78449" lon="1.99447">
        <ele>125</ele>
        <time>2017-01-22T08:17:52.124Z</time>
      </trkpt>
      <trkpt lat="47.78442" lon="1.99456">
        <ele>124</ele>
        <time>2017-01-22T08:17:53.126Z</time>
      </trkpt>
      <trkpt lat="47.78442" lon="1.99456">
        <ele>124</ele>
        <time>2017-01-22T08:17:54.143Z</time>
      </trkpt>
      <trkpt lat="47.78435" lon="1.99466">
        <ele>124</ele>
        <time>2017-01-22T08:17:55.119Z</time>
      </trkpt>
      <trkpt lat="47.78435" lon="1.99466">
        <ele>124</ele>
        <time>2017-01-22T08:17:56.150Z</time>
      </trkpt>
      <trkpt lat="47.78429" lon="1.99476">
        <ele>125</ele>
        <time>2017-01-22T08:17:57.160Z</time>
      </trkpt>
      <trkpt lat="47.78429" lon="1.99476">
        <ele>125</ele>
        <time>2017-01-22T08:17:58.132Z</time>
      </trkpt>
      <trkpt lat="47.78423" lon="1.99485">
        <ele>125</ele>
        <time>2017-01-22T08:17:59.137Z</time>
      </trkpt>
      <trkpt lat="47.78423" lon="1.99485">
        <ele>125</ele>
        <time>2017-01-22T08:18:00.146Z</time>
      </trkpt>
      <trkpt lat="47.78417" lon="1.99493">
        <ele>125</ele>
        <time>2017-01-22T08:18:01.137Z</time>
      </trkpt>
      <trkpt lat="47.78414" lon="1.99498">
        <ele>125</ele>
        <time>2017-01-22T08:18:02.156Z</time>
      </trkpt>
      <trkpt lat="47.78411" lon="1.99503">
        <ele>125</ele>
        <time>2017-01-22T08:18:03.118Z</time>
      </trkpt>
      <trkpt lat="47.78411" lon="1.99503">
        <ele>125</ele>
        <time>2017-01-22T08:18:04.127Z</time>
      </trkpt>
      <trkpt lat="47.78404" lon="1.99513">
        <ele>125</ele>
        <time>2017-01-22T08:18:05.138Z</time>
      </trkpt>
      <trkpt lat="47.78404" lon="1.99513">
        <ele>125</ele>
        <time>2017-01-22T08:18:06.148Z</time>
      </trkpt>
      <trkpt lat="47.78399" lon="1.99523">
        <ele>124</ele>
        <time>2017-01-22T08:18:07.120Z</time>
      </trkpt>
      <trkpt lat="47.78399" lon="1.99523">
        <ele>124</ele>
        <time>2017-01-22T08:18:08.145Z</time>
      </trkpt>
      <trkpt lat="47.78393" lon="1.99533">
        <ele>124</ele>
        <time>2017-01-22T08:18:09.121Z</time>
      </trkpt>
      <trkpt lat="47.78391" lon="1.99538">
        <ele>124</ele>
        <time>2017-01-22T08:18:10.152Z</time>
      </trkpt>
      <trkpt lat="47.78391" lon="1.99538">
        <ele>124</ele>
        <time>2017-01-22T08:18:11.144Z</time>
      </trkpt>
      <trkpt lat="47.78385" lon="1.99549">
        <ele>124</ele>
        <time>2017-01-22T08:18:12.148Z</time>
      </trkpt>
      <trkpt lat="47.78382" lon="1.99555">
        <ele>124</ele>
        <time>2017-01-22T08:18:13.120Z</time>
      </trkpt>
      <trkpt lat="47.78382" lon="1.99555">
        <ele>124</ele>
        <time>2017-01-22T08:18:14.144Z</time>
      </trkpt>
      <trkpt lat="47.78378" lon="1.99565">
        <ele>124</ele>
        <time>2017-01-22T08:18:15.149Z</time>
      </trkpt>
      <trkpt lat="47.78378" lon="1.99565">
        <ele>124</ele>
        <time>2017-01-22T08:18:16.143Z</time>
      </trkpt>
      <trkpt lat="47.78373" lon="1.99577">
        <ele>124</ele>
        <time>2017-01-22T08:18:17.149Z</time>
      </trkpt>
      <trkpt lat="47.78373" lon="1.99577">
        <ele>124</ele>
        <time>2017-01-22T08:18:18.143Z</time>
      </trkpt>
      <trkpt lat="47.78369" lon="1.9959">
        <ele>124</ele>
        <time>2017-01-22T08:18:19.119Z</time>
      </trkpt>
      <trkpt lat="47.78369" lon="1.9959">
        <ele>124</ele>
        <time>2017-01-22T08:18:20.143Z</time>
      </trkpt>
      <trkpt lat="47.78364" lon="1.99604">
        <ele>124</ele>
        <time>2017-01-22T08:18:21.121Z</time>
      </trkpt>
      <trkpt lat="47.78364" lon="1.99604">
        <ele>124</ele>
        <time>2017-01-22T08:18:22.143Z</time>
      </trkpt>
      <trkpt lat="47.7836" lon="1.99616">
        <ele>124</ele>
        <time>2017-01-22T08:18:23.119Z</time>
      </trkpt>
      <trkpt lat="47.7836" lon="1.99616">
        <ele>124</ele>
        <time>2017-01-22T08:18:24.144Z</time>
      </trkpt>
      <trkpt lat="47.78356" lon="1.99628">
        <ele>124</ele>
        <time>2017-01-22T08:18:25.120Z</time>
      </trkpt>
      <trkpt lat="47.78356" lon="1.99628">
        <ele>124</ele>
        <time>2017-01-22T08:18:26.146Z</time>
      </trkpt>
      <trkpt lat="47.78352" lon="1.99639">
        <ele>124</ele>
        <time>2017-01-22T08:18:27.119Z</time>
      </trkpt>
      <trkpt lat="47.78349" lon="1.99645">
        <ele>124</ele>
        <time>2017-01-22T08:18:28.150Z</time>
      </trkpt>
      <trkpt lat="47.78349" lon="1.99645">
        <ele>124</ele>
        <time>2017-01-22T08:18:29.119Z</time>
      </trkpt>
      <trkpt lat="47.78344" lon="1.99657">
        <ele>125</ele>
        <time>2017-01-22T08:18:30.132Z</time>
      </trkpt>
      <trkpt lat="47.78344" lon="1.99657">
        <ele>125</ele>
        <time>2017-01-22T08:18:31.152Z</time>
      </trkpt>
      <trkpt lat="47.78339" lon="1.99669">
        <ele>125</ele>
        <time>2017-01-22T08:18:32.118Z</time>
      </trkpt>
      <trkpt lat="47.78337" lon="1.99675">
        <ele>125</ele>
        <time>2017-01-22T08:18:33.140Z</time>
      </trkpt>
      <trkpt lat="47.78337" lon="1.99675">
        <ele>125</ele>
        <time>2017-01-22T08:18:34.149Z</time>
      </trkpt>
      <trkpt lat="47.78332" lon="1.99687">
        <ele>125</ele>
        <time>2017-01-22T08:18:35.126Z</time>
      </trkpt>
      <trkpt lat="47.78332" lon="1.99687">
        <ele>125</ele>
        <time>2017-01-22T08:18:36.143Z</time>
      </trkpt>
      <trkpt lat="47.78327" lon="1.99698">
        <ele>125</ele>
        <time>2017-01-22T08:18:37.119Z</time>
      </trkpt>
      <trkpt lat="47.78327" lon="1.99698">
        <ele>125</ele>
        <time>2017-01-22T08:18:38.148Z</time>
      </trkpt>
      <trkpt lat="47.78322" lon="1.9971">
        <ele>125</ele>
        <time>2017-01-22T08:18:39.160Z</time>
      </trkpt>
      <trkpt lat="47.78322" lon="1.9971">
        <ele>125</ele>
        <time>2017-01-22T08:18:40.144Z</time>
      </trkpt>
      <trkpt lat="47.78317" lon="1.99722">
        <ele>125</ele>
        <time>2017-01-22T08:18:41.151Z</time>
      </trkpt>
      <trkpt lat="47.78317" lon="1.99722">
        <ele>125</ele>
        <time>2017-01-22T08:18:42.119Z</time>
      </trkpt>
      <trkpt lat="47.78313" lon="1.99733">
        <ele>125</ele>
        <time>2017-01-22T08:18:43.119Z</time>
      </trkpt>
      <trkpt lat="47.78313" lon="1.99733">
        <ele>125</ele>
        <time>2017-01-22T08:18:44.145Z</time>
      </trkpt>
      <trkpt lat="47.78309" lon="1.99745">
        <ele>125</ele>
        <time>2017-01-22T08:18:45.121Z</time>
      </trkpt>
      <trkpt lat="47.78307" lon="1.99751">
        <ele>125</ele>
        <time>2017-01-22T08:18:46.152Z</time>
      </trkpt>
      <trkpt lat="47.78307" lon="1.99751">
        <ele>125</ele>
        <time>2017-01-22T08:18:47.129Z</time>
      </trkpt>
      <trkpt lat="47.78302" lon="1.99764">
        <ele>125</ele>
        <time>2017-01-22T08:18:48.139Z</time>
      </trkpt>
      <trkpt lat="47.78302" lon="1.99764">
        <ele>125</ele>
        <time>2017-01-22T08:18:49.147Z</time>
      </trkpt>
      <trkpt lat="47.78297" lon="1.99777">
        <ele>124</ele>
        <time>2017-01-22T08:18:50.120Z</time>
      </trkpt>
      <trkpt lat="47.78294" lon="1.99783">
        <ele>124</ele>
        <time>2017-01-22T08:18:51.135Z</time>
      </trkpt>
      <trkpt lat="47.78294" lon="1.99783">
        <ele>124</ele>
        <time>2017-01-22T08:18:52.148Z</time>
      </trkpt>
      <trkpt lat="47.78289" lon="1.99795">
        <ele>124</ele>
        <time>2017-01-22T08:18:53.156Z</time>
      </trkpt>
      <trkpt lat="47.78289" lon="1.99795">
        <ele>124</ele>
        <time>2017-01-22T08:18:54.144Z</time>
      </trkpt>
      <trkpt lat="47.78284" lon="1.99807">
        <ele>124</ele>
        <time>2017-01-22T08:18:55.121Z</time>
      </trkpt>
      <trkpt lat="47.78284" lon="1.99807">
        <ele>124</ele>
        <time>2017-01-22T08:18:56.143Z</time>
      </trkpt>
      <trkpt lat="47.78278" lon="1.99819">
        <ele>123</ele>
        <time>2017-01-22T08:18:57.118Z</time>
      </trkpt>
      <trkpt lat="47.78278" lon="1.99819">
        <ele>123</ele>
        <time>2017-01-22T08:18:58.144Z</time>
      </trkpt>
      <trkpt lat="47.78273" lon="1.99832">
        <ele>123</ele>
        <time>2017-01-22T08:18:59.120Z</time>
      </trkpt>
      <trkpt lat="47.78273" lon="1.99832">
        <ele>123</ele>
        <time>2017-01-22T08:19:00.156Z</time>
      </trkpt>
      <trkpt lat="47.78268" lon="1.99843">
        <ele>123</ele>
        <time>2017-01-22T08:19:01.121Z</time>
      </trkpt>
      <trkpt lat="47.78265" lon="1.99848">
        <ele>122</ele>
        <time>2017-01-22T08:19:02.162Z</time>
      </trkpt>
      <trkpt lat="47.78263" lon="1.99854">
        <ele>122</ele>
        <time>2017-01-22T08:19:03.161Z</time>
      </trkpt>
      <trkpt lat="47.78263" lon="1.99854">
        <ele>122</ele>
        <time>2017-01-22T08:19:04.148Z</time>
      </trkpt>
      <trkpt lat="47.78257" lon="1.99867">
        <ele>123</ele>
        <time>2017-01-22T08:19:05.126Z</time>
      </trkpt>
      <trkpt lat="47.78257" lon="1.99867">
        <ele>123</ele>
        <time>2017-01-22T08:19:06.144Z</time>
      </trkpt>
      <trkpt lat="47.78252" lon="1.9988">
        <ele>123</ele>
        <time>2017-01-22T08:19:07.162Z</time>
      </trkpt>
      <trkpt lat="47.7825" lon="1.99886">
        <ele>123</ele>
        <time>2017-01-22T08:19:08.118Z</time>
      </trkpt>
      <trkpt lat="47.78247" lon="1.99892">
        <ele>123</ele>
        <time>2017-01-22T08:19:09.161Z</time>
      </trkpt>
      <trkpt lat="47.78247" lon="1.99892">
        <ele>123</ele>
        <time>2017-01-22T08:19:10.146Z</time>
      </trkpt>
      <trkpt lat="47.78241" lon="1.99904">
        <ele>122</ele>
        <time>2017-01-22T08:19:11.125Z</time>
      </trkpt>
      <trkpt lat="47.78241" lon="1.99904">
        <ele>122</ele>
        <time>2017-01-22T08:19:12.148Z</time>
      </trkpt>
      <trkpt lat="47.78236" lon="1.99918">
        <ele>122</ele>
        <time>2017-01-22T08:19:13.119Z</time>
      </trkpt>
      <trkpt lat="47.78236" lon="1.99918">
        <ele>122</ele>
        <time>2017-01-22T08:19:14.144Z</time>
      </trkpt>
      <trkpt lat="47.7823" lon="1.9993">
        <ele>122</ele>
        <time>2017-01-22T08:19:15.121Z</time>
      </trkpt>
      <trkpt lat="47.78228" lon="1.99938">
        <ele>123</ele>
        <time>2017-01-22T08:19:16.118Z</time>
      </trkpt>
      <trkpt lat="47.78228" lon="1.99938">
        <ele>123</ele>
        <time>2017-01-22T08:19:17.119Z</time>
      </trkpt>
      <trkpt lat="47.78222" lon="1.99951">
        <ele>123</ele>
        <time>2017-01-22T08:19:18.162Z</time>
      </trkpt>
      <trkpt lat="47.78219" lon="1.99958">
        <ele>123</ele>
        <time>2017-01-22T08:19:19.118Z</time>
      </trkpt>
      <trkpt lat="47.78219" lon="1.99958">
        <ele>123</ele>
        <time>2017-01-22T08:19:20.144Z</time>
      </trkpt>
      <trkpt lat="47.78214" lon="1.9997">
        <ele>123</ele>
        <time>2017-01-22T08:19:21.131Z</time>
      </trkpt>
      <trkpt lat="47.78212" lon="1.99977">
        <ele>123</ele>
        <time>2017-01-22T08:19:22.119Z</time>
      </trkpt>
      <trkpt lat="47.78212" lon="1.99977">
        <ele>123</ele>
        <time>2017-01-22T08:19:23.144Z</time>
      </trkpt>
      <trkpt lat="47.78207" lon="1.99992">
        <ele>122</ele>
        <time>2017-01-22T08:19:24.161Z</time>
      </trkpt>
      <trkpt lat="47.78204" lon="2.00001">
        <ele>123</ele>
        <time>2017-01-22T08:19:25.121Z</time>
      </trkpt>
      <trkpt lat="47.78204" lon="2.00001">
        <ele>123</ele>
        <time>2017-01-22T08:19:26.149Z</time>
      </trkpt>
      <trkpt lat="47.78197" lon="2.00018">
        <ele>124</ele>
        <time>2017-01-22T08:19:27.120Z</time>
      </trkpt>
      <trkpt lat="47.78194" lon="2.00025">
        <ele>124</ele>
        <time>2017-01-22T08:19:28.163Z</time>
      </trkpt>
      <trkpt lat="47.78194" lon="2.00025">
        <ele>124</ele>
        <time>2017-01-22T08:19:29.144Z</time>
      </trkpt>
      <trkpt lat="47.78188" lon="2.0004">
        <ele>124</ele>
        <time>2017-01-22T08:19:30.148Z</time>
      </trkpt>
      <trkpt lat="47.78188" lon="2.0004">
        <ele>124</ele>
        <time>2017-01-22T08:19:31.138Z</time>
      </trkpt>
      <trkpt lat="47.78181" lon="2.00054">
        <ele>125</ele>
        <time>2017-01-22T08:19:32.145Z</time>
      </trkpt>
      <trkpt lat="47.78181" lon="2.00054">
        <ele>125</ele>
        <time>2017-01-22T08:19:33.126Z</time>
      </trkpt>
      <trkpt lat="47.78175" lon="2.00068">
        <ele>125</ele>
        <time>2017-01-22T08:19:34.120Z</time>
      </trkpt>
      <trkpt lat="47.78175" lon="2.00068">
        <ele>125</ele>
        <time>2017-01-22T08:19:35.144Z</time>
      </trkpt>
      <trkpt lat="47.78169" lon="2.00081">
        <ele>126</ele>
        <time>2017-01-22T08:19:36.119Z</time>
      </trkpt>
      <trkpt lat="47.78169" lon="2.00081">
        <ele>126</ele>
        <time>2017-01-22T08:19:37.149Z</time>
      </trkpt>
      <trkpt lat="47.78162" lon="2.00096">
        <ele>126</ele>
        <time>2017-01-22T08:19:38.161Z</time>
      </trkpt>
      <trkpt lat="47.78159" lon="2.00103">
        <ele>127</ele>
        <time>2017-01-22T08:19:39.126Z</time>
      </trkpt>
      <trkpt lat="47.78159" lon="2.00103">
        <ele>127</ele>
        <time>2017-01-22T08:19:40.145Z</time>
      </trkpt>
      <trkpt lat="47.78153" lon="2.00117">
        <ele>127</ele>
        <time>2017-01-22T08:19:41.119Z</time>
      </trkpt>
      <trkpt lat="47.7815" lon="2.00123">
        <ele>127</ele>
        <time>2017-01-22T08:19:42.160Z</time>
      </trkpt>
      <trkpt lat="47.78147" lon="2.0013">
        <ele>127</ele>
        <time>2017-01-22T08:19:43.139Z</time>
      </trkpt>
      <trkpt lat="47.78147" lon="2.0013">
        <ele>127</ele>
        <time>2017-01-22T08:19:44.144Z</time>
      </trkpt>
      <trkpt lat="47.78142" lon="2.00143">
        <ele>128</ele>
        <time>2017-01-22T08:19:45.118Z</time>
      </trkpt>
      <trkpt lat="47.78142" lon="2.00143">
        <ele>128</ele>
        <time>2017-01-22T08:19:46.151Z</time>
      </trkpt>
      <trkpt lat="47.78137" lon="2.00158">
        <ele>128</ele>
        <time>2017-01-22T08:19:47.126Z</time>
      </trkpt>
      <trkpt lat="47.78134" lon="2.00165">
        <ele>129</ele>
        <time>2017-01-22T08:19:48.156Z</time>
      </trkpt>
      <trkpt lat="47.78131" lon="2.00172">
        <ele>129</ele>
        <time>2017-01-22T08:19:49.120Z</time>
      </trkpt>
      <trkpt lat="47.78131" lon="2.00172">
        <ele>129</ele>
        <time>2017-01-22T08:19:50.152Z</time>
      </trkpt>
      <trkpt lat="47.78126" lon="2.00185">
        <ele>129</ele>
        <time>2017-01-22T08:19:51.121Z</time>
      </trkpt>
      <trkpt lat="47.78123" lon="2.00192">
        <ele>129</ele>
        <time>2017-01-22T08:19:52.138Z</time>
      </trkpt>
      <trkpt lat="47.78123" lon="2.00192">
        <ele>129</ele>
        <time>2017-01-22T08:19:53.147Z</time>
      </trkpt>
      <trkpt lat="47.78119" lon="2.00207">
        <ele>129</ele>
        <time>2017-01-22T08:19:54.151Z</time>
      </trkpt>
      <trkpt lat="47.78116" lon="2.00214">
        <ele>129</ele>
        <time>2017-01-22T08:19:55.142Z</time>
      </trkpt>
      <trkpt lat="47.78116" lon="2.00214">
        <ele>129</ele>
        <time>2017-01-22T08:19:56.148Z</time>
      </trkpt>
      <trkpt lat="47.78111" lon="2.00228">
        <ele>129</ele>
        <time>2017-01-22T08:19:57.126Z</time>
      </trkpt>
      <trkpt lat="47.78111" lon="2.00228">
        <ele>129</ele>
        <time>2017-01-22T08:19:58.119Z</time>
      </trkpt>
      <trkpt lat="47.78107" lon="2.00242">
        <ele>130</ele>
        <time>2017-01-22T08:19:59.126Z</time>
      </trkpt>
      <trkpt lat="47.78107" lon="2.00242">
        <ele>130</ele>
        <time>2017-01-22T08:20:00.147Z</time>
      </trkpt>
      <trkpt lat="47.78103" lon="2.00257">
        <ele>130</ele>
        <time>2017-01-22T08:20:01.120Z</time>
      </trkpt>
      <trkpt lat="47.78103" lon="2.00257">
        <ele>130</ele>
        <time>2017-01-22T08:20:02.144Z</time>
      </trkpt>
      <trkpt lat="47.781" lon="2.00271">
        <ele>129</ele>
        <time>2017-01-22T08:20:03.163Z</time>
      </trkpt>
      <trkpt lat="47.78098" lon="2.00279">
        <ele>129</ele>
        <time>2017-01-22T08:20:04.161Z</time>
      </trkpt>
      <trkpt lat="47.78098" lon="2.00279">
        <ele>129</ele>
        <time>2017-01-22T08:20:05.156Z</time>
      </trkpt>
      <trkpt lat="47.78094" lon="2.00293">
        <ele>128</ele>
        <time>2017-01-22T08:20:06.120Z</time>
      </trkpt>
      <trkpt lat="47.78093" lon="2.00301">
        <ele>128</ele>
        <time>2017-01-22T08:20:07.120Z</time>
      </trkpt>
      <trkpt lat="47.78093" lon="2.00301">
        <ele>128</ele>
        <time>2017-01-22T08:20:08.126Z</time>
      </trkpt>
      <trkpt lat="47.78089" lon="2.00316">
        <ele>128</ele>
        <time>2017-01-22T08:20:09.158Z</time>
      </trkpt>
      <trkpt lat="47.78087" lon="2.00323">
        <ele>128</ele>
        <time>2017-01-22T08:20:10.158Z</time>
      </trkpt>
      <trkpt lat="47.78087" lon="2.00323">
        <ele>128</ele>
        <time>2017-01-22T08:20:11.152Z</time>
      </trkpt>
      <trkpt lat="47.78083" lon="2.00338">
        <ele>127</ele>
        <time>2017-01-22T08:20:12.120Z</time>
      </trkpt>
      <trkpt lat="47.78081" lon="2.00346">
        <ele>127</ele>
        <time>2017-01-22T08:20:13.138Z</time>
      </trkpt>
      <trkpt lat="47.78081" lon="2.00346">
        <ele>127</ele>
        <time>2017-01-22T08:20:14.145Z</time>
      </trkpt>
      <trkpt lat="47.78078" lon="2.0036">
        <ele>127</ele>
        <time>2017-01-22T08:20:15.151Z</time>
      </trkpt>
      <trkpt lat="47.78078" lon="2.0036">
        <ele>127</ele>
        <time>2017-01-22T08:20:16.145Z</time>
      </trkpt>
      <trkpt lat="47.78075" lon="2.00374">
        <ele>127</ele>
        <time>2017-01-22T08:20:17.151Z</time>
      </trkpt>
      <trkpt lat="47.78075" lon="2.00374">
        <ele>127</ele>
        <time>2017-01-22T08:20:18.144Z</time>
      </trkpt>
      <trkpt lat="47.78072" lon="2.00387">
        <ele>127</ele>
        <time>2017-01-22T08:20:19.118Z</time>
      </trkpt>
      <trkpt lat="47.78072" lon="2.00387">
        <ele>127</ele>
        <time>2017-01-22T08:20:20.145Z</time>
      </trkpt>
      <trkpt lat="47.78069" lon="2.00401">
        <ele>127</ele>
        <time>2017-01-22T08:20:21.119Z</time>
      </trkpt>
      <trkpt lat="47.78069" lon="2.00401">
        <ele>127</ele>
        <time>2017-01-22T08:20:22.145Z</time>
      </trkpt>
      <trkpt lat="47.78066" lon="2.00414">
        <ele>127</ele>
        <time>2017-01-22T08:20:23.160Z</time>
      </trkpt>
      <trkpt lat="47.78066" lon="2.00414">
        <ele>127</ele>
        <time>2017-01-22T08:20:24.148Z</time>
      </trkpt>
      <trkpt lat="47.78062" lon="2.00425">
        <ele>127</ele>
        <time>2017-01-22T08:20:25.120Z</time>
      </trkpt>
      <trkpt lat="47.78062" lon="2.00425">
        <ele>127</ele>
        <time>2017-01-22T08:20:26.144Z</time>
      </trkpt>
      <trkpt lat="47.78055" lon="2.0043">
        <ele>126</ele>
        <time>2017-01-22T08:20:27.120Z</time>
      </trkpt>
      <trkpt lat="47.78055" lon="2.0043">
        <ele>126</ele>
        <time>2017-01-22T08:20:28.148Z</time>
      </trkpt>
      <trkpt lat="47.78047" lon="2.00429">
        <ele>126</ele>
        <time>2017-01-22T08:20:29.123Z</time>
      </trkpt>
      <trkpt lat="47.78047" lon="2.00429">
        <ele>126</ele>
        <time>2017-01-22T08:20:30.144Z</time>
      </trkpt>
      <trkpt lat="47.78039" lon="2.00425">
        <ele>126</ele>
        <time>2017-01-22T08:20:31.120Z</time>
      </trkpt>
      <trkpt lat="47.78039" lon="2.00425">
        <ele>126</ele>
        <time>2017-01-22T08:20:32.136Z</time>
      </trkpt>
      <trkpt lat="47.7803" lon="2.00421">
        <ele>126</ele>
        <time>2017-01-22T08:20:33.138Z</time>
      </trkpt>
      <trkpt lat="47.7803" lon="2.00421">
        <ele>126</ele>
        <time>2017-01-22T08:20:34.148Z</time>
      </trkpt>
      <trkpt lat="47.78019" lon="2.00417">
        <ele>126</ele>
        <time>2017-01-22T08:20:35.120Z</time>
      </trkpt>
      <trkpt lat="47.78019" lon="2.00417">
        <ele>126</ele>
        <time>2017-01-22T08:20:36.148Z</time>
      </trkpt>
      <trkpt lat="47.78009" lon="2.00413">
        <ele>126</ele>
        <time>2017-01-22T08:20:37.126Z</time>
      </trkpt>
      <trkpt lat="47.78009" lon="2.00413">
        <ele>126</ele>
        <time>2017-01-22T08:20:38.145Z</time>
      </trkpt>
      <trkpt lat="47.77998" lon="2.00409">
        <ele>126</ele>
        <time>2017-01-22T08:20:39.126Z</time>
      </trkpt>
      <trkpt lat="47.77998" lon="2.00409">
        <ele>126</ele>
        <time>2017-01-22T08:20:40.146Z</time>
      </trkpt>
      <trkpt lat="47.77988" lon="2.00405">
        <ele>126</ele>
        <time>2017-01-22T08:20:41.120Z</time>
      </trkpt>
      <trkpt lat="47.77983" lon="2.00403">
        <ele>126</ele>
        <time>2017-01-22T08:20:42.120Z</time>
      </trkpt>
      <trkpt lat="47.77977" lon="2.00401">
        <ele>126</ele>
        <time>2017-01-22T08:20:43.119Z</time>
      </trkpt>
      <trkpt lat="47.77977" lon="2.00401">
        <ele>126</ele>
        <time>2017-01-22T08:20:44.144Z</time>
      </trkpt>
      <trkpt lat="47.77967" lon="2.00397">
        <ele>126</ele>
        <time>2017-01-22T08:20:45.152Z</time>
      </trkpt>
      <trkpt lat="47.77967" lon="2.00397">
        <ele>126</ele>
        <time>2017-01-22T08:20:46.145Z</time>
      </trkpt>
      <trkpt lat="47.77955" lon="2.00392">
        <ele>125</ele>
        <time>2017-01-22T08:20:47.118Z</time>
      </trkpt>
      <trkpt lat="47.77955" lon="2.00392">
        <ele>125</ele>
        <time>2017-01-22T08:20:48.148Z</time>
      </trkpt>
      <trkpt lat="47.77943" lon="2.00387">
        <ele>125</ele>
        <time>2017-01-22T08:20:49.119Z</time>
      </trkpt>
      <trkpt lat="47.77943" lon="2.00387">
        <ele>125</ele>
        <time>2017-01-22T08:20:50.144Z</time>
      </trkpt>
      <trkpt lat="47.77931" lon="2.00382">
        <ele>125</ele>
        <time>2017-01-22T08:20:51.119Z</time>
      </trkpt>
      <trkpt lat="47.77931" lon="2.00382">
        <ele>125</ele>
        <time>2017-01-22T08:20:52.145Z</time>
      </trkpt>
      <trkpt lat="47.7792" lon="2.00378">
        <ele>125</ele>
        <time>2017-01-22T08:20:53.161Z</time>
      </trkpt>
      <trkpt lat="47.7792" lon="2.00378">
        <ele>125</ele>
        <time>2017-01-22T08:20:54.176Z</time>
      </trkpt>
      <trkpt lat="47.77909" lon="2.00374">
        <ele>125</ele>
        <time>2017-01-22T08:20:55.120Z</time>
      </trkpt>
      <trkpt lat="47.77909" lon="2.00374">
        <ele>125</ele>
        <time>2017-01-22T08:20:56.150Z</time>
      </trkpt>
      <trkpt lat="47.77899" lon="2.0037">
        <ele>125</ele>
        <time>2017-01-22T08:20:57.120Z</time>
      </trkpt>
      <trkpt lat="47.77899" lon="2.0037">
        <ele>125</ele>
        <time>2017-01-22T08:20:58.148Z</time>
      </trkpt>
      <trkpt lat="47.77889" lon="2.00367">
        <ele>125</ele>
        <time>2017-01-22T08:20:59.118Z</time>
      </trkpt>
      <trkpt lat="47.77889" lon="2.00367">
        <ele>125</ele>
        <time>2017-01-22T08:21:00.149Z</time>
      </trkpt>
      <trkpt lat="47.7788" lon="2.0037">
        <ele>125</ele>
        <time>2017-01-22T08:21:01.120Z</time>
      </trkpt>
      <trkpt lat="47.7788" lon="2.0037">
        <ele>125</ele>
        <time>2017-01-22T08:21:02.143Z</time>
      </trkpt>
      <trkpt lat="47.77872" lon="2.00379">
        <ele>125</ele>
        <time>2017-01-22T08:21:03.120Z</time>
      </trkpt>
      <trkpt lat="47.77867" lon="2.00383">
        <ele>125</ele>
        <time>2017-01-22T08:21:04.119Z</time>
      </trkpt>
      <trkpt lat="47.77867" lon="2.00383">
        <ele>125</ele>
        <time>2017-01-22T08:21:05.145Z</time>
      </trkpt>
      <trkpt lat="47.77859" lon="2.00392">
        <ele>125</ele>
        <time>2017-01-22T08:21:06.159Z</time>
      </trkpt>
      <trkpt lat="47.77854" lon="2.00396">
        <ele>125</ele>
        <time>2017-01-22T08:21:07.139Z</time>
      </trkpt>
      <trkpt lat="47.77854" lon="2.00396">
        <ele>125</ele>
        <time>2017-01-22T08:21:08.152Z</time>
      </trkpt>
      <trkpt lat="47.77846" lon="2.00405">
        <ele>124</ele>
        <time>2017-01-22T08:21:09.118Z</time>
      </trkpt>
      <trkpt lat="47.77846" lon="2.00405">
        <ele>124</ele>
        <time>2017-01-22T08:21:10.144Z</time>
      </trkpt>
      <trkpt lat="47.77837" lon="2.00414">
        <ele>124</ele>
        <time>2017-01-22T08:21:11.160Z</time>
      </trkpt>
      <trkpt lat="47.77837" lon="2.00414">
        <ele>124</ele>
        <time>2017-01-22T08:21:12.149Z</time>
      </trkpt>
      <trkpt lat="47.77828" lon="2.00424">
        <ele>124</ele>
        <time>2017-01-22T08:21:13.138Z</time>
      </trkpt>
      <trkpt lat="47.77828" lon="2.00424">
        <ele>124</ele>
        <time>2017-01-22T08:21:14.126Z</time>
      </trkpt>
      <trkpt lat="47.77819" lon="2.00433">
        <ele>124</ele>
        <time>2017-01-22T08:21:15.120Z</time>
      </trkpt>
      <trkpt lat="47.77819" lon="2.00433">
        <ele>124</ele>
        <time>2017-01-22T08:21:16.144Z</time>
      </trkpt>
      <trkpt lat="47.7781" lon="2.00442">
        <ele>124</ele>
        <time>2017-01-22T08:21:17.120Z</time>
      </trkpt>
      <trkpt lat="47.77806" lon="2.00447">
        <ele>124</ele>
        <time>2017-01-22T08:21:18.144Z</time>
      </trkpt>
      <trkpt lat="47.77801" lon="2.00452">
        <ele>124</ele>
        <time>2017-01-22T08:21:19.119Z</time>
      </trkpt>
      <trkpt lat="47.77801" lon="2.00452">
        <ele>124</ele>
        <time>2017-01-22T08:21:20.149Z</time>
      </trkpt>
      <trkpt lat="47.77792" lon="2.00462">
        <ele>123</ele>
        <time>2017-01-22T08:21:21.136Z</time>
      </trkpt>
      <trkpt lat="47.77792" lon="2.00462">
        <ele>123</ele>
        <time>2017-01-22T08:21:22.118Z</time>
      </trkpt>
      <trkpt lat="47.77783" lon="2.00471">
        <ele>123</ele>
        <time>2017-01-22T08:21:23.120Z</time>
      </trkpt>
      <trkpt lat="47.77783" lon="2.00471">
        <ele>123</ele>
        <time>2017-01-22T08:21:24.145Z</time>
      </trkpt>
      <trkpt lat="47.77774" lon="2.00481">
        <ele>123</ele>
        <time>2017-01-22T08:21:25.120Z</time>
      </trkpt>
      <trkpt lat="47.77774" lon="2.00481">
        <ele>123</ele>
        <time>2017-01-22T08:21:26.144Z</time>
      </trkpt>
      <trkpt lat="47.77765" lon="2.0049">
        <ele>123</ele>
        <time>2017-01-22T08:21:27.120Z</time>
      </trkpt>
      <trkpt lat="47.77765" lon="2.0049">
        <ele>123</ele>
        <time>2017-01-22T08:21:28.145Z</time>
      </trkpt>
      <trkpt lat="47.77756" lon="2.005">
        <ele>123</ele>
        <time>2017-01-22T08:21:29.141Z</time>
      </trkpt>
      <trkpt lat="47.77756" lon="2.005">
        <ele>123</ele>
        <time>2017-01-22T08:21:30.148Z</time>
      </trkpt>
      <trkpt lat="47.77747" lon="2.0051">
        <ele>123</ele>
        <time>2017-01-22T08:21:31.120Z</time>
      </trkpt>
      <trkpt lat="47.77742" lon="2.00515">
        <ele>123</ele>
        <time>2017-01-22T08:21:32.121Z</time>
      </trkpt>
      <trkpt lat="47.77742" lon="2.00515">
        <ele>123</ele>
        <time>2017-01-22T08:21:33.145Z</time>
      </trkpt>
      <trkpt lat="47.77733" lon="2.00525">
        <ele>123</ele>
        <time>2017-01-22T08:21:34.119Z</time>
      </trkpt>
      <trkpt lat="47.77733" lon="2.00525">
        <ele>123</ele>
        <time>2017-01-22T08:21:35.148Z</time>
      </trkpt>
      <trkpt lat="47.77724" lon="2.00535">
        <ele>123</ele>
        <time>2017-01-22T08:21:36.124Z</time>
      </trkpt>
      <trkpt lat="47.7772" lon="2.0054">
        <ele>123</ele>
        <time>2017-01-22T08:21:37.121Z</time>
      </trkpt>
      <trkpt lat="47.7772" lon="2.0054">
        <ele>123</ele>
        <time>2017-01-22T08:21:38.148Z</time>
      </trkpt>
      <trkpt lat="47.77711" lon="2.00549">
        <ele>123</ele>
        <time>2017-01-22T08:21:39.138Z</time>
      </trkpt>
      <trkpt lat="47.77706" lon="2.00554">
        <ele>123</ele>
        <time>2017-01-22T08:21:40.137Z</time>
      </trkpt>
      <trkpt lat="47.77706" lon="2.00554">
        <ele>123</ele>
        <time>2017-01-22T08:21:41.149Z</time>
      </trkpt>
      <trkpt lat="47.77697" lon="2.00564">
        <ele>123</ele>
        <time>2017-01-22T08:21:42.127Z</time>
      </trkpt>
      <trkpt lat="47.77693" lon="2.00569">
        <ele>123</ele>
        <time>2017-01-22T08:21:43.120Z</time>
      </trkpt>
      <trkpt lat="47.77693" lon="2.00569">
        <ele>123</ele>
        <time>2017-01-22T08:21:44.144Z</time>
      </trkpt>
      <trkpt lat="47.77684" lon="2.00578">
        <ele>123</ele>
        <time>2017-01-22T08:21:45.162Z</time>
      </trkpt>
      <trkpt lat="47.77684" lon="2.00578">
        <ele>123</ele>
        <time>2017-01-22T08:21:46.149Z</time>
      </trkpt>
      <trkpt lat="47.77676" lon="2.00587">
        <ele>123</ele>
        <time>2017-01-22T08:21:47.120Z</time>
      </trkpt>
      <trkpt lat="47.77676" lon="2.00587">
        <ele>123</ele>
        <time>2017-01-22T08:21:48.146Z</time>
      </trkpt>
      <trkpt lat="47.77667" lon="2.00596">
        <ele>123</ele>
        <time>2017-01-22T08:21:49.166Z</time>
      </trkpt>
      <trkpt lat="47.77663" lon="2.00601">
        <ele>123</ele>
        <time>2017-01-22T08:21:50.119Z</time>
      </trkpt>
      <trkpt lat="47.77663" lon="2.00601">
        <ele>123</ele>
        <time>2017-01-22T08:21:51.152Z</time>
      </trkpt>
      <trkpt lat="47.77654" lon="2.0061">
        <ele>123</ele>
        <time>2017-01-22T08:21:52.120Z</time>
      </trkpt>
      <trkpt lat="47.7765" lon="2.00615">
        <ele>123</ele>
        <time>2017-01-22T08:21:53.118Z</time>
      </trkpt>
      <trkpt lat="47.7765" lon="2.00615">
        <ele>123</ele>
        <time>2017-01-22T08:21:54.145Z</time>
      </trkpt>
      <trkpt lat="47.77642" lon="2.00625">
        <ele>123</ele>
        <time>2017-01-22T08:21:55.120Z</time>
      </trkpt>
      <trkpt lat="47.77642" lon="2.00625">
        <ele>123</ele>
        <time>2017-01-22T08:21:56.143Z</time>
      </trkpt>
      <trkpt lat="47.77634" lon="2.00635">
        <ele>123</ele>
        <time>2017-01-22T08:21:57.150Z</time>
      </trkpt>
      <trkpt lat="47.77634" lon="2.00635">
        <ele>123</ele>
        <time>2017-01-22T08:21:58.125Z</time>
      </trkpt>
      <trkpt lat="47.77627" lon="2.00645">
        <ele>123</ele>
        <time>2017-01-22T08:21:59.139Z</time>
      </trkpt>
      <trkpt lat="47.77627" lon="2.00645">
        <ele>123</ele>
        <time>2017-01-22T08:22:00.134Z</time>
      </trkpt>
      <trkpt lat="47.77619" lon="2.00655">
        <ele>123</ele>
        <time>2017-01-22T08:22:01.139Z</time>
      </trkpt>
      <trkpt lat="47.77619" lon="2.00655">
        <ele>123</ele>
        <time>2017-01-22T08:22:02.148Z</time>
      </trkpt>
      <trkpt lat="47.77612" lon="2.00665">
        <ele>123</ele>
        <time>2017-01-22T08:22:03.120Z</time>
      </trkpt>
      <trkpt lat="47.77612" lon="2.00665">
        <ele>123</ele>
        <time>2017-01-22T08:22:04.145Z</time>
      </trkpt>
      <trkpt lat="47.77605" lon="2.00676">
        <ele>123</ele>
        <time>2017-01-22T08:22:05.120Z</time>
      </trkpt>
      <trkpt lat="47.77605" lon="2.00676">
        <ele>123</ele>
        <time>2017-01-22T08:22:06.145Z</time>
      </trkpt>
      <trkpt lat="47.77598" lon="2.00686">
        <ele>123</ele>
        <time>2017-01-22T08:22:07.120Z</time>
      </trkpt>
      <trkpt lat="47.77598" lon="2.00686">
        <ele>123</ele>
        <time>2017-01-22T08:22:08.145Z</time>
      </trkpt>
      <trkpt lat="47.77591" lon="2.00696">
        <ele>123</ele>
        <time>2017-01-22T08:22:09.119Z</time>
      </trkpt>
      <trkpt lat="47.77588" lon="2.00701">
        <ele>123</ele>
        <time>2017-01-22T08:22:10.143Z</time>
      </trkpt>
      <trkpt lat="47.77586" lon="2.00705">
        <ele>123</ele>
        <time>2017-01-22T08:22:11.118Z</time>
      </trkpt>
      <trkpt lat="47.77586" lon="2.00705">
        <ele>123</ele>
        <time>2017-01-22T08:22:12.145Z</time>
      </trkpt>
      <trkpt lat="47.77581" lon="2.00709">
        <ele>123</ele>
        <time>2017-01-22T08:22:13.120Z</time>
      </trkpt>
      <trkpt lat="47.77581" lon="2.00709">
        <ele>123</ele>
        <time>2017-01-22T08:22:14.173Z</time>
      </trkpt>
      <trkpt lat="47.77577" lon="2.00706">
        <ele>123</ele>
        <time>2017-01-22T08:22:15.120Z</time>
      </trkpt>
      <trkpt lat="47.77576" lon="2.00703">
        <ele>122</ele>
        <time>2017-01-22T08:22:16.121Z</time>
      </trkpt>
      <trkpt lat="47.77576" lon="2.00703">
        <ele>122</ele>
        <time>2017-01-22T08:22:17.148Z</time>
      </trkpt>
      <trkpt lat="47.77573" lon="2.00695">
        <ele>122</ele>
        <time>2017-01-22T08:22:18.121Z</time>
      </trkpt>
      <trkpt lat="47.77571" lon="2.0069">
        <ele>122</ele>
        <time>2017-01-22T08:22:19.120Z</time>
      </trkpt>
      <trkpt lat="47.77571" lon="2.0069">
        <ele>122</ele>
        <time>2017-01-22T08:22:20.147Z</time>
      </trkpt>
      <trkpt lat="47.77567" lon="2.00679">
        <ele>123</ele>
        <time>2017-01-22T08:22:21.122Z</time>
      </trkpt>
      <trkpt lat="47.77567" lon="2.00679">
        <ele>123</ele>
        <time>2017-01-22T08:22:22.151Z</time>
      </trkpt>
      <trkpt lat="47.77563" lon="2.00667">
        <ele>123</ele>
        <time>2017-01-22T08:22:23.120Z</time>
      </trkpt>
      <trkpt lat="47.77563" lon="2.00667">
        <ele>123</ele>
        <time>2017-01-22T08:22:24.148Z</time>
      </trkpt>
      <trkpt lat="47.77559" lon="2.00655">
        <ele>123</ele>
        <time>2017-01-22T08:22:25.120Z</time>
      </trkpt>
      <trkpt lat="47.77559" lon="2.00655">
        <ele>123</ele>
        <time>2017-01-22T08:22:26.145Z</time>
      </trkpt>
      <trkpt lat="47.77554" lon="2.00641">
        <ele>123</ele>
        <time>2017-01-22T08:22:27.120Z</time>
      </trkpt>
      <trkpt lat="47.77554" lon="2.00641">
        <ele>123</ele>
        <time>2017-01-22T08:22:28.144Z</time>
      </trkpt>
      <trkpt lat="47.77549" lon="2.00628">
        <ele>123</ele>
        <time>2017-01-22T08:22:29.120Z</time>
      </trkpt>
      <trkpt lat="47.77547" lon="2.00621">
        <ele>123</ele>
        <time>2017-01-22T08:22:30.118Z</time>
      </trkpt>
      <trkpt lat="47.77547" lon="2.00621">
        <ele>123</ele>
        <time>2017-01-22T08:22:31.151Z</time>
      </trkpt>
      <trkpt lat="47.77541" lon="2.00608">
        <ele>123</ele>
        <time>2017-01-22T08:22:32.121Z</time>
      </trkpt>
      <trkpt lat="47.77541" lon="2.00608">
        <ele>123</ele>
        <time>2017-01-22T08:22:33.148Z</time>
      </trkpt>
      <trkpt lat="47.77536" lon="2.00595">
        <ele>124</ele>
        <time>2017-01-22T08:22:34.121Z</time>
      </trkpt>
      <trkpt lat="47.77534" lon="2.00589">
        <ele>124</ele>
        <time>2017-01-22T08:22:35.166Z</time>
      </trkpt>
      <trkpt lat="47.77534" lon="2.00589">
        <ele>124</ele>
        <time>2017-01-22T08:22:36.146Z</time>
      </trkpt>
      <trkpt lat="47.7753" lon="2.00576">
        <ele>124</ele>
        <time>2017-01-22T08:22:37.121Z</time>
      </trkpt>
      <trkpt lat="47.7753" lon="2.00576">
        <ele>124</ele>
        <time>2017-01-22T08:22:38.150Z</time>
      </trkpt>
      <trkpt lat="47.77525" lon="2.00563">
        <ele>124</ele>
        <time>2017-01-22T08:22:39.122Z</time>
      </trkpt>
      <trkpt lat="47.77522" lon="2.00556">
        <ele>124</ele>
        <time>2017-01-22T08:22:40.158Z</time>
      </trkpt>
      <trkpt lat="47.77522" lon="2.00556">
        <ele>124</ele>
        <time>2017-01-22T08:22:41.149Z</time>
      </trkpt>
      <trkpt lat="47.77517" lon="2.00543">
        <ele>124</ele>
        <time>2017-01-22T08:22:42.120Z</time>
      </trkpt>
      <trkpt lat="47.77517" lon="2.00543">
        <ele>124</ele>
        <time>2017-01-22T08:22:43.119Z</time>
      </trkpt>
      <trkpt lat="47.77512" lon="2.00531">
        <ele>124</ele>
        <time>2017-01-22T08:22:44.120Z</time>
      </trkpt>
      <trkpt lat="47.77512" lon="2.00531">
        <ele>124</ele>
        <time>2017-01-22T08:22:45.149Z</time>
      </trkpt>
      <trkpt lat="47.77507" lon="2.00519">
        <ele>124</ele>
        <time>2017-01-22T08:22:46.130Z</time>
      </trkpt>
      <trkpt lat="47.77505" lon="2.00512">
        <ele>125</ele>
        <time>2017-01-22T08:22:47.121Z</time>
      </trkpt>
      <trkpt lat="47.77505" lon="2.00512">
        <ele>125</ele>
        <time>2017-01-22T08:22:48.149Z</time>
      </trkpt>
      <trkpt lat="47.775" lon="2.00499">
        <ele>125</ele>
        <time>2017-01-22T08:22:49.153Z</time>
      </trkpt>
      <trkpt lat="47.77498" lon="2.00492">
        <ele>125</ele>
        <time>2017-01-22T08:22:50.119Z</time>
      </trkpt>
      <trkpt lat="47.77497" lon="2.00485">
        <ele>125</ele>
        <time>2017-01-22T08:22:51.131Z</time>
      </trkpt>
      <trkpt lat="47.77497" lon="2.00485">
        <ele>125</ele>
        <time>2017-01-22T08:22:52.145Z</time>
      </trkpt>
      <trkpt lat="47.77496" lon="2.00471">
        <ele>125</ele>
        <time>2017-01-22T08:22:53.121Z</time>
      </trkpt>
      <trkpt lat="47.77495" lon="2.00464">
        <ele>125</ele>
        <time>2017-01-22T08:22:54.118Z</time>
      </trkpt>
      <trkpt lat="47.77495" lon="2.00464">
        <ele>125</ele>
        <time>2017-01-22T08:22:55.147Z</time>
      </trkpt>
      <trkpt lat="47.77495" lon="2.00449">
        <ele>125</ele>
        <time>2017-01-22T08:22:56.118Z</time>
      </trkpt>
      <trkpt lat="47.77495" lon="2.00449">
        <ele>125</ele>
        <time>2017-01-22T08:22:57.145Z</time>
      </trkpt>
      <trkpt lat="47.77494" lon="2.00435">
        <ele>125</ele>
        <time>2017-01-22T08:22:58.121Z</time>
      </trkpt>
      <trkpt lat="47.77494" lon="2.00435">
        <ele>125</ele>
        <time>2017-01-22T08:22:59.127Z</time>
      </trkpt>
      <trkpt lat="47.77495" lon="2.0042">
        <ele>125</ele>
        <time>2017-01-22T08:23:00.120Z</time>
      </trkpt>
      <trkpt lat="47.77495" lon="2.00412">
        <ele>125</ele>
        <time>2017-01-22T08:23:01.121Z</time>
      </trkpt>
      <trkpt lat="47.77495" lon="2.00412">
        <ele>125</ele>
        <time>2017-01-22T08:23:02.121Z</time>
      </trkpt>
      <trkpt lat="47.77494" lon="2.00397">
        <ele>125</ele>
        <time>2017-01-22T08:23:03.154Z</time>
      </trkpt>
      <trkpt lat="47.77494" lon="2.00397">
        <ele>125</ele>
        <time>2017-01-22T08:23:04.153Z</time>
      </trkpt>
      <trkpt lat="47.77494" lon="2.00381">
        <ele>125</ele>
        <time>2017-01-22T08:23:05.120Z</time>
      </trkpt>
      <trkpt lat="47.77494" lon="2.00381">
        <ele>125</ele>
        <time>2017-01-22T08:23:06.140Z</time>
      </trkpt>
      <trkpt lat="47.77493" lon="2.00365">
        <ele>125</ele>
        <time>2017-01-22T08:23:07.146Z</time>
      </trkpt>
      <trkpt lat="47.77493" lon="2.00365">
        <ele>125</ele>
        <time>2017-01-22T08:23:08.126Z</time>
      </trkpt>
      <trkpt lat="47.77493" lon="2.00349">
        <ele>125</ele>
        <time>2017-01-22T08:23:09.120Z</time>
      </trkpt>
      <trkpt lat="47.77493" lon="2.00349">
        <ele>125</ele>
        <time>2017-01-22T08:23:10.148Z</time>
      </trkpt>
      <trkpt lat="47.77492" lon="2.00332">
        <ele>125</ele>
        <time>2017-01-22T08:23:11.120Z</time>
      </trkpt>
      <trkpt lat="47.77492" lon="2.00332">
        <ele>125</ele>
        <time>2017-01-22T08:23:12.149Z</time>
      </trkpt>
      <trkpt lat="47.77492" lon="2.00316">
        <ele>125</ele>
        <time>2017-01-22T08:23:13.120Z</time>
      </trkpt>
      <trkpt lat="47.77492" lon="2.00316">
        <ele>125</ele>
        <time>2017-01-22T08:23:14.125Z</time>
      </trkpt>
      <trkpt lat="47.77492" lon="2.00299">
        <ele>125</ele>
        <time>2017-01-22T08:23:15.120Z</time>
      </trkpt>
      <trkpt lat="47.77492" lon="2.00299">
        <ele>125</ele>
        <time>2017-01-22T08:23:16.149Z</time>
      </trkpt>
      <trkpt lat="47.77491" lon="2.00283">
        <ele>125</ele>
        <time>2017-01-22T08:23:17.120Z</time>
      </trkpt>
      <trkpt lat="47.77491" lon="2.00283">
        <ele>125</ele>
        <time>2017-01-22T08:23:18.151Z</time>
      </trkpt>
      <trkpt lat="47.7749" lon="2.00268">
        <ele>125</ele>
        <time>2017-01-22T08:23:19.163Z</time>
      </trkpt>
      <trkpt lat="47.7749" lon="2.00268">
        <ele>125</ele>
        <time>2017-01-22T08:23:20.149Z</time>
      </trkpt>
      <trkpt lat="47.7749" lon="2.00253">
        <ele>125</ele>
        <time>2017-01-22T08:23:21.121Z</time>
      </trkpt>
      <trkpt lat="47.7749" lon="2.00253">
        <ele>125</ele>
        <time>2017-01-22T08:23:22.150Z</time>
      </trkpt>
      <trkpt lat="47.7749" lon="2.00237">
        <ele>124</ele>
        <time>2017-01-22T08:23:23.163Z</time>
      </trkpt>
      <trkpt lat="47.7749" lon="2.00229">
        <ele>124</ele>
        <time>2017-01-22T08:23:24.121Z</time>
      </trkpt>
      <trkpt lat="47.7749" lon="2.00229">
        <ele>124</ele>
        <time>2017-01-22T08:23:25.119Z</time>
      </trkpt>
      <trkpt lat="47.77489" lon="2.00214">
        <ele>124</ele>
        <time>2017-01-22T08:23:26.121Z</time>
      </trkpt>
      <trkpt lat="47.77489" lon="2.00206">
        <ele>124</ele>
        <time>2017-01-22T08:23:27.118Z</time>
      </trkpt>
      <trkpt lat="47.7749" lon="2.00199">
        <ele>124</ele>
        <time>2017-01-22T08:23:28.121Z</time>
      </trkpt>
      <trkpt lat="47.7749" lon="2.00199">
        <ele>124</ele>
        <time>2017-01-22T08:23:29.153Z</time>
      </trkpt>
      <trkpt lat="47.7749" lon="2.00184">
        <ele>125</ele>
        <time>2017-01-22T08:23:30.120Z</time>
      </trkpt>
      <trkpt lat="47.7749" lon="2.00184">
        <ele>125</ele>
        <time>2017-01-22T08:23:31.118Z</time>
      </trkpt>
      <trkpt lat="47.7749" lon="2.00169">
        <ele>125</ele>
        <time>2017-01-22T08:23:32.119Z</time>
      </trkpt>
      <trkpt lat="47.7749" lon="2.00161">
        <ele>125</ele>
        <time>2017-01-22T08:23:33.121Z</time>
      </trkpt>
      <trkpt lat="47.7749" lon="2.00161">
        <ele>125</ele>
        <time>2017-01-22T08:23:34.148Z</time>
      </trkpt>
      <trkpt lat="47.77489" lon="2.00146">
        <ele>125</ele>
        <time>2017-01-22T08:23:35.157Z</time>
      </trkpt>
      <trkpt lat="47.77489" lon="2.00146">
        <ele>125</ele>
        <time>2017-01-22T08:23:36.145Z</time>
      </trkpt>
      <trkpt lat="47.77488" lon="2.00131">
        <ele>125</ele>
        <time>2017-01-22T08:23:37.119Z</time>
      </trkpt>
      <trkpt lat="47.77488" lon="2.00131">
        <ele>125</ele>
        <time>2017-01-22T08:23:38.146Z</time>
      </trkpt>
      <trkpt lat="47.77488" lon="2.00117">
        <ele>125</ele>
        <time>2017-01-22T08:23:39.153Z</time>
      </trkpt>
      <trkpt lat="47.77488" lon="2.00117">
        <ele>125</ele>
        <time>2017-01-22T08:23:40.155Z</time>
      </trkpt>
      <trkpt lat="47.77488" lon="2.00102">
        <ele>125</ele>
        <time>2017-01-22T08:23:41.120Z</time>
      </trkpt>
      <trkpt lat="47.77488" lon="2.00102">
        <ele>125</ele>
        <time>2017-01-22T08:23:42.126Z</time>
      </trkpt>
      <trkpt lat="47.77488" lon="2.00087">
        <ele>125</ele>
        <time>2017-01-22T08:23:43.121Z</time>
      </trkpt>
      <trkpt lat="47.77488" lon="2.00087">
        <ele>125</ele>
        <time>2017-01-22T08:23:44.148Z</time>
      </trkpt>
      <trkpt lat="47.77487" lon="2.00071">
        <ele>125</ele>
        <time>2017-01-22T08:23:45.121Z</time>
      </trkpt>
      <trkpt lat="47.77487" lon="2.00063">
        <ele>125</ele>
        <time>2017-01-22T08:23:46.120Z</time>
      </trkpt>
      <trkpt lat="47.77487" lon="2.00063">
        <ele>125</ele>
        <time>2017-01-22T08:23:47.148Z</time>
      </trkpt>
      <trkpt lat="47.77486" lon="2.00048">
        <ele>125</ele>
        <time>2017-01-22T08:23:48.118Z</time>
      </trkpt>
      <trkpt lat="47.77486" lon="2.0004">
        <ele>125</ele>
        <time>2017-01-22T08:23:49.144Z</time>
      </trkpt>
      <trkpt lat="47.77486" lon="2.0004">
        <ele>125</ele>
        <time>2017-01-22T08:23:50.150Z</time>
      </trkpt>
      <trkpt lat="47.77486" lon="2.00024">
        <ele>125</ele>
        <time>2017-01-22T08:23:51.121Z</time>
      </trkpt>
      <trkpt lat="47.77486" lon="2.00017">
        <ele>125</ele>
        <time>2017-01-22T08:23:52.119Z</time>
      </trkpt>
      <trkpt lat="47.77486" lon="2.00017">
        <ele>125</ele>
        <time>2017-01-22T08:23:53.120Z</time>
      </trkpt>
      <trkpt lat="47.77485" lon="2.00001">
        <ele>125</ele>
        <time>2017-01-22T08:23:54.120Z</time>
      </trkpt>
      <trkpt lat="47.77485" lon="1.99994">
        <ele>125</ele>
        <time>2017-01-22T08:23:55.120Z</time>
      </trkpt>
      <trkpt lat="47.77485" lon="1.99994">
        <ele>125</ele>
        <time>2017-01-22T08:23:56.149Z</time>
      </trkpt>
      <trkpt lat="47.77485" lon="1.99978">
        <ele>125</ele>
        <time>2017-01-22T08:23:57.119Z</time>
      </trkpt>
      <trkpt lat="47.77484" lon="1.9997">
        <ele>125</ele>
        <time>2017-01-22T08:23:58.121Z</time>
      </trkpt>
      <trkpt lat="47.77484" lon="1.99962">
        <ele>125</ele>
        <time>2017-01-22T08:23:59.118Z</time>
      </trkpt>
      <trkpt lat="47.77484" lon="1.99962">
        <ele>125</ele>
        <time>2017-01-22T08:24:00.151Z</time>
      </trkpt>
      <trkpt lat="47.77483" lon="1.99946">
        <ele>125</ele>
        <time>2017-01-22T08:24:01.126Z</time>
      </trkpt>
      <trkpt lat="47.77483" lon="1.99946">
        <ele>125</ele>
        <time>2017-01-22T08:24:02.150Z</time>
      </trkpt>
      <trkpt lat="47.77483" lon="1.9993">
        <ele>125</ele>
        <time>2017-01-22T08:24:03.121Z</time>
      </trkpt>
      <trkpt lat="47.77483" lon="1.9993">
        <ele>125</ele>
        <time>2017-01-22T08:24:04.157Z</time>
      </trkpt>
      <trkpt lat="47.77482" lon="1.99914">
        <ele>125</ele>
        <time>2017-01-22T08:24:05.124Z</time>
      </trkpt>
      <trkpt lat="47.77482" lon="1.99907">
        <ele>126</ele>
        <time>2017-01-22T08:24:06.136Z</time>
      </trkpt>
      <trkpt lat="47.77481" lon="1.99899">
        <ele>126</ele>
        <time>2017-01-22T08:24:07.127Z</time>
      </trkpt>
      <trkpt lat="47.77481" lon="1.99899">
        <ele>126</ele>
        <time>2017-01-22T08:24:08.150Z</time>
      </trkpt>
      <trkpt lat="47.7748" lon="1.99885">
        <ele>126</ele>
        <time>2017-01-22T08:24:09.121Z</time>
      </trkpt>
      <trkpt lat="47.7748" lon="1.99885">
        <ele>126</ele>
        <time>2017-01-22T08:24:10.126Z</time>
      </trkpt>
      <trkpt lat="47.7748" lon="1.9987">
        <ele>126</ele>
        <time>2017-01-22T08:24:11.139Z</time>
      </trkpt>
      <trkpt lat="47.7748" lon="1.9987">
        <ele>126</ele>
        <time>2017-01-22T08:24:12.146Z</time>
      </trkpt>
      <trkpt lat="47.7748" lon="1.99855">
        <ele>126</ele>
        <time>2017-01-22T08:24:13.121Z</time>
      </trkpt>
      <trkpt lat="47.7748" lon="1.99855">
        <ele>126</ele>
        <time>2017-01-22T08:24:14.149Z</time>
      </trkpt>
      <trkpt lat="47.77479" lon="1.99841">
        <ele>126</ele>
        <time>2017-01-22T08:24:15.121Z</time>
      </trkpt>
      <trkpt lat="47.77479" lon="1.99841">
        <ele>126</ele>
        <time>2017-01-22T08:24:16.150Z</time>
      </trkpt>
      <trkpt lat="47.77479" lon="1.99826">
        <ele>126</ele>
        <time>2017-01-22T08:24:17.126Z</time>
      </trkpt>
      <trkpt lat="47.77479" lon="1.99826">
        <ele>126</ele>
        <time>2017-01-22T08:24:18.140Z</time>
      </trkpt>
      <trkpt lat="47.77479" lon="1.99811">
        <ele>126</ele>
        <time>2017-01-22T08:24:19.147Z</time>
      </trkpt>
      <trkpt lat="47.77479" lon="1.99811">
        <ele>126</ele>
        <time>2017-01-22T08:24:20.141Z</time>
      </trkpt>
      <trkpt lat="47.77478" lon="1.99797">
        <ele>126</ele>
        <time>2017-01-22T08:24:21.142Z</time>
      </trkpt>
      <trkpt lat="47.77478" lon="1.99789">
        <ele>126</ele>
        <time>2017-01-22T08:24:22.125Z</time>
      </trkpt>
      <trkpt lat="47.77478" lon="1.99789">
        <ele>126</ele>
        <time>2017-01-22T08:24:23.147Z</time>
      </trkpt>
      <trkpt lat="47.77477" lon="1.99773">
        <ele>126</ele>
        <time>2017-01-22T08:24:24.120Z</time>
      </trkpt>
      <trkpt lat="47.77477" lon="1.99766">
        <ele>126</ele>
        <time>2017-01-22T08:24:25.118Z</time>
      </trkpt>
      <trkpt lat="47.77477" lon="1.99766">
        <ele>126</ele>
        <time>2017-01-22T08:24:26.148Z</time>
      </trkpt>
      <trkpt lat="47.77477" lon="1.99751">
        <ele>126</ele>
        <time>2017-01-22T08:24:27.131Z</time>
      </trkpt>
      <trkpt lat="47.77477" lon="1.99751">
        <ele>126</ele>
        <time>2017-01-22T08:24:28.148Z</time>
      </trkpt>
      <trkpt lat="47.77476" lon="1.99735">
        <ele>126</ele>
        <time>2017-01-22T08:24:29.120Z</time>
      </trkpt>
      <trkpt lat="47.77476" lon="1.99735">
        <ele>126</ele>
        <time>2017-01-22T08:24:30.151Z</time>
      </trkpt>
      <trkpt lat="47.77476" lon="1.99718">
        <ele>126</ele>
        <time>2017-01-22T08:24:31.121Z</time>
      </trkpt>
      <trkpt lat="47.77476" lon="1.99718">
        <ele>126</ele>
        <time>2017-01-22T08:24:32.149Z</time>
      </trkpt>
      <trkpt lat="47.77476" lon="1.99702">
        <ele>126</ele>
        <time>2017-01-22T08:24:33.119Z</time>
      </trkpt>
      <trkpt lat="47.77476" lon="1.99693">
        <ele>125</ele>
        <time>2017-01-22T08:24:34.119Z</time>
      </trkpt>
      <trkpt lat="47.77476" lon="1.99693">
        <ele>125</ele>
        <time>2017-01-22T08:24:35.148Z</time>
      </trkpt>
      <trkpt lat="47.77477" lon="1.99677">
        <ele>125</ele>
        <time>2017-01-22T08:24:36.121Z</time>
      </trkpt>
      <trkpt lat="47.77479" lon="1.99669">
        <ele>125</ele>
        <time>2017-01-22T08:24:37.121Z</time>
      </trkpt>
      <trkpt lat="47.77479" lon="1.99669">
        <ele>125</ele>
        <time>2017-01-22T08:24:38.148Z</time>
      </trkpt>
      <trkpt lat="47.77481" lon="1.99653">
        <ele>125</ele>
        <time>2017-01-22T08:24:39.149Z</time>
      </trkpt>
      <trkpt lat="47.77481" lon="1.99653">
        <ele>125</ele>
        <time>2017-01-22T08:24:40.157Z</time>
      </trkpt>
      <trkpt lat="47.77484" lon="1.99637">
        <ele>125</ele>
        <time>2017-01-22T08:24:41.153Z</time>
      </trkpt>
      <trkpt lat="47.77486" lon="1.99629">
        <ele>125</ele>
        <time>2017-01-22T08:24:42.120Z</time>
      </trkpt>
      <trkpt lat="47.77487" lon="1.9962">
        <ele>125</ele>
        <time>2017-01-22T08:24:43.120Z</time>
      </trkpt>
      <trkpt lat="47.77487" lon="1.9962">
        <ele>125</ele>
        <time>2017-01-22T08:24:44.156Z</time>
      </trkpt>
      <trkpt lat="47.77491" lon="1.99604">
        <ele>125</ele>
        <time>2017-01-22T08:24:45.121Z</time>
      </trkpt>
      <trkpt lat="47.77491" lon="1.99604">
        <ele>125</ele>
        <time>2017-01-22T08:24:46.151Z</time>
      </trkpt>
      <trkpt lat="47.77494" lon="1.99588">
        <ele>125</ele>
        <time>2017-01-22T08:24:47.121Z</time>
      </trkpt>
      <trkpt lat="47.77494" lon="1.99588">
        <ele>125</ele>
        <time>2017-01-22T08:24:48.148Z</time>
      </trkpt>
      <trkpt lat="47.77497" lon="1.99572">
        <ele>125</ele>
        <time>2017-01-22T08:24:49.159Z</time>
      </trkpt>
      <trkpt lat="47.77497" lon="1.99572">
        <ele>125</ele>
        <time>2017-01-22T08:24:50.149Z</time>
      </trkpt>
      <trkpt lat="47.775" lon="1.99557">
        <ele>125</ele>
        <time>2017-01-22T08:24:51.122Z</time>
      </trkpt>
      <trkpt lat="47.77502" lon="1.99549">
        <ele>125</ele>
        <time>2017-01-22T08:24:52.122Z</time>
      </trkpt>
      <trkpt lat="47.77502" lon="1.99549">
        <ele>125</ele>
        <time>2017-01-22T08:24:53.149Z</time>
      </trkpt>
      <trkpt lat="47.77505" lon="1.99534">
        <ele>125</ele>
        <time>2017-01-22T08:24:54.158Z</time>
      </trkpt>
      <trkpt lat="47.77507" lon="1.99526">
        <ele>125</ele>
        <time>2017-01-22T08:24:55.122Z</time>
      </trkpt>
      <trkpt lat="47.77507" lon="1.99526">
        <ele>125</ele>
        <time>2017-01-22T08:24:56.150Z</time>
      </trkpt>
      <trkpt lat="47.7751" lon="1.99511">
        <ele>125</ele>
        <time>2017-01-22T08:24:57.122Z</time>
      </trkpt>
      <trkpt lat="47.77511" lon="1.99503">
        <ele>125</ele>
        <time>2017-01-22T08:24:58.119Z</time>
      </trkpt>
      <trkpt lat="47.77511" lon="1.99503">
        <ele>125</ele>
        <time>2017-01-22T08:24:59.148Z</time>
      </trkpt>
      <trkpt lat="47.77515" lon="1.99488">
        <ele>125</ele>
        <time>2017-01-22T08:25:00.160Z</time>
      </trkpt>
      <trkpt lat="47.77515" lon="1.99488">
        <ele>125</ele>
        <time>2017-01-22T08:25:01.141Z</time>
      </trkpt>
      <trkpt lat="47.77518" lon="1.99473">
        <ele>125</ele>
        <time>2017-01-22T08:25:02.148Z</time>
      </trkpt>
      <trkpt lat="47.77518" lon="1.99473">
        <ele>125</ele>
        <time>2017-01-22T08:25:03.145Z</time>
      </trkpt>
      <trkpt lat="47.77522" lon="1.99459">
        <ele>125</ele>
        <time>2017-01-22T08:25:04.142Z</time>
      </trkpt>
      <trkpt lat="47.77522" lon="1.99459">
        <ele>125</ele>
        <time>2017-01-22T08:25:05.148Z</time>
      </trkpt>
      <trkpt lat="47.77525" lon="1.99445">
        <ele>126</ele>
        <time>2017-01-22T08:25:06.130Z</time>
      </trkpt>
      <trkpt lat="47.77526" lon="1.99438">
        <ele>126</ele>
        <time>2017-01-22T08:25:07.144Z</time>
      </trkpt>
      <trkpt lat="47.77526" lon="1.99438">
        <ele>126</ele>
        <time>2017-01-22T08:25:08.150Z</time>
      </trkpt>
      <trkpt lat="47.7753" lon="1.99423">
        <ele>125</ele>
        <time>2017-01-22T08:25:09.122Z</time>
      </trkpt>
      <trkpt lat="47.77532" lon="1.99416">
        <ele>125</ele>
        <time>2017-01-22T08:25:10.137Z</time>
      </trkpt>
      <trkpt lat="47.77532" lon="1.99416">
        <ele>125</ele>
        <time>2017-01-22T08:25:11.152Z</time>
      </trkpt>
      <trkpt lat="47.77535" lon="1.99402">
        <ele>125</ele>
        <time>2017-01-22T08:25:12.121Z</time>
      </trkpt>
      <trkpt lat="47.77537" lon="1.99395">
        <ele>125</ele>
        <time>2017-01-22T08:25:13.122Z</time>
      </trkpt>
      <trkpt lat="47.77537" lon="1.99395">
        <ele>125</ele>
        <time>2017-01-22T08:25:14.156Z</time>
      </trkpt>
      <trkpt lat="47.7754" lon="1.99381">
        <ele>125</ele>
        <time>2017-01-22T08:25:15.120Z</time>
      </trkpt>
      <trkpt lat="47.7754" lon="1.99381">
        <ele>125</ele>
        <time>2017-01-22T08:25:16.146Z</time>
      </trkpt>
      <trkpt lat="47.77543" lon="1.99367">
        <ele>125</ele>
        <time>2017-01-22T08:25:17.122Z</time>
      </trkpt>
      <trkpt lat="47.77543" lon="1.99367">
        <ele>125</ele>
        <time>2017-01-22T08:25:18.146Z</time>
      </trkpt>
      <trkpt lat="47.77547" lon="1.99354">
        <ele>125</ele>
        <time>2017-01-22T08:25:19.119Z</time>
      </trkpt>
      <trkpt lat="47.77547" lon="1.99354">
        <ele>125</ele>
        <time>2017-01-22T08:25:20.146Z</time>
      </trkpt>
      <trkpt lat="47.7755" lon="1.9934">
        <ele>126</ele>
        <time>2017-01-22T08:25:21.120Z</time>
      </trkpt>
      <trkpt lat="47.7755" lon="1.9934">
        <ele>126</ele>
        <time>2017-01-22T08:25:22.147Z</time>
      </trkpt>
      <trkpt lat="47.77553" lon="1.99328">
        <ele>126</ele>
        <time>2017-01-22T08:25:23.122Z</time>
      </trkpt>
      <trkpt lat="47.77553" lon="1.99328">
        <ele>126</ele>
        <time>2017-01-22T08:25:24.118Z</time>
      </trkpt>
      <trkpt lat="47.77557" lon="1.99315">
        <ele>125</ele>
        <time>2017-01-22T08:25:25.120Z</time>
      </trkpt>
      <trkpt lat="47.77557" lon="1.99315">
        <ele>125</ele>
        <time>2017-01-22T08:25:26.149Z</time>
      </trkpt>
      <trkpt lat="47.77561" lon="1.99301">
        <ele>125</ele>
        <time>2017-01-22T08:25:27.121Z</time>
      </trkpt>
      <trkpt lat="47.77561" lon="1.99301">
        <ele>125</ele>
        <time>2017-01-22T08:25:28.149Z</time>
      </trkpt>
      <trkpt lat="47.77565" lon="1.99287">
        <ele>125</ele>
        <time>2017-01-22T08:25:29.119Z</time>
      </trkpt>
      <trkpt lat="47.77565" lon="1.99287">
        <ele>125</ele>
        <time>2017-01-22T08:25:30.149Z</time>
      </trkpt>
      <trkpt lat="47.77568" lon="1.99273">
        <ele>125</ele>
        <time>2017-01-22T08:25:31.127Z</time>
      </trkpt>
      <trkpt lat="47.77568" lon="1.99273">
        <ele>125</ele>
        <time>2017-01-22T08:25:32.147Z</time>
      </trkpt>
      <trkpt lat="47.77571" lon="1.9926">
        <ele>125</ele>
        <time>2017-01-22T08:25:33.121Z</time>
      </trkpt>
      <trkpt lat="47.77571" lon="1.9926">
        <ele>125</ele>
        <time>2017-01-22T08:25:34.148Z</time>
      </trkpt>
      <trkpt lat="47.77574" lon="1.99247">
        <ele>125</ele>
        <time>2017-01-22T08:25:35.156Z</time>
      </trkpt>
      <trkpt lat="47.77574" lon="1.99247">
        <ele>125</ele>
        <time>2017-01-22T08:25:36.147Z</time>
      </trkpt>
      <trkpt lat="47.77578" lon="1.99234">
        <ele>125</ele>
        <time>2017-01-22T08:25:37.124Z</time>
      </trkpt>
      <trkpt lat="47.77578" lon="1.99234">
        <ele>125</ele>
        <time>2017-01-22T08:25:38.127Z</time>
      </trkpt>
      <trkpt lat="47.7758" lon="1.99222">
        <ele>126</ele>
        <time>2017-01-22T08:25:39.142Z</time>
      </trkpt>
      <trkpt lat="47.7758" lon="1.99222">
        <ele>126</ele>
        <time>2017-01-22T08:25:40.150Z</time>
      </trkpt>
      <trkpt lat="47.77579" lon="1.9921">
        <ele>126</ele>
        <time>2017-01-22T08:25:41.146Z</time>
      </trkpt>
      <trkpt lat="47.77579" lon="1.9921">
        <ele>126</ele>
        <time>2017-01-22T08:25:42.119Z</time>
      </trkpt>
      <trkpt lat="47.77576" lon="1.99198">
        <ele>126</ele>
        <time>2017-01-22T08:25:43.123Z</time>
      </trkpt>
      <trkpt lat="47.77576" lon="1.99198">
        <ele>126</ele>
        <time>2017-01-22T08:25:44.147Z</time>
      </trkpt>
      <trkpt lat="47.77573" lon="1.99186">
        <ele>126</ele>
        <time>2017-01-22T08:25:45.120Z</time>
      </trkpt>
      <trkpt lat="47.77573" lon="1.99186">
        <ele>126</ele>
        <time>2017-01-22T08:25:46.147Z</time>
      </trkpt>
      <trkpt lat="47.7757" lon="1.99172">
        <ele>126</ele>
        <time>2017-01-22T08:25:47.123Z</time>
      </trkpt>
      <trkpt lat="47.7757" lon="1.99172">
        <ele>126</ele>
        <time>2017-01-22T08:25:48.154Z</time>
      </trkpt>
      <trkpt lat="47.77567" lon="1.99157">
        <ele>126</ele>
        <time>2017-01-22T08:25:49.133Z</time>
      </trkpt>
      <trkpt lat="47.77567" lon="1.99157">
        <ele>126</ele>
        <time>2017-01-22T08:25:50.153Z</time>
      </trkpt>
      <trkpt lat="47.77564" lon="1.99142">
        <ele>126</ele>
        <time>2017-01-22T08:25:51.141Z</time>
      </trkpt>
      <trkpt lat="47.77562" lon="1.99134">
        <ele>126</ele>
        <time>2017-01-22T08:25:52.122Z</time>
      </trkpt>
      <trkpt lat="47.77562" lon="1.99134">
        <ele>126</ele>
        <time>2017-01-22T08:25:53.148Z</time>
      </trkpt>
      <trkpt lat="47.77558" lon="1.99119">
        <ele>126</ele>
        <time>2017-01-22T08:25:54.122Z</time>
      </trkpt>
      <trkpt lat="47.77557" lon="1.99111">
        <ele>126</ele>
        <time>2017-01-22T08:25:55.125Z</time>
      </trkpt>
      <trkpt lat="47.77557" lon="1.99111">
        <ele>126</ele>
        <time>2017-01-22T08:25:56.153Z</time>
      </trkpt>
      <trkpt lat="47.77553" lon="1.99096">
        <ele>126</ele>
        <time>2017-01-22T08:25:57.120Z</time>
      </trkpt>
      <trkpt lat="47.77553" lon="1.99096">
        <ele>126</ele>
        <time>2017-01-22T08:25:58.149Z</time>
      </trkpt>
      <trkpt lat="47.7755" lon="1.9908">
        <ele>126</ele>
        <time>2017-01-22T08:25:59.121Z</time>
      </trkpt>
      <trkpt lat="47.7755" lon="1.9908">
        <ele>126</ele>
        <time>2017-01-22T08:26:00.150Z</time>
      </trkpt>
      <trkpt lat="47.77546" lon="1.99065">
        <ele>126</ele>
        <time>2017-01-22T08:26:01.129Z</time>
      </trkpt>
      <trkpt lat="47.77546" lon="1.99065">
        <ele>126</ele>
        <time>2017-01-22T08:26:02.147Z</time>
      </trkpt>
      <trkpt lat="47.77543" lon="1.99051">
        <ele>126</ele>
        <time>2017-01-22T08:26:03.122Z</time>
      </trkpt>
      <trkpt lat="47.77542" lon="1.99044">
        <ele>126</ele>
        <time>2017-01-22T08:26:04.142Z</time>
      </trkpt>
      <trkpt lat="47.77542" lon="1.99044">
        <ele>126</ele>
        <time>2017-01-22T08:26:05.122Z</time>
      </trkpt>
      <trkpt lat="47.77539" lon="1.99029">
        <ele>126</ele>
        <time>2017-01-22T08:26:06.130Z</time>
      </trkpt>
      <trkpt lat="47.77537" lon="1.99022">
        <ele>126</ele>
        <time>2017-01-22T08:26:07.132Z</time>
      </trkpt>
      <trkpt lat="47.77537" lon="1.99022">
        <ele>126</ele>
        <time>2017-01-22T08:26:08.127Z</time>
      </trkpt>
      <trkpt lat="47.77534" lon="1.99007">
        <ele>126</ele>
        <time>2017-01-22T08:26:09.120Z</time>
      </trkpt>
      <trkpt lat="47.77534" lon="1.99007">
        <ele>126</ele>
        <time>2017-01-22T08:26:10.147Z</time>
      </trkpt>
      <trkpt lat="47.77532" lon="1.98995">
        <ele>127</ele>
        <time>2017-01-22T08:26:11.152Z</time>
      </trkpt>
      <trkpt lat="47.7753" lon="1.98988">
        <ele>127</ele>
        <time>2017-01-22T08:26:12.121Z</time>
      </trkpt>
      <trkpt lat="47.77529" lon="1.98981">
        <ele>127</ele>
        <time>2017-01-22T08:26:13.153Z</time>
      </trkpt>
      <trkpt lat="47.77529" lon="1.98981">
        <ele>127</ele>
        <time>2017-01-22T08:26:14.147Z</time>
      </trkpt>
      <trkpt lat="47.77526" lon="1.98966">
        <ele>126</ele>
        <time>2017-01-22T08:26:15.122Z</time>
      </trkpt>
      <trkpt lat="47.77526" lon="1.98966">
        <ele>126</ele>
        <time>2017-01-22T08:26:16.151Z</time>
      </trkpt>
      <trkpt lat="47.77522" lon="1.98951">
        <ele>126</ele>
        <time>2017-01-22T08:26:17.122Z</time>
      </trkpt>
      <trkpt lat="47.77522" lon="1.98951">
        <ele>126</ele>
        <time>2017-01-22T08:26:18.152Z</time>
      </trkpt>
      <trkpt lat="47.77519" lon="1.98937">
        <ele>126</ele>
        <time>2017-01-22T08:26:19.121Z</time>
      </trkpt>
      <trkpt lat="47.77519" lon="1.98937">
        <ele>126</ele>
        <time>2017-01-22T08:26:20.150Z</time>
      </trkpt>
      <trkpt lat="47.77516" lon="1.98924">
        <ele>126</ele>
        <time>2017-01-22T08:26:21.138Z</time>
      </trkpt>
      <trkpt lat="47.77515" lon="1.98917">
        <ele>126</ele>
        <time>2017-01-22T08:26:22.132Z</time>
      </trkpt>
      <trkpt lat="47.77515" lon="1.98917">
        <ele>126</ele>
        <time>2017-01-22T08:26:23.128Z</time>
      </trkpt>
      <trkpt lat="47.77512" lon="1.98903">
        <ele>126</ele>
        <time>2017-01-22T08:26:24.146Z</time>
      </trkpt>
      <trkpt lat="47.7751" lon="1.98896">
        <ele>126</ele>
        <time>2017-01-22T08:26:25.122Z</time>
      </trkpt>
      <trkpt lat="47.7751" lon="1.98896">
        <ele>126</ele>
        <time>2017-01-22T08:26:26.153Z</time>
      </trkpt>
      <trkpt lat="47.77507" lon="1.98881">
        <ele>126</ele>
        <time>2017-01-22T08:26:27.122Z</time>
      </trkpt>
      <trkpt lat="47.77505" lon="1.98873">
        <ele>126</ele>
        <time>2017-01-22T08:26:28.122Z</time>
      </trkpt>
      <trkpt lat="47.77505" lon="1.98873">
        <ele>126</ele>
        <time>2017-01-22T08:26:29.149Z</time>
      </trkpt>
      <trkpt lat="47.77502" lon="1.98858">
        <ele>126</ele>
        <time>2017-01-22T08:26:30.119Z</time>
      </trkpt>
      <trkpt lat="47.77502" lon="1.98858">
        <ele>126</ele>
        <time>2017-01-22T08:26:31.122Z</time>
      </trkpt>
      <trkpt lat="47.77499" lon="1.98845">
        <ele>126</ele>
        <time>2017-01-22T08:26:32.124Z</time>
      </trkpt>
      <trkpt lat="47.77499" lon="1.98845">
        <ele>126</ele>
        <time>2017-01-22T08:26:33.118Z</time>
      </trkpt>
      <trkpt lat="47.77496" lon="1.98832">
        <ele>126</ele>
        <time>2017-01-22T08:26:34.122Z</time>
      </trkpt>
      <trkpt lat="47.77496" lon="1.98832">
        <ele>126</ele>
        <time>2017-01-22T08:26:35.152Z</time>
      </trkpt>
      <trkpt lat="47.77493" lon="1.98818">
        <ele>126</ele>
        <time>2017-01-22T08:26:36.122Z</time>
      </trkpt>
      <trkpt lat="47.77491" lon="1.98811">
        <ele>126</ele>
        <time>2017-01-22T08:26:37.132Z</time>
      </trkpt>
      <trkpt lat="47.77491" lon="1.98811">
        <ele>126</ele>
        <time>2017-01-22T08:26:38.151Z</time>
      </trkpt>
      <trkpt lat="47.77489" lon="1.98797">
        <ele>126</ele>
        <time>2017-01-22T08:26:39.121Z</time>
      </trkpt>
      <trkpt lat="47.77489" lon="1.98797">
        <ele>126</ele>
        <time>2017-01-22T08:26:40.118Z</time>
      </trkpt>
      <trkpt lat="47.77486" lon="1.98783">
        <ele>126</ele>
        <time>2017-01-22T08:26:41.126Z</time>
      </trkpt>
      <trkpt lat="47.77486" lon="1.98783">
        <ele>126</ele>
        <time>2017-01-22T08:26:42.148Z</time>
      </trkpt>
      <trkpt lat="47.77483" lon="1.9877">
        <ele>126</ele>
        <time>2017-01-22T08:26:43.153Z</time>
      </trkpt>
      <trkpt lat="47.77483" lon="1.9877">
        <ele>126</ele>
        <time>2017-01-22T08:26:44.148Z</time>
      </trkpt>
      <trkpt lat="47.77481" lon="1.98759">
        <ele>126</ele>
        <time>2017-01-22T08:26:45.159Z</time>
      </trkpt>
      <trkpt lat="47.7748" lon="1.98753">
        <ele>126</ele>
        <time>2017-01-22T08:26:46.122Z</time>
      </trkpt>
      <trkpt lat="47.77479" lon="1.98747">
        <ele>126</ele>
        <time>2017-01-22T08:26:47.121Z</time>
      </trkpt>
      <trkpt lat="47.77479" lon="1.98747">
        <ele>126</ele>
        <time>2017-01-22T08:26:48.147Z</time>
      </trkpt>
      <trkpt lat="47.77474" lon="1.98738">
        <ele>125</ele>
        <time>2017-01-22T08:26:49.122Z</time>
      </trkpt>
      <trkpt lat="47.77474" lon="1.98738">
        <ele>125</ele>
        <time>2017-01-22T08:26:50.119Z</time>
      </trkpt>
      <trkpt lat="47.77466" lon="1.98735">
        <ele>125</ele>
        <time>2017-01-22T08:26:51.121Z</time>
      </trkpt>
      <trkpt lat="47.77466" lon="1.98735">
        <ele>125</ele>
        <time>2017-01-22T08:26:52.149Z</time>
      </trkpt>
      <trkpt lat="47.77457" lon="1.98734">
        <ele>125</ele>
        <time>2017-01-22T08:26:53.122Z</time>
      </trkpt>
      <trkpt lat="47.77457" lon="1.98734">
        <ele>125</ele>
        <time>2017-01-22T08:26:54.148Z</time>
      </trkpt>
      <trkpt lat="47.77448" lon="1.98734">
        <ele>125</ele>
        <time>2017-01-22T08:26:55.122Z</time>
      </trkpt>
      <trkpt lat="47.77448" lon="1.98734">
        <ele>125</ele>
        <time>2017-01-22T08:26:56.149Z</time>
      </trkpt>
      <trkpt lat="47.77438" lon="1.98732">
        <ele>125</ele>
        <time>2017-01-22T08:26:57.122Z</time>
      </trkpt>
      <trkpt lat="47.77433" lon="1.98732">
        <ele>125</ele>
        <time>2017-01-22T08:26:58.120Z</time>
      </trkpt>
      <trkpt lat="47.77433" lon="1.98732">
        <ele>125</ele>
        <time>2017-01-22T08:26:59.128Z</time>
      </trkpt>
      <trkpt lat="47.77424" lon="1.98731">
        <ele>124</ele>
        <time>2017-01-22T08:27:00.126Z</time>
      </trkpt>
      <trkpt lat="47.77419" lon="1.98731">
        <ele>124</ele>
        <time>2017-01-22T08:27:01.143Z</time>
      </trkpt>
      <trkpt lat="47.77419" lon="1.98731">
        <ele>124</ele>
        <time>2017-01-22T08:27:02.149Z</time>
      </trkpt>
      <trkpt lat="47.7741" lon="1.98731">
        <ele>124</ele>
        <time>2017-01-22T08:27:03.122Z</time>
      </trkpt>
      <trkpt lat="47.7741" lon="1.98731">
        <ele>124</ele>
        <time>2017-01-22T08:27:04.140Z</time>
      </trkpt>
      <trkpt lat="47.77399" lon="1.9873">
        <ele>123</ele>
        <time>2017-01-22T08:27:05.147Z</time>
      </trkpt>
      <trkpt lat="47.77399" lon="1.9873">
        <ele>123</ele>
        <time>2017-01-22T08:27:06.120Z</time>
      </trkpt>
      <trkpt lat="47.77389" lon="1.9873">
        <ele>123</ele>
        <time>2017-01-22T08:27:07.152Z</time>
      </trkpt>
      <trkpt lat="47.77389" lon="1.9873">
        <ele>123</ele>
        <time>2017-01-22T08:27:08.146Z</time>
      </trkpt>
      <trkpt lat="47.77379" lon="1.9873">
        <ele>123</ele>
        <time>2017-01-22T08:27:09.120Z</time>
      </trkpt>
      <trkpt lat="47.77374" lon="1.98731">
        <ele>124</ele>
        <time>2017-01-22T08:27:10.137Z</time>
      </trkpt>
      <trkpt lat="47.77374" lon="1.98731">
        <ele>124</ele>
        <time>2017-01-22T08:27:11.151Z</time>
      </trkpt>
      <trkpt lat="47.77365" lon="1.98731">
        <ele>124</ele>
        <time>2017-01-22T08:27:12.120Z</time>
      </trkpt>
      <trkpt lat="47.7736" lon="1.98731">
        <ele>124</ele>
        <time>2017-01-22T08:27:13.124Z</time>
      </trkpt>
      <trkpt lat="47.7736" lon="1.98731">
        <ele>124</ele>
        <time>2017-01-22T08:27:14.147Z</time>
      </trkpt>
      <trkpt lat="47.77349" lon="1.98729">
        <ele>124</ele>
        <time>2017-01-22T08:27:15.122Z</time>
      </trkpt>
      <trkpt lat="47.77349" lon="1.98729">
        <ele>124</ele>
        <time>2017-01-22T08:27:16.148Z</time>
      </trkpt>
      <trkpt lat="47.77339" lon="1.98725">
        <ele>124</ele>
        <time>2017-01-22T08:27:17.122Z</time>
      </trkpt>
      <trkpt lat="47.77339" lon="1.98725">
        <ele>124</ele>
        <time>2017-01-22T08:27:18.151Z</time>
      </trkpt>
      <trkpt lat="47.77329" lon="1.98718">
        <ele>124</ele>
        <time>2017-01-22T08:27:19.120Z</time>
      </trkpt>
      <trkpt lat="47.77329" lon="1.98718">
        <ele>124</ele>
        <time>2017-01-22T08:27:20.147Z</time>
      </trkpt>
      <trkpt lat="47.7732" lon="1.9871">
        <ele>124</ele>
        <time>2017-01-22T08:27:21.122Z</time>
      </trkpt>
      <trkpt lat="47.7732" lon="1.9871">
        <ele>124</ele>
        <time>2017-01-22T08:27:22.153Z</time>
      </trkpt>
      <trkpt lat="47.77312" lon="1.98701">
        <ele>124</ele>
        <time>2017-01-22T08:27:23.122Z</time>
      </trkpt>
      <trkpt lat="47.77308" lon="1.98696">
        <ele>124</ele>
        <time>2017-01-22T08:27:24.120Z</time>
      </trkpt>
      <trkpt lat="47.77308" lon="1.98696">
        <ele>124</ele>
        <time>2017-01-22T08:27:25.151Z</time>
      </trkpt>
      <trkpt lat="47.773" lon="1.98687">
        <ele>124</ele>
        <time>2017-01-22T08:27:26.119Z</time>
      </trkpt>
      <trkpt lat="47.77297" lon="1.98683">
        <ele>124</ele>
        <time>2017-01-22T08:27:27.120Z</time>
      </trkpt>
      <trkpt lat="47.77297" lon="1.98683">
        <ele>124</ele>
        <time>2017-01-22T08:27:28.148Z</time>
      </trkpt>
      <trkpt lat="47.7729" lon="1.98675">
        <ele>124</ele>
        <time>2017-01-22T08:27:29.120Z</time>
      </trkpt>
      <trkpt lat="47.7729" lon="1.98675">
        <ele>124</ele>
        <time>2017-01-22T08:27:30.147Z</time>
      </trkpt>
      <trkpt lat="47.77283" lon="1.9867">
        <ele>124</ele>
        <time>2017-01-22T08:27:31.141Z</time>
      </trkpt>
      <trkpt lat="47.77283" lon="1.9867">
        <ele>124</ele>
        <time>2017-01-22T08:27:32.146Z</time>
      </trkpt>
      <trkpt lat="47.77274" lon="1.9867">
        <ele>124</ele>
        <time>2017-01-22T08:27:33.123Z</time>
      </trkpt>
      <trkpt lat="47.77269" lon="1.98671">
        <ele>125</ele>
        <time>2017-01-22T08:27:34.123Z</time>
      </trkpt>
      <trkpt lat="47.77265" lon="1.98673">
        <ele>125</ele>
        <time>2017-01-22T08:27:35.143Z</time>
      </trkpt>
      <trkpt lat="47.77265" lon="1.98673">
        <ele>125</ele>
        <time>2017-01-22T08:27:36.155Z</time>
      </trkpt>
      <trkpt lat="47.77257" lon="1.98679">
        <ele>125</ele>
        <time>2017-01-22T08:27:37.122Z</time>
      </trkpt>
      <trkpt lat="47.77252" lon="1.98681">
        <ele>125</ele>
        <time>2017-01-22T08:27:38.158Z</time>
      </trkpt>
      <trkpt lat="47.77252" lon="1.98681">
        <ele>125</ele>
        <time>2017-01-22T08:27:39.127Z</time>
      </trkpt>
      <trkpt lat="47.77242" lon="1.98687">
        <ele>125</ele>
        <time>2017-01-22T08:27:40.126Z</time>
      </trkpt>
      <trkpt lat="47.77242" lon="1.98687">
        <ele>125</ele>
        <time>2017-01-22T08:27:41.128Z</time>
      </trkpt>
      <trkpt lat="47.77233" lon="1.98692">
        <ele>125</ele>
        <time>2017-01-22T08:27:42.133Z</time>
      </trkpt>
      <trkpt lat="47.77228" lon="1.98695">
        <ele>125</ele>
        <time>2017-01-22T08:27:43.133Z</time>
      </trkpt>
      <trkpt lat="47.77223" lon="1.98697">
        <ele>125</ele>
        <time>2017-01-22T08:27:44.154Z</time>
      </trkpt>
      <trkpt lat="47.77223" lon="1.98697">
        <ele>125</ele>
        <time>2017-01-22T08:27:45.146Z</time>
      </trkpt>
      <trkpt lat="47.77213" lon="1.98702">
        <ele>125</ele>
        <time>2017-01-22T08:27:46.145Z</time>
      </trkpt>
      <trkpt lat="47.77213" lon="1.98702">
        <ele>125</ele>
        <time>2017-01-22T08:27:47.149Z</time>
      </trkpt>
      <trkpt lat="47.77203" lon="1.98707">
        <ele>125</ele>
        <time>2017-01-22T08:27:48.120Z</time>
      </trkpt>
      <trkpt lat="47.77198" lon="1.9871">
        <ele>125</ele>
        <time>2017-01-22T08:27:49.125Z</time>
      </trkpt>
      <trkpt lat="47.77198" lon="1.9871">
        <ele>125</ele>
        <time>2017-01-22T08:27:50.149Z</time>
      </trkpt>
      <trkpt lat="47.77188" lon="1.98715">
        <ele>124</ele>
        <time>2017-01-22T08:27:51.122Z</time>
      </trkpt>
      <trkpt lat="47.77188" lon="1.98715">
        <ele>124</ele>
        <time>2017-01-22T08:27:52.125Z</time>
      </trkpt>
      <trkpt lat="47.77178" lon="1.9872">
        <ele>124</ele>
        <time>2017-01-22T08:27:53.124Z</time>
      </trkpt>
      <trkpt lat="47.77174" lon="1.98722">
        <ele>124</ele>
        <time>2017-01-22T08:27:54.131Z</time>
      </trkpt>
      <trkpt lat="47.77174" lon="1.98722">
        <ele>124</ele>
        <time>2017-01-22T08:27:55.128Z</time>
      </trkpt>
      <trkpt lat="47.77164" lon="1.98727">
        <ele>124</ele>
        <time>2017-01-22T08:27:56.123Z</time>
      </trkpt>
      <trkpt lat="47.77164" lon="1.98727">
        <ele>124</ele>
        <time>2017-01-22T08:27:57.155Z</time>
      </trkpt>
      <trkpt lat="47.77154" lon="1.98731">
        <ele>124</ele>
        <time>2017-01-22T08:27:58.123Z</time>
      </trkpt>
      <trkpt lat="47.77149" lon="1.98734">
        <ele>124</ele>
        <time>2017-01-22T08:27:59.124Z</time>
      </trkpt>
      <trkpt lat="47.77144" lon="1.98736">
        <ele>124</ele>
        <time>2017-01-22T08:28:00.133Z</time>
      </trkpt>
      <trkpt lat="47.77144" lon="1.98736">
        <ele>124</ele>
        <time>2017-01-22T08:28:01.150Z</time>
      </trkpt>
      <trkpt lat="47.77134" lon="1.98741">
        <ele>124</ele>
        <time>2017-01-22T08:28:02.156Z</time>
      </trkpt>
      <trkpt lat="47.7713" lon="1.98743">
        <ele>124</ele>
        <time>2017-01-22T08:28:03.145Z</time>
      </trkpt>
      <trkpt lat="47.7713" lon="1.98743">
        <ele>124</ele>
        <time>2017-01-22T08:28:04.146Z</time>
      </trkpt>
      <trkpt lat="47.7712" lon="1.98748">
        <ele>124</ele>
        <time>2017-01-22T08:28:05.125Z</time>
      </trkpt>
      <trkpt lat="47.7712" lon="1.98748">
        <ele>124</ele>
        <time>2017-01-22T08:28:06.147Z</time>
      </trkpt>
      <trkpt lat="47.7711" lon="1.98752">
        <ele>124</ele>
        <time>2017-01-22T08:28:07.132Z</time>
      </trkpt>
      <trkpt lat="47.7711" lon="1.98752">
        <ele>124</ele>
        <time>2017-01-22T08:28:08.155Z</time>
      </trkpt>
      <trkpt lat="47.771" lon="1.98757">
        <ele>124</ele>
        <time>2017-01-22T08:28:09.121Z</time>
      </trkpt>
      <trkpt lat="47.771" lon="1.98757">
        <ele>124</ele>
        <time>2017-01-22T08:28:10.147Z</time>
      </trkpt>
      <trkpt lat="47.7709" lon="1.98762">
        <ele>124</ele>
        <time>2017-01-22T08:28:11.122Z</time>
      </trkpt>
      <trkpt lat="47.7709" lon="1.98762">
        <ele>124</ele>
        <time>2017-01-22T08:28:12.147Z</time>
      </trkpt>
      <trkpt lat="47.7708" lon="1.98765">
        <ele>124</ele>
        <time>2017-01-22T08:28:13.153Z</time>
      </trkpt>
      <trkpt lat="47.77076" lon="1.98767">
        <ele>124</ele>
        <time>2017-01-22T08:28:14.120Z</time>
      </trkpt>
      <trkpt lat="47.77076" lon="1.98767">
        <ele>124</ele>
        <time>2017-01-22T08:28:15.150Z</time>
      </trkpt>
      <trkpt lat="47.77066" lon="1.98771">
        <ele>124</ele>
        <time>2017-01-22T08:28:16.124Z</time>
      </trkpt>
      <trkpt lat="47.77061" lon="1.98773">
        <ele>123</ele>
        <time>2017-01-22T08:28:17.120Z</time>
      </trkpt>
      <trkpt lat="47.77061" lon="1.98773">
        <ele>123</ele>
        <time>2017-01-22T08:28:18.152Z</time>
      </trkpt>
      <trkpt lat="47.7705" lon="1.98776">
        <ele>123</ele>
        <time>2017-01-22T08:28:19.122Z</time>
      </trkpt>
      <trkpt lat="47.7705" lon="1.98776">
        <ele>123</ele>
        <time>2017-01-22T08:28:20.147Z</time>
      </trkpt>
      <trkpt lat="47.7704" lon="1.98779">
        <ele>123</ele>
        <time>2017-01-22T08:28:21.134Z</time>
      </trkpt>
      <trkpt lat="47.7704" lon="1.98779">
        <ele>123</ele>
        <time>2017-01-22T08:28:22.119Z</time>
      </trkpt>
      <trkpt lat="47.7703" lon="1.98783">
        <ele>123</ele>
        <time>2017-01-22T08:28:23.120Z</time>
      </trkpt>
      <trkpt lat="47.77025" lon="1.98784">
        <ele>123</ele>
        <time>2017-01-22T08:28:24.121Z</time>
      </trkpt>
      <trkpt lat="47.77019" lon="1.98786">
        <ele>123</ele>
        <time>2017-01-22T08:28:25.119Z</time>
      </trkpt>
      <trkpt lat="47.77019" lon="1.98786">
        <ele>123</ele>
        <time>2017-01-22T08:28:26.146Z</time>
      </trkpt>
      <trkpt lat="47.77009" lon="1.98789">
        <ele>123</ele>
        <time>2017-01-22T08:28:27.120Z</time>
      </trkpt>
      <trkpt lat="47.77009" lon="1.98789">
        <ele>123</ele>
        <time>2017-01-22T08:28:28.150Z</time>
      </trkpt>
      <trkpt lat="47.76998" lon="1.98793">
        <ele>123</ele>
        <time>2017-01-22T08:28:29.121Z</time>
      </trkpt>
      <trkpt lat="47.76993" lon="1.98794">
        <ele>123</ele>
        <time>2017-01-22T08:28:30.122Z</time>
      </trkpt>
      <trkpt lat="47.76993" lon="1.98794">
        <ele>123</ele>
        <time>2017-01-22T08:28:31.152Z</time>
      </trkpt>
      <trkpt lat="47.76983" lon="1.98798">
        <ele>123</ele>
        <time>2017-01-22T08:28:32.120Z</time>
      </trkpt>
      <trkpt lat="47.76977" lon="1.98799">
        <ele>123</ele>
        <time>2017-01-22T08:28:33.126Z</time>
      </trkpt>
      <trkpt lat="47.76977" lon="1.98799">
        <ele>123</ele>
        <time>2017-01-22T08:28:34.153Z</time>
      </trkpt>
      <trkpt lat="47.76966" lon="1.98802">
        <ele>123</ele>
        <time>2017-01-22T08:28:35.123Z</time>
      </trkpt>
      <trkpt lat="47.76966" lon="1.98802">
        <ele>123</ele>
        <time>2017-01-22T08:28:36.147Z</time>
      </trkpt>
      <trkpt lat="47.76956" lon="1.98806">
        <ele>123</ele>
        <time>2017-01-22T08:28:37.123Z</time>
      </trkpt>
      <trkpt lat="47.76956" lon="1.98806">
        <ele>123</ele>
        <time>2017-01-22T08:28:38.154Z</time>
      </trkpt>
      <trkpt lat="47.76945" lon="1.98809">
        <ele>123</ele>
        <time>2017-01-22T08:28:39.119Z</time>
      </trkpt>
      <trkpt lat="47.76939" lon="1.98811">
        <ele>123</ele>
        <time>2017-01-22T08:28:40.134Z</time>
      </trkpt>
      <trkpt lat="47.76939" lon="1.98811">
        <ele>123</ele>
        <time>2017-01-22T08:28:41.152Z</time>
      </trkpt>
      <trkpt lat="47.76928" lon="1.98814">
        <ele>123</ele>
        <time>2017-01-22T08:28:42.123Z</time>
      </trkpt>
      <trkpt lat="47.76923" lon="1.98815">
        <ele>123</ele>
        <time>2017-01-22T08:28:43.156Z</time>
      </trkpt>
      <trkpt lat="47.76917" lon="1.98817">
        <ele>123</ele>
        <time>2017-01-22T08:28:44.123Z</time>
      </trkpt>
      <trkpt lat="47.76917" lon="1.98817">
        <ele>123</ele>
        <time>2017-01-22T08:28:45.151Z</time>
      </trkpt>
      <trkpt lat="47.76906" lon="1.9882">
        <ele>123</ele>
        <time>2017-01-22T08:28:46.136Z</time>
      </trkpt>
      <trkpt lat="47.76906" lon="1.9882">
        <ele>123</ele>
        <time>2017-01-22T08:28:47.149Z</time>
      </trkpt>
      <trkpt lat="47.76895" lon="1.98823">
        <ele>123</ele>
        <time>2017-01-22T08:28:48.120Z</time>
      </trkpt>
      <trkpt lat="47.7689" lon="1.98824">
        <ele>123</ele>
        <time>2017-01-22T08:28:49.124Z</time>
      </trkpt>
      <trkpt lat="47.76884" lon="1.98825">
        <ele>123</ele>
        <time>2017-01-22T08:28:50.121Z</time>
      </trkpt>
      <trkpt lat="47.76884" lon="1.98825">
        <ele>123</ele>
        <time>2017-01-22T08:28:51.120Z</time>
      </trkpt>
      <trkpt lat="47.76873" lon="1.98829">
        <ele>123</ele>
        <time>2017-01-22T08:28:52.121Z</time>
      </trkpt>
      <trkpt lat="47.76868" lon="1.9883">
        <ele>122</ele>
        <time>2017-01-22T08:28:53.142Z</time>
      </trkpt>
      <trkpt lat="47.76868" lon="1.9883">
        <ele>122</ele>
        <time>2017-01-22T08:28:54.154Z</time>
      </trkpt>
      <trkpt lat="47.76857" lon="1.98833">
        <ele>122</ele>
        <time>2017-01-22T08:28:55.135Z</time>
      </trkpt>
      <trkpt lat="47.76857" lon="1.98833">
        <ele>122</ele>
        <time>2017-01-22T08:28:56.151Z</time>
      </trkpt>
      <trkpt lat="47.76846" lon="1.98836">
        <ele>122</ele>
        <time>2017-01-22T08:28:57.121Z</time>
      </trkpt>
      <trkpt lat="47.76846" lon="1.98836">
        <ele>122</ele>
        <time>2017-01-22T08:28:58.151Z</time>
      </trkpt>
      <trkpt lat="47.76835" lon="1.98839">
        <ele>122</ele>
        <time>2017-01-22T08:28:59.119Z</time>
      </trkpt>
      <trkpt lat="47.76835" lon="1.98839">
        <ele>122</ele>
        <time>2017-01-22T08:29:00.153Z</time>
      </trkpt>
      <trkpt lat="47.76825" lon="1.98842">
        <ele>122</ele>
        <time>2017-01-22T08:29:01.140Z</time>
      </trkpt>
      <trkpt lat="47.76825" lon="1.98842">
        <ele>122</ele>
        <time>2017-01-22T08:29:02.126Z</time>
      </trkpt>
      <trkpt lat="47.76815" lon="1.98844">
        <ele>122</ele>
        <time>2017-01-22T08:29:03.120Z</time>
      </trkpt>
      <trkpt lat="47.7681" lon="1.98845">
        <ele>122</ele>
        <time>2017-01-22T08:29:04.129Z</time>
      </trkpt>
      <trkpt lat="47.7681" lon="1.98845">
        <ele>122</ele>
        <time>2017-01-22T08:29:05.143Z</time>
      </trkpt>
      <trkpt lat="47.768" lon="1.98847">
        <ele>122</ele>
        <time>2017-01-22T08:29:06.120Z</time>
      </trkpt>
      <trkpt lat="47.76795" lon="1.98848">
        <ele>123</ele>
        <time>2017-01-22T08:29:07.121Z</time>
      </trkpt>
      <trkpt lat="47.76795" lon="1.98848">
        <ele>123</ele>
        <time>2017-01-22T08:29:08.150Z</time>
      </trkpt>
      <trkpt lat="47.76786" lon="1.98851">
        <ele>122</ele>
        <time>2017-01-22T08:29:09.153Z</time>
      </trkpt>
      <trkpt lat="47.76786" lon="1.98851">
        <ele>122</ele>
        <time>2017-01-22T08:29:10.147Z</time>
      </trkpt>
      <trkpt lat="47.76775" lon="1.98853">
        <ele>122</ele>
        <time>2017-01-22T08:29:11.122Z</time>
      </trkpt>
      <trkpt lat="47.7677" lon="1.98854">
        <ele>122</ele>
        <time>2017-01-22T08:29:12.121Z</time>
      </trkpt>
      <trkpt lat="47.7677" lon="1.98854">
        <ele>122</ele>
        <time>2017-01-22T08:29:13.144Z</time>
      </trkpt>
      <trkpt lat="47.76759" lon="1.98858">
        <ele>122</ele>
        <time>2017-01-22T08:29:14.124Z</time>
      </trkpt>
      <trkpt lat="47.76753" lon="1.98859">
        <ele>122</ele>
        <time>2017-01-22T08:29:15.123Z</time>
      </trkpt>
      <trkpt lat="47.76753" lon="1.98859">
        <ele>122</ele>
        <time>2017-01-22T08:29:16.151Z</time>
      </trkpt>
      <trkpt lat="47.76742" lon="1.98862">
        <ele>122</ele>
        <time>2017-01-22T08:29:17.123Z</time>
      </trkpt>
      <trkpt lat="47.76737" lon="1.98863">
        <ele>122</ele>
        <time>2017-01-22T08:29:18.120Z</time>
      </trkpt>
      <trkpt lat="47.76732" lon="1.98864">
        <ele>122</ele>
        <time>2017-01-22T08:29:19.142Z</time>
      </trkpt>
      <trkpt lat="47.76732" lon="1.98864">
        <ele>122</ele>
        <time>2017-01-22T08:29:20.125Z</time>
      </trkpt>
      <trkpt lat="47.76722" lon="1.98865">
        <ele>122</ele>
        <time>2017-01-22T08:29:21.120Z</time>
      </trkpt>
      <trkpt lat="47.76722" lon="1.98865">
        <ele>122</ele>
        <time>2017-01-22T08:29:22.150Z</time>
      </trkpt>
      <trkpt lat="47.76711" lon="1.98867">
        <ele>122</ele>
        <time>2017-01-22T08:29:23.150Z</time>
      </trkpt>
      <trkpt lat="47.76707" lon="1.98868">
        <ele>122</ele>
        <time>2017-01-22T08:29:24.120Z</time>
      </trkpt>
      <trkpt lat="47.76702" lon="1.98869">
        <ele>122</ele>
        <time>2017-01-22T08:29:25.124Z</time>
      </trkpt>
      <trkpt lat="47.76702" lon="1.98869">
        <ele>122</ele>
        <time>2017-01-22T08:29:26.150Z</time>
      </trkpt>
      <trkpt lat="47.76691" lon="1.98871">
        <ele>122</ele>
        <time>2017-01-22T08:29:27.123Z</time>
      </trkpt>
      <trkpt lat="47.76691" lon="1.98871">
        <ele>122</ele>
        <time>2017-01-22T08:29:28.147Z</time>
      </trkpt>
      <trkpt lat="47.76681" lon="1.98872">
        <ele>122</ele>
        <time>2017-01-22T08:29:29.132Z</time>
      </trkpt>
      <trkpt lat="47.76676" lon="1.98873">
        <ele>122</ele>
        <time>2017-01-22T08:29:30.147Z</time>
      </trkpt>
      <trkpt lat="47.76676" lon="1.98873">
        <ele>122</ele>
        <time>2017-01-22T08:29:31.128Z</time>
      </trkpt>
      <trkpt lat="47.76668" lon="1.98879">
        <ele>121</ele>
        <time>2017-01-22T08:29:32.134Z</time>
      </trkpt>
      <trkpt lat="47.76668" lon="1.98879">
        <ele>121</ele>
        <time>2017-01-22T08:29:33.156Z</time>
      </trkpt>
      <trkpt lat="47.76666" lon="1.98884">
        <ele>121</ele>
        <time>2017-01-22T08:29:34.132Z</time>
      </trkpt>
      <trkpt lat="47.76666" lon="1.98884">
        <ele>121</ele>
        <time>2017-01-22T08:29:35.155Z</time>
      </trkpt>
      <trkpt lat="47.76666" lon="1.98886">
        <ele>121</ele>
        <time>2017-01-22T08:29:36.124Z</time>
      </trkpt>
      <trkpt lat="47.76666" lon="1.98886">
        <ele>121</ele>
        <time>2017-01-22T08:29:37.154Z</time>
      </trkpt>
      <trkpt lat="47.76665" lon="1.98889">
        <ele>122</ele>
        <time>2017-01-22T08:29:38.123Z</time>
      </trkpt>
      <trkpt lat="47.76664" lon="1.98892">
        <ele>122</ele>
        <time>2017-01-22T08:29:39.154Z</time>
      </trkpt>
      <trkpt lat="47.76664" lon="1.98892">
        <ele>122</ele>
        <time>2017-01-22T08:29:40.148Z</time>
      </trkpt>
      <trkpt lat="47.76664" lon="1.98893">
        <ele>122</ele>
        <time>2017-01-22T08:29:41.153Z</time>
      </trkpt>
      <trkpt lat="47.76664" lon="1.98893">
        <ele>122</ele>
        <time>2017-01-22T08:29:42.154Z</time>
      </trkpt>
      <trkpt lat="47.76664" lon="1.98893">
        <ele>122</ele>
        <time>2017-01-22T08:29:43.140Z</time>
      </trkpt>
      <trkpt lat="47.76668" lon="1.98889">
        <ele>122</ele>
        <time>2017-01-22T08:29:44.143Z</time>
      </trkpt>
      <trkpt lat="47.76668" lon="1.98889">
        <ele>122</ele>
        <time>2017-01-22T08:29:45.145Z</time>
      </trkpt>
      <trkpt lat="47.76671" lon="1.98888">
        <ele>122</ele>
        <time>2017-01-22T08:29:46.132Z</time>
      </trkpt>
      <trkpt lat="47.76672" lon="1.98888">
        <ele>122</ele>
        <time>2017-01-22T08:29:47.133Z</time>
      </trkpt>
      <trkpt lat="47.76672" lon="1.98888">
        <ele>122</ele>
        <time>2017-01-22T08:29:48.127Z</time>
      </trkpt>
      <trkpt lat="47.76675" lon="1.9889">
        <ele>122</ele>
        <time>2017-01-22T08:29:49.133Z</time>
      </trkpt>
      <trkpt lat="47.76675" lon="1.9889">
        <ele>122</ele>
        <time>2017-01-22T08:29:50.140Z</time>
      </trkpt>
      <trkpt lat="47.76679" lon="1.98892">
        <ele>122</ele>
        <time>2017-01-22T08:29:51.119Z</time>
      </trkpt>
      <trkpt lat="47.76682" lon="1.98893">
        <ele>122</ele>
        <time>2017-01-22T08:29:52.135Z</time>
      </trkpt>
      <trkpt lat="47.76682" lon="1.98893">
        <ele>122</ele>
        <time>2017-01-22T08:29:53.148Z</time>
      </trkpt>
      <trkpt lat="47.76686" lon="1.98899">
        <ele>122</ele>
        <time>2017-01-22T08:29:54.119Z</time>
      </trkpt>
      <trkpt lat="47.76686" lon="1.98899">
        <ele>122</ele>
        <time>2017-01-22T08:29:55.156Z</time>
      </trkpt>
      <trkpt lat="47.76687" lon="1.98908">
        <ele>123</ele>
        <time>2017-01-22T08:29:56.129Z</time>
      </trkpt>
      <trkpt lat="47.76687" lon="1.98908">
        <ele>123</ele>
        <time>2017-01-22T08:29:57.157Z</time>
      </trkpt>
      <trkpt lat="47.7669" lon="1.98917">
        <ele>123</ele>
        <time>2017-01-22T08:29:58.133Z</time>
      </trkpt>
      <trkpt lat="47.7669" lon="1.98917">
        <ele>123</ele>
        <time>2017-01-22T08:29:59.140Z</time>
      </trkpt>
      <trkpt lat="47.76693" lon="1.98927">
        <ele>123</ele>
        <time>2017-01-22T08:30:00.152Z</time>
      </trkpt>
      <trkpt lat="47.76693" lon="1.98927">
        <ele>123</ele>
        <time>2017-01-22T08:30:01.137Z</time>
      </trkpt>
      <trkpt lat="47.76695" lon="1.98938">
        <ele>124</ele>
        <time>2017-01-22T08:30:02.151Z</time>
      </trkpt>
      <trkpt lat="47.76696" lon="1.98944">
        <ele>125</ele>
        <time>2017-01-22T08:30:03.150Z</time>
      </trkpt>
      <trkpt lat="47.76696" lon="1.98944">
        <ele>125</ele>
        <time>2017-01-22T08:30:04.148Z</time>
      </trkpt>
      <trkpt lat="47.76699" lon="1.98957">
        <ele>124</ele>
        <time>2017-01-22T08:30:05.155Z</time>
      </trkpt>
      <trkpt lat="47.76701" lon="1.98963">
        <ele>124</ele>
        <time>2017-01-22T08:30:06.133Z</time>
      </trkpt>
      <trkpt lat="47.76701" lon="1.98963">
        <ele>124</ele>
        <time>2017-01-22T08:30:07.156Z</time>
      </trkpt>
      <trkpt lat="47.76704" lon="1.98976">
        <ele>124</ele>
        <time>2017-01-22T08:30:08.139Z</time>
      </trkpt>
      <trkpt lat="47.76705" lon="1.98982">
        <ele>124</ele>
        <time>2017-01-22T08:30:09.142Z</time>
      </trkpt>
      <trkpt lat="47.76705" lon="1.98982">
        <ele>124</ele>
        <time>2017-01-22T08:30:10.140Z</time>
      </trkpt>
      <trkpt lat="47.76709" lon="1.98995">
        <ele>124</ele>
        <time>2017-01-22T08:30:11.118Z</time>
      </trkpt>
      <trkpt lat="47.76709" lon="1.98995">
        <ele>124</ele>
        <time>2017-01-22T08:30:12.148Z</time>
      </trkpt>
      <trkpt lat="47.76712" lon="1.99008">
        <ele>124</ele>
        <time>2017-01-22T08:30:13.145Z</time>
      </trkpt>
      <trkpt lat="47.76712" lon="1.99008">
        <ele>124</ele>
        <time>2017-01-22T08:30:14.154Z</time>
      </trkpt>
      <trkpt lat="47.76716" lon="1.99021">
        <ele>124</ele>
        <time>2017-01-22T08:30:15.135Z</time>
      </trkpt>
      <trkpt lat="47.76716" lon="1.99021">
        <ele>124</ele>
        <time>2017-01-22T08:30:16.140Z</time>
      </trkpt>
      <trkpt lat="47.76719" lon="1.99034">
        <ele>124</ele>
        <time>2017-01-22T08:30:17.154Z</time>
      </trkpt>
      <trkpt lat="47.76719" lon="1.99034">
        <ele>124</ele>
        <time>2017-01-22T08:30:18.143Z</time>
      </trkpt>
      <trkpt lat="47.76722" lon="1.99046">
        <ele>125</ele>
        <time>2017-01-22T08:30:19.155Z</time>
      </trkpt>
      <trkpt lat="47.76722" lon="1.99046">
        <ele>125</ele>
        <time>2017-01-22T08:30:20.141Z</time>
      </trkpt>
      <trkpt lat="47.76725" lon="1.99059">
        <ele>125</ele>
        <time>2017-01-22T08:30:21.157Z</time>
      </trkpt>
      <trkpt lat="47.76725" lon="1.99059">
        <ele>125</ele>
        <time>2017-01-22T08:30:22.153Z</time>
      </trkpt>
      <trkpt lat="47.76728" lon="1.99072">
        <ele>125</ele>
        <time>2017-01-22T08:30:23.151Z</time>
      </trkpt>
      <trkpt lat="47.76728" lon="1.99072">
        <ele>125</ele>
        <time>2017-01-22T08:30:24.141Z</time>
      </trkpt>
      <trkpt lat="47.76731" lon="1.99084">
        <ele>125</ele>
        <time>2017-01-22T08:30:25.151Z</time>
      </trkpt>
      <trkpt lat="47.76731" lon="1.99084">
        <ele>125</ele>
        <time>2017-01-22T08:30:26.157Z</time>
      </trkpt>
      <trkpt lat="47.76735" lon="1.99096">
        <ele>125</ele>
        <time>2017-01-22T08:30:27.151Z</time>
      </trkpt>
      <trkpt lat="47.76735" lon="1.99096">
        <ele>125</ele>
        <time>2017-01-22T08:30:28.136Z</time>
      </trkpt>
      <trkpt lat="47.76738" lon="1.99108">
        <ele>125</ele>
        <time>2017-01-22T08:30:29.131Z</time>
      </trkpt>
      <trkpt lat="47.76738" lon="1.99108">
        <ele>125</ele>
        <time>2017-01-22T08:30:30.118Z</time>
      </trkpt>
      <trkpt lat="47.76741" lon="1.99121">
        <ele>125</ele>
        <time>2017-01-22T08:30:31.134Z</time>
      </trkpt>
      <trkpt lat="47.76743" lon="1.99127">
        <ele>125</ele>
        <time>2017-01-22T08:30:32.154Z</time>
      </trkpt>
      <trkpt lat="47.76743" lon="1.99127">
        <ele>125</ele>
        <time>2017-01-22T08:30:33.136Z</time>
      </trkpt>
      <trkpt lat="47.76746" lon="1.99138">
        <ele>125</ele>
        <time>2017-01-22T08:30:34.155Z</time>
      </trkpt>
      <trkpt lat="47.76746" lon="1.99138">
        <ele>125</ele>
        <time>2017-01-22T08:30:35.118Z</time>
      </trkpt>
      <trkpt lat="47.76749" lon="1.9915">
        <ele>125</ele>
        <time>2017-01-22T08:30:36.135Z</time>
      </trkpt>
      <trkpt lat="47.76749" lon="1.9915">
        <ele>125</ele>
        <time>2017-01-22T08:30:37.152Z</time>
      </trkpt>
      <trkpt lat="47.76752" lon="1.99162">
        <ele>126</ele>
        <time>2017-01-22T08:30:38.123Z</time>
      </trkpt>
      <trkpt lat="47.76754" lon="1.99168">
        <ele>126</ele>
        <time>2017-01-22T08:30:39.151Z</time>
      </trkpt>
      <trkpt lat="47.76754" lon="1.99168">
        <ele>126</ele>
        <time>2017-01-22T08:30:40.139Z</time>
      </trkpt>
      <trkpt lat="47.76757" lon="1.99179">
        <ele>126</ele>
        <time>2017-01-22T08:30:41.135Z</time>
      </trkpt>
      <trkpt lat="47.76758" lon="1.99185">
        <ele>126</ele>
        <time>2017-01-22T08:30:42.154Z</time>
      </trkpt>
      <trkpt lat="47.76758" lon="1.99185">
        <ele>126</ele>
        <time>2017-01-22T08:30:43.141Z</time>
      </trkpt>
      <trkpt lat="47.76761" lon="1.99196">
        <ele>126</ele>
        <time>2017-01-22T08:30:44.155Z</time>
      </trkpt>
      <trkpt lat="47.76762" lon="1.99201">
        <ele>126</ele>
        <time>2017-01-22T08:30:45.134Z</time>
      </trkpt>
      <trkpt lat="47.76762" lon="1.99201">
        <ele>126</ele>
        <time>2017-01-22T08:30:46.142Z</time>
      </trkpt>
      <trkpt lat="47.76763" lon="1.99212">
        <ele>125</ele>
        <time>2017-01-22T08:30:47.155Z</time>
      </trkpt>
      <trkpt lat="47.76763" lon="1.99212">
        <ele>125</ele>
        <time>2017-01-22T08:30:48.140Z</time>
      </trkpt>
      <trkpt lat="47.76761" lon="1.99223">
        <ele>126</ele>
        <time>2017-01-22T08:30:49.151Z</time>
      </trkpt>
      <trkpt lat="47.76761" lon="1.99223">
        <ele>126</ele>
        <time>2017-01-22T08:30:50.156Z</time>
      </trkpt>
      <trkpt lat="47.76761" lon="1.99233">
        <ele>125</ele>
        <time>2017-01-22T08:30:51.128Z</time>
      </trkpt>
      <trkpt lat="47.76762" lon="1.99239">
        <ele>125</ele>
        <time>2017-01-22T08:30:52.124Z</time>
      </trkpt>
      <trkpt lat="47.76762" lon="1.99239">
        <ele>125</ele>
        <time>2017-01-22T08:30:53.141Z</time>
      </trkpt>
      <trkpt lat="47.76765" lon="1.99249">
        <ele>126</ele>
        <time>2017-01-22T08:30:54.124Z</time>
      </trkpt>
      <trkpt lat="47.76767" lon="1.99255">
        <ele>126</ele>
        <time>2017-01-22T08:30:55.155Z</time>
      </trkpt>
      <trkpt lat="47.76767" lon="1.99255">
        <ele>126</ele>
        <time>2017-01-22T08:30:56.139Z</time>
      </trkpt>
      <trkpt lat="47.7677" lon="1.99265">
        <ele>126</ele>
        <time>2017-01-22T08:30:57.150Z</time>
      </trkpt>
      <trkpt lat="47.7677" lon="1.99265">
        <ele>126</ele>
        <time>2017-01-22T08:30:58.134Z</time>
      </trkpt>
      <trkpt lat="47.76773" lon="1.99276">
        <ele>126</ele>
        <time>2017-01-22T08:30:59.154Z</time>
      </trkpt>
      <trkpt lat="47.76773" lon="1.99276">
        <ele>126</ele>
        <time>2017-01-22T08:31:00.140Z</time>
      </trkpt>
      <trkpt lat="47.76776" lon="1.99287">
        <ele>127</ele>
        <time>2017-01-22T08:31:01.155Z</time>
      </trkpt>
      <trkpt lat="47.76776" lon="1.99287">
        <ele>127</ele>
        <time>2017-01-22T08:31:02.140Z</time>
      </trkpt>
      <trkpt lat="47.76779" lon="1.99298">
        <ele>127</ele>
        <time>2017-01-22T08:31:03.158Z</time>
      </trkpt>
      <trkpt lat="47.76779" lon="1.99298">
        <ele>127</ele>
        <time>2017-01-22T08:31:04.155Z</time>
      </trkpt>
      <trkpt lat="47.76782" lon="1.99309">
        <ele>127</ele>
        <time>2017-01-22T08:31:05.135Z</time>
      </trkpt>
      <trkpt lat="47.76783" lon="1.99315">
        <ele>127</ele>
        <time>2017-01-22T08:31:06.142Z</time>
      </trkpt>
      <trkpt lat="47.76783" lon="1.99315">
        <ele>127</ele>
        <time>2017-01-22T08:31:07.138Z</time>
      </trkpt>
      <trkpt lat="47.76786" lon="1.99327">
        <ele>127</ele>
        <time>2017-01-22T08:31:08.155Z</time>
      </trkpt>
      <trkpt lat="47.76786" lon="1.99327">
        <ele>127</ele>
        <time>2017-01-22T08:31:09.134Z</time>
      </trkpt>
      <trkpt lat="47.76789" lon="1.99339">
        <ele>127</ele>
        <time>2017-01-22T08:31:10.154Z</time>
      </trkpt>
      <trkpt lat="47.76789" lon="1.99339">
        <ele>127</ele>
        <time>2017-01-22T08:31:11.140Z</time>
      </trkpt>
      <trkpt lat="47.76792" lon="1.99351">
        <ele>127</ele>
        <time>2017-01-22T08:31:12.154Z</time>
      </trkpt>
      <trkpt lat="47.76793" lon="1.99357">
        <ele>127</ele>
        <time>2017-01-22T08:31:13.125Z</time>
      </trkpt>
      <trkpt lat="47.76794" lon="1.99362">
        <ele>127</ele>
        <time>2017-01-22T08:31:14.155Z</time>
      </trkpt>
      <trkpt lat="47.76794" lon="1.99362">
        <ele>127</ele>
        <time>2017-01-22T08:31:15.152Z</time>
      </trkpt>
      <trkpt lat="47.76797" lon="1.99373">
        <ele>128</ele>
        <time>2017-01-22T08:31:16.154Z</time>
      </trkpt>
      <trkpt lat="47.76797" lon="1.99373">
        <ele>128</ele>
        <time>2017-01-22T08:31:17.139Z</time>
      </trkpt>
      <trkpt lat="47.768" lon="1.99384">
        <ele>128</ele>
        <time>2017-01-22T08:31:18.144Z</time>
      </trkpt>
      <trkpt lat="47.76802" lon="1.9939">
        <ele>127</ele>
        <time>2017-01-22T08:31:19.153Z</time>
      </trkpt>
      <trkpt lat="47.76802" lon="1.9939">
        <ele>127</ele>
        <time>2017-01-22T08:31:20.140Z</time>
      </trkpt>
      <trkpt lat="47.76804" lon="1.99403">
        <ele>128</ele>
        <time>2017-01-22T08:31:21.147Z</time>
      </trkpt>
      <trkpt lat="47.76804" lon="1.99403">
        <ele>128</ele>
        <time>2017-01-22T08:31:22.139Z</time>
      </trkpt>
      <trkpt lat="47.76808" lon="1.99416">
        <ele>128</ele>
        <time>2017-01-22T08:31:23.151Z</time>
      </trkpt>
      <trkpt lat="47.76809" lon="1.99422">
        <ele>128</ele>
        <time>2017-01-22T08:31:24.153Z</time>
      </trkpt>
      <trkpt lat="47.76809" lon="1.99422">
        <ele>128</ele>
        <time>2017-01-22T08:31:25.139Z</time>
      </trkpt>
      <trkpt lat="47.76813" lon="1.99435">
        <ele>128</ele>
        <time>2017-01-22T08:31:26.123Z</time>
      </trkpt>
      <trkpt lat="47.76816" lon="1.99441">
        <ele>128</ele>
        <time>2017-01-22T08:31:27.151Z</time>
      </trkpt>
      <trkpt lat="47.76816" lon="1.99441">
        <ele>128</ele>
        <time>2017-01-22T08:31:28.153Z</time>
      </trkpt>
      <trkpt lat="47.7682" lon="1.99454">
        <ele>128</ele>
        <time>2017-01-22T08:31:29.151Z</time>
      </trkpt>
      <trkpt lat="47.7682" lon="1.99454">
        <ele>128</ele>
        <time>2017-01-22T08:31:30.140Z</time>
      </trkpt>
      <trkpt lat="47.76824" lon="1.99467">
        <ele>127</ele>
        <time>2017-01-22T08:31:31.154Z</time>
      </trkpt>
      <trkpt lat="47.76826" lon="1.99473">
        <ele>127</ele>
        <time>2017-01-22T08:31:32.146Z</time>
      </trkpt>
      <trkpt lat="47.76826" lon="1.99473">
        <ele>127</ele>
        <time>2017-01-22T08:31:33.153Z</time>
      </trkpt>
      <trkpt lat="47.76831" lon="1.99486">
        <ele>127</ele>
        <time>2017-01-22T08:31:34.123Z</time>
      </trkpt>
      <trkpt lat="47.76831" lon="1.99486">
        <ele>127</ele>
        <time>2017-01-22T08:31:35.137Z</time>
      </trkpt>
      <trkpt lat="47.76836" lon="1.99499">
        <ele>127</ele>
        <time>2017-01-22T08:31:36.155Z</time>
      </trkpt>
      <trkpt lat="47.76836" lon="1.99499">
        <ele>127</ele>
        <time>2017-01-22T08:31:37.140Z</time>
      </trkpt>
      <trkpt lat="47.7684" lon="1.99513">
        <ele>127</ele>
        <time>2017-01-22T08:31:38.122Z</time>
      </trkpt>
      <trkpt lat="47.76842" lon="1.9952">
        <ele>128</ele>
        <time>2017-01-22T08:31:39.151Z</time>
      </trkpt>
      <trkpt lat="47.76842" lon="1.9952">
        <ele>128</ele>
        <time>2017-01-22T08:31:40.146Z</time>
      </trkpt>
      <trkpt lat="47.76846" lon="1.99534">
        <ele>127</ele>
        <time>2017-01-22T08:31:41.152Z</time>
      </trkpt>
      <trkpt lat="47.76846" lon="1.99534">
        <ele>127</ele>
        <time>2017-01-22T08:31:42.142Z</time>
      </trkpt>
      <trkpt lat="47.76849" lon="1.99548">
        <ele>128</ele>
        <time>2017-01-22T08:31:43.154Z</time>
      </trkpt>
      <trkpt lat="47.76849" lon="1.99548">
        <ele>128</ele>
        <time>2017-01-22T08:31:44.140Z</time>
      </trkpt>
      <trkpt lat="47.76853" lon="1.99561">
        <ele>128</ele>
        <time>2017-01-22T08:31:45.152Z</time>
      </trkpt>
      <trkpt lat="47.76853" lon="1.99561">
        <ele>128</ele>
        <time>2017-01-22T08:31:46.145Z</time>
      </trkpt>
      <trkpt lat="47.76857" lon="1.99573">
        <ele>128</ele>
        <time>2017-01-22T08:31:47.155Z</time>
      </trkpt>
      <trkpt lat="47.76857" lon="1.99573">
        <ele>128</ele>
        <time>2017-01-22T08:31:48.140Z</time>
      </trkpt>
      <trkpt lat="47.76862" lon="1.99586">
        <ele>128</ele>
        <time>2017-01-22T08:31:49.158Z</time>
      </trkpt>
      <trkpt lat="47.76862" lon="1.99586">
        <ele>128</ele>
        <time>2017-01-22T08:31:50.157Z</time>
      </trkpt>
      <trkpt lat="47.76867" lon="1.99599">
        <ele>127</ele>
        <time>2017-01-22T08:31:51.151Z</time>
      </trkpt>
      <trkpt lat="47.76867" lon="1.99599">
        <ele>127</ele>
        <time>2017-01-22T08:31:52.142Z</time>
      </trkpt>
      <trkpt lat="47.76872" lon="1.99611">
        <ele>127</ele>
        <time>2017-01-22T08:31:53.138Z</time>
      </trkpt>
      <trkpt lat="47.76875" lon="1.99617">
        <ele>127</ele>
        <time>2017-01-22T08:31:54.141Z</time>
      </trkpt>
      <trkpt lat="47.76875" lon="1.99617">
        <ele>127</ele>
        <time>2017-01-22T08:31:55.121Z</time>
      </trkpt>
      <trkpt lat="47.76881" lon="1.99628">
        <ele>127</ele>
        <time>2017-01-22T08:31:56.154Z</time>
      </trkpt>
      <trkpt lat="47.76883" lon="1.99634">
        <ele>127</ele>
        <time>2017-01-22T08:31:57.154Z</time>
      </trkpt>
      <trkpt lat="47.76883" lon="1.99634">
        <ele>127</ele>
        <time>2017-01-22T08:31:58.125Z</time>
      </trkpt>
      <trkpt lat="47.76888" lon="1.99646">
        <ele>126</ele>
        <time>2017-01-22T08:31:59.153Z</time>
      </trkpt>
      <trkpt lat="47.76888" lon="1.99646">
        <ele>126</ele>
        <time>2017-01-22T08:32:00.141Z</time>
      </trkpt>
      <trkpt lat="47.76894" lon="1.99657">
        <ele>127</ele>
        <time>2017-01-22T08:32:01.154Z</time>
      </trkpt>
      <trkpt lat="47.76894" lon="1.99657">
        <ele>127</ele>
        <time>2017-01-22T08:32:02.141Z</time>
      </trkpt>
      <trkpt lat="47.76899" lon="1.99669">
        <ele>127</ele>
        <time>2017-01-22T08:32:03.156Z</time>
      </trkpt>
      <trkpt lat="47.76899" lon="1.99669">
        <ele>127</ele>
        <time>2017-01-22T08:32:04.141Z</time>
      </trkpt>
      <trkpt lat="47.76904" lon="1.9968">
        <ele>127</ele>
        <time>2017-01-22T08:32:05.125Z</time>
      </trkpt>
      <trkpt lat="47.76904" lon="1.9968">
        <ele>127</ele>
        <time>2017-01-22T08:32:06.140Z</time>
      </trkpt>
      <trkpt lat="47.76908" lon="1.99692">
        <ele>126</ele>
        <time>2017-01-22T08:32:07.155Z</time>
      </trkpt>
      <trkpt lat="47.76908" lon="1.99692">
        <ele>126</ele>
        <time>2017-01-22T08:32:08.140Z</time>
      </trkpt>
      <trkpt lat="47.76913" lon="1.99704">
        <ele>127</ele>
        <time>2017-01-22T08:32:09.155Z</time>
      </trkpt>
      <trkpt lat="47.76913" lon="1.99704">
        <ele>127</ele>
        <time>2017-01-22T08:32:10.143Z</time>
      </trkpt>
      <trkpt lat="47.76919" lon="1.99715">
        <ele>127</ele>
        <time>2017-01-22T08:32:11.151Z</time>
      </trkpt>
      <trkpt lat="47.76919" lon="1.99715">
        <ele>127</ele>
        <time>2017-01-22T08:32:12.152Z</time>
      </trkpt>
      <trkpt lat="47.76924" lon="1.99727">
        <ele>127</ele>
        <time>2017-01-22T08:32:13.119Z</time>
      </trkpt>
      <trkpt lat="47.76926" lon="1.99732">
        <ele>127</ele>
        <time>2017-01-22T08:32:14.145Z</time>
      </trkpt>
      <trkpt lat="47.76928" lon="1.99737">
        <ele>126</ele>
        <time>2017-01-22T08:32:15.124Z</time>
      </trkpt>
      <trkpt lat="47.76928" lon="1.99737">
        <ele>126</ele>
        <time>2017-01-22T08:32:16.142Z</time>
      </trkpt>
      <trkpt lat="47.76932" lon="1.99747">
        <ele>126</ele>
        <time>2017-01-22T08:32:17.151Z</time>
      </trkpt>
      <trkpt lat="47.76932" lon="1.99747">
        <ele>126</ele>
        <time>2017-01-22T08:32:18.147Z</time>
      </trkpt>
      <trkpt lat="47.76936" lon="1.99758">
        <ele>126</ele>
        <time>2017-01-22T08:32:19.136Z</time>
      </trkpt>
      <trkpt lat="47.76936" lon="1.99758">
        <ele>126</ele>
        <time>2017-01-22T08:32:20.145Z</time>
      </trkpt>
      <trkpt lat="47.76939" lon="1.99768">
        <ele>126</ele>
        <time>2017-01-22T08:32:21.154Z</time>
      </trkpt>
      <trkpt lat="47.76939" lon="1.99768">
        <ele>126</ele>
        <time>2017-01-22T08:32:22.140Z</time>
      </trkpt>
      <trkpt lat="47.76942" lon="1.99778">
        <ele>126</ele>
        <time>2017-01-22T08:32:23.145Z</time>
      </trkpt>
      <trkpt lat="47.76943" lon="1.99783">
        <ele>126</ele>
        <time>2017-01-22T08:32:24.150Z</time>
      </trkpt>
      <trkpt lat="47.76944" lon="1.99787">
        <ele>126</ele>
        <time>2017-01-22T08:32:25.124Z</time>
      </trkpt>
      <trkpt lat="47.76944" lon="1.99787">
        <ele>126</ele>
        <time>2017-01-22T08:32:26.148Z</time>
      </trkpt>
      <trkpt lat="47.76945" lon="1.99794">
        <ele>126</ele>
        <time>2017-01-22T08:32:27.155Z</time>
      </trkpt>
      <trkpt lat="47.76945" lon="1.99794">
        <ele>126</ele>
        <time>2017-01-22T08:32:28.140Z</time>
      </trkpt>
      <trkpt lat="47.76946" lon="1.99799">
        <ele>126</ele>
        <time>2017-01-22T08:32:29.151Z</time>
      </trkpt>
      <trkpt lat="47.76947" lon="1.99799">
        <ele>127</ele>
        <time>2017-01-22T08:32:30.135Z</time>
      </trkpt>
      <trkpt lat="47.76947" lon="1.99799">
        <ele>127</ele>
        <time>2017-01-22T08:32:31.119Z</time>
      </trkpt>
      <trkpt lat="47.76947" lon="1.99796">
        <ele>127</ele>
        <time>2017-01-22T08:32:32.155Z</time>
      </trkpt>
      <trkpt lat="47.76946" lon="1.99795">
        <ele>127</ele>
        <time>2017-01-22T08:32:33.152Z</time>
      </trkpt>
      <trkpt lat="47.76946" lon="1.99795">
        <ele>127</ele>
        <time>2017-01-22T08:32:34.142Z</time>
      </trkpt>
      <trkpt lat="47.76946" lon="1.99791">
        <ele>127</ele>
        <time>2017-01-22T08:32:35.143Z</time>
      </trkpt>
      <trkpt lat="47.76946" lon="1.99791">
        <ele>127</ele>
        <time>2017-01-22T08:32:36.138Z</time>
      </trkpt>
      <trkpt lat="47.76946" lon="1.99787">
        <ele>127</ele>
        <time>2017-01-22T08:32:37.144Z</time>
      </trkpt>
      <trkpt lat="47.76946" lon="1.99787">
        <ele>127</ele>
        <time>2017-01-22T08:32:38.145Z</time>
      </trkpt>
      <trkpt lat="47.76945" lon="1.99783">
        <ele>128</ele>
        <time>2017-01-22T08:32:39.140Z</time>
      </trkpt>
      <trkpt lat="47.76944" lon="1.99779">
        <ele>128</ele>
        <time>2017-01-22T08:32:40.155Z</time>
      </trkpt>
      <trkpt lat="47.76943" lon="1.99775">
        <ele>128</ele>
        <time>2017-01-22T08:32:41.155Z</time>
      </trkpt>
      <trkpt lat="47.76943" lon="1.99775">
        <ele>128</ele>
        <time>2017-01-22T08:32:42.144Z</time>
      </trkpt>
      <trkpt lat="47.76941" lon="1.99766">
        <ele>128</ele>
        <time>2017-01-22T08:32:43.155Z</time>
      </trkpt>
      <trkpt lat="47.7694" lon="1.99761">
        <ele>128</ele>
        <time>2017-01-22T08:32:44.153Z</time>
      </trkpt>
      <trkpt lat="47.7694" lon="1.99761">
        <ele>128</ele>
        <time>2017-01-22T08:32:45.140Z</time>
      </trkpt>
      <trkpt lat="47.76936" lon="1.99751">
        <ele>128</ele>
        <time>2017-01-22T08:32:46.155Z</time>
      </trkpt>
      <trkpt lat="47.76934" lon="1.99746">
        <ele>128</ele>
        <time>2017-01-22T08:32:47.155Z</time>
      </trkpt>
      <trkpt lat="47.76932" lon="1.99741">
        <ele>128</ele>
        <time>2017-01-22T08:32:48.154Z</time>
      </trkpt>
      <trkpt lat="47.76932" lon="1.99741">
        <ele>128</ele>
        <time>2017-01-22T08:32:49.135Z</time>
      </trkpt>
      <trkpt lat="47.76928" lon="1.9973">
        <ele>128</ele>
        <time>2017-01-22T08:32:50.151Z</time>
      </trkpt>
      <trkpt lat="47.76928" lon="1.9973">
        <ele>128</ele>
        <time>2017-01-22T08:32:51.143Z</time>
      </trkpt>
      <trkpt lat="47.76923" lon="1.99719">
        <ele>128</ele>
        <time>2017-01-22T08:32:52.154Z</time>
      </trkpt>
      <trkpt lat="47.76923" lon="1.99719">
        <ele>128</ele>
        <time>2017-01-22T08:32:53.140Z</time>
      </trkpt>
      <trkpt lat="47.76918" lon="1.99707">
        <ele>127</ele>
        <time>2017-01-22T08:32:54.154Z</time>
      </trkpt>
      <trkpt lat="47.76918" lon="1.99707">
        <ele>127</ele>
        <time>2017-01-22T08:32:55.142Z</time>
      </trkpt>
      <trkpt lat="47.76913" lon="1.99696">
        <ele>127</ele>
        <time>2017-01-22T08:32:56.160Z</time>
      </trkpt>
      <trkpt lat="47.7691" lon="1.9969">
        <ele>127</ele>
        <time>2017-01-22T08:32:57.155Z</time>
      </trkpt>
      <trkpt lat="47.7691" lon="1.9969">
        <ele>127</ele>
        <time>2017-01-22T08:32:58.141Z</time>
      </trkpt>
      <trkpt lat="47.76904" lon="1.99679">
        <ele>127</ele>
        <time>2017-01-22T08:32:59.157Z</time>
      </trkpt>
      <trkpt lat="47.76902" lon="1.99673">
        <ele>127</ele>
        <time>2017-01-22T08:33:00.158Z</time>
      </trkpt>
      <trkpt lat="47.76899" lon="1.99667">
        <ele>127</ele>
        <time>2017-01-22T08:33:01.144Z</time>
      </trkpt>
      <trkpt lat="47.76899" lon="1.99667">
        <ele>127</ele>
        <time>2017-01-22T08:33:02.140Z</time>
      </trkpt>
      <trkpt lat="47.76894" lon="1.99656">
        <ele>128</ele>
        <time>2017-01-22T08:33:03.155Z</time>
      </trkpt>
      <trkpt lat="47.76894" lon="1.99656">
        <ele>128</ele>
        <time>2017-01-22T08:33:04.140Z</time>
      </trkpt>
      <trkpt lat="47.76888" lon="1.99644">
        <ele>128</ele>
        <time>2017-01-22T08:33:05.146Z</time>
      </trkpt>
      <trkpt lat="47.76888" lon="1.99644">
        <ele>128</ele>
        <time>2017-01-22T08:33:06.152Z</time>
      </trkpt>
      <trkpt lat="47.76883" lon="1.99633">
        <ele>127</ele>
        <time>2017-01-22T08:33:07.124Z</time>
      </trkpt>
      <trkpt lat="47.76881" lon="1.99627">
        <ele>127</ele>
        <time>2017-01-22T08:33:08.125Z</time>
      </trkpt>
      <trkpt lat="47.76881" lon="1.99627">
        <ele>127</ele>
        <time>2017-01-22T08:33:09.154Z</time>
      </trkpt>
      <trkpt lat="47.76875" lon="1.99616">
        <ele>128</ele>
        <time>2017-01-22T08:33:10.150Z</time>
      </trkpt>
      <trkpt lat="47.76875" lon="1.99616">
        <ele>128</ele>
        <time>2017-01-22T08:33:11.140Z</time>
      </trkpt>
      <trkpt lat="47.7687" lon="1.99605">
        <ele>128</ele>
        <time>2017-01-22T08:33:12.124Z</time>
      </trkpt>
      <trkpt lat="47.7687" lon="1.99605">
        <ele>128</ele>
        <time>2017-01-22T08:33:13.140Z</time>
      </trkpt>
      <trkpt lat="47.76865" lon="1.99593">
        <ele>128</ele>
        <time>2017-01-22T08:33:14.153Z</time>
      </trkpt>
      <trkpt lat="47.76865" lon="1.99593">
        <ele>128</ele>
        <time>2017-01-22T08:33:15.139Z</time>
      </trkpt>
      <trkpt lat="47.76861" lon="1.99582">
        <ele>128</ele>
        <time>2017-01-22T08:33:16.146Z</time>
      </trkpt>
      <trkpt lat="47.76859" lon="1.99576">
        <ele>128</ele>
        <time>2017-01-22T08:33:17.120Z</time>
      </trkpt>
      <trkpt lat="47.76857" lon="1.9957">
        <ele>128</ele>
        <time>2017-01-22T08:33:18.151Z</time>
      </trkpt>
      <trkpt lat="47.76857" lon="1.9957">
        <ele>128</ele>
        <time>2017-01-22T08:33:19.118Z</time>
      </trkpt>
      <trkpt lat="47.76854" lon="1.99558">
        <ele>129</ele>
        <time>2017-01-22T08:33:20.131Z</time>
      </trkpt>
      <trkpt lat="47.76852" lon="1.99552">
        <ele>129</ele>
        <time>2017-01-22T08:33:21.124Z</time>
      </trkpt>
      <trkpt lat="47.76852" lon="1.99552">
        <ele>129</ele>
        <time>2017-01-22T08:33:22.149Z</time>
      </trkpt>
      <trkpt lat="47.76849" lon="1.9954">
        <ele>129</ele>
        <time>2017-01-22T08:33:23.151Z</time>
      </trkpt>
      <trkpt lat="47.76847" lon="1.99534">
        <ele>129</ele>
        <time>2017-01-22T08:33:24.120Z</time>
      </trkpt>
      <trkpt lat="47.76847" lon="1.99534">
        <ele>129</ele>
        <time>2017-01-22T08:33:25.143Z</time>
      </trkpt>
      <trkpt lat="47.76844" lon="1.99523">
        <ele>129</ele>
        <time>2017-01-22T08:33:26.123Z</time>
      </trkpt>
      <trkpt lat="47.76842" lon="1.99517">
        <ele>129</ele>
        <time>2017-01-22T08:33:27.124Z</time>
      </trkpt>
      <trkpt lat="47.76842" lon="1.99517">
        <ele>129</ele>
        <time>2017-01-22T08:33:28.147Z</time>
      </trkpt>
      <trkpt lat="47.76839" lon="1.99507">
        <ele>128</ele>
        <time>2017-01-22T08:33:29.157Z</time>
      </trkpt>
      <trkpt lat="47.76839" lon="1.99507">
        <ele>128</ele>
        <time>2017-01-22T08:33:30.145Z</time>
      </trkpt>
      <trkpt lat="47.76836" lon="1.99496">
        <ele>128</ele>
        <time>2017-01-22T08:33:31.129Z</time>
      </trkpt>
      <trkpt lat="47.76836" lon="1.99496">
        <ele>128</ele>
        <time>2017-01-22T08:33:32.148Z</time>
      </trkpt>
      <trkpt lat="47.76832" lon="1.99484">
        <ele>128</ele>
        <time>2017-01-22T08:33:33.153Z</time>
      </trkpt>
      <trkpt lat="47.76832" lon="1.99484">
        <ele>128</ele>
        <time>2017-01-22T08:33:34.140Z</time>
      </trkpt>
      <trkpt lat="47.76828" lon="1.99473">
        <ele>128</ele>
        <time>2017-01-22T08:33:35.155Z</time>
      </trkpt>
      <trkpt lat="47.76828" lon="1.99473">
        <ele>128</ele>
        <time>2017-01-22T08:33:36.145Z</time>
      </trkpt>
      <trkpt lat="47.76825" lon="1.99462">
        <ele>128</ele>
        <time>2017-01-22T08:33:37.125Z</time>
      </trkpt>
      <trkpt lat="47.76825" lon="1.99462">
        <ele>128</ele>
        <time>2017-01-22T08:33:38.156Z</time>
      </trkpt>
      <trkpt lat="47.76821" lon="1.99451">
        <ele>128</ele>
        <time>2017-01-22T08:33:39.165Z</time>
      </trkpt>
      <trkpt lat="47.76821" lon="1.99451">
        <ele>128</ele>
        <time>2017-01-22T08:33:40.147Z</time>
      </trkpt>
      <trkpt lat="47.76818" lon="1.9944">
        <ele>128</ele>
        <time>2017-01-22T08:33:41.152Z</time>
      </trkpt>
      <trkpt lat="47.76816" lon="1.99435">
        <ele>128</ele>
        <time>2017-01-22T08:33:42.155Z</time>
      </trkpt>
      <trkpt lat="47.76816" lon="1.99435">
        <ele>128</ele>
        <time>2017-01-22T08:33:43.141Z</time>
      </trkpt>
      <trkpt lat="47.76813" lon="1.99424">
        <ele>128</ele>
        <time>2017-01-22T08:33:44.155Z</time>
      </trkpt>
      <trkpt lat="47.76813" lon="1.99424">
        <ele>128</ele>
        <time>2017-01-22T08:33:45.141Z</time>
      </trkpt>
      <trkpt lat="47.76809" lon="1.99412">
        <ele>127</ele>
        <time>2017-01-22T08:33:46.159Z</time>
      </trkpt>
      <trkpt lat="47.76809" lon="1.99412">
        <ele>127</ele>
        <time>2017-01-22T08:33:47.141Z</time>
      </trkpt>
      <trkpt lat="47.76806" lon="1.994">
        <ele>127</ele>
        <time>2017-01-22T08:33:48.154Z</time>
      </trkpt>
      <trkpt lat="47.76804" lon="1.99394">
        <ele>127</ele>
        <time>2017-01-22T08:33:49.136Z</time>
      </trkpt>
      <trkpt lat="47.76802" lon="1.99388">
        <ele>127</ele>
        <time>2017-01-22T08:33:50.124Z</time>
      </trkpt>
      <trkpt lat="47.76802" lon="1.99388">
        <ele>127</ele>
        <time>2017-01-22T08:33:51.131Z</time>
      </trkpt>
      <trkpt lat="47.76799" lon="1.99376">
        <ele>127</ele>
        <time>2017-01-22T08:33:52.142Z</time>
      </trkpt>
      <trkpt lat="47.76798" lon="1.99371">
        <ele>127</ele>
        <time>2017-01-22T08:33:53.154Z</time>
      </trkpt>
      <trkpt lat="47.76798" lon="1.99371">
        <ele>127</ele>
        <time>2017-01-22T08:33:54.142Z</time>
      </trkpt>
      <trkpt lat="47.76795" lon="1.99359">
        <ele>126</ele>
        <time>2017-01-22T08:33:55.126Z</time>
      </trkpt>
      <trkpt lat="47.76795" lon="1.99359">
        <ele>126</ele>
        <time>2017-01-22T08:33:56.142Z</time>
      </trkpt>
      <trkpt lat="47.76792" lon="1.99348">
        <ele>126</ele>
        <time>2017-01-22T08:33:57.155Z</time>
      </trkpt>
      <trkpt lat="47.76792" lon="1.99348">
        <ele>126</ele>
        <time>2017-01-22T08:33:58.125Z</time>
      </trkpt>
      <trkpt lat="47.7679" lon="1.99339">
        <ele>126</ele>
        <time>2017-01-22T08:33:59.144Z</time>
      </trkpt>
      <trkpt lat="47.7679" lon="1.99339">
        <ele>126</ele>
        <time>2017-01-22T08:34:00.156Z</time>
      </trkpt>
      <trkpt lat="47.76788" lon="1.9933">
        <ele>126</ele>
        <time>2017-01-22T08:34:01.160Z</time>
      </trkpt>
      <trkpt lat="47.76788" lon="1.9933">
        <ele>126</ele>
        <time>2017-01-22T08:34:02.148Z</time>
      </trkpt>
      <trkpt lat="47.76786" lon="1.9932">
        <ele>126</ele>
        <time>2017-01-22T08:34:03.123Z</time>
      </trkpt>
      <trkpt lat="47.76786" lon="1.9932">
        <ele>126</ele>
        <time>2017-01-22T08:34:04.157Z</time>
      </trkpt>
      <trkpt lat="47.76784" lon="1.9931">
        <ele>126</ele>
        <time>2017-01-22T08:34:05.132Z</time>
      </trkpt>
      <trkpt lat="47.76783" lon="1.99305">
        <ele>126</ele>
        <time>2017-01-22T08:34:06.143Z</time>
      </trkpt>
      <trkpt lat="47.76782" lon="1.99301">
        <ele>126</ele>
        <time>2017-01-22T08:34:07.125Z</time>
      </trkpt>
      <trkpt lat="47.76782" lon="1.99301">
        <ele>126</ele>
        <time>2017-01-22T08:34:08.148Z</time>
      </trkpt>
      <trkpt lat="47.7678" lon="1.99292">
        <ele>126</ele>
        <time>2017-01-22T08:34:09.124Z</time>
      </trkpt>
      <trkpt lat="47.7678" lon="1.99292">
        <ele>126</ele>
        <time>2017-01-22T08:34:10.154Z</time>
      </trkpt>
      <trkpt lat="47.76776" lon="1.99282">
        <ele>126</ele>
        <time>2017-01-22T08:34:11.156Z</time>
      </trkpt>
      <trkpt lat="47.76775" lon="1.99276">
        <ele>126</ele>
        <time>2017-01-22T08:34:12.125Z</time>
      </trkpt>
      <trkpt lat="47.76775" lon="1.99276">
        <ele>126</ele>
        <time>2017-01-22T08:34:13.146Z</time>
      </trkpt>
      <trkpt lat="47.76773" lon="1.99266">
        <ele>126</ele>
        <time>2017-01-22T08:34:14.154Z</time>
      </trkpt>
      <trkpt lat="47.76771" lon="1.99261">
        <ele>126</ele>
        <time>2017-01-22T08:34:15.151Z</time>
      </trkpt>
      <trkpt lat="47.76771" lon="1.99261">
        <ele>126</ele>
        <time>2017-01-22T08:34:16.140Z</time>
      </trkpt>
      <trkpt lat="47.76768" lon="1.99251">
        <ele>126</ele>
        <time>2017-01-22T08:34:17.130Z</time>
      </trkpt>
      <trkpt lat="47.76768" lon="1.99251">
        <ele>126</ele>
        <time>2017-01-22T08:34:18.148Z</time>
      </trkpt>
      <trkpt lat="47.76764" lon="1.9924">
        <ele>126</ele>
        <time>2017-01-22T08:34:19.125Z</time>
      </trkpt>
      <trkpt lat="47.76764" lon="1.9924">
        <ele>126</ele>
        <time>2017-01-22T08:34:20.148Z</time>
      </trkpt>
      <trkpt lat="47.76762" lon="1.9923">
        <ele>126</ele>
        <time>2017-01-22T08:34:21.155Z</time>
      </trkpt>
      <trkpt lat="47.76762" lon="1.9923">
        <ele>126</ele>
        <time>2017-01-22T08:34:22.141Z</time>
      </trkpt>
      <trkpt lat="47.76762" lon="1.9922">
        <ele>126</ele>
        <time>2017-01-22T08:34:23.118Z</time>
      </trkpt>
      <trkpt lat="47.76762" lon="1.9922">
        <ele>126</ele>
        <time>2017-01-22T08:34:24.156Z</time>
      </trkpt>
      <trkpt lat="47.76764" lon="1.9921">
        <ele>126</ele>
        <time>2017-01-22T08:34:25.133Z</time>
      </trkpt>
      <trkpt lat="47.76764" lon="1.9921">
        <ele>126</ele>
        <time>2017-01-22T08:34:26.140Z</time>
      </trkpt>
      <trkpt lat="47.76764" lon="1.99199">
        <ele>126</ele>
        <time>2017-01-22T08:34:27.155Z</time>
      </trkpt>
      <trkpt lat="47.76764" lon="1.99199">
        <ele>126</ele>
        <time>2017-01-22T08:34:28.143Z</time>
      </trkpt>
      <trkpt lat="47.76761" lon="1.99189">
        <ele>127</ele>
        <time>2017-01-22T08:34:29.153Z</time>
      </trkpt>
      <trkpt lat="47.76761" lon="1.99189">
        <ele>127</ele>
        <time>2017-01-22T08:34:30.139Z</time>
      </trkpt>
      <trkpt lat="47.76758" lon="1.99178">
        <ele>127</ele>
        <time>2017-01-22T08:34:31.155Z</time>
      </trkpt>
      <trkpt lat="47.76757" lon="1.99173">
        <ele>127</ele>
        <time>2017-01-22T08:34:32.153Z</time>
      </trkpt>
      <trkpt lat="47.76757" lon="1.99173">
        <ele>127</ele>
        <time>2017-01-22T08:34:33.141Z</time>
      </trkpt>
      <trkpt lat="47.76754" lon="1.99162">
        <ele>127</ele>
        <time>2017-01-22T08:34:34.155Z</time>
      </trkpt>
      <trkpt lat="47.76754" lon="1.99162">
        <ele>127</ele>
        <time>2017-01-22T08:34:35.141Z</time>
      </trkpt>
      <trkpt lat="47.76751" lon="1.99152">
        <ele>127</ele>
        <time>2017-01-22T08:34:36.149Z</time>
      </trkpt>
      <trkpt lat="47.76749" lon="1.99146">
        <ele>127</ele>
        <time>2017-01-22T08:34:37.124Z</time>
      </trkpt>
      <trkpt lat="47.76749" lon="1.99146">
        <ele>127</ele>
        <time>2017-01-22T08:34:38.148Z</time>
      </trkpt>
      <trkpt lat="47.76747" lon="1.99136">
        <ele>127</ele>
        <time>2017-01-22T08:34:39.155Z</time>
      </trkpt>
      <trkpt lat="47.76747" lon="1.99136">
        <ele>127</ele>
        <time>2017-01-22T08:34:40.134Z</time>
      </trkpt>
      <trkpt lat="47.76744" lon="1.99125">
        <ele>127</ele>
        <time>2017-01-22T08:34:41.131Z</time>
      </trkpt>
      <trkpt lat="47.76744" lon="1.99125">
        <ele>127</ele>
        <time>2017-01-22T08:34:42.148Z</time>
      </trkpt>
      <trkpt lat="47.76741" lon="1.99114">
        <ele>127</ele>
        <time>2017-01-22T08:34:43.125Z</time>
      </trkpt>
      <trkpt lat="47.76741" lon="1.99114">
        <ele>127</ele>
        <time>2017-01-22T08:34:44.152Z</time>
      </trkpt>
      <trkpt lat="47.76738" lon="1.99103">
        <ele>127</ele>
        <time>2017-01-22T08:34:45.155Z</time>
      </trkpt>
      <trkpt lat="47.76738" lon="1.99103">
        <ele>127</ele>
        <time>2017-01-22T08:34:46.146Z</time>
      </trkpt>
      <trkpt lat="47.76735" lon="1.99093">
        <ele>127</ele>
        <time>2017-01-22T08:34:47.155Z</time>
      </trkpt>
      <trkpt lat="47.76734" lon="1.99087">
        <ele>127</ele>
        <time>2017-01-22T08:34:48.154Z</time>
      </trkpt>
      <trkpt lat="47.76732" lon="1.99083">
        <ele>127</ele>
        <time>2017-01-22T08:34:49.159Z</time>
      </trkpt>
      <trkpt lat="47.76732" lon="1.99083">
        <ele>127</ele>
        <time>2017-01-22T08:34:50.121Z</time>
      </trkpt>
      <trkpt lat="47.76729" lon="1.99072">
        <ele>127</ele>
        <time>2017-01-22T08:34:51.125Z</time>
      </trkpt>
      <trkpt lat="47.76729" lon="1.99072">
        <ele>127</ele>
        <time>2017-01-22T08:34:52.140Z</time>
      </trkpt>
      <trkpt lat="47.76727" lon="1.99061">
        <ele>127</ele>
        <time>2017-01-22T08:34:53.155Z</time>
      </trkpt>
      <trkpt lat="47.76727" lon="1.99061">
        <ele>127</ele>
        <time>2017-01-22T08:34:54.142Z</time>
      </trkpt>
      <trkpt lat="47.76724" lon="1.99051">
        <ele>127</ele>
        <time>2017-01-22T08:34:55.158Z</time>
      </trkpt>
      <trkpt lat="47.76724" lon="1.99051">
        <ele>127</ele>
        <time>2017-01-22T08:34:56.141Z</time>
      </trkpt>
      <trkpt lat="47.76722" lon="1.9904">
        <ele>127</ele>
        <time>2017-01-22T08:34:57.125Z</time>
      </trkpt>
      <trkpt lat="47.76722" lon="1.9904">
        <ele>127</ele>
        <time>2017-01-22T08:34:58.156Z</time>
      </trkpt>
      <trkpt lat="47.76719" lon="1.99028">
        <ele>127</ele>
        <time>2017-01-22T08:34:59.153Z</time>
      </trkpt>
      <trkpt lat="47.76719" lon="1.99028">
        <ele>127</ele>
        <time>2017-01-22T08:35:00.145Z</time>
      </trkpt>
      <trkpt lat="47.76716" lon="1.99017">
        <ele>127</ele>
        <time>2017-01-22T08:35:01.155Z</time>
      </trkpt>
      <trkpt lat="47.76716" lon="1.99017">
        <ele>127</ele>
        <time>2017-01-22T08:35:02.138Z</time>
      </trkpt>
      <trkpt lat="47.76713" lon="1.99007">
        <ele>127</ele>
        <time>2017-01-22T08:35:03.144Z</time>
      </trkpt>
      <trkpt lat="47.76713" lon="1.99007">
        <ele>127</ele>
        <time>2017-01-22T08:35:04.138Z</time>
      </trkpt>
      <trkpt lat="47.7671" lon="1.98996">
        <ele>127</ele>
        <time>2017-01-22T08:35:05.154Z</time>
      </trkpt>
      <trkpt lat="47.76708" lon="1.9899">
        <ele>127</ele>
        <time>2017-01-22T08:35:06.155Z</time>
      </trkpt>
      <trkpt lat="47.76707" lon="1.98984">
        <ele>127</ele>
        <time>2017-01-22T08:35:07.125Z</time>
      </trkpt>
      <trkpt lat="47.76707" lon="1.98984">
        <ele>127</ele>
        <time>2017-01-22T08:35:08.157Z</time>
      </trkpt>
      <trkpt lat="47.76704" lon="1.98974">
        <ele>127</ele>
        <time>2017-01-22T08:35:09.158Z</time>
      </trkpt>
      <trkpt lat="47.76704" lon="1.98974">
        <ele>127</ele>
        <time>2017-01-22T08:35:10.125Z</time>
      </trkpt>
      <trkpt lat="47.76701" lon="1.98963">
        <ele>127</ele>
        <time>2017-01-22T08:35:11.155Z</time>
      </trkpt>
      <trkpt lat="47.76701" lon="1.98963">
        <ele>127</ele>
        <time>2017-01-22T08:35:12.141Z</time>
      </trkpt>
      <trkpt lat="47.76698" lon="1.98951">
        <ele>127</ele>
        <time>2017-01-22T08:35:13.153Z</time>
      </trkpt>
      <trkpt lat="47.76698" lon="1.98951">
        <ele>127</ele>
        <time>2017-01-22T08:35:14.141Z</time>
      </trkpt>
      <trkpt lat="47.76696" lon="1.98939">
        <ele>127</ele>
        <time>2017-01-22T08:35:15.154Z</time>
      </trkpt>
      <trkpt lat="47.76696" lon="1.98939">
        <ele>127</ele>
        <time>2017-01-22T08:35:16.144Z</time>
      </trkpt>
      <trkpt lat="47.76693" lon="1.98928">
        <ele>127</ele>
        <time>2017-01-22T08:35:17.155Z</time>
      </trkpt>
      <trkpt lat="47.76693" lon="1.98928">
        <ele>127</ele>
        <time>2017-01-22T08:35:18.140Z</time>
      </trkpt>
      <trkpt lat="47.76691" lon="1.98918">
        <ele>127</ele>
        <time>2017-01-22T08:35:19.155Z</time>
      </trkpt>
      <trkpt lat="47.76691" lon="1.98918">
        <ele>127</ele>
        <time>2017-01-22T08:35:20.126Z</time>
      </trkpt>
      <trkpt lat="47.76688" lon="1.98908">
        <ele>126</ele>
        <time>2017-01-22T08:35:21.144Z</time>
      </trkpt>
      <trkpt lat="47.76688" lon="1.98908">
        <ele>126</ele>
        <time>2017-01-22T08:35:22.141Z</time>
      </trkpt>
      <trkpt lat="47.76686" lon="1.98899">
        <ele>126</ele>
        <time>2017-01-22T08:35:23.155Z</time>
      </trkpt>
      <trkpt lat="47.76686" lon="1.98899">
        <ele>126</ele>
        <time>2017-01-22T08:35:24.143Z</time>
      </trkpt>
      <trkpt lat="47.76684" lon="1.98891">
        <ele>126</ele>
        <time>2017-01-22T08:35:25.127Z</time>
      </trkpt>
      <trkpt lat="47.76684" lon="1.98891">
        <ele>126</ele>
        <time>2017-01-22T08:35:26.141Z</time>
      </trkpt>
      <trkpt lat="47.76679" lon="1.98887">
        <ele>126</ele>
        <time>2017-01-22T08:35:27.125Z</time>
      </trkpt>
      <trkpt lat="47.76679" lon="1.98887">
        <ele>126</ele>
        <time>2017-01-22T08:35:28.141Z</time>
      </trkpt>
      <trkpt lat="47.76673" lon="1.98886">
        <ele>126</ele>
        <time>2017-01-22T08:35:29.123Z</time>
      </trkpt>
      <trkpt lat="47.76673" lon="1.98886">
        <ele>126</ele>
        <time>2017-01-22T08:35:30.148Z</time>
      </trkpt>
      <trkpt lat="47.76667" lon="1.98888">
        <ele>126</ele>
        <time>2017-01-22T08:35:31.125Z</time>
      </trkpt>
      <trkpt lat="47.76667" lon="1.98888">
        <ele>126</ele>
        <time>2017-01-22T08:35:32.119Z</time>
      </trkpt>
      <trkpt lat="47.76661" lon="1.98895">
        <ele>126</ele>
        <time>2017-01-22T08:35:33.123Z</time>
      </trkpt>
      <trkpt lat="47.76661" lon="1.98895">
        <ele>126</ele>
        <time>2017-01-22T08:35:34.156Z</time>
      </trkpt>
      <trkpt lat="47.76656" lon="1.98904">
        <ele>126</ele>
        <time>2017-01-22T08:35:35.124Z</time>
      </trkpt>
      <trkpt lat="47.76656" lon="1.98904">
        <ele>126</ele>
        <time>2017-01-22T08:35:36.125Z</time>
      </trkpt>
      <trkpt lat="47.7665" lon="1.98913">
        <ele>126</ele>
        <time>2017-01-22T08:35:37.143Z</time>
      </trkpt>
      <trkpt lat="47.7665" lon="1.98913">
        <ele>126</ele>
        <time>2017-01-22T08:35:38.137Z</time>
      </trkpt>
      <trkpt lat="47.76644" lon="1.98923">
        <ele>126</ele>
        <time>2017-01-22T08:35:39.160Z</time>
      </trkpt>
      <trkpt lat="47.76644" lon="1.98923">
        <ele>126</ele>
        <time>2017-01-22T08:35:40.125Z</time>
      </trkpt>
      <trkpt lat="47.76638" lon="1.98933">
        <ele>126</ele>
        <time>2017-01-22T08:35:41.142Z</time>
      </trkpt>
      <trkpt lat="47.76638" lon="1.98933">
        <ele>126</ele>
        <time>2017-01-22T08:35:42.142Z</time>
      </trkpt>
      <trkpt lat="47.76632" lon="1.98943">
        <ele>125</ele>
        <time>2017-01-22T08:35:43.155Z</time>
      </trkpt>
      <trkpt lat="47.76632" lon="1.98943">
        <ele>125</ele>
        <time>2017-01-22T08:35:44.148Z</time>
      </trkpt>
      <trkpt lat="47.76626" lon="1.98954">
        <ele>125</ele>
        <time>2017-01-22T08:35:45.125Z</time>
      </trkpt>
      <trkpt lat="47.76626" lon="1.98954">
        <ele>125</ele>
        <time>2017-01-22T08:35:46.141Z</time>
      </trkpt>
      <trkpt lat="47.76619" lon="1.98965">
        <ele>125</ele>
        <time>2017-01-22T08:35:47.122Z</time>
      </trkpt>
      <trkpt lat="47.76619" lon="1.98965">
        <ele>125</ele>
        <time>2017-01-22T08:35:48.120Z</time>
      </trkpt>
      <trkpt lat="47.76612" lon="1.98977">
        <ele>124</ele>
        <time>2017-01-22T08:35:49.125Z</time>
      </trkpt>
      <trkpt lat="47.76612" lon="1.98977">
        <ele>124</ele>
        <time>2017-01-22T08:35:50.156Z</time>
      </trkpt>
      <trkpt lat="47.76606" lon="1.98988">
        <ele>124</ele>
        <time>2017-01-22T08:35:51.125Z</time>
      </trkpt>
      <trkpt lat="47.76606" lon="1.98988">
        <ele>124</ele>
        <time>2017-01-22T08:35:52.141Z</time>
      </trkpt>
      <trkpt lat="47.76599" lon="1.98999">
        <ele>124</ele>
        <time>2017-01-22T08:35:53.119Z</time>
      </trkpt>
      <trkpt lat="47.76599" lon="1.98999">
        <ele>124</ele>
        <time>2017-01-22T08:35:54.123Z</time>
      </trkpt>
      <trkpt lat="47.76592" lon="1.99011">
        <ele>123</ele>
        <time>2017-01-22T08:35:55.155Z</time>
      </trkpt>
      <trkpt lat="47.76592" lon="1.99011">
        <ele>123</ele>
        <time>2017-01-22T08:35:56.148Z</time>
      </trkpt>
      <trkpt lat="47.76585" lon="1.99023">
        <ele>123</ele>
        <time>2017-01-22T08:35:57.155Z</time>
      </trkpt>
      <trkpt lat="47.76585" lon="1.99023">
        <ele>123</ele>
        <time>2017-01-22T08:35:58.124Z</time>
      </trkpt>
      <trkpt lat="47.76578" lon="1.99035">
        <ele>123</ele>
        <time>2017-01-22T08:35:59.144Z</time>
      </trkpt>
      <trkpt lat="47.76578" lon="1.99035">
        <ele>123</ele>
        <time>2017-01-22T08:36:00.143Z</time>
      </trkpt>
      <trkpt lat="47.76571" lon="1.99047">
        <ele>123</ele>
        <time>2017-01-22T08:36:01.155Z</time>
      </trkpt>
      <trkpt lat="47.76568" lon="1.99052">
        <ele>123</ele>
        <time>2017-01-22T08:36:02.122Z</time>
      </trkpt>
      <trkpt lat="47.76564" lon="1.99058">
        <ele>123</ele>
        <time>2017-01-22T08:36:03.144Z</time>
      </trkpt>
      <trkpt lat="47.76564" lon="1.99058">
        <ele>123</ele>
        <time>2017-01-22T08:36:04.149Z</time>
      </trkpt>
      <trkpt lat="47.76557" lon="1.99069">
        <ele>123</ele>
        <time>2017-01-22T08:36:05.157Z</time>
      </trkpt>
      <trkpt lat="47.76557" lon="1.99069">
        <ele>123</ele>
        <time>2017-01-22T08:36:06.122Z</time>
      </trkpt>
      <trkpt lat="47.76549" lon="1.99076">
        <ele>123</ele>
        <time>2017-01-22T08:36:07.122Z</time>
      </trkpt>
      <trkpt lat="47.76549" lon="1.99076">
        <ele>123</ele>
        <time>2017-01-22T08:36:08.141Z</time>
      </trkpt>
      <trkpt lat="47.7654" lon="1.99081">
        <ele>123</ele>
        <time>2017-01-22T08:36:09.154Z</time>
      </trkpt>
      <trkpt lat="47.7654" lon="1.99081">
        <ele>123</ele>
        <time>2017-01-22T08:36:10.157Z</time>
      </trkpt>
      <trkpt lat="47.76531" lon="1.99085">
        <ele>123</ele>
        <time>2017-01-22T08:36:11.143Z</time>
      </trkpt>
      <trkpt lat="47.76527" lon="1.99087">
        <ele>123</ele>
        <time>2017-01-22T08:36:12.153Z</time>
      </trkpt>
      <trkpt lat="47.76527" lon="1.99087">
        <ele>123</ele>
        <time>2017-01-22T08:36:13.145Z</time>
      </trkpt>
      <trkpt lat="47.76517" lon="1.99091">
        <ele>123</ele>
        <time>2017-01-22T08:36:14.154Z</time>
      </trkpt>
      <trkpt lat="47.76512" lon="1.99092">
        <ele>123</ele>
        <time>2017-01-22T08:36:15.159Z</time>
      </trkpt>
      <trkpt lat="47.76512" lon="1.99092">
        <ele>123</ele>
        <time>2017-01-22T08:36:16.120Z</time>
      </trkpt>
      <trkpt lat="47.76503" lon="1.99097">
        <ele>122</ele>
        <time>2017-01-22T08:36:17.153Z</time>
      </trkpt>
      <trkpt lat="47.76503" lon="1.99097">
        <ele>122</ele>
        <time>2017-01-22T08:36:18.143Z</time>
      </trkpt>
      <trkpt lat="47.76493" lon="1.99101">
        <ele>122</ele>
        <time>2017-01-22T08:36:19.154Z</time>
      </trkpt>
      <trkpt lat="47.76493" lon="1.99101">
        <ele>122</ele>
        <time>2017-01-22T08:36:20.142Z</time>
      </trkpt>
      <trkpt lat="47.76484" lon="1.99104">
        <ele>122</ele>
        <time>2017-01-22T08:36:21.158Z</time>
      </trkpt>
      <trkpt lat="47.76479" lon="1.99107">
        <ele>122</ele>
        <time>2017-01-22T08:36:22.156Z</time>
      </trkpt>
      <trkpt lat="47.76479" lon="1.99107">
        <ele>122</ele>
        <time>2017-01-22T08:36:23.141Z</time>
      </trkpt>
      <trkpt lat="47.76471" lon="1.99111">
        <ele>122</ele>
        <time>2017-01-22T08:36:24.154Z</time>
      </trkpt>
      <trkpt lat="47.76471" lon="1.99111">
        <ele>122</ele>
        <time>2017-01-22T08:36:25.126Z</time>
      </trkpt>
      <trkpt lat="47.76463" lon="1.99114">
        <ele>122</ele>
        <time>2017-01-22T08:36:26.134Z</time>
      </trkpt>
      <trkpt lat="47.76463" lon="1.99114">
        <ele>122</ele>
        <time>2017-01-22T08:36:27.141Z</time>
      </trkpt>
      <trkpt lat="47.76456" lon="1.99118">
        <ele>121</ele>
        <time>2017-01-22T08:36:28.155Z</time>
      </trkpt>
      <trkpt lat="47.76456" lon="1.99118">
        <ele>121</ele>
        <time>2017-01-22T08:36:29.148Z</time>
      </trkpt>
      <trkpt lat="47.76448" lon="1.99122">
        <ele>121</ele>
        <time>2017-01-22T08:36:30.121Z</time>
      </trkpt>
      <trkpt lat="47.76443" lon="1.99123">
        <ele>121</ele>
        <time>2017-01-22T08:36:31.149Z</time>
      </trkpt>
      <trkpt lat="47.76443" lon="1.99123">
        <ele>121</ele>
        <time>2017-01-22T08:36:32.145Z</time>
      </trkpt>
      <trkpt lat="47.76435" lon="1.99126">
        <ele>121</ele>
        <time>2017-01-22T08:36:33.155Z</time>
      </trkpt>
      <trkpt lat="47.76435" lon="1.99126">
        <ele>121</ele>
        <time>2017-01-22T08:36:34.152Z</time>
      </trkpt>
      <trkpt lat="47.76427" lon="1.99129">
        <ele>122</ele>
        <time>2017-01-22T08:36:35.122Z</time>
      </trkpt>
      <trkpt lat="47.76427" lon="1.99129">
        <ele>122</ele>
        <time>2017-01-22T08:36:36.138Z</time>
      </trkpt>
      <trkpt lat="47.76419" lon="1.99133">
        <ele>122</ele>
        <time>2017-01-22T08:36:37.123Z</time>
      </trkpt>
      <trkpt lat="47.76419" lon="1.99133">
        <ele>122</ele>
        <time>2017-01-22T08:36:38.142Z</time>
      </trkpt>
      <trkpt lat="47.76412" lon="1.99136">
        <ele>122</ele>
        <time>2017-01-22T08:36:39.125Z</time>
      </trkpt>
      <trkpt lat="47.76412" lon="1.99136">
        <ele>122</ele>
        <time>2017-01-22T08:36:40.141Z</time>
      </trkpt>
      <trkpt lat="47.76404" lon="1.9914">
        <ele>121</ele>
        <time>2017-01-22T08:36:41.155Z</time>
      </trkpt>
      <trkpt lat="47.764" lon="1.99142">
        <ele>121</ele>
        <time>2017-01-22T08:36:42.154Z</time>
      </trkpt>
      <trkpt lat="47.76396" lon="1.99144">
        <ele>121</ele>
        <time>2017-01-22T08:36:43.125Z</time>
      </trkpt>
      <trkpt lat="47.76396" lon="1.99144">
        <ele>121</ele>
        <time>2017-01-22T08:36:44.141Z</time>
      </trkpt>
      <trkpt lat="47.76388" lon="1.99149">
        <ele>121</ele>
        <time>2017-01-22T08:36:45.165Z</time>
      </trkpt>
      <trkpt lat="47.76384" lon="1.99152">
        <ele>121</ele>
        <time>2017-01-22T08:36:46.149Z</time>
      </trkpt>
      <trkpt lat="47.76381" lon="1.99155">
        <ele>121</ele>
        <time>2017-01-22T08:36:47.155Z</time>
      </trkpt>
      <trkpt lat="47.76381" lon="1.99155">
        <ele>121</ele>
        <time>2017-01-22T08:36:48.144Z</time>
      </trkpt>
      <trkpt lat="47.76374" lon="1.99161">
        <ele>121</ele>
        <time>2017-01-22T08:36:49.125Z</time>
      </trkpt>
      <trkpt lat="47.76374" lon="1.99161">
        <ele>121</ele>
        <time>2017-01-22T08:36:50.126Z</time>
      </trkpt>
      <trkpt lat="47.76366" lon="1.99168">
        <ele>121</ele>
        <time>2017-01-22T08:36:51.149Z</time>
      </trkpt>
      <trkpt lat="47.76366" lon="1.99168">
        <ele>121</ele>
        <time>2017-01-22T08:36:52.136Z</time>
      </trkpt>
      <trkpt lat="47.76358" lon="1.99174">
        <ele>121</ele>
        <time>2017-01-22T08:36:53.125Z</time>
      </trkpt>
      <trkpt lat="47.76358" lon="1.99174">
        <ele>121</ele>
        <time>2017-01-22T08:36:54.144Z</time>
      </trkpt>
      <trkpt lat="47.76351" lon="1.9918">
        <ele>121</ele>
        <time>2017-01-22T08:36:55.125Z</time>
      </trkpt>
      <trkpt lat="47.76351" lon="1.9918">
        <ele>121</ele>
        <time>2017-01-22T08:36:56.157Z</time>
      </trkpt>
      <trkpt lat="47.76344" lon="1.99186">
        <ele>120</ele>
        <time>2017-01-22T08:36:57.119Z</time>
      </trkpt>
      <trkpt lat="47.76344" lon="1.99186">
        <ele>120</ele>
        <time>2017-01-22T08:36:58.157Z</time>
      </trkpt>
      <trkpt lat="47.76336" lon="1.99192">
        <ele>121</ele>
        <time>2017-01-22T08:36:59.125Z</time>
      </trkpt>
      <trkpt lat="47.76336" lon="1.99192">
        <ele>121</ele>
        <time>2017-01-22T08:37:00.141Z</time>
      </trkpt>
      <trkpt lat="47.76329" lon="1.99197">
        <ele>121</ele>
        <time>2017-01-22T08:37:01.123Z</time>
      </trkpt>
      <trkpt lat="47.76329" lon="1.99197">
        <ele>121</ele>
        <time>2017-01-22T08:37:02.123Z</time>
      </trkpt>
      <trkpt lat="47.76323" lon="1.99203">
        <ele>121</ele>
        <time>2017-01-22T08:37:03.130Z</time>
      </trkpt>
      <trkpt lat="47.76319" lon="1.99206">
        <ele>121</ele>
        <time>2017-01-22T08:37:04.144Z</time>
      </trkpt>
      <trkpt lat="47.76316" lon="1.99209">
        <ele>121</ele>
        <time>2017-01-22T08:37:05.158Z</time>
      </trkpt>
      <trkpt lat="47.76316" lon="1.99209">
        <ele>121</ele>
        <time>2017-01-22T08:37:06.140Z</time>
      </trkpt>
      <trkpt lat="47.76309" lon="1.99214">
        <ele>121</ele>
        <time>2017-01-22T08:37:07.125Z</time>
      </trkpt>
      <trkpt lat="47.76309" lon="1.99214">
        <ele>121</ele>
        <time>2017-01-22T08:37:08.156Z</time>
      </trkpt>
      <trkpt lat="47.76302" lon="1.99219">
        <ele>121</ele>
        <time>2017-01-22T08:37:09.125Z</time>
      </trkpt>
      <trkpt lat="47.76302" lon="1.99219">
        <ele>121</ele>
        <time>2017-01-22T08:37:10.148Z</time>
      </trkpt>
      <trkpt lat="47.76295" lon="1.99225">
        <ele>121</ele>
        <time>2017-01-22T08:37:11.120Z</time>
      </trkpt>
      <trkpt lat="47.76295" lon="1.99225">
        <ele>121</ele>
        <time>2017-01-22T08:37:12.157Z</time>
      </trkpt>
      <trkpt lat="47.76288" lon="1.9923">
        <ele>121</ele>
        <time>2017-01-22T08:37:13.125Z</time>
      </trkpt>
      <trkpt lat="47.76288" lon="1.9923">
        <ele>121</ele>
        <time>2017-01-22T08:37:14.142Z</time>
      </trkpt>
      <trkpt lat="47.76281" lon="1.99234">
        <ele>121</ele>
        <time>2017-01-22T08:37:15.149Z</time>
      </trkpt>
      <trkpt lat="47.76281" lon="1.99234">
        <ele>121</ele>
        <time>2017-01-22T08:37:16.146Z</time>
      </trkpt>
      <trkpt lat="47.76273" lon="1.99239">
        <ele>120</ele>
        <time>2017-01-22T08:37:17.155Z</time>
      </trkpt>
      <trkpt lat="47.7627" lon="1.99242">
        <ele>120</ele>
        <time>2017-01-22T08:37:18.155Z</time>
      </trkpt>
      <trkpt lat="47.76266" lon="1.99244">
        <ele>120</ele>
        <time>2017-01-22T08:37:19.152Z</time>
      </trkpt>
      <trkpt lat="47.76266" lon="1.99244">
        <ele>120</ele>
        <time>2017-01-22T08:37:20.145Z</time>
      </trkpt>
      <trkpt lat="47.7626" lon="1.99249">
        <ele>121</ele>
        <time>2017-01-22T08:37:21.124Z</time>
      </trkpt>
      <trkpt lat="47.7626" lon="1.99249">
        <ele>121</ele>
        <time>2017-01-22T08:37:22.126Z</time>
      </trkpt>
      <trkpt lat="47.76256" lon="1.99251">
        <ele>121</ele>
        <time>2017-01-22T08:37:23.136Z</time>
      </trkpt>
      <trkpt lat="47.76256" lon="1.99251">
        <ele>121</ele>
        <time>2017-01-22T08:37:24.144Z</time>
      </trkpt>
      <trkpt lat="47.76253" lon="1.99252">
        <ele>121</ele>
        <time>2017-01-22T08:37:25.155Z</time>
      </trkpt>
      <trkpt lat="47.76253" lon="1.99252">
        <ele>121</ele>
        <time>2017-01-22T08:37:26.141Z</time>
      </trkpt>
      <trkpt lat="47.76249" lon="1.99254">
        <ele>120</ele>
        <time>2017-01-22T08:37:27.125Z</time>
      </trkpt>
      <trkpt lat="47.76249" lon="1.99254">
        <ele>120</ele>
        <time>2017-01-22T08:37:28.121Z</time>
      </trkpt>
      <trkpt lat="47.76243" lon="1.99257">
        <ele>120</ele>
        <time>2017-01-22T08:37:29.122Z</time>
      </trkpt>
      <trkpt lat="47.76243" lon="1.99257">
        <ele>120</ele>
        <time>2017-01-22T08:37:30.157Z</time>
      </trkpt>
      <trkpt lat="47.76237" lon="1.99261">
        <ele>120</ele>
        <time>2017-01-22T08:37:31.125Z</time>
      </trkpt>
      <trkpt lat="47.76237" lon="1.99261">
        <ele>120</ele>
        <time>2017-01-22T08:37:32.140Z</time>
      </trkpt>
      <trkpt lat="47.76229" lon="1.99267">
        <ele>120</ele>
        <time>2017-01-22T08:37:33.128Z</time>
      </trkpt>
      <trkpt lat="47.76229" lon="1.99267">
        <ele>120</ele>
        <time>2017-01-22T08:37:34.141Z</time>
      </trkpt>
      <trkpt lat="47.76221" lon="1.99274">
        <ele>120</ele>
        <time>2017-01-22T08:37:35.126Z</time>
      </trkpt>
      <trkpt lat="47.76216" lon="1.99277">
        <ele>120</ele>
        <time>2017-01-22T08:37:36.154Z</time>
      </trkpt>
      <trkpt lat="47.76212" lon="1.9928">
        <ele>120</ele>
        <time>2017-01-22T08:37:37.124Z</time>
      </trkpt>
      <trkpt lat="47.76212" lon="1.9928">
        <ele>120</ele>
        <time>2017-01-22T08:37:38.141Z</time>
      </trkpt>
      <trkpt lat="47.76203" lon="1.99286">
        <ele>119</ele>
        <time>2017-01-22T08:37:39.123Z</time>
      </trkpt>
      <trkpt lat="47.76203" lon="1.99286">
        <ele>119</ele>
        <time>2017-01-22T08:37:40.138Z</time>
      </trkpt>
      <trkpt lat="47.76197" lon="1.99283">
        <ele>120</ele>
        <time>2017-01-22T08:37:41.154Z</time>
      </trkpt>
      <trkpt lat="47.76195" lon="1.99279">
        <ele>120</ele>
        <time>2017-01-22T08:37:42.124Z</time>
      </trkpt>
      <trkpt lat="47.76193" lon="1.99274">
        <ele>121</ele>
        <time>2017-01-22T08:37:43.144Z</time>
      </trkpt>
      <trkpt lat="47.76193" lon="1.99274">
        <ele>121</ele>
        <time>2017-01-22T08:37:44.141Z</time>
      </trkpt>
      <trkpt lat="47.76189" lon="1.99262">
        <ele>121</ele>
        <time>2017-01-22T08:37:45.155Z</time>
      </trkpt>
      <trkpt lat="47.76189" lon="1.99262">
        <ele>121</ele>
        <time>2017-01-22T08:37:46.142Z</time>
      </trkpt>
      <trkpt lat="47.76183" lon="1.9925">
        <ele>121</ele>
        <time>2017-01-22T08:37:47.125Z</time>
      </trkpt>
      <trkpt lat="47.76183" lon="1.9925">
        <ele>121</ele>
        <time>2017-01-22T08:37:48.142Z</time>
      </trkpt>
      <trkpt lat="47.76176" lon="1.99239">
        <ele>120</ele>
        <time>2017-01-22T08:37:49.155Z</time>
      </trkpt>
      <trkpt lat="47.76176" lon="1.99239">
        <ele>120</ele>
        <time>2017-01-22T08:37:50.133Z</time>
      </trkpt>
      <trkpt lat="47.7617" lon="1.99227">
        <ele>120</ele>
        <time>2017-01-22T08:37:51.125Z</time>
      </trkpt>
      <trkpt lat="47.7617" lon="1.99227">
        <ele>120</ele>
        <time>2017-01-22T08:37:52.140Z</time>
      </trkpt>
      <trkpt lat="47.76163" lon="1.99217">
        <ele>121</ele>
        <time>2017-01-22T08:37:53.122Z</time>
      </trkpt>
      <trkpt lat="47.76163" lon="1.99217">
        <ele>121</ele>
        <time>2017-01-22T08:37:54.127Z</time>
      </trkpt>
      <trkpt lat="47.76156" lon="1.99206">
        <ele>120</ele>
        <time>2017-01-22T08:37:55.151Z</time>
      </trkpt>
      <trkpt lat="47.76156" lon="1.99206">
        <ele>120</ele>
        <time>2017-01-22T08:37:56.156Z</time>
      </trkpt>
      <trkpt lat="47.7615" lon="1.99194">
        <ele>120</ele>
        <time>2017-01-22T08:37:57.125Z</time>
      </trkpt>
      <trkpt lat="47.7615" lon="1.99194">
        <ele>120</ele>
        <time>2017-01-22T08:37:58.154Z</time>
      </trkpt>
      <trkpt lat="47.76143" lon="1.99182">
        <ele>120</ele>
        <time>2017-01-22T08:37:59.125Z</time>
      </trkpt>
      <trkpt lat="47.76143" lon="1.99182">
        <ele>120</ele>
        <time>2017-01-22T08:38:00.151Z</time>
      </trkpt>
      <trkpt lat="47.76138" lon="1.9917">
        <ele>120</ele>
        <time>2017-01-22T08:38:01.123Z</time>
      </trkpt>
      <trkpt lat="47.76138" lon="1.9917">
        <ele>120</ele>
        <time>2017-01-22T08:38:02.136Z</time>
      </trkpt>
      <trkpt lat="47.76133" lon="1.99156">
        <ele>120</ele>
        <time>2017-01-22T08:38:03.155Z</time>
      </trkpt>
      <trkpt lat="47.76133" lon="1.99156">
        <ele>120</ele>
        <time>2017-01-22T08:38:04.141Z</time>
      </trkpt>
      <trkpt lat="47.76128" lon="1.99143">
        <ele>120</ele>
        <time>2017-01-22T08:38:05.149Z</time>
      </trkpt>
      <trkpt lat="47.76128" lon="1.99143">
        <ele>120</ele>
        <time>2017-01-22T08:38:06.123Z</time>
      </trkpt>
      <trkpt lat="47.76125" lon="1.9913">
        <ele>120</ele>
        <time>2017-01-22T08:38:07.144Z</time>
      </trkpt>
      <trkpt lat="47.76125" lon="1.9913">
        <ele>120</ele>
        <time>2017-01-22T08:38:08.142Z</time>
      </trkpt>
      <trkpt lat="47.76123" lon="1.99116">
        <ele>120</ele>
        <time>2017-01-22T08:38:09.156Z</time>
      </trkpt>
      <trkpt lat="47.76123" lon="1.99116">
        <ele>120</ele>
        <time>2017-01-22T08:38:10.123Z</time>
      </trkpt>
      <trkpt lat="47.76121" lon="1.99102">
        <ele>121</ele>
        <time>2017-01-22T08:38:11.133Z</time>
      </trkpt>
      <trkpt lat="47.76121" lon="1.99102">
        <ele>121</ele>
        <time>2017-01-22T08:38:12.138Z</time>
      </trkpt>
      <trkpt lat="47.7612" lon="1.99087">
        <ele>121</ele>
        <time>2017-01-22T08:38:13.125Z</time>
      </trkpt>
      <trkpt lat="47.7612" lon="1.99087">
        <ele>121</ele>
        <time>2017-01-22T08:38:14.142Z</time>
      </trkpt>
      <trkpt lat="47.76118" lon="1.99072">
        <ele>121</ele>
        <time>2017-01-22T08:38:15.148Z</time>
      </trkpt>
      <trkpt lat="47.76118" lon="1.99072">
        <ele>121</ele>
        <time>2017-01-22T08:38:16.143Z</time>
      </trkpt>
      <trkpt lat="47.76117" lon="1.99058">
        <ele>121</ele>
        <time>2017-01-22T08:38:17.125Z</time>
      </trkpt>
      <trkpt lat="47.76117" lon="1.99058">
        <ele>121</ele>
        <time>2017-01-22T08:38:18.141Z</time>
      </trkpt>
      <trkpt lat="47.76116" lon="1.99044">
        <ele>121</ele>
        <time>2017-01-22T08:38:19.158Z</time>
      </trkpt>
      <trkpt lat="47.76116" lon="1.99044">
        <ele>121</ele>
        <time>2017-01-22T08:38:20.127Z</time>
      </trkpt>
      <trkpt lat="47.76113" lon="1.9903">
        <ele>121</ele>
        <time>2017-01-22T08:38:21.144Z</time>
      </trkpt>
      <trkpt lat="47.76113" lon="1.9903">
        <ele>121</ele>
        <time>2017-01-22T08:38:22.124Z</time>
      </trkpt>
      <trkpt lat="47.7611" lon="1.99016">
        <ele>121</ele>
        <time>2017-01-22T08:38:23.144Z</time>
      </trkpt>
      <trkpt lat="47.7611" lon="1.99016">
        <ele>121</ele>
        <time>2017-01-22T08:38:24.143Z</time>
      </trkpt>
      <trkpt lat="47.76105" lon="1.99002">
        <ele>121</ele>
        <time>2017-01-22T08:38:25.125Z</time>
      </trkpt>
      <trkpt lat="47.76105" lon="1.99002">
        <ele>121</ele>
        <time>2017-01-22T08:38:26.141Z</time>
      </trkpt>
      <trkpt lat="47.76101" lon="1.98987">
        <ele>121</ele>
        <time>2017-01-22T08:38:27.125Z</time>
      </trkpt>
      <trkpt lat="47.76101" lon="1.98987">
        <ele>121</ele>
        <time>2017-01-22T08:38:28.154Z</time>
      </trkpt>
      <trkpt lat="47.76097" lon="1.98973">
        <ele>121</ele>
        <time>2017-01-22T08:38:29.121Z</time>
      </trkpt>
      <trkpt lat="47.76097" lon="1.98973">
        <ele>121</ele>
        <time>2017-01-22T08:38:30.157Z</time>
      </trkpt>
      <trkpt lat="47.76093" lon="1.98959">
        <ele>121</ele>
        <time>2017-01-22T08:38:31.124Z</time>
      </trkpt>
      <trkpt lat="47.76093" lon="1.98959">
        <ele>121</ele>
        <time>2017-01-22T08:38:32.126Z</time>
      </trkpt>
      <trkpt lat="47.76088" lon="1.98946">
        <ele>122</ele>
        <time>2017-01-22T08:38:33.130Z</time>
      </trkpt>
      <trkpt lat="47.76088" lon="1.98946">
        <ele>122</ele>
        <time>2017-01-22T08:38:34.149Z</time>
      </trkpt>
      <trkpt lat="47.76083" lon="1.98934">
        <ele>122</ele>
        <time>2017-01-22T08:38:35.119Z</time>
      </trkpt>
      <trkpt lat="47.7608" lon="1.98928">
        <ele>122</ele>
        <time>2017-01-22T08:38:36.123Z</time>
      </trkpt>
      <trkpt lat="47.7608" lon="1.98928">
        <ele>122</ele>
        <time>2017-01-22T08:38:37.143Z</time>
      </trkpt>
      <trkpt lat="47.76075" lon="1.98916">
        <ele>122</ele>
        <time>2017-01-22T08:38:38.164Z</time>
      </trkpt>
      <trkpt lat="47.76073" lon="1.9891">
        <ele>122</ele>
        <time>2017-01-22T08:38:39.122Z</time>
      </trkpt>
      <trkpt lat="47.76073" lon="1.9891">
        <ele>122</ele>
        <time>2017-01-22T08:38:40.139Z</time>
      </trkpt>
      <trkpt lat="47.76068" lon="1.98897">
        <ele>122</ele>
        <time>2017-01-22T08:38:41.123Z</time>
      </trkpt>
      <trkpt lat="47.76068" lon="1.98897">
        <ele>122</ele>
        <time>2017-01-22T08:38:42.157Z</time>
      </trkpt>
      <trkpt lat="47.76064" lon="1.98886">
        <ele>122</ele>
        <time>2017-01-22T08:38:43.130Z</time>
      </trkpt>
      <trkpt lat="47.76064" lon="1.98886">
        <ele>122</ele>
        <time>2017-01-22T08:38:44.142Z</time>
      </trkpt>
      <trkpt lat="47.76059" lon="1.98873">
        <ele>122</ele>
        <time>2017-01-22T08:38:45.144Z</time>
      </trkpt>
      <trkpt lat="47.76059" lon="1.98873">
        <ele>122</ele>
        <time>2017-01-22T08:38:46.143Z</time>
      </trkpt>
      <trkpt lat="47.76055" lon="1.98861">
        <ele>123</ele>
        <time>2017-01-22T08:38:47.125Z</time>
      </trkpt>
      <trkpt lat="47.76055" lon="1.98861">
        <ele>123</ele>
        <time>2017-01-22T08:38:48.151Z</time>
      </trkpt>
      <trkpt lat="47.76052" lon="1.9885">
        <ele>123</ele>
        <time>2017-01-22T08:38:49.156Z</time>
      </trkpt>
      <trkpt lat="47.76052" lon="1.9885">
        <ele>123</ele>
        <time>2017-01-22T08:38:50.122Z</time>
      </trkpt>
      <trkpt lat="47.76048" lon="1.98841">
        <ele>123</ele>
        <time>2017-01-22T08:38:51.144Z</time>
      </trkpt>
      <trkpt lat="47.76048" lon="1.98841">
        <ele>123</ele>
        <time>2017-01-22T08:38:52.143Z</time>
      </trkpt>
      <trkpt lat="47.76043" lon="1.9883">
        <ele>123</ele>
        <time>2017-01-22T08:38:53.122Z</time>
      </trkpt>
      <trkpt lat="47.76041" lon="1.98824">
        <ele>123</ele>
        <time>2017-01-22T08:38:54.154Z</time>
      </trkpt>
      <trkpt lat="47.76041" lon="1.98824">
        <ele>123</ele>
        <time>2017-01-22T08:38:55.135Z</time>
      </trkpt>
      <trkpt lat="47.76037" lon="1.98811">
        <ele>123</ele>
        <time>2017-01-22T08:38:56.141Z</time>
      </trkpt>
      <trkpt lat="47.76037" lon="1.98811">
        <ele>123</ele>
        <time>2017-01-22T08:38:57.120Z</time>
      </trkpt>
      <trkpt lat="47.76031" lon="1.98797">
        <ele>123</ele>
        <time>2017-01-22T08:38:58.125Z</time>
      </trkpt>
      <trkpt lat="47.76029" lon="1.98791">
        <ele>123</ele>
        <time>2017-01-22T08:38:59.143Z</time>
      </trkpt>
      <trkpt lat="47.76029" lon="1.98791">
        <ele>123</ele>
        <time>2017-01-22T08:39:00.132Z</time>
      </trkpt>
      <trkpt lat="47.76024" lon="1.98777">
        <ele>123</ele>
        <time>2017-01-22T08:39:01.139Z</time>
      </trkpt>
      <trkpt lat="47.76024" lon="1.98777">
        <ele>123</ele>
        <time>2017-01-22T08:39:02.145Z</time>
      </trkpt>
      <trkpt lat="47.7602" lon="1.98763">
        <ele>123</ele>
        <time>2017-01-22T08:39:03.135Z</time>
      </trkpt>
      <trkpt lat="47.7602" lon="1.98763">
        <ele>123</ele>
        <time>2017-01-22T08:39:04.157Z</time>
      </trkpt>
      <trkpt lat="47.76015" lon="1.98751">
        <ele>123</ele>
        <time>2017-01-22T08:39:05.125Z</time>
      </trkpt>
      <trkpt lat="47.76012" lon="1.98744">
        <ele>123</ele>
        <time>2017-01-22T08:39:06.120Z</time>
      </trkpt>
      <trkpt lat="47.76012" lon="1.98744">
        <ele>123</ele>
        <time>2017-01-22T08:39:07.147Z</time>
      </trkpt>
      <trkpt lat="47.76006" lon="1.98732">
        <ele>123</ele>
        <time>2017-01-22T08:39:08.120Z</time>
      </trkpt>
      <trkpt lat="47.76003" lon="1.98725">
        <ele>123</ele>
        <time>2017-01-22T08:39:09.122Z</time>
      </trkpt>
      <trkpt lat="47.76003" lon="1.98725">
        <ele>123</ele>
        <time>2017-01-22T08:39:10.155Z</time>
      </trkpt>
      <trkpt lat="47.75998" lon="1.98713">
        <ele>123</ele>
        <time>2017-01-22T08:39:11.154Z</time>
      </trkpt>
      <trkpt lat="47.75998" lon="1.98713">
        <ele>123</ele>
        <time>2017-01-22T08:39:12.142Z</time>
      </trkpt>
      <trkpt lat="47.75993" lon="1.98701">
        <ele>124</ele>
        <time>2017-01-22T08:39:13.125Z</time>
      </trkpt>
      <trkpt lat="47.75993" lon="1.98701">
        <ele>124</ele>
        <time>2017-01-22T08:39:14.143Z</time>
      </trkpt>
      <trkpt lat="47.75988" lon="1.98688">
        <ele>124</ele>
        <time>2017-01-22T08:39:15.155Z</time>
      </trkpt>
      <trkpt lat="47.75988" lon="1.98688">
        <ele>124</ele>
        <time>2017-01-22T08:39:16.157Z</time>
      </trkpt>
      <trkpt lat="47.75982" lon="1.98676">
        <ele>124</ele>
        <time>2017-01-22T08:39:17.123Z</time>
      </trkpt>
      <trkpt lat="47.75982" lon="1.98676">
        <ele>124</ele>
        <time>2017-01-22T08:39:18.132Z</time>
      </trkpt>
      <trkpt lat="47.75977" lon="1.98663">
        <ele>124</ele>
        <time>2017-01-22T08:39:19.157Z</time>
      </trkpt>
      <trkpt lat="47.75974" lon="1.98656">
        <ele>124</ele>
        <time>2017-01-22T08:39:20.126Z</time>
      </trkpt>
      <trkpt lat="47.75974" lon="1.98656">
        <ele>124</ele>
        <time>2017-01-22T08:39:21.140Z</time>
      </trkpt>
      <trkpt lat="47.75968" lon="1.98643">
        <ele>124</ele>
        <time>2017-01-22T08:39:22.125Z</time>
      </trkpt>
      <trkpt lat="47.75968" lon="1.98643">
        <ele>124</ele>
        <time>2017-01-22T08:39:23.142Z</time>
      </trkpt>
      <trkpt lat="47.75962" lon="1.9863">
        <ele>124</ele>
        <time>2017-01-22T08:39:24.124Z</time>
      </trkpt>
      <trkpt lat="47.7596" lon="1.98624">
        <ele>125</ele>
        <time>2017-01-22T08:39:25.136Z</time>
      </trkpt>
      <trkpt lat="47.7596" lon="1.98624">
        <ele>125</ele>
        <time>2017-01-22T08:39:26.140Z</time>
      </trkpt>
      <trkpt lat="47.75954" lon="1.9861">
        <ele>125</ele>
        <time>2017-01-22T08:39:27.155Z</time>
      </trkpt>
      <trkpt lat="47.75954" lon="1.9861">
        <ele>125</ele>
        <time>2017-01-22T08:39:28.151Z</time>
      </trkpt>
      <trkpt lat="47.75949" lon="1.98596">
        <ele>125</ele>
        <time>2017-01-22T08:39:29.124Z</time>
      </trkpt>
      <trkpt lat="47.75949" lon="1.98596">
        <ele>125</ele>
        <time>2017-01-22T08:39:30.150Z</time>
      </trkpt>
      <trkpt lat="47.75943" lon="1.98583">
        <ele>126</ele>
        <time>2017-01-22T08:39:31.161Z</time>
      </trkpt>
      <trkpt lat="47.75943" lon="1.98583">
        <ele>126</ele>
        <time>2017-01-22T08:39:32.154Z</time>
      </trkpt>
      <trkpt lat="47.75938" lon="1.9857">
        <ele>125</ele>
        <time>2017-01-22T08:39:33.125Z</time>
      </trkpt>
      <trkpt lat="47.75938" lon="1.9857">
        <ele>125</ele>
        <time>2017-01-22T08:39:34.143Z</time>
      </trkpt>
      <trkpt lat="47.75932" lon="1.98556">
        <ele>125</ele>
        <time>2017-01-22T08:39:35.154Z</time>
      </trkpt>
      <trkpt lat="47.75932" lon="1.98556">
        <ele>125</ele>
        <time>2017-01-22T08:39:36.137Z</time>
      </trkpt>
      <trkpt lat="47.75926" lon="1.98543">
        <ele>125</ele>
        <time>2017-01-22T08:39:37.124Z</time>
      </trkpt>
      <trkpt lat="47.75926" lon="1.98543">
        <ele>125</ele>
        <time>2017-01-22T08:39:38.118Z</time>
      </trkpt>
      <trkpt lat="47.75921" lon="1.98529">
        <ele>125</ele>
        <time>2017-01-22T08:39:39.132Z</time>
      </trkpt>
      <trkpt lat="47.75921" lon="1.98529">
        <ele>125</ele>
        <time>2017-01-22T08:39:40.143Z</time>
      </trkpt>
      <trkpt lat="47.75916" lon="1.98515">
        <ele>125</ele>
        <time>2017-01-22T08:39:41.155Z</time>
      </trkpt>
      <trkpt lat="47.75916" lon="1.98515">
        <ele>125</ele>
        <time>2017-01-22T08:39:42.128Z</time>
      </trkpt>
      <trkpt lat="47.7591" lon="1.98501">
        <ele>126</ele>
        <time>2017-01-22T08:39:43.144Z</time>
      </trkpt>
      <trkpt lat="47.7591" lon="1.98501">
        <ele>126</ele>
        <time>2017-01-22T08:39:44.143Z</time>
      </trkpt>
      <trkpt lat="47.75904" lon="1.98488">
        <ele>125</ele>
        <time>2017-01-22T08:39:45.159Z</time>
      </trkpt>
      <trkpt lat="47.75904" lon="1.98488">
        <ele>125</ele>
        <time>2017-01-22T08:39:46.119Z</time>
      </trkpt>
      <trkpt lat="47.75898" lon="1.98475">
        <ele>125</ele>
        <time>2017-01-22T08:39:47.125Z</time>
      </trkpt>
      <trkpt lat="47.75898" lon="1.98475">
        <ele>125</ele>
        <time>2017-01-22T08:39:48.142Z</time>
      </trkpt>
      <trkpt lat="47.75892" lon="1.98462">
        <ele>125</ele>
        <time>2017-01-22T08:39:49.154Z</time>
      </trkpt>
      <trkpt lat="47.75892" lon="1.98462">
        <ele>125</ele>
        <time>2017-01-22T08:39:50.143Z</time>
      </trkpt>
      <trkpt lat="47.75888" lon="1.9845">
        <ele>125</ele>
        <time>2017-01-22T08:39:51.155Z</time>
      </trkpt>
      <trkpt lat="47.75886" lon="1.98445">
        <ele>126</ele>
        <time>2017-01-22T08:39:52.125Z</time>
      </trkpt>
      <trkpt lat="47.75886" lon="1.98445">
        <ele>126</ele>
        <time>2017-01-22T08:39:53.136Z</time>
      </trkpt>
      <trkpt lat="47.75882" lon="1.98435">
        <ele>126</ele>
        <time>2017-01-22T08:39:54.158Z</time>
      </trkpt>
      <trkpt lat="47.75879" lon="1.98431">
        <ele>127</ele>
        <time>2017-01-22T08:39:55.150Z</time>
      </trkpt>
      <trkpt lat="47.75879" lon="1.98431">
        <ele>127</ele>
        <time>2017-01-22T08:39:56.142Z</time>
      </trkpt>
      <trkpt lat="47.75872" lon="1.98425">
        <ele>128</ele>
        <time>2017-01-22T08:39:57.155Z</time>
      </trkpt>
      <trkpt lat="47.75872" lon="1.98425">
        <ele>128</ele>
        <time>2017-01-22T08:39:58.146Z</time>
      </trkpt>
      <trkpt lat="47.75864" lon="1.98417">
        <ele>129</ele>
        <time>2017-01-22T08:39:59.125Z</time>
      </trkpt>
      <trkpt lat="47.75864" lon="1.98417">
        <ele>129</ele>
        <time>2017-01-22T08:40:00.132Z</time>
      </trkpt>
      <trkpt lat="47.75855" lon="1.98409">
        <ele>129</ele>
        <time>2017-01-22T08:40:01.141Z</time>
      </trkpt>
      <trkpt lat="47.75855" lon="1.98409">
        <ele>129</ele>
        <time>2017-01-22T08:40:02.141Z</time>
      </trkpt>
      <trkpt lat="47.75848" lon="1.98401">
        <ele>130</ele>
        <time>2017-01-22T08:40:03.121Z</time>
      </trkpt>
      <trkpt lat="47.75844" lon="1.98397">
        <ele>130</ele>
        <time>2017-01-22T08:40:04.147Z</time>
      </trkpt>
      <trkpt lat="47.75844" lon="1.98397">
        <ele>130</ele>
        <time>2017-01-22T08:40:05.135Z</time>
      </trkpt>
      <trkpt lat="47.75836" lon="1.98389">
        <ele>130</ele>
        <time>2017-01-22T08:40:06.128Z</time>
      </trkpt>
      <trkpt lat="47.75831" lon="1.98385">
        <ele>131</ele>
        <time>2017-01-22T08:40:07.154Z</time>
      </trkpt>
      <trkpt lat="47.75831" lon="1.98385">
        <ele>131</ele>
        <time>2017-01-22T08:40:08.146Z</time>
      </trkpt>
      <trkpt lat="47.75823" lon="1.98376">
        <ele>131</ele>
        <time>2017-01-22T08:40:09.124Z</time>
      </trkpt>
      <trkpt lat="47.75823" lon="1.98376">
        <ele>131</ele>
        <time>2017-01-22T08:40:10.143Z</time>
      </trkpt>
      <trkpt lat="47.75815" lon="1.98367">
        <ele>132</ele>
        <time>2017-01-22T08:40:11.139Z</time>
      </trkpt>
      <trkpt lat="47.75815" lon="1.98367">
        <ele>132</ele>
        <time>2017-01-22T08:40:12.118Z</time>
      </trkpt>
      <trkpt lat="47.75807" lon="1.98358">
        <ele>132</ele>
        <time>2017-01-22T08:40:13.121Z</time>
      </trkpt>
      <trkpt lat="47.75804" lon="1.98354">
        <ele>132</ele>
        <time>2017-01-22T08:40:14.136Z</time>
      </trkpt>
      <trkpt lat="47.758" lon="1.98349">
        <ele>132</ele>
        <time>2017-01-22T08:40:15.125Z</time>
      </trkpt>
      <trkpt lat="47.758" lon="1.98349">
        <ele>132</ele>
        <time>2017-01-22T08:40:16.129Z</time>
      </trkpt>
      <trkpt lat="47.75791" lon="1.9834">
        <ele>132</ele>
        <time>2017-01-22T08:40:17.139Z</time>
      </trkpt>
      <trkpt lat="47.75791" lon="1.9834">
        <ele>132</ele>
        <time>2017-01-22T08:40:18.124Z</time>
      </trkpt>
      <trkpt lat="47.75783" lon="1.98331">
        <ele>132</ele>
        <time>2017-01-22T08:40:19.142Z</time>
      </trkpt>
      <trkpt lat="47.75779" lon="1.98325">
        <ele>132</ele>
        <time>2017-01-22T08:40:20.125Z</time>
      </trkpt>
      <trkpt lat="47.75774" lon="1.9832">
        <ele>131</ele>
        <time>2017-01-22T08:40:21.144Z</time>
      </trkpt>
      <trkpt lat="47.75774" lon="1.9832">
        <ele>131</ele>
        <time>2017-01-22T08:40:22.154Z</time>
      </trkpt>
      <trkpt lat="47.75763" lon="1.98308">
        <ele>131</ele>
        <time>2017-01-22T08:40:23.133Z</time>
      </trkpt>
      <trkpt lat="47.75763" lon="1.98308">
        <ele>131</ele>
        <time>2017-01-22T08:40:24.128Z</time>
      </trkpt>
      <trkpt lat="47.75752" lon="1.98297">
        <ele>131</ele>
        <time>2017-01-22T08:40:25.134Z</time>
      </trkpt>
      <trkpt lat="47.75747" lon="1.98292">
        <ele>130</ele>
        <time>2017-01-22T08:40:26.125Z</time>
      </trkpt>
      <trkpt lat="47.75747" lon="1.98292">
        <ele>130</ele>
        <time>2017-01-22T08:40:27.119Z</time>
      </trkpt>
      <trkpt lat="47.75737" lon="1.9828">
        <ele>130</ele>
        <time>2017-01-22T08:40:28.129Z</time>
      </trkpt>
      <trkpt lat="47.75737" lon="1.9828">
        <ele>130</ele>
        <time>2017-01-22T08:40:29.152Z</time>
      </trkpt>
      <trkpt lat="47.75725" lon="1.98268">
        <ele>130</ele>
        <time>2017-01-22T08:40:30.157Z</time>
      </trkpt>
      <trkpt lat="47.75719" lon="1.98263">
        <ele>129</ele>
        <time>2017-01-22T08:40:31.121Z</time>
      </trkpt>
      <trkpt lat="47.75719" lon="1.98263">
        <ele>129</ele>
        <time>2017-01-22T08:40:32.155Z</time>
      </trkpt>
      <trkpt lat="47.75708" lon="1.9825">
        <ele>129</ele>
        <time>2017-01-22T08:40:33.125Z</time>
      </trkpt>
      <trkpt lat="47.75708" lon="1.9825">
        <ele>129</ele>
        <time>2017-01-22T08:40:34.126Z</time>
      </trkpt>
      <trkpt lat="47.75698" lon="1.98238">
        <ele>129</ele>
        <time>2017-01-22T08:40:35.140Z</time>
      </trkpt>
      <trkpt lat="47.75698" lon="1.98238">
        <ele>129</ele>
        <time>2017-01-22T08:40:36.155Z</time>
      </trkpt>
      <trkpt lat="47.75688" lon="1.98227">
        <ele>128</ele>
        <time>2017-01-22T08:40:37.154Z</time>
      </trkpt>
      <trkpt lat="47.75688" lon="1.98227">
        <ele>128</ele>
        <time>2017-01-22T08:40:38.151Z</time>
      </trkpt>
      <trkpt lat="47.75678" lon="1.98216">
        <ele>127</ele>
        <time>2017-01-22T08:40:39.118Z</time>
      </trkpt>
      <trkpt lat="47.75678" lon="1.98216">
        <ele>127</ele>
        <time>2017-01-22T08:40:40.149Z</time>
      </trkpt>
      <trkpt lat="47.75668" lon="1.98206">
        <ele>126</ele>
        <time>2017-01-22T08:40:41.155Z</time>
      </trkpt>
      <trkpt lat="47.75663" lon="1.98202">
        <ele>126</ele>
        <time>2017-01-22T08:40:42.125Z</time>
      </trkpt>
      <trkpt lat="47.75657" lon="1.98198">
        <ele>125</ele>
        <time>2017-01-22T08:40:43.125Z</time>
      </trkpt>
      <trkpt lat="47.75657" lon="1.98198">
        <ele>125</ele>
        <time>2017-01-22T08:40:44.148Z</time>
      </trkpt>
      <trkpt lat="47.75647" lon="1.98189">
        <ele>125</ele>
        <time>2017-01-22T08:40:45.154Z</time>
      </trkpt>
      <trkpt lat="47.75647" lon="1.98189">
        <ele>125</ele>
        <time>2017-01-22T08:40:46.131Z</time>
      </trkpt>
      <trkpt lat="47.75638" lon="1.9818">
        <ele>124</ele>
        <time>2017-01-22T08:40:47.144Z</time>
      </trkpt>
      <trkpt lat="47.75638" lon="1.9818">
        <ele>124</ele>
        <time>2017-01-22T08:40:48.120Z</time>
      </trkpt>
      <trkpt lat="47.7563" lon="1.98171">
        <ele>124</ele>
        <time>2017-01-22T08:40:49.125Z</time>
      </trkpt>
      <trkpt lat="47.7563" lon="1.98171">
        <ele>124</ele>
        <time>2017-01-22T08:40:50.143Z</time>
      </trkpt>
      <trkpt lat="47.75621" lon="1.98163">
        <ele>123</ele>
        <time>2017-01-22T08:40:51.125Z</time>
      </trkpt>
      <trkpt lat="47.75621" lon="1.98163">
        <ele>123</ele>
        <time>2017-01-22T08:40:52.126Z</time>
      </trkpt>
      <trkpt lat="47.75613" lon="1.98154">
        <ele>122</ele>
        <time>2017-01-22T08:40:53.152Z</time>
      </trkpt>
      <trkpt lat="47.75613" lon="1.98154">
        <ele>122</ele>
        <time>2017-01-22T08:40:54.124Z</time>
      </trkpt>
      <trkpt lat="47.75605" lon="1.98144">
        <ele>122</ele>
        <time>2017-01-22T08:40:55.138Z</time>
      </trkpt>
      <trkpt lat="47.75605" lon="1.98144">
        <ele>122</ele>
        <time>2017-01-22T08:40:56.143Z</time>
      </trkpt>
      <trkpt lat="47.75597" lon="1.98136">
        <ele>121</ele>
        <time>2017-01-22T08:40:57.125Z</time>
      </trkpt>
      <trkpt lat="47.75597" lon="1.98136">
        <ele>121</ele>
        <time>2017-01-22T08:40:58.143Z</time>
      </trkpt>
      <trkpt lat="47.75589" lon="1.98128">
        <ele>121</ele>
        <time>2017-01-22T08:40:59.125Z</time>
      </trkpt>
      <trkpt lat="47.75589" lon="1.98128">
        <ele>121</ele>
        <time>2017-01-22T08:41:00.144Z</time>
      </trkpt>
      <trkpt lat="47.75582" lon="1.98118">
        <ele>121</ele>
        <time>2017-01-22T08:41:01.118Z</time>
      </trkpt>
      <trkpt lat="47.75582" lon="1.98118">
        <ele>121</ele>
        <time>2017-01-22T08:41:02.144Z</time>
      </trkpt>
      <trkpt lat="47.75574" lon="1.98109">
        <ele>120</ele>
        <time>2017-01-22T08:41:03.123Z</time>
      </trkpt>
      <trkpt lat="47.75574" lon="1.98109">
        <ele>120</ele>
        <time>2017-01-22T08:41:04.153Z</time>
      </trkpt>
      <trkpt lat="47.75566" lon="1.98101">
        <ele>121</ele>
        <time>2017-01-22T08:41:05.123Z</time>
      </trkpt>
      <trkpt lat="47.75566" lon="1.98101">
        <ele>121</ele>
        <time>2017-01-22T08:41:06.133Z</time>
      </trkpt>
      <trkpt lat="47.75558" lon="1.98094">
        <ele>121</ele>
        <time>2017-01-22T08:41:07.155Z</time>
      </trkpt>
      <trkpt lat="47.75558" lon="1.98094">
        <ele>121</ele>
        <time>2017-01-22T08:41:08.148Z</time>
      </trkpt>
      <trkpt lat="47.7555" lon="1.98085">
        <ele>122</ele>
        <time>2017-01-22T08:41:09.125Z</time>
      </trkpt>
      <trkpt lat="47.7555" lon="1.98085">
        <ele>122</ele>
        <time>2017-01-22T08:41:10.156Z</time>
      </trkpt>
      <trkpt lat="47.75543" lon="1.98077">
        <ele>121</ele>
        <time>2017-01-22T08:41:11.157Z</time>
      </trkpt>
      <trkpt lat="47.75543" lon="1.98077">
        <ele>121</ele>
        <time>2017-01-22T08:41:12.149Z</time>
      </trkpt>
      <trkpt lat="47.75535" lon="1.98069">
        <ele>121</ele>
        <time>2017-01-22T08:41:13.154Z</time>
      </trkpt>
      <trkpt lat="47.75535" lon="1.98069">
        <ele>121</ele>
        <time>2017-01-22T08:41:14.144Z</time>
      </trkpt>
      <trkpt lat="47.75527" lon="1.98061">
        <ele>120</ele>
        <time>2017-01-22T08:41:15.125Z</time>
      </trkpt>
      <trkpt lat="47.75527" lon="1.98061">
        <ele>120</ele>
        <time>2017-01-22T08:41:16.156Z</time>
      </trkpt>
      <trkpt lat="47.75519" lon="1.98053">
        <ele>120</ele>
        <time>2017-01-22T08:41:17.125Z</time>
      </trkpt>
      <trkpt lat="47.75515" lon="1.98049">
        <ele>120</ele>
        <time>2017-01-22T08:41:18.119Z</time>
      </trkpt>
      <trkpt lat="47.75515" lon="1.98049">
        <ele>120</ele>
        <time>2017-01-22T08:41:19.143Z</time>
      </trkpt>
      <trkpt lat="47.75508" lon="1.98041">
        <ele>120</ele>
        <time>2017-01-22T08:41:20.125Z</time>
      </trkpt>
      <trkpt lat="47.75508" lon="1.98041">
        <ele>120</ele>
        <time>2017-01-22T08:41:21.156Z</time>
      </trkpt>
      <trkpt lat="47.755" lon="1.98032">
        <ele>119</ele>
        <time>2017-01-22T08:41:22.137Z</time>
      </trkpt>
      <trkpt lat="47.755" lon="1.98032">
        <ele>119</ele>
        <time>2017-01-22T08:41:23.157Z</time>
      </trkpt>
      <trkpt lat="47.75494" lon="1.98024">
        <ele>119</ele>
        <time>2017-01-22T08:41:24.121Z</time>
      </trkpt>
      <trkpt lat="47.7549" lon="1.9802">
        <ele>119</ele>
        <time>2017-01-22T08:41:25.138Z</time>
      </trkpt>
      <trkpt lat="47.7549" lon="1.9802">
        <ele>119</ele>
        <time>2017-01-22T08:41:26.147Z</time>
      </trkpt>
      <trkpt lat="47.75483" lon="1.98012">
        <ele>118</ele>
        <time>2017-01-22T08:41:27.122Z</time>
      </trkpt>
      <trkpt lat="47.75483" lon="1.98012">
        <ele>118</ele>
        <time>2017-01-22T08:41:28.142Z</time>
      </trkpt>
      <trkpt lat="47.75476" lon="1.98004">
        <ele>118</ele>
        <time>2017-01-22T08:41:29.120Z</time>
      </trkpt>
      <trkpt lat="47.75472" lon="1.98001">
        <ele>119</ele>
        <time>2017-01-22T08:41:30.125Z</time>
      </trkpt>
      <trkpt lat="47.75468" lon="1.97998">
        <ele>119</ele>
        <time>2017-01-22T08:41:31.121Z</time>
      </trkpt>
      <trkpt lat="47.75468" lon="1.97998">
        <ele>119</ele>
        <time>2017-01-22T08:41:32.155Z</time>
      </trkpt>
      <trkpt lat="47.75461" lon="1.97991">
        <ele>119</ele>
        <time>2017-01-22T08:41:33.125Z</time>
      </trkpt>
      <trkpt lat="47.75461" lon="1.97991">
        <ele>119</ele>
        <time>2017-01-22T08:41:34.123Z</time>
      </trkpt>
      <trkpt lat="47.75455" lon="1.97982">
        <ele>118</ele>
        <time>2017-01-22T08:41:35.120Z</time>
      </trkpt>
      <trkpt lat="47.75455" lon="1.97982">
        <ele>118</ele>
        <time>2017-01-22T08:41:36.141Z</time>
      </trkpt>
      <trkpt lat="47.75447" lon="1.97976">
        <ele>119</ele>
        <time>2017-01-22T08:41:37.143Z</time>
      </trkpt>
      <trkpt lat="47.75447" lon="1.97976">
        <ele>119</ele>
        <time>2017-01-22T08:41:38.141Z</time>
      </trkpt>
      <trkpt lat="47.7544" lon="1.97969">
        <ele>119</ele>
        <time>2017-01-22T08:41:39.121Z</time>
      </trkpt>
      <trkpt lat="47.75436" lon="1.97965">
        <ele>119</ele>
        <time>2017-01-22T08:41:40.155Z</time>
      </trkpt>
      <trkpt lat="47.75436" lon="1.97965">
        <ele>119</ele>
        <time>2017-01-22T08:41:41.157Z</time>
      </trkpt>
      <trkpt lat="47.75429" lon="1.97957">
        <ele>119</ele>
        <time>2017-01-22T08:41:42.158Z</time>
      </trkpt>
      <trkpt lat="47.75426" lon="1.97953">
        <ele>119</ele>
        <time>2017-01-22T08:41:43.120Z</time>
      </trkpt>
      <trkpt lat="47.75426" lon="1.97953">
        <ele>119</ele>
        <time>2017-01-22T08:41:44.122Z</time>
      </trkpt>
      <trkpt lat="47.75418" lon="1.97946">
        <ele>119</ele>
        <time>2017-01-22T08:41:45.119Z</time>
      </trkpt>
      <trkpt lat="47.75414" lon="1.97942">
        <ele>119</ele>
        <time>2017-01-22T08:41:46.145Z</time>
      </trkpt>
      <trkpt lat="47.75414" lon="1.97942">
        <ele>119</ele>
        <time>2017-01-22T08:41:47.143Z</time>
      </trkpt>
      <trkpt lat="47.75406" lon="1.97934">
        <ele>119</ele>
        <time>2017-01-22T08:41:48.123Z</time>
      </trkpt>
      <trkpt lat="47.75402" lon="1.9793">
        <ele>119</ele>
        <time>2017-01-22T08:41:49.122Z</time>
      </trkpt>
      <trkpt lat="47.75402" lon="1.9793">
        <ele>119</ele>
        <time>2017-01-22T08:41:50.120Z</time>
      </trkpt>
      <trkpt lat="47.75394" lon="1.97922">
        <ele>120</ele>
        <time>2017-01-22T08:41:51.120Z</time>
      </trkpt>
      <trkpt lat="47.75394" lon="1.97922">
        <ele>120</ele>
        <time>2017-01-22T08:41:52.147Z</time>
      </trkpt>
      <trkpt lat="47.75385" lon="1.97914">
        <ele>120</ele>
        <time>2017-01-22T08:41:53.154Z</time>
      </trkpt>
      <trkpt lat="47.75385" lon="1.97914">
        <ele>120</ele>
        <time>2017-01-22T08:41:54.147Z</time>
      </trkpt>
      <trkpt lat="47.75378" lon="1.97905">
        <ele>120</ele>
        <time>2017-01-22T08:41:55.158Z</time>
      </trkpt>
      <trkpt lat="47.75378" lon="1.97905">
        <ele>120</ele>
        <time>2017-01-22T08:41:56.124Z</time>
      </trkpt>
      <trkpt lat="47.75371" lon="1.97898">
        <ele>120</ele>
        <time>2017-01-22T08:41:57.124Z</time>
      </trkpt>
      <trkpt lat="47.75371" lon="1.97898">
        <ele>120</ele>
        <time>2017-01-22T08:41:58.143Z</time>
      </trkpt>
      <trkpt lat="47.75364" lon="1.97891">
        <ele>120</ele>
        <time>2017-01-22T08:41:59.124Z</time>
      </trkpt>
      <trkpt lat="47.75364" lon="1.97891">
        <ele>120</ele>
        <time>2017-01-22T08:42:00.149Z</time>
      </trkpt>
      <trkpt lat="47.75357" lon="1.97883">
        <ele>119</ele>
        <time>2017-01-22T08:42:01.161Z</time>
      </trkpt>
      <trkpt lat="47.75357" lon="1.97883">
        <ele>119</ele>
        <time>2017-01-22T08:42:02.129Z</time>
      </trkpt>
      <trkpt lat="47.75351" lon="1.97875">
        <ele>120</ele>
        <time>2017-01-22T08:42:03.144Z</time>
      </trkpt>
      <trkpt lat="47.75351" lon="1.97875">
        <ele>120</ele>
        <time>2017-01-22T08:42:04.134Z</time>
      </trkpt>
      <trkpt lat="47.75343" lon="1.97869">
        <ele>119</ele>
        <time>2017-01-22T08:42:05.142Z</time>
      </trkpt>
      <trkpt lat="47.7534" lon="1.97865">
        <ele>119</ele>
        <time>2017-01-22T08:42:06.125Z</time>
      </trkpt>
      <trkpt lat="47.75336" lon="1.97862">
        <ele>119</ele>
        <time>2017-01-22T08:42:07.154Z</time>
      </trkpt>
      <trkpt lat="47.75336" lon="1.97862">
        <ele>119</ele>
        <time>2017-01-22T08:42:08.144Z</time>
      </trkpt>
      <trkpt lat="47.75329" lon="1.97854">
        <ele>119</ele>
        <time>2017-01-22T08:42:09.158Z</time>
      </trkpt>
      <trkpt lat="47.75329" lon="1.97854">
        <ele>119</ele>
        <time>2017-01-22T08:42:10.150Z</time>
      </trkpt>
      <trkpt lat="47.75322" lon="1.97846">
        <ele>118</ele>
        <time>2017-01-22T08:42:11.123Z</time>
      </trkpt>
      <trkpt lat="47.75322" lon="1.97846">
        <ele>118</ele>
        <time>2017-01-22T08:42:12.148Z</time>
      </trkpt>
      <trkpt lat="47.75316" lon="1.97839">
        <ele>118</ele>
        <time>2017-01-22T08:42:13.123Z</time>
      </trkpt>
      <trkpt lat="47.75316" lon="1.97839">
        <ele>118</ele>
        <time>2017-01-22T08:42:14.122Z</time>
      </trkpt>
      <trkpt lat="47.75309" lon="1.97833">
        <ele>119</ele>
        <time>2017-01-22T08:42:15.125Z</time>
      </trkpt>
      <trkpt lat="47.75309" lon="1.97833">
        <ele>119</ele>
        <time>2017-01-22T08:42:16.145Z</time>
      </trkpt>
      <trkpt lat="47.75302" lon="1.97825">
        <ele>119</ele>
        <time>2017-01-22T08:42:17.125Z</time>
      </trkpt>
      <trkpt lat="47.75302" lon="1.97825">
        <ele>119</ele>
        <time>2017-01-22T08:42:18.141Z</time>
      </trkpt>
      <trkpt lat="47.75295" lon="1.97817">
        <ele>119</ele>
        <time>2017-01-22T08:42:19.160Z</time>
      </trkpt>
      <trkpt lat="47.75295" lon="1.97817">
        <ele>119</ele>
        <time>2017-01-22T08:42:20.130Z</time>
      </trkpt>
      <trkpt lat="47.75288" lon="1.9781">
        <ele>119</ele>
        <time>2017-01-22T08:42:21.144Z</time>
      </trkpt>
      <trkpt lat="47.75288" lon="1.9781">
        <ele>119</ele>
        <time>2017-01-22T08:42:22.144Z</time>
      </trkpt>
      <trkpt lat="47.75281" lon="1.97801">
        <ele>119</ele>
        <time>2017-01-22T08:42:23.153Z</time>
      </trkpt>
      <trkpt lat="47.75281" lon="1.97801">
        <ele>119</ele>
        <time>2017-01-22T08:42:24.142Z</time>
      </trkpt>
      <trkpt lat="47.75273" lon="1.97793">
        <ele>119</ele>
        <time>2017-01-22T08:42:25.125Z</time>
      </trkpt>
      <trkpt lat="47.75273" lon="1.97793">
        <ele>119</ele>
        <time>2017-01-22T08:42:26.144Z</time>
      </trkpt>
      <trkpt lat="47.75266" lon="1.97784">
        <ele>119</ele>
        <time>2017-01-22T08:42:27.121Z</time>
      </trkpt>
      <trkpt lat="47.75266" lon="1.97784">
        <ele>119</ele>
        <time>2017-01-22T08:42:28.141Z</time>
      </trkpt>
      <trkpt lat="47.75259" lon="1.97777">
        <ele>119</ele>
        <time>2017-01-22T08:42:29.157Z</time>
      </trkpt>
      <trkpt lat="47.75256" lon="1.97772">
        <ele>118</ele>
        <time>2017-01-22T08:42:30.125Z</time>
      </trkpt>
      <trkpt lat="47.75256" lon="1.97772">
        <ele>118</ele>
        <time>2017-01-22T08:42:31.144Z</time>
      </trkpt>
      <trkpt lat="47.7525" lon="1.97763">
        <ele>118</ele>
        <time>2017-01-22T08:42:32.123Z</time>
      </trkpt>
      <trkpt lat="47.7525" lon="1.97763">
        <ele>118</ele>
        <time>2017-01-22T08:42:33.144Z</time>
      </trkpt>
      <trkpt lat="47.75243" lon="1.97754">
        <ele>118</ele>
        <time>2017-01-22T08:42:34.119Z</time>
      </trkpt>
      <trkpt lat="47.75243" lon="1.97754">
        <ele>118</ele>
        <time>2017-01-22T08:42:35.144Z</time>
      </trkpt>
      <trkpt lat="47.75235" lon="1.97746">
        <ele>118</ele>
        <time>2017-01-22T08:42:36.145Z</time>
      </trkpt>
      <trkpt lat="47.7523" lon="1.97742">
        <ele>118</ele>
        <time>2017-01-22T08:42:37.153Z</time>
      </trkpt>
      <trkpt lat="47.7523" lon="1.97742">
        <ele>118</ele>
        <time>2017-01-22T08:42:38.154Z</time>
      </trkpt>
      <trkpt lat="47.75223" lon="1.97734">
        <ele>118</ele>
        <time>2017-01-22T08:42:39.125Z</time>
      </trkpt>
      <trkpt lat="47.75223" lon="1.97734">
        <ele>118</ele>
        <time>2017-01-22T08:42:40.144Z</time>
      </trkpt>
      <trkpt lat="47.75216" lon="1.97725">
        <ele>119</ele>
        <time>2017-01-22T08:42:41.124Z</time>
      </trkpt>
      <trkpt lat="47.75212" lon="1.97722">
        <ele>119</ele>
        <time>2017-01-22T08:42:42.155Z</time>
      </trkpt>
      <trkpt lat="47.75212" lon="1.97722">
        <ele>119</ele>
        <time>2017-01-22T08:42:43.126Z</time>
      </trkpt>
      <trkpt lat="47.75205" lon="1.97714">
        <ele>119</ele>
        <time>2017-01-22T08:42:44.136Z</time>
      </trkpt>
      <trkpt lat="47.75201" lon="1.9771">
        <ele>119</ele>
        <time>2017-01-22T08:42:45.154Z</time>
      </trkpt>
      <trkpt lat="47.75201" lon="1.9771">
        <ele>119</ele>
        <time>2017-01-22T08:42:46.140Z</time>
      </trkpt>
      <trkpt lat="47.75193" lon="1.97702">
        <ele>119</ele>
        <time>2017-01-22T08:42:47.124Z</time>
      </trkpt>
      <trkpt lat="47.75193" lon="1.97702">
        <ele>119</ele>
        <time>2017-01-22T08:42:48.143Z</time>
      </trkpt>
      <trkpt lat="47.75185" lon="1.97694">
        <ele>119</ele>
        <time>2017-01-22T08:42:49.154Z</time>
      </trkpt>
      <trkpt lat="47.75185" lon="1.97694">
        <ele>119</ele>
        <time>2017-01-22T08:42:50.144Z</time>
      </trkpt>
      <trkpt lat="47.75178" lon="1.97686">
        <ele>120</ele>
        <time>2017-01-22T08:42:51.155Z</time>
      </trkpt>
      <trkpt lat="47.75178" lon="1.97686">
        <ele>120</ele>
        <time>2017-01-22T08:42:52.157Z</time>
      </trkpt>
      <trkpt lat="47.7517" lon="1.97678">
        <ele>121</ele>
        <time>2017-01-22T08:42:53.125Z</time>
      </trkpt>
      <trkpt lat="47.7517" lon="1.97678">
        <ele>121</ele>
        <time>2017-01-22T08:42:54.147Z</time>
      </trkpt>
      <trkpt lat="47.75163" lon="1.97671">
        <ele>121</ele>
        <time>2017-01-22T08:42:55.125Z</time>
      </trkpt>
      <trkpt lat="47.75163" lon="1.97671">
        <ele>121</ele>
        <time>2017-01-22T08:42:56.143Z</time>
      </trkpt>
      <trkpt lat="47.75156" lon="1.97663">
        <ele>122</ele>
        <time>2017-01-22T08:42:57.153Z</time>
      </trkpt>
      <trkpt lat="47.75156" lon="1.97663">
        <ele>122</ele>
        <time>2017-01-22T08:42:58.138Z</time>
      </trkpt>
      <trkpt lat="47.75148" lon="1.97655">
        <ele>122</ele>
        <time>2017-01-22T08:42:59.144Z</time>
      </trkpt>
      <trkpt lat="47.75148" lon="1.97655">
        <ele>122</ele>
        <time>2017-01-22T08:43:00.149Z</time>
      </trkpt>
      <trkpt lat="47.7514" lon="1.97647">
        <ele>122</ele>
        <time>2017-01-22T08:43:01.123Z</time>
      </trkpt>
      <trkpt lat="47.7514" lon="1.97647">
        <ele>122</ele>
        <time>2017-01-22T08:43:02.150Z</time>
      </trkpt>
      <trkpt lat="47.75132" lon="1.97639">
        <ele>122</ele>
        <time>2017-01-22T08:43:03.155Z</time>
      </trkpt>
      <trkpt lat="47.75132" lon="1.97639">
        <ele>122</ele>
        <time>2017-01-22T08:43:04.157Z</time>
      </trkpt>
      <trkpt lat="47.75124" lon="1.97629">
        <ele>121</ele>
        <time>2017-01-22T08:43:05.125Z</time>
      </trkpt>
      <trkpt lat="47.75124" lon="1.97629">
        <ele>121</ele>
        <time>2017-01-22T08:43:06.135Z</time>
      </trkpt>
      <trkpt lat="47.75115" lon="1.9762">
        <ele>121</ele>
        <time>2017-01-22T08:43:07.155Z</time>
      </trkpt>
      <trkpt lat="47.75115" lon="1.9762">
        <ele>121</ele>
        <time>2017-01-22T08:43:08.124Z</time>
      </trkpt>
      <trkpt lat="47.75107" lon="1.97611">
        <ele>121</ele>
        <time>2017-01-22T08:43:09.124Z</time>
      </trkpt>
      <trkpt lat="47.75107" lon="1.97611">
        <ele>121</ele>
        <time>2017-01-22T08:43:10.147Z</time>
      </trkpt>
      <trkpt lat="47.75099" lon="1.97603">
        <ele>121</ele>
        <time>2017-01-22T08:43:11.123Z</time>
      </trkpt>
      <trkpt lat="47.75095" lon="1.97599">
        <ele>121</ele>
        <time>2017-01-22T08:43:12.123Z</time>
      </trkpt>
      <trkpt lat="47.75091" lon="1.97594">
        <ele>120</ele>
        <time>2017-01-22T08:43:13.123Z</time>
      </trkpt>
      <trkpt lat="47.75091" lon="1.97594">
        <ele>120</ele>
        <time>2017-01-22T08:43:14.142Z</time>
      </trkpt>
      <trkpt lat="47.75084" lon="1.97585">
        <ele>120</ele>
        <time>2017-01-22T08:43:15.152Z</time>
      </trkpt>
      <trkpt lat="47.75084" lon="1.97585">
        <ele>120</ele>
        <time>2017-01-22T08:43:16.145Z</time>
      </trkpt>
      <trkpt lat="47.75076" lon="1.97579">
        <ele>120</ele>
        <time>2017-01-22T08:43:17.123Z</time>
      </trkpt>
      <trkpt lat="47.75076" lon="1.97579">
        <ele>120</ele>
        <time>2017-01-22T08:43:18.142Z</time>
      </trkpt>
      <trkpt lat="47.75069" lon="1.97571">
        <ele>119</ele>
        <time>2017-01-22T08:43:19.125Z</time>
      </trkpt>
      <trkpt lat="47.75069" lon="1.97571">
        <ele>119</ele>
        <time>2017-01-22T08:43:20.130Z</time>
      </trkpt>
      <trkpt lat="47.75062" lon="1.97565">
        <ele>119</ele>
        <time>2017-01-22T08:43:21.151Z</time>
      </trkpt>
      <trkpt lat="47.75062" lon="1.97565">
        <ele>119</ele>
        <time>2017-01-22T08:43:22.121Z</time>
      </trkpt>
      <trkpt lat="47.75055" lon="1.97559">
        <ele>119</ele>
        <time>2017-01-22T08:43:23.119Z</time>
      </trkpt>
      <trkpt lat="47.75055" lon="1.97559">
        <ele>119</ele>
        <time>2017-01-22T08:43:24.144Z</time>
      </trkpt>
      <trkpt lat="47.75049" lon="1.97554">
        <ele>119</ele>
        <time>2017-01-22T08:43:25.135Z</time>
      </trkpt>
      <trkpt lat="47.75046" lon="1.9755">
        <ele>119</ele>
        <time>2017-01-22T08:43:26.155Z</time>
      </trkpt>
      <trkpt lat="47.75042" lon="1.97546">
        <ele>119</ele>
        <time>2017-01-22T08:43:27.119Z</time>
      </trkpt>
      <trkpt lat="47.75042" lon="1.97546">
        <ele>119</ele>
        <time>2017-01-22T08:43:28.141Z</time>
      </trkpt>
      <trkpt lat="47.75036" lon="1.97539">
        <ele>119</ele>
        <time>2017-01-22T08:43:29.161Z</time>
      </trkpt>
      <trkpt lat="47.75036" lon="1.97539">
        <ele>119</ele>
        <time>2017-01-22T08:43:30.147Z</time>
      </trkpt>
      <trkpt lat="47.7503" lon="1.97532">
        <ele>119</ele>
        <time>2017-01-22T08:43:31.131Z</time>
      </trkpt>
      <trkpt lat="47.7503" lon="1.97532">
        <ele>119</ele>
        <time>2017-01-22T08:43:32.156Z</time>
      </trkpt>
      <trkpt lat="47.75024" lon="1.97525">
        <ele>119</ele>
        <time>2017-01-22T08:43:33.158Z</time>
      </trkpt>
      <trkpt lat="47.75024" lon="1.97525">
        <ele>119</ele>
        <time>2017-01-22T08:43:34.144Z</time>
      </trkpt>
      <trkpt lat="47.75017" lon="1.97517">
        <ele>120</ele>
        <time>2017-01-22T08:43:35.125Z</time>
      </trkpt>
      <trkpt lat="47.75014" lon="1.97513">
        <ele>120</ele>
        <time>2017-01-22T08:43:36.125Z</time>
      </trkpt>
      <trkpt lat="47.75014" lon="1.97513">
        <ele>120</ele>
        <time>2017-01-22T08:43:37.145Z</time>
      </trkpt>
      <trkpt lat="47.75008" lon="1.97505">
        <ele>120</ele>
        <time>2017-01-22T08:43:38.122Z</time>
      </trkpt>
      <trkpt lat="47.75004" lon="1.97501">
        <ele>120</ele>
        <time>2017-01-22T08:43:39.147Z</time>
      </trkpt>
      <trkpt lat="47.75004" lon="1.97501">
        <ele>120</ele>
        <time>2017-01-22T08:43:40.146Z</time>
      </trkpt>
      <trkpt lat="47.74997" lon="1.97493">
        <ele>120</ele>
        <time>2017-01-22T08:43:41.123Z</time>
      </trkpt>
      <trkpt lat="47.74994" lon="1.9749">
        <ele>120</ele>
        <time>2017-01-22T08:43:42.144Z</time>
      </trkpt>
      <trkpt lat="47.7499" lon="1.97486">
        <ele>120</ele>
        <time>2017-01-22T08:43:43.121Z</time>
      </trkpt>
      <trkpt lat="47.7499" lon="1.97486">
        <ele>120</ele>
        <time>2017-01-22T08:43:44.145Z</time>
      </trkpt>
      <trkpt lat="47.74982" lon="1.97478">
        <ele>120</ele>
        <time>2017-01-22T08:43:45.135Z</time>
      </trkpt>
      <trkpt lat="47.74982" lon="1.97478">
        <ele>120</ele>
        <time>2017-01-22T08:43:46.157Z</time>
      </trkpt>
      <trkpt lat="47.74975" lon="1.97469">
        <ele>120</ele>
        <time>2017-01-22T08:43:47.123Z</time>
      </trkpt>
      <trkpt lat="47.74975" lon="1.97469">
        <ele>120</ele>
        <time>2017-01-22T08:43:48.136Z</time>
      </trkpt>
      <trkpt lat="47.74968" lon="1.97461">
        <ele>120</ele>
        <time>2017-01-22T08:43:49.125Z</time>
      </trkpt>
      <trkpt lat="47.74968" lon="1.97461">
        <ele>120</ele>
        <time>2017-01-22T08:43:50.126Z</time>
      </trkpt>
      <trkpt lat="47.74961" lon="1.97454">
        <ele>120</ele>
        <time>2017-01-22T08:43:51.144Z</time>
      </trkpt>
      <trkpt lat="47.74961" lon="1.97454">
        <ele>120</ele>
        <time>2017-01-22T08:43:52.144Z</time>
      </trkpt>
      <trkpt lat="47.74954" lon="1.97445">
        <ele>120</ele>
        <time>2017-01-22T08:43:53.120Z</time>
      </trkpt>
      <trkpt lat="47.7495" lon="1.9744">
        <ele>119</ele>
        <time>2017-01-22T08:43:54.151Z</time>
      </trkpt>
      <trkpt lat="47.7495" lon="1.9744">
        <ele>119</ele>
        <time>2017-01-22T08:43:55.139Z</time>
      </trkpt>
      <trkpt lat="47.74943" lon="1.97431">
        <ele>119</ele>
        <time>2017-01-22T08:43:56.152Z</time>
      </trkpt>
      <trkpt lat="47.74943" lon="1.97431">
        <ele>119</ele>
        <time>2017-01-22T08:43:57.157Z</time>
      </trkpt>
      <trkpt lat="47.74935" lon="1.97422">
        <ele>118</ele>
        <time>2017-01-22T08:43:58.118Z</time>
      </trkpt>
      <trkpt lat="47.74935" lon="1.97422">
        <ele>118</ele>
        <time>2017-01-22T08:43:59.141Z</time>
      </trkpt>
      <trkpt lat="47.74927" lon="1.97414">
        <ele>118</ele>
        <time>2017-01-22T08:44:00.161Z</time>
      </trkpt>
      <trkpt lat="47.74923" lon="1.9741">
        <ele>118</ele>
        <time>2017-01-22T08:44:01.120Z</time>
      </trkpt>
      <trkpt lat="47.74923" lon="1.9741">
        <ele>118</ele>
        <time>2017-01-22T08:44:02.144Z</time>
      </trkpt>
      <trkpt lat="47.74915" lon="1.97402">
        <ele>118</ele>
        <time>2017-01-22T08:44:03.123Z</time>
      </trkpt>
      <trkpt lat="47.74915" lon="1.97402">
        <ele>118</ele>
        <time>2017-01-22T08:44:04.126Z</time>
      </trkpt>
      <trkpt lat="47.74908" lon="1.97393">
        <ele>117</ele>
        <time>2017-01-22T08:44:05.142Z</time>
      </trkpt>
      <trkpt lat="47.74903" lon="1.97389">
        <ele>117</ele>
        <time>2017-01-22T08:44:06.125Z</time>
      </trkpt>
      <trkpt lat="47.749" lon="1.97384">
        <ele>117</ele>
        <time>2017-01-22T08:44:07.123Z</time>
      </trkpt>
      <trkpt lat="47.749" lon="1.97384">
        <ele>117</ele>
        <time>2017-01-22T08:44:08.154Z</time>
      </trkpt>
      <trkpt lat="47.74893" lon="1.97375">
        <ele>116</ele>
        <time>2017-01-22T08:44:09.159Z</time>
      </trkpt>
      <trkpt lat="47.74893" lon="1.97375">
        <ele>116</ele>
        <time>2017-01-22T08:44:10.144Z</time>
      </trkpt>
      <trkpt lat="47.74886" lon="1.97367">
        <ele>116</ele>
        <time>2017-01-22T08:44:11.125Z</time>
      </trkpt>
      <trkpt lat="47.74886" lon="1.97367">
        <ele>116</ele>
        <time>2017-01-22T08:44:12.144Z</time>
      </trkpt>
      <trkpt lat="47.74878" lon="1.97359">
        <ele>116</ele>
        <time>2017-01-22T08:44:13.119Z</time>
      </trkpt>
      <trkpt lat="47.74878" lon="1.97359">
        <ele>116</ele>
        <time>2017-01-22T08:44:14.141Z</time>
      </trkpt>
      <trkpt lat="47.74871" lon="1.9735">
        <ele>115</ele>
        <time>2017-01-22T08:44:15.125Z</time>
      </trkpt>
      <trkpt lat="47.74871" lon="1.9735">
        <ele>115</ele>
        <time>2017-01-22T08:44:16.136Z</time>
      </trkpt>
      <trkpt lat="47.74862" lon="1.97342">
        <ele>115</ele>
        <time>2017-01-22T08:44:17.143Z</time>
      </trkpt>
      <trkpt lat="47.74862" lon="1.97342">
        <ele>115</ele>
        <time>2017-01-22T08:44:18.127Z</time>
      </trkpt>
      <trkpt lat="47.74854" lon="1.97334">
        <ele>115</ele>
        <time>2017-01-22T08:44:19.159Z</time>
      </trkpt>
      <trkpt lat="47.74854" lon="1.97334">
        <ele>115</ele>
        <time>2017-01-22T08:44:20.126Z</time>
      </trkpt>
      <trkpt lat="47.74847" lon="1.97325">
        <ele>115</ele>
        <time>2017-01-22T08:44:21.154Z</time>
      </trkpt>
      <trkpt lat="47.74847" lon="1.97325">
        <ele>115</ele>
        <time>2017-01-22T08:44:22.154Z</time>
      </trkpt>
      <trkpt lat="47.74839" lon="1.97316">
        <ele>115</ele>
        <time>2017-01-22T08:44:23.119Z</time>
      </trkpt>
      <trkpt lat="47.74839" lon="1.97316">
        <ele>115</ele>
        <time>2017-01-22T08:44:24.142Z</time>
      </trkpt>
      <trkpt lat="47.74832" lon="1.97307">
        <ele>115</ele>
        <time>2017-01-22T08:44:25.125Z</time>
      </trkpt>
      <trkpt lat="47.74832" lon="1.97307">
        <ele>115</ele>
        <time>2017-01-22T08:44:26.143Z</time>
      </trkpt>
      <trkpt lat="47.74826" lon="1.973">
        <ele>115</ele>
        <time>2017-01-22T08:44:27.123Z</time>
      </trkpt>
      <trkpt lat="47.74826" lon="1.973">
        <ele>115</ele>
        <time>2017-01-22T08:44:28.155Z</time>
      </trkpt>
      <trkpt lat="47.74822" lon="1.97292">
        <ele>115</ele>
        <time>2017-01-22T08:44:29.151Z</time>
      </trkpt>
      <trkpt lat="47.74822" lon="1.97292">
        <ele>115</ele>
        <time>2017-01-22T08:44:30.157Z</time>
      </trkpt>
      <trkpt lat="47.74816" lon="1.97285">
        <ele>115</ele>
        <time>2017-01-22T08:44:31.123Z</time>
      </trkpt>
      <trkpt lat="47.74816" lon="1.97285">
        <ele>115</ele>
        <time>2017-01-22T08:44:32.144Z</time>
      </trkpt>
      <trkpt lat="47.74812" lon="1.97279">
        <ele>115</ele>
        <time>2017-01-22T08:44:33.124Z</time>
      </trkpt>
      <trkpt lat="47.74812" lon="1.97279">
        <ele>115</ele>
        <time>2017-01-22T08:44:34.144Z</time>
      </trkpt>
      <trkpt lat="47.74808" lon="1.97271">
        <ele>115</ele>
        <time>2017-01-22T08:44:35.137Z</time>
      </trkpt>
      <trkpt lat="47.74808" lon="1.97271">
        <ele>115</ele>
        <time>2017-01-22T08:44:36.143Z</time>
      </trkpt>
      <trkpt lat="47.74805" lon="1.97263">
        <ele>114</ele>
        <time>2017-01-22T08:44:37.150Z</time>
      </trkpt>
      <trkpt lat="47.74805" lon="1.97263">
        <ele>114</ele>
        <time>2017-01-22T08:44:38.126Z</time>
      </trkpt>
      <trkpt lat="47.748" lon="1.97254">
        <ele>114</ele>
        <time>2017-01-22T08:44:39.156Z</time>
      </trkpt>
      <trkpt lat="47.748" lon="1.97254">
        <ele>114</ele>
        <time>2017-01-22T08:44:40.124Z</time>
      </trkpt>
      <trkpt lat="47.74796" lon="1.97246">
        <ele>114</ele>
        <time>2017-01-22T08:44:41.123Z</time>
      </trkpt>
      <trkpt lat="47.74796" lon="1.97246">
        <ele>114</ele>
        <time>2017-01-22T08:44:42.144Z</time>
      </trkpt>
      <trkpt lat="47.74791" lon="1.9724">
        <ele>114</ele>
        <time>2017-01-22T08:44:43.119Z</time>
      </trkpt>
      <trkpt lat="47.74791" lon="1.9724">
        <ele>114</ele>
        <time>2017-01-22T08:44:44.144Z</time>
      </trkpt>
      <trkpt lat="47.74786" lon="1.97231">
        <ele>114</ele>
        <time>2017-01-22T08:44:45.125Z</time>
      </trkpt>
      <trkpt lat="47.74786" lon="1.97231">
        <ele>114</ele>
        <time>2017-01-22T08:44:46.144Z</time>
      </trkpt>
      <trkpt lat="47.74782" lon="1.97221">
        <ele>115</ele>
        <time>2017-01-22T08:44:47.155Z</time>
      </trkpt>
      <trkpt lat="47.74782" lon="1.97221">
        <ele>115</ele>
        <time>2017-01-22T08:44:48.121Z</time>
      </trkpt>
      <trkpt lat="47.74778" lon="1.97211">
        <ele>115</ele>
        <time>2017-01-22T08:44:49.159Z</time>
      </trkpt>
      <trkpt lat="47.74778" lon="1.97211">
        <ele>115</ele>
        <time>2017-01-22T08:44:50.147Z</time>
      </trkpt>
      <trkpt lat="47.74773" lon="1.97201">
        <ele>115</ele>
        <time>2017-01-22T08:44:51.154Z</time>
      </trkpt>
      <trkpt lat="47.74773" lon="1.97201">
        <ele>115</ele>
        <time>2017-01-22T08:44:52.144Z</time>
      </trkpt>
      <trkpt lat="47.74769" lon="1.97191">
        <ele>116</ele>
        <time>2017-01-22T08:44:53.124Z</time>
      </trkpt>
      <trkpt lat="47.74769" lon="1.97191">
        <ele>116</ele>
        <time>2017-01-22T08:44:54.141Z</time>
      </trkpt>
      <trkpt lat="47.74765" lon="1.97181">
        <ele>116</ele>
        <time>2017-01-22T08:44:55.154Z</time>
      </trkpt>
      <trkpt lat="47.74765" lon="1.97181">
        <ele>116</ele>
        <time>2017-01-22T08:44:56.143Z</time>
      </trkpt>
      <trkpt lat="47.7476" lon="1.9717">
        <ele>116</ele>
        <time>2017-01-22T08:44:57.155Z</time>
      </trkpt>
      <trkpt lat="47.7476" lon="1.9717">
        <ele>116</ele>
        <time>2017-01-22T08:44:58.136Z</time>
      </trkpt>
      <trkpt lat="47.74756" lon="1.9716">
        <ele>116</ele>
        <time>2017-01-22T08:44:59.143Z</time>
      </trkpt>
      <trkpt lat="47.74756" lon="1.9716">
        <ele>116</ele>
        <time>2017-01-22T08:45:00.120Z</time>
      </trkpt>
      <trkpt lat="47.74751" lon="1.9715">
        <ele>117</ele>
        <time>2017-01-22T08:45:01.160Z</time>
      </trkpt>
      <trkpt lat="47.74749" lon="1.97145">
        <ele>117</ele>
        <time>2017-01-22T08:45:02.122Z</time>
      </trkpt>
      <trkpt lat="47.74749" lon="1.97145">
        <ele>117</ele>
        <time>2017-01-22T08:45:03.156Z</time>
      </trkpt>
      <trkpt lat="47.74745" lon="1.97134">
        <ele>117</ele>
        <time>2017-01-22T08:45:04.127Z</time>
      </trkpt>
      <trkpt lat="47.74745" lon="1.97134">
        <ele>117</ele>
        <time>2017-01-22T08:45:05.150Z</time>
      </trkpt>
      <trkpt lat="47.7474" lon="1.97123">
        <ele>117</ele>
        <time>2017-01-22T08:45:06.163Z</time>
      </trkpt>
      <trkpt lat="47.74737" lon="1.97118">
        <ele>117</ele>
        <time>2017-01-22T08:45:07.135Z</time>
      </trkpt>
      <trkpt lat="47.74737" lon="1.97118">
        <ele>117</ele>
        <time>2017-01-22T08:45:08.147Z</time>
      </trkpt>
      <trkpt lat="47.74732" lon="1.97107">
        <ele>117</ele>
        <time>2017-01-22T08:45:09.123Z</time>
      </trkpt>
      <trkpt lat="47.74732" lon="1.97107">
        <ele>117</ele>
        <time>2017-01-22T08:45:10.142Z</time>
      </trkpt>
      <trkpt lat="47.74728" lon="1.97095">
        <ele>117</ele>
        <time>2017-01-22T08:45:11.155Z</time>
      </trkpt>
      <trkpt lat="47.74728" lon="1.97095">
        <ele>117</ele>
        <time>2017-01-22T08:45:12.119Z</time>
      </trkpt>
      <trkpt lat="47.74723" lon="1.97085">
        <ele>117</ele>
        <time>2017-01-22T08:45:13.123Z</time>
      </trkpt>
      <trkpt lat="47.74723" lon="1.97085">
        <ele>117</ele>
        <time>2017-01-22T08:45:14.148Z</time>
      </trkpt>
      <trkpt lat="47.74718" lon="1.97075">
        <ele>117</ele>
        <time>2017-01-22T08:45:15.122Z</time>
      </trkpt>
      <trkpt lat="47.74718" lon="1.97075">
        <ele>117</ele>
        <time>2017-01-22T08:45:16.140Z</time>
      </trkpt>
      <trkpt lat="47.74714" lon="1.97065">
        <ele>117</ele>
        <time>2017-01-22T08:45:17.161Z</time>
      </trkpt>
      <trkpt lat="47.74714" lon="1.97065">
        <ele>117</ele>
        <time>2017-01-22T08:45:18.148Z</time>
      </trkpt>
      <trkpt lat="47.74711" lon="1.97055">
        <ele>116</ele>
        <time>2017-01-22T08:45:19.120Z</time>
      </trkpt>
      <trkpt lat="47.74711" lon="1.97055">
        <ele>116</ele>
        <time>2017-01-22T08:45:20.144Z</time>
      </trkpt>
      <trkpt lat="47.74707" lon="1.97044">
        <ele>116</ele>
        <time>2017-01-22T08:45:21.134Z</time>
      </trkpt>
      <trkpt lat="47.74707" lon="1.97044">
        <ele>116</ele>
        <time>2017-01-22T08:45:22.154Z</time>
      </trkpt>
      <trkpt lat="47.74703" lon="1.97034">
        <ele>116</ele>
        <time>2017-01-22T08:45:23.154Z</time>
      </trkpt>
      <trkpt lat="47.74703" lon="1.97034">
        <ele>116</ele>
        <time>2017-01-22T08:45:24.148Z</time>
      </trkpt>
      <trkpt lat="47.74698" lon="1.97024">
        <ele>115</ele>
        <time>2017-01-22T08:45:25.122Z</time>
      </trkpt>
      <trkpt lat="47.74698" lon="1.97024">
        <ele>115</ele>
        <time>2017-01-22T08:45:26.142Z</time>
      </trkpt>
      <trkpt lat="47.74694" lon="1.97014">
        <ele>115</ele>
        <time>2017-01-22T08:45:27.125Z</time>
      </trkpt>
      <trkpt lat="47.74694" lon="1.97014">
        <ele>115</ele>
        <time>2017-01-22T08:45:28.143Z</time>
      </trkpt>
      <trkpt lat="47.74689" lon="1.97003">
        <ele>115</ele>
        <time>2017-01-22T08:45:29.155Z</time>
      </trkpt>
      <trkpt lat="47.74689" lon="1.97003">
        <ele>115</ele>
        <time>2017-01-22T08:45:30.142Z</time>
      </trkpt>
      <trkpt lat="47.74685" lon="1.96992">
        <ele>115</ele>
        <time>2017-01-22T08:45:31.125Z</time>
      </trkpt>
      <trkpt lat="47.74685" lon="1.96992">
        <ele>115</ele>
        <time>2017-01-22T08:45:32.144Z</time>
      </trkpt>
      <trkpt lat="47.74682" lon="1.96982">
        <ele>115</ele>
        <time>2017-01-22T08:45:33.123Z</time>
      </trkpt>
      <trkpt lat="47.74682" lon="1.96982">
        <ele>115</ele>
        <time>2017-01-22T08:45:34.152Z</time>
      </trkpt>
      <trkpt lat="47.74678" lon="1.96974">
        <ele>115</ele>
        <time>2017-01-22T08:45:35.165Z</time>
      </trkpt>
      <trkpt lat="47.74676" lon="1.9697">
        <ele>115</ele>
        <time>2017-01-22T08:45:36.128Z</time>
      </trkpt>
      <trkpt lat="47.74676" lon="1.9697">
        <ele>115</ele>
        <time>2017-01-22T08:45:37.147Z</time>
      </trkpt>
      <trkpt lat="47.74671" lon="1.96963">
        <ele>115</ele>
        <time>2017-01-22T08:45:38.123Z</time>
      </trkpt>
      <trkpt lat="47.74671" lon="1.96963">
        <ele>115</ele>
        <time>2017-01-22T08:45:39.132Z</time>
      </trkpt>
      <trkpt lat="47.74666" lon="1.96954">
        <ele>115</ele>
        <time>2017-01-22T08:45:40.165Z</time>
      </trkpt>
      <trkpt lat="47.74663" lon="1.96951">
        <ele>115</ele>
        <time>2017-01-22T08:45:41.138Z</time>
      </trkpt>
      <trkpt lat="47.74663" lon="1.96951">
        <ele>115</ele>
        <time>2017-01-22T08:45:42.144Z</time>
      </trkpt>
      <trkpt lat="47.74659" lon="1.96946">
        <ele>114</ele>
        <time>2017-01-22T08:45:43.155Z</time>
      </trkpt>
      <trkpt lat="47.74659" lon="1.96946">
        <ele>114</ele>
        <time>2017-01-22T08:45:44.148Z</time>
      </trkpt>
      <trkpt lat="47.74655" lon="1.9694">
        <ele>114</ele>
        <time>2017-01-22T08:45:45.122Z</time>
      </trkpt>
      <trkpt lat="47.74655" lon="1.9694">
        <ele>114</ele>
        <time>2017-01-22T08:45:46.154Z</time>
      </trkpt>
      <trkpt lat="47.74651" lon="1.96934">
        <ele>114</ele>
        <time>2017-01-22T08:45:47.155Z</time>
      </trkpt>
      <trkpt lat="47.74651" lon="1.96934">
        <ele>114</ele>
        <time>2017-01-22T08:45:48.157Z</time>
      </trkpt>
      <trkpt lat="47.74647" lon="1.96926">
        <ele>114</ele>
        <time>2017-01-22T08:45:49.121Z</time>
      </trkpt>
      <trkpt lat="47.74647" lon="1.96926">
        <ele>114</ele>
        <time>2017-01-22T08:45:50.146Z</time>
      </trkpt>
      <trkpt lat="47.74642" lon="1.96917">
        <ele>114</ele>
        <time>2017-01-22T08:45:51.120Z</time>
      </trkpt>
      <trkpt lat="47.74642" lon="1.96917">
        <ele>114</ele>
        <time>2017-01-22T08:45:52.148Z</time>
      </trkpt>
      <trkpt lat="47.74639" lon="1.96911">
        <ele>114</ele>
        <time>2017-01-22T08:45:53.122Z</time>
      </trkpt>
      <trkpt lat="47.74639" lon="1.96911">
        <ele>114</ele>
        <time>2017-01-22T08:45:54.121Z</time>
      </trkpt>
      <trkpt lat="47.74637" lon="1.96908">
        <ele>114</ele>
        <time>2017-01-22T08:45:55.122Z</time>
      </trkpt>
      <trkpt lat="47.74637" lon="1.96908">
        <ele>114</ele>
        <time>2017-01-22T08:45:56.123Z</time>
      </trkpt>
      <trkpt lat="47.74635" lon="1.96908">
        <ele>114</ele>
        <time>2017-01-22T08:45:57.154Z</time>
      </trkpt>
      <trkpt lat="47.74635" lon="1.96908">
        <ele>114</ele>
        <time>2017-01-22T08:45:58.120Z</time>
      </trkpt>
      <trkpt lat="47.74635" lon="1.96908">
        <ele>114</ele>
        <time>2017-01-22T08:45:59.123Z</time>
      </trkpt>
      <trkpt lat="47.74634" lon="1.96904">
        <ele>114</ele>
        <time>2017-01-22T08:46:00.155Z</time>
      </trkpt>
      <trkpt lat="47.7463" lon="1.96895">
        <ele>115</ele>
        <time>2017-01-22T08:46:01.150Z</time>
      </trkpt>
      <trkpt lat="47.7463" lon="1.96895">
        <ele>115</ele>
        <time>2017-01-22T08:46:02.146Z</time>
      </trkpt>
      <trkpt lat="47.74629" lon="1.96893">
        <ele>115</ele>
        <time>2017-01-22T08:46:03.143Z</time>
      </trkpt>
      <trkpt lat="47.74629" lon="1.96893">
        <ele>115</ele>
        <time>2017-01-22T08:46:04.151Z</time>
      </trkpt>
      <trkpt lat="47.74628" lon="1.96892">
        <ele>116</ele>
        <time>2017-01-22T08:46:05.126Z</time>
      </trkpt>
      <trkpt lat="47.74628" lon="1.96892">
        <ele>116</ele>
        <time>2017-01-22T08:46:06.131Z</time>
      </trkpt>
      <trkpt lat="47.74628" lon="1.96892">
        <ele>116</ele>
        <time>2017-01-22T08:46:07.134Z</time>
      </trkpt>
      <trkpt lat="47.74627" lon="1.96891">
        <ele>116</ele>
        <time>2017-01-22T08:46:08.120Z</time>
      </trkpt>
      <trkpt lat="47.74627" lon="1.96891">
        <ele>116</ele>
        <time>2017-01-22T08:46:09.141Z</time>
      </trkpt>
      <trkpt lat="47.74625" lon="1.96886">
        <ele>116</ele>
        <time>2017-01-22T08:46:10.119Z</time>
      </trkpt>
      <trkpt lat="47.74624" lon="1.96883">
        <ele>116</ele>
        <time>2017-01-22T08:46:11.119Z</time>
      </trkpt>
      <trkpt lat="47.74624" lon="1.96883">
        <ele>116</ele>
        <time>2017-01-22T08:46:12.148Z</time>
      </trkpt>
      <trkpt lat="47.74622" lon="1.96877">
        <ele>116</ele>
        <time>2017-01-22T08:46:13.157Z</time>
      </trkpt>
      <trkpt lat="47.74622" lon="1.96877">
        <ele>116</ele>
        <time>2017-01-22T08:46:14.145Z</time>
      </trkpt>
      <trkpt lat="47.74618" lon="1.96869">
        <ele>116</ele>
        <time>2017-01-22T08:46:15.118Z</time>
      </trkpt>
      <trkpt lat="47.74618" lon="1.96869">
        <ele>116</ele>
        <time>2017-01-22T08:46:16.149Z</time>
      </trkpt>
      <trkpt lat="47.74615" lon="1.96859">
        <ele>116</ele>
        <time>2017-01-22T08:46:17.119Z</time>
      </trkpt>
      <trkpt lat="47.74613" lon="1.96853">
        <ele>115</ele>
        <time>2017-01-22T08:46:18.148Z</time>
      </trkpt>
      <trkpt lat="47.74611" lon="1.96847">
        <ele>115</ele>
        <time>2017-01-22T08:46:19.139Z</time>
      </trkpt>
      <trkpt lat="47.74611" lon="1.96847">
        <ele>115</ele>
        <time>2017-01-22T08:46:20.125Z</time>
      </trkpt>
      <trkpt lat="47.74608" lon="1.96835">
        <ele>115</ele>
        <time>2017-01-22T08:46:21.152Z</time>
      </trkpt>
      <trkpt lat="47.74608" lon="1.96835">
        <ele>115</ele>
        <time>2017-01-22T08:46:22.137Z</time>
      </trkpt>
      <trkpt lat="47.74605" lon="1.96824">
        <ele>115</ele>
        <time>2017-01-22T08:46:23.151Z</time>
      </trkpt>
      <trkpt lat="47.74605" lon="1.96824">
        <ele>115</ele>
        <time>2017-01-22T08:46:24.118Z</time>
      </trkpt>
      <trkpt lat="47.74603" lon="1.96812">
        <ele>115</ele>
        <time>2017-01-22T08:46:25.157Z</time>
      </trkpt>
      <trkpt lat="47.74603" lon="1.96812">
        <ele>115</ele>
        <time>2017-01-22T08:46:26.150Z</time>
      </trkpt>
      <trkpt lat="47.746" lon="1.968">
        <ele>115</ele>
        <time>2017-01-22T08:46:27.152Z</time>
      </trkpt>
      <trkpt lat="47.746" lon="1.968">
        <ele>115</ele>
        <time>2017-01-22T08:46:28.130Z</time>
      </trkpt>
      <trkpt lat="47.74598" lon="1.96788">
        <ele>115</ele>
        <time>2017-01-22T08:46:29.139Z</time>
      </trkpt>
      <trkpt lat="47.74598" lon="1.96788">
        <ele>115</ele>
        <time>2017-01-22T08:46:30.147Z</time>
      </trkpt>
      <trkpt lat="47.74596" lon="1.96775">
        <ele>115</ele>
        <time>2017-01-22T08:46:31.119Z</time>
      </trkpt>
      <trkpt lat="47.74594" lon="1.96769">
        <ele>115</ele>
        <time>2017-01-22T08:46:32.131Z</time>
      </trkpt>
      <trkpt lat="47.74593" lon="1.96764">
        <ele>115</ele>
        <time>2017-01-22T08:46:33.148Z</time>
      </trkpt>
      <trkpt lat="47.74593" lon="1.96764">
        <ele>115</ele>
        <time>2017-01-22T08:46:34.139Z</time>
      </trkpt>
      <trkpt lat="47.74589" lon="1.96753">
        <ele>115</ele>
        <time>2017-01-22T08:46:35.119Z</time>
      </trkpt>
      <trkpt lat="47.74589" lon="1.96753">
        <ele>115</ele>
        <time>2017-01-22T08:46:36.141Z</time>
      </trkpt>
      <trkpt lat="47.74585" lon="1.96742">
        <ele>115</ele>
        <time>2017-01-22T08:46:37.129Z</time>
      </trkpt>
      <trkpt lat="47.74585" lon="1.96742">
        <ele>115</ele>
        <time>2017-01-22T08:46:38.154Z</time>
      </trkpt>
      <trkpt lat="47.74582" lon="1.9673">
        <ele>115</ele>
        <time>2017-01-22T08:46:39.160Z</time>
      </trkpt>
      <trkpt lat="47.74582" lon="1.9673">
        <ele>115</ele>
        <time>2017-01-22T08:46:40.138Z</time>
      </trkpt>
      <trkpt lat="47.74578" lon="1.9672">
        <ele>115</ele>
        <time>2017-01-22T08:46:41.154Z</time>
      </trkpt>
      <trkpt lat="47.74576" lon="1.96716">
        <ele>115</ele>
        <time>2017-01-22T08:46:42.165Z</time>
      </trkpt>
      <trkpt lat="47.74575" lon="1.9671">
        <ele>115</ele>
        <time>2017-01-22T08:46:43.119Z</time>
      </trkpt>
      <trkpt lat="47.74575" lon="1.9671">
        <ele>115</ele>
        <time>2017-01-22T08:46:44.140Z</time>
      </trkpt>
      <trkpt lat="47.74572" lon="1.967">
        <ele>115</ele>
        <time>2017-01-22T08:46:45.137Z</time>
      </trkpt>
      <trkpt lat="47.74572" lon="1.967">
        <ele>115</ele>
        <time>2017-01-22T08:46:46.154Z</time>
      </trkpt>
      <trkpt lat="47.74568" lon="1.96689">
        <ele>114</ele>
        <time>2017-01-22T08:46:47.118Z</time>
      </trkpt>
      <trkpt lat="47.74568" lon="1.96689">
        <ele>114</ele>
        <time>2017-01-22T08:46:48.144Z</time>
      </trkpt>
      <trkpt lat="47.74564" lon="1.96678">
        <ele>114</ele>
        <time>2017-01-22T08:46:49.132Z</time>
      </trkpt>
      <trkpt lat="47.74564" lon="1.96678">
        <ele>114</ele>
        <time>2017-01-22T08:46:50.149Z</time>
      </trkpt>
      <trkpt lat="47.7456" lon="1.96667">
        <ele>114</ele>
        <time>2017-01-22T08:46:51.139Z</time>
      </trkpt>
      <trkpt lat="47.74557" lon="1.96662">
        <ele>113</ele>
        <time>2017-01-22T08:46:52.143Z</time>
      </trkpt>
      <trkpt lat="47.74557" lon="1.96662">
        <ele>113</ele>
        <time>2017-01-22T08:46:53.152Z</time>
      </trkpt>
      <trkpt lat="47.74553" lon="1.9665">
        <ele>113</ele>
        <time>2017-01-22T08:46:54.120Z</time>
      </trkpt>
      <trkpt lat="47.74551" lon="1.96644">
        <ele>112</ele>
        <time>2017-01-22T08:46:55.156Z</time>
      </trkpt>
      <trkpt lat="47.74551" lon="1.96644">
        <ele>112</ele>
        <time>2017-01-22T08:46:56.140Z</time>
      </trkpt>
      <trkpt lat="47.74546" lon="1.96634">
        <ele>112</ele>
        <time>2017-01-22T08:46:57.159Z</time>
      </trkpt>
      <trkpt lat="47.74546" lon="1.96634">
        <ele>112</ele>
        <time>2017-01-22T08:46:58.153Z</time>
      </trkpt>
      <trkpt lat="47.74541" lon="1.96624">
        <ele>111</ele>
        <time>2017-01-22T08:46:59.149Z</time>
      </trkpt>
      <trkpt lat="47.74541" lon="1.96624">
        <ele>111</ele>
        <time>2017-01-22T08:47:00.154Z</time>
      </trkpt>
      <trkpt lat="47.74537" lon="1.96614">
        <ele>110</ele>
        <time>2017-01-22T08:47:01.139Z</time>
      </trkpt>
      <trkpt lat="47.74534" lon="1.96609">
        <ele>110</ele>
        <time>2017-01-22T08:47:02.147Z</time>
      </trkpt>
      <trkpt lat="47.74532" lon="1.96604">
        <ele>110</ele>
        <time>2017-01-22T08:47:03.167Z</time>
      </trkpt>
      <trkpt lat="47.74532" lon="1.96604">
        <ele>110</ele>
        <time>2017-01-22T08:47:04.124Z</time>
      </trkpt>
      <trkpt lat="47.74527" lon="1.96594">
        <ele>109</ele>
        <time>2017-01-22T08:47:05.154Z</time>
      </trkpt>
      <trkpt lat="47.74527" lon="1.96594">
        <ele>109</ele>
        <time>2017-01-22T08:47:06.120Z</time>
      </trkpt>
      <trkpt lat="47.74524" lon="1.96584">
        <ele>109</ele>
        <time>2017-01-22T08:47:07.125Z</time>
      </trkpt>
      <trkpt lat="47.74524" lon="1.96584">
        <ele>109</ele>
        <time>2017-01-22T08:47:08.141Z</time>
      </trkpt>
      <trkpt lat="47.7452" lon="1.96573">
        <ele>108</ele>
        <time>2017-01-22T08:47:09.164Z</time>
      </trkpt>
      <trkpt lat="47.74518" lon="1.96568">
        <ele>108</ele>
        <time>2017-01-22T08:47:10.161Z</time>
      </trkpt>
      <trkpt lat="47.74518" lon="1.96568">
        <ele>108</ele>
        <time>2017-01-22T08:47:11.154Z</time>
      </trkpt>
      <trkpt lat="47.74514" lon="1.96559">
        <ele>108</ele>
        <time>2017-01-22T08:47:12.119Z</time>
      </trkpt>
      <trkpt lat="47.74514" lon="1.96553">
        <ele>108</ele>
        <time>2017-01-22T08:47:13.168Z</time>
      </trkpt>
      <trkpt lat="47.74514" lon="1.96553">
        <ele>108</ele>
        <time>2017-01-22T08:47:14.121Z</time>
      </trkpt>
      <trkpt lat="47.74512" lon="1.96542">
        <ele>107</ele>
        <time>2017-01-22T08:47:15.149Z</time>
      </trkpt>
      <trkpt lat="47.74511" lon="1.96536">
        <ele>107</ele>
        <time>2017-01-22T08:47:16.144Z</time>
      </trkpt>
      <trkpt lat="47.74511" lon="1.96536">
        <ele>107</ele>
        <time>2017-01-22T08:47:17.156Z</time>
      </trkpt>
      <trkpt lat="47.74506" lon="1.96525">
        <ele>106</ele>
        <time>2017-01-22T08:47:18.149Z</time>
      </trkpt>
      <trkpt lat="47.74504" lon="1.96518">
        <ele>106</ele>
        <time>2017-01-22T08:47:19.125Z</time>
      </trkpt>
      <trkpt lat="47.74504" lon="1.96518">
        <ele>106</ele>
        <time>2017-01-22T08:47:20.155Z</time>
      </trkpt>
      <trkpt lat="47.74501" lon="1.96505">
        <ele>106</ele>
        <time>2017-01-22T08:47:21.131Z</time>
      </trkpt>
      <trkpt lat="47.74501" lon="1.96505">
        <ele>106</ele>
        <time>2017-01-22T08:47:22.121Z</time>
      </trkpt>
      <trkpt lat="47.74498" lon="1.96493">
        <ele>105</ele>
        <time>2017-01-22T08:47:23.132Z</time>
      </trkpt>
      <trkpt lat="47.74498" lon="1.96493">
        <ele>105</ele>
        <time>2017-01-22T08:47:24.141Z</time>
      </trkpt>
      <trkpt lat="47.74493" lon="1.96483">
        <ele>105</ele>
        <time>2017-01-22T08:47:25.126Z</time>
      </trkpt>
      <trkpt lat="47.74491" lon="1.96478">
        <ele>105</ele>
        <time>2017-01-22T08:47:26.149Z</time>
      </trkpt>
      <trkpt lat="47.74491" lon="1.96478">
        <ele>105</ele>
        <time>2017-01-22T08:47:27.119Z</time>
      </trkpt>
      <trkpt lat="47.74486" lon="1.96469">
        <ele>105</ele>
        <time>2017-01-22T08:47:28.132Z</time>
      </trkpt>
      <trkpt lat="47.74484" lon="1.96464">
        <ele>105</ele>
        <time>2017-01-22T08:47:29.156Z</time>
      </trkpt>
      <trkpt lat="47.74484" lon="1.96459">
        <ele>105</ele>
        <time>2017-01-22T08:47:30.146Z</time>
      </trkpt>
      <trkpt lat="47.74484" lon="1.96459">
        <ele>105</ele>
        <time>2017-01-22T08:47:31.126Z</time>
      </trkpt>
      <trkpt lat="47.74484" lon="1.96449">
        <ele>105</ele>
        <time>2017-01-22T08:47:32.148Z</time>
      </trkpt>
      <trkpt lat="47.74484" lon="1.96445">
        <ele>105</ele>
        <time>2017-01-22T08:47:33.155Z</time>
      </trkpt>
      <trkpt lat="47.74484" lon="1.96445">
        <ele>105</ele>
        <time>2017-01-22T08:47:34.137Z</time>
      </trkpt>
      <trkpt lat="47.74483" lon="1.96435">
        <ele>104</ele>
        <time>2017-01-22T08:47:35.159Z</time>
      </trkpt>
      <trkpt lat="47.74483" lon="1.96435">
        <ele>104</ele>
        <time>2017-01-22T08:47:36.156Z</time>
      </trkpt>
      <trkpt lat="47.74481" lon="1.96423">
        <ele>105</ele>
        <time>2017-01-22T08:47:37.131Z</time>
      </trkpt>
      <trkpt lat="47.74481" lon="1.96423">
        <ele>105</ele>
        <time>2017-01-22T08:47:38.137Z</time>
      </trkpt>
      <trkpt lat="47.74477" lon="1.96411">
        <ele>104</ele>
        <time>2017-01-22T08:47:39.155Z</time>
      </trkpt>
      <trkpt lat="47.74477" lon="1.96411">
        <ele>104</ele>
        <time>2017-01-22T08:47:40.153Z</time>
      </trkpt>
      <trkpt lat="47.74474" lon="1.964">
        <ele>104</ele>
        <time>2017-01-22T08:47:41.119Z</time>
      </trkpt>
      <trkpt lat="47.74472" lon="1.96393">
        <ele>104</ele>
        <time>2017-01-22T08:47:42.130Z</time>
      </trkpt>
      <trkpt lat="47.74473" lon="1.96386">
        <ele>104</ele>
        <time>2017-01-22T08:47:43.156Z</time>
      </trkpt>
      <trkpt lat="47.74473" lon="1.96386">
        <ele>104</ele>
        <time>2017-01-22T08:47:44.137Z</time>
      </trkpt>
      <trkpt lat="47.7447" lon="1.96372">
        <ele>104</ele>
        <time>2017-01-22T08:47:45.118Z</time>
      </trkpt>
      <trkpt lat="47.7447" lon="1.96372">
        <ele>104</ele>
        <time>2017-01-22T08:47:46.143Z</time>
      </trkpt>
      <trkpt lat="47.74468" lon="1.9636">
        <ele>105</ele>
        <time>2017-01-22T08:47:47.159Z</time>
      </trkpt>
      <trkpt lat="47.74469" lon="1.96354">
        <ele>106</ele>
        <time>2017-01-22T08:47:48.120Z</time>
      </trkpt>
      <trkpt lat="47.74469" lon="1.96354">
        <ele>106</ele>
        <time>2017-01-22T08:47:49.140Z</time>
      </trkpt>
      <trkpt lat="47.74468" lon="1.96343">
        <ele>107</ele>
        <time>2017-01-22T08:47:50.147Z</time>
      </trkpt>
      <trkpt lat="47.74467" lon="1.96338">
        <ele>107</ele>
        <time>2017-01-22T08:47:51.119Z</time>
      </trkpt>
      <trkpt lat="47.74467" lon="1.96338">
        <ele>107</ele>
        <time>2017-01-22T08:47:52.130Z</time>
      </trkpt>
      <trkpt lat="47.74466" lon="1.96326">
        <ele>108</ele>
        <time>2017-01-22T08:47:53.138Z</time>
      </trkpt>
      <trkpt lat="47.74465" lon="1.9632">
        <ele>108</ele>
        <time>2017-01-22T08:47:54.119Z</time>
      </trkpt>
      <trkpt lat="47.74464" lon="1.96314">
        <ele>108</ele>
        <time>2017-01-22T08:47:55.155Z</time>
      </trkpt>
      <trkpt lat="47.74464" lon="1.96314">
        <ele>108</ele>
        <time>2017-01-22T08:47:56.145Z</time>
      </trkpt>
      <trkpt lat="47.74463" lon="1.96301">
        <ele>109</ele>
        <time>2017-01-22T08:47:57.119Z</time>
      </trkpt>
      <trkpt lat="47.74463" lon="1.96301">
        <ele>109</ele>
        <time>2017-01-22T08:47:58.141Z</time>
      </trkpt>
      <trkpt lat="47.74462" lon="1.96288">
        <ele>109</ele>
        <time>2017-01-22T08:47:59.128Z</time>
      </trkpt>
      <trkpt lat="47.74462" lon="1.96288">
        <ele>109</ele>
        <time>2017-01-22T08:48:00.139Z</time>
      </trkpt>
      <trkpt lat="47.74462" lon="1.96276">
        <ele>109</ele>
        <time>2017-01-22T08:48:01.119Z</time>
      </trkpt>
      <trkpt lat="47.74462" lon="1.96276">
        <ele>109</ele>
        <time>2017-01-22T08:48:02.141Z</time>
      </trkpt>
      <trkpt lat="47.7446" lon="1.96265">
        <ele>110</ele>
        <time>2017-01-22T08:48:03.168Z</time>
      </trkpt>
      <trkpt lat="47.7446" lon="1.96265">
        <ele>110</ele>
        <time>2017-01-22T08:48:04.123Z</time>
      </trkpt>
      <trkpt lat="47.74459" lon="1.96253">
        <ele>110</ele>
        <time>2017-01-22T08:48:05.133Z</time>
      </trkpt>
      <trkpt lat="47.74459" lon="1.96248">
        <ele>110</ele>
        <time>2017-01-22T08:48:06.153Z</time>
      </trkpt>
      <trkpt lat="47.74459" lon="1.96248">
        <ele>110</ele>
        <time>2017-01-22T08:48:07.138Z</time>
      </trkpt>
      <trkpt lat="47.74457" lon="1.96238">
        <ele>110</ele>
        <time>2017-01-22T08:48:08.158Z</time>
      </trkpt>
      <trkpt lat="47.74456" lon="1.96233">
        <ele>110</ele>
        <time>2017-01-22T08:48:09.155Z</time>
      </trkpt>
      <trkpt lat="47.74456" lon="1.96233">
        <ele>110</ele>
        <time>2017-01-22T08:48:10.155Z</time>
      </trkpt>
      <trkpt lat="47.74454" lon="1.96223">
        <ele>111</ele>
        <time>2017-01-22T08:48:11.119Z</time>
      </trkpt>
      <trkpt lat="47.74454" lon="1.96223">
        <ele>111</ele>
        <time>2017-01-22T08:48:12.141Z</time>
      </trkpt>
      <trkpt lat="47.74452" lon="1.96212">
        <ele>111</ele>
        <time>2017-01-22T08:48:13.156Z</time>
      </trkpt>
      <trkpt lat="47.74452" lon="1.96212">
        <ele>111</ele>
        <time>2017-01-22T08:48:14.151Z</time>
      </trkpt>
      <trkpt lat="47.7445" lon="1.96203">
        <ele>111</ele>
        <time>2017-01-22T08:48:15.152Z</time>
      </trkpt>
      <trkpt lat="47.7445" lon="1.96203">
        <ele>111</ele>
        <time>2017-01-22T08:48:16.146Z</time>
      </trkpt>
      <trkpt lat="47.74447" lon="1.96192">
        <ele>111</ele>
        <time>2017-01-22T08:48:17.119Z</time>
      </trkpt>
      <trkpt lat="47.74447" lon="1.96192">
        <ele>111</ele>
        <time>2017-01-22T08:48:18.147Z</time>
      </trkpt>
      <trkpt lat="47.74446" lon="1.96181">
        <ele>111</ele>
        <time>2017-01-22T08:48:19.155Z</time>
      </trkpt>
      <trkpt lat="47.74446" lon="1.96181">
        <ele>111</ele>
        <time>2017-01-22T08:48:20.137Z</time>
      </trkpt>
      <trkpt lat="47.74444" lon="1.9617">
        <ele>111</ele>
        <time>2017-01-22T08:48:21.119Z</time>
      </trkpt>
      <trkpt lat="47.74444" lon="1.9617">
        <ele>111</ele>
        <time>2017-01-22T08:48:22.125Z</time>
      </trkpt>
      <trkpt lat="47.74441" lon="1.9616">
        <ele>111</ele>
        <time>2017-01-22T08:48:23.148Z</time>
      </trkpt>
      <trkpt lat="47.74441" lon="1.9616">
        <ele>111</ele>
        <time>2017-01-22T08:48:24.145Z</time>
      </trkpt>
      <trkpt lat="47.74439" lon="1.9615">
        <ele>111</ele>
        <time>2017-01-22T08:48:25.159Z</time>
      </trkpt>
      <trkpt lat="47.74439" lon="1.9615">
        <ele>111</ele>
        <time>2017-01-22T08:48:26.154Z</time>
      </trkpt>
      <trkpt lat="47.74437" lon="1.96141">
        <ele>111</ele>
        <time>2017-01-22T08:48:27.118Z</time>
      </trkpt>
      <trkpt lat="47.74436" lon="1.96136">
        <ele>111</ele>
        <time>2017-01-22T08:48:28.129Z</time>
      </trkpt>
      <trkpt lat="47.74436" lon="1.96136">
        <ele>111</ele>
        <time>2017-01-22T08:48:29.153Z</time>
      </trkpt>
      <trkpt lat="47.74435" lon="1.96127">
        <ele>111</ele>
        <time>2017-01-22T08:48:30.119Z</time>
      </trkpt>
      <trkpt lat="47.74435" lon="1.96127">
        <ele>111</ele>
        <time>2017-01-22T08:48:31.139Z</time>
      </trkpt>
      <trkpt lat="47.74434" lon="1.96117">
        <ele>111</ele>
        <time>2017-01-22T08:48:32.158Z</time>
      </trkpt>
      <trkpt lat="47.74433" lon="1.96112">
        <ele>111</ele>
        <time>2017-01-22T08:48:33.159Z</time>
      </trkpt>
      <trkpt lat="47.74433" lon="1.96112">
        <ele>111</ele>
        <time>2017-01-22T08:48:34.141Z</time>
      </trkpt>
      <trkpt lat="47.74433" lon="1.96104">
        <ele>112</ele>
        <time>2017-01-22T08:48:35.118Z</time>
      </trkpt>
      <trkpt lat="47.74433" lon="1.96104">
        <ele>112</ele>
        <time>2017-01-22T08:48:36.146Z</time>
      </trkpt>
      <trkpt lat="47.7443" lon="1.96095">
        <ele>112</ele>
        <time>2017-01-22T08:48:37.156Z</time>
      </trkpt>
      <trkpt lat="47.7443" lon="1.96095">
        <ele>112</ele>
        <time>2017-01-22T08:48:38.151Z</time>
      </trkpt>
      <trkpt lat="47.74426" lon="1.96088">
        <ele>112</ele>
        <time>2017-01-22T08:48:39.119Z</time>
      </trkpt>
      <trkpt lat="47.74426" lon="1.96088">
        <ele>112</ele>
        <time>2017-01-22T08:48:40.141Z</time>
      </trkpt>
      <trkpt lat="47.7442" lon="1.96081">
        <ele>112</ele>
        <time>2017-01-22T08:48:41.147Z</time>
      </trkpt>
      <trkpt lat="47.7442" lon="1.96081">
        <ele>112</ele>
        <time>2017-01-22T08:48:42.121Z</time>
      </trkpt>
      <trkpt lat="47.74415" lon="1.96074">
        <ele>112</ele>
        <time>2017-01-22T08:48:43.149Z</time>
      </trkpt>
      <trkpt lat="47.74415" lon="1.96074">
        <ele>112</ele>
        <time>2017-01-22T08:48:44.141Z</time>
      </trkpt>
      <trkpt lat="47.74409" lon="1.96068">
        <ele>112</ele>
        <time>2017-01-22T08:48:45.168Z</time>
      </trkpt>
      <trkpt lat="47.74409" lon="1.96068">
        <ele>112</ele>
        <time>2017-01-22T08:48:46.147Z</time>
      </trkpt>
      <trkpt lat="47.74404" lon="1.96062">
        <ele>113</ele>
        <time>2017-01-22T08:48:47.155Z</time>
      </trkpt>
      <trkpt lat="47.74404" lon="1.96062">
        <ele>113</ele>
        <time>2017-01-22T08:48:48.120Z</time>
      </trkpt>
      <trkpt lat="47.74398" lon="1.96054">
        <ele>113</ele>
        <time>2017-01-22T08:48:49.148Z</time>
      </trkpt>
      <trkpt lat="47.74398" lon="1.96054">
        <ele>113</ele>
        <time>2017-01-22T08:48:50.146Z</time>
      </trkpt>
      <trkpt lat="47.74392" lon="1.96047">
        <ele>113</ele>
        <time>2017-01-22T08:48:51.119Z</time>
      </trkpt>
      <trkpt lat="47.74392" lon="1.96047">
        <ele>113</ele>
        <time>2017-01-22T08:48:52.151Z</time>
      </trkpt>
      <trkpt lat="47.74387" lon="1.9604">
        <ele>114</ele>
        <time>2017-01-22T08:48:53.162Z</time>
      </trkpt>
      <trkpt lat="47.74387" lon="1.9604">
        <ele>114</ele>
        <time>2017-01-22T08:48:54.155Z</time>
      </trkpt>
      <trkpt lat="47.74381" lon="1.96033">
        <ele>114</ele>
        <time>2017-01-22T08:48:55.119Z</time>
      </trkpt>
      <trkpt lat="47.74381" lon="1.96033">
        <ele>114</ele>
        <time>2017-01-22T08:48:56.149Z</time>
      </trkpt>
      <trkpt lat="47.74377" lon="1.96026">
        <ele>114</ele>
        <time>2017-01-22T08:48:57.145Z</time>
      </trkpt>
      <trkpt lat="47.74377" lon="1.96026">
        <ele>114</ele>
        <time>2017-01-22T08:48:58.138Z</time>
      </trkpt>
      <trkpt lat="47.74371" lon="1.96022">
        <ele>114</ele>
        <time>2017-01-22T08:48:59.159Z</time>
      </trkpt>
      <trkpt lat="47.74371" lon="1.96022">
        <ele>114</ele>
        <time>2017-01-22T08:49:00.151Z</time>
      </trkpt>
      <trkpt lat="47.74366" lon="1.96019">
        <ele>115</ele>
        <time>2017-01-22T08:49:01.157Z</time>
      </trkpt>
      <trkpt lat="47.74366" lon="1.96019">
        <ele>115</ele>
        <time>2017-01-22T08:49:02.123Z</time>
      </trkpt>
      <trkpt lat="47.74366" lon="1.96018">
        <ele>115</ele>
        <time>2017-01-22T08:49:03.149Z</time>
      </trkpt>
      <trkpt lat="47.74366" lon="1.96018">
        <ele>115</ele>
        <time>2017-01-22T08:49:04.135Z</time>
      </trkpt>
      <trkpt lat="47.74365" lon="1.96017">
        <ele>115</ele>
        <time>2017-01-22T08:49:05.144Z</time>
      </trkpt>
      <trkpt lat="47.74365" lon="1.96017">
        <ele>115</ele>
        <time>2017-01-22T08:49:06.157Z</time>
      </trkpt>
      <trkpt lat="47.74364" lon="1.96014">
        <ele>115</ele>
        <time>2017-01-22T08:49:07.156Z</time>
      </trkpt>
      <trkpt lat="47.74364" lon="1.96014">
        <ele>115</ele>
        <time>2017-01-22T08:49:08.138Z</time>
      </trkpt>
      <trkpt lat="47.74365" lon="1.9601">
        <ele>115</ele>
        <time>2017-01-22T08:49:09.159Z</time>
      </trkpt>
      <trkpt lat="47.74365" lon="1.9601">
        <ele>115</ele>
        <time>2017-01-22T08:49:10.156Z</time>
      </trkpt>
      <trkpt lat="47.74367" lon="1.96006">
        <ele>115</ele>
        <time>2017-01-22T08:49:11.145Z</time>
      </trkpt>
      <trkpt lat="47.74367" lon="1.96006">
        <ele>115</ele>
        <time>2017-01-22T08:49:12.137Z</time>
      </trkpt>
      <trkpt lat="47.74369" lon="1.95999">
        <ele>115</ele>
        <time>2017-01-22T08:49:13.161Z</time>
      </trkpt>
      <trkpt lat="47.74369" lon="1.95999">
        <ele>115</ele>
        <time>2017-01-22T08:49:14.119Z</time>
      </trkpt>
      <trkpt lat="47.74369" lon="1.95993">
        <ele>115</ele>
        <time>2017-01-22T08:49:15.126Z</time>
      </trkpt>
      <trkpt lat="47.74369" lon="1.95993">
        <ele>115</ele>
        <time>2017-01-22T08:49:16.121Z</time>
      </trkpt>
      <trkpt lat="47.74371" lon="1.95986">
        <ele>116</ele>
        <time>2017-01-22T08:49:17.134Z</time>
      </trkpt>
      <trkpt lat="47.74371" lon="1.95986">
        <ele>116</ele>
        <time>2017-01-22T08:49:18.156Z</time>
      </trkpt>
      <trkpt lat="47.74372" lon="1.9598">
        <ele>116</ele>
        <time>2017-01-22T08:49:19.154Z</time>
      </trkpt>
      <trkpt lat="47.74372" lon="1.9598">
        <ele>116</ele>
        <time>2017-01-22T08:49:20.138Z</time>
      </trkpt>
      <trkpt lat="47.74373" lon="1.95974">
        <ele>116</ele>
        <time>2017-01-22T08:49:21.155Z</time>
      </trkpt>
      <trkpt lat="47.74373" lon="1.95974">
        <ele>116</ele>
        <time>2017-01-22T08:49:22.157Z</time>
      </trkpt>
      <trkpt lat="47.74374" lon="1.95968">
        <ele>116</ele>
        <time>2017-01-22T08:49:23.141Z</time>
      </trkpt>
      <trkpt lat="47.74374" lon="1.95968">
        <ele>116</ele>
        <time>2017-01-22T08:49:24.141Z</time>
      </trkpt>
      <trkpt lat="47.74375" lon="1.95961">
        <ele>116</ele>
        <time>2017-01-22T08:49:25.166Z</time>
      </trkpt>
      <trkpt lat="47.74375" lon="1.95961">
        <ele>116</ele>
        <time>2017-01-22T08:49:26.138Z</time>
      </trkpt>
      <trkpt lat="47.74374" lon="1.95956">
        <ele>115</ele>
        <time>2017-01-22T08:49:27.160Z</time>
      </trkpt>
      <trkpt lat="47.74374" lon="1.95956">
        <ele>115</ele>
        <time>2017-01-22T08:49:28.129Z</time>
      </trkpt>
      <trkpt lat="47.74373" lon="1.95948">
        <ele>115</ele>
        <time>2017-01-22T08:49:29.119Z</time>
      </trkpt>
      <trkpt lat="47.74373" lon="1.95948">
        <ele>115</ele>
        <time>2017-01-22T08:49:30.157Z</time>
      </trkpt>
      <trkpt lat="47.74374" lon="1.95938">
        <ele>114</ele>
        <time>2017-01-22T08:49:31.156Z</time>
      </trkpt>
      <trkpt lat="47.74374" lon="1.95932">
        <ele>114</ele>
        <time>2017-01-22T08:49:32.161Z</time>
      </trkpt>
      <trkpt lat="47.74374" lon="1.95932">
        <ele>114</ele>
        <time>2017-01-22T08:49:33.148Z</time>
      </trkpt>
      <trkpt lat="47.74376" lon="1.95922">
        <ele>113</ele>
        <time>2017-01-22T08:49:34.138Z</time>
      </trkpt>
      <trkpt lat="47.74377" lon="1.95916">
        <ele>113</ele>
        <time>2017-01-22T08:49:35.119Z</time>
      </trkpt>
      <trkpt lat="47.74377" lon="1.95916">
        <ele>113</ele>
        <time>2017-01-22T08:49:36.146Z</time>
      </trkpt>
      <trkpt lat="47.74378" lon="1.95907">
        <ele>112</ele>
        <time>2017-01-22T08:49:37.161Z</time>
      </trkpt>
      <trkpt lat="47.74378" lon="1.95907">
        <ele>112</ele>
        <time>2017-01-22T08:49:38.139Z</time>
      </trkpt>
      <trkpt lat="47.74379" lon="1.95896">
        <ele>112</ele>
        <time>2017-01-22T08:49:39.119Z</time>
      </trkpt>
      <trkpt lat="47.74379" lon="1.95896">
        <ele>112</ele>
        <time>2017-01-22T08:49:40.141Z</time>
      </trkpt>
      <trkpt lat="47.74381" lon="1.95886">
        <ele>111</ele>
        <time>2017-01-22T08:49:41.156Z</time>
      </trkpt>
      <trkpt lat="47.74381" lon="1.95886">
        <ele>111</ele>
        <time>2017-01-22T08:49:42.138Z</time>
      </trkpt>
      <trkpt lat="47.74383" lon="1.95875">
        <ele>111</ele>
        <time>2017-01-22T08:49:43.149Z</time>
      </trkpt>
      <trkpt lat="47.74383" lon="1.95875">
        <ele>111</ele>
        <time>2017-01-22T08:49:44.139Z</time>
      </trkpt>
      <trkpt lat="47.74384" lon="1.95863">
        <ele>112</ele>
        <time>2017-01-22T08:49:45.122Z</time>
      </trkpt>
      <trkpt lat="47.74384" lon="1.95863">
        <ele>112</ele>
        <time>2017-01-22T08:49:46.146Z</time>
      </trkpt>
      <trkpt lat="47.74385" lon="1.95853">
        <ele>112</ele>
        <time>2017-01-22T08:49:47.161Z</time>
      </trkpt>
      <trkpt lat="47.74385" lon="1.95853">
        <ele>112</ele>
        <time>2017-01-22T08:49:48.120Z</time>
      </trkpt>
      <trkpt lat="47.74385" lon="1.95843">
        <ele>112</ele>
        <time>2017-01-22T08:49:49.131Z</time>
      </trkpt>
      <trkpt lat="47.74387" lon="1.95837">
        <ele>112</ele>
        <time>2017-01-22T08:49:50.119Z</time>
      </trkpt>
      <trkpt lat="47.74387" lon="1.95837">
        <ele>112</ele>
        <time>2017-01-22T08:49:51.145Z</time>
      </trkpt>
      <trkpt lat="47.7439" lon="1.95825">
        <ele>113</ele>
        <time>2017-01-22T08:49:52.152Z</time>
      </trkpt>
      <trkpt lat="47.74391" lon="1.9582">
        <ele>114</ele>
        <time>2017-01-22T08:49:53.149Z</time>
      </trkpt>
      <trkpt lat="47.74391" lon="1.9582">
        <ele>114</ele>
        <time>2017-01-22T08:49:54.138Z</time>
      </trkpt>
      <trkpt lat="47.74393" lon="1.95809">
        <ele>114</ele>
        <time>2017-01-22T08:49:55.159Z</time>
      </trkpt>
      <trkpt lat="47.74393" lon="1.95809">
        <ele>114</ele>
        <time>2017-01-22T08:49:56.153Z</time>
      </trkpt>
      <trkpt lat="47.74395" lon="1.958">
        <ele>115</ele>
        <time>2017-01-22T08:49:57.120Z</time>
      </trkpt>
      <trkpt lat="47.74395" lon="1.958">
        <ele>115</ele>
        <time>2017-01-22T08:49:58.138Z</time>
      </trkpt>
      <trkpt lat="47.74396" lon="1.95792">
        <ele>115</ele>
        <time>2017-01-22T08:49:59.162Z</time>
      </trkpt>
      <trkpt lat="47.74397" lon="1.95787">
        <ele>115</ele>
        <time>2017-01-22T08:50:00.137Z</time>
      </trkpt>
      <trkpt lat="47.74397" lon="1.95787">
        <ele>115</ele>
        <time>2017-01-22T08:50:01.143Z</time>
      </trkpt>
      <trkpt lat="47.74399" lon="1.95779">
        <ele>116</ele>
        <time>2017-01-22T08:50:02.119Z</time>
      </trkpt>
      <trkpt lat="47.744" lon="1.95774">
        <ele>116</ele>
        <time>2017-01-22T08:50:03.129Z</time>
      </trkpt>
      <trkpt lat="47.744" lon="1.95774">
        <ele>116</ele>
        <time>2017-01-22T08:50:04.118Z</time>
      </trkpt>
      <trkpt lat="47.74401" lon="1.95764">
        <ele>116</ele>
        <time>2017-01-22T08:50:05.133Z</time>
      </trkpt>
      <trkpt lat="47.74402" lon="1.9576">
        <ele>116</ele>
        <time>2017-01-22T08:50:06.119Z</time>
      </trkpt>
      <trkpt lat="47.74402" lon="1.9576">
        <ele>116</ele>
        <time>2017-01-22T08:50:07.136Z</time>
      </trkpt>
      <trkpt lat="47.74404" lon="1.95751">
        <ele>116</ele>
        <time>2017-01-22T08:50:08.142Z</time>
      </trkpt>
      <trkpt lat="47.74405" lon="1.95746">
        <ele>116</ele>
        <time>2017-01-22T08:50:09.133Z</time>
      </trkpt>
      <trkpt lat="47.74405" lon="1.95746">
        <ele>116</ele>
        <time>2017-01-22T08:50:10.149Z</time>
      </trkpt>
      <trkpt lat="47.74407" lon="1.95735">
        <ele>116</ele>
        <time>2017-01-22T08:50:11.123Z</time>
      </trkpt>
      <trkpt lat="47.74407" lon="1.95735">
        <ele>116</ele>
        <time>2017-01-22T08:50:12.141Z</time>
      </trkpt>
      <trkpt lat="47.7441" lon="1.95726">
        <ele>116</ele>
        <time>2017-01-22T08:50:13.155Z</time>
      </trkpt>
      <trkpt lat="47.7441" lon="1.95726">
        <ele>116</ele>
        <time>2017-01-22T08:50:14.118Z</time>
      </trkpt>
      <trkpt lat="47.74413" lon="1.95717">
        <ele>116</ele>
        <time>2017-01-22T08:50:15.169Z</time>
      </trkpt>
      <trkpt lat="47.74413" lon="1.95717">
        <ele>116</ele>
        <time>2017-01-22T08:50:16.120Z</time>
      </trkpt>
      <trkpt lat="47.74417" lon="1.95708">
        <ele>116</ele>
        <time>2017-01-22T08:50:17.121Z</time>
      </trkpt>
      <trkpt lat="47.74418" lon="1.95704">
        <ele>116</ele>
        <time>2017-01-22T08:50:18.123Z</time>
      </trkpt>
      <trkpt lat="47.74422" lon="1.95699">
        <ele>116</ele>
        <time>2017-01-22T08:50:19.119Z</time>
      </trkpt>
      <trkpt lat="47.74422" lon="1.95699">
        <ele>116</ele>
        <time>2017-01-22T08:50:20.141Z</time>
      </trkpt>
      <trkpt lat="47.74424" lon="1.95689">
        <ele>117</ele>
        <time>2017-01-22T08:50:21.137Z</time>
      </trkpt>
      <trkpt lat="47.74424" lon="1.95689">
        <ele>117</ele>
        <time>2017-01-22T08:50:22.140Z</time>
      </trkpt>
      <trkpt lat="47.74426" lon="1.95681">
        <ele>117</ele>
        <time>2017-01-22T08:50:23.146Z</time>
      </trkpt>
      <trkpt lat="47.74426" lon="1.95681">
        <ele>117</ele>
        <time>2017-01-22T08:50:24.140Z</time>
      </trkpt>
      <trkpt lat="47.74428" lon="1.95672">
        <ele>117</ele>
        <time>2017-01-22T08:50:25.119Z</time>
      </trkpt>
      <trkpt lat="47.74428" lon="1.95672">
        <ele>117</ele>
        <time>2017-01-22T08:50:26.147Z</time>
      </trkpt>
      <trkpt lat="47.74432" lon="1.95663">
        <ele>117</ele>
        <time>2017-01-22T08:50:27.124Z</time>
      </trkpt>
      <trkpt lat="47.74432" lon="1.95663">
        <ele>117</ele>
        <time>2017-01-22T08:50:28.156Z</time>
      </trkpt>
      <trkpt lat="47.74436" lon="1.95655">
        <ele>117</ele>
        <time>2017-01-22T08:50:29.140Z</time>
      </trkpt>
      <trkpt lat="47.74436" lon="1.95655">
        <ele>117</ele>
        <time>2017-01-22T08:50:30.151Z</time>
      </trkpt>
      <trkpt lat="47.7444" lon="1.95646">
        <ele>118</ele>
        <time>2017-01-22T08:50:31.156Z</time>
      </trkpt>
      <trkpt lat="47.7444" lon="1.95646">
        <ele>118</ele>
        <time>2017-01-22T08:50:32.137Z</time>
      </trkpt>
      <trkpt lat="47.74443" lon="1.95639">
        <ele>118</ele>
        <time>2017-01-22T08:50:33.149Z</time>
      </trkpt>
      <trkpt lat="47.74444" lon="1.95635">
        <ele>118</ele>
        <time>2017-01-22T08:50:34.164Z</time>
      </trkpt>
      <trkpt lat="47.74444" lon="1.95635">
        <ele>118</ele>
        <time>2017-01-22T08:50:35.137Z</time>
      </trkpt>
      <trkpt lat="47.74445" lon="1.95628">
        <ele>118</ele>
        <time>2017-01-22T08:50:36.119Z</time>
      </trkpt>
      <trkpt lat="47.74445" lon="1.95625">
        <ele>118</ele>
        <time>2017-01-22T08:50:37.156Z</time>
      </trkpt>
      <trkpt lat="47.74445" lon="1.95625">
        <ele>118</ele>
        <time>2017-01-22T08:50:38.150Z</time>
      </trkpt>
      <trkpt lat="47.74446" lon="1.95619">
        <ele>118</ele>
        <time>2017-01-22T08:50:39.125Z</time>
      </trkpt>
      <trkpt lat="47.74446" lon="1.95619">
        <ele>118</ele>
        <time>2017-01-22T08:50:40.150Z</time>
      </trkpt>
      <trkpt lat="47.74448" lon="1.95612">
        <ele>118</ele>
        <time>2017-01-22T08:50:41.154Z</time>
      </trkpt>
      <trkpt lat="47.74448" lon="1.95608">
        <ele>118</ele>
        <time>2017-01-22T08:50:42.136Z</time>
      </trkpt>
      <trkpt lat="47.74448" lon="1.95608">
        <ele>118</ele>
        <time>2017-01-22T08:50:43.143Z</time>
      </trkpt>
      <trkpt lat="47.74449" lon="1.95603">
        <ele>119</ele>
        <time>2017-01-22T08:50:44.119Z</time>
      </trkpt>
      <trkpt lat="47.74449" lon="1.95603">
        <ele>119</ele>
        <time>2017-01-22T08:50:45.132Z</time>
      </trkpt>
      <trkpt lat="47.74449" lon="1.95601">
        <ele>118</ele>
        <time>2017-01-22T08:50:46.140Z</time>
      </trkpt>
      <trkpt lat="47.74449" lon="1.95601">
        <ele>118</ele>
        <time>2017-01-22T08:50:47.157Z</time>
      </trkpt>
      <trkpt lat="47.74448" lon="1.95601">
        <ele>118</ele>
        <time>2017-01-22T08:50:48.118Z</time>
      </trkpt>
      <trkpt lat="47.74458" lon="1.95602">
        <ele>119</ele>
        <time>2017-01-22T08:50:49.155Z</time>
      </trkpt>
      <trkpt lat="47.7446" lon="1.95599">
        <ele>119</ele>
        <time>2017-01-22T08:50:50.156Z</time>
      </trkpt>
      <trkpt lat="47.7446" lon="1.95598">
        <ele>119</ele>
        <time>2017-01-22T08:50:51.134Z</time>
      </trkpt>
      <trkpt lat="47.7446" lon="1.95596">
        <ele>119</ele>
        <time>2017-01-22T08:50:52.138Z</time>
      </trkpt>
      <trkpt lat="47.7446" lon="1.95596">
        <ele>119</ele>
        <time>2017-01-22T08:50:53.130Z</time>
      </trkpt>
      <trkpt lat="47.7446" lon="1.95593">
        <ele>119</ele>
        <time>2017-01-22T08:50:54.156Z</time>
      </trkpt>
      <trkpt lat="47.7446" lon="1.95593">
        <ele>119</ele>
        <time>2017-01-22T08:50:55.125Z</time>
      </trkpt>
      <trkpt lat="47.74462" lon="1.95586">
        <ele>118</ele>
        <time>2017-01-22T08:50:56.132Z</time>
      </trkpt>
      <trkpt lat="47.74462" lon="1.95586">
        <ele>118</ele>
        <time>2017-01-22T08:50:57.154Z</time>
      </trkpt>
      <trkpt lat="47.74464" lon="1.95578">
        <ele>118</ele>
        <time>2017-01-22T08:50:58.122Z</time>
      </trkpt>
      <trkpt lat="47.74464" lon="1.95578">
        <ele>118</ele>
        <time>2017-01-22T08:50:59.135Z</time>
      </trkpt>
      <trkpt lat="47.74465" lon="1.95567">
        <ele>118</ele>
        <time>2017-01-22T08:51:00.153Z</time>
      </trkpt>
      <trkpt lat="47.74465" lon="1.95567">
        <ele>118</ele>
        <time>2017-01-22T08:51:01.129Z</time>
      </trkpt>
      <trkpt lat="47.74467" lon="1.95557">
        <ele>118</ele>
        <time>2017-01-22T08:51:02.152Z</time>
      </trkpt>
      <trkpt lat="47.74468" lon="1.95551">
        <ele>118</ele>
        <time>2017-01-22T08:51:03.119Z</time>
      </trkpt>
      <trkpt lat="47.74468" lon="1.95551">
        <ele>118</ele>
        <time>2017-01-22T08:51:04.142Z</time>
      </trkpt>
      <trkpt lat="47.74471" lon="1.9554">
        <ele>119</ele>
        <time>2017-01-22T08:51:05.136Z</time>
      </trkpt>
      <trkpt lat="47.74472" lon="1.95535">
        <ele>118</ele>
        <time>2017-01-22T08:51:06.123Z</time>
      </trkpt>
      <trkpt lat="47.74472" lon="1.95529">
        <ele>118</ele>
        <time>2017-01-22T08:51:07.145Z</time>
      </trkpt>
      <trkpt lat="47.74472" lon="1.95529">
        <ele>118</ele>
        <time>2017-01-22T08:51:08.151Z</time>
      </trkpt>
      <trkpt lat="47.74473" lon="1.95518">
        <ele>118</ele>
        <time>2017-01-22T08:51:09.149Z</time>
      </trkpt>
      <trkpt lat="47.74473" lon="1.95518">
        <ele>118</ele>
        <time>2017-01-22T08:51:10.124Z</time>
      </trkpt>
      <trkpt lat="47.74475" lon="1.95508">
        <ele>117</ele>
        <time>2017-01-22T08:51:11.133Z</time>
      </trkpt>
      <trkpt lat="47.74475" lon="1.95508">
        <ele>117</ele>
        <time>2017-01-22T08:51:12.149Z</time>
      </trkpt>
      <trkpt lat="47.74477" lon="1.95498">
        <ele>118</ele>
        <time>2017-01-22T08:51:13.118Z</time>
      </trkpt>
      <trkpt lat="47.74477" lon="1.95498">
        <ele>118</ele>
        <time>2017-01-22T08:51:14.134Z</time>
      </trkpt>
      <trkpt lat="47.74478" lon="1.95487">
        <ele>118</ele>
        <time>2017-01-22T08:51:15.119Z</time>
      </trkpt>
      <trkpt lat="47.74478" lon="1.95487">
        <ele>118</ele>
        <time>2017-01-22T08:51:16.133Z</time>
      </trkpt>
      <trkpt lat="47.74479" lon="1.95476">
        <ele>118</ele>
        <time>2017-01-22T08:51:17.140Z</time>
      </trkpt>
      <trkpt lat="47.74481" lon="1.9547">
        <ele>118</ele>
        <time>2017-01-22T08:51:18.145Z</time>
      </trkpt>
      <trkpt lat="47.74482" lon="1.95463">
        <ele>118</ele>
        <time>2017-01-22T08:51:19.153Z</time>
      </trkpt>
      <trkpt lat="47.74482" lon="1.95463">
        <ele>118</ele>
        <time>2017-01-22T08:51:20.136Z</time>
      </trkpt>
      <trkpt lat="47.74484" lon="1.95451">
        <ele>118</ele>
        <time>2017-01-22T08:51:21.119Z</time>
      </trkpt>
      <trkpt lat="47.74486" lon="1.95444">
        <ele>118</ele>
        <time>2017-01-22T08:51:22.132Z</time>
      </trkpt>
      <trkpt lat="47.74486" lon="1.95444">
        <ele>118</ele>
        <time>2017-01-22T08:51:23.144Z</time>
      </trkpt>
      <trkpt lat="47.74488" lon="1.95433">
        <ele>118</ele>
        <time>2017-01-22T08:51:24.156Z</time>
      </trkpt>
      <trkpt lat="47.7449" lon="1.95427">
        <ele>118</ele>
        <time>2017-01-22T08:51:25.120Z</time>
      </trkpt>
      <trkpt lat="47.74492" lon="1.95422">
        <ele>118</ele>
        <time>2017-01-22T08:51:26.120Z</time>
      </trkpt>
      <trkpt lat="47.74492" lon="1.95422">
        <ele>118</ele>
        <time>2017-01-22T08:51:27.133Z</time>
      </trkpt>
      <trkpt lat="47.74495" lon="1.95412">
        <ele>117</ele>
        <time>2017-01-22T08:51:28.156Z</time>
      </trkpt>
      <trkpt lat="47.74495" lon="1.95412">
        <ele>117</ele>
        <time>2017-01-22T08:51:29.131Z</time>
      </trkpt>
      <trkpt lat="47.74496" lon="1.954">
        <ele>117</ele>
        <time>2017-01-22T08:51:30.124Z</time>
      </trkpt>
      <trkpt lat="47.74496" lon="1.954">
        <ele>117</ele>
        <time>2017-01-22T08:51:31.131Z</time>
      </trkpt>
      <trkpt lat="47.74496" lon="1.95392">
        <ele>117</ele>
        <time>2017-01-22T08:51:32.118Z</time>
      </trkpt>
      <trkpt lat="47.74497" lon="1.95389">
        <ele>117</ele>
        <time>2017-01-22T08:51:33.151Z</time>
      </trkpt>
      <trkpt lat="47.74499" lon="1.95387">
        <ele>117</ele>
        <time>2017-01-22T08:51:34.144Z</time>
      </trkpt>
      <trkpt lat="47.74499" lon="1.95387">
        <ele>117</ele>
        <time>2017-01-22T08:51:35.155Z</time>
      </trkpt>
      <trkpt lat="47.74505" lon="1.95386">
        <ele>117</ele>
        <time>2017-01-22T08:51:36.150Z</time>
      </trkpt>
      <trkpt lat="47.74505" lon="1.95386">
        <ele>117</ele>
        <time>2017-01-22T08:51:37.122Z</time>
      </trkpt>
      <trkpt lat="47.74513" lon="1.9539">
        <ele>117</ele>
        <time>2017-01-22T08:51:38.129Z</time>
      </trkpt>
      <trkpt lat="47.74513" lon="1.9539">
        <ele>117</ele>
        <time>2017-01-22T08:51:39.147Z</time>
      </trkpt>
      <trkpt lat="47.74522" lon="1.95396">
        <ele>117</ele>
        <time>2017-01-22T08:51:40.140Z</time>
      </trkpt>
      <trkpt lat="47.74522" lon="1.95396">
        <ele>117</ele>
        <time>2017-01-22T08:51:41.133Z</time>
      </trkpt>
      <trkpt lat="47.74531" lon="1.954">
        <ele>118</ele>
        <time>2017-01-22T08:51:42.120Z</time>
      </trkpt>
      <trkpt lat="47.74531" lon="1.954">
        <ele>118</ele>
        <time>2017-01-22T08:51:43.144Z</time>
      </trkpt>
      <trkpt lat="47.7454" lon="1.95403">
        <ele>119</ele>
        <time>2017-01-22T08:51:44.150Z</time>
      </trkpt>
      <trkpt lat="47.7454" lon="1.95403">
        <ele>119</ele>
        <time>2017-01-22T08:51:45.148Z</time>
      </trkpt>
      <trkpt lat="47.74549" lon="1.95405">
        <ele>121</ele>
        <time>2017-01-22T08:51:46.120Z</time>
      </trkpt>
      <trkpt lat="47.74549" lon="1.95405">
        <ele>121</ele>
        <time>2017-01-22T08:51:47.139Z</time>
      </trkpt>
      <trkpt lat="47.74559" lon="1.95408">
        <ele>122</ele>
        <time>2017-01-22T08:51:48.150Z</time>
      </trkpt>
      <trkpt lat="47.74559" lon="1.95408">
        <ele>122</ele>
        <time>2017-01-22T08:51:49.147Z</time>
      </trkpt>
      <trkpt lat="47.74569" lon="1.9541">
        <ele>123</ele>
        <time>2017-01-22T08:51:50.148Z</time>
      </trkpt>
      <trkpt lat="47.74569" lon="1.9541">
        <ele>123</ele>
        <time>2017-01-22T08:51:51.152Z</time>
      </trkpt>
      <trkpt lat="47.74579" lon="1.95412">
        <ele>124</ele>
        <time>2017-01-22T08:51:52.120Z</time>
      </trkpt>
      <trkpt lat="47.74579" lon="1.95412">
        <ele>124</ele>
        <time>2017-01-22T08:51:53.132Z</time>
      </trkpt>
      <trkpt lat="47.74591" lon="1.95415">
        <ele>124</ele>
        <time>2017-01-22T08:51:54.118Z</time>
      </trkpt>
      <trkpt lat="47.74591" lon="1.95415">
        <ele>124</ele>
        <time>2017-01-22T08:51:55.135Z</time>
      </trkpt>
      <trkpt lat="47.74601" lon="1.95418">
        <ele>125</ele>
        <time>2017-01-22T08:51:56.142Z</time>
      </trkpt>
      <trkpt lat="47.74606" lon="1.95419">
        <ele>125</ele>
        <time>2017-01-22T08:51:57.158Z</time>
      </trkpt>
      <trkpt lat="47.74606" lon="1.95419">
        <ele>125</ele>
        <time>2017-01-22T08:51:58.137Z</time>
      </trkpt>
      <trkpt lat="47.74616" lon="1.95421">
        <ele>126</ele>
        <time>2017-01-22T08:51:59.144Z</time>
      </trkpt>
      <trkpt lat="47.74616" lon="1.95421">
        <ele>126</ele>
        <time>2017-01-22T08:52:00.157Z</time>
      </trkpt>
      <trkpt lat="47.74626" lon="1.95422">
        <ele>127</ele>
        <time>2017-01-22T08:52:01.140Z</time>
      </trkpt>
      <trkpt lat="47.74626" lon="1.95422">
        <ele>127</ele>
        <time>2017-01-22T08:52:02.132Z</time>
      </trkpt>
      <trkpt lat="47.74635" lon="1.95425">
        <ele>127</ele>
        <time>2017-01-22T08:52:03.120Z</time>
      </trkpt>
      <trkpt lat="47.74635" lon="1.95425">
        <ele>127</ele>
        <time>2017-01-22T08:52:04.142Z</time>
      </trkpt>
      <trkpt lat="47.74644" lon="1.95427">
        <ele>128</ele>
        <time>2017-01-22T08:52:05.151Z</time>
      </trkpt>
      <trkpt lat="47.74644" lon="1.95427">
        <ele>128</ele>
        <time>2017-01-22T08:52:06.126Z</time>
      </trkpt>
      <trkpt lat="47.74653" lon="1.95428">
        <ele>130</ele>
        <time>2017-01-22T08:52:07.150Z</time>
      </trkpt>
      <trkpt lat="47.74653" lon="1.95428">
        <ele>130</ele>
        <time>2017-01-22T08:52:08.131Z</time>
      </trkpt>
      <trkpt lat="47.74662" lon="1.9543">
        <ele>131</ele>
        <time>2017-01-22T08:52:09.157Z</time>
      </trkpt>
      <trkpt lat="47.74662" lon="1.9543">
        <ele>131</ele>
        <time>2017-01-22T08:52:10.126Z</time>
      </trkpt>
      <trkpt lat="47.74671" lon="1.95433">
        <ele>131</ele>
        <time>2017-01-22T08:52:11.133Z</time>
      </trkpt>
      <trkpt lat="47.74671" lon="1.95433">
        <ele>131</ele>
        <time>2017-01-22T08:52:12.143Z</time>
      </trkpt>
      <trkpt lat="47.7468" lon="1.95435">
        <ele>132</ele>
        <time>2017-01-22T08:52:13.158Z</time>
      </trkpt>
      <trkpt lat="47.7468" lon="1.95435">
        <ele>132</ele>
        <time>2017-01-22T08:52:14.134Z</time>
      </trkpt>
      <trkpt lat="47.74689" lon="1.95437">
        <ele>132</ele>
        <time>2017-01-22T08:52:15.153Z</time>
      </trkpt>
      <trkpt lat="47.74689" lon="1.95437">
        <ele>132</ele>
        <time>2017-01-22T08:52:16.132Z</time>
      </trkpt>
      <trkpt lat="47.74698" lon="1.95439">
        <ele>133</ele>
        <time>2017-01-22T08:52:17.123Z</time>
      </trkpt>
      <trkpt lat="47.74698" lon="1.95439">
        <ele>133</ele>
        <time>2017-01-22T08:52:18.132Z</time>
      </trkpt>
      <trkpt lat="47.74707" lon="1.95441">
        <ele>133</ele>
        <time>2017-01-22T08:52:19.122Z</time>
      </trkpt>
      <trkpt lat="47.74711" lon="1.95442">
        <ele>133</ele>
        <time>2017-01-22T08:52:20.120Z</time>
      </trkpt>
      <trkpt lat="47.74711" lon="1.95442">
        <ele>133</ele>
        <time>2017-01-22T08:52:21.148Z</time>
      </trkpt>
      <trkpt lat="47.74721" lon="1.95444">
        <ele>133</ele>
        <time>2017-01-22T08:52:22.156Z</time>
      </trkpt>
      <trkpt lat="47.74721" lon="1.95444">
        <ele>133</ele>
        <time>2017-01-22T08:52:23.133Z</time>
      </trkpt>
      <trkpt lat="47.7473" lon="1.95446">
        <ele>133</ele>
        <time>2017-01-22T08:52:24.123Z</time>
      </trkpt>
      <trkpt lat="47.74734" lon="1.95447">
        <ele>133</ele>
        <time>2017-01-22T08:52:25.150Z</time>
      </trkpt>
      <trkpt lat="47.74734" lon="1.95447">
        <ele>133</ele>
        <time>2017-01-22T08:52:26.135Z</time>
      </trkpt>
      <trkpt lat="47.74744" lon="1.95449">
        <ele>132</ele>
        <time>2017-01-22T08:52:27.153Z</time>
      </trkpt>
      <trkpt lat="47.74748" lon="1.95449">
        <ele>131</ele>
        <time>2017-01-22T08:52:28.156Z</time>
      </trkpt>
      <trkpt lat="47.74753" lon="1.9545">
        <ele>131</ele>
        <time>2017-01-22T08:52:29.153Z</time>
      </trkpt>
      <trkpt lat="47.74753" lon="1.9545">
        <ele>131</ele>
        <time>2017-01-22T08:52:30.132Z</time>
      </trkpt>
      <trkpt lat="47.74762" lon="1.95452">
        <ele>132</ele>
        <time>2017-01-22T08:52:31.139Z</time>
      </trkpt>
      <trkpt lat="47.74762" lon="1.95452">
        <ele>132</ele>
        <time>2017-01-22T08:52:32.152Z</time>
      </trkpt>
      <trkpt lat="47.74771" lon="1.95454">
        <ele>132</ele>
        <time>2017-01-22T08:52:33.154Z</time>
      </trkpt>
      <trkpt lat="47.74776" lon="1.95455">
        <ele>132</ele>
        <time>2017-01-22T08:52:34.130Z</time>
      </trkpt>
      <trkpt lat="47.74776" lon="1.95455">
        <ele>132</ele>
        <time>2017-01-22T08:52:35.142Z</time>
      </trkpt>
      <trkpt lat="47.74786" lon="1.95457">
        <ele>132</ele>
        <time>2017-01-22T08:52:36.143Z</time>
      </trkpt>
      <trkpt lat="47.7479" lon="1.95457">
        <ele>133</ele>
        <time>2017-01-22T08:52:37.126Z</time>
      </trkpt>
      <trkpt lat="47.7479" lon="1.95457">
        <ele>133</ele>
        <time>2017-01-22T08:52:38.126Z</time>
      </trkpt>
      <trkpt lat="47.748" lon="1.95458">
        <ele>133</ele>
        <time>2017-01-22T08:52:39.150Z</time>
      </trkpt>
      <trkpt lat="47.74804" lon="1.9546">
        <ele>133</ele>
        <time>2017-01-22T08:52:40.127Z</time>
      </trkpt>
      <trkpt lat="47.74804" lon="1.9546">
        <ele>133</ele>
        <time>2017-01-22T08:52:41.150Z</time>
      </trkpt>
      <trkpt lat="47.74813" lon="1.95462">
        <ele>134</ele>
        <time>2017-01-22T08:52:42.130Z</time>
      </trkpt>
      <trkpt lat="47.74818" lon="1.95463">
        <ele>134</ele>
        <time>2017-01-22T08:52:43.157Z</time>
      </trkpt>
      <trkpt lat="47.74818" lon="1.95463">
        <ele>134</ele>
        <time>2017-01-22T08:52:44.133Z</time>
      </trkpt>
      <trkpt lat="47.74827" lon="1.95464">
        <ele>133</ele>
        <time>2017-01-22T08:52:45.140Z</time>
      </trkpt>
      <trkpt lat="47.74831" lon="1.95465">
        <ele>133</ele>
        <time>2017-01-22T08:52:46.130Z</time>
      </trkpt>
      <trkpt lat="47.74836" lon="1.95466">
        <ele>134</ele>
        <time>2017-01-22T08:52:47.122Z</time>
      </trkpt>
      <trkpt lat="47.74836" lon="1.95466">
        <ele>134</ele>
        <time>2017-01-22T08:52:48.128Z</time>
      </trkpt>
      <trkpt lat="47.74845" lon="1.95468">
        <ele>134</ele>
        <time>2017-01-22T08:52:49.140Z</time>
      </trkpt>
      <trkpt lat="47.7485" lon="1.95469">
        <ele>135</ele>
        <time>2017-01-22T08:52:50.123Z</time>
      </trkpt>
      <trkpt lat="47.7485" lon="1.95469">
        <ele>135</ele>
        <time>2017-01-22T08:52:51.132Z</time>
      </trkpt>
      <trkpt lat="47.74859" lon="1.9547">
        <ele>135</ele>
        <time>2017-01-22T08:52:52.139Z</time>
      </trkpt>
      <trkpt lat="47.74859" lon="1.9547">
        <ele>135</ele>
        <time>2017-01-22T08:52:53.144Z</time>
      </trkpt>
      <trkpt lat="47.74869" lon="1.95472">
        <ele>134</ele>
        <time>2017-01-22T08:52:54.120Z</time>
      </trkpt>
      <trkpt lat="47.74869" lon="1.95472">
        <ele>134</ele>
        <time>2017-01-22T08:52:55.148Z</time>
      </trkpt>
      <trkpt lat="47.74878" lon="1.95473">
        <ele>134</ele>
        <time>2017-01-22T08:52:56.155Z</time>
      </trkpt>
      <trkpt lat="47.74882" lon="1.95474">
        <ele>134</ele>
        <time>2017-01-22T08:52:57.153Z</time>
      </trkpt>
      <trkpt lat="47.74882" lon="1.95474">
        <ele>134</ele>
        <time>2017-01-22T08:52:58.152Z</time>
      </trkpt>
      <trkpt lat="47.74892" lon="1.95476">
        <ele>135</ele>
        <time>2017-01-22T08:52:59.135Z</time>
      </trkpt>
      <trkpt lat="47.74892" lon="1.95476">
        <ele>135</ele>
        <time>2017-01-22T08:53:00.149Z</time>
      </trkpt>
      <trkpt lat="47.74901" lon="1.95478">
        <ele>135</ele>
        <time>2017-01-22T08:53:01.123Z</time>
      </trkpt>
      <trkpt lat="47.74901" lon="1.95478">
        <ele>135</ele>
        <time>2017-01-22T08:53:02.133Z</time>
      </trkpt>
      <trkpt lat="47.74912" lon="1.9548">
        <ele>135</ele>
        <time>2017-01-22T08:53:03.140Z</time>
      </trkpt>
      <trkpt lat="47.74912" lon="1.9548">
        <ele>135</ele>
        <time>2017-01-22T08:53:04.132Z</time>
      </trkpt>
      <trkpt lat="47.74921" lon="1.95482">
        <ele>135</ele>
        <time>2017-01-22T08:53:05.118Z</time>
      </trkpt>
      <trkpt lat="47.74921" lon="1.95482">
        <ele>135</ele>
        <time>2017-01-22T08:53:06.151Z</time>
      </trkpt>
      <trkpt lat="47.74931" lon="1.95484">
        <ele>134</ele>
        <time>2017-01-22T08:53:07.124Z</time>
      </trkpt>
      <trkpt lat="47.74936" lon="1.95485">
        <ele>134</ele>
        <time>2017-01-22T08:53:08.150Z</time>
      </trkpt>
      <trkpt lat="47.74942" lon="1.95486">
        <ele>135</ele>
        <time>2017-01-22T08:53:09.122Z</time>
      </trkpt>
      <trkpt lat="47.74942" lon="1.95486">
        <ele>135</ele>
        <time>2017-01-22T08:53:10.153Z</time>
      </trkpt>
      <trkpt lat="47.74952" lon="1.95487">
        <ele>135</ele>
        <time>2017-01-22T08:53:11.129Z</time>
      </trkpt>
      <trkpt lat="47.74952" lon="1.95487">
        <ele>135</ele>
        <time>2017-01-22T08:53:12.149Z</time>
      </trkpt>
      <trkpt lat="47.74962" lon="1.95488">
        <ele>134</ele>
        <time>2017-01-22T08:53:13.150Z</time>
      </trkpt>
      <trkpt lat="47.74962" lon="1.95488">
        <ele>134</ele>
        <time>2017-01-22T08:53:14.131Z</time>
      </trkpt>
      <trkpt lat="47.74971" lon="1.95489">
        <ele>134</ele>
        <time>2017-01-22T08:53:15.119Z</time>
      </trkpt>
      <trkpt lat="47.74976" lon="1.95489">
        <ele>134</ele>
        <time>2017-01-22T08:53:16.154Z</time>
      </trkpt>
      <trkpt lat="47.74976" lon="1.95489">
        <ele>134</ele>
        <time>2017-01-22T08:53:17.132Z</time>
      </trkpt>
      <trkpt lat="47.74986" lon="1.95488">
        <ele>134</ele>
        <time>2017-01-22T08:53:18.120Z</time>
      </trkpt>
      <trkpt lat="47.74986" lon="1.95488">
        <ele>134</ele>
        <time>2017-01-22T08:53:19.123Z</time>
      </trkpt>
      <trkpt lat="47.74995" lon="1.95487">
        <ele>134</ele>
        <time>2017-01-22T08:53:20.129Z</time>
      </trkpt>
      <trkpt lat="47.75" lon="1.95487">
        <ele>134</ele>
        <time>2017-01-22T08:53:21.147Z</time>
      </trkpt>
      <trkpt lat="47.75006" lon="1.95486">
        <ele>134</ele>
        <time>2017-01-22T08:53:22.128Z</time>
      </trkpt>
      <trkpt lat="47.75006" lon="1.95486">
        <ele>134</ele>
        <time>2017-01-22T08:53:23.149Z</time>
      </trkpt>
      <trkpt lat="47.75016" lon="1.95486">
        <ele>135</ele>
        <time>2017-01-22T08:53:24.120Z</time>
      </trkpt>
      <trkpt lat="47.75016" lon="1.95486">
        <ele>135</ele>
        <time>2017-01-22T08:53:25.136Z</time>
      </trkpt>
      <trkpt lat="47.75026" lon="1.95486">
        <ele>135</ele>
        <time>2017-01-22T08:53:26.143Z</time>
      </trkpt>
      <trkpt lat="47.7503" lon="1.95485">
        <ele>135</ele>
        <time>2017-01-22T08:53:27.122Z</time>
      </trkpt>
      <trkpt lat="47.7503" lon="1.95485">
        <ele>135</ele>
        <time>2017-01-22T08:53:28.146Z</time>
      </trkpt>
      <trkpt lat="47.75033" lon="1.95486">
        <ele>135</ele>
        <time>2017-01-22T08:53:29.118Z</time>
      </trkpt>
      <trkpt lat="47.75034" lon="1.95486">
        <ele>135</ele>
        <time>2017-01-22T08:53:30.124Z</time>
      </trkpt>
      <trkpt lat="47.75034" lon="1.95486">
        <ele>135</ele>
        <time>2017-01-22T08:53:31.147Z</time>
      </trkpt>
      <trkpt lat="47.75034" lon="1.95486">
        <ele>135</ele>
        <time>2017-01-22T08:53:32.153Z</time>
      </trkpt>
      <trkpt lat="47.75034" lon="1.95486">
        <ele>135</ele>
        <time>2017-01-22T08:53:33.136Z</time>
      </trkpt>
      <trkpt lat="47.75034" lon="1.95486">
        <ele>135</ele>
        <time>2017-01-22T08:53:34.124Z</time>
      </trkpt>
      <trkpt lat="47.75034" lon="1.95486">
        <ele>135</ele>
        <time>2017-01-22T08:53:35.156Z</time>
      </trkpt>
      <trkpt lat="47.7504" lon="1.95485">
        <ele>133</ele>
        <time>2017-01-22T08:53:36.160Z</time>
      </trkpt>
      <trkpt lat="47.7504" lon="1.95485">
        <ele>133</ele>
        <time>2017-01-22T08:53:37.125Z</time>
      </trkpt>
      <trkpt lat="47.75046" lon="1.95484">
        <ele>133</ele>
        <time>2017-01-22T08:53:38.137Z</time>
      </trkpt>
      <trkpt lat="47.75046" lon="1.95484">
        <ele>133</ele>
        <time>2017-01-22T08:53:39.128Z</time>
      </trkpt>
      <trkpt lat="47.75054" lon="1.95484">
        <ele>133</ele>
        <time>2017-01-22T08:53:40.139Z</time>
      </trkpt>
      <trkpt lat="47.75054" lon="1.95484">
        <ele>133</ele>
        <time>2017-01-22T08:53:41.139Z</time>
      </trkpt>
      <trkpt lat="47.75063" lon="1.95482">
        <ele>133</ele>
        <time>2017-01-22T08:53:42.136Z</time>
      </trkpt>
      <trkpt lat="47.75063" lon="1.95482">
        <ele>133</ele>
        <time>2017-01-22T08:53:43.133Z</time>
      </trkpt>
      <trkpt lat="47.75073" lon="1.95481">
        <ele>133</ele>
        <time>2017-01-22T08:53:44.145Z</time>
      </trkpt>
      <trkpt lat="47.75073" lon="1.95481">
        <ele>133</ele>
        <time>2017-01-22T08:53:45.139Z</time>
      </trkpt>
      <trkpt lat="47.75083" lon="1.9548">
        <ele>133</ele>
        <time>2017-01-22T08:53:46.123Z</time>
      </trkpt>
      <trkpt lat="47.75083" lon="1.9548">
        <ele>133</ele>
        <time>2017-01-22T08:53:47.156Z</time>
      </trkpt>
      <trkpt lat="47.75094" lon="1.95478">
        <ele>133</ele>
        <time>2017-01-22T08:53:48.123Z</time>
      </trkpt>
      <trkpt lat="47.75094" lon="1.95478">
        <ele>133</ele>
        <time>2017-01-22T08:53:49.120Z</time>
      </trkpt>
      <trkpt lat="47.75105" lon="1.95476">
        <ele>133</ele>
        <time>2017-01-22T08:53:50.152Z</time>
      </trkpt>
      <trkpt lat="47.75105" lon="1.95476">
        <ele>133</ele>
        <time>2017-01-22T08:53:51.146Z</time>
      </trkpt>
      <trkpt lat="47.75116" lon="1.95474">
        <ele>133</ele>
        <time>2017-01-22T08:53:52.144Z</time>
      </trkpt>
      <trkpt lat="47.75121" lon="1.95472">
        <ele>133</ele>
        <time>2017-01-22T08:53:53.120Z</time>
      </trkpt>
      <trkpt lat="47.75121" lon="1.95472">
        <ele>133</ele>
        <time>2017-01-22T08:53:54.128Z</time>
      </trkpt>
      <trkpt lat="47.75132" lon="1.95469">
        <ele>133</ele>
        <time>2017-01-22T08:53:55.136Z</time>
      </trkpt>
      <trkpt lat="47.75132" lon="1.95469">
        <ele>133</ele>
        <time>2017-01-22T08:53:56.120Z</time>
      </trkpt>
      <trkpt lat="47.75144" lon="1.95466">
        <ele>134</ele>
        <time>2017-01-22T08:53:57.143Z</time>
      </trkpt>
      <trkpt lat="47.75144" lon="1.95466">
        <ele>134</ele>
        <time>2017-01-22T08:53:58.149Z</time>
      </trkpt>
      <trkpt lat="47.75155" lon="1.95463">
        <ele>134</ele>
        <time>2017-01-22T08:53:59.156Z</time>
      </trkpt>
      <trkpt lat="47.7516" lon="1.95462">
        <ele>134</ele>
        <time>2017-01-22T08:54:00.130Z</time>
      </trkpt>
      <trkpt lat="47.7516" lon="1.95462">
        <ele>134</ele>
        <time>2017-01-22T08:54:01.121Z</time>
      </trkpt>
      <trkpt lat="47.75171" lon="1.95459">
        <ele>134</ele>
        <time>2017-01-22T08:54:02.123Z</time>
      </trkpt>
      <trkpt lat="47.75171" lon="1.95459">
        <ele>134</ele>
        <time>2017-01-22T08:54:03.153Z</time>
      </trkpt>
      <trkpt lat="47.75182" lon="1.95456">
        <ele>134</ele>
        <time>2017-01-22T08:54:04.134Z</time>
      </trkpt>
      <trkpt lat="47.75187" lon="1.95454">
        <ele>133</ele>
        <time>2017-01-22T08:54:05.145Z</time>
      </trkpt>
      <trkpt lat="47.75187" lon="1.95454">
        <ele>133</ele>
        <time>2017-01-22T08:54:06.151Z</time>
      </trkpt>
      <trkpt lat="47.75198" lon="1.95452">
        <ele>133</ele>
        <time>2017-01-22T08:54:07.124Z</time>
      </trkpt>
      <trkpt lat="47.75198" lon="1.95452">
        <ele>133</ele>
        <time>2017-01-22T08:54:08.130Z</time>
      </trkpt>
      <trkpt lat="47.75208" lon="1.95448">
        <ele>133</ele>
        <time>2017-01-22T08:54:09.140Z</time>
      </trkpt>
      <trkpt lat="47.75208" lon="1.95448">
        <ele>133</ele>
        <time>2017-01-22T08:54:10.145Z</time>
      </trkpt>
      <trkpt lat="47.75218" lon="1.95445">
        <ele>133</ele>
        <time>2017-01-22T08:54:11.148Z</time>
      </trkpt>
      <trkpt lat="47.75223" lon="1.95444">
        <ele>133</ele>
        <time>2017-01-22T08:54:12.154Z</time>
      </trkpt>
      <trkpt lat="47.75223" lon="1.95444">
        <ele>133</ele>
        <time>2017-01-22T08:54:13.120Z</time>
      </trkpt>
      <trkpt lat="47.75233" lon="1.95441">
        <ele>133</ele>
        <time>2017-01-22T08:54:14.127Z</time>
      </trkpt>
      <trkpt lat="47.75238" lon="1.95439">
        <ele>133</ele>
        <time>2017-01-22T08:54:15.137Z</time>
      </trkpt>
      <trkpt lat="47.75243" lon="1.95438">
        <ele>133</ele>
        <time>2017-01-22T08:54:16.124Z</time>
      </trkpt>
      <trkpt lat="47.75243" lon="1.95438">
        <ele>133</ele>
        <time>2017-01-22T08:54:17.120Z</time>
      </trkpt>
      <trkpt lat="47.75254" lon="1.95435">
        <ele>133</ele>
        <time>2017-01-22T08:54:18.150Z</time>
      </trkpt>
      <trkpt lat="47.75254" lon="1.95435">
        <ele>133</ele>
        <time>2017-01-22T08:54:19.153Z</time>
      </trkpt>
      <trkpt lat="47.75264" lon="1.95432">
        <ele>133</ele>
        <time>2017-01-22T08:54:20.152Z</time>
      </trkpt>
      <trkpt lat="47.75264" lon="1.95432">
        <ele>133</ele>
        <time>2017-01-22T08:54:21.146Z</time>
      </trkpt>
      <trkpt lat="47.75274" lon="1.95428">
        <ele>132</ele>
        <time>2017-01-22T08:54:22.145Z</time>
      </trkpt>
      <trkpt lat="47.75274" lon="1.95428">
        <ele>132</ele>
        <time>2017-01-22T08:54:23.145Z</time>
      </trkpt>
      <trkpt lat="47.75285" lon="1.95425">
        <ele>132</ele>
        <time>2017-01-22T08:54:24.152Z</time>
      </trkpt>
      <trkpt lat="47.75285" lon="1.95425">
        <ele>132</ele>
        <time>2017-01-22T08:54:25.118Z</time>
      </trkpt>
      <trkpt lat="47.75295" lon="1.95422">
        <ele>132</ele>
        <time>2017-01-22T08:54:26.125Z</time>
      </trkpt>
      <trkpt lat="47.753" lon="1.9542">
        <ele>132</ele>
        <time>2017-01-22T08:54:27.133Z</time>
      </trkpt>
      <trkpt lat="47.753" lon="1.9542">
        <ele>132</ele>
        <time>2017-01-22T08:54:28.122Z</time>
      </trkpt>
      <trkpt lat="47.7531" lon="1.95417">
        <ele>132</ele>
        <time>2017-01-22T08:54:29.149Z</time>
      </trkpt>
      <trkpt lat="47.75315" lon="1.95415">
        <ele>132</ele>
        <time>2017-01-22T08:54:30.156Z</time>
      </trkpt>
      <trkpt lat="47.75315" lon="1.95415">
        <ele>132</ele>
        <time>2017-01-22T08:54:31.122Z</time>
      </trkpt>
      <trkpt lat="47.75326" lon="1.95412">
        <ele>131</ele>
        <time>2017-01-22T08:54:32.134Z</time>
      </trkpt>
      <trkpt lat="47.75326" lon="1.95412">
        <ele>131</ele>
        <time>2017-01-22T08:54:33.140Z</time>
      </trkpt>
      <trkpt lat="47.75336" lon="1.95408">
        <ele>131</ele>
        <time>2017-01-22T08:54:34.148Z</time>
      </trkpt>
      <trkpt lat="47.75341" lon="1.95407">
        <ele>131</ele>
        <time>2017-01-22T08:54:35.153Z</time>
      </trkpt>
      <trkpt lat="47.75346" lon="1.95405">
        <ele>131</ele>
        <time>2017-01-22T08:54:36.123Z</time>
      </trkpt>
      <trkpt lat="47.75346" lon="1.95405">
        <ele>131</ele>
        <time>2017-01-22T08:54:37.120Z</time>
      </trkpt>
      <trkpt lat="47.75357" lon="1.95401">
        <ele>131</ele>
        <time>2017-01-22T08:54:38.152Z</time>
      </trkpt>
      <trkpt lat="47.75357" lon="1.95401">
        <ele>131</ele>
        <time>2017-01-22T08:54:39.146Z</time>
      </trkpt>
      <trkpt lat="47.75367" lon="1.95396">
        <ele>131</ele>
        <time>2017-01-22T08:54:40.140Z</time>
      </trkpt>
      <trkpt lat="47.75372" lon="1.95394">
        <ele>131</ele>
        <time>2017-01-22T08:54:41.155Z</time>
      </trkpt>
      <trkpt lat="47.75377" lon="1.95392">
        <ele>131</ele>
        <time>2017-01-22T08:54:42.138Z</time>
      </trkpt>
      <trkpt lat="47.75377" lon="1.95392">
        <ele>131</ele>
        <time>2017-01-22T08:54:43.132Z</time>
      </trkpt>
      <trkpt lat="47.75387" lon="1.95387">
        <ele>131</ele>
        <time>2017-01-22T08:54:44.145Z</time>
      </trkpt>
      <trkpt lat="47.75392" lon="1.95385">
        <ele>130</ele>
        <time>2017-01-22T08:54:45.124Z</time>
      </trkpt>
      <trkpt lat="47.75392" lon="1.95385">
        <ele>130</ele>
        <time>2017-01-22T08:54:46.131Z</time>
      </trkpt>
      <trkpt lat="47.75402" lon="1.9538">
        <ele>130</ele>
        <time>2017-01-22T08:54:47.145Z</time>
      </trkpt>
      <trkpt lat="47.75407" lon="1.95378">
        <ele>130</ele>
        <time>2017-01-22T08:54:48.147Z</time>
      </trkpt>
      <trkpt lat="47.75407" lon="1.95378">
        <ele>130</ele>
        <time>2017-01-22T08:54:49.154Z</time>
      </trkpt>
      <trkpt lat="47.75417" lon="1.95374">
        <ele>130</ele>
        <time>2017-01-22T08:54:50.145Z</time>
      </trkpt>
      <trkpt lat="47.75422" lon="1.95371">
        <ele>129</ele>
        <time>2017-01-22T08:54:51.123Z</time>
      </trkpt>
      <trkpt lat="47.75422" lon="1.95371">
        <ele>129</ele>
        <time>2017-01-22T08:54:52.151Z</time>
      </trkpt>
      <trkpt lat="47.75432" lon="1.95366">
        <ele>130</ele>
        <time>2017-01-22T08:54:53.145Z</time>
      </trkpt>
      <trkpt lat="47.75437" lon="1.95364">
        <ele>130</ele>
        <time>2017-01-22T08:54:54.152Z</time>
      </trkpt>
      <trkpt lat="47.75437" lon="1.95364">
        <ele>130</ele>
        <time>2017-01-22T08:54:55.118Z</time>
      </trkpt>
      <trkpt lat="47.75448" lon="1.95359">
        <ele>130</ele>
        <time>2017-01-22T08:54:56.145Z</time>
      </trkpt>
      <trkpt lat="47.75453" lon="1.95357">
        <ele>130</ele>
        <time>2017-01-22T08:54:57.136Z</time>
      </trkpt>
      <trkpt lat="47.75453" lon="1.95357">
        <ele>130</ele>
        <time>2017-01-22T08:54:58.143Z</time>
      </trkpt>
      <trkpt lat="47.75463" lon="1.95352">
        <ele>130</ele>
        <time>2017-01-22T08:54:59.157Z</time>
      </trkpt>
      <trkpt lat="47.75468" lon="1.9535">
        <ele>130</ele>
        <time>2017-01-22T08:55:00.144Z</time>
      </trkpt>
      <trkpt lat="47.75468" lon="1.9535">
        <ele>130</ele>
        <time>2017-01-22T08:55:01.151Z</time>
      </trkpt>
      <trkpt lat="47.75478" lon="1.95345">
        <ele>129</ele>
        <time>2017-01-22T08:55:02.158Z</time>
      </trkpt>
      <trkpt lat="47.75478" lon="1.95345">
        <ele>129</ele>
        <time>2017-01-22T08:55:03.124Z</time>
      </trkpt>
      <trkpt lat="47.75488" lon="1.95341">
        <ele>129</ele>
        <time>2017-01-22T08:55:04.119Z</time>
      </trkpt>
      <trkpt lat="47.75488" lon="1.95341">
        <ele>129</ele>
        <time>2017-01-22T08:55:05.126Z</time>
      </trkpt>
      <trkpt lat="47.75498" lon="1.95337">
        <ele>129</ele>
        <time>2017-01-22T08:55:06.146Z</time>
      </trkpt>
      <trkpt lat="47.75498" lon="1.95337">
        <ele>129</ele>
        <time>2017-01-22T08:55:07.144Z</time>
      </trkpt>
      <trkpt lat="47.75508" lon="1.95333">
        <ele>129</ele>
        <time>2017-01-22T08:55:08.142Z</time>
      </trkpt>
      <trkpt lat="47.75508" lon="1.95333">
        <ele>129</ele>
        <time>2017-01-22T08:55:09.148Z</time>
      </trkpt>
      <trkpt lat="47.75518" lon="1.95328">
        <ele>129</ele>
        <time>2017-01-22T08:55:10.136Z</time>
      </trkpt>
      <trkpt lat="47.75523" lon="1.95325">
        <ele>129</ele>
        <time>2017-01-22T08:55:11.145Z</time>
      </trkpt>
      <trkpt lat="47.75528" lon="1.95323">
        <ele>129</ele>
        <time>2017-01-22T08:55:12.151Z</time>
      </trkpt>
      <trkpt lat="47.75528" lon="1.95323">
        <ele>129</ele>
        <time>2017-01-22T08:55:13.157Z</time>
      </trkpt>
      <trkpt lat="47.75537" lon="1.95318">
        <ele>129</ele>
        <time>2017-01-22T08:55:14.145Z</time>
      </trkpt>
      <trkpt lat="47.75542" lon="1.95316">
        <ele>129</ele>
        <time>2017-01-22T08:55:15.133Z</time>
      </trkpt>
      <trkpt lat="47.75542" lon="1.95316">
        <ele>129</ele>
        <time>2017-01-22T08:55:16.139Z</time>
      </trkpt>
      <trkpt lat="47.75552" lon="1.95311">
        <ele>129</ele>
        <time>2017-01-22T08:55:17.146Z</time>
      </trkpt>
      <trkpt lat="47.75557" lon="1.95309">
        <ele>129</ele>
        <time>2017-01-22T08:55:18.150Z</time>
      </trkpt>
      <trkpt lat="47.75557" lon="1.95309">
        <ele>129</ele>
        <time>2017-01-22T08:55:19.123Z</time>
      </trkpt>
      <trkpt lat="47.75566" lon="1.95305">
        <ele>129</ele>
        <time>2017-01-22T08:55:20.145Z</time>
      </trkpt>
      <trkpt lat="47.75566" lon="1.95305">
        <ele>129</ele>
        <time>2017-01-22T08:55:21.140Z</time>
      </trkpt>
      <trkpt lat="47.75576" lon="1.95301">
        <ele>129</ele>
        <time>2017-01-22T08:55:22.143Z</time>
      </trkpt>
      <trkpt lat="47.75576" lon="1.95301">
        <ele>129</ele>
        <time>2017-01-22T08:55:23.150Z</time>
      </trkpt>
      <trkpt lat="47.75585" lon="1.95296">
        <ele>129</ele>
        <time>2017-01-22T08:55:24.156Z</time>
      </trkpt>
      <trkpt lat="47.75589" lon="1.95297">
        <ele>128</ele>
        <time>2017-01-22T08:55:25.136Z</time>
      </trkpt>
      <trkpt lat="47.75589" lon="1.95297">
        <ele>128</ele>
        <time>2017-01-22T08:55:26.142Z</time>
      </trkpt>
      <trkpt lat="47.75595" lon="1.95304">
        <ele>128</ele>
        <time>2017-01-22T08:55:27.149Z</time>
      </trkpt>
      <trkpt lat="47.75596" lon="1.95308">
        <ele>128</ele>
        <time>2017-01-22T08:55:28.131Z</time>
      </trkpt>
      <trkpt lat="47.75598" lon="1.95313">
        <ele>128</ele>
        <time>2017-01-22T08:55:29.140Z</time>
      </trkpt>
      <trkpt lat="47.75599" lon="1.95319">
        <ele>128</ele>
        <time>2017-01-22T08:55:30.146Z</time>
      </trkpt>
      <trkpt lat="47.75599" lon="1.95319">
        <ele>128</ele>
        <time>2017-01-22T08:55:31.152Z</time>
      </trkpt>
      <trkpt lat="47.75602" lon="1.95332">
        <ele>127</ele>
        <time>2017-01-22T08:55:32.146Z</time>
      </trkpt>
      <trkpt lat="47.75604" lon="1.95338">
        <ele>127</ele>
        <time>2017-01-22T08:55:33.123Z</time>
      </trkpt>
      <trkpt lat="47.75604" lon="1.95338">
        <ele>127</ele>
        <time>2017-01-22T08:55:34.154Z</time>
      </trkpt>
      <trkpt lat="47.75607" lon="1.95353">
        <ele>127</ele>
        <time>2017-01-22T08:55:35.145Z</time>
      </trkpt>
      <trkpt lat="47.75609" lon="1.9536">
        <ele>127</ele>
        <time>2017-01-22T08:55:36.152Z</time>
      </trkpt>
      <trkpt lat="47.75609" lon="1.9536">
        <ele>127</ele>
        <time>2017-01-22T08:55:37.118Z</time>
      </trkpt>
      <trkpt lat="47.75612" lon="1.95373">
        <ele>127</ele>
        <time>2017-01-22T08:55:38.127Z</time>
      </trkpt>
      <trkpt lat="47.75614" lon="1.95379">
        <ele>127</ele>
        <time>2017-01-22T08:55:39.144Z</time>
      </trkpt>
      <trkpt lat="47.75614" lon="1.95379">
        <ele>127</ele>
        <time>2017-01-22T08:55:40.151Z</time>
      </trkpt>
      <trkpt lat="47.75617" lon="1.95393">
        <ele>126</ele>
        <time>2017-01-22T08:55:41.124Z</time>
      </trkpt>
      <trkpt lat="47.75619" lon="1.954">
        <ele>126</ele>
        <time>2017-01-22T08:55:42.123Z</time>
      </trkpt>
      <trkpt lat="47.75619" lon="1.954">
        <ele>126</ele>
        <time>2017-01-22T08:55:43.155Z</time>
      </trkpt>
      <trkpt lat="47.75622" lon="1.95413">
        <ele>126</ele>
        <time>2017-01-22T08:55:44.134Z</time>
      </trkpt>
      <trkpt lat="47.75622" lon="1.95413">
        <ele>126</ele>
        <time>2017-01-22T08:55:45.140Z</time>
      </trkpt>
      <trkpt lat="47.75626" lon="1.95426">
        <ele>126</ele>
        <time>2017-01-22T08:55:46.130Z</time>
      </trkpt>
      <trkpt lat="47.75628" lon="1.95433">
        <ele>126</ele>
        <time>2017-01-22T08:55:47.146Z</time>
      </trkpt>
      <trkpt lat="47.75629" lon="1.95439">
        <ele>126</ele>
        <time>2017-01-22T08:55:48.135Z</time>
      </trkpt>
      <trkpt lat="47.75629" lon="1.95439">
        <ele>126</ele>
        <time>2017-01-22T08:55:49.141Z</time>
      </trkpt>
      <trkpt lat="47.75633" lon="1.95452">
        <ele>126</ele>
        <time>2017-01-22T08:55:50.148Z</time>
      </trkpt>
      <trkpt lat="47.75633" lon="1.95452">
        <ele>126</ele>
        <time>2017-01-22T08:55:51.154Z</time>
      </trkpt>
      <trkpt lat="47.75636" lon="1.95465">
        <ele>125</ele>
        <time>2017-01-22T08:55:52.144Z</time>
      </trkpt>
      <trkpt lat="47.75636" lon="1.95465">
        <ele>125</ele>
        <time>2017-01-22T08:55:53.151Z</time>
      </trkpt>
      <trkpt lat="47.75639" lon="1.95479">
        <ele>125</ele>
        <time>2017-01-22T08:55:54.118Z</time>
      </trkpt>
      <trkpt lat="47.75641" lon="1.95486">
        <ele>125</ele>
        <time>2017-01-22T08:55:55.151Z</time>
      </trkpt>
      <trkpt lat="47.75641" lon="1.95486">
        <ele>125</ele>
        <time>2017-01-22T08:55:56.157Z</time>
      </trkpt>
      <trkpt lat="47.75644" lon="1.95499">
        <ele>124</ele>
        <time>2017-01-22T08:55:57.124Z</time>
      </trkpt>
      <trkpt lat="47.75644" lon="1.95499">
        <ele>124</ele>
        <time>2017-01-22T08:55:58.130Z</time>
      </trkpt>
      <trkpt lat="47.75647" lon="1.95513">
        <ele>124</ele>
        <time>2017-01-22T08:55:59.145Z</time>
      </trkpt>
      <trkpt lat="47.75649" lon="1.95519">
        <ele>124</ele>
        <time>2017-01-22T08:56:00.150Z</time>
      </trkpt>
      <trkpt lat="47.75649" lon="1.95519">
        <ele>124</ele>
        <time>2017-01-22T08:56:01.157Z</time>
      </trkpt>
      <trkpt lat="47.75652" lon="1.95533">
        <ele>124</ele>
        <time>2017-01-22T08:56:02.123Z</time>
      </trkpt>
      <trkpt lat="47.75653" lon="1.9554">
        <ele>124</ele>
        <time>2017-01-22T08:56:03.147Z</time>
      </trkpt>
      <trkpt lat="47.75653" lon="1.9554">
        <ele>124</ele>
        <time>2017-01-22T08:56:04.124Z</time>
      </trkpt>
      <trkpt lat="47.75656" lon="1.95554">
        <ele>124</ele>
        <time>2017-01-22T08:56:05.136Z</time>
      </trkpt>
      <trkpt lat="47.75656" lon="1.95554">
        <ele>124</ele>
        <time>2017-01-22T08:56:06.126Z</time>
      </trkpt>
      <trkpt lat="47.75658" lon="1.95567">
        <ele>123</ele>
        <time>2017-01-22T08:56:07.119Z</time>
      </trkpt>
      <trkpt lat="47.75658" lon="1.95567">
        <ele>123</ele>
        <time>2017-01-22T08:56:08.125Z</time>
      </trkpt>
      <trkpt lat="47.75661" lon="1.9558">
        <ele>122</ele>
        <time>2017-01-22T08:56:09.136Z</time>
      </trkpt>
      <trkpt lat="47.75661" lon="1.9558">
        <ele>122</ele>
        <time>2017-01-22T08:56:10.154Z</time>
      </trkpt>
      <trkpt lat="47.75664" lon="1.95593">
        <ele>122</ele>
        <time>2017-01-22T08:56:11.146Z</time>
      </trkpt>
      <trkpt lat="47.75667" lon="1.956">
        <ele>123</ele>
        <time>2017-01-22T08:56:12.152Z</time>
      </trkpt>
      <trkpt lat="47.75667" lon="1.956">
        <ele>123</ele>
        <time>2017-01-22T08:56:13.118Z</time>
      </trkpt>
      <trkpt lat="47.7567" lon="1.95613">
        <ele>123</ele>
        <time>2017-01-22T08:56:14.134Z</time>
      </trkpt>
      <trkpt lat="47.75672" lon="1.9562">
        <ele>123</ele>
        <time>2017-01-22T08:56:15.143Z</time>
      </trkpt>
      <trkpt lat="47.75673" lon="1.95627">
        <ele>123</ele>
        <time>2017-01-22T08:56:16.151Z</time>
      </trkpt>
      <trkpt lat="47.75673" lon="1.95627">
        <ele>123</ele>
        <time>2017-01-22T08:56:17.157Z</time>
      </trkpt>
      <trkpt lat="47.75677" lon="1.95641">
        <ele>123</ele>
        <time>2017-01-22T08:56:18.130Z</time>
      </trkpt>
      <trkpt lat="47.75677" lon="1.95641">
        <ele>123</ele>
        <time>2017-01-22T08:56:19.136Z</time>
      </trkpt>
      <trkpt lat="47.7568" lon="1.95654">
        <ele>122</ele>
        <time>2017-01-22T08:56:20.137Z</time>
      </trkpt>
      <trkpt lat="47.7568" lon="1.95654">
        <ele>122</ele>
        <time>2017-01-22T08:56:21.144Z</time>
      </trkpt>
      <trkpt lat="47.75683" lon="1.95667">
        <ele>123</ele>
        <time>2017-01-22T08:56:22.151Z</time>
      </trkpt>
      <trkpt lat="47.75683" lon="1.95667">
        <ele>123</ele>
        <time>2017-01-22T08:56:23.157Z</time>
      </trkpt>
      <trkpt lat="47.75686" lon="1.95681">
        <ele>122</ele>
        <time>2017-01-22T08:56:24.153Z</time>
      </trkpt>
      <trkpt lat="47.75686" lon="1.95681">
        <ele>122</ele>
        <time>2017-01-22T08:56:25.119Z</time>
      </trkpt>
      <trkpt lat="47.75692" lon="1.95694">
        <ele>123</ele>
        <time>2017-01-22T08:56:26.130Z</time>
      </trkpt>
      <trkpt lat="47.75692" lon="1.95694">
        <ele>123</ele>
        <time>2017-01-22T08:56:27.120Z</time>
      </trkpt>
      <trkpt lat="47.75696" lon="1.95708">
        <ele>124</ele>
        <time>2017-01-22T08:56:28.130Z</time>
      </trkpt>
      <trkpt lat="47.75696" lon="1.95708">
        <ele>124</ele>
        <time>2017-01-22T08:56:29.137Z</time>
      </trkpt>
      <trkpt lat="47.757" lon="1.95721">
        <ele>124</ele>
        <time>2017-01-22T08:56:30.146Z</time>
      </trkpt>
      <trkpt lat="47.75703" lon="1.95726">
        <ele>125</ele>
        <time>2017-01-22T08:56:31.134Z</time>
      </trkpt>
      <trkpt lat="47.75703" lon="1.95726">
        <ele>125</ele>
        <time>2017-01-22T08:56:32.141Z</time>
      </trkpt>
      <trkpt lat="47.75707" lon="1.95739">
        <ele>124</ele>
        <time>2017-01-22T08:56:33.148Z</time>
      </trkpt>
      <trkpt lat="47.75709" lon="1.95746">
        <ele>124</ele>
        <time>2017-01-22T08:56:34.125Z</time>
      </trkpt>
      <trkpt lat="47.75709" lon="1.95746">
        <ele>124</ele>
        <time>2017-01-22T08:56:35.131Z</time>
      </trkpt>
      <trkpt lat="47.75712" lon="1.9576">
        <ele>125</ele>
        <time>2017-01-22T08:56:36.139Z</time>
      </trkpt>
      <trkpt lat="47.75714" lon="1.95767">
        <ele>125</ele>
        <time>2017-01-22T08:56:37.134Z</time>
      </trkpt>
      <trkpt lat="47.75714" lon="1.95767">
        <ele>125</ele>
        <time>2017-01-22T08:56:38.140Z</time>
      </trkpt>
      <trkpt lat="47.75718" lon="1.9578">
        <ele>126</ele>
        <time>2017-01-22T08:56:39.157Z</time>
      </trkpt>
      <trkpt lat="47.75718" lon="1.9578">
        <ele>126</ele>
        <time>2017-01-22T08:56:40.123Z</time>
      </trkpt>
      <trkpt lat="47.75721" lon="1.95793">
        <ele>126</ele>
        <time>2017-01-22T08:56:41.129Z</time>
      </trkpt>
      <trkpt lat="47.75722" lon="1.95799">
        <ele>126</ele>
        <time>2017-01-22T08:56:42.135Z</time>
      </trkpt>
      <trkpt lat="47.75722" lon="1.95799">
        <ele>126</ele>
        <time>2017-01-22T08:56:43.141Z</time>
      </trkpt>
      <trkpt lat="47.75725" lon="1.95812">
        <ele>126</ele>
        <time>2017-01-22T08:56:44.146Z</time>
      </trkpt>
      <trkpt lat="47.75727" lon="1.95819">
        <ele>126</ele>
        <time>2017-01-22T08:56:45.132Z</time>
      </trkpt>
      <trkpt lat="47.75727" lon="1.95819">
        <ele>126</ele>
        <time>2017-01-22T08:56:46.140Z</time>
      </trkpt>
      <trkpt lat="47.75731" lon="1.95831">
        <ele>126</ele>
        <time>2017-01-22T08:56:47.123Z</time>
      </trkpt>
      <trkpt lat="47.75733" lon="1.95837">
        <ele>126</ele>
        <time>2017-01-22T08:56:48.154Z</time>
      </trkpt>
      <trkpt lat="47.75733" lon="1.95837">
        <ele>126</ele>
        <time>2017-01-22T08:56:49.129Z</time>
      </trkpt>
      <trkpt lat="47.75736" lon="1.9585">
        <ele>126</ele>
        <time>2017-01-22T08:56:50.146Z</time>
      </trkpt>
      <trkpt lat="47.75737" lon="1.95856">
        <ele>127</ele>
        <time>2017-01-22T08:56:51.145Z</time>
      </trkpt>
      <trkpt lat="47.75739" lon="1.95863">
        <ele>127</ele>
        <time>2017-01-22T08:56:52.128Z</time>
      </trkpt>
      <trkpt lat="47.75739" lon="1.95863">
        <ele>127</ele>
        <time>2017-01-22T08:56:53.134Z</time>
      </trkpt>
      <trkpt lat="47.75741" lon="1.95875">
        <ele>127</ele>
        <time>2017-01-22T08:56:54.154Z</time>
      </trkpt>
      <trkpt lat="47.75741" lon="1.95875">
        <ele>127</ele>
        <time>2017-01-22T08:56:55.146Z</time>
      </trkpt>
      <trkpt lat="47.75745" lon="1.95888">
        <ele>127</ele>
        <time>2017-01-22T08:56:56.154Z</time>
      </trkpt>
      <trkpt lat="47.75745" lon="1.95888">
        <ele>127</ele>
        <time>2017-01-22T08:56:57.120Z</time>
      </trkpt>
      <trkpt lat="47.75749" lon="1.95901">
        <ele>127</ele>
        <time>2017-01-22T08:56:58.126Z</time>
      </trkpt>
      <trkpt lat="47.75751" lon="1.95907">
        <ele>127</ele>
        <time>2017-01-22T08:56:59.144Z</time>
      </trkpt>
      <trkpt lat="47.75752" lon="1.95914">
        <ele>127</ele>
        <time>2017-01-22T08:57:00.155Z</time>
      </trkpt>
      <trkpt lat="47.75752" lon="1.95914">
        <ele>127</ele>
        <time>2017-01-22T08:57:01.121Z</time>
      </trkpt>
      <trkpt lat="47.75756" lon="1.95927">
        <ele>127</ele>
        <time>2017-01-22T08:57:02.144Z</time>
      </trkpt>
      <trkpt lat="47.75758" lon="1.95933">
        <ele>126</ele>
        <time>2017-01-22T08:57:03.151Z</time>
      </trkpt>
      <trkpt lat="47.75758" lon="1.95933">
        <ele>126</ele>
        <time>2017-01-22T08:57:04.143Z</time>
      </trkpt>
      <trkpt lat="47.75762" lon="1.95947">
        <ele>126</ele>
        <time>2017-01-22T08:57:05.154Z</time>
      </trkpt>
      <trkpt lat="47.75764" lon="1.95953">
        <ele>126</ele>
        <time>2017-01-22T08:57:06.121Z</time>
      </trkpt>
      <trkpt lat="47.75764" lon="1.95953">
        <ele>126</ele>
        <time>2017-01-22T08:57:07.128Z</time>
      </trkpt>
      <trkpt lat="47.75768" lon="1.95966">
        <ele>126</ele>
        <time>2017-01-22T08:57:08.136Z</time>
      </trkpt>
      <trkpt lat="47.75769" lon="1.95973">
        <ele>126</ele>
        <time>2017-01-22T08:57:09.143Z</time>
      </trkpt>
      <trkpt lat="47.75771" lon="1.95979">
        <ele>126</ele>
        <time>2017-01-22T08:57:10.151Z</time>
      </trkpt>
      <trkpt lat="47.75771" lon="1.95979">
        <ele>126</ele>
        <time>2017-01-22T08:57:11.157Z</time>
      </trkpt>
      <trkpt lat="47.75775" lon="1.95992">
        <ele>126</ele>
        <time>2017-01-22T08:57:12.146Z</time>
      </trkpt>
      <trkpt lat="47.75775" lon="1.95992">
        <ele>126</ele>
        <time>2017-01-22T08:57:13.156Z</time>
      </trkpt>
      <trkpt lat="47.75778" lon="1.96005">
        <ele>126</ele>
        <time>2017-01-22T08:57:14.124Z</time>
      </trkpt>
      <trkpt lat="47.75778" lon="1.96005">
        <ele>126</ele>
        <time>2017-01-22T08:57:15.130Z</time>
      </trkpt>
      <trkpt lat="47.75781" lon="1.96019">
        <ele>126</ele>
        <time>2017-01-22T08:57:16.138Z</time>
      </trkpt>
      <trkpt lat="47.75783" lon="1.96026">
        <ele>125</ele>
        <time>2017-01-22T08:57:17.127Z</time>
      </trkpt>
      <trkpt lat="47.75785" lon="1.96032">
        <ele>125</ele>
        <time>2017-01-22T08:57:18.134Z</time>
      </trkpt>
      <trkpt lat="47.75785" lon="1.96032">
        <ele>125</ele>
        <time>2017-01-22T08:57:19.141Z</time>
      </trkpt>
      <trkpt lat="47.75788" lon="1.96044">
        <ele>125</ele>
        <time>2017-01-22T08:57:20.145Z</time>
      </trkpt>
      <trkpt lat="47.75788" lon="1.96044">
        <ele>125</ele>
        <time>2017-01-22T08:57:21.151Z</time>
      </trkpt>
      <trkpt lat="47.75791" lon="1.96057">
        <ele>125</ele>
        <time>2017-01-22T08:57:22.130Z</time>
      </trkpt>
      <trkpt lat="47.75791" lon="1.96057">
        <ele>125</ele>
        <time>2017-01-22T08:57:23.137Z</time>
      </trkpt>
      <trkpt lat="47.75794" lon="1.96069">
        <ele>125</ele>
        <time>2017-01-22T08:57:24.151Z</time>
      </trkpt>
      <trkpt lat="47.75794" lon="1.96069">
        <ele>125</ele>
        <time>2017-01-22T08:57:25.157Z</time>
      </trkpt>
      <trkpt lat="47.75798" lon="1.96082">
        <ele>125</ele>
        <time>2017-01-22T08:57:26.124Z</time>
      </trkpt>
      <trkpt lat="47.75799" lon="1.96088">
        <ele>125</ele>
        <time>2017-01-22T08:57:27.126Z</time>
      </trkpt>
      <trkpt lat="47.75799" lon="1.96088">
        <ele>125</ele>
        <time>2017-01-22T08:57:28.133Z</time>
      </trkpt>
      <trkpt lat="47.75804" lon="1.961">
        <ele>125</ele>
        <time>2017-01-22T08:57:29.145Z</time>
      </trkpt>
      <trkpt lat="47.75806" lon="1.96106">
        <ele>124</ele>
        <time>2017-01-22T08:57:30.121Z</time>
      </trkpt>
      <trkpt lat="47.75806" lon="1.96106">
        <ele>124</ele>
        <time>2017-01-22T08:57:31.128Z</time>
      </trkpt>
      <trkpt lat="47.75809" lon="1.96119">
        <ele>124</ele>
        <time>2017-01-22T08:57:32.146Z</time>
      </trkpt>
      <trkpt lat="47.7581" lon="1.96126">
        <ele>124</ele>
        <time>2017-01-22T08:57:33.124Z</time>
      </trkpt>
      <trkpt lat="47.7581" lon="1.96126">
        <ele>124</ele>
        <time>2017-01-22T08:57:34.130Z</time>
      </trkpt>
      <trkpt lat="47.75813" lon="1.9614">
        <ele>124</ele>
        <time>2017-01-22T08:57:35.139Z</time>
      </trkpt>
      <trkpt lat="47.75814" lon="1.96146">
        <ele>124</ele>
        <time>2017-01-22T08:57:36.130Z</time>
      </trkpt>
      <trkpt lat="47.75815" lon="1.96153">
        <ele>124</ele>
        <time>2017-01-22T08:57:37.126Z</time>
      </trkpt>
      <trkpt lat="47.75815" lon="1.96153">
        <ele>124</ele>
        <time>2017-01-22T08:57:38.132Z</time>
      </trkpt>
      <trkpt lat="47.75819" lon="1.96165">
        <ele>124</ele>
        <time>2017-01-22T08:57:39.138Z</time>
      </trkpt>
      <trkpt lat="47.75819" lon="1.96165">
        <ele>124</ele>
        <time>2017-01-22T08:57:40.146Z</time>
      </trkpt>
      <trkpt lat="47.75821" lon="1.96179">
        <ele>125</ele>
        <time>2017-01-22T08:57:41.146Z</time>
      </trkpt>
      <trkpt lat="47.75823" lon="1.96185">
        <ele>125</ele>
        <time>2017-01-22T08:57:42.156Z</time>
      </trkpt>
      <trkpt lat="47.75823" lon="1.96185">
        <ele>125</ele>
        <time>2017-01-22T08:57:43.122Z</time>
      </trkpt>
      <trkpt lat="47.75826" lon="1.96198">
        <ele>125</ele>
        <time>2017-01-22T08:57:44.157Z</time>
      </trkpt>
      <trkpt lat="47.75826" lon="1.96198">
        <ele>125</ele>
        <time>2017-01-22T08:57:45.123Z</time>
      </trkpt>
      <trkpt lat="47.7583" lon="1.96211">
        <ele>125</ele>
        <time>2017-01-22T08:57:46.130Z</time>
      </trkpt>
      <trkpt lat="47.75832" lon="1.96217">
        <ele>125</ele>
        <time>2017-01-22T08:57:47.152Z</time>
      </trkpt>
      <trkpt lat="47.75834" lon="1.96223">
        <ele>125</ele>
        <time>2017-01-22T08:57:48.118Z</time>
      </trkpt>
      <trkpt lat="47.75834" lon="1.96223">
        <ele>125</ele>
        <time>2017-01-22T08:57:49.131Z</time>
      </trkpt>
      <trkpt lat="47.75837" lon="1.96237">
        <ele>125</ele>
        <time>2017-01-22T08:57:50.138Z</time>
      </trkpt>
      <trkpt lat="47.75837" lon="1.96237">
        <ele>125</ele>
        <time>2017-01-22T08:57:51.144Z</time>
      </trkpt>
      <trkpt lat="47.75841" lon="1.9625">
        <ele>125</ele>
        <time>2017-01-22T08:57:52.154Z</time>
      </trkpt>
      <trkpt lat="47.75841" lon="1.9625">
        <ele>125</ele>
        <time>2017-01-22T08:57:53.120Z</time>
      </trkpt>
      <trkpt lat="47.75845" lon="1.96263">
        <ele>125</ele>
        <time>2017-01-22T08:57:54.145Z</time>
      </trkpt>
      <trkpt lat="47.75845" lon="1.96263">
        <ele>125</ele>
        <time>2017-01-22T08:57:55.151Z</time>
      </trkpt>
      <trkpt lat="47.75848" lon="1.96275">
        <ele>125</ele>
        <time>2017-01-22T08:57:56.157Z</time>
      </trkpt>
      <trkpt lat="47.75848" lon="1.96275">
        <ele>125</ele>
        <time>2017-01-22T08:57:57.123Z</time>
      </trkpt>
      <trkpt lat="47.75852" lon="1.96287">
        <ele>125</ele>
        <time>2017-01-22T08:57:58.132Z</time>
      </trkpt>
      <trkpt lat="47.75852" lon="1.96287">
        <ele>125</ele>
        <time>2017-01-22T08:57:59.141Z</time>
      </trkpt>
      <trkpt lat="47.75856" lon="1.96299">
        <ele>125</ele>
        <time>2017-01-22T08:58:00.132Z</time>
      </trkpt>
      <trkpt lat="47.75859" lon="1.96305">
        <ele>125</ele>
        <time>2017-01-22T08:58:01.146Z</time>
      </trkpt>
      <trkpt lat="47.75859" lon="1.96305">
        <ele>125</ele>
        <time>2017-01-22T08:58:02.152Z</time>
      </trkpt>
      <trkpt lat="47.75863" lon="1.96317">
        <ele>125</ele>
        <time>2017-01-22T08:58:03.122Z</time>
      </trkpt>
      <trkpt lat="47.75863" lon="1.96317">
        <ele>125</ele>
        <time>2017-01-22T08:58:04.119Z</time>
      </trkpt>
      <trkpt lat="47.75867" lon="1.96329">
        <ele>125</ele>
        <time>2017-01-22T08:58:05.130Z</time>
      </trkpt>
      <trkpt lat="47.75868" lon="1.96335">
        <ele>125</ele>
        <time>2017-01-22T08:58:06.148Z</time>
      </trkpt>
      <trkpt lat="47.75868" lon="1.96335">
        <ele>125</ele>
        <time>2017-01-22T08:58:07.155Z</time>
      </trkpt>
      <trkpt lat="47.75871" lon="1.96348">
        <ele>126</ele>
        <time>2017-01-22T08:58:08.154Z</time>
      </trkpt>
      <trkpt lat="47.75871" lon="1.96348">
        <ele>126</ele>
        <time>2017-01-22T08:58:09.121Z</time>
      </trkpt>
      <trkpt lat="47.75874" lon="1.9636">
        <ele>126</ele>
        <time>2017-01-22T08:58:10.131Z</time>
      </trkpt>
      <trkpt lat="47.75876" lon="1.96366">
        <ele>126</ele>
        <time>2017-01-22T08:58:11.144Z</time>
      </trkpt>
      <trkpt lat="47.75878" lon="1.96371">
        <ele>126</ele>
        <time>2017-01-22T08:58:12.150Z</time>
      </trkpt>
      <trkpt lat="47.75878" lon="1.96371">
        <ele>126</ele>
        <time>2017-01-22T08:58:13.156Z</time>
      </trkpt>
      <trkpt lat="47.75881" lon="1.96384">
        <ele>126</ele>
        <time>2017-01-22T08:58:14.137Z</time>
      </trkpt>
      <trkpt lat="47.75883" lon="1.9639">
        <ele>126</ele>
        <time>2017-01-22T08:58:15.144Z</time>
      </trkpt>
      <trkpt lat="47.75883" lon="1.9639">
        <ele>126</ele>
        <time>2017-01-22T08:58:16.151Z</time>
      </trkpt>
      <trkpt lat="47.75885" lon="1.96402">
        <ele>126</ele>
        <time>2017-01-22T08:58:17.144Z</time>
      </trkpt>
      <trkpt lat="47.75885" lon="1.96402">
        <ele>126</ele>
        <time>2017-01-22T08:58:18.151Z</time>
      </trkpt>
      <trkpt lat="47.75886" lon="1.96415">
        <ele>126</ele>
        <time>2017-01-22T08:58:19.125Z</time>
      </trkpt>
      <trkpt lat="47.75886" lon="1.96415">
        <ele>126</ele>
        <time>2017-01-22T08:58:20.131Z</time>
      </trkpt>
      <trkpt lat="47.75887" lon="1.96428">
        <ele>126</ele>
        <time>2017-01-22T08:58:21.141Z</time>
      </trkpt>
      <trkpt lat="47.75887" lon="1.96428">
        <ele>126</ele>
        <time>2017-01-22T08:58:22.148Z</time>
      </trkpt>
      <trkpt lat="47.75886" lon="1.96441">
        <ele>125</ele>
        <time>2017-01-22T08:58:23.155Z</time>
      </trkpt>
      <trkpt lat="47.75885" lon="1.96448">
        <ele>125</ele>
        <time>2017-01-22T08:58:24.134Z</time>
      </trkpt>
      <trkpt lat="47.75884" lon="1.96454">
        <ele>125</ele>
        <time>2017-01-22T08:58:25.144Z</time>
      </trkpt>
      <trkpt lat="47.75884" lon="1.96454">
        <ele>125</ele>
        <time>2017-01-22T08:58:26.151Z</time>
      </trkpt>
      <trkpt lat="47.75882" lon="1.96468">
        <ele>125</ele>
        <time>2017-01-22T08:58:27.134Z</time>
      </trkpt>
      <trkpt lat="47.75882" lon="1.96468">
        <ele>125</ele>
        <time>2017-01-22T08:58:28.123Z</time>
      </trkpt>
      <trkpt lat="47.75881" lon="1.96483">
        <ele>125</ele>
        <time>2017-01-22T08:58:29.129Z</time>
      </trkpt>
      <trkpt lat="47.75881" lon="1.96483">
        <ele>125</ele>
        <time>2017-01-22T08:58:30.135Z</time>
      </trkpt>
      <trkpt lat="47.7588" lon="1.96496">
        <ele>125</ele>
        <time>2017-01-22T08:58:31.142Z</time>
      </trkpt>
      <trkpt lat="47.7588" lon="1.96496">
        <ele>125</ele>
        <time>2017-01-22T08:58:32.148Z</time>
      </trkpt>
      <trkpt lat="47.75878" lon="1.96509">
        <ele>125</ele>
        <time>2017-01-22T08:58:33.157Z</time>
      </trkpt>
      <trkpt lat="47.75878" lon="1.96509">
        <ele>125</ele>
        <time>2017-01-22T08:58:34.123Z</time>
      </trkpt>
      <trkpt lat="47.75876" lon="1.96523">
        <ele>124</ele>
        <time>2017-01-22T08:58:35.129Z</time>
      </trkpt>
      <trkpt lat="47.75874" lon="1.96529">
        <ele>124</ele>
        <time>2017-01-22T08:58:36.156Z</time>
      </trkpt>
      <trkpt lat="47.75874" lon="1.96529">
        <ele>124</ele>
        <time>2017-01-22T08:58:37.122Z</time>
      </trkpt>
      <trkpt lat="47.75873" lon="1.96542">
        <ele>124</ele>
        <time>2017-01-22T08:58:38.136Z</time>
      </trkpt>
      <trkpt lat="47.75872" lon="1.96549">
        <ele>124</ele>
        <time>2017-01-22T08:58:39.139Z</time>
      </trkpt>
      <trkpt lat="47.75872" lon="1.96549">
        <ele>124</ele>
        <time>2017-01-22T08:58:40.145Z</time>
      </trkpt>
      <trkpt lat="47.7587" lon="1.96562">
        <ele>123</ele>
        <time>2017-01-22T08:58:41.124Z</time>
      </trkpt>
      <trkpt lat="47.75868" lon="1.96569">
        <ele>123</ele>
        <time>2017-01-22T08:58:42.142Z</time>
      </trkpt>
      <trkpt lat="47.75868" lon="1.96569">
        <ele>123</ele>
        <time>2017-01-22T08:58:43.149Z</time>
      </trkpt>
      <trkpt lat="47.75866" lon="1.96584">
        <ele>123</ele>
        <time>2017-01-22T08:58:44.156Z</time>
      </trkpt>
      <trkpt lat="47.75865" lon="1.9659">
        <ele>123</ele>
        <time>2017-01-22T08:58:45.145Z</time>
      </trkpt>
      <trkpt lat="47.75865" lon="1.9659">
        <ele>123</ele>
        <time>2017-01-22T08:58:46.151Z</time>
      </trkpt>
      <trkpt lat="47.75863" lon="1.96604">
        <ele>122</ele>
        <time>2017-01-22T08:58:47.118Z</time>
      </trkpt>
      <trkpt lat="47.75861" lon="1.96611">
        <ele>122</ele>
        <time>2017-01-22T08:58:48.143Z</time>
      </trkpt>
      <trkpt lat="47.75861" lon="1.96611">
        <ele>122</ele>
        <time>2017-01-22T08:58:49.150Z</time>
      </trkpt>
      <trkpt lat="47.75858" lon="1.96625">
        <ele>121</ele>
        <time>2017-01-22T08:58:50.156Z</time>
      </trkpt>
      <trkpt lat="47.75857" lon="1.96633">
        <ele>121</ele>
        <time>2017-01-22T08:58:51.131Z</time>
      </trkpt>
      <trkpt lat="47.75857" lon="1.96633">
        <ele>121</ele>
        <time>2017-01-22T08:58:52.137Z</time>
      </trkpt>
      <trkpt lat="47.75853" lon="1.96647">
        <ele>121</ele>
        <time>2017-01-22T08:58:53.145Z</time>
      </trkpt>
      <trkpt lat="47.75853" lon="1.96647">
        <ele>121</ele>
        <time>2017-01-22T08:58:54.154Z</time>
      </trkpt>
      <trkpt lat="47.7585" lon="1.96662">
        <ele>122</ele>
        <time>2017-01-22T08:58:55.154Z</time>
      </trkpt>
      <trkpt lat="47.7585" lon="1.96662">
        <ele>122</ele>
        <time>2017-01-22T08:58:56.120Z</time>
      </trkpt>
      <trkpt lat="47.75847" lon="1.96677">
        <ele>122</ele>
        <time>2017-01-22T08:58:57.126Z</time>
      </trkpt>
      <trkpt lat="47.75845" lon="1.96684">
        <ele>121</ele>
        <time>2017-01-22T08:58:58.144Z</time>
      </trkpt>
      <trkpt lat="47.75844" lon="1.96692">
        <ele>121</ele>
        <time>2017-01-22T08:58:59.157Z</time>
      </trkpt>
      <trkpt lat="47.75843" lon="1.967">
        <ele>121</ele>
        <time>2017-01-22T08:59:00.137Z</time>
      </trkpt>
      <trkpt lat="47.75843" lon="1.967">
        <ele>121</ele>
        <time>2017-01-22T08:59:01.144Z</time>
      </trkpt>
      <trkpt lat="47.75841" lon="1.96715">
        <ele>122</ele>
        <time>2017-01-22T08:59:02.155Z</time>
      </trkpt>
      <trkpt lat="47.75841" lon="1.96715">
        <ele>122</ele>
        <time>2017-01-22T08:59:03.120Z</time>
      </trkpt>
      <trkpt lat="47.75839" lon="1.96732">
        <ele>122</ele>
        <time>2017-01-22T08:59:04.151Z</time>
      </trkpt>
      <trkpt lat="47.75839" lon="1.96732">
        <ele>122</ele>
        <time>2017-01-22T08:59:05.120Z</time>
      </trkpt>
      <trkpt lat="47.75837" lon="1.96748">
        <ele>122</ele>
        <time>2017-01-22T08:59:06.152Z</time>
      </trkpt>
      <trkpt lat="47.75837" lon="1.96748">
        <ele>122</ele>
        <time>2017-01-22T08:59:07.118Z</time>
      </trkpt>
      <trkpt lat="47.75834" lon="1.96765">
        <ele>122</ele>
        <time>2017-01-22T08:59:08.124Z</time>
      </trkpt>
      <trkpt lat="47.75833" lon="1.96773">
        <ele>122</ele>
        <time>2017-01-22T08:59:09.121Z</time>
      </trkpt>
      <trkpt lat="47.75833" lon="1.96773">
        <ele>122</ele>
        <time>2017-01-22T08:59:10.152Z</time>
      </trkpt>
      <trkpt lat="47.7583" lon="1.96789">
        <ele>122</ele>
        <time>2017-01-22T08:59:11.122Z</time>
      </trkpt>
      <trkpt lat="47.75829" lon="1.96797">
        <ele>122</ele>
        <time>2017-01-22T08:59:12.154Z</time>
      </trkpt>
      <trkpt lat="47.75829" lon="1.96797">
        <ele>122</ele>
        <time>2017-01-22T08:59:13.120Z</time>
      </trkpt>
      <trkpt lat="47.75826" lon="1.96814">
        <ele>122</ele>
        <time>2017-01-22T08:59:14.127Z</time>
      </trkpt>
      <trkpt lat="47.75826" lon="1.96814">
        <ele>122</ele>
        <time>2017-01-22T08:59:15.133Z</time>
      </trkpt>
      <trkpt lat="47.75823" lon="1.9683">
        <ele>122</ele>
        <time>2017-01-22T08:59:16.140Z</time>
      </trkpt>
      <trkpt lat="47.75823" lon="1.9683">
        <ele>122</ele>
        <time>2017-01-22T08:59:17.122Z</time>
      </trkpt>
      <trkpt lat="47.75821" lon="1.96846">
        <ele>123</ele>
        <time>2017-01-22T08:59:18.129Z</time>
      </trkpt>
      <trkpt lat="47.75821" lon="1.96846">
        <ele>123</ele>
        <time>2017-01-22T08:59:19.142Z</time>
      </trkpt>
      <trkpt lat="47.75819" lon="1.96862">
        <ele>123</ele>
        <time>2017-01-22T08:59:20.120Z</time>
      </trkpt>
      <trkpt lat="47.75817" lon="1.9687">
        <ele>123</ele>
        <time>2017-01-22T08:59:21.127Z</time>
      </trkpt>
      <trkpt lat="47.75817" lon="1.9687">
        <ele>123</ele>
        <time>2017-01-22T08:59:22.133Z</time>
      </trkpt>
      <trkpt lat="47.75814" lon="1.96887">
        <ele>123</ele>
        <time>2017-01-22T08:59:23.118Z</time>
      </trkpt>
      <trkpt lat="47.75812" lon="1.96895">
        <ele>123</ele>
        <time>2017-01-22T08:59:24.124Z</time>
      </trkpt>
      <trkpt lat="47.75812" lon="1.96895">
        <ele>123</ele>
        <time>2017-01-22T08:59:25.130Z</time>
      </trkpt>
      <trkpt lat="47.75809" lon="1.96911">
        <ele>123</ele>
        <time>2017-01-22T08:59:26.154Z</time>
      </trkpt>
      <trkpt lat="47.75809" lon="1.96911">
        <ele>123</ele>
        <time>2017-01-22T08:59:27.120Z</time>
      </trkpt>
      <trkpt lat="47.75807" lon="1.96927">
        <ele>123</ele>
        <time>2017-01-22T08:59:28.128Z</time>
      </trkpt>
      <trkpt lat="47.75807" lon="1.96927">
        <ele>123</ele>
        <time>2017-01-22T08:59:29.153Z</time>
      </trkpt>
      <trkpt lat="47.75804" lon="1.96943">
        <ele>123</ele>
        <time>2017-01-22T08:59:30.136Z</time>
      </trkpt>
      <trkpt lat="47.75804" lon="1.96943">
        <ele>123</ele>
        <time>2017-01-22T08:59:31.142Z</time>
      </trkpt>
      <trkpt lat="47.75803" lon="1.96959">
        <ele>123</ele>
        <time>2017-01-22T08:59:32.149Z</time>
      </trkpt>
      <trkpt lat="47.75803" lon="1.96959">
        <ele>123</ele>
        <time>2017-01-22T08:59:33.155Z</time>
      </trkpt>
      <trkpt lat="47.758" lon="1.96974">
        <ele>123</ele>
        <time>2017-01-22T08:59:34.144Z</time>
      </trkpt>
      <trkpt lat="47.758" lon="1.96974">
        <ele>123</ele>
        <time>2017-01-22T08:59:35.150Z</time>
      </trkpt>
      <trkpt lat="47.75797" lon="1.96991">
        <ele>123</ele>
        <time>2017-01-22T08:59:36.156Z</time>
      </trkpt>
      <trkpt lat="47.75797" lon="1.96991">
        <ele>123</ele>
        <time>2017-01-22T08:59:37.147Z</time>
      </trkpt>
      <trkpt lat="47.75794" lon="1.97007">
        <ele>124</ele>
        <time>2017-01-22T08:59:38.136Z</time>
      </trkpt>
      <trkpt lat="47.75794" lon="1.97007">
        <ele>124</ele>
        <time>2017-01-22T08:59:39.142Z</time>
      </trkpt>
      <trkpt lat="47.75792" lon="1.97023">
        <ele>124</ele>
        <time>2017-01-22T08:59:40.156Z</time>
      </trkpt>
      <trkpt lat="47.75792" lon="1.97023">
        <ele>124</ele>
        <time>2017-01-22T08:59:41.147Z</time>
      </trkpt>
      <trkpt lat="47.75789" lon="1.97039">
        <ele>124</ele>
        <time>2017-01-22T08:59:42.142Z</time>
      </trkpt>
      <trkpt lat="47.75789" lon="1.97039">
        <ele>124</ele>
        <time>2017-01-22T08:59:43.150Z</time>
      </trkpt>
      <trkpt lat="47.75786" lon="1.97055">
        <ele>124</ele>
        <time>2017-01-22T08:59:44.156Z</time>
      </trkpt>
      <trkpt lat="47.75786" lon="1.97055">
        <ele>124</ele>
        <time>2017-01-22T08:59:45.122Z</time>
      </trkpt>
      <trkpt lat="47.75784" lon="1.97072">
        <ele>124</ele>
        <time>2017-01-22T08:59:46.152Z</time>
      </trkpt>
      <trkpt lat="47.75784" lon="1.97072">
        <ele>124</ele>
        <time>2017-01-22T08:59:47.130Z</time>
      </trkpt>
      <trkpt lat="47.75781" lon="1.97088">
        <ele>124</ele>
        <time>2017-01-22T08:59:48.143Z</time>
      </trkpt>
      <trkpt lat="47.75781" lon="1.97088">
        <ele>124</ele>
        <time>2017-01-22T08:59:49.149Z</time>
      </trkpt>
      <trkpt lat="47.75778" lon="1.97105">
        <ele>124</ele>
        <time>2017-01-22T08:59:50.152Z</time>
      </trkpt>
      <trkpt lat="47.75778" lon="1.97105">
        <ele>124</ele>
        <time>2017-01-22T08:59:51.118Z</time>
      </trkpt>
      <trkpt lat="47.75776" lon="1.97122">
        <ele>124</ele>
        <time>2017-01-22T08:59:52.125Z</time>
      </trkpt>
      <trkpt lat="47.75774" lon="1.97131">
        <ele>124</ele>
        <time>2017-01-22T08:59:53.146Z</time>
      </trkpt>
      <trkpt lat="47.75773" lon="1.9714">
        <ele>124</ele>
        <time>2017-01-22T08:59:54.122Z</time>
      </trkpt>
      <trkpt lat="47.75773" lon="1.9714">
        <ele>124</ele>
        <time>2017-01-22T08:59:55.128Z</time>
      </trkpt>
      <trkpt lat="47.75769" lon="1.97157">
        <ele>124</ele>
        <time>2017-01-22T08:59:56.134Z</time>
      </trkpt>
      <trkpt lat="47.75768" lon="1.97165">
        <ele>124</ele>
        <time>2017-01-22T08:59:57.134Z</time>
      </trkpt>
      <trkpt lat="47.75768" lon="1.97165">
        <ele>124</ele>
        <time>2017-01-22T08:59:58.141Z</time>
      </trkpt>
      <trkpt lat="47.75765" lon="1.97182">
        <ele>124</ele>
        <time>2017-01-22T08:59:59.152Z</time>
      </trkpt>
      <trkpt lat="47.75764" lon="1.9719">
        <ele>124</ele>
        <time>2017-01-22T09:00:00.123Z</time>
      </trkpt>
      <trkpt lat="47.75764" lon="1.9719">
        <ele>124</ele>
        <time>2017-01-22T09:00:01.128Z</time>
      </trkpt>
      <trkpt lat="47.75768" lon="1.97204">
        <ele>124</ele>
        <time>2017-01-22T09:00:02.134Z</time>
      </trkpt>
      <trkpt lat="47.75772" lon="1.97208">
        <ele>125</ele>
        <time>2017-01-22T09:00:03.123Z</time>
      </trkpt>
      <trkpt lat="47.75772" lon="1.97208">
        <ele>125</ele>
        <time>2017-01-22T09:00:04.144Z</time>
      </trkpt>
      <trkpt lat="47.75782" lon="1.97212">
        <ele>126</ele>
        <time>2017-01-22T09:00:05.153Z</time>
      </trkpt>
      <trkpt lat="47.75787" lon="1.97213">
        <ele>126</ele>
        <time>2017-01-22T09:00:06.125Z</time>
      </trkpt>
      <trkpt lat="47.75787" lon="1.97213">
        <ele>126</ele>
        <time>2017-01-22T09:00:07.130Z</time>
      </trkpt>
      <trkpt lat="47.75799" lon="1.97215">
        <ele>127</ele>
        <time>2017-01-22T09:00:08.145Z</time>
      </trkpt>
      <trkpt lat="47.75799" lon="1.97215">
        <ele>127</ele>
        <time>2017-01-22T09:00:09.152Z</time>
      </trkpt>
      <trkpt lat="47.7581" lon="1.97218">
        <ele>127</ele>
        <time>2017-01-22T09:00:10.140Z</time>
      </trkpt>
      <trkpt lat="47.7581" lon="1.97218">
        <ele>127</ele>
        <time>2017-01-22T09:00:11.146Z</time>
      </trkpt>
      <trkpt lat="47.7582" lon="1.97221">
        <ele>127</ele>
        <time>2017-01-22T09:00:12.152Z</time>
      </trkpt>
      <trkpt lat="47.7582" lon="1.97221">
        <ele>127</ele>
        <time>2017-01-22T09:00:13.118Z</time>
      </trkpt>
      <trkpt lat="47.75831" lon="1.97224">
        <ele>127</ele>
        <time>2017-01-22T09:00:14.151Z</time>
      </trkpt>
      <trkpt lat="47.75836" lon="1.97225">
        <ele>128</ele>
        <time>2017-01-22T09:00:15.118Z</time>
      </trkpt>
      <trkpt lat="47.75836" lon="1.97225">
        <ele>128</ele>
        <time>2017-01-22T09:00:16.124Z</time>
      </trkpt>
      <trkpt lat="47.75847" lon="1.97227">
        <ele>127</ele>
        <time>2017-01-22T09:00:17.121Z</time>
      </trkpt>
      <trkpt lat="47.75853" lon="1.97228">
        <ele>128</ele>
        <time>2017-01-22T09:00:18.154Z</time>
      </trkpt>
      <trkpt lat="47.75853" lon="1.97228">
        <ele>128</ele>
        <time>2017-01-22T09:00:19.128Z</time>
      </trkpt>
      <trkpt lat="47.75864" lon="1.97231">
        <ele>128</ele>
        <time>2017-01-22T09:00:20.136Z</time>
      </trkpt>
      <trkpt lat="47.75864" lon="1.97231">
        <ele>128</ele>
        <time>2017-01-22T09:00:21.126Z</time>
      </trkpt>
      <trkpt lat="47.75875" lon="1.97233">
        <ele>129</ele>
        <time>2017-01-22T09:00:22.119Z</time>
      </trkpt>
      <trkpt lat="47.75875" lon="1.97233">
        <ele>129</ele>
        <time>2017-01-22T09:00:23.125Z</time>
      </trkpt>
      <trkpt lat="47.75886" lon="1.97236">
        <ele>129</ele>
        <time>2017-01-22T09:00:24.132Z</time>
      </trkpt>
      <trkpt lat="47.75886" lon="1.97236">
        <ele>129</ele>
        <time>2017-01-22T09:00:25.138Z</time>
      </trkpt>
      <trkpt lat="47.75896" lon="1.97239">
        <ele>130</ele>
        <time>2017-01-22T09:00:26.155Z</time>
      </trkpt>
      <trkpt lat="47.75896" lon="1.97239">
        <ele>130</ele>
        <time>2017-01-22T09:00:27.121Z</time>
      </trkpt>
      <trkpt lat="47.75906" lon="1.97242">
        <ele>130</ele>
        <time>2017-01-22T09:00:28.128Z</time>
      </trkpt>
      <trkpt lat="47.75911" lon="1.97243">
        <ele>131</ele>
        <time>2017-01-22T09:00:29.118Z</time>
      </trkpt>
      <trkpt lat="47.75917" lon="1.97245">
        <ele>131</ele>
        <time>2017-01-22T09:00:30.124Z</time>
      </trkpt>
      <trkpt lat="47.75917" lon="1.97245">
        <ele>131</ele>
        <time>2017-01-22T09:00:31.130Z</time>
      </trkpt>
      <trkpt lat="47.75927" lon="1.97247">
        <ele>131</ele>
        <time>2017-01-22T09:00:32.154Z</time>
      </trkpt>
      <trkpt lat="47.75927" lon="1.97247">
        <ele>131</ele>
        <time>2017-01-22T09:00:33.119Z</time>
      </trkpt>
      <trkpt lat="47.75937" lon="1.9725">
        <ele>131</ele>
        <time>2017-01-22T09:00:34.126Z</time>
      </trkpt>
      <trkpt lat="47.75937" lon="1.9725">
        <ele>131</ele>
        <time>2017-01-22T09:00:35.132Z</time>
      </trkpt>
      <trkpt lat="47.75947" lon="1.97253">
        <ele>131</ele>
        <time>2017-01-22T09:00:36.155Z</time>
      </trkpt>
      <trkpt lat="47.75947" lon="1.97253">
        <ele>131</ele>
        <time>2017-01-22T09:00:37.120Z</time>
      </trkpt>
      <trkpt lat="47.75958" lon="1.97255">
        <ele>131</ele>
        <time>2017-01-22T09:00:38.130Z</time>
      </trkpt>
      <trkpt lat="47.75958" lon="1.97255">
        <ele>131</ele>
        <time>2017-01-22T09:00:39.139Z</time>
      </trkpt>
      <trkpt lat="47.75967" lon="1.97258">
        <ele>132</ele>
        <time>2017-01-22T09:00:40.124Z</time>
      </trkpt>
      <trkpt lat="47.75967" lon="1.97258">
        <ele>132</ele>
        <time>2017-01-22T09:00:41.129Z</time>
      </trkpt>
      <trkpt lat="47.75977" lon="1.97261">
        <ele>132</ele>
        <time>2017-01-22T09:00:42.136Z</time>
      </trkpt>
      <trkpt lat="47.75977" lon="1.97261">
        <ele>132</ele>
        <time>2017-01-22T09:00:43.143Z</time>
      </trkpt>
      <trkpt lat="47.75987" lon="1.97264">
        <ele>133</ele>
        <time>2017-01-22T09:00:44.146Z</time>
      </trkpt>
      <trkpt lat="47.75987" lon="1.97264">
        <ele>133</ele>
        <time>2017-01-22T09:00:45.152Z</time>
      </trkpt>
      <trkpt lat="47.75998" lon="1.97267">
        <ele>133</ele>
        <time>2017-01-22T09:00:46.124Z</time>
      </trkpt>
      <trkpt lat="47.76003" lon="1.97268">
        <ele>134</ele>
        <time>2017-01-22T09:00:47.122Z</time>
      </trkpt>
      <trkpt lat="47.76003" lon="1.97268">
        <ele>134</ele>
        <time>2017-01-22T09:00:48.129Z</time>
      </trkpt>
      <trkpt lat="47.76014" lon="1.97271">
        <ele>135</ele>
        <time>2017-01-22T09:00:49.142Z</time>
      </trkpt>
      <trkpt lat="47.7602" lon="1.97273">
        <ele>135</ele>
        <time>2017-01-22T09:00:50.132Z</time>
      </trkpt>
      <trkpt lat="47.7602" lon="1.97273">
        <ele>135</ele>
        <time>2017-01-22T09:00:51.143Z</time>
      </trkpt>
      <trkpt lat="47.76031" lon="1.97276">
        <ele>135</ele>
        <time>2017-01-22T09:00:52.149Z</time>
      </trkpt>
      <trkpt lat="47.76031" lon="1.97276">
        <ele>135</ele>
        <time>2017-01-22T09:00:53.155Z</time>
      </trkpt>
      <trkpt lat="47.76042" lon="1.97279">
        <ele>136</ele>
        <time>2017-01-22T09:00:54.144Z</time>
      </trkpt>
      <trkpt lat="47.76042" lon="1.97279">
        <ele>136</ele>
        <time>2017-01-22T09:00:55.150Z</time>
      </trkpt>
      <trkpt lat="47.76052" lon="1.97281">
        <ele>137</ele>
        <time>2017-01-22T09:00:56.156Z</time>
      </trkpt>
      <trkpt lat="47.76052" lon="1.97281">
        <ele>137</ele>
        <time>2017-01-22T09:00:57.155Z</time>
      </trkpt>
      <trkpt lat="47.76063" lon="1.97283">
        <ele>138</ele>
        <time>2017-01-22T09:00:58.145Z</time>
      </trkpt>
      <trkpt lat="47.76063" lon="1.97283">
        <ele>138</ele>
        <time>2017-01-22T09:00:59.119Z</time>
      </trkpt>
      <trkpt lat="47.76073" lon="1.97286">
        <ele>139</ele>
        <time>2017-01-22T09:01:00.135Z</time>
      </trkpt>
      <trkpt lat="47.76073" lon="1.97286">
        <ele>139</ele>
        <time>2017-01-22T09:01:01.121Z</time>
      </trkpt>
      <trkpt lat="47.76083" lon="1.97289">
        <ele>140</ele>
        <time>2017-01-22T09:01:02.134Z</time>
      </trkpt>
      <trkpt lat="47.76083" lon="1.97289">
        <ele>140</ele>
        <time>2017-01-22T09:01:03.140Z</time>
      </trkpt>
      <trkpt lat="47.76095" lon="1.97294">
        <ele>139</ele>
        <time>2017-01-22T09:01:04.155Z</time>
      </trkpt>
      <trkpt lat="47.761" lon="1.97295">
        <ele>139</ele>
        <time>2017-01-22T09:01:05.124Z</time>
      </trkpt>
      <trkpt lat="47.76105" lon="1.97296">
        <ele>139</ele>
        <time>2017-01-22T09:01:06.131Z</time>
      </trkpt>
      <trkpt lat="47.76105" lon="1.97296">
        <ele>139</ele>
        <time>2017-01-22T09:01:07.137Z</time>
      </trkpt>
      <trkpt lat="47.76117" lon="1.97299">
        <ele>138</ele>
        <time>2017-01-22T09:01:08.148Z</time>
      </trkpt>
      <trkpt lat="47.76117" lon="1.97299">
        <ele>138</ele>
        <time>2017-01-22T09:01:09.154Z</time>
      </trkpt>
      <trkpt lat="47.76128" lon="1.97301">
        <ele>138</ele>
        <time>2017-01-22T09:01:10.154Z</time>
      </trkpt>
      <trkpt lat="47.76128" lon="1.97301">
        <ele>138</ele>
        <time>2017-01-22T09:01:11.120Z</time>
      </trkpt>
      <trkpt lat="47.76139" lon="1.97304">
        <ele>138</ele>
        <time>2017-01-22T09:01:12.127Z</time>
      </trkpt>
      <trkpt lat="47.76139" lon="1.97304">
        <ele>138</ele>
        <time>2017-01-22T09:01:13.133Z</time>
      </trkpt>
      <trkpt lat="47.76149" lon="1.97308">
        <ele>138</ele>
        <time>2017-01-22T09:01:14.156Z</time>
      </trkpt>
      <trkpt lat="47.76155" lon="1.97309">
        <ele>138</ele>
        <time>2017-01-22T09:01:15.132Z</time>
      </trkpt>
      <trkpt lat="47.76155" lon="1.97309">
        <ele>138</ele>
        <time>2017-01-22T09:01:16.138Z</time>
      </trkpt>
      <trkpt lat="47.76166" lon="1.97312">
        <ele>139</ele>
        <time>2017-01-22T09:01:17.122Z</time>
      </trkpt>
      <trkpt lat="47.76171" lon="1.97314">
        <ele>139</ele>
        <time>2017-01-22T09:01:18.137Z</time>
      </trkpt>
      <trkpt lat="47.76171" lon="1.97314">
        <ele>139</ele>
        <time>2017-01-22T09:01:19.142Z</time>
      </trkpt>
      <trkpt lat="47.76182" lon="1.97317">
        <ele>139</ele>
        <time>2017-01-22T09:01:20.144Z</time>
      </trkpt>
      <trkpt lat="47.76187" lon="1.97319">
        <ele>139</ele>
        <time>2017-01-22T09:01:21.154Z</time>
      </trkpt>
      <trkpt lat="47.76194" lon="1.97321">
        <ele>138</ele>
        <time>2017-01-22T09:01:22.126Z</time>
      </trkpt>
      <trkpt lat="47.76194" lon="1.97321">
        <ele>138</ele>
        <time>2017-01-22T09:01:23.131Z</time>
      </trkpt>
      <trkpt lat="47.76205" lon="1.97324">
        <ele>137</ele>
        <time>2017-01-22T09:01:24.138Z</time>
      </trkpt>
      <trkpt lat="47.76205" lon="1.97324">
        <ele>137</ele>
        <time>2017-01-22T09:01:25.148Z</time>
      </trkpt>
      <trkpt lat="47.76217" lon="1.97327">
        <ele>137</ele>
        <time>2017-01-22T09:01:26.134Z</time>
      </trkpt>
      <trkpt lat="47.76217" lon="1.97327">
        <ele>137</ele>
        <time>2017-01-22T09:01:27.143Z</time>
      </trkpt>
      <trkpt lat="47.76228" lon="1.9733">
        <ele>136</ele>
        <time>2017-01-22T09:01:28.150Z</time>
      </trkpt>
      <trkpt lat="47.76228" lon="1.9733">
        <ele>136</ele>
        <time>2017-01-22T09:01:29.157Z</time>
      </trkpt>
      <trkpt lat="47.7624" lon="1.97333">
        <ele>135</ele>
        <time>2017-01-22T09:01:30.151Z</time>
      </trkpt>
      <trkpt lat="47.7624" lon="1.97333">
        <ele>135</ele>
        <time>2017-01-22T09:01:31.157Z</time>
      </trkpt>
      <trkpt lat="47.76252" lon="1.97337">
        <ele>133</ele>
        <time>2017-01-22T09:01:32.123Z</time>
      </trkpt>
      <trkpt lat="47.76252" lon="1.97337">
        <ele>133</ele>
        <time>2017-01-22T09:01:33.129Z</time>
      </trkpt>
      <trkpt lat="47.76263" lon="1.9734">
        <ele>133</ele>
        <time>2017-01-22T09:01:34.124Z</time>
      </trkpt>
      <trkpt lat="47.76263" lon="1.9734">
        <ele>133</ele>
        <time>2017-01-22T09:01:35.130Z</time>
      </trkpt>
      <trkpt lat="47.76275" lon="1.97344">
        <ele>132</ele>
        <time>2017-01-22T09:01:36.136Z</time>
      </trkpt>
      <trkpt lat="47.76275" lon="1.97344">
        <ele>132</ele>
        <time>2017-01-22T09:01:37.126Z</time>
      </trkpt>
      <trkpt lat="47.76286" lon="1.97346">
        <ele>132</ele>
        <time>2017-01-22T09:01:38.147Z</time>
      </trkpt>
      <trkpt lat="47.76291" lon="1.97348">
        <ele>132</ele>
        <time>2017-01-22T09:01:39.125Z</time>
      </trkpt>
      <trkpt lat="47.76291" lon="1.97348">
        <ele>132</ele>
        <time>2017-01-22T09:01:40.131Z</time>
      </trkpt>
      <trkpt lat="47.76302" lon="1.9735">
        <ele>132</ele>
        <time>2017-01-22T09:01:41.154Z</time>
      </trkpt>
      <trkpt lat="47.76302" lon="1.9735">
        <ele>132</ele>
        <time>2017-01-22T09:01:42.120Z</time>
      </trkpt>
      <trkpt lat="47.76312" lon="1.97353">
        <ele>131</ele>
        <time>2017-01-22T09:01:43.127Z</time>
      </trkpt>
      <trkpt lat="47.76318" lon="1.97354">
        <ele>131</ele>
        <time>2017-01-22T09:01:44.156Z</time>
      </trkpt>
      <trkpt lat="47.76323" lon="1.97355">
        <ele>130</ele>
        <time>2017-01-22T09:01:45.122Z</time>
      </trkpt>
      <trkpt lat="47.76323" lon="1.97355">
        <ele>130</ele>
        <time>2017-01-22T09:01:46.128Z</time>
      </trkpt>
      <trkpt lat="47.76334" lon="1.97357">
        <ele>130</ele>
        <time>2017-01-22T09:01:47.143Z</time>
      </trkpt>
      <trkpt lat="47.76339" lon="1.97359">
        <ele>130</ele>
        <time>2017-01-22T09:01:48.132Z</time>
      </trkpt>
      <trkpt lat="47.76339" lon="1.97359">
        <ele>130</ele>
        <time>2017-01-22T09:01:49.140Z</time>
      </trkpt>
      <trkpt lat="47.76349" lon="1.97362">
        <ele>130</ele>
        <time>2017-01-22T09:01:50.148Z</time>
      </trkpt>
      <trkpt lat="47.76354" lon="1.97363">
        <ele>129</ele>
        <time>2017-01-22T09:01:51.131Z</time>
      </trkpt>
      <trkpt lat="47.76354" lon="1.97363">
        <ele>129</ele>
        <time>2017-01-22T09:01:52.141Z</time>
      </trkpt>
      <trkpt lat="47.76365" lon="1.97366">
        <ele>129</ele>
        <time>2017-01-22T09:01:53.148Z</time>
      </trkpt>
      <trkpt lat="47.7637" lon="1.97367">
        <ele>129</ele>
        <time>2017-01-22T09:01:54.124Z</time>
      </trkpt>
      <trkpt lat="47.7637" lon="1.97367">
        <ele>129</ele>
        <time>2017-01-22T09:01:55.130Z</time>
      </trkpt>
      <trkpt lat="47.76381" lon="1.9737">
        <ele>129</ele>
        <time>2017-01-22T09:01:56.148Z</time>
      </trkpt>
      <trkpt lat="47.76386" lon="1.97372">
        <ele>129</ele>
        <time>2017-01-22T09:01:57.155Z</time>
      </trkpt>
      <trkpt lat="47.76386" lon="1.97372">
        <ele>129</ele>
        <time>2017-01-22T09:01:58.121Z</time>
      </trkpt>
      <trkpt lat="47.76397" lon="1.97374">
        <ele>129</ele>
        <time>2017-01-22T09:01:59.144Z</time>
      </trkpt>
      <trkpt lat="47.76402" lon="1.97376">
        <ele>129</ele>
        <time>2017-01-22T09:02:00.125Z</time>
      </trkpt>
      <trkpt lat="47.76402" lon="1.97376">
        <ele>129</ele>
        <time>2017-01-22T09:02:01.130Z</time>
      </trkpt>
      <trkpt lat="47.76414" lon="1.97379">
        <ele>129</ele>
        <time>2017-01-22T09:02:02.154Z</time>
      </trkpt>
      <trkpt lat="47.76414" lon="1.97379">
        <ele>129</ele>
        <time>2017-01-22T09:02:03.120Z</time>
      </trkpt>
      <trkpt lat="47.76425" lon="1.97382">
        <ele>129</ele>
        <time>2017-01-22T09:02:04.130Z</time>
      </trkpt>
      <trkpt lat="47.7643" lon="1.97383">
        <ele>129</ele>
        <time>2017-01-22T09:02:05.118Z</time>
      </trkpt>
      <trkpt lat="47.76435" lon="1.97385">
        <ele>128</ele>
        <time>2017-01-22T09:02:06.139Z</time>
      </trkpt>
      <trkpt lat="47.76435" lon="1.97385">
        <ele>128</ele>
        <time>2017-01-22T09:02:07.145Z</time>
      </trkpt>
      <trkpt lat="47.76446" lon="1.97388">
        <ele>128</ele>
        <time>2017-01-22T09:02:08.130Z</time>
      </trkpt>
      <trkpt lat="47.76446" lon="1.97388">
        <ele>128</ele>
        <time>2017-01-22T09:02:09.140Z</time>
      </trkpt>
      <trkpt lat="47.76457" lon="1.97391">
        <ele>128</ele>
        <time>2017-01-22T09:02:10.123Z</time>
      </trkpt>
      <trkpt lat="47.76457" lon="1.97391">
        <ele>128</ele>
        <time>2017-01-22T09:02:11.145Z</time>
      </trkpt>
      <trkpt lat="47.76469" lon="1.97393">
        <ele>128</ele>
        <time>2017-01-22T09:02:12.153Z</time>
      </trkpt>
      <trkpt lat="47.76469" lon="1.97393">
        <ele>128</ele>
        <time>2017-01-22T09:02:13.119Z</time>
      </trkpt>
      <trkpt lat="47.76481" lon="1.97396">
        <ele>128</ele>
        <time>2017-01-22T09:02:14.126Z</time>
      </trkpt>
      <trkpt lat="47.76486" lon="1.97398">
        <ele>128</ele>
        <time>2017-01-22T09:02:15.145Z</time>
      </trkpt>
      <trkpt lat="47.76486" lon="1.97398">
        <ele>128</ele>
        <time>2017-01-22T09:02:16.151Z</time>
      </trkpt>
      <trkpt lat="47.76497" lon="1.97402">
        <ele>128</ele>
        <time>2017-01-22T09:02:17.158Z</time>
      </trkpt>
      <trkpt lat="47.76502" lon="1.97403">
        <ele>128</ele>
        <time>2017-01-22T09:02:18.144Z</time>
      </trkpt>
      <trkpt lat="47.76502" lon="1.97403">
        <ele>128</ele>
        <time>2017-01-22T09:02:19.151Z</time>
      </trkpt>
      <trkpt lat="47.76512" lon="1.97406">
        <ele>127</ele>
        <time>2017-01-22T09:02:20.118Z</time>
      </trkpt>
      <trkpt lat="47.76512" lon="1.97406">
        <ele>127</ele>
        <time>2017-01-22T09:02:21.123Z</time>
      </trkpt>
      <trkpt lat="47.76522" lon="1.97408">
        <ele>127</ele>
        <time>2017-01-22T09:02:22.156Z</time>
      </trkpt>
      <trkpt lat="47.76522" lon="1.97408">
        <ele>127</ele>
        <time>2017-01-22T09:02:23.122Z</time>
      </trkpt>
      <trkpt lat="47.7653" lon="1.97411">
        <ele>127</ele>
        <time>2017-01-22T09:02:24.127Z</time>
      </trkpt>
      <trkpt lat="47.7653" lon="1.97411">
        <ele>127</ele>
        <time>2017-01-22T09:02:25.151Z</time>
      </trkpt>
      <trkpt lat="47.76537" lon="1.97412">
        <ele>127</ele>
        <time>2017-01-22T09:02:26.144Z</time>
      </trkpt>
      <trkpt lat="47.76537" lon="1.97412">
        <ele>127</ele>
        <time>2017-01-22T09:02:27.151Z</time>
      </trkpt>
      <trkpt lat="47.76542" lon="1.97414">
        <ele>127</ele>
        <time>2017-01-22T09:02:28.118Z</time>
      </trkpt>
      <trkpt lat="47.76542" lon="1.97414">
        <ele>127</ele>
        <time>2017-01-22T09:02:29.123Z</time>
      </trkpt>
      <trkpt lat="47.7655" lon="1.97415">
        <ele>127</ele>
        <time>2017-01-22T09:02:30.151Z</time>
      </trkpt>
      <trkpt lat="47.7655" lon="1.97415">
        <ele>127</ele>
        <time>2017-01-22T09:02:31.157Z</time>
      </trkpt>
      <trkpt lat="47.76557" lon="1.97418">
        <ele>128</ele>
        <time>2017-01-22T09:02:32.124Z</time>
      </trkpt>
      <trkpt lat="47.76557" lon="1.97418">
        <ele>128</ele>
        <time>2017-01-22T09:02:33.129Z</time>
      </trkpt>
      <trkpt lat="47.76565" lon="1.9742">
        <ele>127</ele>
        <time>2017-01-22T09:02:34.118Z</time>
      </trkpt>
      <trkpt lat="47.76565" lon="1.9742">
        <ele>127</ele>
        <time>2017-01-22T09:02:35.124Z</time>
      </trkpt>
      <trkpt lat="47.76573" lon="1.97422">
        <ele>127</ele>
        <time>2017-01-22T09:02:36.130Z</time>
      </trkpt>
      <trkpt lat="47.76573" lon="1.97422">
        <ele>127</ele>
        <time>2017-01-22T09:02:37.135Z</time>
      </trkpt>
      <trkpt lat="47.76582" lon="1.97425">
        <ele>127</ele>
        <time>2017-01-22T09:02:38.146Z</time>
      </trkpt>
      <trkpt lat="47.76587" lon="1.97427">
        <ele>127</ele>
        <time>2017-01-22T09:02:39.153Z</time>
      </trkpt>
      <trkpt lat="47.76592" lon="1.97428">
        <ele>127</ele>
        <time>2017-01-22T09:02:40.144Z</time>
      </trkpt>
      <trkpt lat="47.76592" lon="1.97428">
        <ele>127</ele>
        <time>2017-01-22T09:02:41.150Z</time>
      </trkpt>
      <trkpt lat="47.76601" lon="1.9743">
        <ele>127</ele>
        <time>2017-01-22T09:02:42.156Z</time>
      </trkpt>
      <trkpt lat="47.76601" lon="1.9743">
        <ele>127</ele>
        <time>2017-01-22T09:02:43.122Z</time>
      </trkpt>
      <trkpt lat="47.7661" lon="1.97433">
        <ele>127</ele>
        <time>2017-01-22T09:02:44.144Z</time>
      </trkpt>
      <trkpt lat="47.7661" lon="1.97433">
        <ele>127</ele>
        <time>2017-01-22T09:02:45.119Z</time>
      </trkpt>
      <trkpt lat="47.76619" lon="1.97435">
        <ele>127</ele>
        <time>2017-01-22T09:02:46.132Z</time>
      </trkpt>
      <trkpt lat="47.76619" lon="1.97435">
        <ele>127</ele>
        <time>2017-01-22T09:02:47.156Z</time>
      </trkpt>
      <trkpt lat="47.76629" lon="1.97438">
        <ele>126</ele>
        <time>2017-01-22T09:02:48.144Z</time>
      </trkpt>
      <trkpt lat="47.76629" lon="1.97438">
        <ele>126</ele>
        <time>2017-01-22T09:02:49.151Z</time>
      </trkpt>
      <trkpt lat="47.76639" lon="1.97441">
        <ele>126</ele>
        <time>2017-01-22T09:02:50.118Z</time>
      </trkpt>
      <trkpt lat="47.76644" lon="1.97443">
        <ele>126</ele>
        <time>2017-01-22T09:02:51.157Z</time>
      </trkpt>
      <trkpt lat="47.76644" lon="1.97443">
        <ele>126</ele>
        <time>2017-01-22T09:02:52.131Z</time>
      </trkpt>
      <trkpt lat="47.76654" lon="1.97445">
        <ele>126</ele>
        <time>2017-01-22T09:02:53.143Z</time>
      </trkpt>
      <trkpt lat="47.76654" lon="1.97445">
        <ele>126</ele>
        <time>2017-01-22T09:02:54.150Z</time>
      </trkpt>
      <trkpt lat="47.76665" lon="1.97448">
        <ele>126</ele>
        <time>2017-01-22T09:02:55.136Z</time>
      </trkpt>
      <trkpt lat="47.76665" lon="1.97448">
        <ele>126</ele>
        <time>2017-01-22T09:02:56.142Z</time>
      </trkpt>
      <trkpt lat="47.76675" lon="1.97451">
        <ele>126</ele>
        <time>2017-01-22T09:02:57.149Z</time>
      </trkpt>
      <trkpt lat="47.7668" lon="1.97453">
        <ele>126</ele>
        <time>2017-01-22T09:02:58.138Z</time>
      </trkpt>
      <trkpt lat="47.76686" lon="1.97454">
        <ele>126</ele>
        <time>2017-01-22T09:02:59.151Z</time>
      </trkpt>
      <trkpt lat="47.76686" lon="1.97454">
        <ele>126</ele>
        <time>2017-01-22T09:03:00.157Z</time>
      </trkpt>
      <trkpt lat="47.76696" lon="1.97457">
        <ele>125</ele>
        <time>2017-01-22T09:03:01.124Z</time>
      </trkpt>
      <trkpt lat="47.76696" lon="1.97457">
        <ele>125</ele>
        <time>2017-01-22T09:03:02.129Z</time>
      </trkpt>
      <trkpt lat="47.76707" lon="1.9746">
        <ele>125</ele>
        <time>2017-01-22T09:03:03.131Z</time>
      </trkpt>
      <trkpt lat="47.76707" lon="1.9746">
        <ele>125</ele>
        <time>2017-01-22T09:03:04.147Z</time>
      </trkpt>
      <trkpt lat="47.76718" lon="1.97463">
        <ele>125</ele>
        <time>2017-01-22T09:03:05.129Z</time>
      </trkpt>
      <trkpt lat="47.76723" lon="1.97465">
        <ele>125</ele>
        <time>2017-01-22T09:03:06.151Z</time>
      </trkpt>
      <trkpt lat="47.76723" lon="1.97465">
        <ele>125</ele>
        <time>2017-01-22T09:03:07.120Z</time>
      </trkpt>
      <trkpt lat="47.76734" lon="1.97467">
        <ele>125</ele>
        <time>2017-01-22T09:03:08.129Z</time>
      </trkpt>
      <trkpt lat="47.76739" lon="1.97469">
        <ele>125</ele>
        <time>2017-01-22T09:03:09.131Z</time>
      </trkpt>
      <trkpt lat="47.76739" lon="1.97469">
        <ele>125</ele>
        <time>2017-01-22T09:03:10.143Z</time>
      </trkpt>
      <trkpt lat="47.7675" lon="1.97471">
        <ele>125</ele>
        <time>2017-01-22T09:03:11.151Z</time>
      </trkpt>
      <trkpt lat="47.76755" lon="1.97473">
        <ele>124</ele>
        <time>2017-01-22T09:03:12.123Z</time>
      </trkpt>
      <trkpt lat="47.76755" lon="1.97473">
        <ele>124</ele>
        <time>2017-01-22T09:03:13.129Z</time>
      </trkpt>
      <trkpt lat="47.76765" lon="1.97476">
        <ele>124</ele>
        <time>2017-01-22T09:03:14.135Z</time>
      </trkpt>
      <trkpt lat="47.76765" lon="1.97476">
        <ele>124</ele>
        <time>2017-01-22T09:03:15.142Z</time>
      </trkpt>
      <trkpt lat="47.76776" lon="1.97479">
        <ele>124</ele>
        <time>2017-01-22T09:03:16.144Z</time>
      </trkpt>
      <trkpt lat="47.76776" lon="1.97479">
        <ele>124</ele>
        <time>2017-01-22T09:03:17.149Z</time>
      </trkpt>
      <trkpt lat="47.76787" lon="1.97482">
        <ele>124</ele>
        <time>2017-01-22T09:03:18.157Z</time>
      </trkpt>
      <trkpt lat="47.76787" lon="1.97482">
        <ele>124</ele>
        <time>2017-01-22T09:03:19.130Z</time>
      </trkpt>
      <trkpt lat="47.76798" lon="1.97485">
        <ele>124</ele>
        <time>2017-01-22T09:03:20.145Z</time>
      </trkpt>
      <trkpt lat="47.76798" lon="1.97485">
        <ele>124</ele>
        <time>2017-01-22T09:03:21.151Z</time>
      </trkpt>
      <trkpt lat="47.76808" lon="1.97487">
        <ele>124</ele>
        <time>2017-01-22T09:03:22.120Z</time>
      </trkpt>
      <trkpt lat="47.76808" lon="1.97487">
        <ele>124</ele>
        <time>2017-01-22T09:03:23.124Z</time>
      </trkpt>
      <trkpt lat="47.76819" lon="1.97491">
        <ele>124</ele>
        <time>2017-01-22T09:03:24.146Z</time>
      </trkpt>
      <trkpt lat="47.76819" lon="1.97491">
        <ele>124</ele>
        <time>2017-01-22T09:03:25.152Z</time>
      </trkpt>
      <trkpt lat="47.76829" lon="1.97493">
        <ele>123</ele>
        <time>2017-01-22T09:03:26.118Z</time>
      </trkpt>
      <trkpt lat="47.76829" lon="1.97493">
        <ele>123</ele>
        <time>2017-01-22T09:03:27.150Z</time>
      </trkpt>
      <trkpt lat="47.7684" lon="1.97496">
        <ele>123</ele>
        <time>2017-01-22T09:03:28.135Z</time>
      </trkpt>
      <trkpt lat="47.7684" lon="1.97496">
        <ele>123</ele>
        <time>2017-01-22T09:03:29.152Z</time>
      </trkpt>
      <trkpt lat="47.7685" lon="1.97499">
        <ele>123</ele>
        <time>2017-01-22T09:03:30.124Z</time>
      </trkpt>
      <trkpt lat="47.7685" lon="1.97499">
        <ele>123</ele>
        <time>2017-01-22T09:03:31.155Z</time>
      </trkpt>
      <trkpt lat="47.76861" lon="1.97502">
        <ele>123</ele>
        <time>2017-01-22T09:03:32.149Z</time>
      </trkpt>
      <trkpt lat="47.76861" lon="1.97502">
        <ele>123</ele>
        <time>2017-01-22T09:03:33.155Z</time>
      </trkpt>
      <trkpt lat="47.76871" lon="1.97505">
        <ele>123</ele>
        <time>2017-01-22T09:03:34.122Z</time>
      </trkpt>
      <trkpt lat="47.76871" lon="1.97505">
        <ele>123</ele>
        <time>2017-01-22T09:03:35.127Z</time>
      </trkpt>
      <trkpt lat="47.76882" lon="1.97508">
        <ele>122</ele>
        <time>2017-01-22T09:03:36.151Z</time>
      </trkpt>
      <trkpt lat="47.76882" lon="1.97508">
        <ele>122</ele>
        <time>2017-01-22T09:03:37.157Z</time>
      </trkpt>
      <trkpt lat="47.76893" lon="1.97511">
        <ele>122</ele>
        <time>2017-01-22T09:03:38.123Z</time>
      </trkpt>
      <trkpt lat="47.76899" lon="1.97512">
        <ele>122</ele>
        <time>2017-01-22T09:03:39.156Z</time>
      </trkpt>
      <trkpt lat="47.76899" lon="1.97512">
        <ele>122</ele>
        <time>2017-01-22T09:03:40.122Z</time>
      </trkpt>
      <trkpt lat="47.76909" lon="1.97515">
        <ele>122</ele>
        <time>2017-01-22T09:03:41.129Z</time>
      </trkpt>
      <trkpt lat="47.76909" lon="1.97515">
        <ele>122</ele>
        <time>2017-01-22T09:03:42.134Z</time>
      </trkpt>
      <trkpt lat="47.7692" lon="1.97517">
        <ele>122</ele>
        <time>2017-01-22T09:03:43.149Z</time>
      </trkpt>
      <trkpt lat="47.7692" lon="1.97517">
        <ele>122</ele>
        <time>2017-01-22T09:03:44.156Z</time>
      </trkpt>
      <trkpt lat="47.76931" lon="1.97521">
        <ele>122</ele>
        <time>2017-01-22T09:03:45.124Z</time>
      </trkpt>
      <trkpt lat="47.76931" lon="1.97521">
        <ele>122</ele>
        <time>2017-01-22T09:03:46.120Z</time>
      </trkpt>
      <trkpt lat="47.76942" lon="1.97524">
        <ele>121</ele>
        <time>2017-01-22T09:03:47.154Z</time>
      </trkpt>
      <trkpt lat="47.76948" lon="1.97525">
        <ele>121</ele>
        <time>2017-01-22T09:03:48.121Z</time>
      </trkpt>
      <trkpt lat="47.76948" lon="1.97525">
        <ele>121</ele>
        <time>2017-01-22T09:03:49.128Z</time>
      </trkpt>
      <trkpt lat="47.76958" lon="1.97529">
        <ele>121</ele>
        <time>2017-01-22T09:03:50.134Z</time>
      </trkpt>
      <trkpt lat="47.76958" lon="1.97529">
        <ele>121</ele>
        <time>2017-01-22T09:03:51.140Z</time>
      </trkpt>
      <trkpt lat="47.76969" lon="1.97532">
        <ele>121</ele>
        <time>2017-01-22T09:03:52.120Z</time>
      </trkpt>
      <trkpt lat="47.76969" lon="1.97532">
        <ele>121</ele>
        <time>2017-01-22T09:03:53.125Z</time>
      </trkpt>
      <trkpt lat="47.76981" lon="1.97535">
        <ele>121</ele>
        <time>2017-01-22T09:03:54.146Z</time>
      </trkpt>
      <trkpt lat="47.76981" lon="1.97535">
        <ele>121</ele>
        <time>2017-01-22T09:03:55.152Z</time>
      </trkpt>
      <trkpt lat="47.76991" lon="1.97538">
        <ele>122</ele>
        <time>2017-01-22T09:03:56.125Z</time>
      </trkpt>
      <trkpt lat="47.76991" lon="1.97538">
        <ele>122</ele>
        <time>2017-01-22T09:03:57.130Z</time>
      </trkpt>
      <trkpt lat="47.77002" lon="1.97541">
        <ele>122</ele>
        <time>2017-01-22T09:03:58.141Z</time>
      </trkpt>
      <trkpt lat="47.77002" lon="1.97541">
        <ele>122</ele>
        <time>2017-01-22T09:03:59.149Z</time>
      </trkpt>
      <trkpt lat="47.77013" lon="1.97544">
        <ele>122</ele>
        <time>2017-01-22T09:04:00.122Z</time>
      </trkpt>
      <trkpt lat="47.77013" lon="1.97544">
        <ele>122</ele>
        <time>2017-01-22T09:04:01.128Z</time>
      </trkpt>
      <trkpt lat="47.77025" lon="1.97547">
        <ele>122</ele>
        <time>2017-01-22T09:04:02.135Z</time>
      </trkpt>
      <trkpt lat="47.77025" lon="1.97547">
        <ele>122</ele>
        <time>2017-01-22T09:04:03.141Z</time>
      </trkpt>
      <trkpt lat="47.77035" lon="1.9755">
        <ele>123</ele>
        <time>2017-01-22T09:04:04.125Z</time>
      </trkpt>
      <trkpt lat="47.77035" lon="1.9755">
        <ele>123</ele>
        <time>2017-01-22T09:04:05.132Z</time>
      </trkpt>
      <trkpt lat="47.77046" lon="1.97553">
        <ele>123</ele>
        <time>2017-01-22T09:04:06.149Z</time>
      </trkpt>
      <trkpt lat="47.77046" lon="1.97553">
        <ele>123</ele>
        <time>2017-01-22T09:04:07.155Z</time>
      </trkpt>
      <trkpt lat="47.77058" lon="1.97556">
        <ele>124</ele>
        <time>2017-01-22T09:04:08.140Z</time>
      </trkpt>
      <trkpt lat="47.77058" lon="1.97556">
        <ele>124</ele>
        <time>2017-01-22T09:04:09.147Z</time>
      </trkpt>
      <trkpt lat="47.77068" lon="1.97559">
        <ele>124</ele>
        <time>2017-01-22T09:04:10.133Z</time>
      </trkpt>
      <trkpt lat="47.77068" lon="1.97559">
        <ele>124</ele>
        <time>2017-01-22T09:04:11.125Z</time>
      </trkpt>
      <trkpt lat="47.77079" lon="1.97562">
        <ele>124</ele>
        <time>2017-01-22T09:04:12.147Z</time>
      </trkpt>
      <trkpt lat="47.77079" lon="1.97562">
        <ele>124</ele>
        <time>2017-01-22T09:04:13.155Z</time>
      </trkpt>
      <trkpt lat="47.7709" lon="1.97565">
        <ele>124</ele>
        <time>2017-01-22T09:04:14.122Z</time>
      </trkpt>
      <trkpt lat="47.77096" lon="1.97566">
        <ele>124</ele>
        <time>2017-01-22T09:04:15.145Z</time>
      </trkpt>
      <trkpt lat="47.77096" lon="1.97566">
        <ele>124</ele>
        <time>2017-01-22T09:04:16.151Z</time>
      </trkpt>
      <trkpt lat="47.77106" lon="1.97568">
        <ele>125</ele>
        <time>2017-01-22T09:04:17.126Z</time>
      </trkpt>
      <trkpt lat="47.77106" lon="1.97568">
        <ele>125</ele>
        <time>2017-01-22T09:04:18.131Z</time>
      </trkpt>
      <trkpt lat="47.77117" lon="1.9757">
        <ele>124</ele>
        <time>2017-01-22T09:04:19.123Z</time>
      </trkpt>
      <trkpt lat="47.77117" lon="1.9757">
        <ele>124</ele>
        <time>2017-01-22T09:04:20.129Z</time>
      </trkpt>
      <trkpt lat="47.77127" lon="1.97572">
        <ele>125</ele>
        <time>2017-01-22T09:04:21.150Z</time>
      </trkpt>
      <trkpt lat="47.77131" lon="1.97574">
        <ele>125</ele>
        <time>2017-01-22T09:04:22.124Z</time>
      </trkpt>
      <trkpt lat="47.77136" lon="1.97575">
        <ele>125</ele>
        <time>2017-01-22T09:04:23.129Z</time>
      </trkpt>
      <trkpt lat="47.77136" lon="1.97575">
        <ele>125</ele>
        <time>2017-01-22T09:04:24.135Z</time>
      </trkpt>
      <trkpt lat="47.77144" lon="1.9758">
        <ele>125</ele>
        <time>2017-01-22T09:04:25.154Z</time>
      </trkpt>
      <trkpt lat="47.77144" lon="1.9758">
        <ele>125</ele>
        <time>2017-01-22T09:04:26.120Z</time>
      </trkpt>
      <trkpt lat="47.77153" lon="1.97581">
        <ele>126</ele>
        <time>2017-01-22T09:04:27.127Z</time>
      </trkpt>
      <trkpt lat="47.77153" lon="1.97581">
        <ele>126</ele>
        <time>2017-01-22T09:04:28.132Z</time>
      </trkpt>
      <trkpt lat="47.77158" lon="1.97576">
        <ele>126</ele>
        <time>2017-01-22T09:04:29.142Z</time>
      </trkpt>
      <trkpt lat="47.77161" lon="1.97571">
        <ele>126</ele>
        <time>2017-01-22T09:04:30.152Z</time>
      </trkpt>
      <trkpt lat="47.77161" lon="1.97571">
        <ele>126</ele>
        <time>2017-01-22T09:04:31.119Z</time>
      </trkpt>
      <trkpt lat="47.77168" lon="1.97562">
        <ele>126</ele>
        <time>2017-01-22T09:04:32.144Z</time>
      </trkpt>
      <trkpt lat="47.77168" lon="1.97562">
        <ele>126</ele>
        <time>2017-01-22T09:04:33.150Z</time>
      </trkpt>
      <trkpt lat="47.77175" lon="1.97554">
        <ele>126</ele>
        <time>2017-01-22T09:04:34.155Z</time>
      </trkpt>
      <trkpt lat="47.77178" lon="1.97549">
        <ele>126</ele>
        <time>2017-01-22T09:04:35.134Z</time>
      </trkpt>
      <trkpt lat="47.77178" lon="1.97549">
        <ele>126</ele>
        <time>2017-01-22T09:04:36.145Z</time>
      </trkpt>
      <trkpt lat="47.77185" lon="1.9754">
        <ele>126</ele>
        <time>2017-01-22T09:04:37.156Z</time>
      </trkpt>
      <trkpt lat="47.77189" lon="1.97536">
        <ele>126</ele>
        <time>2017-01-22T09:04:38.138Z</time>
      </trkpt>
      <trkpt lat="47.77193" lon="1.97531">
        <ele>125</ele>
        <time>2017-01-22T09:04:39.147Z</time>
      </trkpt>
      <trkpt lat="47.77197" lon="1.97526">
        <ele>125</ele>
        <time>2017-01-22T09:04:40.153Z</time>
      </trkpt>
      <trkpt lat="47.77197" lon="1.97526">
        <ele>125</ele>
        <time>2017-01-22T09:04:41.119Z</time>
      </trkpt>
      <trkpt lat="47.77204" lon="1.97516">
        <ele>125</ele>
        <time>2017-01-22T09:04:42.126Z</time>
      </trkpt>
      <trkpt lat="47.77204" lon="1.97516">
        <ele>125</ele>
        <time>2017-01-22T09:04:43.132Z</time>
      </trkpt>
      <trkpt lat="47.77212" lon="1.97505">
        <ele>125</ele>
        <time>2017-01-22T09:04:44.134Z</time>
      </trkpt>
      <trkpt lat="47.77212" lon="1.97505">
        <ele>125</ele>
        <time>2017-01-22T09:04:45.140Z</time>
      </trkpt>
      <trkpt lat="47.7722" lon="1.97494">
        <ele>125</ele>
        <time>2017-01-22T09:04:46.147Z</time>
      </trkpt>
      <trkpt lat="47.77223" lon="1.97489">
        <ele>125</ele>
        <time>2017-01-22T09:04:47.122Z</time>
      </trkpt>
      <trkpt lat="47.77223" lon="1.97489">
        <ele>125</ele>
        <time>2017-01-22T09:04:48.129Z</time>
      </trkpt>
      <trkpt lat="47.7723" lon="1.97478">
        <ele>125</ele>
        <time>2017-01-22T09:04:49.150Z</time>
      </trkpt>
      <trkpt lat="47.77234" lon="1.97473">
        <ele>125</ele>
        <time>2017-01-22T09:04:50.154Z</time>
      </trkpt>
      <trkpt lat="47.77234" lon="1.97473">
        <ele>125</ele>
        <time>2017-01-22T09:04:51.120Z</time>
      </trkpt>
      <trkpt lat="47.77241" lon="1.97463">
        <ele>125</ele>
        <time>2017-01-22T09:04:52.127Z</time>
      </trkpt>
      <trkpt lat="47.77241" lon="1.97463">
        <ele>125</ele>
        <time>2017-01-22T09:04:53.132Z</time>
      </trkpt>
      <trkpt lat="47.77249" lon="1.97452">
        <ele>124</ele>
        <time>2017-01-22T09:04:54.125Z</time>
      </trkpt>
      <trkpt lat="47.77249" lon="1.97452">
        <ele>124</ele>
        <time>2017-01-22T09:04:55.131Z</time>
      </trkpt>
      <trkpt lat="47.77257" lon="1.97442">
        <ele>124</ele>
        <time>2017-01-22T09:04:56.137Z</time>
      </trkpt>
      <trkpt lat="47.77257" lon="1.97442">
        <ele>124</ele>
        <time>2017-01-22T09:04:57.143Z</time>
      </trkpt>
      <trkpt lat="47.77265" lon="1.97432">
        <ele>123</ele>
        <time>2017-01-22T09:04:58.144Z</time>
      </trkpt>
      <trkpt lat="47.77265" lon="1.97432">
        <ele>123</ele>
        <time>2017-01-22T09:04:59.149Z</time>
      </trkpt>
      <trkpt lat="47.77271" lon="1.97422">
        <ele>123</ele>
        <time>2017-01-22T09:05:00.124Z</time>
      </trkpt>
      <trkpt lat="47.77275" lon="1.97417">
        <ele>123</ele>
        <time>2017-01-22T09:05:01.122Z</time>
      </trkpt>
      <trkpt lat="47.77275" lon="1.97417">
        <ele>123</ele>
        <time>2017-01-22T09:05:02.129Z</time>
      </trkpt>
      <trkpt lat="47.77282" lon="1.97407">
        <ele>123</ele>
        <time>2017-01-22T09:05:03.140Z</time>
      </trkpt>
      <trkpt lat="47.77282" lon="1.97407">
        <ele>123</ele>
        <time>2017-01-22T09:05:04.119Z</time>
      </trkpt>
      <trkpt lat="47.7729" lon="1.97396">
        <ele>123</ele>
        <time>2017-01-22T09:05:05.154Z</time>
      </trkpt>
      <trkpt lat="47.77295" lon="1.97391">
        <ele>123</ele>
        <time>2017-01-22T09:05:06.121Z</time>
      </trkpt>
      <trkpt lat="47.77295" lon="1.97391">
        <ele>123</ele>
        <time>2017-01-22T09:05:07.127Z</time>
      </trkpt>
      <trkpt lat="47.77302" lon="1.9738">
        <ele>123</ele>
        <time>2017-01-22T09:05:08.141Z</time>
      </trkpt>
      <trkpt lat="47.77306" lon="1.97375">
        <ele>123</ele>
        <time>2017-01-22T09:05:09.129Z</time>
      </trkpt>
      <trkpt lat="47.77306" lon="1.97375">
        <ele>123</ele>
        <time>2017-01-22T09:05:10.134Z</time>
      </trkpt>
      <trkpt lat="47.77314" lon="1.97364">
        <ele>123</ele>
        <time>2017-01-22T09:05:11.143Z</time>
      </trkpt>
      <trkpt lat="47.77314" lon="1.97364">
        <ele>123</ele>
        <time>2017-01-22T09:05:12.150Z</time>
      </trkpt>
      <trkpt lat="47.77324" lon="1.97353">
        <ele>123</ele>
        <time>2017-01-22T09:05:13.130Z</time>
      </trkpt>
      <trkpt lat="47.77324" lon="1.97353">
        <ele>123</ele>
        <time>2017-01-22T09:05:14.137Z</time>
      </trkpt>
      <trkpt lat="47.77331" lon="1.97342">
        <ele>122</ele>
        <time>2017-01-22T09:05:15.145Z</time>
      </trkpt>
      <trkpt lat="47.77331" lon="1.97342">
        <ele>122</ele>
        <time>2017-01-22T09:05:16.151Z</time>
      </trkpt>
      <trkpt lat="47.77338" lon="1.97332">
        <ele>122</ele>
        <time>2017-01-22T09:05:17.133Z</time>
      </trkpt>
      <trkpt lat="47.77338" lon="1.97332">
        <ele>122</ele>
        <time>2017-01-22T09:05:18.142Z</time>
      </trkpt>
      <trkpt lat="47.77345" lon="1.97322">
        <ele>122</ele>
        <time>2017-01-22T09:05:19.125Z</time>
      </trkpt>
      <trkpt lat="47.77345" lon="1.97322">
        <ele>122</ele>
        <time>2017-01-22T09:05:20.130Z</time>
      </trkpt>
      <trkpt lat="47.77354" lon="1.97312">
        <ele>122</ele>
        <time>2017-01-22T09:05:21.156Z</time>
      </trkpt>
      <trkpt lat="47.77354" lon="1.97312">
        <ele>122</ele>
        <time>2017-01-22T09:05:22.122Z</time>
      </trkpt>
      <trkpt lat="47.77363" lon="1.97301">
        <ele>122</ele>
        <time>2017-01-22T09:05:23.138Z</time>
      </trkpt>
      <trkpt lat="47.77366" lon="1.97296">
        <ele>121</ele>
        <time>2017-01-22T09:05:24.151Z</time>
      </trkpt>
      <trkpt lat="47.77366" lon="1.97296">
        <ele>121</ele>
        <time>2017-01-22T09:05:25.158Z</time>
      </trkpt>
      <trkpt lat="47.77374" lon="1.97287">
        <ele>121</ele>
        <time>2017-01-22T09:05:26.124Z</time>
      </trkpt>
      <trkpt lat="47.77374" lon="1.97287">
        <ele>121</ele>
        <time>2017-01-22T09:05:27.152Z</time>
      </trkpt>
      <trkpt lat="47.77381" lon="1.97277">
        <ele>121</ele>
        <time>2017-01-22T09:05:28.154Z</time>
      </trkpt>
      <trkpt lat="47.77381" lon="1.97277">
        <ele>121</ele>
        <time>2017-01-22T09:05:29.121Z</time>
      </trkpt>
      <trkpt lat="47.77389" lon="1.97268">
        <ele>120</ele>
        <time>2017-01-22T09:05:30.127Z</time>
      </trkpt>
      <trkpt lat="47.77389" lon="1.97268">
        <ele>120</ele>
        <time>2017-01-22T09:05:31.134Z</time>
      </trkpt>
      <trkpt lat="47.77396" lon="1.97258">
        <ele>120</ele>
        <time>2017-01-22T09:05:32.151Z</time>
      </trkpt>
      <trkpt lat="47.77396" lon="1.97258">
        <ele>120</ele>
        <time>2017-01-22T09:05:33.158Z</time>
      </trkpt>
      <trkpt lat="47.77403" lon="1.97247">
        <ele>120</ele>
        <time>2017-01-22T09:05:34.134Z</time>
      </trkpt>
      <trkpt lat="47.77403" lon="1.97247">
        <ele>120</ele>
        <time>2017-01-22T09:05:35.124Z</time>
      </trkpt>
      <trkpt lat="47.77411" lon="1.97238">
        <ele>120</ele>
        <time>2017-01-22T09:05:36.153Z</time>
      </trkpt>
      <trkpt lat="47.77411" lon="1.97238">
        <ele>120</ele>
        <time>2017-01-22T09:05:37.128Z</time>
      </trkpt>
      <trkpt lat="47.77418" lon="1.97228">
        <ele>120</ele>
        <time>2017-01-22T09:05:38.135Z</time>
      </trkpt>
      <trkpt lat="47.77422" lon="1.97222">
        <ele>120</ele>
        <time>2017-01-22T09:05:39.129Z</time>
      </trkpt>
      <trkpt lat="47.77422" lon="1.97222">
        <ele>120</ele>
        <time>2017-01-22T09:05:40.157Z</time>
      </trkpt>
      <trkpt lat="47.77429" lon="1.97212">
        <ele>120</ele>
        <time>2017-01-22T09:05:41.140Z</time>
      </trkpt>
      <trkpt lat="47.77429" lon="1.97212">
        <ele>120</ele>
        <time>2017-01-22T09:05:42.149Z</time>
      </trkpt>
      <trkpt lat="47.77436" lon="1.97202">
        <ele>119</ele>
        <time>2017-01-22T09:05:43.126Z</time>
      </trkpt>
      <trkpt lat="47.77436" lon="1.97202">
        <ele>119</ele>
        <time>2017-01-22T09:05:44.131Z</time>
      </trkpt>
      <trkpt lat="47.77443" lon="1.97191">
        <ele>119</ele>
        <time>2017-01-22T09:05:45.148Z</time>
      </trkpt>
      <trkpt lat="47.77443" lon="1.97191">
        <ele>119</ele>
        <time>2017-01-22T09:05:46.153Z</time>
      </trkpt>
      <trkpt lat="47.7745" lon="1.97181">
        <ele>119</ele>
        <time>2017-01-22T09:05:47.120Z</time>
      </trkpt>
      <trkpt lat="47.77454" lon="1.97175">
        <ele>119</ele>
        <time>2017-01-22T09:05:48.144Z</time>
      </trkpt>
      <trkpt lat="47.77454" lon="1.97175">
        <ele>119</ele>
        <time>2017-01-22T09:05:49.150Z</time>
      </trkpt>
      <trkpt lat="47.77461" lon="1.97165">
        <ele>120</ele>
        <time>2017-01-22T09:05:50.157Z</time>
      </trkpt>
      <trkpt lat="47.77465" lon="1.97159">
        <ele>119</ele>
        <time>2017-01-22T09:05:51.144Z</time>
      </trkpt>
      <trkpt lat="47.77469" lon="1.97154">
        <ele>119</ele>
        <time>2017-01-22T09:05:52.154Z</time>
      </trkpt>
      <trkpt lat="47.77469" lon="1.97154">
        <ele>119</ele>
        <time>2017-01-22T09:05:53.121Z</time>
      </trkpt>
      <trkpt lat="47.77477" lon="1.97143">
        <ele>119</ele>
        <time>2017-01-22T09:05:54.148Z</time>
      </trkpt>
      <trkpt lat="47.77481" lon="1.97137">
        <ele>118</ele>
        <time>2017-01-22T09:05:55.155Z</time>
      </trkpt>
      <trkpt lat="47.77481" lon="1.97137">
        <ele>118</ele>
        <time>2017-01-22T09:05:56.121Z</time>
      </trkpt>
      <trkpt lat="47.77488" lon="1.97126">
        <ele>119</ele>
        <time>2017-01-22T09:05:57.145Z</time>
      </trkpt>
      <trkpt lat="47.77491" lon="1.97121">
        <ele>119</ele>
        <time>2017-01-22T09:05:58.150Z</time>
      </trkpt>
      <trkpt lat="47.77491" lon="1.97121">
        <ele>119</ele>
        <time>2017-01-22T09:05:59.155Z</time>
      </trkpt>
      <trkpt lat="47.77499" lon="1.9711">
        <ele>119</ele>
        <time>2017-01-22T09:06:00.139Z</time>
      </trkpt>
      <trkpt lat="47.77503" lon="1.97104">
        <ele>119</ele>
        <time>2017-01-22T09:06:01.145Z</time>
      </trkpt>
      <trkpt lat="47.77503" lon="1.97104">
        <ele>119</ele>
        <time>2017-01-22T09:06:02.151Z</time>
      </trkpt>
      <trkpt lat="47.77511" lon="1.97094">
        <ele>119</ele>
        <time>2017-01-22T09:06:03.132Z</time>
      </trkpt>
      <trkpt lat="47.77511" lon="1.97094">
        <ele>119</ele>
        <time>2017-01-22T09:06:04.120Z</time>
      </trkpt>
      <trkpt lat="47.77518" lon="1.97084">
        <ele>119</ele>
        <time>2017-01-22T09:06:05.129Z</time>
      </trkpt>
      <trkpt lat="47.77521" lon="1.97079">
        <ele>119</ele>
        <time>2017-01-22T09:06:06.135Z</time>
      </trkpt>
      <trkpt lat="47.77521" lon="1.97079">
        <ele>119</ele>
        <time>2017-01-22T09:06:07.143Z</time>
      </trkpt>
      <trkpt lat="47.77527" lon="1.97072">
        <ele>119</ele>
        <time>2017-01-22T09:06:08.122Z</time>
      </trkpt>
      <trkpt lat="47.77527" lon="1.97072">
        <ele>119</ele>
        <time>2017-01-22T09:06:09.129Z</time>
      </trkpt>
      <trkpt lat="47.77533" lon="1.97061">
        <ele>119</ele>
        <time>2017-01-22T09:06:10.136Z</time>
      </trkpt>
      <trkpt lat="47.77533" lon="1.97061">
        <ele>119</ele>
        <time>2017-01-22T09:06:11.125Z</time>
      </trkpt>
      <trkpt lat="47.7754" lon="1.97052">
        <ele>119</ele>
        <time>2017-01-22T09:06:12.155Z</time>
      </trkpt>
      <trkpt lat="47.7754" lon="1.97052">
        <ele>119</ele>
        <time>2017-01-22T09:06:13.121Z</time>
      </trkpt>
      <trkpt lat="47.77548" lon="1.97041">
        <ele>119</ele>
        <time>2017-01-22T09:06:14.127Z</time>
      </trkpt>
      <trkpt lat="47.77552" lon="1.97035">
        <ele>120</ele>
        <time>2017-01-22T09:06:15.119Z</time>
      </trkpt>
      <trkpt lat="47.77552" lon="1.97035">
        <ele>120</ele>
        <time>2017-01-22T09:06:16.124Z</time>
      </trkpt>
      <trkpt lat="47.7756" lon="1.97023">
        <ele>120</ele>
        <time>2017-01-22T09:06:17.131Z</time>
      </trkpt>
      <trkpt lat="47.77563" lon="1.97018">
        <ele>120</ele>
        <time>2017-01-22T09:06:18.154Z</time>
      </trkpt>
      <trkpt lat="47.77563" lon="1.97018">
        <ele>120</ele>
        <time>2017-01-22T09:06:19.119Z</time>
      </trkpt>
      <trkpt lat="47.77571" lon="1.97008">
        <ele>120</ele>
        <time>2017-01-22T09:06:20.134Z</time>
      </trkpt>
      <trkpt lat="47.77574" lon="1.97003">
        <ele>120</ele>
        <time>2017-01-22T09:06:21.140Z</time>
      </trkpt>
      <trkpt lat="47.77577" lon="1.96999">
        <ele>120</ele>
        <time>2017-01-22T09:06:22.119Z</time>
      </trkpt>
      <trkpt lat="47.77577" lon="1.96999">
        <ele>120</ele>
        <time>2017-01-22T09:06:23.124Z</time>
      </trkpt>
      <trkpt lat="47.77585" lon="1.9699">
        <ele>120</ele>
        <time>2017-01-22T09:06:24.141Z</time>
      </trkpt>
      <trkpt lat="47.77585" lon="1.9699">
        <ele>120</ele>
        <time>2017-01-22T09:06:25.147Z</time>
      </trkpt>
      <trkpt lat="47.77593" lon="1.96981">
        <ele>120</ele>
        <time>2017-01-22T09:06:26.154Z</time>
      </trkpt>
      <trkpt lat="47.77596" lon="1.96977">
        <ele>120</ele>
        <time>2017-01-22T09:06:27.149Z</time>
      </trkpt>
      <trkpt lat="47.77596" lon="1.96977">
        <ele>120</ele>
        <time>2017-01-22T09:06:28.155Z</time>
      </trkpt>
      <trkpt lat="47.77604" lon="1.96969">
        <ele>120</ele>
        <time>2017-01-22T09:06:29.127Z</time>
      </trkpt>
      <trkpt lat="47.77608" lon="1.96966">
        <ele>120</ele>
        <time>2017-01-22T09:06:30.118Z</time>
      </trkpt>
      <trkpt lat="47.77608" lon="1.96966">
        <ele>120</ele>
        <time>2017-01-22T09:06:31.124Z</time>
      </trkpt>
      <trkpt lat="47.77616" lon="1.96959">
        <ele>120</ele>
        <time>2017-01-22T09:06:32.130Z</time>
      </trkpt>
      <trkpt lat="47.77616" lon="1.96959">
        <ele>120</ele>
        <time>2017-01-22T09:06:33.135Z</time>
      </trkpt>
      <trkpt lat="47.77624" lon="1.96952">
        <ele>119</ele>
        <time>2017-01-22T09:06:34.148Z</time>
      </trkpt>
      <trkpt lat="47.77624" lon="1.96952">
        <ele>119</ele>
        <time>2017-01-22T09:06:35.154Z</time>
      </trkpt>
      <trkpt lat="47.77632" lon="1.96945">
        <ele>119</ele>
        <time>2017-01-22T09:06:36.121Z</time>
      </trkpt>
      <trkpt lat="47.77632" lon="1.96945">
        <ele>119</ele>
        <time>2017-01-22T09:06:37.126Z</time>
      </trkpt>
      <trkpt lat="47.77641" lon="1.9694">
        <ele>120</ele>
        <time>2017-01-22T09:06:38.154Z</time>
      </trkpt>
      <trkpt lat="47.77641" lon="1.9694">
        <ele>120</ele>
        <time>2017-01-22T09:06:39.124Z</time>
      </trkpt>
      <trkpt lat="47.77649" lon="1.96932">
        <ele>119</ele>
        <time>2017-01-22T09:06:40.130Z</time>
      </trkpt>
      <trkpt lat="47.77649" lon="1.96932">
        <ele>119</ele>
        <time>2017-01-22T09:06:41.119Z</time>
      </trkpt>
      <trkpt lat="47.77657" lon="1.96925">
        <ele>120</ele>
        <time>2017-01-22T09:06:42.150Z</time>
      </trkpt>
      <trkpt lat="47.77657" lon="1.96925">
        <ele>120</ele>
        <time>2017-01-22T09:06:43.156Z</time>
      </trkpt>
      <trkpt lat="47.77665" lon="1.96917">
        <ele>121</ele>
        <time>2017-01-22T09:06:44.149Z</time>
      </trkpt>
      <trkpt lat="47.77669" lon="1.96913">
        <ele>121</ele>
        <time>2017-01-22T09:06:45.144Z</time>
      </trkpt>
      <trkpt lat="47.77669" lon="1.96913">
        <ele>121</ele>
        <time>2017-01-22T09:06:46.149Z</time>
      </trkpt>
      <trkpt lat="47.77677" lon="1.96905">
        <ele>122</ele>
        <time>2017-01-22T09:06:47.156Z</time>
      </trkpt>
      <trkpt lat="47.77681" lon="1.96901">
        <ele>121</ele>
        <time>2017-01-22T09:06:48.135Z</time>
      </trkpt>
      <trkpt lat="47.77681" lon="1.96901">
        <ele>121</ele>
        <time>2017-01-22T09:06:49.141Z</time>
      </trkpt>
      <trkpt lat="47.77689" lon="1.96895">
        <ele>122</ele>
        <time>2017-01-22T09:06:50.149Z</time>
      </trkpt>
      <trkpt lat="47.77693" lon="1.96892">
        <ele>121</ele>
        <time>2017-01-22T09:06:51.124Z</time>
      </trkpt>
      <trkpt lat="47.77693" lon="1.96892">
        <ele>121</ele>
        <time>2017-01-22T09:06:52.130Z</time>
      </trkpt>
      <trkpt lat="47.77701" lon="1.96885">
        <ele>120</ele>
        <time>2017-01-22T09:06:53.136Z</time>
      </trkpt>
      <trkpt lat="47.77701" lon="1.96885">
        <ele>120</ele>
        <time>2017-01-22T09:06:54.142Z</time>
      </trkpt>
      <trkpt lat="47.77708" lon="1.96878">
        <ele>121</ele>
        <time>2017-01-22T09:06:55.146Z</time>
      </trkpt>
      <trkpt lat="47.77708" lon="1.96878">
        <ele>121</ele>
        <time>2017-01-22T09:06:56.152Z</time>
      </trkpt>
      <trkpt lat="47.77716" lon="1.96871">
        <ele>121</ele>
        <time>2017-01-22T09:06:57.119Z</time>
      </trkpt>
      <trkpt lat="47.77716" lon="1.96871">
        <ele>121</ele>
        <time>2017-01-22T09:06:58.125Z</time>
      </trkpt>
      <trkpt lat="47.77724" lon="1.96865">
        <ele>121</ele>
        <time>2017-01-22T09:06:59.121Z</time>
      </trkpt>
      <trkpt lat="47.77724" lon="1.96865">
        <ele>121</ele>
        <time>2017-01-22T09:07:00.127Z</time>
      </trkpt>
      <trkpt lat="47.77733" lon="1.96857">
        <ele>120</ele>
        <time>2017-01-22T09:07:01.133Z</time>
      </trkpt>
      <trkpt lat="47.77733" lon="1.96857">
        <ele>120</ele>
        <time>2017-01-22T09:07:02.138Z</time>
      </trkpt>
      <trkpt lat="47.77741" lon="1.9685">
        <ele>121</ele>
        <time>2017-01-22T09:07:03.154Z</time>
      </trkpt>
      <trkpt lat="47.77741" lon="1.9685">
        <ele>121</ele>
        <time>2017-01-22T09:07:04.131Z</time>
      </trkpt>
      <trkpt lat="47.77749" lon="1.96844">
        <ele>121</ele>
        <time>2017-01-22T09:07:05.124Z</time>
      </trkpt>
      <trkpt lat="47.77753" lon="1.9684">
        <ele>121</ele>
        <time>2017-01-22T09:07:06.130Z</time>
      </trkpt>
      <trkpt lat="47.77753" lon="1.9684">
        <ele>121</ele>
        <time>2017-01-22T09:07:07.135Z</time>
      </trkpt>
      <trkpt lat="47.7776" lon="1.96833">
        <ele>121</ele>
        <time>2017-01-22T09:07:08.153Z</time>
      </trkpt>
      <trkpt lat="47.77763" lon="1.9683">
        <ele>121</ele>
        <time>2017-01-22T09:07:09.135Z</time>
      </trkpt>
      <trkpt lat="47.77763" lon="1.9683">
        <ele>121</ele>
        <time>2017-01-22T09:07:10.142Z</time>
      </trkpt>
      <trkpt lat="47.77769" lon="1.96823">
        <ele>121</ele>
        <time>2017-01-22T09:07:11.149Z</time>
      </trkpt>
      <trkpt lat="47.77772" lon="1.9682">
        <ele>122</ele>
        <time>2017-01-22T09:07:12.126Z</time>
      </trkpt>
      <trkpt lat="47.77772" lon="1.9682">
        <ele>122</ele>
        <time>2017-01-22T09:07:13.132Z</time>
      </trkpt>
      <trkpt lat="47.77779" lon="1.96818">
        <ele>122</ele>
        <time>2017-01-22T09:07:14.156Z</time>
      </trkpt>
      <trkpt lat="47.77779" lon="1.96818">
        <ele>122</ele>
        <time>2017-01-22T09:07:15.153Z</time>
      </trkpt>
      <trkpt lat="47.77786" lon="1.96821">
        <ele>121</ele>
        <time>2017-01-22T09:07:16.151Z</time>
      </trkpt>
      <trkpt lat="47.77786" lon="1.96821">
        <ele>121</ele>
        <time>2017-01-22T09:07:17.157Z</time>
      </trkpt>
      <trkpt lat="47.77795" lon="1.96825">
        <ele>122</ele>
        <time>2017-01-22T09:07:18.123Z</time>
      </trkpt>
      <trkpt lat="47.77795" lon="1.96825">
        <ele>122</ele>
        <time>2017-01-22T09:07:19.133Z</time>
      </trkpt>
      <trkpt lat="47.77803" lon="1.96828">
        <ele>122</ele>
        <time>2017-01-22T09:07:20.157Z</time>
      </trkpt>
      <trkpt lat="47.77806" lon="1.9683">
        <ele>122</ele>
        <time>2017-01-22T09:07:21.123Z</time>
      </trkpt>
      <trkpt lat="47.77806" lon="1.9683">
        <ele>122</ele>
        <time>2017-01-22T09:07:22.129Z</time>
      </trkpt>
      <trkpt lat="47.77813" lon="1.96833">
        <ele>121</ele>
        <time>2017-01-22T09:07:23.120Z</time>
      </trkpt>
      <trkpt lat="47.77815" lon="1.96836">
        <ele>121</ele>
        <time>2017-01-22T09:07:24.134Z</time>
      </trkpt>
      <trkpt lat="47.77815" lon="1.96836">
        <ele>121</ele>
        <time>2017-01-22T09:07:25.143Z</time>
      </trkpt>
      <trkpt lat="47.7782" lon="1.96847">
        <ele>121</ele>
        <time>2017-01-22T09:07:26.149Z</time>
      </trkpt>
      <trkpt lat="47.7782" lon="1.96847">
        <ele>121</ele>
        <time>2017-01-22T09:07:27.154Z</time>
      </trkpt>
      <trkpt lat="47.77822" lon="1.96862">
        <ele>121</ele>
        <time>2017-01-22T09:07:28.143Z</time>
      </trkpt>
      <trkpt lat="47.77822" lon="1.96862">
        <ele>121</ele>
        <time>2017-01-22T09:07:29.149Z</time>
      </trkpt>
      <trkpt lat="47.77824" lon="1.96879">
        <ele>121</ele>
        <time>2017-01-22T09:07:30.124Z</time>
      </trkpt>
      <trkpt lat="47.77824" lon="1.96879">
        <ele>121</ele>
        <time>2017-01-22T09:07:31.120Z</time>
      </trkpt>
      <trkpt lat="47.77827" lon="1.96895">
        <ele>120</ele>
        <time>2017-01-22T09:07:32.123Z</time>
      </trkpt>
      <trkpt lat="47.77828" lon="1.96902">
        <ele>120</ele>
        <time>2017-01-22T09:07:33.129Z</time>
      </trkpt>
      <trkpt lat="47.77828" lon="1.96902">
        <ele>120</ele>
        <time>2017-01-22T09:07:34.136Z</time>
      </trkpt>
      <trkpt lat="47.77831" lon="1.96918">
        <ele>120</ele>
        <time>2017-01-22T09:07:35.126Z</time>
      </trkpt>
      <trkpt lat="47.77831" lon="1.96918">
        <ele>120</ele>
        <time>2017-01-22T09:07:36.132Z</time>
      </trkpt>
      <trkpt lat="47.77832" lon="1.96934">
        <ele>120</ele>
        <time>2017-01-22T09:07:37.142Z</time>
      </trkpt>
      <trkpt lat="47.77834" lon="1.96941">
        <ele>120</ele>
        <time>2017-01-22T09:07:38.144Z</time>
      </trkpt>
      <trkpt lat="47.77835" lon="1.96949">
        <ele>119</ele>
        <time>2017-01-22T09:07:39.154Z</time>
      </trkpt>
      <trkpt lat="47.77835" lon="1.96949">
        <ele>119</ele>
        <time>2017-01-22T09:07:40.120Z</time>
      </trkpt>
      <trkpt lat="47.77836" lon="1.96965">
        <ele>119</ele>
        <time>2017-01-22T09:07:41.144Z</time>
      </trkpt>
      <trkpt lat="47.77838" lon="1.96972">
        <ele>119</ele>
        <time>2017-01-22T09:07:42.150Z</time>
      </trkpt>
      <trkpt lat="47.77838" lon="1.96972">
        <ele>119</ele>
        <time>2017-01-22T09:07:43.156Z</time>
      </trkpt>
      <trkpt lat="47.77839" lon="1.96988">
        <ele>119</ele>
        <time>2017-01-22T09:07:44.151Z</time>
      </trkpt>
      <trkpt lat="47.77839" lon="1.96988">
        <ele>119</ele>
        <time>2017-01-22T09:07:45.157Z</time>
      </trkpt>
      <trkpt lat="47.77841" lon="1.97004">
        <ele>119</ele>
        <time>2017-01-22T09:07:46.123Z</time>
      </trkpt>
      <trkpt lat="47.77841" lon="1.97004">
        <ele>119</ele>
        <time>2017-01-22T09:07:47.152Z</time>
      </trkpt>
      <trkpt lat="47.77843" lon="1.97019">
        <ele>119</ele>
        <time>2017-01-22T09:07:48.142Z</time>
      </trkpt>
      <trkpt lat="47.77843" lon="1.97019">
        <ele>119</ele>
        <time>2017-01-22T09:07:49.147Z</time>
      </trkpt>
      <trkpt lat="47.77845" lon="1.97035">
        <ele>118</ele>
        <time>2017-01-22T09:07:50.156Z</time>
      </trkpt>
      <trkpt lat="47.77845" lon="1.97035">
        <ele>118</ele>
        <time>2017-01-22T09:07:51.122Z</time>
      </trkpt>
      <trkpt lat="47.77848" lon="1.9705">
        <ele>118</ele>
        <time>2017-01-22T09:07:52.156Z</time>
      </trkpt>
      <trkpt lat="47.77848" lon="1.9705">
        <ele>118</ele>
        <time>2017-01-22T09:07:53.121Z</time>
      </trkpt>
      <trkpt lat="47.7785" lon="1.97066">
        <ele>118</ele>
        <time>2017-01-22T09:07:54.138Z</time>
      </trkpt>
      <trkpt lat="47.7785" lon="1.97066">
        <ele>118</ele>
        <time>2017-01-22T09:07:55.156Z</time>
      </trkpt>
      <trkpt lat="47.77852" lon="1.97081">
        <ele>118</ele>
        <time>2017-01-22T09:07:56.135Z</time>
      </trkpt>
      <trkpt lat="47.77853" lon="1.97089">
        <ele>118</ele>
        <time>2017-01-22T09:07:57.144Z</time>
      </trkpt>
      <trkpt lat="47.77853" lon="1.97089">
        <ele>118</ele>
        <time>2017-01-22T09:07:58.149Z</time>
      </trkpt>
      <trkpt lat="47.77856" lon="1.97105">
        <ele>118</ele>
        <time>2017-01-22T09:07:59.120Z</time>
      </trkpt>
      <trkpt lat="47.77857" lon="1.97112">
        <ele>118</ele>
        <time>2017-01-22T09:08:00.134Z</time>
      </trkpt>
      <trkpt lat="47.77859" lon="1.9712">
        <ele>118</ele>
        <time>2017-01-22T09:08:01.140Z</time>
      </trkpt>
      <trkpt lat="47.77859" lon="1.9712">
        <ele>118</ele>
        <time>2017-01-22T09:08:02.145Z</time>
      </trkpt>
      <trkpt lat="47.77862" lon="1.97135">
        <ele>117</ele>
        <time>2017-01-22T09:08:03.134Z</time>
      </trkpt>
      <trkpt lat="47.77862" lon="1.97135">
        <ele>117</ele>
        <time>2017-01-22T09:08:04.153Z</time>
      </trkpt>
      <trkpt lat="47.77865" lon="1.97151">
        <ele>117</ele>
        <time>2017-01-22T09:08:05.123Z</time>
      </trkpt>
      <trkpt lat="47.77867" lon="1.97158">
        <ele>117</ele>
        <time>2017-01-22T09:08:06.145Z</time>
      </trkpt>
      <trkpt lat="47.77867" lon="1.97158">
        <ele>117</ele>
        <time>2017-01-22T09:08:07.150Z</time>
      </trkpt>
      <trkpt lat="47.77871" lon="1.97173">
        <ele>117</ele>
        <time>2017-01-22T09:08:08.158Z</time>
      </trkpt>
      <trkpt lat="47.77871" lon="1.97173">
        <ele>117</ele>
        <time>2017-01-22T09:08:09.124Z</time>
      </trkpt>
      <trkpt lat="47.77874" lon="1.97189">
        <ele>118</ele>
        <time>2017-01-22T09:08:10.134Z</time>
      </trkpt>
      <trkpt lat="47.77874" lon="1.97189">
        <ele>118</ele>
        <time>2017-01-22T09:08:11.140Z</time>
      </trkpt>
      <trkpt lat="47.77878" lon="1.97205">
        <ele>118</ele>
        <time>2017-01-22T09:08:12.149Z</time>
      </trkpt>
      <trkpt lat="47.77879" lon="1.97212">
        <ele>118</ele>
        <time>2017-01-22T09:08:13.148Z</time>
      </trkpt>
      <trkpt lat="47.77879" lon="1.97212">
        <ele>118</ele>
        <time>2017-01-22T09:08:14.154Z</time>
      </trkpt>
      <trkpt lat="47.77883" lon="1.97227">
        <ele>119</ele>
        <time>2017-01-22T09:08:15.120Z</time>
      </trkpt>
      <trkpt lat="47.77885" lon="1.97235">
        <ele>119</ele>
        <time>2017-01-22T09:08:16.152Z</time>
      </trkpt>
      <trkpt lat="47.77885" lon="1.97235">
        <ele>119</ele>
        <time>2017-01-22T09:08:17.119Z</time>
      </trkpt>
      <trkpt lat="47.77889" lon="1.9725">
        <ele>120</ele>
        <time>2017-01-22T09:08:18.126Z</time>
      </trkpt>
      <trkpt lat="47.77889" lon="1.9725">
        <ele>120</ele>
        <time>2017-01-22T09:08:19.132Z</time>
      </trkpt>
      <trkpt lat="47.77893" lon="1.97265">
        <ele>121</ele>
        <time>2017-01-22T09:08:20.139Z</time>
      </trkpt>
      <trkpt lat="47.77895" lon="1.97272">
        <ele>121</ele>
        <time>2017-01-22T09:08:21.146Z</time>
      </trkpt>
      <trkpt lat="47.77895" lon="1.97272">
        <ele>121</ele>
        <time>2017-01-22T09:08:22.152Z</time>
      </trkpt>
      <trkpt lat="47.779" lon="1.97287">
        <ele>121</ele>
        <time>2017-01-22T09:08:23.136Z</time>
      </trkpt>
      <trkpt lat="47.77902" lon="1.97294">
        <ele>122</ele>
        <time>2017-01-22T09:08:24.146Z</time>
      </trkpt>
      <trkpt lat="47.77905" lon="1.97301">
        <ele>122</ele>
        <time>2017-01-22T09:08:25.154Z</time>
      </trkpt>
      <trkpt lat="47.77905" lon="1.97301">
        <ele>122</ele>
        <time>2017-01-22T09:08:26.120Z</time>
      </trkpt>
      <trkpt lat="47.77911" lon="1.97315">
        <ele>122</ele>
        <time>2017-01-22T09:08:27.126Z</time>
      </trkpt>
      <trkpt lat="47.77915" lon="1.97322">
        <ele>122</ele>
        <time>2017-01-22T09:08:28.154Z</time>
      </trkpt>
      <trkpt lat="47.77915" lon="1.97322">
        <ele>122</ele>
        <time>2017-01-22T09:08:29.121Z</time>
      </trkpt>
      <trkpt lat="47.77922" lon="1.97336">
        <ele>123</ele>
        <time>2017-01-22T09:08:30.127Z</time>
      </trkpt>
      <trkpt lat="47.77922" lon="1.97336">
        <ele>123</ele>
        <time>2017-01-22T09:08:31.131Z</time>
      </trkpt>
      <trkpt lat="47.77928" lon="1.97351">
        <ele>123</ele>
        <time>2017-01-22T09:08:32.141Z</time>
      </trkpt>
      <trkpt lat="47.77928" lon="1.97351">
        <ele>123</ele>
        <time>2017-01-22T09:08:33.152Z</time>
      </trkpt>
      <trkpt lat="47.77935" lon="1.97364">
        <ele>124</ele>
        <time>2017-01-22T09:08:34.120Z</time>
      </trkpt>
      <trkpt lat="47.77935" lon="1.97364">
        <ele>124</ele>
        <time>2017-01-22T09:08:35.118Z</time>
      </trkpt>
      <trkpt lat="47.77942" lon="1.97378">
        <ele>124</ele>
        <time>2017-01-22T09:08:36.154Z</time>
      </trkpt>
      <trkpt lat="47.77942" lon="1.97378">
        <ele>124</ele>
        <time>2017-01-22T09:08:37.120Z</time>
      </trkpt>
      <trkpt lat="47.77948" lon="1.97392">
        <ele>125</ele>
        <time>2017-01-22T09:08:38.127Z</time>
      </trkpt>
      <trkpt lat="47.77952" lon="1.97399">
        <ele>125</ele>
        <time>2017-01-22T09:08:39.131Z</time>
      </trkpt>
      <trkpt lat="47.77955" lon="1.97406">
        <ele>126</ele>
        <time>2017-01-22T09:08:40.137Z</time>
      </trkpt>
      <trkpt lat="47.77955" lon="1.97406">
        <ele>126</ele>
        <time>2017-01-22T09:08:41.143Z</time>
      </trkpt>
      <trkpt lat="47.77962" lon="1.9742">
        <ele>127</ele>
        <time>2017-01-22T09:08:42.125Z</time>
      </trkpt>
      <trkpt lat="47.77962" lon="1.9742">
        <ele>127</ele>
        <time>2017-01-22T09:08:43.130Z</time>
      </trkpt>
      <trkpt lat="47.77969" lon="1.97435">
        <ele>128</ele>
        <time>2017-01-22T09:08:44.137Z</time>
      </trkpt>
      <trkpt lat="47.77969" lon="1.97435">
        <ele>128</ele>
        <time>2017-01-22T09:08:45.156Z</time>
      </trkpt>
      <trkpt lat="47.77976" lon="1.97448">
        <ele>128</ele>
        <time>2017-01-22T09:08:46.154Z</time>
      </trkpt>
      <trkpt lat="47.77976" lon="1.97448">
        <ele>128</ele>
        <time>2017-01-22T09:08:47.120Z</time>
      </trkpt>
      <trkpt lat="47.77981" lon="1.97463">
        <ele>128</ele>
        <time>2017-01-22T09:08:48.127Z</time>
      </trkpt>
      <trkpt lat="47.77981" lon="1.97463">
        <ele>128</ele>
        <time>2017-01-22T09:08:49.132Z</time>
      </trkpt>
      <trkpt lat="47.77987" lon="1.97476">
        <ele>128</ele>
        <time>2017-01-22T09:08:50.141Z</time>
      </trkpt>
      <trkpt lat="47.77987" lon="1.97476">
        <ele>128</ele>
        <time>2017-01-22T09:08:51.146Z</time>
      </trkpt>
      <trkpt lat="47.77992" lon="1.9749">
        <ele>129</ele>
        <time>2017-01-22T09:08:52.118Z</time>
      </trkpt>
      <trkpt lat="47.77992" lon="1.9749">
        <ele>129</ele>
        <time>2017-01-22T09:08:53.123Z</time>
      </trkpt>
      <trkpt lat="47.77998" lon="1.97505">
        <ele>129</ele>
        <time>2017-01-22T09:08:54.138Z</time>
      </trkpt>
      <trkpt lat="47.77998" lon="1.97505">
        <ele>129</ele>
        <time>2017-01-22T09:08:55.145Z</time>
      </trkpt>
      <trkpt lat="47.78004" lon="1.97518">
        <ele>130</ele>
        <time>2017-01-22T09:08:56.154Z</time>
      </trkpt>
      <trkpt lat="47.78008" lon="1.97524">
        <ele>129</ele>
        <time>2017-01-22T09:08:57.142Z</time>
      </trkpt>
      <trkpt lat="47.78008" lon="1.97524">
        <ele>129</ele>
        <time>2017-01-22T09:08:58.148Z</time>
      </trkpt>
      <trkpt lat="47.78015" lon="1.97537">
        <ele>129</ele>
        <time>2017-01-22T09:08:59.155Z</time>
      </trkpt>
      <trkpt lat="47.78019" lon="1.97543">
        <ele>130</ele>
        <time>2017-01-22T09:09:00.135Z</time>
      </trkpt>
      <trkpt lat="47.78019" lon="1.97543">
        <ele>130</ele>
        <time>2017-01-22T09:09:01.141Z</time>
      </trkpt>
      <trkpt lat="47.78027" lon="1.97557">
        <ele>130</ele>
        <time>2017-01-22T09:09:02.150Z</time>
      </trkpt>
      <trkpt lat="47.78031" lon="1.97563">
        <ele>130</ele>
        <time>2017-01-22T09:09:03.131Z</time>
      </trkpt>
      <trkpt lat="47.78031" lon="1.97563">
        <ele>130</ele>
        <time>2017-01-22T09:09:04.148Z</time>
      </trkpt>
      <trkpt lat="47.78038" lon="1.97576">
        <ele>131</ele>
        <time>2017-01-22T09:09:05.120Z</time>
      </trkpt>
      <trkpt lat="47.78042" lon="1.97583">
        <ele>130</ele>
        <time>2017-01-22T09:09:06.126Z</time>
      </trkpt>
      <trkpt lat="47.78042" lon="1.97583">
        <ele>130</ele>
        <time>2017-01-22T09:09:07.132Z</time>
      </trkpt>
      <trkpt lat="47.78048" lon="1.97597">
        <ele>130</ele>
        <time>2017-01-22T09:09:08.124Z</time>
      </trkpt>
      <trkpt lat="47.78052" lon="1.97605">
        <ele>130</ele>
        <time>2017-01-22T09:09:09.130Z</time>
      </trkpt>
      <trkpt lat="47.78052" lon="1.97605">
        <ele>130</ele>
        <time>2017-01-22T09:09:10.136Z</time>
      </trkpt>
      <trkpt lat="47.78057" lon="1.9762">
        <ele>129</ele>
        <time>2017-01-22T09:09:11.135Z</time>
      </trkpt>
      <trkpt lat="47.78057" lon="1.9762">
        <ele>129</ele>
        <time>2017-01-22T09:09:12.147Z</time>
      </trkpt>
      <trkpt lat="47.78062" lon="1.97637">
        <ele>128</ele>
        <time>2017-01-22T09:09:13.153Z</time>
      </trkpt>
      <trkpt lat="47.78062" lon="1.97637">
        <ele>128</ele>
        <time>2017-01-22T09:09:14.119Z</time>
      </trkpt>
      <trkpt lat="47.78067" lon="1.97652">
        <ele>128</ele>
        <time>2017-01-22T09:09:15.122Z</time>
      </trkpt>
      <trkpt lat="47.78067" lon="1.97652">
        <ele>128</ele>
        <time>2017-01-22T09:09:16.128Z</time>
      </trkpt>
      <trkpt lat="47.7807" lon="1.97668">
        <ele>129</ele>
        <time>2017-01-22T09:09:17.136Z</time>
      </trkpt>
      <trkpt lat="47.7807" lon="1.97668">
        <ele>129</ele>
        <time>2017-01-22T09:09:18.142Z</time>
      </trkpt>
      <trkpt lat="47.78075" lon="1.97683">
        <ele>128</ele>
        <time>2017-01-22T09:09:19.127Z</time>
      </trkpt>
      <trkpt lat="47.78077" lon="1.97692">
        <ele>128</ele>
        <time>2017-01-22T09:09:20.143Z</time>
      </trkpt>
      <trkpt lat="47.78077" lon="1.97692">
        <ele>128</ele>
        <time>2017-01-22T09:09:21.149Z</time>
      </trkpt>
      <trkpt lat="47.7808" lon="1.97708">
        <ele>128</ele>
        <time>2017-01-22T09:09:22.148Z</time>
      </trkpt>
      <trkpt lat="47.78082" lon="1.97716">
        <ele>128</ele>
        <time>2017-01-22T09:09:23.154Z</time>
      </trkpt>
      <trkpt lat="47.78084" lon="1.97724">
        <ele>128</ele>
        <time>2017-01-22T09:09:24.120Z</time>
      </trkpt>
      <trkpt lat="47.78085" lon="1.97732">
        <ele>128</ele>
        <time>2017-01-22T09:09:25.140Z</time>
      </trkpt>
      <trkpt lat="47.78085" lon="1.97732">
        <ele>128</ele>
        <time>2017-01-22T09:09:26.147Z</time>
      </trkpt>
      <trkpt lat="47.7809" lon="1.97747">
        <ele>127</ele>
        <time>2017-01-22T09:09:27.144Z</time>
      </trkpt>
      <trkpt lat="47.78092" lon="1.97755">
        <ele>127</ele>
        <time>2017-01-22T09:09:28.150Z</time>
      </trkpt>
      <trkpt lat="47.78092" lon="1.97755">
        <ele>127</ele>
        <time>2017-01-22T09:09:29.157Z</time>
      </trkpt>
      <trkpt lat="47.78096" lon="1.9777">
        <ele>126</ele>
        <time>2017-01-22T09:09:30.140Z</time>
      </trkpt>
      <trkpt lat="47.78096" lon="1.9777">
        <ele>126</ele>
        <time>2017-01-22T09:09:31.146Z</time>
      </trkpt>
      <trkpt lat="47.78101" lon="1.97785">
        <ele>126</ele>
        <time>2017-01-22T09:09:32.156Z</time>
      </trkpt>
      <trkpt lat="47.78101" lon="1.97785">
        <ele>126</ele>
        <time>2017-01-22T09:09:33.121Z</time>
      </trkpt>
      <trkpt lat="47.78106" lon="1.97799">
        <ele>127</ele>
        <time>2017-01-22T09:09:34.154Z</time>
      </trkpt>
      <trkpt lat="47.78108" lon="1.97806">
        <ele>128</ele>
        <time>2017-01-22T09:09:35.124Z</time>
      </trkpt>
      <trkpt lat="47.78108" lon="1.97806">
        <ele>128</ele>
        <time>2017-01-22T09:09:36.130Z</time>
      </trkpt>
      <trkpt lat="47.78112" lon="1.97822">
        <ele>128</ele>
        <time>2017-01-22T09:09:37.154Z</time>
      </trkpt>
      <trkpt lat="47.78112" lon="1.97822">
        <ele>128</ele>
        <time>2017-01-22T09:09:38.119Z</time>
      </trkpt>
      <trkpt lat="47.78118" lon="1.97837">
        <ele>128</ele>
        <time>2017-01-22T09:09:39.128Z</time>
      </trkpt>
      <trkpt lat="47.78121" lon="1.97845">
        <ele>128</ele>
        <time>2017-01-22T09:09:40.153Z</time>
      </trkpt>
      <trkpt lat="47.78121" lon="1.97845">
        <ele>128</ele>
        <time>2017-01-22T09:09:41.119Z</time>
      </trkpt>
      <trkpt lat="47.78127" lon="1.9786">
        <ele>129</ele>
        <time>2017-01-22T09:09:42.126Z</time>
      </trkpt>
      <trkpt lat="47.78127" lon="1.9786">
        <ele>129</ele>
        <time>2017-01-22T09:09:43.131Z</time>
      </trkpt>
      <trkpt lat="47.78134" lon="1.97876">
        <ele>129</ele>
        <time>2017-01-22T09:09:44.151Z</time>
      </trkpt>
      <trkpt lat="47.78134" lon="1.97876">
        <ele>129</ele>
        <time>2017-01-22T09:09:45.156Z</time>
      </trkpt>
      <trkpt lat="47.78142" lon="1.97892">
        <ele>129</ele>
        <time>2017-01-22T09:09:46.123Z</time>
      </trkpt>
      <trkpt lat="47.78146" lon="1.97899">
        <ele>130</ele>
        <time>2017-01-22T09:09:47.141Z</time>
      </trkpt>
      <trkpt lat="47.78146" lon="1.97899">
        <ele>130</ele>
        <time>2017-01-22T09:09:48.147Z</time>
      </trkpt>
      <trkpt lat="47.78152" lon="1.97914">
        <ele>131</ele>
        <time>2017-01-22T09:09:49.122Z</time>
      </trkpt>
      <trkpt lat="47.78152" lon="1.97914">
        <ele>131</ele>
        <time>2017-01-22T09:09:50.128Z</time>
      </trkpt>
      <trkpt lat="47.78157" lon="1.97928">
        <ele>132</ele>
        <time>2017-01-22T09:09:51.121Z</time>
      </trkpt>
      <trkpt lat="47.78157" lon="1.97928">
        <ele>132</ele>
        <time>2017-01-22T09:09:52.127Z</time>
      </trkpt>
      <trkpt lat="47.78161" lon="1.97942">
        <ele>133</ele>
        <time>2017-01-22T09:09:53.134Z</time>
      </trkpt>
      <trkpt lat="47.78163" lon="1.97948">
        <ele>133</ele>
        <time>2017-01-22T09:09:54.145Z</time>
      </trkpt>
      <trkpt lat="47.78163" lon="1.97948">
        <ele>133</ele>
        <time>2017-01-22T09:09:55.150Z</time>
      </trkpt>
      <trkpt lat="47.78166" lon="1.97961">
        <ele>132</ele>
        <time>2017-01-22T09:09:56.155Z</time>
      </trkpt>
      <trkpt lat="47.78166" lon="1.97961">
        <ele>132</ele>
        <time>2017-01-22T09:09:57.121Z</time>
      </trkpt>
      <trkpt lat="47.78169" lon="1.97972">
        <ele>132</ele>
        <time>2017-01-22T09:09:58.127Z</time>
      </trkpt>
      <trkpt lat="47.78169" lon="1.97972">
        <ele>132</ele>
        <time>2017-01-22T09:09:59.132Z</time>
      </trkpt>
      <trkpt lat="47.78172" lon="1.97982">
        <ele>130</ele>
        <time>2017-01-22T09:10:00.155Z</time>
      </trkpt>
      <trkpt lat="47.78172" lon="1.97982">
        <ele>130</ele>
        <time>2017-01-22T09:10:01.121Z</time>
      </trkpt>
      <trkpt lat="47.78176" lon="1.97991">
        <ele>129</ele>
        <time>2017-01-22T09:10:02.139Z</time>
      </trkpt>
      <trkpt lat="47.78179" lon="1.97995">
        <ele>129</ele>
        <time>2017-01-22T09:10:03.148Z</time>
      </trkpt>
      <trkpt lat="47.78179" lon="1.97995">
        <ele>129</ele>
        <time>2017-01-22T09:10:04.128Z</time>
      </trkpt>
      <trkpt lat="47.78185" lon="1.97997">
        <ele>129</ele>
        <time>2017-01-22T09:10:05.142Z</time>
      </trkpt>
      <trkpt lat="47.78188" lon="1.97996">
        <ele>129</ele>
        <time>2017-01-22T09:10:06.133Z</time>
      </trkpt>
      <trkpt lat="47.78188" lon="1.97996">
        <ele>129</ele>
        <time>2017-01-22T09:10:07.148Z</time>
      </trkpt>
      <trkpt lat="47.78194" lon="1.9799">
        <ele>128</ele>
        <time>2017-01-22T09:10:08.157Z</time>
      </trkpt>
      <trkpt lat="47.78198" lon="1.97987">
        <ele>128</ele>
        <time>2017-01-22T09:10:09.129Z</time>
      </trkpt>
      <trkpt lat="47.78201" lon="1.97984">
        <ele>128</ele>
        <time>2017-01-22T09:10:10.124Z</time>
      </trkpt>
      <trkpt lat="47.78201" lon="1.97984">
        <ele>128</ele>
        <time>2017-01-22T09:10:11.129Z</time>
      </trkpt>
      <trkpt lat="47.78209" lon="1.97977">
        <ele>128</ele>
        <time>2017-01-22T09:10:12.136Z</time>
      </trkpt>
      <trkpt lat="47.78209" lon="1.97977">
        <ele>128</ele>
        <time>2017-01-22T09:10:13.141Z</time>
      </trkpt>
      <trkpt lat="47.78216" lon="1.97969">
        <ele>128</ele>
        <time>2017-01-22T09:10:14.152Z</time>
      </trkpt>
      <trkpt lat="47.78216" lon="1.97969">
        <ele>128</ele>
        <time>2017-01-22T09:10:15.158Z</time>
      </trkpt>
      <trkpt lat="47.78224" lon="1.97962">
        <ele>128</ele>
        <time>2017-01-22T09:10:16.124Z</time>
      </trkpt>
      <trkpt lat="47.78224" lon="1.97962">
        <ele>128</ele>
        <time>2017-01-22T09:10:17.153Z</time>
      </trkpt>
      <trkpt lat="47.78232" lon="1.97954">
        <ele>128</ele>
        <time>2017-01-22T09:10:18.155Z</time>
      </trkpt>
      <trkpt lat="47.78232" lon="1.97954">
        <ele>128</ele>
        <time>2017-01-22T09:10:19.134Z</time>
      </trkpt>
      <trkpt lat="47.78241" lon="1.97947">
        <ele>128</ele>
        <time>2017-01-22T09:10:20.146Z</time>
      </trkpt>
      <trkpt lat="47.78241" lon="1.97947">
        <ele>128</ele>
        <time>2017-01-22T09:10:21.152Z</time>
      </trkpt>
      <trkpt lat="47.78249" lon="1.97939">
        <ele>128</ele>
        <time>2017-01-22T09:10:22.146Z</time>
      </trkpt>
      <trkpt lat="47.78249" lon="1.97939">
        <ele>128</ele>
        <time>2017-01-22T09:10:23.151Z</time>
      </trkpt>
      <trkpt lat="47.78257" lon="1.97931">
        <ele>127</ele>
        <time>2017-01-22T09:10:24.157Z</time>
      </trkpt>
      <trkpt lat="47.78257" lon="1.97931">
        <ele>127</ele>
        <time>2017-01-22T09:10:25.125Z</time>
      </trkpt>
      <trkpt lat="47.78266" lon="1.97923">
        <ele>127</ele>
        <time>2017-01-22T09:10:26.154Z</time>
      </trkpt>
      <trkpt lat="47.78266" lon="1.97923">
        <ele>127</ele>
        <time>2017-01-22T09:10:27.121Z</time>
      </trkpt>
      <trkpt lat="47.78276" lon="1.97914">
        <ele>127</ele>
        <time>2017-01-22T09:10:28.127Z</time>
      </trkpt>
      <trkpt lat="47.78276" lon="1.97914">
        <ele>127</ele>
        <time>2017-01-22T09:10:29.132Z</time>
      </trkpt>
      <trkpt lat="47.78285" lon="1.97905">
        <ele>126</ele>
        <time>2017-01-22T09:10:30.125Z</time>
      </trkpt>
      <trkpt lat="47.78285" lon="1.97905">
        <ele>126</ele>
        <time>2017-01-22T09:10:31.130Z</time>
      </trkpt>
      <trkpt lat="47.78294" lon="1.97896">
        <ele>127</ele>
        <time>2017-01-22T09:10:32.136Z</time>
      </trkpt>
      <trkpt lat="47.78294" lon="1.97896">
        <ele>127</ele>
        <time>2017-01-22T09:10:33.143Z</time>
      </trkpt>
      <trkpt lat="47.78303" lon="1.97887">
        <ele>127</ele>
        <time>2017-01-22T09:10:34.153Z</time>
      </trkpt>
      <trkpt lat="47.78303" lon="1.97887">
        <ele>127</ele>
        <time>2017-01-22T09:10:35.120Z</time>
      </trkpt>
      <trkpt lat="47.78311" lon="1.97876">
        <ele>127</ele>
        <time>2017-01-22T09:10:36.136Z</time>
      </trkpt>
      <trkpt lat="47.78316" lon="1.97871">
        <ele>127</ele>
        <time>2017-01-22T09:10:37.130Z</time>
      </trkpt>
      <trkpt lat="47.78316" lon="1.97871">
        <ele>127</ele>
        <time>2017-01-22T09:10:38.136Z</time>
      </trkpt>
      <trkpt lat="47.78325" lon="1.9786">
        <ele>125</ele>
        <time>2017-01-22T09:10:39.144Z</time>
      </trkpt>
      <trkpt lat="47.78329" lon="1.97855">
        <ele>124</ele>
        <time>2017-01-22T09:10:40.135Z</time>
      </trkpt>
      <trkpt lat="47.78329" lon="1.97855">
        <ele>124</ele>
        <time>2017-01-22T09:10:41.142Z</time>
      </trkpt>
      <trkpt lat="47.78338" lon="1.97844">
        <ele>123</ele>
        <time>2017-01-22T09:10:42.151Z</time>
      </trkpt>
      <trkpt lat="47.78338" lon="1.97844">
        <ele>123</ele>
        <time>2017-01-22T09:10:43.156Z</time>
      </trkpt>
      <trkpt lat="47.78346" lon="1.97833">
        <ele>123</ele>
        <time>2017-01-22T09:10:44.147Z</time>
      </trkpt>
      <trkpt lat="47.78346" lon="1.97833">
        <ele>123</ele>
        <time>2017-01-22T09:10:45.153Z</time>
      </trkpt>
      <trkpt lat="47.78354" lon="1.9782">
        <ele>122</ele>
        <time>2017-01-22T09:10:46.149Z</time>
      </trkpt>
      <trkpt lat="47.78358" lon="1.97814">
        <ele>122</ele>
        <time>2017-01-22T09:10:47.156Z</time>
      </trkpt>
      <trkpt lat="47.78358" lon="1.97814">
        <ele>122</ele>
        <time>2017-01-22T09:10:48.122Z</time>
      </trkpt>
      <trkpt lat="47.78366" lon="1.97802">
        <ele>122</ele>
        <time>2017-01-22T09:10:49.154Z</time>
      </trkpt>
      <trkpt lat="47.7837" lon="1.97796">
        <ele>121</ele>
        <time>2017-01-22T09:10:50.121Z</time>
      </trkpt>
      <trkpt lat="47.7837" lon="1.97796">
        <ele>121</ele>
        <time>2017-01-22T09:10:51.128Z</time>
      </trkpt>
      <trkpt lat="47.78377" lon="1.97784">
        <ele>122</ele>
        <time>2017-01-22T09:10:52.142Z</time>
      </trkpt>
      <trkpt lat="47.78381" lon="1.97778">
        <ele>122</ele>
        <time>2017-01-22T09:10:53.146Z</time>
      </trkpt>
      <trkpt lat="47.78381" lon="1.97778">
        <ele>122</ele>
        <time>2017-01-22T09:10:54.151Z</time>
      </trkpt>
      <trkpt lat="47.78388" lon="1.97764">
        <ele>122</ele>
        <time>2017-01-22T09:10:55.119Z</time>
      </trkpt>
      <trkpt lat="47.78388" lon="1.97764">
        <ele>122</ele>
        <time>2017-01-22T09:10:56.153Z</time>
      </trkpt>
      <trkpt lat="47.78395" lon="1.97751">
        <ele>123</ele>
        <time>2017-01-22T09:10:57.118Z</time>
      </trkpt>
      <trkpt lat="47.78399" lon="1.97745">
        <ele>123</ele>
        <time>2017-01-22T09:10:58.124Z</time>
      </trkpt>
      <trkpt lat="47.78399" lon="1.97745">
        <ele>123</ele>
        <time>2017-01-22T09:10:59.129Z</time>
      </trkpt>
      <trkpt lat="47.78406" lon="1.9773">
        <ele>123</ele>
        <time>2017-01-22T09:11:00.151Z</time>
      </trkpt>
      <trkpt lat="47.78409" lon="1.97723">
        <ele>123</ele>
        <time>2017-01-22T09:11:01.123Z</time>
      </trkpt>
      <trkpt lat="47.78409" lon="1.97723">
        <ele>123</ele>
        <time>2017-01-22T09:11:02.129Z</time>
      </trkpt>
      <trkpt lat="47.78416" lon="1.97708">
        <ele>123</ele>
        <time>2017-01-22T09:11:03.135Z</time>
      </trkpt>
      <trkpt lat="47.78419" lon="1.97701">
        <ele>123</ele>
        <time>2017-01-22T09:11:04.129Z</time>
      </trkpt>
      <trkpt lat="47.78419" lon="1.97701">
        <ele>123</ele>
        <time>2017-01-22T09:11:05.154Z</time>
      </trkpt>
      <trkpt lat="47.78425" lon="1.97686">
        <ele>124</ele>
        <time>2017-01-22T09:11:06.125Z</time>
      </trkpt>
      <trkpt lat="47.78425" lon="1.97686">
        <ele>124</ele>
        <time>2017-01-22T09:11:07.155Z</time>
      </trkpt>
      <trkpt lat="47.78431" lon="1.97672">
        <ele>124</ele>
        <time>2017-01-22T09:11:08.123Z</time>
      </trkpt>
      <trkpt lat="47.78431" lon="1.97672">
        <ele>124</ele>
        <time>2017-01-22T09:11:09.129Z</time>
      </trkpt>
      <trkpt lat="47.78439" lon="1.97657">
        <ele>124</ele>
        <time>2017-01-22T09:11:10.136Z</time>
      </trkpt>
      <trkpt lat="47.78439" lon="1.97657">
        <ele>124</ele>
        <time>2017-01-22T09:11:11.143Z</time>
      </trkpt>
      <trkpt lat="47.78445" lon="1.97642">
        <ele>124</ele>
        <time>2017-01-22T09:11:12.154Z</time>
      </trkpt>
      <trkpt lat="47.78445" lon="1.97642">
        <ele>124</ele>
        <time>2017-01-22T09:11:13.135Z</time>
      </trkpt>
      <trkpt lat="47.78452" lon="1.97627">
        <ele>125</ele>
        <time>2017-01-22T09:11:14.142Z</time>
      </trkpt>
      <trkpt lat="47.78452" lon="1.97627">
        <ele>125</ele>
        <time>2017-01-22T09:11:15.152Z</time>
      </trkpt>
      <trkpt lat="47.78459" lon="1.97614">
        <ele>124</ele>
        <time>2017-01-22T09:11:16.154Z</time>
      </trkpt>
      <trkpt lat="47.78459" lon="1.97614">
        <ele>124</ele>
        <time>2017-01-22T09:11:17.119Z</time>
      </trkpt>
      <trkpt lat="47.78466" lon="1.97601">
        <ele>123</ele>
        <time>2017-01-22T09:11:18.125Z</time>
      </trkpt>
      <trkpt lat="47.78466" lon="1.97601">
        <ele>123</ele>
        <time>2017-01-22T09:11:19.133Z</time>
      </trkpt>
      <trkpt lat="47.78474" lon="1.97587">
        <ele>123</ele>
        <time>2017-01-22T09:11:20.123Z</time>
      </trkpt>
      <trkpt lat="47.78477" lon="1.9758">
        <ele>123</ele>
        <time>2017-01-22T09:11:21.129Z</time>
      </trkpt>
      <trkpt lat="47.78477" lon="1.9758">
        <ele>123</ele>
        <time>2017-01-22T09:11:22.135Z</time>
      </trkpt>
      <trkpt lat="47.78485" lon="1.97566">
        <ele>123</ele>
        <time>2017-01-22T09:11:23.144Z</time>
      </trkpt>
      <trkpt lat="47.78489" lon="1.97559">
        <ele>122</ele>
        <time>2017-01-22T09:11:24.145Z</time>
      </trkpt>
      <trkpt lat="47.78489" lon="1.97559">
        <ele>122</ele>
        <time>2017-01-22T09:11:25.151Z</time>
      </trkpt>
      <trkpt lat="47.78498" lon="1.97546">
        <ele>122</ele>
        <time>2017-01-22T09:11:26.120Z</time>
      </trkpt>
      <trkpt lat="47.78498" lon="1.97546">
        <ele>122</ele>
        <time>2017-01-22T09:11:27.125Z</time>
      </trkpt>
      <trkpt lat="47.78506" lon="1.97532">
        <ele>121</ele>
        <time>2017-01-22T09:11:28.132Z</time>
      </trkpt>
      <trkpt lat="47.78506" lon="1.97532">
        <ele>121</ele>
        <time>2017-01-22T09:11:29.145Z</time>
      </trkpt>
      <trkpt lat="47.78514" lon="1.97518">
        <ele>121</ele>
        <time>2017-01-22T09:11:30.150Z</time>
      </trkpt>
      <trkpt lat="47.78514" lon="1.97518">
        <ele>121</ele>
        <time>2017-01-22T09:11:31.157Z</time>
      </trkpt>
      <trkpt lat="47.78522" lon="1.97504">
        <ele>120</ele>
        <time>2017-01-22T09:11:32.124Z</time>
      </trkpt>
      <trkpt lat="47.78526" lon="1.97497">
        <ele>120</ele>
        <time>2017-01-22T09:11:33.133Z</time>
      </trkpt>
      <trkpt lat="47.78529" lon="1.9749">
        <ele>120</ele>
        <time>2017-01-22T09:11:34.155Z</time>
      </trkpt>
      <trkpt lat="47.78529" lon="1.9749">
        <ele>120</ele>
        <time>2017-01-22T09:11:35.120Z</time>
      </trkpt>
      <trkpt lat="47.78537" lon="1.97478">
        <ele>120</ele>
        <time>2017-01-22T09:11:36.133Z</time>
      </trkpt>
      <trkpt lat="47.78537" lon="1.97478">
        <ele>120</ele>
        <time>2017-01-22T09:11:37.138Z</time>
      </trkpt>
      <trkpt lat="47.78546" lon="1.97467">
        <ele>120</ele>
        <time>2017-01-22T09:11:38.145Z</time>
      </trkpt>
      <trkpt lat="47.78546" lon="1.97467">
        <ele>120</ele>
        <time>2017-01-22T09:11:39.150Z</time>
      </trkpt>
      <trkpt lat="47.78554" lon="1.97458">
        <ele>121</ele>
        <time>2017-01-22T09:11:40.157Z</time>
      </trkpt>
      <trkpt lat="47.78559" lon="1.97454">
        <ele>121</ele>
        <time>2017-01-22T09:11:41.138Z</time>
      </trkpt>
      <trkpt lat="47.78559" lon="1.97454">
        <ele>121</ele>
        <time>2017-01-22T09:11:42.144Z</time>
      </trkpt>
      <trkpt lat="47.78569" lon="1.97445">
        <ele>121</ele>
        <time>2017-01-22T09:11:43.152Z</time>
      </trkpt>
      <trkpt lat="47.78569" lon="1.97445">
        <ele>121</ele>
        <time>2017-01-22T09:11:44.119Z</time>
      </trkpt>
      <trkpt lat="47.78579" lon="1.97435">
        <ele>122</ele>
        <time>2017-01-22T09:11:45.150Z</time>
      </trkpt>
      <trkpt lat="47.78579" lon="1.97435">
        <ele>122</ele>
        <time>2017-01-22T09:11:46.156Z</time>
      </trkpt>
      <trkpt lat="47.78588" lon="1.97428">
        <ele>123</ele>
        <time>2017-01-22T09:11:47.122Z</time>
      </trkpt>
      <trkpt lat="47.78593" lon="1.97424">
        <ele>122</ele>
        <time>2017-01-22T09:11:48.156Z</time>
      </trkpt>
      <trkpt lat="47.78593" lon="1.97424">
        <ele>122</ele>
        <time>2017-01-22T09:11:49.122Z</time>
      </trkpt>
      <trkpt lat="47.78604" lon="1.97416">
        <ele>122</ele>
        <time>2017-01-22T09:11:50.144Z</time>
      </trkpt>
      <trkpt lat="47.78608" lon="1.97412">
        <ele>122</ele>
        <time>2017-01-22T09:11:51.125Z</time>
      </trkpt>
      <trkpt lat="47.78608" lon="1.97412">
        <ele>122</ele>
        <time>2017-01-22T09:11:52.131Z</time>
      </trkpt>
      <trkpt lat="47.78618" lon="1.97403">
        <ele>123</ele>
        <time>2017-01-22T09:11:53.138Z</time>
      </trkpt>
      <trkpt lat="47.78618" lon="1.97403">
        <ele>123</ele>
        <time>2017-01-22T09:11:54.152Z</time>
      </trkpt>
      <trkpt lat="47.78628" lon="1.97396">
        <ele>123</ele>
        <time>2017-01-22T09:11:55.149Z</time>
      </trkpt>
      <trkpt lat="47.78628" lon="1.97396">
        <ele>123</ele>
        <time>2017-01-22T09:11:56.155Z</time>
      </trkpt>
      <trkpt lat="47.78638" lon="1.97389">
        <ele>123</ele>
        <time>2017-01-22T09:11:57.121Z</time>
      </trkpt>
      <trkpt lat="47.78643" lon="1.97385">
        <ele>124</ele>
        <time>2017-01-22T09:11:58.128Z</time>
      </trkpt>
      <trkpt lat="47.78648" lon="1.97381">
        <ele>124</ele>
        <time>2017-01-22T09:11:59.122Z</time>
      </trkpt>
      <trkpt lat="47.78648" lon="1.97381">
        <ele>124</ele>
        <time>2017-01-22T09:12:00.127Z</time>
      </trkpt>
      <trkpt lat="47.78658" lon="1.97373">
        <ele>124</ele>
        <time>2017-01-22T09:12:01.137Z</time>
      </trkpt>
      <trkpt lat="47.78663" lon="1.97369">
        <ele>124</ele>
        <time>2017-01-22T09:12:02.151Z</time>
      </trkpt>
      <trkpt lat="47.78663" lon="1.97369">
        <ele>124</ele>
        <time>2017-01-22T09:12:03.118Z</time>
      </trkpt>
      <trkpt lat="47.78673" lon="1.97361">
        <ele>124</ele>
        <time>2017-01-22T09:12:04.143Z</time>
      </trkpt>
      <trkpt lat="47.78678" lon="1.97356">
        <ele>124</ele>
        <time>2017-01-22T09:12:05.152Z</time>
      </trkpt>
      <trkpt lat="47.78678" lon="1.97356">
        <ele>124</ele>
        <time>2017-01-22T09:12:06.118Z</time>
      </trkpt>
      <trkpt lat="47.78689" lon="1.97348">
        <ele>124</ele>
        <time>2017-01-22T09:12:07.144Z</time>
      </trkpt>
      <trkpt lat="47.78689" lon="1.97348">
        <ele>124</ele>
        <time>2017-01-22T09:12:08.143Z</time>
      </trkpt>
      <trkpt lat="47.78699" lon="1.9734">
        <ele>124</ele>
        <time>2017-01-22T09:12:09.122Z</time>
      </trkpt>
      <trkpt lat="47.78699" lon="1.9734">
        <ele>124</ele>
        <time>2017-01-22T09:12:10.129Z</time>
      </trkpt>
      <trkpt lat="47.7871" lon="1.97332">
        <ele>124</ele>
        <time>2017-01-22T09:12:11.142Z</time>
      </trkpt>
      <trkpt lat="47.7871" lon="1.97332">
        <ele>124</ele>
        <time>2017-01-22T09:12:12.148Z</time>
      </trkpt>
      <trkpt lat="47.78721" lon="1.97324">
        <ele>124</ele>
        <time>2017-01-22T09:12:13.154Z</time>
      </trkpt>
      <trkpt lat="47.78727" lon="1.9732">
        <ele>124</ele>
        <time>2017-01-22T09:12:14.123Z</time>
      </trkpt>
      <trkpt lat="47.78732" lon="1.97316">
        <ele>124</ele>
        <time>2017-01-22T09:12:15.151Z</time>
      </trkpt>
      <trkpt lat="47.78732" lon="1.97316">
        <ele>124</ele>
        <time>2017-01-22T09:12:16.157Z</time>
      </trkpt>
      <trkpt lat="47.78742" lon="1.97308">
        <ele>124</ele>
        <time>2017-01-22T09:12:17.123Z</time>
      </trkpt>
      <trkpt lat="47.78748" lon="1.97304">
        <ele>124</ele>
        <time>2017-01-22T09:12:18.140Z</time>
      </trkpt>
      <trkpt lat="47.78748" lon="1.97304">
        <ele>124</ele>
        <time>2017-01-22T09:12:19.147Z</time>
      </trkpt>
      <trkpt lat="47.78761" lon="1.97295">
        <ele>124</ele>
        <time>2017-01-22T09:12:20.154Z</time>
      </trkpt>
      <trkpt lat="47.78767" lon="1.97291">
        <ele>123</ele>
        <time>2017-01-22T09:12:21.146Z</time>
      </trkpt>
      <trkpt lat="47.78773" lon="1.97287">
        <ele>123</ele>
        <time>2017-01-22T09:12:22.153Z</time>
      </trkpt>
      <trkpt lat="47.78773" lon="1.97287">
        <ele>123</ele>
        <time>2017-01-22T09:12:23.120Z</time>
      </trkpt>
      <trkpt lat="47.78783" lon="1.97279">
        <ele>123</ele>
        <time>2017-01-22T09:12:24.127Z</time>
      </trkpt>
      <trkpt lat="47.78783" lon="1.97279">
        <ele>123</ele>
        <time>2017-01-22T09:12:25.156Z</time>
      </trkpt>
      <trkpt lat="47.78792" lon="1.97272">
        <ele>123</ele>
        <time>2017-01-22T09:12:26.124Z</time>
      </trkpt>
      <trkpt lat="47.78792" lon="1.97272">
        <ele>123</ele>
        <time>2017-01-22T09:12:27.147Z</time>
      </trkpt>
      <trkpt lat="47.78802" lon="1.97265">
        <ele>123</ele>
        <time>2017-01-22T09:12:28.153Z</time>
      </trkpt>
      <trkpt lat="47.78802" lon="1.97265">
        <ele>123</ele>
        <time>2017-01-22T09:12:29.125Z</time>
      </trkpt>
      <trkpt lat="47.78812" lon="1.97257">
        <ele>124</ele>
        <time>2017-01-22T09:12:30.132Z</time>
      </trkpt>
      <trkpt lat="47.78812" lon="1.97257">
        <ele>124</ele>
        <time>2017-01-22T09:12:31.143Z</time>
      </trkpt>
      <trkpt lat="47.78823" lon="1.9725">
        <ele>123</ele>
        <time>2017-01-22T09:12:32.152Z</time>
      </trkpt>
      <trkpt lat="47.78828" lon="1.97245">
        <ele>123</ele>
        <time>2017-01-22T09:12:33.148Z</time>
      </trkpt>
      <trkpt lat="47.78828" lon="1.97245">
        <ele>123</ele>
        <time>2017-01-22T09:12:34.154Z</time>
      </trkpt>
      <trkpt lat="47.78839" lon="1.97238">
        <ele>122</ele>
        <time>2017-01-22T09:12:35.121Z</time>
      </trkpt>
      <trkpt lat="47.78839" lon="1.97238">
        <ele>122</ele>
        <time>2017-01-22T09:12:36.127Z</time>
      </trkpt>
      <trkpt lat="47.78849" lon="1.97231">
        <ele>122</ele>
        <time>2017-01-22T09:12:37.135Z</time>
      </trkpt>
      <trkpt lat="47.78854" lon="1.97227">
        <ele>121</ele>
        <time>2017-01-22T09:12:38.142Z</time>
      </trkpt>
      <trkpt lat="47.78854" lon="1.97227">
        <ele>121</ele>
        <time>2017-01-22T09:12:39.150Z</time>
      </trkpt>
      <trkpt lat="47.78865" lon="1.97218">
        <ele>120</ele>
        <time>2017-01-22T09:12:40.153Z</time>
      </trkpt>
      <trkpt lat="47.78865" lon="1.97218">
        <ele>120</ele>
        <time>2017-01-22T09:12:41.119Z</time>
      </trkpt>
      <trkpt lat="47.78876" lon="1.9721">
        <ele>119</ele>
        <time>2017-01-22T09:12:42.126Z</time>
      </trkpt>
      <trkpt lat="47.78876" lon="1.9721">
        <ele>119</ele>
        <time>2017-01-22T09:12:43.132Z</time>
      </trkpt>
      <trkpt lat="47.78886" lon="1.97202">
        <ele>119</ele>
        <time>2017-01-22T09:12:44.156Z</time>
      </trkpt>
      <trkpt lat="47.78886" lon="1.97202">
        <ele>119</ele>
        <time>2017-01-22T09:12:45.122Z</time>
      </trkpt>
      <trkpt lat="47.78897" lon="1.97194">
        <ele>119</ele>
        <time>2017-01-22T09:12:46.124Z</time>
      </trkpt>
      <trkpt lat="47.78897" lon="1.97194">
        <ele>119</ele>
        <time>2017-01-22T09:12:47.122Z</time>
      </trkpt>
      <trkpt lat="47.78908" lon="1.97185">
        <ele>118</ele>
        <time>2017-01-22T09:12:48.119Z</time>
      </trkpt>
      <trkpt lat="47.78908" lon="1.97185">
        <ele>118</ele>
        <time>2017-01-22T09:12:49.126Z</time>
      </trkpt>
      <trkpt lat="47.7892" lon="1.97176">
        <ele>117</ele>
        <time>2017-01-22T09:12:50.143Z</time>
      </trkpt>
      <trkpt lat="47.78926" lon="1.97172">
        <ele>117</ele>
        <time>2017-01-22T09:12:51.130Z</time>
      </trkpt>
      <trkpt lat="47.78926" lon="1.97172">
        <ele>117</ele>
        <time>2017-01-22T09:12:52.136Z</time>
      </trkpt>
      <trkpt lat="47.78936" lon="1.97164">
        <ele>117</ele>
        <time>2017-01-22T09:12:53.151Z</time>
      </trkpt>
      <trkpt lat="47.78941" lon="1.9716">
        <ele>117</ele>
        <time>2017-01-22T09:12:54.118Z</time>
      </trkpt>
      <trkpt lat="47.78941" lon="1.9716">
        <ele>117</ele>
        <time>2017-01-22T09:12:55.122Z</time>
      </trkpt>
      <trkpt lat="47.78952" lon="1.97151">
        <ele>118</ele>
        <time>2017-01-22T09:12:56.152Z</time>
      </trkpt>
      <trkpt lat="47.78957" lon="1.97147">
        <ele>117</ele>
        <time>2017-01-22T09:12:57.120Z</time>
      </trkpt>
      <trkpt lat="47.78962" lon="1.97143">
        <ele>117</ele>
        <time>2017-01-22T09:12:58.127Z</time>
      </trkpt>
      <trkpt lat="47.78962" lon="1.97143">
        <ele>117</ele>
        <time>2017-01-22T09:12:59.134Z</time>
      </trkpt>
      <trkpt lat="47.78972" lon="1.97135">
        <ele>118</ele>
        <time>2017-01-22T09:13:00.140Z</time>
      </trkpt>
      <trkpt lat="47.78977" lon="1.97131">
        <ele>118</ele>
        <time>2017-01-22T09:13:01.124Z</time>
      </trkpt>
      <trkpt lat="47.78977" lon="1.97131">
        <ele>118</ele>
        <time>2017-01-22T09:13:02.155Z</time>
      </trkpt>
      <trkpt lat="47.78988" lon="1.97124">
        <ele>118</ele>
        <time>2017-01-22T09:13:03.151Z</time>
      </trkpt>
      <trkpt lat="47.78988" lon="1.97124">
        <ele>118</ele>
        <time>2017-01-22T09:13:04.131Z</time>
      </trkpt>
      <trkpt lat="47.78998" lon="1.97117">
        <ele>117</ele>
        <time>2017-01-22T09:13:05.143Z</time>
      </trkpt>
      <trkpt lat="47.78998" lon="1.97117">
        <ele>117</ele>
        <time>2017-01-22T09:13:06.134Z</time>
      </trkpt>
      <trkpt lat="47.79008" lon="1.97109">
        <ele>118</ele>
        <time>2017-01-22T09:13:07.138Z</time>
      </trkpt>
      <trkpt lat="47.79008" lon="1.97109">
        <ele>118</ele>
        <time>2017-01-22T09:13:08.144Z</time>
      </trkpt>
      <trkpt lat="47.79018" lon="1.97102">
        <ele>118</ele>
        <time>2017-01-22T09:13:09.154Z</time>
      </trkpt>
      <trkpt lat="47.79018" lon="1.97102">
        <ele>118</ele>
        <time>2017-01-22T09:13:10.120Z</time>
      </trkpt>
      <trkpt lat="47.79028" lon="1.97095">
        <ele>118</ele>
        <time>2017-01-22T09:13:11.154Z</time>
      </trkpt>
      <trkpt lat="47.79028" lon="1.97095">
        <ele>118</ele>
        <time>2017-01-22T09:13:12.120Z</time>
      </trkpt>
      <trkpt lat="47.79039" lon="1.9709">
        <ele>117</ele>
        <time>2017-01-22T09:13:13.126Z</time>
      </trkpt>
      <trkpt lat="47.79044" lon="1.97087">
        <ele>117</ele>
        <time>2017-01-22T09:13:14.144Z</time>
      </trkpt>
      <trkpt lat="47.79049" lon="1.97084">
        <ele>117</ele>
        <time>2017-01-22T09:13:15.150Z</time>
      </trkpt>
      <trkpt lat="47.79055" lon="1.97082">
        <ele>117</ele>
        <time>2017-01-22T09:13:16.157Z</time>
      </trkpt>
      <trkpt lat="47.7906" lon="1.97079">
        <ele>117</ele>
        <time>2017-01-22T09:13:17.130Z</time>
      </trkpt>
      <trkpt lat="47.7906" lon="1.97079">
        <ele>117</ele>
        <time>2017-01-22T09:13:18.136Z</time>
      </trkpt>
      <trkpt lat="47.79071" lon="1.97075">
        <ele>117</ele>
        <time>2017-01-22T09:13:19.154Z</time>
      </trkpt>
      <trkpt lat="47.79071" lon="1.97075">
        <ele>117</ele>
        <time>2017-01-22T09:13:20.120Z</time>
      </trkpt>
      <trkpt lat="47.79082" lon="1.9707">
        <ele>116</ele>
        <time>2017-01-22T09:13:21.134Z</time>
      </trkpt>
      <trkpt lat="47.79088" lon="1.97067">
        <ele>116</ele>
        <time>2017-01-22T09:13:22.144Z</time>
      </trkpt>
      <trkpt lat="47.79088" lon="1.97067">
        <ele>116</ele>
        <time>2017-01-22T09:13:23.150Z</time>
      </trkpt>
      <trkpt lat="47.791" lon="1.97062">
        <ele>116</ele>
        <time>2017-01-22T09:13:24.157Z</time>
      </trkpt>
      <trkpt lat="47.79105" lon="1.9706">
        <ele>115</ele>
        <time>2017-01-22T09:13:25.124Z</time>
      </trkpt>
      <trkpt lat="47.79105" lon="1.9706">
        <ele>115</ele>
        <time>2017-01-22T09:13:26.130Z</time>
      </trkpt>
      <trkpt lat="47.79117" lon="1.97055">
        <ele>115</ele>
        <time>2017-01-22T09:13:27.146Z</time>
      </trkpt>
      <trkpt lat="47.79122" lon="1.97052">
        <ele>115</ele>
        <time>2017-01-22T09:13:28.127Z</time>
      </trkpt>
      <trkpt lat="47.79122" lon="1.97052">
        <ele>115</ele>
        <time>2017-01-22T09:13:29.133Z</time>
      </trkpt>
      <trkpt lat="47.79134" lon="1.97047">
        <ele>115</ele>
        <time>2017-01-22T09:13:30.139Z</time>
      </trkpt>
      <trkpt lat="47.79134" lon="1.97047">
        <ele>115</ele>
        <time>2017-01-22T09:13:31.127Z</time>
      </trkpt>
      <trkpt lat="47.79145" lon="1.97041">
        <ele>115</ele>
        <time>2017-01-22T09:13:32.129Z</time>
      </trkpt>
      <trkpt lat="47.79145" lon="1.97041">
        <ele>115</ele>
        <time>2017-01-22T09:13:33.135Z</time>
      </trkpt>
      <trkpt lat="47.79156" lon="1.97036">
        <ele>115</ele>
        <time>2017-01-22T09:13:34.142Z</time>
      </trkpt>
      <trkpt lat="47.79156" lon="1.97036">
        <ele>115</ele>
        <time>2017-01-22T09:13:35.148Z</time>
      </trkpt>
      <trkpt lat="47.79167" lon="1.97031">
        <ele>115</ele>
        <time>2017-01-22T09:13:36.154Z</time>
      </trkpt>
      <trkpt lat="47.79167" lon="1.97031">
        <ele>115</ele>
        <time>2017-01-22T09:13:37.119Z</time>
      </trkpt>
      <trkpt lat="47.79178" lon="1.97026">
        <ele>115</ele>
        <time>2017-01-22T09:13:38.125Z</time>
      </trkpt>
      <trkpt lat="47.79178" lon="1.97026">
        <ele>115</ele>
        <time>2017-01-22T09:13:39.145Z</time>
      </trkpt>
      <trkpt lat="47.79188" lon="1.9702">
        <ele>115</ele>
        <time>2017-01-22T09:13:40.148Z</time>
      </trkpt>
      <trkpt lat="47.79188" lon="1.9702">
        <ele>115</ele>
        <time>2017-01-22T09:13:41.153Z</time>
      </trkpt>
      <trkpt lat="47.79199" lon="1.97015">
        <ele>114</ele>
        <time>2017-01-22T09:13:42.120Z</time>
      </trkpt>
      <trkpt lat="47.79205" lon="1.97012">
        <ele>114</ele>
        <time>2017-01-22T09:13:43.134Z</time>
      </trkpt>
      <trkpt lat="47.7921" lon="1.97009">
        <ele>114</ele>
        <time>2017-01-22T09:13:44.151Z</time>
      </trkpt>
      <trkpt lat="47.7921" lon="1.97009">
        <ele>114</ele>
        <time>2017-01-22T09:13:45.157Z</time>
      </trkpt>
      <trkpt lat="47.79221" lon="1.97005">
        <ele>113</ele>
        <time>2017-01-22T09:13:46.124Z</time>
      </trkpt>
      <trkpt lat="47.79221" lon="1.97005">
        <ele>113</ele>
        <time>2017-01-22T09:13:47.130Z</time>
      </trkpt>
      <trkpt lat="47.79232" lon="1.97">
        <ele>113</ele>
        <time>2017-01-22T09:13:48.123Z</time>
      </trkpt>
      <trkpt lat="47.79232" lon="1.97">
        <ele>113</ele>
        <time>2017-01-22T09:13:49.132Z</time>
      </trkpt>
      <trkpt lat="47.79243" lon="1.96996">
        <ele>114</ele>
        <time>2017-01-22T09:13:50.139Z</time>
      </trkpt>
      <trkpt lat="47.79243" lon="1.96996">
        <ele>114</ele>
        <time>2017-01-22T09:13:51.153Z</time>
      </trkpt>
      <trkpt lat="47.79254" lon="1.96992">
        <ele>114</ele>
        <time>2017-01-22T09:13:52.145Z</time>
      </trkpt>
      <trkpt lat="47.7926" lon="1.9699">
        <ele>114</ele>
        <time>2017-01-22T09:13:53.153Z</time>
      </trkpt>
      <trkpt lat="47.7926" lon="1.9699">
        <ele>114</ele>
        <time>2017-01-22T09:13:54.118Z</time>
      </trkpt>
      <trkpt lat="47.79272" lon="1.96986">
        <ele>113</ele>
        <time>2017-01-22T09:13:55.155Z</time>
      </trkpt>
      <trkpt lat="47.79272" lon="1.96986">
        <ele>113</ele>
        <time>2017-01-22T09:13:56.120Z</time>
      </trkpt>
      <trkpt lat="47.79283" lon="1.96981">
        <ele>113</ele>
        <time>2017-01-22T09:13:57.128Z</time>
      </trkpt>
      <trkpt lat="47.79283" lon="1.96981">
        <ele>113</ele>
        <time>2017-01-22T09:13:58.133Z</time>
      </trkpt>
      <trkpt lat="47.79295" lon="1.96977">
        <ele>112</ele>
        <time>2017-01-22T09:13:59.118Z</time>
      </trkpt>
      <trkpt lat="47.793" lon="1.96974">
        <ele>112</ele>
        <time>2017-01-22T09:14:00.134Z</time>
      </trkpt>
      <trkpt lat="47.793" lon="1.96974">
        <ele>112</ele>
        <time>2017-01-22T09:14:01.139Z</time>
      </trkpt>
      <trkpt lat="47.7931" lon="1.9697">
        <ele>112</ele>
        <time>2017-01-22T09:14:02.135Z</time>
      </trkpt>
      <trkpt lat="47.7931" lon="1.9697">
        <ele>112</ele>
        <time>2017-01-22T09:14:03.141Z</time>
      </trkpt>
      <trkpt lat="47.79321" lon="1.96965">
        <ele>113</ele>
        <time>2017-01-22T09:14:04.126Z</time>
      </trkpt>
      <trkpt lat="47.79321" lon="1.96965">
        <ele>113</ele>
        <time>2017-01-22T09:14:05.135Z</time>
      </trkpt>
      <trkpt lat="47.79331" lon="1.96961">
        <ele>113</ele>
        <time>2017-01-22T09:14:06.142Z</time>
      </trkpt>
      <trkpt lat="47.79331" lon="1.96961">
        <ele>113</ele>
        <time>2017-01-22T09:14:07.119Z</time>
      </trkpt>
      <trkpt lat="47.79342" lon="1.96956">
        <ele>113</ele>
        <time>2017-01-22T09:14:08.141Z</time>
      </trkpt>
      <trkpt lat="47.79342" lon="1.96956">
        <ele>113</ele>
        <time>2017-01-22T09:14:09.150Z</time>
      </trkpt>
      <trkpt lat="47.79352" lon="1.96951">
        <ele>114</ele>
        <time>2017-01-22T09:14:10.156Z</time>
      </trkpt>
      <trkpt lat="47.79358" lon="1.96948">
        <ele>114</ele>
        <time>2017-01-22T09:14:11.154Z</time>
      </trkpt>
      <trkpt lat="47.79358" lon="1.96948">
        <ele>114</ele>
        <time>2017-01-22T09:14:12.119Z</time>
      </trkpt>
      <trkpt lat="47.79368" lon="1.96943">
        <ele>115</ele>
        <time>2017-01-22T09:14:13.126Z</time>
      </trkpt>
      <trkpt lat="47.79373" lon="1.96941">
        <ele>115</ele>
        <time>2017-01-22T09:14:14.155Z</time>
      </trkpt>
      <trkpt lat="47.79373" lon="1.96941">
        <ele>115</ele>
        <time>2017-01-22T09:14:15.121Z</time>
      </trkpt>
      <trkpt lat="47.79383" lon="1.96937">
        <ele>116</ele>
        <time>2017-01-22T09:14:16.141Z</time>
      </trkpt>
      <trkpt lat="47.79388" lon="1.96935">
        <ele>117</ele>
        <time>2017-01-22T09:14:17.156Z</time>
      </trkpt>
      <trkpt lat="47.79388" lon="1.96935">
        <ele>117</ele>
        <time>2017-01-22T09:14:18.121Z</time>
      </trkpt>
      <trkpt lat="47.79399" lon="1.96929">
        <ele>118</ele>
        <time>2017-01-22T09:14:19.155Z</time>
      </trkpt>
      <trkpt lat="47.79405" lon="1.96926">
        <ele>119</ele>
        <time>2017-01-22T09:14:20.145Z</time>
      </trkpt>
      <trkpt lat="47.79405" lon="1.96926">
        <ele>119</ele>
        <time>2017-01-22T09:14:21.151Z</time>
      </trkpt>
      <trkpt lat="47.79417" lon="1.96921">
        <ele>119</ele>
        <time>2017-01-22T09:14:22.118Z</time>
      </trkpt>
      <trkpt lat="47.79417" lon="1.96921">
        <ele>119</ele>
        <time>2017-01-22T09:14:23.124Z</time>
      </trkpt>
      <trkpt lat="47.79428" lon="1.96915">
        <ele>120</ele>
        <time>2017-01-22T09:14:24.131Z</time>
      </trkpt>
      <trkpt lat="47.79428" lon="1.96915">
        <ele>120</ele>
        <time>2017-01-22T09:14:25.137Z</time>
      </trkpt>
      <trkpt lat="47.79439" lon="1.9691">
        <ele>122</ele>
        <time>2017-01-22T09:14:26.154Z</time>
      </trkpt>
      <trkpt lat="47.79444" lon="1.96908">
        <ele>122</ele>
        <time>2017-01-22T09:14:27.149Z</time>
      </trkpt>
      <trkpt lat="47.79444" lon="1.96908">
        <ele>122</ele>
        <time>2017-01-22T09:14:28.130Z</time>
      </trkpt>
      <trkpt lat="47.79452" lon="1.96904">
        <ele>122</ele>
        <time>2017-01-22T09:14:29.144Z</time>
      </trkpt>
      <trkpt lat="47.79457" lon="1.96902">
        <ele>122</ele>
        <time>2017-01-22T09:14:30.151Z</time>
      </trkpt>
      <trkpt lat="47.79457" lon="1.96902">
        <ele>122</ele>
        <time>2017-01-22T09:14:31.157Z</time>
      </trkpt>
      <trkpt lat="47.79466" lon="1.96898">
        <ele>122</ele>
        <time>2017-01-22T09:14:32.154Z</time>
      </trkpt>
      <trkpt lat="47.7947" lon="1.96896">
        <ele>122</ele>
        <time>2017-01-22T09:14:33.144Z</time>
      </trkpt>
      <trkpt lat="47.7947" lon="1.96896">
        <ele>122</ele>
        <time>2017-01-22T09:14:34.156Z</time>
      </trkpt>
      <trkpt lat="47.7948" lon="1.96891">
        <ele>121</ele>
        <time>2017-01-22T09:14:35.123Z</time>
      </trkpt>
      <trkpt lat="47.7948" lon="1.96891">
        <ele>121</ele>
        <time>2017-01-22T09:14:36.129Z</time>
      </trkpt>
      <trkpt lat="47.7949" lon="1.96887">
        <ele>121</ele>
        <time>2017-01-22T09:14:37.126Z</time>
      </trkpt>
      <trkpt lat="47.7949" lon="1.96887">
        <ele>121</ele>
        <time>2017-01-22T09:14:38.132Z</time>
      </trkpt>
      <trkpt lat="47.79501" lon="1.96883">
        <ele>120</ele>
        <time>2017-01-22T09:14:39.144Z</time>
      </trkpt>
      <trkpt lat="47.79501" lon="1.96883">
        <ele>120</ele>
        <time>2017-01-22T09:14:40.125Z</time>
      </trkpt>
      <trkpt lat="47.7951" lon="1.96878">
        <ele>120</ele>
        <time>2017-01-22T09:14:41.150Z</time>
      </trkpt>
      <trkpt lat="47.7951" lon="1.96878">
        <ele>120</ele>
        <time>2017-01-22T09:14:42.155Z</time>
      </trkpt>
      <trkpt lat="47.79521" lon="1.96873">
        <ele>120</ele>
        <time>2017-01-22T09:14:43.127Z</time>
      </trkpt>
      <trkpt lat="47.79521" lon="1.96873">
        <ele>120</ele>
        <time>2017-01-22T09:14:44.135Z</time>
      </trkpt>
      <trkpt lat="47.79532" lon="1.96868">
        <ele>119</ele>
        <time>2017-01-22T09:14:45.127Z</time>
      </trkpt>
      <trkpt lat="47.79532" lon="1.96868">
        <ele>119</ele>
        <time>2017-01-22T09:14:46.133Z</time>
      </trkpt>
      <trkpt lat="47.79543" lon="1.96863">
        <ele>119</ele>
        <time>2017-01-22T09:14:47.143Z</time>
      </trkpt>
      <trkpt lat="47.79548" lon="1.9686">
        <ele>118</ele>
        <time>2017-01-22T09:14:48.140Z</time>
      </trkpt>
      <trkpt lat="47.79548" lon="1.9686">
        <ele>118</ele>
        <time>2017-01-22T09:14:49.148Z</time>
      </trkpt>
      <trkpt lat="47.79558" lon="1.96855">
        <ele>118</ele>
        <time>2017-01-22T09:14:50.154Z</time>
      </trkpt>
      <trkpt lat="47.79558" lon="1.96855">
        <ele>118</ele>
        <time>2017-01-22T09:14:51.120Z</time>
      </trkpt>
      <trkpt lat="47.79568" lon="1.96849">
        <ele>117</ele>
        <time>2017-01-22T09:14:52.129Z</time>
      </trkpt>
      <trkpt lat="47.79568" lon="1.96849">
        <ele>117</ele>
        <time>2017-01-22T09:14:53.135Z</time>
      </trkpt>
      <trkpt lat="47.7958" lon="1.96843">
        <ele>117</ele>
        <time>2017-01-22T09:14:54.147Z</time>
      </trkpt>
      <trkpt lat="47.7958" lon="1.96843">
        <ele>117</ele>
        <time>2017-01-22T09:14:55.155Z</time>
      </trkpt>
      <trkpt lat="47.7959" lon="1.96839">
        <ele>117</ele>
        <time>2017-01-22T09:14:56.150Z</time>
      </trkpt>
      <trkpt lat="47.7959" lon="1.96839">
        <ele>117</ele>
        <time>2017-01-22T09:14:57.157Z</time>
      </trkpt>
      <trkpt lat="47.79601" lon="1.96834">
        <ele>117</ele>
        <time>2017-01-22T09:14:58.127Z</time>
      </trkpt>
      <trkpt lat="47.79601" lon="1.96834">
        <ele>117</ele>
        <time>2017-01-22T09:14:59.154Z</time>
      </trkpt>
      <trkpt lat="47.79612" lon="1.96828">
        <ele>117</ele>
        <time>2017-01-22T09:15:00.155Z</time>
      </trkpt>
      <trkpt lat="47.79612" lon="1.96828">
        <ele>117</ele>
        <time>2017-01-22T09:15:01.121Z</time>
      </trkpt>
      <trkpt lat="47.79623" lon="1.96823">
        <ele>118</ele>
        <time>2017-01-22T09:15:02.132Z</time>
      </trkpt>
      <trkpt lat="47.79628" lon="1.96821">
        <ele>118</ele>
        <time>2017-01-22T09:15:03.130Z</time>
      </trkpt>
      <trkpt lat="47.79628" lon="1.96821">
        <ele>118</ele>
        <time>2017-01-22T09:15:04.147Z</time>
      </trkpt>
      <trkpt lat="47.79638" lon="1.96816">
        <ele>119</ele>
        <time>2017-01-22T09:15:05.147Z</time>
      </trkpt>
      <trkpt lat="47.79643" lon="1.96814">
        <ele>119</ele>
        <time>2017-01-22T09:15:06.154Z</time>
      </trkpt>
      <trkpt lat="47.79643" lon="1.96814">
        <ele>119</ele>
        <time>2017-01-22T09:15:07.121Z</time>
      </trkpt>
      <trkpt lat="47.79652" lon="1.9681">
        <ele>119</ele>
        <time>2017-01-22T09:15:08.135Z</time>
      </trkpt>
      <trkpt lat="47.79657" lon="1.96808">
        <ele>118</ele>
        <time>2017-01-22T09:15:09.135Z</time>
      </trkpt>
      <trkpt lat="47.79657" lon="1.96808">
        <ele>118</ele>
        <time>2017-01-22T09:15:10.141Z</time>
      </trkpt>
      <trkpt lat="47.79667" lon="1.96804">
        <ele>119</ele>
        <time>2017-01-22T09:15:11.154Z</time>
      </trkpt>
      <trkpt lat="47.79672" lon="1.96802">
        <ele>119</ele>
        <time>2017-01-22T09:15:12.156Z</time>
      </trkpt>
      <trkpt lat="47.79672" lon="1.96802">
        <ele>119</ele>
        <time>2017-01-22T09:15:13.122Z</time>
      </trkpt>
      <trkpt lat="47.79683" lon="1.96797">
        <ele>120</ele>
        <time>2017-01-22T09:15:14.130Z</time>
      </trkpt>
      <trkpt lat="47.79683" lon="1.96797">
        <ele>120</ele>
        <time>2017-01-22T09:15:15.136Z</time>
      </trkpt>
      <trkpt lat="47.79693" lon="1.96794">
        <ele>120</ele>
        <time>2017-01-22T09:15:16.129Z</time>
      </trkpt>
      <trkpt lat="47.79693" lon="1.96794">
        <ele>120</ele>
        <time>2017-01-22T09:15:17.136Z</time>
      </trkpt>
      <trkpt lat="47.79703" lon="1.9679">
        <ele>120</ele>
        <time>2017-01-22T09:15:18.154Z</time>
      </trkpt>
      <trkpt lat="47.79703" lon="1.9679">
        <ele>120</ele>
        <time>2017-01-22T09:15:19.124Z</time>
      </trkpt>
      <trkpt lat="47.79714" lon="1.96786">
        <ele>120</ele>
        <time>2017-01-22T09:15:20.134Z</time>
      </trkpt>
      <trkpt lat="47.79714" lon="1.96786">
        <ele>120</ele>
        <time>2017-01-22T09:15:21.143Z</time>
      </trkpt>
      <trkpt lat="47.79725" lon="1.96782">
        <ele>120</ele>
        <time>2017-01-22T09:15:22.150Z</time>
      </trkpt>
      <trkpt lat="47.79725" lon="1.96782">
        <ele>120</ele>
        <time>2017-01-22T09:15:23.156Z</time>
      </trkpt>
      <trkpt lat="47.79736" lon="1.9678">
        <ele>120</ele>
        <time>2017-01-22T09:15:24.137Z</time>
      </trkpt>
      <trkpt lat="47.79736" lon="1.9678">
        <ele>120</ele>
        <time>2017-01-22T09:15:25.142Z</time>
      </trkpt>
      <trkpt lat="47.79748" lon="1.96776">
        <ele>120</ele>
        <time>2017-01-22T09:15:26.153Z</time>
      </trkpt>
      <trkpt lat="47.79754" lon="1.96774">
        <ele>120</ele>
        <time>2017-01-22T09:15:27.131Z</time>
      </trkpt>
      <trkpt lat="47.79754" lon="1.96774">
        <ele>120</ele>
        <time>2017-01-22T09:15:28.136Z</time>
      </trkpt>
      <trkpt lat="47.79764" lon="1.96772">
        <ele>119</ele>
        <time>2017-01-22T09:15:29.154Z</time>
      </trkpt>
      <trkpt lat="47.7977" lon="1.96771">
        <ele>120</ele>
        <time>2017-01-22T09:15:30.121Z</time>
      </trkpt>
      <trkpt lat="47.7977" lon="1.96771">
        <ele>120</ele>
        <time>2017-01-22T09:15:31.128Z</time>
      </trkpt>
      <trkpt lat="47.7978" lon="1.96768">
        <ele>119</ele>
        <time>2017-01-22T09:15:32.124Z</time>
      </trkpt>
      <trkpt lat="47.79786" lon="1.96767">
        <ele>119</ele>
        <time>2017-01-22T09:15:33.131Z</time>
      </trkpt>
      <trkpt lat="47.79786" lon="1.96767">
        <ele>119</ele>
        <time>2017-01-22T09:15:34.137Z</time>
      </trkpt>
      <trkpt lat="47.79796" lon="1.96764">
        <ele>119</ele>
        <time>2017-01-22T09:15:35.150Z</time>
      </trkpt>
      <trkpt lat="47.79801" lon="1.96762">
        <ele>119</ele>
        <time>2017-01-22T09:15:36.118Z</time>
      </trkpt>
      <trkpt lat="47.79806" lon="1.96761">
        <ele>119</ele>
        <time>2017-01-22T09:15:37.124Z</time>
      </trkpt>
      <trkpt lat="47.79806" lon="1.96761">
        <ele>119</ele>
        <time>2017-01-22T09:15:38.130Z</time>
      </trkpt>
      <trkpt lat="47.79817" lon="1.96758">
        <ele>119</ele>
        <time>2017-01-22T09:15:39.137Z</time>
      </trkpt>
      <trkpt lat="47.79822" lon="1.96756">
        <ele>118</ele>
        <time>2017-01-22T09:15:40.153Z</time>
      </trkpt>
      <trkpt lat="47.79822" lon="1.96756">
        <ele>118</ele>
        <time>2017-01-22T09:15:41.148Z</time>
      </trkpt>
      <trkpt lat="47.79833" lon="1.96753">
        <ele>118</ele>
        <time>2017-01-22T09:15:42.123Z</time>
      </trkpt>
      <trkpt lat="47.79833" lon="1.96753">
        <ele>118</ele>
        <time>2017-01-22T09:15:43.129Z</time>
      </trkpt>
      <trkpt lat="47.79844" lon="1.9675">
        <ele>118</ele>
        <time>2017-01-22T09:15:44.136Z</time>
      </trkpt>
      <trkpt lat="47.79844" lon="1.9675">
        <ele>118</ele>
        <time>2017-01-22T09:15:45.142Z</time>
      </trkpt>
      <trkpt lat="47.79855" lon="1.96748">
        <ele>118</ele>
        <time>2017-01-22T09:15:46.137Z</time>
      </trkpt>
      <trkpt lat="47.79855" lon="1.96748">
        <ele>118</ele>
        <time>2017-01-22T09:15:47.143Z</time>
      </trkpt>
      <trkpt lat="47.79865" lon="1.96745">
        <ele>118</ele>
        <time>2017-01-22T09:15:48.118Z</time>
      </trkpt>
      <trkpt lat="47.79871" lon="1.96744">
        <ele>118</ele>
        <time>2017-01-22T09:15:49.152Z</time>
      </trkpt>
      <trkpt lat="47.79871" lon="1.96744">
        <ele>118</ele>
        <time>2017-01-22T09:15:50.118Z</time>
      </trkpt>
      <trkpt lat="47.79882" lon="1.96742">
        <ele>117</ele>
        <time>2017-01-22T09:15:51.154Z</time>
      </trkpt>
      <trkpt lat="47.79888" lon="1.96741">
        <ele>117</ele>
        <time>2017-01-22T09:15:52.122Z</time>
      </trkpt>
      <trkpt lat="47.79888" lon="1.96741">
        <ele>117</ele>
        <time>2017-01-22T09:15:53.128Z</time>
      </trkpt>
      <trkpt lat="47.79898" lon="1.96738">
        <ele>117</ele>
        <time>2017-01-22T09:15:54.135Z</time>
      </trkpt>
      <trkpt lat="47.79898" lon="1.96738">
        <ele>117</ele>
        <time>2017-01-22T09:15:55.144Z</time>
      </trkpt>
      <trkpt lat="47.79909" lon="1.96736">
        <ele>117</ele>
        <time>2017-01-22T09:15:56.145Z</time>
      </trkpt>
      <trkpt lat="47.79909" lon="1.96736">
        <ele>117</ele>
        <time>2017-01-22T09:15:57.151Z</time>
      </trkpt>
      <trkpt lat="47.7992" lon="1.96733">
        <ele>118</ele>
        <time>2017-01-22T09:15:58.121Z</time>
      </trkpt>
      <trkpt lat="47.7992" lon="1.96733">
        <ele>118</ele>
        <time>2017-01-22T09:15:59.127Z</time>
      </trkpt>
      <trkpt lat="47.79931" lon="1.9673">
        <ele>117</ele>
        <time>2017-01-22T09:16:00.130Z</time>
      </trkpt>
      <trkpt lat="47.79931" lon="1.9673">
        <ele>117</ele>
        <time>2017-01-22T09:16:01.137Z</time>
      </trkpt>
      <trkpt lat="47.79941" lon="1.96727">
        <ele>118</ele>
        <time>2017-01-22T09:16:02.147Z</time>
      </trkpt>
      <trkpt lat="47.79946" lon="1.96726">
        <ele>118</ele>
        <time>2017-01-22T09:16:03.119Z</time>
      </trkpt>
      <trkpt lat="47.79946" lon="1.96726">
        <ele>118</ele>
        <time>2017-01-22T09:16:04.154Z</time>
      </trkpt>
      <trkpt lat="47.79958" lon="1.96723">
        <ele>119</ele>
        <time>2017-01-22T09:16:05.148Z</time>
      </trkpt>
      <trkpt lat="47.79963" lon="1.96721">
        <ele>119</ele>
        <time>2017-01-22T09:16:06.154Z</time>
      </trkpt>
      <trkpt lat="47.79963" lon="1.96721">
        <ele>119</ele>
        <time>2017-01-22T09:16:07.120Z</time>
      </trkpt>
      <trkpt lat="47.79974" lon="1.96718">
        <ele>120</ele>
        <time>2017-01-22T09:16:08.131Z</time>
      </trkpt>
      <trkpt lat="47.79979" lon="1.96717">
        <ele>121</ele>
        <time>2017-01-22T09:16:09.133Z</time>
      </trkpt>
      <trkpt lat="47.79979" lon="1.96717">
        <ele>121</ele>
        <time>2017-01-22T09:16:10.140Z</time>
      </trkpt>
      <trkpt lat="47.7999" lon="1.96713">
        <ele>123</ele>
        <time>2017-01-22T09:16:11.134Z</time>
      </trkpt>
      <trkpt lat="47.79995" lon="1.9671">
        <ele>124</ele>
        <time>2017-01-22T09:16:12.141Z</time>
      </trkpt>
      <trkpt lat="47.79995" lon="1.9671">
        <ele>124</ele>
        <time>2017-01-22T09:16:13.148Z</time>
      </trkpt>
      <trkpt lat="47.80006" lon="1.96707">
        <ele>125</ele>
        <time>2017-01-22T09:16:14.140Z</time>
      </trkpt>
      <trkpt lat="47.80006" lon="1.96707">
        <ele>125</ele>
        <time>2017-01-22T09:16:15.147Z</time>
      </trkpt>
      <trkpt lat="47.80016" lon="1.96703">
        <ele>127</ele>
        <time>2017-01-22T09:16:16.154Z</time>
      </trkpt>
      <trkpt lat="47.80022" lon="1.96701">
        <ele>128</ele>
        <time>2017-01-22T09:16:17.134Z</time>
      </trkpt>
      <trkpt lat="47.80022" lon="1.96701">
        <ele>128</ele>
        <time>2017-01-22T09:16:18.140Z</time>
      </trkpt>
      <trkpt lat="47.80033" lon="1.96696">
        <ele>129</ele>
        <time>2017-01-22T09:16:19.153Z</time>
      </trkpt>
      <trkpt lat="47.80033" lon="1.96696">
        <ele>129</ele>
        <time>2017-01-22T09:16:20.119Z</time>
      </trkpt>
      <trkpt lat="47.80044" lon="1.96692">
        <ele>130</ele>
        <time>2017-01-22T09:16:21.152Z</time>
      </trkpt>
      <trkpt lat="47.80044" lon="1.96692">
        <ele>130</ele>
        <time>2017-01-22T09:16:22.118Z</time>
      </trkpt>
      <trkpt lat="47.80055" lon="1.96687">
        <ele>132</ele>
        <time>2017-01-22T09:16:23.124Z</time>
      </trkpt>
      <trkpt lat="47.8006" lon="1.96685">
        <ele>132</ele>
        <time>2017-01-22T09:16:24.148Z</time>
      </trkpt>
      <trkpt lat="47.8006" lon="1.96685">
        <ele>132</ele>
        <time>2017-01-22T09:16:25.155Z</time>
      </trkpt>
      <trkpt lat="47.8007" lon="1.9668">
        <ele>134</ele>
        <time>2017-01-22T09:16:26.121Z</time>
      </trkpt>
      <trkpt lat="47.8007" lon="1.9668">
        <ele>134</ele>
        <time>2017-01-22T09:16:27.127Z</time>
      </trkpt>
      <trkpt lat="47.80081" lon="1.96675">
        <ele>135</ele>
        <time>2017-01-22T09:16:28.133Z</time>
      </trkpt>
      <trkpt lat="47.80087" lon="1.96674">
        <ele>135</ele>
        <time>2017-01-22T09:16:29.121Z</time>
      </trkpt>
      <trkpt lat="47.80087" lon="1.96674">
        <ele>135</ele>
        <time>2017-01-22T09:16:30.127Z</time>
      </trkpt>
      <trkpt lat="47.80098" lon="1.9667">
        <ele>136</ele>
        <time>2017-01-22T09:16:31.144Z</time>
      </trkpt>
      <trkpt lat="47.80098" lon="1.9667">
        <ele>136</ele>
        <time>2017-01-22T09:16:32.150Z</time>
      </trkpt>
      <trkpt lat="47.8011" lon="1.96666">
        <ele>137</ele>
        <time>2017-01-22T09:16:33.127Z</time>
      </trkpt>
      <trkpt lat="47.80116" lon="1.96664">
        <ele>137</ele>
        <time>2017-01-22T09:16:34.151Z</time>
      </trkpt>
      <trkpt lat="47.80116" lon="1.96664">
        <ele>137</ele>
        <time>2017-01-22T09:16:35.157Z</time>
      </trkpt>
      <trkpt lat="47.80127" lon="1.9666">
        <ele>138</ele>
        <time>2017-01-22T09:16:36.133Z</time>
      </trkpt>
      <trkpt lat="47.80127" lon="1.9666">
        <ele>138</ele>
        <time>2017-01-22T09:16:37.120Z</time>
      </trkpt>
      <trkpt lat="47.80138" lon="1.96656">
        <ele>139</ele>
        <time>2017-01-22T09:16:38.155Z</time>
      </trkpt>
      <trkpt lat="47.80138" lon="1.96656">
        <ele>139</ele>
        <time>2017-01-22T09:16:39.120Z</time>
      </trkpt>
      <trkpt lat="47.80149" lon="1.96651">
        <ele>140</ele>
        <time>2017-01-22T09:16:40.127Z</time>
      </trkpt>
      <trkpt lat="47.80149" lon="1.96651">
        <ele>140</ele>
        <time>2017-01-22T09:16:41.132Z</time>
      </trkpt>
      <trkpt lat="47.80159" lon="1.96647">
        <ele>141</ele>
        <time>2017-01-22T09:16:42.152Z</time>
      </trkpt>
      <trkpt lat="47.80159" lon="1.96647">
        <ele>141</ele>
        <time>2017-01-22T09:16:43.118Z</time>
      </trkpt>
      <trkpt lat="47.80171" lon="1.96644">
        <ele>142</ele>
        <time>2017-01-22T09:16:44.125Z</time>
      </trkpt>
      <trkpt lat="47.80171" lon="1.96644">
        <ele>142</ele>
        <time>2017-01-22T09:16:45.131Z</time>
      </trkpt>
      <trkpt lat="47.80183" lon="1.96639">
        <ele>143</ele>
        <time>2017-01-22T09:16:46.121Z</time>
      </trkpt>
      <trkpt lat="47.80183" lon="1.96639">
        <ele>143</ele>
        <time>2017-01-22T09:16:47.127Z</time>
      </trkpt>
      <trkpt lat="47.80194" lon="1.96635">
        <ele>144</ele>
        <time>2017-01-22T09:16:48.134Z</time>
      </trkpt>
      <trkpt lat="47.80194" lon="1.96635">
        <ele>144</ele>
        <time>2017-01-22T09:16:49.146Z</time>
      </trkpt>
      <trkpt lat="47.80205" lon="1.96631">
        <ele>145</ele>
        <time>2017-01-22T09:16:50.132Z</time>
      </trkpt>
      <trkpt lat="47.80205" lon="1.96631">
        <ele>145</ele>
        <time>2017-01-22T09:16:51.138Z</time>
      </trkpt>
      <trkpt lat="47.80216" lon="1.96627">
        <ele>147</ele>
        <time>2017-01-22T09:16:52.147Z</time>
      </trkpt>
      <trkpt lat="47.80216" lon="1.96627">
        <ele>147</ele>
        <time>2017-01-22T09:16:53.153Z</time>
      </trkpt>
      <trkpt lat="47.80227" lon="1.96624">
        <ele>147</ele>
        <time>2017-01-22T09:16:54.144Z</time>
      </trkpt>
      <trkpt lat="47.80227" lon="1.96624">
        <ele>147</ele>
        <time>2017-01-22T09:16:55.150Z</time>
      </trkpt>
      <trkpt lat="47.80236" lon="1.96619">
        <ele>149</ele>
        <time>2017-01-22T09:16:56.156Z</time>
      </trkpt>
      <trkpt lat="47.80241" lon="1.96617">
        <ele>149</ele>
        <time>2017-01-22T09:16:57.144Z</time>
      </trkpt>
      <trkpt lat="47.80248" lon="1.96616">
        <ele>150</ele>
        <time>2017-01-22T09:16:58.121Z</time>
      </trkpt>
      <trkpt lat="47.80248" lon="1.96616">
        <ele>150</ele>
        <time>2017-01-22T09:16:59.134Z</time>
      </trkpt>
      <trkpt lat="47.8026" lon="1.96612">
        <ele>151</ele>
        <time>2017-01-22T09:17:00.156Z</time>
      </trkpt>
      <trkpt lat="47.8026" lon="1.96612">
        <ele>151</ele>
        <time>2017-01-22T09:17:01.121Z</time>
      </trkpt>
      <trkpt lat="47.8027" lon="1.96608">
        <ele>151</ele>
        <time>2017-01-22T09:17:02.128Z</time>
      </trkpt>
      <trkpt lat="47.80275" lon="1.96606">
        <ele>152</ele>
        <time>2017-01-22T09:17:03.134Z</time>
      </trkpt>
      <trkpt lat="47.80275" lon="1.96606">
        <ele>152</ele>
        <time>2017-01-22T09:17:04.153Z</time>
      </trkpt>
      <trkpt lat="47.80286" lon="1.96602">
        <ele>153</ele>
        <time>2017-01-22T09:17:05.144Z</time>
      </trkpt>
      <trkpt lat="47.80286" lon="1.96602">
        <ele>153</ele>
        <time>2017-01-22T09:17:06.150Z</time>
      </trkpt>
      <trkpt lat="47.80296" lon="1.96598">
        <ele>155</ele>
        <time>2017-01-22T09:17:07.121Z</time>
      </trkpt>
      <trkpt lat="47.80296" lon="1.96598">
        <ele>155</ele>
        <time>2017-01-22T09:17:08.127Z</time>
      </trkpt>
      <trkpt lat="47.80307" lon="1.96594">
        <ele>156</ele>
        <time>2017-01-22T09:17:09.124Z</time>
      </trkpt>
      <trkpt lat="47.80312" lon="1.96592">
        <ele>156</ele>
        <time>2017-01-22T09:17:10.130Z</time>
      </trkpt>
      <trkpt lat="47.80312" lon="1.96592">
        <ele>156</ele>
        <time>2017-01-22T09:17:11.136Z</time>
      </trkpt>
      <trkpt lat="47.80322" lon="1.96588">
        <ele>157</ele>
        <time>2017-01-22T09:17:12.125Z</time>
      </trkpt>
      <trkpt lat="47.80322" lon="1.96588">
        <ele>157</ele>
        <time>2017-01-22T09:17:13.131Z</time>
      </trkpt>
      <trkpt lat="47.80333" lon="1.96584">
        <ele>158</ele>
        <time>2017-01-22T09:17:14.140Z</time>
      </trkpt>
      <trkpt lat="47.80338" lon="1.96582">
        <ele>159</ele>
        <time>2017-01-22T09:17:15.134Z</time>
      </trkpt>
      <trkpt lat="47.80338" lon="1.96582">
        <ele>159</ele>
        <time>2017-01-22T09:17:16.141Z</time>
      </trkpt>
      <trkpt lat="47.80349" lon="1.96578">
        <ele>159</ele>
        <time>2017-01-22T09:17:17.125Z</time>
      </trkpt>
      <trkpt lat="47.80354" lon="1.96576">
        <ele>160</ele>
        <time>2017-01-22T09:17:18.154Z</time>
      </trkpt>
      <trkpt lat="47.80354" lon="1.96576">
        <ele>160</ele>
        <time>2017-01-22T09:17:19.120Z</time>
      </trkpt>
      <trkpt lat="47.80365" lon="1.96573">
        <ele>160</ele>
        <time>2017-01-22T09:17:20.153Z</time>
      </trkpt>
      <trkpt lat="47.8037" lon="1.9657">
        <ele>161</ele>
        <time>2017-01-22T09:17:21.129Z</time>
      </trkpt>
      <trkpt lat="47.8037" lon="1.9657">
        <ele>161</ele>
        <time>2017-01-22T09:17:22.135Z</time>
      </trkpt>
      <trkpt lat="47.80381" lon="1.96566">
        <ele>162</ele>
        <time>2017-01-22T09:17:23.149Z</time>
      </trkpt>
      <trkpt lat="47.80387" lon="1.96565">
        <ele>162</ele>
        <time>2017-01-22T09:17:24.121Z</time>
      </trkpt>
      <trkpt lat="47.80387" lon="1.96565">
        <ele>162</ele>
        <time>2017-01-22T09:17:25.127Z</time>
      </trkpt>
      <trkpt lat="47.80398" lon="1.96561">
        <ele>162</ele>
        <time>2017-01-22T09:17:26.145Z</time>
      </trkpt>
      <trkpt lat="47.80398" lon="1.96561">
        <ele>162</ele>
        <time>2017-01-22T09:17:27.152Z</time>
      </trkpt>
      <trkpt lat="47.80409" lon="1.96558">
        <ele>161</ele>
        <time>2017-01-22T09:17:28.119Z</time>
      </trkpt>
      <trkpt lat="47.80409" lon="1.96558">
        <ele>161</ele>
        <time>2017-01-22T09:17:29.125Z</time>
      </trkpt>
      <trkpt lat="47.80421" lon="1.96554">
        <ele>162</ele>
        <time>2017-01-22T09:17:30.126Z</time>
      </trkpt>
      <trkpt lat="47.80421" lon="1.96554">
        <ele>162</ele>
        <time>2017-01-22T09:17:31.132Z</time>
      </trkpt>
      <trkpt lat="47.80431" lon="1.9655">
        <ele>162</ele>
        <time>2017-01-22T09:17:32.139Z</time>
      </trkpt>
      <trkpt lat="47.80437" lon="1.96548">
        <ele>162</ele>
        <time>2017-01-22T09:17:33.139Z</time>
      </trkpt>
      <trkpt lat="47.80437" lon="1.96548">
        <ele>162</ele>
        <time>2017-01-22T09:17:34.129Z</time>
      </trkpt>
      <trkpt lat="47.80448" lon="1.96545">
        <ele>162</ele>
        <time>2017-01-22T09:17:35.132Z</time>
      </trkpt>
      <trkpt lat="47.80453" lon="1.96543">
        <ele>163</ele>
        <time>2017-01-22T09:17:36.139Z</time>
      </trkpt>
      <trkpt lat="47.80453" lon="1.96543">
        <ele>163</ele>
        <time>2017-01-22T09:17:37.146Z</time>
      </trkpt>
      <trkpt lat="47.80465" lon="1.96539">
        <ele>161</ele>
        <time>2017-01-22T09:17:38.152Z</time>
      </trkpt>
      <trkpt lat="47.8047" lon="1.96536">
        <ele>161</ele>
        <time>2017-01-22T09:17:39.124Z</time>
      </trkpt>
      <trkpt lat="47.8047" lon="1.96536">
        <ele>161</ele>
        <time>2017-01-22T09:17:40.130Z</time>
      </trkpt>
      <trkpt lat="47.80481" lon="1.9653">
        <ele>160</ele>
        <time>2017-01-22T09:17:41.154Z</time>
      </trkpt>
      <trkpt lat="47.80486" lon="1.96528">
        <ele>160</ele>
        <time>2017-01-22T09:17:42.141Z</time>
      </trkpt>
      <trkpt lat="47.80486" lon="1.96528">
        <ele>160</ele>
        <time>2017-01-22T09:17:43.150Z</time>
      </trkpt>
      <trkpt lat="47.80494" lon="1.96524">
        <ele>159</ele>
        <time>2017-01-22T09:17:44.120Z</time>
      </trkpt>
      <trkpt lat="47.80499" lon="1.96522">
        <ele>159</ele>
        <time>2017-01-22T09:17:45.145Z</time>
      </trkpt>
      <trkpt lat="47.80499" lon="1.96522">
        <ele>159</ele>
        <time>2017-01-22T09:17:46.151Z</time>
      </trkpt>
      <trkpt lat="47.80509" lon="1.96519">
        <ele>159</ele>
        <time>2017-01-22T09:17:47.118Z</time>
      </trkpt>
      <trkpt lat="47.80515" lon="1.96517">
        <ele>159</ele>
        <time>2017-01-22T09:17:48.121Z</time>
      </trkpt>
      <trkpt lat="47.80515" lon="1.96517">
        <ele>159</ele>
        <time>2017-01-22T09:17:49.127Z</time>
      </trkpt>
      <trkpt lat="47.80525" lon="1.96514">
        <ele>160</ele>
        <time>2017-01-22T09:17:50.134Z</time>
      </trkpt>
      <trkpt lat="47.8053" lon="1.96512">
        <ele>160</ele>
        <time>2017-01-22T09:17:51.121Z</time>
      </trkpt>
      <trkpt lat="47.8053" lon="1.96512">
        <ele>160</ele>
        <time>2017-01-22T09:17:52.127Z</time>
      </trkpt>
      <trkpt lat="47.8054" lon="1.96509">
        <ele>160</ele>
        <time>2017-01-22T09:17:53.134Z</time>
      </trkpt>
      <trkpt lat="47.80545" lon="1.96507">
        <ele>159</ele>
        <time>2017-01-22T09:17:54.154Z</time>
      </trkpt>
      <trkpt lat="47.80545" lon="1.96507">
        <ele>159</ele>
        <time>2017-01-22T09:17:55.120Z</time>
      </trkpt>
      <trkpt lat="47.80556" lon="1.96503">
        <ele>159</ele>
        <time>2017-01-22T09:17:56.127Z</time>
      </trkpt>
      <trkpt lat="47.80561" lon="1.96501">
        <ele>159</ele>
        <time>2017-01-22T09:17:57.144Z</time>
      </trkpt>
      <trkpt lat="47.80561" lon="1.96501">
        <ele>159</ele>
        <time>2017-01-22T09:17:58.151Z</time>
      </trkpt>
      <trkpt lat="47.8057" lon="1.96495">
        <ele>159</ele>
        <time>2017-01-22T09:17:59.120Z</time>
      </trkpt>
      <trkpt lat="47.80584" lon="1.96492">
        <ele>155</ele>
        <time>2017-01-22T09:18:00.151Z</time>
      </trkpt>
      <trkpt lat="47.8059" lon="1.96488">
        <ele>154</ele>
        <time>2017-01-22T09:18:01.131Z</time>
      </trkpt>
      <trkpt lat="47.8059" lon="1.96488">
        <ele>154</ele>
        <time>2017-01-22T09:18:02.138Z</time>
      </trkpt>
      <trkpt lat="47.80606" lon="1.96476">
        <ele>148</ele>
        <time>2017-01-22T09:18:03.155Z</time>
      </trkpt>
      <trkpt lat="47.80611" lon="1.96471">
        <ele>147</ele>
        <time>2017-01-22T09:18:04.148Z</time>
      </trkpt>
      <trkpt lat="47.80617" lon="1.96466">
        <ele>145</ele>
        <time>2017-01-22T09:18:05.118Z</time>
      </trkpt>
      <trkpt lat="47.80621" lon="1.96462">
        <ele>144</ele>
        <time>2017-01-22T09:18:06.125Z</time>
      </trkpt>
      <trkpt lat="47.80621" lon="1.96462">
        <ele>144</ele>
        <time>2017-01-22T09:18:07.131Z</time>
      </trkpt>
      <trkpt lat="47.80631" lon="1.96456">
        <ele>141</ele>
        <time>2017-01-22T09:18:08.154Z</time>
      </trkpt>
      <trkpt lat="47.80631" lon="1.96456">
        <ele>141</ele>
        <time>2017-01-22T09:18:09.124Z</time>
      </trkpt>
      <trkpt lat="47.80641" lon="1.96451">
        <ele>140</ele>
        <time>2017-01-22T09:18:10.153Z</time>
      </trkpt>
      <trkpt lat="47.80641" lon="1.96451">
        <ele>140</ele>
        <time>2017-01-22T09:18:11.119Z</time>
      </trkpt>
      <trkpt lat="47.80651" lon="1.96448">
        <ele>139</ele>
        <time>2017-01-22T09:18:12.125Z</time>
      </trkpt>
      <trkpt lat="47.80651" lon="1.96448">
        <ele>139</ele>
        <time>2017-01-22T09:18:13.131Z</time>
      </trkpt>
      <trkpt lat="47.80661" lon="1.96444">
        <ele>138</ele>
        <time>2017-01-22T09:18:14.137Z</time>
      </trkpt>
      <trkpt lat="47.80661" lon="1.96444">
        <ele>138</ele>
        <time>2017-01-22T09:18:15.146Z</time>
      </trkpt>
      <trkpt lat="47.80671" lon="1.9644">
        <ele>137</ele>
        <time>2017-01-22T09:18:16.156Z</time>
      </trkpt>
      <trkpt lat="47.80671" lon="1.9644">
        <ele>137</ele>
        <time>2017-01-22T09:18:17.125Z</time>
      </trkpt>
      <trkpt lat="47.80682" lon="1.96435">
        <ele>136</ele>
        <time>2017-01-22T09:18:18.120Z</time>
      </trkpt>
      <trkpt lat="47.80682" lon="1.96435">
        <ele>136</ele>
        <time>2017-01-22T09:18:19.128Z</time>
      </trkpt>
      <trkpt lat="47.80693" lon="1.9643">
        <ele>136</ele>
        <time>2017-01-22T09:18:20.135Z</time>
      </trkpt>
      <trkpt lat="47.80693" lon="1.9643">
        <ele>136</ele>
        <time>2017-01-22T09:18:21.145Z</time>
      </trkpt>
      <trkpt lat="47.80705" lon="1.96424">
        <ele>136</ele>
        <time>2017-01-22T09:18:22.143Z</time>
      </trkpt>
      <trkpt lat="47.80705" lon="1.96424">
        <ele>136</ele>
        <time>2017-01-22T09:18:23.149Z</time>
      </trkpt>
      <trkpt lat="47.80716" lon="1.96419">
        <ele>134</ele>
        <time>2017-01-22T09:18:24.156Z</time>
      </trkpt>
      <trkpt lat="47.80716" lon="1.96419">
        <ele>134</ele>
        <time>2017-01-22T09:18:25.122Z</time>
      </trkpt>
      <trkpt lat="47.80727" lon="1.96415">
        <ele>132</ele>
        <time>2017-01-22T09:18:26.140Z</time>
      </trkpt>
      <trkpt lat="47.80732" lon="1.96414">
        <ele>131</ele>
        <time>2017-01-22T09:18:27.149Z</time>
      </trkpt>
      <trkpt lat="47.80732" lon="1.96414">
        <ele>131</ele>
        <time>2017-01-22T09:18:28.155Z</time>
      </trkpt>
      <trkpt lat="47.80745" lon="1.9641">
        <ele>127</ele>
        <time>2017-01-22T09:18:29.154Z</time>
      </trkpt>
      <trkpt lat="47.8075" lon="1.96408">
        <ele>126</ele>
        <time>2017-01-22T09:18:30.120Z</time>
      </trkpt>
      <trkpt lat="47.8075" lon="1.96408">
        <ele>126</ele>
        <time>2017-01-22T09:18:31.127Z</time>
      </trkpt>
      <trkpt lat="47.80762" lon="1.96403">
        <ele>125</ele>
        <time>2017-01-22T09:18:32.134Z</time>
      </trkpt>
      <trkpt lat="47.80762" lon="1.96403">
        <ele>125</ele>
        <time>2017-01-22T09:18:33.140Z</time>
      </trkpt>
      <trkpt lat="47.80772" lon="1.96398">
        <ele>123</ele>
        <time>2017-01-22T09:18:34.147Z</time>
      </trkpt>
      <trkpt lat="47.80776" lon="1.96396">
        <ele>123</ele>
        <time>2017-01-22T09:18:35.126Z</time>
      </trkpt>
      <trkpt lat="47.80779" lon="1.96396">
        <ele>123</ele>
        <time>2017-01-22T09:18:36.132Z</time>
      </trkpt>
      <trkpt lat="47.80779" lon="1.96396">
        <ele>123</ele>
        <time>2017-01-22T09:18:37.138Z</time>
      </trkpt>
      <trkpt lat="47.80784" lon="1.964">
        <ele>123</ele>
        <time>2017-01-22T09:18:38.135Z</time>
      </trkpt>
      <trkpt lat="47.80784" lon="1.964">
        <ele>123</ele>
        <time>2017-01-22T09:18:39.148Z</time>
      </trkpt>
      <trkpt lat="47.80785" lon="1.96408">
        <ele>124</ele>
        <time>2017-01-22T09:18:40.155Z</time>
      </trkpt>
      <trkpt lat="47.80785" lon="1.96414">
        <ele>125</ele>
        <time>2017-01-22T09:18:41.139Z</time>
      </trkpt>
      <trkpt lat="47.80785" lon="1.9642">
        <ele>125</ele>
        <time>2017-01-22T09:18:42.145Z</time>
      </trkpt>
      <trkpt lat="47.80785" lon="1.9642">
        <ele>125</ele>
        <time>2017-01-22T09:18:43.152Z</time>
      </trkpt>
      <trkpt lat="47.80787" lon="1.96433">
        <ele>125</ele>
        <time>2017-01-22T09:18:44.124Z</time>
      </trkpt>
      <trkpt lat="47.80787" lon="1.96433">
        <ele>125</ele>
        <time>2017-01-22T09:18:45.155Z</time>
      </trkpt>
      <trkpt lat="47.8079" lon="1.96445">
        <ele>124</ele>
        <time>2017-01-22T09:18:46.151Z</time>
      </trkpt>
      <trkpt lat="47.8079" lon="1.96445">
        <ele>124</ele>
        <time>2017-01-22T09:18:47.157Z</time>
      </trkpt>
      <trkpt lat="47.80796" lon="1.96454">
        <ele>124</ele>
        <time>2017-01-22T09:18:48.123Z</time>
      </trkpt>
      <trkpt lat="47.80796" lon="1.96454">
        <ele>124</ele>
        <time>2017-01-22T09:18:49.131Z</time>
      </trkpt>
      <trkpt lat="47.80806" lon="1.96458">
        <ele>123</ele>
        <time>2017-01-22T09:18:50.155Z</time>
      </trkpt>
      <trkpt lat="47.80806" lon="1.96458">
        <ele>123</ele>
        <time>2017-01-22T09:18:51.120Z</time>
      </trkpt>
      <trkpt lat="47.80816" lon="1.96458">
        <ele>121</ele>
        <time>2017-01-22T09:18:52.126Z</time>
      </trkpt>
      <trkpt lat="47.80816" lon="1.96458">
        <ele>121</ele>
        <time>2017-01-22T09:18:53.132Z</time>
      </trkpt>
      <trkpt lat="47.80827" lon="1.96457">
        <ele>120</ele>
        <time>2017-01-22T09:18:54.155Z</time>
      </trkpt>
      <trkpt lat="47.80827" lon="1.96457">
        <ele>120</ele>
        <time>2017-01-22T09:18:55.121Z</time>
      </trkpt>
      <trkpt lat="47.80838" lon="1.96456">
        <ele>119</ele>
        <time>2017-01-22T09:18:56.128Z</time>
      </trkpt>
      <trkpt lat="47.80838" lon="1.96456">
        <ele>119</ele>
        <time>2017-01-22T09:18:57.134Z</time>
      </trkpt>
      <trkpt lat="47.80849" lon="1.96454">
        <ele>118</ele>
        <time>2017-01-22T09:18:58.122Z</time>
      </trkpt>
      <trkpt lat="47.80849" lon="1.96454">
        <ele>118</ele>
        <time>2017-01-22T09:18:59.129Z</time>
      </trkpt>
      <trkpt lat="47.8086" lon="1.96453">
        <ele>117</ele>
        <time>2017-01-22T09:19:00.145Z</time>
      </trkpt>
      <trkpt lat="47.8086" lon="1.96453">
        <ele>117</ele>
        <time>2017-01-22T09:19:01.156Z</time>
      </trkpt>
      <trkpt lat="47.8087" lon="1.96451">
        <ele>117</ele>
        <time>2017-01-22T09:19:02.153Z</time>
      </trkpt>
      <trkpt lat="47.8087" lon="1.96451">
        <ele>117</ele>
        <time>2017-01-22T09:19:03.119Z</time>
      </trkpt>
      <trkpt lat="47.80881" lon="1.96449">
        <ele>116</ele>
        <time>2017-01-22T09:19:04.145Z</time>
      </trkpt>
      <trkpt lat="47.80887" lon="1.96449">
        <ele>115</ele>
        <time>2017-01-22T09:19:05.124Z</time>
      </trkpt>
      <trkpt lat="47.80887" lon="1.96449">
        <ele>115</ele>
        <time>2017-01-22T09:19:06.130Z</time>
      </trkpt>
      <trkpt lat="47.80897" lon="1.96446">
        <ele>115</ele>
        <time>2017-01-22T09:19:07.139Z</time>
      </trkpt>
      <trkpt lat="47.80897" lon="1.96446">
        <ele>115</ele>
        <time>2017-01-22T09:19:08.147Z</time>
      </trkpt>
      <trkpt lat="47.80907" lon="1.96445">
        <ele>114</ele>
        <time>2017-01-22T09:19:09.129Z</time>
      </trkpt>
      <trkpt lat="47.80907" lon="1.96445">
        <ele>114</ele>
        <time>2017-01-22T09:19:10.136Z</time>
      </trkpt>
      <trkpt lat="47.80916" lon="1.9645">
        <ele>113</ele>
        <time>2017-01-22T09:19:11.143Z</time>
      </trkpt>
      <trkpt lat="47.80916" lon="1.9645">
        <ele>113</ele>
        <time>2017-01-22T09:19:12.133Z</time>
      </trkpt>
      <trkpt lat="47.80918" lon="1.96463">
        <ele>113</ele>
        <time>2017-01-22T09:19:13.126Z</time>
      </trkpt>
      <trkpt lat="47.80918" lon="1.96463">
        <ele>113</ele>
        <time>2017-01-22T09:19:14.132Z</time>
      </trkpt>
      <trkpt lat="47.80918" lon="1.96478">
        <ele>113</ele>
        <time>2017-01-22T09:19:15.139Z</time>
      </trkpt>
      <trkpt lat="47.80917" lon="1.96486">
        <ele>113</ele>
        <time>2017-01-22T09:19:16.144Z</time>
      </trkpt>
      <trkpt lat="47.80917" lon="1.96486">
        <ele>113</ele>
        <time>2017-01-22T09:19:17.150Z</time>
      </trkpt>
      <trkpt lat="47.80917" lon="1.96501">
        <ele>113</ele>
        <time>2017-01-22T09:19:18.118Z</time>
      </trkpt>
      <trkpt lat="47.80917" lon="1.96501">
        <ele>113</ele>
        <time>2017-01-22T09:19:19.124Z</time>
      </trkpt>
      <trkpt lat="47.80918" lon="1.96517">
        <ele>113</ele>
        <time>2017-01-22T09:19:20.133Z</time>
      </trkpt>
      <trkpt lat="47.80918" lon="1.96517">
        <ele>113</ele>
        <time>2017-01-22T09:19:21.139Z</time>
      </trkpt>
      <trkpt lat="47.80918" lon="1.96532">
        <ele>112</ele>
        <time>2017-01-22T09:19:22.151Z</time>
      </trkpt>
      <trkpt lat="47.80918" lon="1.96532">
        <ele>112</ele>
        <time>2017-01-22T09:19:23.157Z</time>
      </trkpt>
      <trkpt lat="47.80918" lon="1.96546">
        <ele>113</ele>
        <time>2017-01-22T09:19:24.144Z</time>
      </trkpt>
      <trkpt lat="47.80918" lon="1.96546">
        <ele>113</ele>
        <time>2017-01-22T09:19:25.150Z</time>
      </trkpt>
      <trkpt lat="47.80918" lon="1.96561">
        <ele>113</ele>
        <time>2017-01-22T09:19:26.157Z</time>
      </trkpt>
      <trkpt lat="47.80918" lon="1.96569">
        <ele>113</ele>
        <time>2017-01-22T09:19:27.154Z</time>
      </trkpt>
      <trkpt lat="47.80918" lon="1.96569">
        <ele>113</ele>
        <time>2017-01-22T09:19:28.120Z</time>
      </trkpt>
      <trkpt lat="47.80918" lon="1.96584">
        <ele>113</ele>
        <time>2017-01-22T09:19:29.129Z</time>
      </trkpt>
      <trkpt lat="47.80918" lon="1.96592">
        <ele>113</ele>
        <time>2017-01-22T09:19:30.157Z</time>
      </trkpt>
      <trkpt lat="47.80918" lon="1.96592">
        <ele>113</ele>
        <time>2017-01-22T09:19:31.123Z</time>
      </trkpt>
      <trkpt lat="47.80918" lon="1.96608">
        <ele>113</ele>
        <time>2017-01-22T09:19:32.130Z</time>
      </trkpt>
      <trkpt lat="47.80918" lon="1.96608">
        <ele>113</ele>
        <time>2017-01-22T09:19:33.136Z</time>
      </trkpt>
      <trkpt lat="47.80919" lon="1.96624">
        <ele>113</ele>
        <time>2017-01-22T09:19:34.146Z</time>
      </trkpt>
      <trkpt lat="47.80919" lon="1.96633">
        <ele>113</ele>
        <time>2017-01-22T09:19:35.123Z</time>
      </trkpt>
      <trkpt lat="47.80919" lon="1.96641">
        <ele>112</ele>
        <time>2017-01-22T09:19:36.129Z</time>
      </trkpt>
      <trkpt lat="47.80919" lon="1.96641">
        <ele>112</ele>
        <time>2017-01-22T09:19:37.135Z</time>
      </trkpt>
      <trkpt lat="47.80919" lon="1.96657">
        <ele>113</ele>
        <time>2017-01-22T09:19:38.141Z</time>
      </trkpt>
      <trkpt lat="47.80919" lon="1.96657">
        <ele>113</ele>
        <time>2017-01-22T09:19:39.147Z</time>
      </trkpt>
      <trkpt lat="47.80919" lon="1.96673">
        <ele>112</ele>
        <time>2017-01-22T09:19:40.145Z</time>
      </trkpt>
      <trkpt lat="47.80919" lon="1.96673">
        <ele>112</ele>
        <time>2017-01-22T09:19:41.151Z</time>
      </trkpt>
      <trkpt lat="47.80919" lon="1.96691">
        <ele>112</ele>
        <time>2017-01-22T09:19:42.119Z</time>
      </trkpt>
      <trkpt lat="47.80919" lon="1.96691">
        <ele>112</ele>
        <time>2017-01-22T09:19:43.126Z</time>
      </trkpt>
      <trkpt lat="47.8092" lon="1.96707">
        <ele>112</ele>
        <time>2017-01-22T09:19:44.124Z</time>
      </trkpt>
      <trkpt lat="47.8092" lon="1.96715">
        <ele>112</ele>
        <time>2017-01-22T09:19:45.131Z</time>
      </trkpt>
      <trkpt lat="47.8092" lon="1.96715">
        <ele>112</ele>
        <time>2017-01-22T09:19:46.137Z</time>
      </trkpt>
      <trkpt lat="47.8092" lon="1.96732">
        <ele>112</ele>
        <time>2017-01-22T09:19:47.124Z</time>
      </trkpt>
      <trkpt lat="47.8092" lon="1.96741">
        <ele>111</ele>
        <time>2017-01-22T09:19:48.131Z</time>
      </trkpt>
      <trkpt lat="47.8092" lon="1.96741">
        <ele>111</ele>
        <time>2017-01-22T09:19:49.137Z</time>
      </trkpt>
      <trkpt lat="47.8092" lon="1.96757">
        <ele>111</ele>
        <time>2017-01-22T09:19:50.129Z</time>
      </trkpt>
      <trkpt lat="47.8092" lon="1.96757">
        <ele>111</ele>
        <time>2017-01-22T09:19:51.135Z</time>
      </trkpt>
      <trkpt lat="47.80921" lon="1.96774">
        <ele>111</ele>
        <time>2017-01-22T09:19:52.142Z</time>
      </trkpt>
      <trkpt lat="47.80921" lon="1.96782">
        <ele>110</ele>
        <time>2017-01-22T09:19:53.124Z</time>
      </trkpt>
      <trkpt lat="47.80921" lon="1.96791">
        <ele>110</ele>
        <time>2017-01-22T09:19:54.129Z</time>
      </trkpt>
      <trkpt lat="47.80921" lon="1.96791">
        <ele>110</ele>
        <time>2017-01-22T09:19:55.136Z</time>
      </trkpt>
      <trkpt lat="47.80921" lon="1.96807">
        <ele>110</ele>
        <time>2017-01-22T09:19:56.155Z</time>
      </trkpt>
      <trkpt lat="47.80921" lon="1.96816">
        <ele>110</ele>
        <time>2017-01-22T09:19:57.121Z</time>
      </trkpt>
      <trkpt lat="47.80921" lon="1.96816">
        <ele>110</ele>
        <time>2017-01-22T09:19:58.127Z</time>
      </trkpt>
      <trkpt lat="47.80921" lon="1.96834">
        <ele>109</ele>
        <time>2017-01-22T09:19:59.149Z</time>
      </trkpt>
      <trkpt lat="47.80921" lon="1.96834">
        <ele>109</ele>
        <time>2017-01-22T09:20:00.155Z</time>
      </trkpt>
      <trkpt lat="47.80921" lon="1.96851">
        <ele>109</ele>
        <time>2017-01-22T09:20:01.122Z</time>
      </trkpt>
      <trkpt lat="47.80921" lon="1.9686">
        <ele>109</ele>
        <time>2017-01-22T09:20:02.120Z</time>
      </trkpt>
      <trkpt lat="47.80921" lon="1.9686">
        <ele>109</ele>
        <time>2017-01-22T09:20:03.126Z</time>
      </trkpt>
      <trkpt lat="47.80922" lon="1.96878">
        <ele>108</ele>
        <time>2017-01-22T09:20:04.155Z</time>
      </trkpt>
      <trkpt lat="47.80922" lon="1.96886">
        <ele>108</ele>
        <time>2017-01-22T09:20:05.124Z</time>
      </trkpt>
      <trkpt lat="47.80922" lon="1.96895">
        <ele>108</ele>
        <time>2017-01-22T09:20:06.131Z</time>
      </trkpt>
      <trkpt lat="47.80922" lon="1.96895">
        <ele>108</ele>
        <time>2017-01-22T09:20:07.139Z</time>
      </trkpt>
      <trkpt lat="47.80922" lon="1.96914">
        <ele>107</ele>
        <time>2017-01-22T09:20:08.156Z</time>
      </trkpt>
      <trkpt lat="47.80922" lon="1.96914">
        <ele>107</ele>
        <time>2017-01-22T09:20:09.122Z</time>
      </trkpt>
      <trkpt lat="47.80923" lon="1.96931">
        <ele>107</ele>
        <time>2017-01-22T09:20:10.142Z</time>
      </trkpt>
      <trkpt lat="47.80923" lon="1.96931">
        <ele>107</ele>
        <time>2017-01-22T09:20:11.132Z</time>
      </trkpt>
      <trkpt lat="47.80923" lon="1.96949">
        <ele>106</ele>
        <time>2017-01-22T09:20:12.153Z</time>
      </trkpt>
      <trkpt lat="47.80923" lon="1.96949">
        <ele>106</ele>
        <time>2017-01-22T09:20:13.118Z</time>
      </trkpt>
      <trkpt lat="47.80924" lon="1.96967">
        <ele>106</ele>
        <time>2017-01-22T09:20:14.125Z</time>
      </trkpt>
      <trkpt lat="47.80924" lon="1.96967">
        <ele>106</ele>
        <time>2017-01-22T09:20:15.131Z</time>
      </trkpt>
      <trkpt lat="47.80924" lon="1.96985">
        <ele>107</ele>
        <time>2017-01-22T09:20:16.151Z</time>
      </trkpt>
      <trkpt lat="47.80924" lon="1.96985">
        <ele>107</ele>
        <time>2017-01-22T09:20:17.157Z</time>
      </trkpt>
      <trkpt lat="47.80924" lon="1.97002">
        <ele>107</ele>
        <time>2017-01-22T09:20:18.123Z</time>
      </trkpt>
      <trkpt lat="47.80924" lon="1.97002">
        <ele>107</ele>
        <time>2017-01-22T09:20:19.129Z</time>
      </trkpt>
      <trkpt lat="47.80924" lon="1.97019">
        <ele>107</ele>
        <time>2017-01-22T09:20:20.123Z</time>
      </trkpt>
      <trkpt lat="47.80924" lon="1.97019">
        <ele>107</ele>
        <time>2017-01-22T09:20:21.129Z</time>
      </trkpt>
      <trkpt lat="47.80924" lon="1.97035">
        <ele>108</ele>
        <time>2017-01-22T09:20:22.136Z</time>
      </trkpt>
      <trkpt lat="47.80925" lon="1.97044">
        <ele>108</ele>
        <time>2017-01-22T09:20:23.120Z</time>
      </trkpt>
      <trkpt lat="47.80928" lon="1.97051">
        <ele>108</ele>
        <time>2017-01-22T09:20:24.127Z</time>
      </trkpt>
      <trkpt lat="47.80928" lon="1.97051">
        <ele>108</ele>
        <time>2017-01-22T09:20:25.133Z</time>
      </trkpt>
      <trkpt lat="47.80935" lon="1.97061">
        <ele>109</ele>
        <time>2017-01-22T09:20:26.126Z</time>
      </trkpt>
      <trkpt lat="47.80941" lon="1.97065">
        <ele>109</ele>
        <time>2017-01-22T09:20:27.132Z</time>
      </trkpt>
      <trkpt lat="47.80941" lon="1.97065">
        <ele>109</ele>
        <time>2017-01-22T09:20:28.138Z</time>
      </trkpt>
      <trkpt lat="47.80952" lon="1.97069">
        <ele>109</ele>
        <time>2017-01-22T09:20:29.133Z</time>
      </trkpt>
      <trkpt lat="47.80957" lon="1.97072">
        <ele>109</ele>
        <time>2017-01-22T09:20:30.138Z</time>
      </trkpt>
      <trkpt lat="47.80957" lon="1.97072">
        <ele>109</ele>
        <time>2017-01-22T09:20:31.144Z</time>
      </trkpt>
      <trkpt lat="47.80968" lon="1.97077">
        <ele>109</ele>
        <time>2017-01-22T09:20:32.153Z</time>
      </trkpt>
      <trkpt lat="47.80973" lon="1.9708">
        <ele>109</ele>
        <time>2017-01-22T09:20:33.136Z</time>
      </trkpt>
      <trkpt lat="47.80973" lon="1.9708">
        <ele>109</ele>
        <time>2017-01-22T09:20:34.142Z</time>
      </trkpt>
      <trkpt lat="47.80983" lon="1.97086">
        <ele>109</ele>
        <time>2017-01-22T09:20:35.122Z</time>
      </trkpt>
      <trkpt lat="47.80983" lon="1.97086">
        <ele>109</ele>
        <time>2017-01-22T09:20:36.128Z</time>
      </trkpt>
      <trkpt lat="47.80994" lon="1.97093">
        <ele>109</ele>
        <time>2017-01-22T09:20:37.155Z</time>
      </trkpt>
      <trkpt lat="47.80994" lon="1.97093">
        <ele>109</ele>
        <time>2017-01-22T09:20:38.121Z</time>
      </trkpt>
      <trkpt lat="47.81004" lon="1.97099">
        <ele>109</ele>
        <time>2017-01-22T09:20:39.128Z</time>
      </trkpt>
      <trkpt lat="47.81008" lon="1.97103">
        <ele>109</ele>
        <time>2017-01-22T09:20:40.146Z</time>
      </trkpt>
      <trkpt lat="47.81008" lon="1.97103">
        <ele>109</ele>
        <time>2017-01-22T09:20:41.152Z</time>
      </trkpt>
      <trkpt lat="47.81018" lon="1.9711">
        <ele>109</ele>
        <time>2017-01-22T09:20:42.119Z</time>
      </trkpt>
      <trkpt lat="47.81023" lon="1.97113">
        <ele>109</ele>
        <time>2017-01-22T09:20:43.146Z</time>
      </trkpt>
      <trkpt lat="47.81023" lon="1.97113">
        <ele>109</ele>
        <time>2017-01-22T09:20:44.152Z</time>
      </trkpt>
      <trkpt lat="47.81034" lon="1.97119">
        <ele>109</ele>
        <time>2017-01-22T09:20:45.123Z</time>
      </trkpt>
      <trkpt lat="47.81039" lon="1.97123">
        <ele>109</ele>
        <time>2017-01-22T09:20:46.134Z</time>
      </trkpt>
      <trkpt lat="47.81039" lon="1.97123">
        <ele>109</ele>
        <time>2017-01-22T09:20:47.140Z</time>
      </trkpt>
      <trkpt lat="47.81049" lon="1.97129">
        <ele>109</ele>
        <time>2017-01-22T09:20:48.146Z</time>
      </trkpt>
      <trkpt lat="47.81054" lon="1.97133">
        <ele>109</ele>
        <time>2017-01-22T09:20:49.143Z</time>
      </trkpt>
      <trkpt lat="47.81054" lon="1.97133">
        <ele>109</ele>
        <time>2017-01-22T09:20:50.151Z</time>
      </trkpt>
      <trkpt lat="47.81064" lon="1.9714">
        <ele>109</ele>
        <time>2017-01-22T09:20:51.124Z</time>
      </trkpt>
      <trkpt lat="47.81064" lon="1.9714">
        <ele>109</ele>
        <time>2017-01-22T09:20:52.130Z</time>
      </trkpt>
      <trkpt lat="47.81074" lon="1.97147">
        <ele>109</ele>
        <time>2017-01-22T09:20:53.147Z</time>
      </trkpt>
      <trkpt lat="47.8108" lon="1.9715">
        <ele>109</ele>
        <time>2017-01-22T09:20:54.156Z</time>
      </trkpt>
      <trkpt lat="47.8108" lon="1.9715">
        <ele>109</ele>
        <time>2017-01-22T09:20:55.122Z</time>
      </trkpt>
      <trkpt lat="47.8109" lon="1.97158">
        <ele>109</ele>
        <time>2017-01-22T09:20:56.135Z</time>
      </trkpt>
      <trkpt lat="47.8109" lon="1.97158">
        <ele>109</ele>
        <time>2017-01-22T09:20:57.141Z</time>
      </trkpt>
      <trkpt lat="47.81101" lon="1.97165">
        <ele>109</ele>
        <time>2017-01-22T09:20:58.152Z</time>
      </trkpt>
      <trkpt lat="47.81106" lon="1.97169">
        <ele>109</ele>
        <time>2017-01-22T09:20:59.135Z</time>
      </trkpt>
      <trkpt lat="47.81111" lon="1.97172">
        <ele>109</ele>
        <time>2017-01-22T09:21:00.144Z</time>
      </trkpt>
      <trkpt lat="47.81111" lon="1.97172">
        <ele>109</ele>
        <time>2017-01-22T09:21:01.150Z</time>
      </trkpt>
      <trkpt lat="47.81121" lon="1.9718">
        <ele>109</ele>
        <time>2017-01-22T09:21:02.157Z</time>
      </trkpt>
      <trkpt lat="47.81127" lon="1.97184">
        <ele>109</ele>
        <time>2017-01-22T09:21:03.144Z</time>
      </trkpt>
      <trkpt lat="47.81127" lon="1.97184">
        <ele>109</ele>
        <time>2017-01-22T09:21:04.120Z</time>
      </trkpt>
      <trkpt lat="47.81138" lon="1.97192">
        <ele>108</ele>
        <time>2017-01-22T09:21:05.130Z</time>
      </trkpt>
      <trkpt lat="47.81143" lon="1.97196">
        <ele>108</ele>
        <time>2017-01-22T09:21:06.136Z</time>
      </trkpt>
      <trkpt lat="47.81143" lon="1.97196">
        <ele>108</ele>
        <time>2017-01-22T09:21:07.142Z</time>
      </trkpt>
      <trkpt lat="47.81154" lon="1.97203">
        <ele>108</ele>
        <time>2017-01-22T09:21:08.146Z</time>
      </trkpt>
      <trkpt lat="47.81154" lon="1.97203">
        <ele>108</ele>
        <time>2017-01-22T09:21:09.152Z</time>
      </trkpt>
      <trkpt lat="47.81165" lon="1.97211">
        <ele>108</ele>
        <time>2017-01-22T09:21:10.121Z</time>
      </trkpt>
      <trkpt lat="47.81165" lon="1.97211">
        <ele>108</ele>
        <time>2017-01-22T09:21:11.127Z</time>
      </trkpt>
      <trkpt lat="47.81175" lon="1.97218">
        <ele>108</ele>
        <time>2017-01-22T09:21:12.124Z</time>
      </trkpt>
      <trkpt lat="47.81175" lon="1.97218">
        <ele>108</ele>
        <time>2017-01-22T09:21:13.130Z</time>
      </trkpt>
      <trkpt lat="47.81184" lon="1.97225">
        <ele>108</ele>
        <time>2017-01-22T09:21:14.137Z</time>
      </trkpt>
      <trkpt lat="47.81184" lon="1.97225">
        <ele>108</ele>
        <time>2017-01-22T09:21:15.145Z</time>
      </trkpt>
      <trkpt lat="47.81194" lon="1.97232">
        <ele>108</ele>
        <time>2017-01-22T09:21:16.128Z</time>
      </trkpt>
      <trkpt lat="47.81194" lon="1.97232">
        <ele>108</ele>
        <time>2017-01-22T09:21:17.135Z</time>
      </trkpt>
      <trkpt lat="47.81202" lon="1.97239">
        <ele>108</ele>
        <time>2017-01-22T09:21:18.143Z</time>
      </trkpt>
      <trkpt lat="47.81206" lon="1.97242">
        <ele>108</ele>
        <time>2017-01-22T09:21:19.131Z</time>
      </trkpt>
      <trkpt lat="47.81206" lon="1.97242">
        <ele>108</ele>
        <time>2017-01-22T09:21:20.138Z</time>
      </trkpt>
      <trkpt lat="47.81215" lon="1.97248">
        <ele>108</ele>
        <time>2017-01-22T09:21:21.150Z</time>
      </trkpt>
      <trkpt lat="47.81215" lon="1.97248">
        <ele>108</ele>
        <time>2017-01-22T09:21:22.156Z</time>
      </trkpt>
      <trkpt lat="47.81223" lon="1.97254">
        <ele>109</ele>
        <time>2017-01-22T09:21:23.151Z</time>
      </trkpt>
      <trkpt lat="47.81228" lon="1.97257">
        <ele>109</ele>
        <time>2017-01-22T09:21:24.120Z</time>
      </trkpt>
      <trkpt lat="47.81228" lon="1.97257">
        <ele>109</ele>
        <time>2017-01-22T09:21:25.126Z</time>
      </trkpt>
      <trkpt lat="47.81236" lon="1.97262">
        <ele>108</ele>
        <time>2017-01-22T09:21:26.135Z</time>
      </trkpt>
      <trkpt lat="47.81236" lon="1.97262">
        <ele>108</ele>
        <time>2017-01-22T09:21:27.142Z</time>
      </trkpt>
      <trkpt lat="47.81245" lon="1.97267">
        <ele>109</ele>
        <time>2017-01-22T09:21:28.152Z</time>
      </trkpt>
      <trkpt lat="47.81245" lon="1.97267">
        <ele>109</ele>
        <time>2017-01-22T09:21:29.119Z</time>
      </trkpt>
      <trkpt lat="47.81253" lon="1.97267">
        <ele>109</ele>
        <time>2017-01-22T09:21:30.156Z</time>
      </trkpt>
      <trkpt lat="47.81253" lon="1.97267">
        <ele>109</ele>
        <time>2017-01-22T09:21:31.122Z</time>
      </trkpt>
      <trkpt lat="47.81258" lon="1.97258">
        <ele>108</ele>
        <time>2017-01-22T09:21:32.129Z</time>
      </trkpt>
      <trkpt lat="47.81258" lon="1.97258">
        <ele>108</ele>
        <time>2017-01-22T09:21:33.135Z</time>
      </trkpt>
      <trkpt lat="47.81261" lon="1.97243">
        <ele>108</ele>
        <time>2017-01-22T09:21:34.155Z</time>
      </trkpt>
      <trkpt lat="47.81261" lon="1.97243">
        <ele>108</ele>
        <time>2017-01-22T09:21:35.120Z</time>
      </trkpt>
      <trkpt lat="47.81266" lon="1.97227">
        <ele>108</ele>
        <time>2017-01-22T09:21:36.126Z</time>
      </trkpt>
      <trkpt lat="47.81266" lon="1.97227">
        <ele>108</ele>
        <time>2017-01-22T09:21:37.125Z</time>
      </trkpt>
      <trkpt lat="47.8127" lon="1.97211">
        <ele>108</ele>
        <time>2017-01-22T09:21:38.126Z</time>
      </trkpt>
      <trkpt lat="47.8127" lon="1.97211">
        <ele>108</ele>
        <time>2017-01-22T09:21:39.132Z</time>
      </trkpt>
      <trkpt lat="47.81275" lon="1.97194">
        <ele>108</ele>
        <time>2017-01-22T09:21:40.138Z</time>
      </trkpt>
      <trkpt lat="47.81278" lon="1.97186">
        <ele>108</ele>
        <time>2017-01-22T09:21:41.135Z</time>
      </trkpt>
      <trkpt lat="47.8128" lon="1.97177">
        <ele>108</ele>
        <time>2017-01-22T09:21:42.150Z</time>
      </trkpt>
      <trkpt lat="47.8128" lon="1.97177">
        <ele>108</ele>
        <time>2017-01-22T09:21:43.157Z</time>
      </trkpt>
      <trkpt lat="47.81285" lon="1.97159">
        <ele>109</ele>
        <time>2017-01-22T09:21:44.139Z</time>
      </trkpt>
      <trkpt lat="47.81285" lon="1.97159">
        <ele>109</ele>
        <time>2017-01-22T09:21:45.145Z</time>
      </trkpt>
      <trkpt lat="47.8129" lon="1.97142">
        <ele>109</ele>
        <time>2017-01-22T09:21:46.154Z</time>
      </trkpt>
      <trkpt lat="47.8129" lon="1.97142">
        <ele>109</ele>
        <time>2017-01-22T09:21:47.123Z</time>
      </trkpt>
      <trkpt lat="47.81294" lon="1.97126">
        <ele>108</ele>
        <time>2017-01-22T09:21:48.144Z</time>
      </trkpt>
      <trkpt lat="47.81294" lon="1.97126">
        <ele>108</ele>
        <time>2017-01-22T09:21:49.151Z</time>
      </trkpt>
      <trkpt lat="47.813" lon="1.97109">
        <ele>108</ele>
        <time>2017-01-22T09:21:50.157Z</time>
      </trkpt>
      <trkpt lat="47.81302" lon="1.97101">
        <ele>107</ele>
        <time>2017-01-22T09:21:51.156Z</time>
      </trkpt>
      <trkpt lat="47.81302" lon="1.97101">
        <ele>107</ele>
        <time>2017-01-22T09:21:52.122Z</time>
      </trkpt>
      <trkpt lat="47.81307" lon="1.97084">
        <ele>107</ele>
        <time>2017-01-22T09:21:53.134Z</time>
      </trkpt>
      <trkpt lat="47.81309" lon="1.97076">
        <ele>108</ele>
        <time>2017-01-22T09:21:54.128Z</time>
      </trkpt>
      <trkpt lat="47.81309" lon="1.97076">
        <ele>108</ele>
        <time>2017-01-22T09:21:55.135Z</time>
      </trkpt>
      <trkpt lat="47.81314" lon="1.97059">
        <ele>107</ele>
        <time>2017-01-22T09:21:56.141Z</time>
      </trkpt>
      <trkpt lat="47.81314" lon="1.97059">
        <ele>107</ele>
        <time>2017-01-22T09:21:57.147Z</time>
      </trkpt>
      <trkpt lat="47.8132" lon="1.97042">
        <ele>107</ele>
        <time>2017-01-22T09:21:58.135Z</time>
      </trkpt>
      <trkpt lat="47.8132" lon="1.97042">
        <ele>107</ele>
        <time>2017-01-22T09:21:59.142Z</time>
      </trkpt>
      <trkpt lat="47.81325" lon="1.97024">
        <ele>108</ele>
        <time>2017-01-22T09:22:00.150Z</time>
      </trkpt>
      <trkpt lat="47.81325" lon="1.97024">
        <ele>108</ele>
        <time>2017-01-22T09:22:01.156Z</time>
      </trkpt>
      <trkpt lat="47.81331" lon="1.97006">
        <ele>108</ele>
        <time>2017-01-22T09:22:02.143Z</time>
      </trkpt>
      <trkpt lat="47.81333" lon="1.96998">
        <ele>108</ele>
        <time>2017-01-22T09:22:03.154Z</time>
      </trkpt>
      <trkpt lat="47.81333" lon="1.96998">
        <ele>108</ele>
        <time>2017-01-22T09:22:04.132Z</time>
      </trkpt>
      <trkpt lat="47.81338" lon="1.9698">
        <ele>108</ele>
        <time>2017-01-22T09:22:05.128Z</time>
      </trkpt>
      <trkpt lat="47.8134" lon="1.96971">
        <ele>108</ele>
        <time>2017-01-22T09:22:06.150Z</time>
      </trkpt>
      <trkpt lat="47.8134" lon="1.96971">
        <ele>108</ele>
        <time>2017-01-22T09:22:07.147Z</time>
      </trkpt>
      <trkpt lat="47.81346" lon="1.96954">
        <ele>108</ele>
        <time>2017-01-22T09:22:08.134Z</time>
      </trkpt>
      <trkpt lat="47.81346" lon="1.96954">
        <ele>108</ele>
        <time>2017-01-22T09:22:09.151Z</time>
      </trkpt>
      <trkpt lat="47.81351" lon="1.96934">
        <ele>107</ele>
        <time>2017-01-22T09:22:10.155Z</time>
      </trkpt>
      <trkpt lat="47.81351" lon="1.96934">
        <ele>107</ele>
        <time>2017-01-22T09:22:11.121Z</time>
      </trkpt>
      <trkpt lat="47.81357" lon="1.96915">
        <ele>107</ele>
        <time>2017-01-22T09:22:12.154Z</time>
      </trkpt>
      <trkpt lat="47.81357" lon="1.96915">
        <ele>107</ele>
        <time>2017-01-22T09:22:13.120Z</time>
      </trkpt>
      <trkpt lat="47.81362" lon="1.96896">
        <ele>106</ele>
        <time>2017-01-22T09:22:14.130Z</time>
      </trkpt>
      <trkpt lat="47.81365" lon="1.96887">
        <ele>106</ele>
        <time>2017-01-22T09:22:15.150Z</time>
      </trkpt>
      <trkpt lat="47.81365" lon="1.96887">
        <ele>106</ele>
        <time>2017-01-22T09:22:16.156Z</time>
      </trkpt>
      <trkpt lat="47.8137" lon="1.96869">
        <ele>106</ele>
        <time>2017-01-22T09:22:17.122Z</time>
      </trkpt>
      <trkpt lat="47.81372" lon="1.9686">
        <ele>106</ele>
        <time>2017-01-22T09:22:18.142Z</time>
      </trkpt>
      <trkpt lat="47.81372" lon="1.9686">
        <ele>106</ele>
        <time>2017-01-22T09:22:19.149Z</time>
      </trkpt>
      <trkpt lat="47.81379" lon="1.96843">
        <ele>106</ele>
        <time>2017-01-22T09:22:20.156Z</time>
      </trkpt>
      <trkpt lat="47.81384" lon="1.96836">
        <ele>106</ele>
        <time>2017-01-22T09:22:21.126Z</time>
      </trkpt>
      <trkpt lat="47.81384" lon="1.96836">
        <ele>106</ele>
        <time>2017-01-22T09:22:22.132Z</time>
      </trkpt>
      <trkpt lat="47.81394" lon="1.96822">
        <ele>106</ele>
        <time>2017-01-22T09:22:23.139Z</time>
      </trkpt>
      <trkpt lat="47.814" lon="1.96816">
        <ele>106</ele>
        <time>2017-01-22T09:22:24.128Z</time>
      </trkpt>
      <trkpt lat="47.81405" lon="1.96809">
        <ele>106</ele>
        <time>2017-01-22T09:22:25.124Z</time>
      </trkpt>
      <trkpt lat="47.81405" lon="1.96809">
        <ele>106</ele>
        <time>2017-01-22T09:22:26.130Z</time>
      </trkpt>
      <trkpt lat="47.81416" lon="1.96796">
        <ele>106</ele>
        <time>2017-01-22T09:22:27.125Z</time>
      </trkpt>
      <trkpt lat="47.81416" lon="1.96796">
        <ele>106</ele>
        <time>2017-01-22T09:22:28.131Z</time>
      </trkpt>
      <trkpt lat="47.81425" lon="1.96784">
        <ele>105</ele>
        <time>2017-01-22T09:22:29.138Z</time>
      </trkpt>
      <trkpt lat="47.8143" lon="1.96779">
        <ele>105</ele>
        <time>2017-01-22T09:22:30.131Z</time>
      </trkpt>
      <trkpt lat="47.8143" lon="1.96779">
        <ele>105</ele>
        <time>2017-01-22T09:22:31.137Z</time>
      </trkpt>
      <trkpt lat="47.8144" lon="1.96769">
        <ele>105</ele>
        <time>2017-01-22T09:22:32.149Z</time>
      </trkpt>
      <trkpt lat="47.81444" lon="1.96764">
        <ele>105</ele>
        <time>2017-01-22T09:22:33.156Z</time>
      </trkpt>
      <trkpt lat="47.81449" lon="1.9676">
        <ele>105</ele>
        <time>2017-01-22T09:22:34.153Z</time>
      </trkpt>
      <trkpt lat="47.81449" lon="1.9676">
        <ele>105</ele>
        <time>2017-01-22T09:22:35.119Z</time>
      </trkpt>
      <trkpt lat="47.81457" lon="1.96758">
        <ele>106</ele>
        <time>2017-01-22T09:22:36.126Z</time>
      </trkpt>
      <trkpt lat="47.81457" lon="1.96758">
        <ele>106</ele>
        <time>2017-01-22T09:22:37.156Z</time>
      </trkpt>
      <trkpt lat="47.81465" lon="1.96766">
        <ele>106</ele>
        <time>2017-01-22T09:22:38.131Z</time>
      </trkpt>
      <trkpt lat="47.81465" lon="1.96766">
        <ele>106</ele>
        <time>2017-01-22T09:22:39.136Z</time>
      </trkpt>
      <trkpt lat="47.81473" lon="1.96779">
        <ele>106</ele>
        <time>2017-01-22T09:22:40.143Z</time>
      </trkpt>
      <trkpt lat="47.81473" lon="1.96779">
        <ele>106</ele>
        <time>2017-01-22T09:22:41.150Z</time>
      </trkpt>
      <trkpt lat="47.81482" lon="1.96793">
        <ele>106</ele>
        <time>2017-01-22T09:22:42.119Z</time>
      </trkpt>
      <trkpt lat="47.81485" lon="1.968">
        <ele>106</ele>
        <time>2017-01-22T09:22:43.125Z</time>
      </trkpt>
      <trkpt lat="47.81485" lon="1.968">
        <ele>106</ele>
        <time>2017-01-22T09:22:44.130Z</time>
      </trkpt>
      <trkpt lat="47.81493" lon="1.96812">
        <ele>106</ele>
        <time>2017-01-22T09:22:45.124Z</time>
      </trkpt>
      <trkpt lat="47.81493" lon="1.96812">
        <ele>106</ele>
        <time>2017-01-22T09:22:46.130Z</time>
      </trkpt>
      <trkpt lat="47.81501" lon="1.96824">
        <ele>107</ele>
        <time>2017-01-22T09:22:47.136Z</time>
      </trkpt>
      <trkpt lat="47.81505" lon="1.9683">
        <ele>107</ele>
        <time>2017-01-22T09:22:48.141Z</time>
      </trkpt>
      <trkpt lat="47.81505" lon="1.9683">
        <ele>107</ele>
        <time>2017-01-22T09:22:49.148Z</time>
      </trkpt>
      <trkpt lat="47.81513" lon="1.96843">
        <ele>108</ele>
        <time>2017-01-22T09:22:50.135Z</time>
      </trkpt>
      <trkpt lat="47.81513" lon="1.96843">
        <ele>108</ele>
        <time>2017-01-22T09:22:51.140Z</time>
      </trkpt>
      <trkpt lat="47.81521" lon="1.96855">
        <ele>108</ele>
        <time>2017-01-22T09:22:52.156Z</time>
      </trkpt>
      <trkpt lat="47.81521" lon="1.96855">
        <ele>108</ele>
        <time>2017-01-22T09:22:53.121Z</time>
      </trkpt>
      <trkpt lat="47.81529" lon="1.96867">
        <ele>109</ele>
        <time>2017-01-22T09:22:54.129Z</time>
      </trkpt>
      <trkpt lat="47.81529" lon="1.96867">
        <ele>109</ele>
        <time>2017-01-22T09:22:55.134Z</time>
      </trkpt>
      <trkpt lat="47.81538" lon="1.96878">
        <ele>110</ele>
        <time>2017-01-22T09:22:56.141Z</time>
      </trkpt>
      <trkpt lat="47.81538" lon="1.96878">
        <ele>110</ele>
        <time>2017-01-22T09:22:57.149Z</time>
      </trkpt>
      <trkpt lat="47.81546" lon="1.96888">
        <ele>110</ele>
        <time>2017-01-22T09:22:58.119Z</time>
      </trkpt>
      <trkpt lat="47.81549" lon="1.96894">
        <ele>109</ele>
        <time>2017-01-22T09:22:59.126Z</time>
      </trkpt>
      <trkpt lat="47.81552" lon="1.969">
        <ele>109</ele>
        <time>2017-01-22T09:23:00.132Z</time>
      </trkpt>
      <trkpt lat="47.81552" lon="1.969">
        <ele>109</ele>
        <time>2017-01-22T09:23:01.138Z</time>
      </trkpt>
      <trkpt lat="47.8156" lon="1.96913">
        <ele>110</ele>
        <time>2017-01-22T09:23:02.123Z</time>
      </trkpt>
      <trkpt lat="47.81564" lon="1.96919">
        <ele>110</ele>
        <time>2017-01-22T09:23:03.142Z</time>
      </trkpt>
      <trkpt lat="47.81564" lon="1.96919">
        <ele>110</ele>
        <time>2017-01-22T09:23:04.119Z</time>
      </trkpt>
      <trkpt lat="47.81571" lon="1.9693">
        <ele>111</ele>
        <time>2017-01-22T09:23:05.128Z</time>
      </trkpt>
      <trkpt lat="47.81571" lon="1.9693">
        <ele>111</ele>
        <time>2017-01-22T09:23:06.133Z</time>
      </trkpt>
      <trkpt lat="47.81577" lon="1.96942">
        <ele>112</ele>
        <time>2017-01-22T09:23:07.138Z</time>
      </trkpt>
      <trkpt lat="47.81577" lon="1.96942">
        <ele>112</ele>
        <time>2017-01-22T09:23:08.145Z</time>
      </trkpt>
      <trkpt lat="47.81584" lon="1.96954">
        <ele>113</ele>
        <time>2017-01-22T09:23:09.154Z</time>
      </trkpt>
      <trkpt lat="47.81587" lon="1.9696">
        <ele>113</ele>
        <time>2017-01-22T09:23:10.144Z</time>
      </trkpt>
      <trkpt lat="47.81587" lon="1.9696">
        <ele>113</ele>
        <time>2017-01-22T09:23:11.151Z</time>
      </trkpt>
      <trkpt lat="47.81593" lon="1.96966">
        <ele>113</ele>
        <time>2017-01-22T09:23:12.123Z</time>
      </trkpt>
      <trkpt lat="47.81593" lon="1.96966">
        <ele>113</ele>
        <time>2017-01-22T09:23:13.128Z</time>
      </trkpt>
      <trkpt lat="47.81596" lon="1.96964">
        <ele>114</ele>
        <time>2017-01-22T09:23:14.137Z</time>
      </trkpt>
      <trkpt lat="47.81596" lon="1.96964">
        <ele>114</ele>
        <time>2017-01-22T09:23:15.143Z</time>
      </trkpt>
      <trkpt lat="47.81599" lon="1.9696">
        <ele>115</ele>
        <time>2017-01-22T09:23:16.155Z</time>
      </trkpt>
      <trkpt lat="47.81599" lon="1.9696">
        <ele>115</ele>
        <time>2017-01-22T09:23:17.119Z</time>
      </trkpt>
      <trkpt lat="47.81605" lon="1.96959">
        <ele>116</ele>
        <time>2017-01-22T09:23:18.156Z</time>
      </trkpt>
      <trkpt lat="47.81605" lon="1.96959">
        <ele>116</ele>
        <time>2017-01-22T09:23:19.121Z</time>
      </trkpt>
      <trkpt lat="47.8161" lon="1.96951">
        <ele>117</ele>
        <time>2017-01-22T09:23:20.128Z</time>
      </trkpt>
      <trkpt lat="47.81612" lon="1.96946">
        <ele>117</ele>
        <time>2017-01-22T09:23:21.134Z</time>
      </trkpt>
      <trkpt lat="47.81612" lon="1.96946">
        <ele>117</ele>
        <time>2017-01-22T09:23:22.140Z</time>
      </trkpt>
      <trkpt lat="47.81618" lon="1.96935">
        <ele>118</ele>
        <time>2017-01-22T09:23:23.151Z</time>
      </trkpt>
      <trkpt lat="47.81622" lon="1.96929">
        <ele>118</ele>
        <time>2017-01-22T09:23:24.138Z</time>
      </trkpt>
      <trkpt lat="47.81622" lon="1.96929">
        <ele>118</ele>
        <time>2017-01-22T09:23:25.145Z</time>
      </trkpt>
      <trkpt lat="47.81628" lon="1.9692">
        <ele>117</ele>
        <time>2017-01-22T09:23:26.156Z</time>
      </trkpt>
      <trkpt lat="47.8163" lon="1.96916">
        <ele>117</ele>
        <time>2017-01-22T09:23:27.145Z</time>
      </trkpt>
      <trkpt lat="47.8163" lon="1.96916">
        <ele>117</ele>
        <time>2017-01-22T09:23:28.152Z</time>
      </trkpt>
      <trkpt lat="47.81634" lon="1.96908">
        <ele>117</ele>
        <time>2017-01-22T09:23:29.123Z</time>
      </trkpt>
      <trkpt lat="47.81637" lon="1.96904">
        <ele>117</ele>
        <time>2017-01-22T09:23:30.151Z</time>
      </trkpt>
      <trkpt lat="47.81637" lon="1.96904">
        <ele>117</ele>
        <time>2017-01-22T09:23:31.157Z</time>
      </trkpt>
      <trkpt lat="47.81644" lon="1.96901">
        <ele>117</ele>
        <time>2017-01-22T09:23:32.145Z</time>
      </trkpt>
      <trkpt lat="47.81644" lon="1.96901">
        <ele>117</ele>
        <time>2017-01-22T09:23:33.151Z</time>
      </trkpt>
      <trkpt lat="47.81652" lon="1.96905">
        <ele>117</ele>
        <time>2017-01-22T09:23:34.134Z</time>
      </trkpt>
      <trkpt lat="47.81652" lon="1.96905">
        <ele>117</ele>
        <time>2017-01-22T09:23:35.140Z</time>
      </trkpt>
      <trkpt lat="47.81661" lon="1.96909">
        <ele>115</ele>
        <time>2017-01-22T09:23:36.154Z</time>
      </trkpt>
      <trkpt lat="47.81661" lon="1.96909">
        <ele>115</ele>
        <time>2017-01-22T09:23:37.119Z</time>
      </trkpt>
      <trkpt lat="47.8167" lon="1.96914">
        <ele>115</ele>
        <time>2017-01-22T09:23:38.155Z</time>
      </trkpt>
      <trkpt lat="47.8167" lon="1.96914">
        <ele>115</ele>
        <time>2017-01-22T09:23:39.120Z</time>
      </trkpt>
      <trkpt lat="47.81678" lon="1.96919">
        <ele>114</ele>
        <time>2017-01-22T09:23:40.127Z</time>
      </trkpt>
      <trkpt lat="47.81678" lon="1.96919">
        <ele>114</ele>
        <time>2017-01-22T09:23:41.133Z</time>
      </trkpt>
      <trkpt lat="47.81688" lon="1.96923">
        <ele>114</ele>
        <time>2017-01-22T09:23:42.155Z</time>
      </trkpt>
      <trkpt lat="47.81688" lon="1.96923">
        <ele>114</ele>
        <time>2017-01-22T09:23:43.121Z</time>
      </trkpt>
      <trkpt lat="47.81696" lon="1.96929">
        <ele>114</ele>
        <time>2017-01-22T09:23:44.127Z</time>
      </trkpt>
      <trkpt lat="47.81701" lon="1.96931">
        <ele>113</ele>
        <time>2017-01-22T09:23:45.137Z</time>
      </trkpt>
      <trkpt lat="47.81701" lon="1.96931">
        <ele>113</ele>
        <time>2017-01-22T09:23:46.143Z</time>
      </trkpt>
      <trkpt lat="47.81709" lon="1.96936">
        <ele>113</ele>
        <time>2017-01-22T09:23:47.151Z</time>
      </trkpt>
      <trkpt lat="47.81713" lon="1.96939">
        <ele>114</ele>
        <time>2017-01-22T09:23:48.123Z</time>
      </trkpt>
      <trkpt lat="47.81717" lon="1.96942">
        <ele>114</ele>
        <time>2017-01-22T09:23:49.148Z</time>
      </trkpt>
      <trkpt lat="47.81717" lon="1.96942">
        <ele>114</ele>
        <time>2017-01-22T09:23:50.155Z</time>
      </trkpt>
      <trkpt lat="47.81726" lon="1.96947">
        <ele>114</ele>
        <time>2017-01-22T09:23:51.134Z</time>
      </trkpt>
      <trkpt lat="47.81726" lon="1.96947">
        <ele>114</ele>
        <time>2017-01-22T09:23:52.130Z</time>
      </trkpt>
      <trkpt lat="47.81736" lon="1.96953">
        <ele>113</ele>
        <time>2017-01-22T09:23:53.154Z</time>
      </trkpt>
      <trkpt lat="47.81736" lon="1.96953">
        <ele>113</ele>
        <time>2017-01-22T09:23:54.120Z</time>
      </trkpt>
      <trkpt lat="47.81746" lon="1.96958">
        <ele>113</ele>
        <time>2017-01-22T09:23:55.126Z</time>
      </trkpt>
      <trkpt lat="47.81746" lon="1.96958">
        <ele>113</ele>
        <time>2017-01-22T09:23:56.130Z</time>
      </trkpt>
      <trkpt lat="47.81757" lon="1.96964">
        <ele>114</ele>
        <time>2017-01-22T09:23:57.154Z</time>
      </trkpt>
      <trkpt lat="47.81757" lon="1.96964">
        <ele>114</ele>
        <time>2017-01-22T09:23:58.120Z</time>
      </trkpt>
      <trkpt lat="47.81766" lon="1.9697">
        <ele>114</ele>
        <time>2017-01-22T09:23:59.126Z</time>
      </trkpt>
      <trkpt lat="47.81766" lon="1.9697">
        <ele>114</ele>
        <time>2017-01-22T09:24:00.132Z</time>
      </trkpt>
      <trkpt lat="47.81774" lon="1.96975">
        <ele>113</ele>
        <time>2017-01-22T09:24:01.155Z</time>
      </trkpt>
      <trkpt lat="47.81774" lon="1.96975">
        <ele>113</ele>
        <time>2017-01-22T09:24:02.123Z</time>
      </trkpt>
      <trkpt lat="47.81782" lon="1.96978">
        <ele>114</ele>
        <time>2017-01-22T09:24:03.129Z</time>
      </trkpt>
      <trkpt lat="47.81782" lon="1.96978">
        <ele>114</ele>
        <time>2017-01-22T09:24:04.157Z</time>
      </trkpt>
      <trkpt lat="47.81792" lon="1.9698">
        <ele>114</ele>
        <time>2017-01-22T09:24:05.146Z</time>
      </trkpt>
      <trkpt lat="47.81792" lon="1.9698">
        <ele>114</ele>
        <time>2017-01-22T09:24:06.152Z</time>
      </trkpt>
      <trkpt lat="47.81802" lon="1.9698">
        <ele>114</ele>
        <time>2017-01-22T09:24:07.122Z</time>
      </trkpt>
      <trkpt lat="47.81802" lon="1.9698">
        <ele>114</ele>
        <time>2017-01-22T09:24:08.128Z</time>
      </trkpt>
      <trkpt lat="47.8181" lon="1.9698">
        <ele>114</ele>
        <time>2017-01-22T09:24:09.155Z</time>
      </trkpt>
      <trkpt lat="47.8181" lon="1.9698">
        <ele>114</ele>
        <time>2017-01-22T09:24:10.121Z</time>
      </trkpt>
      <trkpt lat="47.81819" lon="1.96985">
        <ele>114</ele>
        <time>2017-01-22T09:24:11.127Z</time>
      </trkpt>
      <trkpt lat="47.81825" lon="1.96986">
        <ele>114</ele>
        <time>2017-01-22T09:24:12.151Z</time>
      </trkpt>
      <trkpt lat="47.81825" lon="1.96986">
        <ele>114</ele>
        <time>2017-01-22T09:24:13.135Z</time>
      </trkpt>
      <trkpt lat="47.81833" lon="1.96986">
        <ele>114</ele>
        <time>2017-01-22T09:24:14.142Z</time>
      </trkpt>
      <trkpt lat="47.81837" lon="1.96985">
        <ele>114</ele>
        <time>2017-01-22T09:24:15.140Z</time>
      </trkpt>
      <trkpt lat="47.81837" lon="1.96985">
        <ele>114</ele>
        <time>2017-01-22T09:24:16.148Z</time>
      </trkpt>
      <trkpt lat="47.81845" lon="1.96984">
        <ele>115</ele>
        <time>2017-01-22T09:24:17.155Z</time>
      </trkpt>
      <trkpt lat="47.8185" lon="1.96983">
        <ele>114</ele>
        <time>2017-01-22T09:24:18.144Z</time>
      </trkpt>
      <trkpt lat="47.8185" lon="1.96983">
        <ele>114</ele>
        <time>2017-01-22T09:24:19.150Z</time>
      </trkpt>
      <trkpt lat="47.81859" lon="1.96974">
        <ele>112</ele>
        <time>2017-01-22T09:24:20.124Z</time>
      </trkpt>
      <trkpt lat="47.81861" lon="1.9697">
        <ele>112</ele>
        <time>2017-01-22T09:24:21.152Z</time>
      </trkpt>
      <trkpt lat="47.81861" lon="1.9697">
        <ele>112</ele>
        <time>2017-01-22T09:24:22.118Z</time>
      </trkpt>
      <trkpt lat="47.81862" lon="1.96959">
        <ele>111</ele>
        <time>2017-01-22T09:24:23.124Z</time>
      </trkpt>
      <trkpt lat="47.81861" lon="1.96953">
        <ele>111</ele>
        <time>2017-01-22T09:24:24.149Z</time>
      </trkpt>
      <trkpt lat="47.81861" lon="1.96953">
        <ele>111</ele>
        <time>2017-01-22T09:24:25.155Z</time>
      </trkpt>
      <trkpt lat="47.81859" lon="1.96942">
        <ele>110</ele>
        <time>2017-01-22T09:24:26.133Z</time>
      </trkpt>
      <trkpt lat="47.81857" lon="1.96937">
        <ele>110</ele>
        <time>2017-01-22T09:24:27.130Z</time>
      </trkpt>
      <trkpt lat="47.81857" lon="1.96937">
        <ele>110</ele>
        <time>2017-01-22T09:24:28.137Z</time>
      </trkpt>
      <trkpt lat="47.81853" lon="1.96926">
        <ele>110</ele>
        <time>2017-01-22T09:24:29.144Z</time>
      </trkpt>
      <trkpt lat="47.81853" lon="1.96926">
        <ele>110</ele>
        <time>2017-01-22T09:24:30.150Z</time>
      </trkpt>
      <trkpt lat="47.81848" lon="1.96914">
        <ele>109</ele>
        <time>2017-01-22T09:24:31.151Z</time>
      </trkpt>
      <trkpt lat="47.81848" lon="1.96914">
        <ele>109</ele>
        <time>2017-01-22T09:24:32.157Z</time>
      </trkpt>
      <trkpt lat="47.81846" lon="1.96903">
        <ele>108</ele>
        <time>2017-01-22T09:24:33.155Z</time>
      </trkpt>
      <trkpt lat="47.81844" lon="1.96897">
        <ele>108</ele>
        <time>2017-01-22T09:24:34.138Z</time>
      </trkpt>
      <trkpt lat="47.81843" lon="1.96891">
        <ele>108</ele>
        <time>2017-01-22T09:24:35.145Z</time>
      </trkpt>
      <trkpt lat="47.81843" lon="1.96891">
        <ele>108</ele>
        <time>2017-01-22T09:24:36.151Z</time>
      </trkpt>
      <trkpt lat="47.81842" lon="1.96878">
        <ele>107</ele>
        <time>2017-01-22T09:24:37.121Z</time>
      </trkpt>
      <trkpt lat="47.81843" lon="1.96872">
        <ele>107</ele>
        <time>2017-01-22T09:24:38.123Z</time>
      </trkpt>
      <trkpt lat="47.81843" lon="1.96872">
        <ele>107</ele>
        <time>2017-01-22T09:24:39.140Z</time>
      </trkpt>
      <trkpt lat="47.81846" lon="1.96859">
        <ele>106</ele>
        <time>2017-01-22T09:24:40.149Z</time>
      </trkpt>
      <trkpt lat="47.81847" lon="1.96852">
        <ele>106</ele>
        <time>2017-01-22T09:24:41.132Z</time>
      </trkpt>
      <trkpt lat="47.81849" lon="1.96847">
        <ele>106</ele>
        <time>2017-01-22T09:24:42.139Z</time>
      </trkpt>
      <trkpt lat="47.81849" lon="1.96847">
        <ele>106</ele>
        <time>2017-01-22T09:24:43.150Z</time>
      </trkpt>
      <trkpt lat="47.81853" lon="1.96835">
        <ele>105</ele>
        <time>2017-01-22T09:24:44.132Z</time>
      </trkpt>
      <trkpt lat="47.81855" lon="1.96829">
        <ele>105</ele>
        <time>2017-01-22T09:24:45.138Z</time>
      </trkpt>
      <trkpt lat="47.81855" lon="1.96829">
        <ele>105</ele>
        <time>2017-01-22T09:24:46.144Z</time>
      </trkpt>
      <trkpt lat="47.81859" lon="1.96815">
        <ele>105</ele>
        <time>2017-01-22T09:24:47.121Z</time>
      </trkpt>
      <trkpt lat="47.81861" lon="1.96808">
        <ele>104</ele>
        <time>2017-01-22T09:24:48.127Z</time>
      </trkpt>
      <trkpt lat="47.81861" lon="1.96808">
        <ele>104</ele>
        <time>2017-01-22T09:24:49.133Z</time>
      </trkpt>
      <trkpt lat="47.81865" lon="1.96794">
        <ele>104</ele>
        <time>2017-01-22T09:24:50.156Z</time>
      </trkpt>
      <trkpt lat="47.81865" lon="1.96794">
        <ele>104</ele>
        <time>2017-01-22T09:24:51.121Z</time>
      </trkpt>
      <trkpt lat="47.81869" lon="1.96782">
        <ele>104</ele>
        <time>2017-01-22T09:24:52.133Z</time>
      </trkpt>
      <trkpt lat="47.81869" lon="1.96782">
        <ele>104</ele>
        <time>2017-01-22T09:24:53.139Z</time>
      </trkpt>
      <trkpt lat="47.81873" lon="1.9677">
        <ele>103</ele>
        <time>2017-01-22T09:24:54.132Z</time>
      </trkpt>
      <trkpt lat="47.81873" lon="1.9677">
        <ele>103</ele>
        <time>2017-01-22T09:24:55.138Z</time>
      </trkpt>
      <trkpt lat="47.81877" lon="1.96758">
        <ele>103</ele>
        <time>2017-01-22T09:24:56.144Z</time>
      </trkpt>
      <trkpt lat="47.81879" lon="1.96752">
        <ele>103</ele>
        <time>2017-01-22T09:24:57.127Z</time>
      </trkpt>
      <trkpt lat="47.81879" lon="1.96752">
        <ele>103</ele>
        <time>2017-01-22T09:24:58.132Z</time>
      </trkpt>
      <trkpt lat="47.81882" lon="1.9674">
        <ele>103</ele>
        <time>2017-01-22T09:24:59.144Z</time>
      </trkpt>
      <trkpt lat="47.81883" lon="1.96735">
        <ele>103</ele>
        <time>2017-01-22T09:25:00.155Z</time>
      </trkpt>
      <trkpt lat="47.81883" lon="1.96735">
        <ele>103</ele>
        <time>2017-01-22T09:25:01.120Z</time>
      </trkpt>
      <trkpt lat="47.81888" lon="1.96732">
        <ele>103</ele>
        <time>2017-01-22T09:25:02.133Z</time>
      </trkpt>
      <trkpt lat="47.81888" lon="1.96732">
        <ele>103</ele>
        <time>2017-01-22T09:25:03.139Z</time>
      </trkpt>
      <trkpt lat="47.81894" lon="1.96735">
        <ele>103</ele>
        <time>2017-01-22T09:25:04.152Z</time>
      </trkpt>
      <trkpt lat="47.81896" lon="1.96736">
        <ele>103</ele>
        <time>2017-01-22T09:25:05.122Z</time>
      </trkpt>
      <trkpt lat="47.81899" lon="1.96737">
        <ele>103</ele>
        <time>2017-01-22T09:25:06.128Z</time>
      </trkpt>
      <trkpt lat="47.81899" lon="1.96737">
        <ele>103</ele>
        <time>2017-01-22T09:25:07.133Z</time>
      </trkpt>
      <trkpt lat="47.81905" lon="1.96741">
        <ele>103</ele>
        <time>2017-01-22T09:25:08.156Z</time>
      </trkpt>
      <trkpt lat="47.81908" lon="1.96743">
        <ele>103</ele>
        <time>2017-01-22T09:25:09.138Z</time>
      </trkpt>
      <trkpt lat="47.81908" lon="1.96743">
        <ele>103</ele>
        <time>2017-01-22T09:25:10.143Z</time>
      </trkpt>
      <trkpt lat="47.81915" lon="1.96746">
        <ele>104</ele>
        <time>2017-01-22T09:25:11.153Z</time>
      </trkpt>
      <trkpt lat="47.81919" lon="1.96748">
        <ele>104</ele>
        <time>2017-01-22T09:25:12.134Z</time>
      </trkpt>
      <trkpt lat="47.81919" lon="1.96748">
        <ele>104</ele>
        <time>2017-01-22T09:25:13.140Z</time>
      </trkpt>
      <trkpt lat="47.81926" lon="1.96752">
        <ele>104</ele>
        <time>2017-01-22T09:25:14.149Z</time>
      </trkpt>
      <trkpt lat="47.81931" lon="1.96754">
        <ele>104</ele>
        <time>2017-01-22T09:25:15.150Z</time>
      </trkpt>
      <trkpt lat="47.81931" lon="1.96754">
        <ele>104</ele>
        <time>2017-01-22T09:25:16.156Z</time>
      </trkpt>
      <trkpt lat="47.81938" lon="1.96758">
        <ele>105</ele>
        <time>2017-01-22T09:25:17.126Z</time>
      </trkpt>
      <trkpt lat="47.81943" lon="1.96761">
        <ele>105</ele>
        <time>2017-01-22T09:25:18.140Z</time>
      </trkpt>
      <trkpt lat="47.81943" lon="1.96761">
        <ele>105</ele>
        <time>2017-01-22T09:25:19.146Z</time>
      </trkpt>
      <trkpt lat="47.81952" lon="1.96766">
        <ele>106</ele>
        <time>2017-01-22T09:25:20.119Z</time>
      </trkpt>
      <trkpt lat="47.81956" lon="1.96768">
        <ele>106</ele>
        <time>2017-01-22T09:25:21.131Z</time>
      </trkpt>
      <trkpt lat="47.81956" lon="1.96768">
        <ele>106</ele>
        <time>2017-01-22T09:25:22.137Z</time>
      </trkpt>
      <trkpt lat="47.81965" lon="1.96772">
        <ele>106</ele>
        <time>2017-01-22T09:25:23.151Z</time>
      </trkpt>
      <trkpt lat="47.81965" lon="1.96772">
        <ele>106</ele>
        <time>2017-01-22T09:25:24.157Z</time>
      </trkpt>
      <trkpt lat="47.81975" lon="1.96777">
        <ele>106</ele>
        <time>2017-01-22T09:25:25.120Z</time>
      </trkpt>
      <trkpt lat="47.81975" lon="1.96777">
        <ele>106</ele>
        <time>2017-01-22T09:25:26.125Z</time>
      </trkpt>
      <trkpt lat="47.81984" lon="1.96782">
        <ele>107</ele>
        <time>2017-01-22T09:25:27.132Z</time>
      </trkpt>
      <trkpt lat="47.81984" lon="1.96782">
        <ele>107</ele>
        <time>2017-01-22T09:25:28.137Z</time>
      </trkpt>
      <trkpt lat="47.81994" lon="1.96787">
        <ele>107</ele>
        <time>2017-01-22T09:25:29.155Z</time>
      </trkpt>
      <trkpt lat="47.81994" lon="1.96787">
        <ele>107</ele>
        <time>2017-01-22T09:25:30.121Z</time>
      </trkpt>
      <trkpt lat="47.82004" lon="1.96792">
        <ele>107</ele>
        <time>2017-01-22T09:25:31.139Z</time>
      </trkpt>
      <trkpt lat="47.82009" lon="1.96794">
        <ele>107</ele>
        <time>2017-01-22T09:25:32.133Z</time>
      </trkpt>
      <trkpt lat="47.82009" lon="1.96794">
        <ele>107</ele>
        <time>2017-01-22T09:25:33.139Z</time>
      </trkpt>
      <trkpt lat="47.82018" lon="1.968">
        <ele>108</ele>
        <time>2017-01-22T09:25:34.155Z</time>
      </trkpt>
      <trkpt lat="47.82018" lon="1.968">
        <ele>108</ele>
        <time>2017-01-22T09:25:35.120Z</time>
      </trkpt>
      <trkpt lat="47.82028" lon="1.96805">
        <ele>109</ele>
        <time>2017-01-22T09:25:36.124Z</time>
      </trkpt>
      <trkpt lat="47.82028" lon="1.96805">
        <ele>109</ele>
        <time>2017-01-22T09:25:37.130Z</time>
      </trkpt>
      <trkpt lat="47.82038" lon="1.96811">
        <ele>109</ele>
        <time>2017-01-22T09:25:38.137Z</time>
      </trkpt>
      <trkpt lat="47.82038" lon="1.96811">
        <ele>109</ele>
        <time>2017-01-22T09:25:39.158Z</time>
      </trkpt>
      <trkpt lat="47.82048" lon="1.96817">
        <ele>110</ele>
        <time>2017-01-22T09:25:40.153Z</time>
      </trkpt>
      <trkpt lat="47.82048" lon="1.96817">
        <ele>110</ele>
        <time>2017-01-22T09:25:41.119Z</time>
      </trkpt>
      <trkpt lat="47.82057" lon="1.96822">
        <ele>111</ele>
        <time>2017-01-22T09:25:42.126Z</time>
      </trkpt>
      <trkpt lat="47.82057" lon="1.96822">
        <ele>111</ele>
        <time>2017-01-22T09:25:43.131Z</time>
      </trkpt>
      <trkpt lat="47.82066" lon="1.96827">
        <ele>111</ele>
        <time>2017-01-22T09:25:44.150Z</time>
      </trkpt>
      <trkpt lat="47.82066" lon="1.96827">
        <ele>111</ele>
        <time>2017-01-22T09:25:45.156Z</time>
      </trkpt>
      <trkpt lat="47.82077" lon="1.96833">
        <ele>112</ele>
        <time>2017-01-22T09:25:46.123Z</time>
      </trkpt>
      <trkpt lat="47.82082" lon="1.96835">
        <ele>112</ele>
        <time>2017-01-22T09:25:47.125Z</time>
      </trkpt>
      <trkpt lat="47.82082" lon="1.96835">
        <ele>112</ele>
        <time>2017-01-22T09:25:48.130Z</time>
      </trkpt>
      <trkpt lat="47.8209" lon="1.96844">
        <ele>112</ele>
        <time>2017-01-22T09:25:49.137Z</time>
      </trkpt>
      <trkpt lat="47.82093" lon="1.96849">
        <ele>112</ele>
        <time>2017-01-22T09:25:50.155Z</time>
      </trkpt>
      <trkpt lat="47.82093" lon="1.96849">
        <ele>112</ele>
        <time>2017-01-22T09:25:51.121Z</time>
      </trkpt>
      <trkpt lat="47.82099" lon="1.96861">
        <ele>110</ele>
        <time>2017-01-22T09:25:52.133Z</time>
      </trkpt>
      <trkpt lat="47.82099" lon="1.96861">
        <ele>110</ele>
        <time>2017-01-22T09:25:53.139Z</time>
      </trkpt>
      <trkpt lat="47.82101" lon="1.96874">
        <ele>109</ele>
        <time>2017-01-22T09:25:54.125Z</time>
      </trkpt>
      <trkpt lat="47.82101" lon="1.96874">
        <ele>109</ele>
        <time>2017-01-22T09:25:55.131Z</time>
      </trkpt>
      <trkpt lat="47.82102" lon="1.96889">
        <ele>109</ele>
        <time>2017-01-22T09:25:56.138Z</time>
      </trkpt>
      <trkpt lat="47.82102" lon="1.96889">
        <ele>109</ele>
        <time>2017-01-22T09:25:57.144Z</time>
      </trkpt>
      <trkpt lat="47.82101" lon="1.96905">
        <ele>109</ele>
        <time>2017-01-22T09:25:58.125Z</time>
      </trkpt>
      <trkpt lat="47.82101" lon="1.96905">
        <ele>109</ele>
        <time>2017-01-22T09:25:59.132Z</time>
      </trkpt>
      <trkpt lat="47.82099" lon="1.96919">
        <ele>108</ele>
        <time>2017-01-22T09:26:00.138Z</time>
      </trkpt>
      <trkpt lat="47.82099" lon="1.96919">
        <ele>108</ele>
        <time>2017-01-22T09:26:01.145Z</time>
      </trkpt>
      <trkpt lat="47.82097" lon="1.96932">
        <ele>107</ele>
        <time>2017-01-22T09:26:02.141Z</time>
      </trkpt>
      <trkpt lat="47.82097" lon="1.96932">
        <ele>107</ele>
        <time>2017-01-22T09:26:03.149Z</time>
      </trkpt>
      <trkpt lat="47.82097" lon="1.96943">
        <ele>106</ele>
        <time>2017-01-22T09:26:04.141Z</time>
      </trkpt>
      <trkpt lat="47.82099" lon="1.96947">
        <ele>106</ele>
        <time>2017-01-22T09:26:05.153Z</time>
      </trkpt>
      <trkpt lat="47.82099" lon="1.96947">
        <ele>106</ele>
        <time>2017-01-22T09:26:06.118Z</time>
      </trkpt>
      <trkpt lat="47.82103" lon="1.96951">
        <ele>106</ele>
        <time>2017-01-22T09:26:07.142Z</time>
      </trkpt>
      <trkpt lat="47.82103" lon="1.96951">
        <ele>106</ele>
        <time>2017-01-22T09:26:08.148Z</time>
      </trkpt>
      <trkpt lat="47.82107" lon="1.96949">
        <ele>105</ele>
        <time>2017-01-22T09:26:09.155Z</time>
      </trkpt>
      <trkpt lat="47.82107" lon="1.96949">
        <ele>105</ele>
        <time>2017-01-22T09:26:10.121Z</time>
      </trkpt>
      <trkpt lat="47.82113" lon="1.96949">
        <ele>105</ele>
        <time>2017-01-22T09:26:11.157Z</time>
      </trkpt>
      <trkpt lat="47.82116" lon="1.96951">
        <ele>104</ele>
        <time>2017-01-22T09:26:12.124Z</time>
      </trkpt>
      <trkpt lat="47.82116" lon="1.96951">
        <ele>104</ele>
        <time>2017-01-22T09:26:13.130Z</time>
      </trkpt>
      <trkpt lat="47.82121" lon="1.96956">
        <ele>104</ele>
        <time>2017-01-22T09:26:14.136Z</time>
      </trkpt>
      <trkpt lat="47.82124" lon="1.96959">
        <ele>103</ele>
        <time>2017-01-22T09:26:15.155Z</time>
      </trkpt>
      <trkpt lat="47.82124" lon="1.96959">
        <ele>103</ele>
        <time>2017-01-22T09:26:16.121Z</time>
      </trkpt>
      <trkpt lat="47.82127" lon="1.96957">
        <ele>103</ele>
        <time>2017-01-22T09:26:17.127Z</time>
      </trkpt>
      <trkpt lat="47.82128" lon="1.96956">
        <ele>102</ele>
        <time>2017-01-22T09:26:18.118Z</time>
      </trkpt>
      <trkpt lat="47.82128" lon="1.96956">
        <ele>102</ele>
        <time>2017-01-22T09:26:19.124Z</time>
      </trkpt>
      <trkpt lat="47.82133" lon="1.96958">
        <ele>102</ele>
        <time>2017-01-22T09:26:20.130Z</time>
      </trkpt>
      <trkpt lat="47.82133" lon="1.96958">
        <ele>102</ele>
        <time>2017-01-22T09:26:21.136Z</time>
      </trkpt>
      <trkpt lat="47.82139" lon="1.96965">
        <ele>101</ele>
        <time>2017-01-22T09:26:22.155Z</time>
      </trkpt>
      <trkpt lat="47.82139" lon="1.96965">
        <ele>101</ele>
        <time>2017-01-22T09:26:23.121Z</time>
      </trkpt>
      <trkpt lat="47.8214" lon="1.96975">
        <ele>101</ele>
        <time>2017-01-22T09:26:24.127Z</time>
      </trkpt>
      <trkpt lat="47.82141" lon="1.96982">
        <ele>101</ele>
        <time>2017-01-22T09:26:25.138Z</time>
      </trkpt>
      <trkpt lat="47.82141" lon="1.96982">
        <ele>101</ele>
        <time>2017-01-22T09:26:26.144Z</time>
      </trkpt>
      <trkpt lat="47.82146" lon="1.96995">
        <ele>101</ele>
        <time>2017-01-22T09:26:27.157Z</time>
      </trkpt>
      <trkpt lat="47.8215" lon="1.96998">
        <ele>101</ele>
        <time>2017-01-22T09:26:28.150Z</time>
      </trkpt>
      <trkpt lat="47.8215" lon="1.96998">
        <ele>101</ele>
        <time>2017-01-22T09:26:29.156Z</time>
      </trkpt>
      <trkpt lat="47.82158" lon="1.97005">
        <ele>101</ele>
        <time>2017-01-22T09:26:30.123Z</time>
      </trkpt>
      <trkpt lat="47.82158" lon="1.97005">
        <ele>101</ele>
        <time>2017-01-22T09:26:31.129Z</time>
      </trkpt>
      <trkpt lat="47.82165" lon="1.97011">
        <ele>101</ele>
        <time>2017-01-22T09:26:32.120Z</time>
      </trkpt>
      <trkpt lat="47.82165" lon="1.97011">
        <ele>101</ele>
        <time>2017-01-22T09:26:33.126Z</time>
      </trkpt>
      <trkpt lat="47.82176" lon="1.97015">
        <ele>101</ele>
        <time>2017-01-22T09:26:34.141Z</time>
      </trkpt>
      <trkpt lat="47.82181" lon="1.97015">
        <ele>101</ele>
        <time>2017-01-22T09:26:35.127Z</time>
      </trkpt>
      <trkpt lat="47.82186" lon="1.97015">
        <ele>101</ele>
        <time>2017-01-22T09:26:36.133Z</time>
      </trkpt>
      <trkpt lat="47.82186" lon="1.97015">
        <ele>101</ele>
        <time>2017-01-22T09:26:37.140Z</time>
      </trkpt>
      <trkpt lat="47.82198" lon="1.97015">
        <ele>102</ele>
        <time>2017-01-22T09:26:38.137Z</time>
      </trkpt>
      <trkpt lat="47.82198" lon="1.97015">
        <ele>102</ele>
        <time>2017-01-22T09:26:39.150Z</time>
      </trkpt>
      <trkpt lat="47.82207" lon="1.97007">
        <ele>103</ele>
        <time>2017-01-22T09:26:40.126Z</time>
      </trkpt>
      <trkpt lat="47.82207" lon="1.97007">
        <ele>103</ele>
        <time>2017-01-22T09:26:41.132Z</time>
      </trkpt>
      <trkpt lat="47.8221" lon="1.96994">
        <ele>104</ele>
        <time>2017-01-22T09:26:42.134Z</time>
      </trkpt>
      <trkpt lat="47.8221" lon="1.96994">
        <ele>104</ele>
        <time>2017-01-22T09:26:43.140Z</time>
      </trkpt>
      <trkpt lat="47.82213" lon="1.96981">
        <ele>104</ele>
        <time>2017-01-22T09:26:44.148Z</time>
      </trkpt>
      <trkpt lat="47.82213" lon="1.96981">
        <ele>104</ele>
        <time>2017-01-22T09:26:45.118Z</time>
      </trkpt>
      <trkpt lat="47.8222" lon="1.96969">
        <ele>105</ele>
        <time>2017-01-22T09:26:46.156Z</time>
      </trkpt>
      <trkpt lat="47.8222" lon="1.96969">
        <ele>105</ele>
        <time>2017-01-22T09:26:47.122Z</time>
      </trkpt>
      <trkpt lat="47.82226" lon="1.96954">
        <ele>105</ele>
        <time>2017-01-22T09:26:48.128Z</time>
      </trkpt>
      <trkpt lat="47.82226" lon="1.96954">
        <ele>105</ele>
        <time>2017-01-22T09:26:49.134Z</time>
      </trkpt>
      <trkpt lat="47.82231" lon="1.9694">
        <ele>105</ele>
        <time>2017-01-22T09:26:50.124Z</time>
      </trkpt>
      <trkpt lat="47.82231" lon="1.9694">
        <ele>105</ele>
        <time>2017-01-22T09:26:51.129Z</time>
      </trkpt>
      <trkpt lat="47.82235" lon="1.96931">
        <ele>105</ele>
        <time>2017-01-22T09:26:52.135Z</time>
      </trkpt>
      <trkpt lat="47.82238" lon="1.96928">
        <ele>105</ele>
        <time>2017-01-22T09:26:53.157Z</time>
      </trkpt>
      <trkpt lat="47.82241" lon="1.96925">
        <ele>105</ele>
        <time>2017-01-22T09:26:54.156Z</time>
      </trkpt>
      <trkpt lat="47.82241" lon="1.96925">
        <ele>105</ele>
        <time>2017-01-22T09:26:55.121Z</time>
      </trkpt>
      <trkpt lat="47.82244" lon="1.96916">
        <ele>106</ele>
        <time>2017-01-22T09:26:56.127Z</time>
      </trkpt>
      <trkpt lat="47.82245" lon="1.96909">
        <ele>106</ele>
        <time>2017-01-22T09:26:57.154Z</time>
      </trkpt>
      <trkpt lat="47.82245" lon="1.96909">
        <ele>106</ele>
        <time>2017-01-22T09:26:58.120Z</time>
      </trkpt>
      <trkpt lat="47.82245" lon="1.96895">
        <ele>107</ele>
        <time>2017-01-22T09:26:59.139Z</time>
      </trkpt>
      <trkpt lat="47.82245" lon="1.96895">
        <ele>107</ele>
        <time>2017-01-22T09:27:00.151Z</time>
      </trkpt>
      <trkpt lat="47.82245" lon="1.96879">
        <ele>107</ele>
        <time>2017-01-22T09:27:01.156Z</time>
      </trkpt>
      <trkpt lat="47.82245" lon="1.96879">
        <ele>107</ele>
        <time>2017-01-22T09:27:02.121Z</time>
      </trkpt>
      <trkpt lat="47.82247" lon="1.96863">
        <ele>108</ele>
        <time>2017-01-22T09:27:03.128Z</time>
      </trkpt>
      <trkpt lat="47.82247" lon="1.96863">
        <ele>108</ele>
        <time>2017-01-22T09:27:04.141Z</time>
      </trkpt>
      <trkpt lat="47.82249" lon="1.96848">
        <ele>108</ele>
        <time>2017-01-22T09:27:05.143Z</time>
      </trkpt>
      <trkpt lat="47.82249" lon="1.96848">
        <ele>108</ele>
        <time>2017-01-22T09:27:06.148Z</time>
      </trkpt>
      <trkpt lat="47.82253" lon="1.96834">
        <ele>107</ele>
        <time>2017-01-22T09:27:07.155Z</time>
      </trkpt>
      <trkpt lat="47.82253" lon="1.96834">
        <ele>107</ele>
        <time>2017-01-22T09:27:08.120Z</time>
      </trkpt>
      <trkpt lat="47.82258" lon="1.96823">
        <ele>107</ele>
        <time>2017-01-22T09:27:09.140Z</time>
      </trkpt>
      <trkpt lat="47.8226" lon="1.9682">
        <ele>107</ele>
        <time>2017-01-22T09:27:10.152Z</time>
      </trkpt>
      <trkpt lat="47.8226" lon="1.9682">
        <ele>107</ele>
        <time>2017-01-22T09:27:11.118Z</time>
      </trkpt>
      <trkpt lat="47.82267" lon="1.96814">
        <ele>108</ele>
        <time>2017-01-22T09:27:12.154Z</time>
      </trkpt>
      <trkpt lat="47.82267" lon="1.96814">
        <ele>108</ele>
        <time>2017-01-22T09:27:13.119Z</time>
      </trkpt>
      <trkpt lat="47.82273" lon="1.96809">
        <ele>108</ele>
        <time>2017-01-22T09:27:14.137Z</time>
      </trkpt>
      <trkpt lat="47.82275" lon="1.96808">
        <ele>108</ele>
        <time>2017-01-22T09:27:15.155Z</time>
      </trkpt>
      <trkpt lat="47.82277" lon="1.96808">
        <ele>108</ele>
        <time>2017-01-22T09:27:16.123Z</time>
      </trkpt>
      <trkpt lat="47.82277" lon="1.96808">
        <ele>108</ele>
        <time>2017-01-22T09:27:17.128Z</time>
      </trkpt>
      <trkpt lat="47.82279" lon="1.9681">
        <ele>108</ele>
        <time>2017-01-22T09:27:18.124Z</time>
      </trkpt>
      <trkpt lat="47.82279" lon="1.9681">
        <ele>108</ele>
        <time>2017-01-22T09:27:19.130Z</time>
      </trkpt>
      <trkpt lat="47.82284" lon="1.96814">
        <ele>108</ele>
        <time>2017-01-22T09:27:20.136Z</time>
      </trkpt>
      <trkpt lat="47.82284" lon="1.96814">
        <ele>108</ele>
        <time>2017-01-22T09:27:21.153Z</time>
      </trkpt>
      <trkpt lat="47.82287" lon="1.96818">
        <ele>108</ele>
        <time>2017-01-22T09:27:22.146Z</time>
      </trkpt>
      <trkpt lat="47.82287" lon="1.96818">
        <ele>108</ele>
        <time>2017-01-22T09:27:23.151Z</time>
      </trkpt>
      <trkpt lat="47.82292" lon="1.96823">
        <ele>109</ele>
        <time>2017-01-22T09:27:24.122Z</time>
      </trkpt>
      <trkpt lat="47.82292" lon="1.96823">
        <ele>109</ele>
        <time>2017-01-22T09:27:25.128Z</time>
      </trkpt>
      <trkpt lat="47.82298" lon="1.96827">
        <ele>110</ele>
        <time>2017-01-22T09:27:26.139Z</time>
      </trkpt>
      <trkpt lat="47.82298" lon="1.96827">
        <ele>110</ele>
        <time>2017-01-22T09:27:27.146Z</time>
      </trkpt>
      <trkpt lat="47.82304" lon="1.9683">
        <ele>110</ele>
        <time>2017-01-22T09:27:28.153Z</time>
      </trkpt>
      <trkpt lat="47.82304" lon="1.9683">
        <ele>110</ele>
        <time>2017-01-22T09:27:29.124Z</time>
      </trkpt>
      <trkpt lat="47.8231" lon="1.96833">
        <ele>110</ele>
        <time>2017-01-22T09:27:30.120Z</time>
      </trkpt>
      <trkpt lat="47.8231" lon="1.96833">
        <ele>110</ele>
        <time>2017-01-22T09:27:31.125Z</time>
      </trkpt>
      <trkpt lat="47.82317" lon="1.96835">
        <ele>110</ele>
        <time>2017-01-22T09:27:32.132Z</time>
      </trkpt>
      <trkpt lat="47.82319" lon="1.96836">
        <ele>110</ele>
        <time>2017-01-22T09:27:33.138Z</time>
      </trkpt>
      <trkpt lat="47.82319" lon="1.96836">
        <ele>110</ele>
        <time>2017-01-22T09:27:34.143Z</time>
      </trkpt>
      <trkpt lat="47.82323" lon="1.96839">
        <ele>110</ele>
        <time>2017-01-22T09:27:35.122Z</time>
      </trkpt>
      <trkpt lat="47.82327" lon="1.96841">
        <ele>110</ele>
        <time>2017-01-22T09:27:36.129Z</time>
      </trkpt>
      <trkpt lat="47.82327" lon="1.96841">
        <ele>110</ele>
        <time>2017-01-22T09:27:37.134Z</time>
      </trkpt>
      <trkpt lat="47.82332" lon="1.96844">
        <ele>110</ele>
        <time>2017-01-22T09:27:38.144Z</time>
      </trkpt>
      <trkpt lat="47.82335" lon="1.96846">
        <ele>111</ele>
        <time>2017-01-22T09:27:39.120Z</time>
      </trkpt>
      <trkpt lat="47.82335" lon="1.96846">
        <ele>111</ele>
        <time>2017-01-22T09:27:40.126Z</time>
      </trkpt>
      <trkpt lat="47.82341" lon="1.96849">
        <ele>111</ele>
        <time>2017-01-22T09:27:41.133Z</time>
      </trkpt>
      <trkpt lat="47.82344" lon="1.96851">
        <ele>111</ele>
        <time>2017-01-22T09:27:42.126Z</time>
      </trkpt>
      <trkpt lat="47.82344" lon="1.96851">
        <ele>111</ele>
        <time>2017-01-22T09:27:43.132Z</time>
      </trkpt>
      <trkpt lat="47.8235" lon="1.96854">
        <ele>112</ele>
        <time>2017-01-22T09:27:44.152Z</time>
      </trkpt>
      <trkpt lat="47.8235" lon="1.96854">
        <ele>112</ele>
        <time>2017-01-22T09:27:45.120Z</time>
      </trkpt>
      <trkpt lat="47.82355" lon="1.96852">
        <ele>113</ele>
        <time>2017-01-22T09:27:46.149Z</time>
      </trkpt>
      <trkpt lat="47.82355" lon="1.96852">
        <ele>113</ele>
        <time>2017-01-22T09:27:47.155Z</time>
      </trkpt>
      <trkpt lat="47.82359" lon="1.96847">
        <ele>113</ele>
        <time>2017-01-22T09:27:48.143Z</time>
      </trkpt>
      <trkpt lat="47.82359" lon="1.96847">
        <ele>113</ele>
        <time>2017-01-22T09:27:49.151Z</time>
      </trkpt>
      <trkpt lat="47.8236" lon="1.9684">
        <ele>114</ele>
        <time>2017-01-22T09:27:50.124Z</time>
      </trkpt>
      <trkpt lat="47.8236" lon="1.9684">
        <ele>114</ele>
        <time>2017-01-22T09:27:51.130Z</time>
      </trkpt>
      <trkpt lat="47.82361" lon="1.96831">
        <ele>114</ele>
        <time>2017-01-22T09:27:52.136Z</time>
      </trkpt>
      <trkpt lat="47.82361" lon="1.96831">
        <ele>114</ele>
        <time>2017-01-22T09:27:53.141Z</time>
      </trkpt>
      <trkpt lat="47.82363" lon="1.96821">
        <ele>114</ele>
        <time>2017-01-22T09:27:54.143Z</time>
      </trkpt>
      <trkpt lat="47.82363" lon="1.96821">
        <ele>114</ele>
        <time>2017-01-22T09:27:55.154Z</time>
      </trkpt>
      <trkpt lat="47.82364" lon="1.9681">
        <ele>115</ele>
        <time>2017-01-22T09:27:56.133Z</time>
      </trkpt>
      <trkpt lat="47.82364" lon="1.96805">
        <ele>115</ele>
        <time>2017-01-22T09:27:57.136Z</time>
      </trkpt>
      <trkpt lat="47.82364" lon="1.96805">
        <ele>115</ele>
        <time>2017-01-22T09:27:58.142Z</time>
      </trkpt>
      <trkpt lat="47.82367" lon="1.96795">
        <ele>115</ele>
        <time>2017-01-22T09:27:59.122Z</time>
      </trkpt>
      <trkpt lat="47.82368" lon="1.96791">
        <ele>115</ele>
        <time>2017-01-22T09:28:00.142Z</time>
      </trkpt>
      <trkpt lat="47.82368" lon="1.96791">
        <ele>115</ele>
        <time>2017-01-22T09:28:01.130Z</time>
      </trkpt>
      <trkpt lat="47.82369" lon="1.96783">
        <ele>115</ele>
        <time>2017-01-22T09:28:02.133Z</time>
      </trkpt>
      <trkpt lat="47.82369" lon="1.96783">
        <ele>115</ele>
        <time>2017-01-22T09:28:03.139Z</time>
      </trkpt>
      <trkpt lat="47.82367" lon="1.96773">
        <ele>115</ele>
        <time>2017-01-22T09:28:04.123Z</time>
      </trkpt>
      <trkpt lat="47.82366" lon="1.96769">
        <ele>115</ele>
        <time>2017-01-22T09:28:05.132Z</time>
      </trkpt>
      <trkpt lat="47.82366" lon="1.96769">
        <ele>115</ele>
        <time>2017-01-22T09:28:06.137Z</time>
      </trkpt>
      <trkpt lat="47.82362" lon="1.96762">
        <ele>115</ele>
        <time>2017-01-22T09:28:07.144Z</time>
      </trkpt>
      <trkpt lat="47.82362" lon="1.96762">
        <ele>115</ele>
        <time>2017-01-22T09:28:08.149Z</time>
      </trkpt>
      <trkpt lat="47.82357" lon="1.96759">
        <ele>115</ele>
        <time>2017-01-22T09:28:09.124Z</time>
      </trkpt>
      <trkpt lat="47.82357" lon="1.96759">
        <ele>115</ele>
        <time>2017-01-22T09:28:10.129Z</time>
      </trkpt>
      <trkpt lat="47.82352" lon="1.96757">
        <ele>116</ele>
        <time>2017-01-22T09:28:11.136Z</time>
      </trkpt>
      <trkpt lat="47.82349" lon="1.96756">
        <ele>117</ele>
        <time>2017-01-22T09:28:12.142Z</time>
      </trkpt>
      <trkpt lat="47.82349" lon="1.96756">
        <ele>117</ele>
        <time>2017-01-22T09:28:13.121Z</time>
      </trkpt>
      <trkpt lat="47.82342" lon="1.96754">
        <ele>117</ele>
        <time>2017-01-22T09:28:14.123Z</time>
      </trkpt>
      <trkpt lat="47.82339" lon="1.96753">
        <ele>117</ele>
        <time>2017-01-22T09:28:15.129Z</time>
      </trkpt>
      <trkpt lat="47.82339" lon="1.96753">
        <ele>117</ele>
        <time>2017-01-22T09:28:16.134Z</time>
      </trkpt>
      <trkpt lat="47.82331" lon="1.9675">
        <ele>117</ele>
        <time>2017-01-22T09:28:17.156Z</time>
      </trkpt>
      <trkpt lat="47.82327" lon="1.96748">
        <ele>117</ele>
        <time>2017-01-22T09:28:18.123Z</time>
      </trkpt>
      <trkpt lat="47.82327" lon="1.96748">
        <ele>117</ele>
        <time>2017-01-22T09:28:19.129Z</time>
      </trkpt>
      <trkpt lat="47.82315" lon="1.96744">
        <ele>117</ele>
        <time>2017-01-22T09:28:20.118Z</time>
      </trkpt>
      <trkpt lat="47.8231" lon="1.96742">
        <ele>117</ele>
        <time>2017-01-22T09:28:21.124Z</time>
      </trkpt>
      <trkpt lat="47.8231" lon="1.96742">
        <ele>117</ele>
        <time>2017-01-22T09:28:22.130Z</time>
      </trkpt>
      <trkpt lat="47.82301" lon="1.96737">
        <ele>116</ele>
        <time>2017-01-22T09:28:23.137Z</time>
      </trkpt>
      <trkpt lat="47.82298" lon="1.96736">
        <ele>116</ele>
        <time>2017-01-22T09:28:24.118Z</time>
      </trkpt>
      <trkpt lat="47.82298" lon="1.96736">
        <ele>116</ele>
        <time>2017-01-22T09:28:25.129Z</time>
      </trkpt>
      <trkpt lat="47.82294" lon="1.96735">
        <ele>116</ele>
        <time>2017-01-22T09:28:26.144Z</time>
      </trkpt>
      <trkpt lat="47.82292" lon="1.96734">
        <ele>115</ele>
        <time>2017-01-22T09:28:27.152Z</time>
      </trkpt>
      <trkpt lat="47.82289" lon="1.96732">
        <ele>115</ele>
        <time>2017-01-22T09:28:28.118Z</time>
      </trkpt>
      <trkpt lat="47.82289" lon="1.96732">
        <ele>115</ele>
        <time>2017-01-22T09:28:29.124Z</time>
      </trkpt>
      <trkpt lat="47.82287" lon="1.96725">
        <ele>114</ele>
        <time>2017-01-22T09:28:30.123Z</time>
      </trkpt>
      <trkpt lat="47.82287" lon="1.96725">
        <ele>114</ele>
        <time>2017-01-22T09:28:31.128Z</time>
      </trkpt>
      <trkpt lat="47.82287" lon="1.96715">
        <ele>114</ele>
        <time>2017-01-22T09:28:32.135Z</time>
      </trkpt>
      <trkpt lat="47.82287" lon="1.96715">
        <ele>114</ele>
        <time>2017-01-22T09:28:33.140Z</time>
      </trkpt>
      <trkpt lat="47.8229" lon="1.96705">
        <ele>114</ele>
        <time>2017-01-22T09:28:34.129Z</time>
      </trkpt>
      <trkpt lat="47.8229" lon="1.96705">
        <ele>114</ele>
        <time>2017-01-22T09:28:35.145Z</time>
      </trkpt>
      <trkpt lat="47.82293" lon="1.96695">
        <ele>113</ele>
        <time>2017-01-22T09:28:36.152Z</time>
      </trkpt>
      <trkpt lat="47.82293" lon="1.96695">
        <ele>113</ele>
        <time>2017-01-22T09:28:37.118Z</time>
      </trkpt>
      <trkpt lat="47.82299" lon="1.96684">
        <ele>111</ele>
        <time>2017-01-22T09:28:38.133Z</time>
      </trkpt>
      <trkpt lat="47.82299" lon="1.96684">
        <ele>111</ele>
        <time>2017-01-22T09:28:39.141Z</time>
      </trkpt>
      <trkpt lat="47.82303" lon="1.96674">
        <ele>109</ele>
        <time>2017-01-22T09:28:40.150Z</time>
      </trkpt>
      <trkpt lat="47.82307" lon="1.9667">
        <ele>109</ele>
        <time>2017-01-22T09:28:41.128Z</time>
      </trkpt>
      <trkpt lat="47.82311" lon="1.96665">
        <ele>108</ele>
        <time>2017-01-22T09:28:42.134Z</time>
      </trkpt>
      <trkpt lat="47.82311" lon="1.96665">
        <ele>108</ele>
        <time>2017-01-22T09:28:43.139Z</time>
      </trkpt>
      <trkpt lat="47.8232" lon="1.96658">
        <ele>108</ele>
        <time>2017-01-22T09:28:44.146Z</time>
      </trkpt>
      <trkpt lat="47.82325" lon="1.96655">
        <ele>107</ele>
        <time>2017-01-22T09:28:45.142Z</time>
      </trkpt>
      <trkpt lat="47.82325" lon="1.96655">
        <ele>107</ele>
        <time>2017-01-22T09:28:46.149Z</time>
      </trkpt>
      <trkpt lat="47.82334" lon="1.96649">
        <ele>106</ele>
        <time>2017-01-22T09:28:47.118Z</time>
      </trkpt>
      <trkpt lat="47.82338" lon="1.96647">
        <ele>105</ele>
        <time>2017-01-22T09:28:48.121Z</time>
      </trkpt>
      <trkpt lat="47.82338" lon="1.96647">
        <ele>105</ele>
        <time>2017-01-22T09:28:49.132Z</time>
      </trkpt>
      <trkpt lat="47.82345" lon="1.96643">
        <ele>105</ele>
        <time>2017-01-22T09:28:50.138Z</time>
      </trkpt>
      <trkpt lat="47.82345" lon="1.96643">
        <ele>105</ele>
        <time>2017-01-22T09:28:51.145Z</time>
      </trkpt>
      <trkpt lat="47.82353" lon="1.96641">
        <ele>104</ele>
        <time>2017-01-22T09:28:52.138Z</time>
      </trkpt>
      <trkpt lat="47.82353" lon="1.96641">
        <ele>104</ele>
        <time>2017-01-22T09:28:53.144Z</time>
      </trkpt>
      <trkpt lat="47.82362" lon="1.96638">
        <ele>103</ele>
        <time>2017-01-22T09:28:54.153Z</time>
      </trkpt>
      <trkpt lat="47.82362" lon="1.96638">
        <ele>103</ele>
        <time>2017-01-22T09:28:55.131Z</time>
      </trkpt>
      <trkpt lat="47.82372" lon="1.96635">
        <ele>101</ele>
        <time>2017-01-22T09:28:56.156Z</time>
      </trkpt>
      <trkpt lat="47.82372" lon="1.96635">
        <ele>101</ele>
        <time>2017-01-22T09:28:57.122Z</time>
      </trkpt>
      <trkpt lat="47.82382" lon="1.96635">
        <ele>100</ele>
        <time>2017-01-22T09:28:58.128Z</time>
      </trkpt>
      <trkpt lat="47.82382" lon="1.96635">
        <ele>100</ele>
        <time>2017-01-22T09:28:59.138Z</time>
      </trkpt>
      <trkpt lat="47.82391" lon="1.96638">
        <ele>98</ele>
        <time>2017-01-22T09:29:00.146Z</time>
      </trkpt>
      <trkpt lat="47.82391" lon="1.96638">
        <ele>98</ele>
        <time>2017-01-22T09:29:01.151Z</time>
      </trkpt>
      <trkpt lat="47.824" lon="1.96643">
        <ele>96</ele>
        <time>2017-01-22T09:29:02.145Z</time>
      </trkpt>
      <trkpt lat="47.82405" lon="1.96645">
        <ele>95</ele>
        <time>2017-01-22T09:29:03.155Z</time>
      </trkpt>
      <trkpt lat="47.82405" lon="1.96645">
        <ele>95</ele>
        <time>2017-01-22T09:29:04.130Z</time>
      </trkpt>
      <trkpt lat="47.82413" lon="1.96647">
        <ele>94</ele>
        <time>2017-01-22T09:29:05.145Z</time>
      </trkpt>
      <trkpt lat="47.82418" lon="1.96648">
        <ele>95</ele>
        <time>2017-01-22T09:29:06.157Z</time>
      </trkpt>
      <trkpt lat="47.82418" lon="1.96648">
        <ele>95</ele>
        <time>2017-01-22T09:29:07.122Z</time>
      </trkpt>
      <trkpt lat="47.82427" lon="1.96648">
        <ele>94</ele>
        <time>2017-01-22T09:29:08.128Z</time>
      </trkpt>
      <trkpt lat="47.82432" lon="1.96647">
        <ele>94</ele>
        <time>2017-01-22T09:29:09.145Z</time>
      </trkpt>
      <trkpt lat="47.82432" lon="1.96647">
        <ele>94</ele>
        <time>2017-01-22T09:29:10.151Z</time>
      </trkpt>
      <trkpt lat="47.8244" lon="1.96644">
        <ele>95</ele>
        <time>2017-01-22T09:29:11.118Z</time>
      </trkpt>
      <trkpt lat="47.82444" lon="1.96641">
        <ele>96</ele>
        <time>2017-01-22T09:29:12.144Z</time>
      </trkpt>
      <trkpt lat="47.82444" lon="1.96641">
        <ele>96</ele>
        <time>2017-01-22T09:29:13.154Z</time>
      </trkpt>
      <trkpt lat="47.82453" lon="1.96636">
        <ele>96</ele>
        <time>2017-01-22T09:29:14.121Z</time>
      </trkpt>
      <trkpt lat="47.82457" lon="1.96633">
        <ele>96</ele>
        <time>2017-01-22T09:29:15.149Z</time>
      </trkpt>
      <trkpt lat="47.82457" lon="1.96633">
        <ele>96</ele>
        <time>2017-01-22T09:29:16.137Z</time>
      </trkpt>
      <trkpt lat="47.82463" lon="1.96624">
        <ele>97</ele>
        <time>2017-01-22T09:29:17.124Z</time>
      </trkpt>
      <trkpt lat="47.82465" lon="1.96621">
        <ele>97</ele>
        <time>2017-01-22T09:29:18.130Z</time>
      </trkpt>
      <trkpt lat="47.82465" lon="1.96621">
        <ele>97</ele>
        <time>2017-01-22T09:29:19.139Z</time>
      </trkpt>
      <trkpt lat="47.82472" lon="1.96614">
        <ele>98</ele>
        <time>2017-01-22T09:29:20.149Z</time>
      </trkpt>
      <trkpt lat="47.82477" lon="1.96611">
        <ele>99</ele>
        <time>2017-01-22T09:29:21.144Z</time>
      </trkpt>
      <trkpt lat="47.82477" lon="1.96611">
        <ele>99</ele>
        <time>2017-01-22T09:29:22.151Z</time>
      </trkpt>
      <trkpt lat="47.82485" lon="1.96605">
        <ele>100</ele>
        <time>2017-01-22T09:29:23.118Z</time>
      </trkpt>
      <trkpt lat="47.82489" lon="1.96603">
        <ele>100</ele>
        <time>2017-01-22T09:29:24.125Z</time>
      </trkpt>
      <trkpt lat="47.82489" lon="1.96603">
        <ele>100</ele>
        <time>2017-01-22T09:29:25.137Z</time>
      </trkpt>
      <trkpt lat="47.82496" lon="1.96599">
        <ele>100</ele>
        <time>2017-01-22T09:29:26.155Z</time>
      </trkpt>
      <trkpt lat="47.82496" lon="1.96599">
        <ele>100</ele>
        <time>2017-01-22T09:29:27.120Z</time>
      </trkpt>
      <trkpt lat="47.82505" lon="1.96595">
        <ele>101</ele>
        <time>2017-01-22T09:29:28.126Z</time>
      </trkpt>
      <trkpt lat="47.82509" lon="1.96593">
        <ele>101</ele>
        <time>2017-01-22T09:29:29.123Z</time>
      </trkpt>
      <trkpt lat="47.82509" lon="1.96593">
        <ele>101</ele>
        <time>2017-01-22T09:29:30.129Z</time>
      </trkpt>
      <trkpt lat="47.82517" lon="1.96592">
        <ele>101</ele>
        <time>2017-01-22T09:29:31.137Z</time>
      </trkpt>
      <trkpt lat="47.82522" lon="1.96591">
        <ele>102</ele>
        <time>2017-01-22T09:29:32.123Z</time>
      </trkpt>
      <trkpt lat="47.82525" lon="1.9659">
        <ele>102</ele>
        <time>2017-01-22T09:29:33.128Z</time>
      </trkpt>
      <trkpt lat="47.8253" lon="1.96589">
        <ele>101</ele>
        <time>2017-01-22T09:29:34.134Z</time>
      </trkpt>
      <trkpt lat="47.8253" lon="1.96589">
        <ele>101</ele>
        <time>2017-01-22T09:29:35.140Z</time>
      </trkpt>
      <trkpt lat="47.82538" lon="1.96587">
        <ele>102</ele>
        <time>2017-01-22T09:29:36.118Z</time>
      </trkpt>
      <trkpt lat="47.82542" lon="1.96587">
        <ele>101</ele>
        <time>2017-01-22T09:29:37.126Z</time>
      </trkpt>
      <trkpt lat="47.82542" lon="1.96587">
        <ele>101</ele>
        <time>2017-01-22T09:29:38.118Z</time>
      </trkpt>
      <trkpt lat="47.82551" lon="1.96587">
        <ele>101</ele>
        <time>2017-01-22T09:29:39.146Z</time>
      </trkpt>
      <trkpt lat="47.82551" lon="1.96587">
        <ele>101</ele>
        <time>2017-01-22T09:29:40.154Z</time>
      </trkpt>
      <trkpt lat="47.82557" lon="1.96589">
        <ele>102</ele>
        <time>2017-01-22T09:29:41.134Z</time>
      </trkpt>
      <trkpt lat="47.82561" lon="1.9659">
        <ele>102</ele>
        <time>2017-01-22T09:29:42.133Z</time>
      </trkpt>
      <trkpt lat="47.82561" lon="1.9659">
        <ele>102</ele>
        <time>2017-01-22T09:29:43.138Z</time>
      </trkpt>
      <trkpt lat="47.82569" lon="1.96594">
        <ele>102</ele>
        <time>2017-01-22T09:29:44.145Z</time>
      </trkpt>
      <trkpt lat="47.82569" lon="1.96594">
        <ele>102</ele>
        <time>2017-01-22T09:29:45.151Z</time>
      </trkpt>
      <trkpt lat="47.82577" lon="1.96595">
        <ele>102</ele>
        <time>2017-01-22T09:29:46.152Z</time>
      </trkpt>
      <trkpt lat="47.82577" lon="1.96595">
        <ele>102</ele>
        <time>2017-01-22T09:29:47.128Z</time>
      </trkpt>
      <trkpt lat="47.82585" lon="1.9659">
        <ele>103</ele>
        <time>2017-01-22T09:29:48.140Z</time>
      </trkpt>
      <trkpt lat="47.82585" lon="1.9659">
        <ele>103</ele>
        <time>2017-01-22T09:29:49.145Z</time>
      </trkpt>
      <trkpt lat="47.82589" lon="1.96575">
        <ele>104</ele>
        <time>2017-01-22T09:29:50.123Z</time>
      </trkpt>
      <trkpt lat="47.82589" lon="1.96575">
        <ele>104</ele>
        <time>2017-01-22T09:29:51.135Z</time>
      </trkpt>
      <trkpt lat="47.82589" lon="1.96561">
        <ele>104</ele>
        <time>2017-01-22T09:29:52.143Z</time>
      </trkpt>
      <trkpt lat="47.82589" lon="1.96561">
        <ele>104</ele>
        <time>2017-01-22T09:29:53.149Z</time>
      </trkpt>
      <trkpt lat="47.82585" lon="1.96548">
        <ele>105</ele>
        <time>2017-01-22T09:29:54.134Z</time>
      </trkpt>
      <trkpt lat="47.82585" lon="1.96548">
        <ele>105</ele>
        <time>2017-01-22T09:29:55.140Z</time>
      </trkpt>
      <trkpt lat="47.82583" lon="1.9654">
        <ele>105</ele>
        <time>2017-01-22T09:29:56.151Z</time>
      </trkpt>
      <trkpt lat="47.82583" lon="1.9654">
        <ele>105</ele>
        <time>2017-01-22T09:29:57.119Z</time>
      </trkpt>
      <trkpt lat="47.8258" lon="1.96536">
        <ele>106</ele>
        <time>2017-01-22T09:29:58.151Z</time>
      </trkpt>
      <trkpt lat="47.8258" lon="1.96536">
        <ele>106</ele>
        <time>2017-01-22T09:29:59.156Z</time>
      </trkpt>
      <trkpt lat="47.8258" lon="1.96535">
        <ele>106</ele>
        <time>2017-01-22T09:30:00.123Z</time>
      </trkpt>
      <trkpt lat="47.8258" lon="1.96535">
        <ele>106</ele>
        <time>2017-01-22T09:30:01.118Z</time>
      </trkpt>
      <trkpt lat="47.82579" lon="1.96533">
        <ele>107</ele>
        <time>2017-01-22T09:30:02.123Z</time>
      </trkpt>
      <trkpt lat="47.82579" lon="1.96533">
        <ele>107</ele>
        <time>2017-01-22T09:30:03.129Z</time>
      </trkpt>
      <trkpt lat="47.82578" lon="1.9653">
        <ele>107</ele>
        <time>2017-01-22T09:30:04.123Z</time>
      </trkpt>
      <trkpt lat="47.82578" lon="1.96528">
        <ele>107</ele>
        <time>2017-01-22T09:30:05.130Z</time>
      </trkpt>
      <trkpt lat="47.82578" lon="1.96527">
        <ele>106</ele>
        <time>2017-01-22T09:30:06.135Z</time>
      </trkpt>
      <trkpt lat="47.82577" lon="1.96524">
        <ele>106</ele>
        <time>2017-01-22T09:30:07.141Z</time>
      </trkpt>
      <trkpt lat="47.82577" lon="1.96523">
        <ele>106</ele>
        <time>2017-01-22T09:30:08.123Z</time>
      </trkpt>
      <trkpt lat="47.82577" lon="1.96523">
        <ele>106</ele>
        <time>2017-01-22T09:30:09.137Z</time>
      </trkpt>
      <trkpt lat="47.82577" lon="1.96518">
        <ele>107</ele>
        <time>2017-01-22T09:30:10.118Z</time>
      </trkpt>
      <trkpt lat="47.82577" lon="1.96516">
        <ele>107</ele>
        <time>2017-01-22T09:30:11.124Z</time>
      </trkpt>
      <trkpt lat="47.82577" lon="1.96516">
        <ele>107</ele>
        <time>2017-01-22T09:30:12.129Z</time>
      </trkpt>
      <trkpt lat="47.82578" lon="1.96514">
        <ele>107</ele>
        <time>2017-01-22T09:30:13.143Z</time>
      </trkpt>
      <trkpt lat="47.82578" lon="1.96512">
        <ele>107</ele>
        <time>2017-01-22T09:30:14.125Z</time>
      </trkpt>
      <trkpt lat="47.82578" lon="1.96512">
        <ele>107</ele>
        <time>2017-01-22T09:30:15.132Z</time>
      </trkpt>
      <trkpt lat="47.82578" lon="1.96507">
        <ele>108</ele>
        <time>2017-01-22T09:30:16.157Z</time>
      </trkpt>
      <trkpt lat="47.82578" lon="1.96507">
        <ele>108</ele>
        <time>2017-01-22T09:30:17.122Z</time>
      </trkpt>
      <trkpt lat="47.82577" lon="1.96503">
        <ele>108</ele>
        <time>2017-01-22T09:30:18.118Z</time>
      </trkpt>
      <trkpt lat="47.82577" lon="1.96503">
        <ele>108</ele>
        <time>2017-01-22T09:30:19.124Z</time>
      </trkpt>
      <trkpt lat="47.82576" lon="1.96497">
        <ele>109</ele>
        <time>2017-01-22T09:30:20.130Z</time>
      </trkpt>
      <trkpt lat="47.82576" lon="1.96497">
        <ele>109</ele>
        <time>2017-01-22T09:30:21.136Z</time>
      </trkpt>
      <trkpt lat="47.82576" lon="1.9649">
        <ele>109</ele>
        <time>2017-01-22T09:30:22.147Z</time>
      </trkpt>
      <trkpt lat="47.82576" lon="1.9649">
        <ele>109</ele>
        <time>2017-01-22T09:30:23.152Z</time>
      </trkpt>
      <trkpt lat="47.82577" lon="1.96483">
        <ele>110</ele>
        <time>2017-01-22T09:30:24.119Z</time>
      </trkpt>
      <trkpt lat="47.82577" lon="1.96483">
        <ele>110</ele>
        <time>2017-01-22T09:30:25.124Z</time>
      </trkpt>
      <trkpt lat="47.82579" lon="1.96473">
        <ele>109</ele>
        <time>2017-01-22T09:30:26.136Z</time>
      </trkpt>
      <trkpt lat="47.82581" lon="1.96465">
        <ele>109</ele>
        <time>2017-01-22T09:30:27.143Z</time>
      </trkpt>
      <trkpt lat="47.82581" lon="1.96465">
        <ele>109</ele>
        <time>2017-01-22T09:30:28.150Z</time>
      </trkpt>
      <trkpt lat="47.82585" lon="1.96449">
        <ele>110</ele>
        <time>2017-01-22T09:30:29.127Z</time>
      </trkpt>
      <trkpt lat="47.82587" lon="1.96442">
        <ele>110</ele>
        <time>2017-01-22T09:30:30.134Z</time>
      </trkpt>
      <trkpt lat="47.82587" lon="1.96442">
        <ele>110</ele>
        <time>2017-01-22T09:30:31.139Z</time>
      </trkpt>
      <trkpt lat="47.82593" lon="1.96431">
        <ele>110</ele>
        <time>2017-01-22T09:30:32.134Z</time>
      </trkpt>
      <trkpt lat="47.82593" lon="1.96431">
        <ele>110</ele>
        <time>2017-01-22T09:30:33.140Z</time>
      </trkpt>
      <trkpt lat="47.82598" lon="1.96422">
        <ele>109</ele>
        <time>2017-01-22T09:30:34.146Z</time>
      </trkpt>
      <trkpt lat="47.82598" lon="1.96422">
        <ele>109</ele>
        <time>2017-01-22T09:30:35.152Z</time>
      </trkpt>
      <trkpt lat="47.82602" lon="1.96419">
        <ele>108</ele>
        <time>2017-01-22T09:30:36.131Z</time>
      </trkpt>
      <trkpt lat="47.82603" lon="1.9642">
        <ele>108</ele>
        <time>2017-01-22T09:30:37.148Z</time>
      </trkpt>
      <trkpt lat="47.82603" lon="1.9642">
        <ele>108</ele>
        <time>2017-01-22T09:30:38.154Z</time>
      </trkpt>
      <trkpt lat="47.82604" lon="1.96421">
        <ele>107</ele>
        <time>2017-01-22T09:30:39.141Z</time>
      </trkpt>
      <trkpt lat="47.82604" lon="1.96421">
        <ele>107</ele>
        <time>2017-01-22T09:30:40.148Z</time>
      </trkpt>
      <trkpt lat="47.82605" lon="1.96422">
        <ele>106</ele>
        <time>2017-01-22T09:30:41.154Z</time>
      </trkpt>
      <trkpt lat="47.82606" lon="1.96424">
        <ele>106</ele>
        <time>2017-01-22T09:30:42.121Z</time>
      </trkpt>
      <trkpt lat="47.82608" lon="1.96424">
        <ele>105</ele>
        <time>2017-01-22T09:30:43.122Z</time>
      </trkpt>
      <trkpt lat="47.82609" lon="1.96425">
        <ele>105</ele>
        <time>2017-01-22T09:30:44.122Z</time>
      </trkpt>
      <trkpt lat="47.82609" lon="1.96425">
        <ele>105</ele>
        <time>2017-01-22T09:30:45.122Z</time>
      </trkpt>
      <trkpt lat="47.82609" lon="1.96426">
        <ele>105</ele>
        <time>2017-01-22T09:30:46.126Z</time>
      </trkpt>
      <trkpt lat="47.82609" lon="1.96426">
        <ele>105</ele>
        <time>2017-01-22T09:30:47.118Z</time>
      </trkpt>
      <trkpt lat="47.8261" lon="1.9643">
        <ele>105</ele>
        <time>2017-01-22T09:30:48.126Z</time>
      </trkpt>
      <trkpt lat="47.8261" lon="1.9643">
        <ele>105</ele>
        <time>2017-01-22T09:30:49.129Z</time>
      </trkpt>
      <trkpt lat="47.82611" lon="1.96436">
        <ele>105</ele>
        <time>2017-01-22T09:30:50.154Z</time>
      </trkpt>
      <trkpt lat="47.82611" lon="1.96436">
        <ele>105</ele>
        <time>2017-01-22T09:30:51.120Z</time>
      </trkpt>
      <trkpt lat="47.82612" lon="1.96443">
        <ele>105</ele>
        <time>2017-01-22T09:30:52.128Z</time>
      </trkpt>
      <trkpt lat="47.82612" lon="1.96443">
        <ele>105</ele>
        <time>2017-01-22T09:30:53.133Z</time>
      </trkpt>
      <trkpt lat="47.82613" lon="1.96452">
        <ele>105</ele>
        <time>2017-01-22T09:30:54.127Z</time>
      </trkpt>
      <trkpt lat="47.82613" lon="1.96452">
        <ele>105</ele>
        <time>2017-01-22T09:30:55.133Z</time>
      </trkpt>
      <trkpt lat="47.82616" lon="1.96463">
        <ele>106</ele>
        <time>2017-01-22T09:30:56.144Z</time>
      </trkpt>
      <trkpt lat="47.82616" lon="1.96463">
        <ele>106</ele>
        <time>2017-01-22T09:30:57.119Z</time>
      </trkpt>
      <trkpt lat="47.82619" lon="1.96471">
        <ele>106</ele>
        <time>2017-01-22T09:30:58.125Z</time>
      </trkpt>
      <trkpt lat="47.82619" lon="1.96471">
        <ele>106</ele>
        <time>2017-01-22T09:30:59.131Z</time>
      </trkpt>
      <trkpt lat="47.82623" lon="1.96477">
        <ele>106</ele>
        <time>2017-01-22T09:31:00.138Z</time>
      </trkpt>
      <trkpt lat="47.82623" lon="1.96477">
        <ele>106</ele>
        <time>2017-01-22T09:31:01.126Z</time>
      </trkpt>
      <trkpt lat="47.82626" lon="1.96483">
        <ele>106</ele>
        <time>2017-01-22T09:31:02.144Z</time>
      </trkpt>
      <trkpt lat="47.82626" lon="1.96483">
        <ele>106</ele>
        <time>2017-01-22T09:31:03.149Z</time>
      </trkpt>
      <trkpt lat="47.82627" lon="1.96489">
        <ele>107</ele>
        <time>2017-01-22T09:31:04.133Z</time>
      </trkpt>
      <trkpt lat="47.82627" lon="1.96489">
        <ele>107</ele>
        <time>2017-01-22T09:31:05.120Z</time>
      </trkpt>
      <trkpt lat="47.8263" lon="1.96496">
        <ele>107</ele>
        <time>2017-01-22T09:31:06.136Z</time>
      </trkpt>
      <trkpt lat="47.82632" lon="1.96499">
        <ele>106</ele>
        <time>2017-01-22T09:31:07.143Z</time>
      </trkpt>
      <trkpt lat="47.82632" lon="1.96499">
        <ele>106</ele>
        <time>2017-01-22T09:31:08.132Z</time>
      </trkpt>
      <trkpt lat="47.82636" lon="1.96502">
        <ele>106</ele>
        <time>2017-01-22T09:31:09.118Z</time>
      </trkpt>
      <trkpt lat="47.82636" lon="1.96502">
        <ele>106</ele>
        <time>2017-01-22T09:31:10.124Z</time>
      </trkpt>
      <trkpt lat="47.82642" lon="1.96504">
        <ele>106</ele>
        <time>2017-01-22T09:31:11.130Z</time>
      </trkpt>
      <trkpt lat="47.82645" lon="1.96506">
        <ele>106</ele>
        <time>2017-01-22T09:31:12.124Z</time>
      </trkpt>
      <trkpt lat="47.82645" lon="1.96506">
        <ele>106</ele>
        <time>2017-01-22T09:31:13.130Z</time>
      </trkpt>
      <trkpt lat="47.82649" lon="1.96508">
        <ele>106</ele>
        <time>2017-01-22T09:31:14.136Z</time>
      </trkpt>
      <trkpt lat="47.82649" lon="1.96508">
        <ele>106</ele>
        <time>2017-01-22T09:31:15.142Z</time>
      </trkpt>
      <trkpt lat="47.82654" lon="1.96509">
        <ele>107</ele>
        <time>2017-01-22T09:31:16.120Z</time>
      </trkpt>
      <trkpt lat="47.82654" lon="1.96509">
        <ele>107</ele>
        <time>2017-01-22T09:31:17.125Z</time>
      </trkpt>
      <trkpt lat="47.82659" lon="1.9651">
        <ele>108</ele>
        <time>2017-01-22T09:31:18.131Z</time>
      </trkpt>
      <trkpt lat="47.82659" lon="1.9651">
        <ele>108</ele>
        <time>2017-01-22T09:31:19.137Z</time>
      </trkpt>
      <trkpt lat="47.82664" lon="1.96509">
        <ele>108</ele>
        <time>2017-01-22T09:31:20.126Z</time>
      </trkpt>
      <trkpt lat="47.82664" lon="1.96509">
        <ele>108</ele>
        <time>2017-01-22T09:31:21.131Z</time>
      </trkpt>
      <trkpt lat="47.82669" lon="1.9651">
        <ele>109</ele>
        <time>2017-01-22T09:31:22.139Z</time>
      </trkpt>
      <trkpt lat="47.82669" lon="1.9651">
        <ele>109</ele>
        <time>2017-01-22T09:31:23.144Z</time>
      </trkpt>
      <trkpt lat="47.82675" lon="1.96513">
        <ele>108</ele>
        <time>2017-01-22T09:31:24.126Z</time>
      </trkpt>
      <trkpt lat="47.82675" lon="1.96513">
        <ele>108</ele>
        <time>2017-01-22T09:31:25.132Z</time>
      </trkpt>
      <trkpt lat="47.82684" lon="1.96519">
        <ele>107</ele>
        <time>2017-01-22T09:31:26.147Z</time>
      </trkpt>
      <trkpt lat="47.82684" lon="1.96519">
        <ele>107</ele>
        <time>2017-01-22T09:31:27.153Z</time>
      </trkpt>
      <trkpt lat="47.8269" lon="1.96523">
        <ele>107</ele>
        <time>2017-01-22T09:31:28.119Z</time>
      </trkpt>
      <trkpt lat="47.8269" lon="1.96523">
        <ele>107</ele>
        <time>2017-01-22T09:31:29.124Z</time>
      </trkpt>
      <trkpt lat="47.82696" lon="1.96527">
        <ele>107</ele>
        <time>2017-01-22T09:31:30.154Z</time>
      </trkpt>
      <trkpt lat="47.82696" lon="1.96527">
        <ele>107</ele>
        <time>2017-01-22T09:31:31.119Z</time>
      </trkpt>
      <trkpt lat="47.82701" lon="1.96526">
        <ele>108</ele>
        <time>2017-01-22T09:31:32.126Z</time>
      </trkpt>
      <trkpt lat="47.82701" lon="1.96526">
        <ele>108</ele>
        <time>2017-01-22T09:31:33.131Z</time>
      </trkpt>
      <trkpt lat="47.82704" lon="1.96523">
        <ele>108</ele>
        <time>2017-01-22T09:31:34.156Z</time>
      </trkpt>
      <trkpt lat="47.82704" lon="1.96523">
        <ele>108</ele>
        <time>2017-01-22T09:31:35.122Z</time>
      </trkpt>
      <trkpt lat="47.82707" lon="1.9652">
        <ele>108</ele>
        <time>2017-01-22T09:31:36.138Z</time>
      </trkpt>
      <trkpt lat="47.82707" lon="1.9652">
        <ele>108</ele>
        <time>2017-01-22T09:31:37.126Z</time>
      </trkpt>
      <trkpt lat="47.82713" lon="1.96511">
        <ele>109</ele>
        <time>2017-01-22T09:31:38.146Z</time>
      </trkpt>
      <trkpt lat="47.82713" lon="1.96511">
        <ele>109</ele>
        <time>2017-01-22T09:31:39.155Z</time>
      </trkpt>
      <trkpt lat="47.82716" lon="1.96505">
        <ele>109</ele>
        <time>2017-01-22T09:31:40.123Z</time>
      </trkpt>
      <trkpt lat="47.82716" lon="1.96505">
        <ele>109</ele>
        <time>2017-01-22T09:31:41.128Z</time>
      </trkpt>
      <trkpt lat="47.82716" lon="1.96502">
        <ele>109</ele>
        <time>2017-01-22T09:31:42.124Z</time>
      </trkpt>
      <trkpt lat="47.82716" lon="1.96502">
        <ele>109</ele>
        <time>2017-01-22T09:31:43.130Z</time>
      </trkpt>
      <trkpt lat="47.82712" lon="1.96498">
        <ele>109</ele>
        <time>2017-01-22T09:31:44.138Z</time>
      </trkpt>
      <trkpt lat="47.8271" lon="1.96497">
        <ele>110</ele>
        <time>2017-01-22T09:31:45.136Z</time>
      </trkpt>
      <trkpt lat="47.8271" lon="1.96497">
        <ele>110</ele>
        <time>2017-01-22T09:31:46.141Z</time>
      </trkpt>
      <trkpt lat="47.82707" lon="1.96496">
        <ele>110</ele>
        <time>2017-01-22T09:31:47.155Z</time>
      </trkpt>
      <trkpt lat="47.82705" lon="1.96496">
        <ele>109</ele>
        <time>2017-01-22T09:31:48.120Z</time>
      </trkpt>
      <trkpt lat="47.82705" lon="1.96496">
        <ele>109</ele>
        <time>2017-01-22T09:31:49.130Z</time>
      </trkpt>
      <trkpt lat="47.82702" lon="1.96494">
        <ele>110</ele>
        <time>2017-01-22T09:31:50.123Z</time>
      </trkpt>
      <trkpt lat="47.82702" lon="1.96494">
        <ele>110</ele>
        <time>2017-01-22T09:31:51.128Z</time>
      </trkpt>
      <trkpt lat="47.82697" lon="1.96492">
        <ele>110</ele>
        <time>2017-01-22T09:31:52.135Z</time>
      </trkpt>
      <trkpt lat="47.82695" lon="1.9649">
        <ele>110</ele>
        <time>2017-01-22T09:31:53.141Z</time>
      </trkpt>
      <trkpt lat="47.82693" lon="1.96488">
        <ele>110</ele>
        <time>2017-01-22T09:31:54.124Z</time>
      </trkpt>
      <trkpt lat="47.82693" lon="1.96488">
        <ele>110</ele>
        <time>2017-01-22T09:31:55.130Z</time>
      </trkpt>
      <trkpt lat="47.82688" lon="1.96484">
        <ele>110</ele>
        <time>2017-01-22T09:31:56.137Z</time>
      </trkpt>
      <trkpt lat="47.82686" lon="1.96479">
        <ele>111</ele>
        <time>2017-01-22T09:31:57.144Z</time>
      </trkpt>
      <trkpt lat="47.82686" lon="1.96479">
        <ele>111</ele>
        <time>2017-01-22T09:31:58.141Z</time>
      </trkpt>
      <trkpt lat="47.82684" lon="1.96472">
        <ele>111</ele>
        <time>2017-01-22T09:31:59.154Z</time>
      </trkpt>
      <trkpt lat="47.82684" lon="1.96469">
        <ele>111</ele>
        <time>2017-01-22T09:32:00.121Z</time>
      </trkpt>
      <trkpt lat="47.82684" lon="1.96469">
        <ele>111</ele>
        <time>2017-01-22T09:32:01.127Z</time>
      </trkpt>
      <trkpt lat="47.82686" lon="1.96465">
        <ele>111</ele>
        <time>2017-01-22T09:32:02.133Z</time>
      </trkpt>
      <trkpt lat="47.82686" lon="1.96465">
        <ele>111</ele>
        <time>2017-01-22T09:32:03.139Z</time>
      </trkpt>
      <trkpt lat="47.82689" lon="1.96467">
        <ele>111</ele>
        <time>2017-01-22T09:32:04.134Z</time>
      </trkpt>
      <trkpt lat="47.82689" lon="1.96467">
        <ele>111</ele>
        <time>2017-01-22T09:32:05.143Z</time>
      </trkpt>
      <trkpt lat="47.82694" lon="1.96469">
        <ele>111</ele>
        <time>2017-01-22T09:32:06.157Z</time>
      </trkpt>
      <trkpt lat="47.82694" lon="1.96469">
        <ele>111</ele>
        <time>2017-01-22T09:32:07.122Z</time>
      </trkpt>
      <trkpt lat="47.827" lon="1.9647">
        <ele>110</ele>
        <time>2017-01-22T09:32:08.120Z</time>
      </trkpt>
      <trkpt lat="47.827" lon="1.9647">
        <ele>110</ele>
        <time>2017-01-22T09:32:09.127Z</time>
      </trkpt>
      <trkpt lat="47.82704" lon="1.96469">
        <ele>110</ele>
        <time>2017-01-22T09:32:10.133Z</time>
      </trkpt>
      <trkpt lat="47.82704" lon="1.96469">
        <ele>110</ele>
        <time>2017-01-22T09:32:11.138Z</time>
      </trkpt>
      <trkpt lat="47.82709" lon="1.96469">
        <ele>110</ele>
        <time>2017-01-22T09:32:12.124Z</time>
      </trkpt>
      <trkpt lat="47.82709" lon="1.96469">
        <ele>110</ele>
        <time>2017-01-22T09:32:13.130Z</time>
      </trkpt>
      <trkpt lat="47.82716" lon="1.9647">
        <ele>110</ele>
        <time>2017-01-22T09:32:14.137Z</time>
      </trkpt>
      <trkpt lat="47.82719" lon="1.96471">
        <ele>110</ele>
        <time>2017-01-22T09:32:15.124Z</time>
      </trkpt>
      <trkpt lat="47.82719" lon="1.96471">
        <ele>110</ele>
        <time>2017-01-22T09:32:16.130Z</time>
      </trkpt>
      <trkpt lat="47.82725" lon="1.96475">
        <ele>110</ele>
        <time>2017-01-22T09:32:17.145Z</time>
      </trkpt>
      <trkpt lat="47.82727" lon="1.96478">
        <ele>111</ele>
        <time>2017-01-22T09:32:18.141Z</time>
      </trkpt>
      <trkpt lat="47.82727" lon="1.96478">
        <ele>111</ele>
        <time>2017-01-22T09:32:19.155Z</time>
      </trkpt>
      <trkpt lat="47.82728" lon="1.96484">
        <ele>111</ele>
        <time>2017-01-22T09:32:20.124Z</time>
      </trkpt>
      <trkpt lat="47.82728" lon="1.96484">
        <ele>111</ele>
        <time>2017-01-22T09:32:21.129Z</time>
      </trkpt>
      <trkpt lat="47.8273" lon="1.96491">
        <ele>111</ele>
        <time>2017-01-22T09:32:22.150Z</time>
      </trkpt>
      <trkpt lat="47.8273" lon="1.96491">
        <ele>111</ele>
        <time>2017-01-22T09:32:23.156Z</time>
      </trkpt>
      <trkpt lat="47.82731" lon="1.96496">
        <ele>111</ele>
        <time>2017-01-22T09:32:24.123Z</time>
      </trkpt>
      <trkpt lat="47.82731" lon="1.96496">
        <ele>111</ele>
        <time>2017-01-22T09:32:25.129Z</time>
      </trkpt>
      <trkpt lat="47.8273" lon="1.96502">
        <ele>110</ele>
        <time>2017-01-22T09:32:26.124Z</time>
      </trkpt>
      <trkpt lat="47.8273" lon="1.96502">
        <ele>110</ele>
        <time>2017-01-22T09:32:27.130Z</time>
      </trkpt>
      <trkpt lat="47.82732" lon="1.96502">
        <ele>110</ele>
        <time>2017-01-22T09:32:28.137Z</time>
      </trkpt>
      <trkpt lat="47.82731" lon="1.96504">
        <ele>109</ele>
        <time>2017-01-22T09:32:29.133Z</time>
      </trkpt>
      <trkpt lat="47.82731" lon="1.96504">
        <ele>109</ele>
        <time>2017-01-22T09:32:30.139Z</time>
      </trkpt>
      <trkpt lat="47.82731" lon="1.96504">
        <ele>109</ele>
        <time>2017-01-22T09:32:31.145Z</time>
      </trkpt>
      <trkpt lat="47.82731" lon="1.96504">
        <ele>109</ele>
        <time>2017-01-22T09:32:32.118Z</time>
      </trkpt>
      <trkpt lat="47.82731" lon="1.96504">
        <ele>109</ele>
        <time>2017-01-22T09:32:33.149Z</time>
      </trkpt>
      <trkpt lat="47.82734" lon="1.96509">
        <ele>108</ele>
        <time>2017-01-22T09:32:34.150Z</time>
      </trkpt>
      <trkpt lat="47.82734" lon="1.96509">
        <ele>108</ele>
        <time>2017-01-22T09:32:35.126Z</time>
      </trkpt>
      <trkpt lat="47.82734" lon="1.96509">
        <ele>108</ele>
        <time>2017-01-22T09:32:36.157Z</time>
      </trkpt>
      <trkpt lat="47.82737" lon="1.96499">
        <ele>94</ele>
        <time>2017-01-22T09:32:37.138Z</time>
      </trkpt>
      <trkpt lat="47.82737" lon="1.96499">
        <ele>94</ele>
        <time>2017-01-22T09:32:38.123Z</time>
      </trkpt>
      <trkpt lat="47.82737" lon="1.96499">
        <ele>94</ele>
        <time>2017-01-22T09:32:39.142Z</time>
      </trkpt>
      <trkpt lat="47.82739" lon="1.96507">
        <ele>90</ele>
        <time>2017-01-22T09:32:40.123Z</time>
      </trkpt>
      <trkpt lat="47.82734" lon="1.9652">
        <ele>91</ele>
        <time>2017-01-22T09:32:41.145Z</time>
      </trkpt>
      <trkpt lat="47.82734" lon="1.96524">
        <ele>91</ele>
        <time>2017-01-22T09:32:42.148Z</time>
      </trkpt>
      <trkpt lat="47.82734" lon="1.96524">
        <ele>91</ele>
        <time>2017-01-22T09:32:43.142Z</time>
      </trkpt>
      <trkpt lat="47.82735" lon="1.96527">
        <ele>91</ele>
        <time>2017-01-22T09:32:44.151Z</time>
      </trkpt>
      <trkpt lat="47.82735" lon="1.96527">
        <ele>91</ele>
        <time>2017-01-22T09:32:45.152Z</time>
      </trkpt>
      <trkpt lat="47.82735" lon="1.96529">
        <ele>91</ele>
        <time>2017-01-22T09:32:46.121Z</time>
      </trkpt>
      <trkpt lat="47.82735" lon="1.96529">
        <ele>91</ele>
        <time>2017-01-22T09:32:47.146Z</time>
      </trkpt>
      <trkpt lat="47.82736" lon="1.9653">
        <ele>91</ele>
        <time>2017-01-22T09:32:48.131Z</time>
      </trkpt>
      <trkpt lat="47.82736" lon="1.9653">
        <ele>91</ele>
        <time>2017-01-22T09:32:49.153Z</time>
      </trkpt>
      <trkpt lat="47.82737" lon="1.96532">
        <ele>91</ele>
        <time>2017-01-22T09:32:50.128Z</time>
      </trkpt>
      <trkpt lat="47.82737" lon="1.96532">
        <ele>91</ele>
        <time>2017-01-22T09:32:51.154Z</time>
      </trkpt>
      <trkpt lat="47.82737" lon="1.96533">
        <ele>91</ele>
        <time>2017-01-22T09:32:52.122Z</time>
      </trkpt>
      <trkpt lat="47.82737" lon="1.96533">
        <ele>91</ele>
        <time>2017-01-22T09:32:53.144Z</time>
      </trkpt>
      <trkpt lat="47.82738" lon="1.96534">
        <ele>91</ele>
        <time>2017-01-22T09:32:54.150Z</time>
      </trkpt>
      <trkpt lat="47.82738" lon="1.96535">
        <ele>91</ele>
        <time>2017-01-22T09:32:55.122Z</time>
      </trkpt>
      <trkpt lat="47.82738" lon="1.96535">
        <ele>91</ele>
        <time>2017-01-22T09:32:56.133Z</time>
      </trkpt>
      <trkpt lat="47.82739" lon="1.96538">
        <ele>92</ele>
        <time>2017-01-22T09:32:57.145Z</time>
      </trkpt>
      <trkpt lat="47.82741" lon="1.9654">
        <ele>92</ele>
        <time>2017-01-22T09:32:58.140Z</time>
      </trkpt>
      <trkpt lat="47.82741" lon="1.9654">
        <ele>92</ele>
        <time>2017-01-22T09:32:59.138Z</time>
      </trkpt>
      <trkpt lat="47.82742" lon="1.9654">
        <ele>93</ele>
        <time>2017-01-22T09:33:00.132Z</time>
      </trkpt>
      <trkpt lat="47.82742" lon="1.9654">
        <ele>93</ele>
        <time>2017-01-22T09:33:01.141Z</time>
      </trkpt>
      <trkpt lat="47.82742" lon="1.9654">
        <ele>93</ele>
        <time>2017-01-22T09:33:02.141Z</time>
      </trkpt>
      <trkpt lat="47.82743" lon="1.96539">
        <ele>93</ele>
        <time>2017-01-22T09:33:03.147Z</time>
      </trkpt>
      <trkpt lat="47.82743" lon="1.96539">
        <ele>93</ele>
        <time>2017-01-22T09:33:04.145Z</time>
      </trkpt>
      <trkpt lat="47.82743" lon="1.96539">
        <ele>93</ele>
        <time>2017-01-22T09:33:05.120Z</time>
      </trkpt>
      <trkpt lat="47.82749" lon="1.96535">
        <ele>94</ele>
        <time>2017-01-22T09:33:06.149Z</time>
      </trkpt>
      <trkpt lat="47.82749" lon="1.96533">
        <ele>94</ele>
        <time>2017-01-22T09:33:07.156Z</time>
      </trkpt>
      <trkpt lat="47.82749" lon="1.96533">
        <ele>94</ele>
        <time>2017-01-22T09:33:08.122Z</time>
      </trkpt>
      <trkpt lat="47.82749" lon="1.96527">
        <ele>94</ele>
        <time>2017-01-22T09:33:09.152Z</time>
      </trkpt>
      <trkpt lat="47.82749" lon="1.96524">
        <ele>94</ele>
        <time>2017-01-22T09:33:10.119Z</time>
      </trkpt>
      <trkpt lat="47.82749" lon="1.96524">
        <ele>94</ele>
        <time>2017-01-22T09:33:11.145Z</time>
      </trkpt>
      <trkpt lat="47.82751" lon="1.96521">
        <ele>94</ele>
        <time>2017-01-22T09:33:12.121Z</time>
      </trkpt>
      <trkpt lat="47.82751" lon="1.96521">
        <ele>94</ele>
        <time>2017-01-22T09:33:13.128Z</time>
      </trkpt>
      <trkpt lat="47.82753" lon="1.96518">
        <ele>95</ele>
        <time>2017-01-22T09:33:14.137Z</time>
      </trkpt>
      <trkpt lat="47.82753" lon="1.96518">
        <ele>95</ele>
        <time>2017-01-22T09:33:15.143Z</time>
      </trkpt>
      <trkpt lat="47.82756" lon="1.96512">
        <ele>95</ele>
        <time>2017-01-22T09:33:16.133Z</time>
      </trkpt>
      <trkpt lat="47.82756" lon="1.96512">
        <ele>95</ele>
        <time>2017-01-22T09:33:17.140Z</time>
      </trkpt>
      <trkpt lat="47.82758" lon="1.96505">
        <ele>95</ele>
        <time>2017-01-22T09:33:18.124Z</time>
      </trkpt>
      <trkpt lat="47.82758" lon="1.96505">
        <ele>95</ele>
        <time>2017-01-22T09:33:19.152Z</time>
      </trkpt>
      <trkpt lat="47.8276" lon="1.96497">
        <ele>96</ele>
        <time>2017-01-22T09:33:20.121Z</time>
      </trkpt>
      <trkpt lat="47.8276" lon="1.96497">
        <ele>96</ele>
        <time>2017-01-22T09:33:21.127Z</time>
      </trkpt>
      <trkpt lat="47.82761" lon="1.96489">
        <ele>96</ele>
        <time>2017-01-22T09:33:22.134Z</time>
      </trkpt>
      <trkpt lat="47.82761" lon="1.96489">
        <ele>96</ele>
        <time>2017-01-22T09:33:23.140Z</time>
      </trkpt>
      <trkpt lat="47.82763" lon="1.96481">
        <ele>97</ele>
        <time>2017-01-22T09:33:24.124Z</time>
      </trkpt>
      <trkpt lat="47.82763" lon="1.96481">
        <ele>97</ele>
        <time>2017-01-22T09:33:25.130Z</time>
      </trkpt>
      <trkpt lat="47.82765" lon="1.96475">
        <ele>97</ele>
        <time>2017-01-22T09:33:26.140Z</time>
      </trkpt>
      <trkpt lat="47.82765" lon="1.96475">
        <ele>97</ele>
        <time>2017-01-22T09:33:27.146Z</time>
      </trkpt>
      <trkpt lat="47.82769" lon="1.96474">
        <ele>97</ele>
        <time>2017-01-22T09:33:28.142Z</time>
      </trkpt>
      <trkpt lat="47.82769" lon="1.96474">
        <ele>97</ele>
        <time>2017-01-22T09:33:29.148Z</time>
      </trkpt>
      <trkpt lat="47.82775" lon="1.96481">
        <ele>97</ele>
        <time>2017-01-22T09:33:30.157Z</time>
      </trkpt>
      <trkpt lat="47.82775" lon="1.96481">
        <ele>97</ele>
        <time>2017-01-22T09:33:31.122Z</time>
      </trkpt>
      <trkpt lat="47.8278" lon="1.9649">
        <ele>98</ele>
        <time>2017-01-22T09:33:32.125Z</time>
      </trkpt>
      <trkpt lat="47.82784" lon="1.96494">
        <ele>98</ele>
        <time>2017-01-22T09:33:33.132Z</time>
      </trkpt>
      <trkpt lat="47.82787" lon="1.96499">
        <ele>98</ele>
        <time>2017-01-22T09:33:34.139Z</time>
      </trkpt>
      <trkpt lat="47.82787" lon="1.96499">
        <ele>98</ele>
        <time>2017-01-22T09:33:35.145Z</time>
      </trkpt>
      <trkpt lat="47.82795" lon="1.96509">
        <ele>98</ele>
        <time>2017-01-22T09:33:36.154Z</time>
      </trkpt>
      <trkpt lat="47.82795" lon="1.96509">
        <ele>98</ele>
        <time>2017-01-22T09:33:37.119Z</time>
      </trkpt>
      <trkpt lat="47.82802" lon="1.96518">
        <ele>98</ele>
        <time>2017-01-22T09:33:38.140Z</time>
      </trkpt>
      <trkpt lat="47.82802" lon="1.96518">
        <ele>98</ele>
        <time>2017-01-22T09:33:39.146Z</time>
      </trkpt>
      <trkpt lat="47.82811" lon="1.96527">
        <ele>98</ele>
        <time>2017-01-22T09:33:40.153Z</time>
      </trkpt>
      <trkpt lat="47.82811" lon="1.96527">
        <ele>98</ele>
        <time>2017-01-22T09:33:41.121Z</time>
      </trkpt>
      <trkpt lat="47.82819" lon="1.96538">
        <ele>99</ele>
        <time>2017-01-22T09:33:42.141Z</time>
      </trkpt>
      <trkpt lat="47.82819" lon="1.96538">
        <ele>99</ele>
        <time>2017-01-22T09:33:43.147Z</time>
      </trkpt>
      <trkpt lat="47.82828" lon="1.96548">
        <ele>100</ele>
        <time>2017-01-22T09:33:44.154Z</time>
      </trkpt>
      <trkpt lat="47.82828" lon="1.96548">
        <ele>100</ele>
        <time>2017-01-22T09:33:45.119Z</time>
      </trkpt>
      <trkpt lat="47.82838" lon="1.96557">
        <ele>100</ele>
        <time>2017-01-22T09:33:46.140Z</time>
      </trkpt>
      <trkpt lat="47.82838" lon="1.96557">
        <ele>100</ele>
        <time>2017-01-22T09:33:47.146Z</time>
      </trkpt>
      <trkpt lat="47.82844" lon="1.96563">
        <ele>100</ele>
        <time>2017-01-22T09:33:48.133Z</time>
      </trkpt>
      <trkpt lat="47.82844" lon="1.96563">
        <ele>100</ele>
        <time>2017-01-22T09:33:49.121Z</time>
      </trkpt>
      <trkpt lat="47.82848" lon="1.96565">
        <ele>100</ele>
        <time>2017-01-22T09:33:50.149Z</time>
      </trkpt>
      <trkpt lat="47.82848" lon="1.96565">
        <ele>100</ele>
        <time>2017-01-22T09:33:51.155Z</time>
      </trkpt>
      <trkpt lat="47.82849" lon="1.96564">
        <ele>99</ele>
        <time>2017-01-22T09:33:52.134Z</time>
      </trkpt>
      <trkpt lat="47.82849" lon="1.96564">
        <ele>99</ele>
        <time>2017-01-22T09:33:53.120Z</time>
      </trkpt>
      <trkpt lat="47.82852" lon="1.96553">
        <ele>97</ele>
        <time>2017-01-22T09:33:54.126Z</time>
      </trkpt>
      <trkpt lat="47.82852" lon="1.96553">
        <ele>97</ele>
        <time>2017-01-22T09:33:55.133Z</time>
      </trkpt>
      <trkpt lat="47.82854" lon="1.96544">
        <ele>97</ele>
        <time>2017-01-22T09:33:56.140Z</time>
      </trkpt>
      <trkpt lat="47.82854" lon="1.96544">
        <ele>97</ele>
        <time>2017-01-22T09:33:57.145Z</time>
      </trkpt>
      <trkpt lat="47.82858" lon="1.96535">
        <ele>97</ele>
        <time>2017-01-22T09:33:58.147Z</time>
      </trkpt>
      <trkpt lat="47.82858" lon="1.96535">
        <ele>97</ele>
        <time>2017-01-22T09:33:59.157Z</time>
      </trkpt>
      <trkpt lat="47.82863" lon="1.96522">
        <ele>96</ele>
        <time>2017-01-22T09:34:00.144Z</time>
      </trkpt>
      <trkpt lat="47.82863" lon="1.96522">
        <ele>96</ele>
        <time>2017-01-22T09:34:01.150Z</time>
      </trkpt>
      <trkpt lat="47.82868" lon="1.96508">
        <ele>96</ele>
        <time>2017-01-22T09:34:02.138Z</time>
      </trkpt>
      <trkpt lat="47.82868" lon="1.96508">
        <ele>96</ele>
        <time>2017-01-22T09:34:03.144Z</time>
      </trkpt>
      <trkpt lat="47.82873" lon="1.96495">
        <ele>95</ele>
        <time>2017-01-22T09:34:04.142Z</time>
      </trkpt>
      <trkpt lat="47.82873" lon="1.96495">
        <ele>95</ele>
        <time>2017-01-22T09:34:05.151Z</time>
      </trkpt>
      <trkpt lat="47.8288" lon="1.9648">
        <ele>95</ele>
        <time>2017-01-22T09:34:06.118Z</time>
      </trkpt>
      <trkpt lat="47.82883" lon="1.96473">
        <ele>95</ele>
        <time>2017-01-22T09:34:07.143Z</time>
      </trkpt>
      <trkpt lat="47.82883" lon="1.96473">
        <ele>95</ele>
        <time>2017-01-22T09:34:08.149Z</time>
      </trkpt>
      <trkpt lat="47.82888" lon="1.96459">
        <ele>94</ele>
        <time>2017-01-22T09:34:09.121Z</time>
      </trkpt>
      <trkpt lat="47.82888" lon="1.96459">
        <ele>94</ele>
        <time>2017-01-22T09:34:10.128Z</time>
      </trkpt>
      <trkpt lat="47.82893" lon="1.96446">
        <ele>94</ele>
        <time>2017-01-22T09:34:11.148Z</time>
      </trkpt>
      <trkpt lat="47.82893" lon="1.96446">
        <ele>94</ele>
        <time>2017-01-22T09:34:12.154Z</time>
      </trkpt>
      <trkpt lat="47.82899" lon="1.96432">
        <ele>94</ele>
        <time>2017-01-22T09:34:13.122Z</time>
      </trkpt>
      <trkpt lat="47.82899" lon="1.96432">
        <ele>94</ele>
        <time>2017-01-22T09:34:14.129Z</time>
      </trkpt>
      <trkpt lat="47.82904" lon="1.96421">
        <ele>94</ele>
        <time>2017-01-22T09:34:15.140Z</time>
      </trkpt>
      <trkpt lat="47.82904" lon="1.96421">
        <ele>94</ele>
        <time>2017-01-22T09:34:16.146Z</time>
      </trkpt>
      <trkpt lat="47.82909" lon="1.96411">
        <ele>94</ele>
        <time>2017-01-22T09:34:17.145Z</time>
      </trkpt>
      <trkpt lat="47.82909" lon="1.96411">
        <ele>94</ele>
        <time>2017-01-22T09:34:18.151Z</time>
      </trkpt>
      <trkpt lat="47.82913" lon="1.96402">
        <ele>94</ele>
        <time>2017-01-22T09:34:19.148Z</time>
      </trkpt>
      <trkpt lat="47.82913" lon="1.96402">
        <ele>94</ele>
        <time>2017-01-22T09:34:20.154Z</time>
      </trkpt>
      <trkpt lat="47.82919" lon="1.96391">
        <ele>95</ele>
        <time>2017-01-22T09:34:21.124Z</time>
      </trkpt>
      <trkpt lat="47.82919" lon="1.96391">
        <ele>95</ele>
        <time>2017-01-22T09:34:22.130Z</time>
      </trkpt>
      <trkpt lat="47.82925" lon="1.96382">
        <ele>95</ele>
        <time>2017-01-22T09:34:23.154Z</time>
      </trkpt>
      <trkpt lat="47.82928" lon="1.96378">
        <ele>95</ele>
        <time>2017-01-22T09:34:24.122Z</time>
      </trkpt>
      <trkpt lat="47.82928" lon="1.96378">
        <ele>95</ele>
        <time>2017-01-22T09:34:25.130Z</time>
      </trkpt>
      <trkpt lat="47.82933" lon="1.96369">
        <ele>96</ele>
        <time>2017-01-22T09:34:26.150Z</time>
      </trkpt>
      <trkpt lat="47.82933" lon="1.96369">
        <ele>96</ele>
        <time>2017-01-22T09:34:27.156Z</time>
      </trkpt>
      <trkpt lat="47.82936" lon="1.9636">
        <ele>96</ele>
        <time>2017-01-22T09:34:28.123Z</time>
      </trkpt>
      <trkpt lat="47.82938" lon="1.96356">
        <ele>97</ele>
        <time>2017-01-22T09:34:29.138Z</time>
      </trkpt>
      <trkpt lat="47.82938" lon="1.96356">
        <ele>97</ele>
        <time>2017-01-22T09:34:30.145Z</time>
      </trkpt>
      <trkpt lat="47.8294" lon="1.9635">
        <ele>97</ele>
        <time>2017-01-22T09:34:31.125Z</time>
      </trkpt>
      <trkpt lat="47.82941" lon="1.96348">
        <ele>97</ele>
        <time>2017-01-22T09:34:32.135Z</time>
      </trkpt>
      <trkpt lat="47.82941" lon="1.96348">
        <ele>97</ele>
        <time>2017-01-22T09:34:33.142Z</time>
      </trkpt>
      <trkpt lat="47.82946" lon="1.96346">
        <ele>98</ele>
        <time>2017-01-22T09:34:34.148Z</time>
      </trkpt>
      <trkpt lat="47.82949" lon="1.96346">
        <ele>97</ele>
        <time>2017-01-22T09:34:35.140Z</time>
      </trkpt>
      <trkpt lat="47.82949" lon="1.96346">
        <ele>97</ele>
        <time>2017-01-22T09:34:36.146Z</time>
      </trkpt>
      <trkpt lat="47.82953" lon="1.96342">
        <ele>98</ele>
        <time>2017-01-22T09:34:37.154Z</time>
      </trkpt>
      <trkpt lat="47.82953" lon="1.96342">
        <ele>98</ele>
        <time>2017-01-22T09:34:38.122Z</time>
      </trkpt>
      <trkpt lat="47.82955" lon="1.96342">
        <ele>99</ele>
        <time>2017-01-22T09:34:39.127Z</time>
      </trkpt>
      <trkpt lat="47.82956" lon="1.96344">
        <ele>99</ele>
        <time>2017-01-22T09:34:40.137Z</time>
      </trkpt>
      <trkpt lat="47.82956" lon="1.96344">
        <ele>99</ele>
        <time>2017-01-22T09:34:41.143Z</time>
      </trkpt>
      <trkpt lat="47.82959" lon="1.96344">
        <ele>99</ele>
        <time>2017-01-22T09:34:42.123Z</time>
      </trkpt>
      <trkpt lat="47.82959" lon="1.96344">
        <ele>99</ele>
        <time>2017-01-22T09:34:43.130Z</time>
      </trkpt>
      <trkpt lat="47.82961" lon="1.96339">
        <ele>99</ele>
        <time>2017-01-22T09:34:44.138Z</time>
      </trkpt>
      <trkpt lat="47.82961" lon="1.96339">
        <ele>99</ele>
        <time>2017-01-22T09:34:45.121Z</time>
      </trkpt>
      <trkpt lat="47.82963" lon="1.96334">
        <ele>100</ele>
        <time>2017-01-22T09:34:46.156Z</time>
      </trkpt>
      <trkpt lat="47.82964" lon="1.96331">
        <ele>100</ele>
        <time>2017-01-22T09:34:47.157Z</time>
      </trkpt>
      <trkpt lat="47.82964" lon="1.96331">
        <ele>100</ele>
        <time>2017-01-22T09:34:48.140Z</time>
      </trkpt>
      <trkpt lat="47.82964" lon="1.96326">
        <ele>100</ele>
        <time>2017-01-22T09:34:49.153Z</time>
      </trkpt>
      <trkpt lat="47.82964" lon="1.96326">
        <ele>100</ele>
        <time>2017-01-22T09:34:50.137Z</time>
      </trkpt>
      <trkpt lat="47.82962" lon="1.9632">
        <ele>100</ele>
        <time>2017-01-22T09:34:51.123Z</time>
      </trkpt>
      <trkpt lat="47.82962" lon="1.96317">
        <ele>100</ele>
        <time>2017-01-22T09:34:52.134Z</time>
      </trkpt>
      <trkpt lat="47.82962" lon="1.96317">
        <ele>100</ele>
        <time>2017-01-22T09:34:53.149Z</time>
      </trkpt>
      <trkpt lat="47.82965" lon="1.96311">
        <ele>100</ele>
        <time>2017-01-22T09:34:54.140Z</time>
      </trkpt>
      <trkpt lat="47.82966" lon="1.96307">
        <ele>101</ele>
        <time>2017-01-22T09:34:55.149Z</time>
      </trkpt>
      <trkpt lat="47.82966" lon="1.96307">
        <ele>101</ele>
        <time>2017-01-22T09:34:56.158Z</time>
      </trkpt>
      <trkpt lat="47.82969" lon="1.96299">
        <ele>101</ele>
        <time>2017-01-22T09:34:57.131Z</time>
      </trkpt>
      <trkpt lat="47.82969" lon="1.96299">
        <ele>101</ele>
        <time>2017-01-22T09:34:58.142Z</time>
      </trkpt>
      <trkpt lat="47.82971" lon="1.96291">
        <ele>102</ele>
        <time>2017-01-22T09:34:59.137Z</time>
      </trkpt>
      <trkpt lat="47.82972" lon="1.96288">
        <ele>102</ele>
        <time>2017-01-22T09:35:00.149Z</time>
      </trkpt>
      <trkpt lat="47.82973" lon="1.96284">
        <ele>102</ele>
        <time>2017-01-22T09:35:01.142Z</time>
      </trkpt>
      <trkpt lat="47.82973" lon="1.96284">
        <ele>102</ele>
        <time>2017-01-22T09:35:02.151Z</time>
      </trkpt>
      <trkpt lat="47.82977" lon="1.96278">
        <ele>102</ele>
        <time>2017-01-22T09:35:03.137Z</time>
      </trkpt>
      <trkpt lat="47.82979" lon="1.96277">
        <ele>103</ele>
        <time>2017-01-22T09:35:04.141Z</time>
      </trkpt>
      <trkpt lat="47.82982" lon="1.96276">
        <ele>103</ele>
        <time>2017-01-22T09:35:05.129Z</time>
      </trkpt>
      <trkpt lat="47.82982" lon="1.96276">
        <ele>103</ele>
        <time>2017-01-22T09:35:06.137Z</time>
      </trkpt>
      <trkpt lat="47.82987" lon="1.96275">
        <ele>103</ele>
        <time>2017-01-22T09:35:07.145Z</time>
      </trkpt>
      <trkpt lat="47.82987" lon="1.96275">
        <ele>103</ele>
        <time>2017-01-22T09:35:08.155Z</time>
      </trkpt>
      <trkpt lat="47.82992" lon="1.96277">
        <ele>103</ele>
        <time>2017-01-22T09:35:09.147Z</time>
      </trkpt>
      <trkpt lat="47.82995" lon="1.96279">
        <ele>102</ele>
        <time>2017-01-22T09:35:10.118Z</time>
      </trkpt>
      <trkpt lat="47.82995" lon="1.96279">
        <ele>102</ele>
        <time>2017-01-22T09:35:11.127Z</time>
      </trkpt>
      <trkpt lat="47.83" lon="1.96281">
        <ele>102</ele>
        <time>2017-01-22T09:35:12.150Z</time>
      </trkpt>
      <trkpt lat="47.83004" lon="1.96282">
        <ele>101</ele>
        <time>2017-01-22T09:35:13.121Z</time>
      </trkpt>
      <trkpt lat="47.83004" lon="1.96282">
        <ele>101</ele>
        <time>2017-01-22T09:35:14.131Z</time>
      </trkpt>
      <trkpt lat="47.83012" lon="1.96284">
        <ele>100</ele>
        <time>2017-01-22T09:35:15.148Z</time>
      </trkpt>
      <trkpt lat="47.83015" lon="1.96285">
        <ele>99</ele>
        <time>2017-01-22T09:35:16.157Z</time>
      </trkpt>
      <trkpt lat="47.83019" lon="1.96286">
        <ele>98</ele>
        <time>2017-01-22T09:35:17.132Z</time>
      </trkpt>
      <trkpt lat="47.83019" lon="1.96286">
        <ele>98</ele>
        <time>2017-01-22T09:35:18.140Z</time>
      </trkpt>
      <trkpt lat="47.83025" lon="1.96286">
        <ele>98</ele>
        <time>2017-01-22T09:35:19.148Z</time>
      </trkpt>
      <trkpt lat="47.83028" lon="1.96284">
        <ele>98</ele>
        <time>2017-01-22T09:35:20.123Z</time>
      </trkpt>
      <trkpt lat="47.83028" lon="1.96284">
        <ele>98</ele>
        <time>2017-01-22T09:35:21.130Z</time>
      </trkpt>
      <trkpt lat="47.83033" lon="1.96286">
        <ele>97</ele>
        <time>2017-01-22T09:35:22.142Z</time>
      </trkpt>
      <trkpt lat="47.83033" lon="1.96286">
        <ele>97</ele>
        <time>2017-01-22T09:35:23.153Z</time>
      </trkpt>
      <trkpt lat="47.83039" lon="1.96291">
        <ele>97</ele>
        <time>2017-01-22T09:35:24.123Z</time>
      </trkpt>
      <trkpt lat="47.83039" lon="1.96291">
        <ele>97</ele>
        <time>2017-01-22T09:35:25.132Z</time>
      </trkpt>
      <trkpt lat="47.83044" lon="1.96298">
        <ele>98</ele>
        <time>2017-01-22T09:35:26.154Z</time>
      </trkpt>
      <trkpt lat="47.83044" lon="1.96298">
        <ele>98</ele>
        <time>2017-01-22T09:35:27.136Z</time>
      </trkpt>
      <trkpt lat="47.83044" lon="1.96308">
        <ele>98</ele>
        <time>2017-01-22T09:35:28.145Z</time>
      </trkpt>
      <trkpt lat="47.83044" lon="1.96308">
        <ele>98</ele>
        <time>2017-01-22T09:35:29.155Z</time>
      </trkpt>
      <trkpt lat="47.83042" lon="1.96318">
        <ele>98</ele>
        <time>2017-01-22T09:35:30.131Z</time>
      </trkpt>
      <trkpt lat="47.83042" lon="1.96318">
        <ele>98</ele>
        <time>2017-01-22T09:35:31.138Z</time>
      </trkpt>
      <trkpt lat="47.83039" lon="1.9633">
        <ele>98</ele>
        <time>2017-01-22T09:35:32.157Z</time>
      </trkpt>
      <trkpt lat="47.83037" lon="1.96336">
        <ele>98</ele>
        <time>2017-01-22T09:35:33.126Z</time>
      </trkpt>
      <trkpt lat="47.83037" lon="1.96336">
        <ele>98</ele>
        <time>2017-01-22T09:35:34.133Z</time>
      </trkpt>
      <trkpt lat="47.83034" lon="1.9635">
        <ele>97</ele>
        <time>2017-01-22T09:35:35.148Z</time>
      </trkpt>
      <trkpt lat="47.83033" lon="1.96356">
        <ele>97</ele>
        <time>2017-01-22T09:35:36.125Z</time>
      </trkpt>
      <trkpt lat="47.83031" lon="1.96363">
        <ele>97</ele>
        <time>2017-01-22T09:35:37.139Z</time>
      </trkpt>
      <trkpt lat="47.83031" lon="1.96363">
        <ele>97</ele>
        <time>2017-01-22T09:35:38.146Z</time>
      </trkpt>
      <trkpt lat="47.83031" lon="1.96376">
        <ele>98</ele>
        <time>2017-01-22T09:35:39.125Z</time>
      </trkpt>
      <trkpt lat="47.83032" lon="1.96383">
        <ele>97</ele>
        <time>2017-01-22T09:35:40.123Z</time>
      </trkpt>
      <trkpt lat="47.83032" lon="1.96383">
        <ele>97</ele>
        <time>2017-01-22T09:35:41.131Z</time>
      </trkpt>
      <trkpt lat="47.83037" lon="1.96395">
        <ele>97</ele>
        <time>2017-01-22T09:35:42.139Z</time>
      </trkpt>
      <trkpt lat="47.83037" lon="1.96395">
        <ele>97</ele>
        <time>2017-01-22T09:35:43.145Z</time>
      </trkpt>
      <trkpt lat="47.83044" lon="1.96406">
        <ele>96</ele>
        <time>2017-01-22T09:35:44.142Z</time>
      </trkpt>
      <trkpt lat="47.83044" lon="1.96406">
        <ele>96</ele>
        <time>2017-01-22T09:35:45.152Z</time>
      </trkpt>
      <trkpt lat="47.83053" lon="1.96415">
        <ele>96</ele>
        <time>2017-01-22T09:35:46.119Z</time>
      </trkpt>
      <trkpt lat="47.83058" lon="1.96419">
        <ele>95</ele>
        <time>2017-01-22T09:35:47.157Z</time>
      </trkpt>
      <trkpt lat="47.83058" lon="1.96419">
        <ele>95</ele>
        <time>2017-01-22T09:35:48.139Z</time>
      </trkpt>
      <trkpt lat="47.83069" lon="1.96425">
        <ele>94</ele>
        <time>2017-01-22T09:35:49.154Z</time>
      </trkpt>
      <trkpt lat="47.83074" lon="1.96427">
        <ele>94</ele>
        <time>2017-01-22T09:35:50.120Z</time>
      </trkpt>
      <trkpt lat="47.83074" lon="1.96427">
        <ele>94</ele>
        <time>2017-01-22T09:35:51.127Z</time>
      </trkpt>
      <trkpt lat="47.83084" lon="1.96431">
        <ele>93</ele>
        <time>2017-01-22T09:35:52.136Z</time>
      </trkpt>
      <trkpt lat="47.83084" lon="1.96431">
        <ele>93</ele>
        <time>2017-01-22T09:35:53.143Z</time>
      </trkpt>
      <trkpt lat="47.83094" lon="1.96436">
        <ele>93</ele>
        <time>2017-01-22T09:35:54.128Z</time>
      </trkpt>
      <trkpt lat="47.83094" lon="1.96436">
        <ele>93</ele>
        <time>2017-01-22T09:35:55.135Z</time>
      </trkpt>
      <trkpt lat="47.83104" lon="1.9644">
        <ele>92</ele>
        <time>2017-01-22T09:35:56.152Z</time>
      </trkpt>
      <trkpt lat="47.83104" lon="1.9644">
        <ele>92</ele>
        <time>2017-01-22T09:35:57.118Z</time>
      </trkpt>
      <trkpt lat="47.83115" lon="1.96444">
        <ele>91</ele>
        <time>2017-01-22T09:35:58.125Z</time>
      </trkpt>
      <trkpt lat="47.8312" lon="1.96445">
        <ele>91</ele>
        <time>2017-01-22T09:35:59.139Z</time>
      </trkpt>
      <trkpt lat="47.83125" lon="1.96447">
        <ele>91</ele>
        <time>2017-01-22T09:36:00.147Z</time>
      </trkpt>
      <trkpt lat="47.83125" lon="1.96447">
        <ele>91</ele>
        <time>2017-01-22T09:36:01.153Z</time>
      </trkpt>
      <trkpt lat="47.83135" lon="1.9645">
        <ele>91</ele>
        <time>2017-01-22T09:36:02.141Z</time>
      </trkpt>
      <trkpt lat="47.83135" lon="1.9645">
        <ele>91</ele>
        <time>2017-01-22T09:36:03.148Z</time>
      </trkpt>
      <trkpt lat="47.83145" lon="1.96452">
        <ele>90</ele>
        <time>2017-01-22T09:36:04.146Z</time>
      </trkpt>
      <trkpt lat="47.83145" lon="1.96452">
        <ele>90</ele>
        <time>2017-01-22T09:36:05.156Z</time>
      </trkpt>
      <trkpt lat="47.83153" lon="1.96458">
        <ele>91</ele>
        <time>2017-01-22T09:36:06.147Z</time>
      </trkpt>
      <trkpt lat="47.83153" lon="1.96458">
        <ele>91</ele>
        <time>2017-01-22T09:36:07.155Z</time>
      </trkpt>
      <trkpt lat="47.83162" lon="1.96458">
        <ele>92</ele>
        <time>2017-01-22T09:36:08.135Z</time>
      </trkpt>
      <trkpt lat="47.83162" lon="1.96458">
        <ele>92</ele>
        <time>2017-01-22T09:36:09.148Z</time>
      </trkpt>
      <trkpt lat="47.8317" lon="1.96457">
        <ele>92</ele>
        <time>2017-01-22T09:36:10.147Z</time>
      </trkpt>
      <trkpt lat="47.8317" lon="1.96457">
        <ele>92</ele>
        <time>2017-01-22T09:36:11.154Z</time>
      </trkpt>
      <trkpt lat="47.83178" lon="1.96456">
        <ele>92</ele>
        <time>2017-01-22T09:36:12.121Z</time>
      </trkpt>
      <trkpt lat="47.83182" lon="1.96456">
        <ele>92</ele>
        <time>2017-01-22T09:36:13.156Z</time>
      </trkpt>
      <trkpt lat="47.83182" lon="1.96456">
        <ele>92</ele>
        <time>2017-01-22T09:36:14.136Z</time>
      </trkpt>
      <trkpt lat="47.83191" lon="1.96456">
        <ele>92</ele>
        <time>2017-01-22T09:36:15.146Z</time>
      </trkpt>
      <trkpt lat="47.83195" lon="1.96456">
        <ele>92</ele>
        <time>2017-01-22T09:36:16.137Z</time>
      </trkpt>
      <trkpt lat="47.83195" lon="1.96456">
        <ele>92</ele>
        <time>2017-01-22T09:36:17.143Z</time>
      </trkpt>
      <trkpt lat="47.83204" lon="1.96455">
        <ele>93</ele>
        <time>2017-01-22T09:36:18.150Z</time>
      </trkpt>
      <trkpt lat="47.83208" lon="1.96454">
        <ele>93</ele>
        <time>2017-01-22T09:36:19.154Z</time>
      </trkpt>
      <trkpt lat="47.83208" lon="1.96454">
        <ele>93</ele>
        <time>2017-01-22T09:36:20.129Z</time>
      </trkpt>
      <trkpt lat="47.83217" lon="1.96452">
        <ele>93</ele>
        <time>2017-01-22T09:36:21.150Z</time>
      </trkpt>
      <trkpt lat="47.83217" lon="1.96452">
        <ele>93</ele>
        <time>2017-01-22T09:36:22.118Z</time>
      </trkpt>
      <trkpt lat="47.83226" lon="1.96451">
        <ele>93</ele>
        <time>2017-01-22T09:36:23.119Z</time>
      </trkpt>
      <trkpt lat="47.83231" lon="1.9645">
        <ele>93</ele>
        <time>2017-01-22T09:36:24.127Z</time>
      </trkpt>
      <trkpt lat="47.83231" lon="1.9645">
        <ele>93</ele>
        <time>2017-01-22T09:36:25.134Z</time>
      </trkpt>
      <trkpt lat="47.83239" lon="1.96447">
        <ele>95</ele>
        <time>2017-01-22T09:36:26.119Z</time>
      </trkpt>
      <trkpt lat="47.83239" lon="1.96447">
        <ele>95</ele>
        <time>2017-01-22T09:36:27.125Z</time>
      </trkpt>
      <trkpt lat="47.83247" lon="1.96446">
        <ele>95</ele>
        <time>2017-01-22T09:36:28.134Z</time>
      </trkpt>
      <trkpt lat="47.83247" lon="1.96446">
        <ele>95</ele>
        <time>2017-01-22T09:36:29.141Z</time>
      </trkpt>
      <trkpt lat="47.83256" lon="1.96446">
        <ele>96</ele>
        <time>2017-01-22T09:36:30.152Z</time>
      </trkpt>
      <trkpt lat="47.83256" lon="1.96446">
        <ele>96</ele>
        <time>2017-01-22T09:36:31.119Z</time>
      </trkpt>
      <trkpt lat="47.83264" lon="1.96448">
        <ele>95</ele>
        <time>2017-01-22T09:36:32.126Z</time>
      </trkpt>
      <trkpt lat="47.83264" lon="1.96448">
        <ele>95</ele>
        <time>2017-01-22T09:36:33.133Z</time>
      </trkpt>
      <trkpt lat="47.83271" lon="1.9645">
        <ele>95</ele>
        <time>2017-01-22T09:36:34.139Z</time>
      </trkpt>
      <trkpt lat="47.83271" lon="1.9645">
        <ele>95</ele>
        <time>2017-01-22T09:36:35.145Z</time>
      </trkpt>
      <trkpt lat="47.83274" lon="1.96455">
        <ele>95</ele>
        <time>2017-01-22T09:36:36.151Z</time>
      </trkpt>
      <trkpt lat="47.83274" lon="1.96455">
        <ele>95</ele>
        <time>2017-01-22T09:36:37.128Z</time>
      </trkpt>
      <trkpt lat="47.83275" lon="1.96461">
        <ele>95</ele>
        <time>2017-01-22T09:36:38.157Z</time>
      </trkpt>
      <trkpt lat="47.83275" lon="1.96461">
        <ele>95</ele>
        <time>2017-01-22T09:36:39.124Z</time>
      </trkpt>
      <trkpt lat="47.83275" lon="1.96467">
        <ele>95</ele>
        <time>2017-01-22T09:36:40.137Z</time>
      </trkpt>
      <trkpt lat="47.83276" lon="1.9647">
        <ele>95</ele>
        <time>2017-01-22T09:36:41.144Z</time>
      </trkpt>
      <trkpt lat="47.83277" lon="1.96472">
        <ele>95</ele>
        <time>2017-01-22T09:36:42.128Z</time>
      </trkpt>
      <trkpt lat="47.83277" lon="1.96472">
        <ele>95</ele>
        <time>2017-01-22T09:36:43.138Z</time>
      </trkpt>
      <trkpt lat="47.8328" lon="1.96473">
        <ele>96</ele>
        <time>2017-01-22T09:36:44.144Z</time>
      </trkpt>
      <trkpt lat="47.8328" lon="1.96473">
        <ele>96</ele>
        <time>2017-01-22T09:36:45.151Z</time>
      </trkpt>
      <trkpt lat="47.8328" lon="1.96471">
        <ele>96</ele>
        <time>2017-01-22T09:36:46.149Z</time>
      </trkpt>
      <trkpt lat="47.8328" lon="1.96471">
        <ele>96</ele>
        <time>2017-01-22T09:36:47.127Z</time>
      </trkpt>
      <trkpt lat="47.8328" lon="1.9647">
        <ele>97</ele>
        <time>2017-01-22T09:36:48.140Z</time>
      </trkpt>
      <trkpt lat="47.8328" lon="1.9647">
        <ele>97</ele>
        <time>2017-01-22T09:36:49.149Z</time>
      </trkpt>
      <trkpt lat="47.83278" lon="1.96478">
        <ele>103</ele>
        <time>2017-01-22T09:36:50.145Z</time>
      </trkpt>
      <trkpt lat="47.83278" lon="1.96478">
        <ele>103</ele>
        <time>2017-01-22T09:36:51.145Z</time>
      </trkpt>
      <trkpt lat="47.83278" lon="1.96478">
        <ele>103</ele>
        <time>2017-01-22T09:36:52.145Z</time>
      </trkpt>
      <trkpt lat="47.83278" lon="1.96478">
        <ele>103</ele>
        <time>2017-01-22T09:36:53.153Z</time>
      </trkpt>
      <trkpt lat="47.83266" lon="1.9647">
        <ele>100</ele>
        <time>2017-01-22T09:36:54.144Z</time>
      </trkpt>
      <trkpt lat="47.83263" lon="1.9647">
        <ele>100</ele>
        <time>2017-01-22T09:36:55.151Z</time>
      </trkpt>
      <trkpt lat="47.83263" lon="1.9647">
        <ele>100</ele>
        <time>2017-01-22T09:36:56.157Z</time>
      </trkpt>
      <trkpt lat="47.83263" lon="1.9647">
        <ele>100</ele>
        <time>2017-01-22T09:36:57.124Z</time>
      </trkpt>
      <trkpt lat="47.83257" lon="1.9647">
        <ele>100</ele>
        <time>2017-01-22T09:36:58.150Z</time>
      </trkpt>
      <trkpt lat="47.83252" lon="1.96468">
        <ele>100</ele>
        <time>2017-01-22T09:36:59.157Z</time>
      </trkpt>
      <trkpt lat="47.83252" lon="1.96468">
        <ele>100</ele>
        <time>2017-01-22T09:37:00.148Z</time>
      </trkpt>
      <trkpt lat="47.83249" lon="1.96467">
        <ele>100</ele>
        <time>2017-01-22T09:37:01.130Z</time>
      </trkpt>
      <trkpt lat="47.83249" lon="1.96467">
        <ele>100</ele>
        <time>2017-01-22T09:37:02.142Z</time>
      </trkpt>
      <trkpt lat="47.83246" lon="1.96464">
        <ele>100</ele>
        <time>2017-01-22T09:37:03.154Z</time>
      </trkpt>
      <trkpt lat="47.83244" lon="1.96466">
        <ele>100</ele>
        <time>2017-01-22T09:37:04.127Z</time>
      </trkpt>
      <trkpt lat="47.8324" lon="1.96475">
        <ele>99</ele>
        <time>2017-01-22T09:37:05.154Z</time>
      </trkpt>
      <trkpt lat="47.8324" lon="1.96475">
        <ele>99</ele>
        <time>2017-01-22T09:37:06.148Z</time>
      </trkpt>
      <trkpt lat="47.8324" lon="1.96475">
        <ele>99</ele>
        <time>2017-01-22T09:37:07.155Z</time>
      </trkpt>
      <trkpt lat="47.83238" lon="1.96488">
        <ele>99</ele>
        <time>2017-01-22T09:37:08.142Z</time>
      </trkpt>
      <trkpt lat="47.83236" lon="1.96503">
        <ele>99</ele>
        <time>2017-01-22T09:37:09.150Z</time>
      </trkpt>
      <trkpt lat="47.83236" lon="1.96503">
        <ele>99</ele>
        <time>2017-01-22T09:37:10.143Z</time>
      </trkpt>
      <trkpt lat="47.83235" lon="1.9651">
        <ele>99</ele>
        <time>2017-01-22T09:37:11.121Z</time>
      </trkpt>
      <trkpt lat="47.83235" lon="1.9651">
        <ele>99</ele>
        <time>2017-01-22T09:37:12.132Z</time>
      </trkpt>
      <trkpt lat="47.83236" lon="1.96525">
        <ele>99</ele>
        <time>2017-01-22T09:37:13.127Z</time>
      </trkpt>
      <trkpt lat="47.83242" lon="1.96535">
        <ele>99</ele>
        <time>2017-01-22T09:37:14.169Z</time>
      </trkpt>
      <trkpt lat="47.83242" lon="1.96535">
        <ele>99</ele>
        <time>2017-01-22T09:37:15.154Z</time>
      </trkpt>
      <trkpt lat="47.83242" lon="1.96535">
        <ele>99</ele>
        <time>2017-01-22T09:37:16.120Z</time>
      </trkpt>
      <trkpt lat="47.83251" lon="1.96542">
        <ele>98</ele>
        <time>2017-01-22T09:37:17.127Z</time>
      </trkpt>
      <trkpt lat="47.83256" lon="1.96545">
        <ele>98</ele>
        <time>2017-01-22T09:37:18.125Z</time>
      </trkpt>
      <trkpt lat="47.83256" lon="1.96545">
        <ele>98</ele>
        <time>2017-01-22T09:37:19.131Z</time>
      </trkpt>
      <trkpt lat="47.83265" lon="1.96551">
        <ele>98</ele>
        <time>2017-01-22T09:37:20.153Z</time>
      </trkpt>
      <trkpt lat="47.8327" lon="1.96553">
        <ele>98</ele>
        <time>2017-01-22T09:37:21.154Z</time>
      </trkpt>
      <trkpt lat="47.83274" lon="1.96555">
        <ele>98</ele>
        <time>2017-01-22T09:37:22.150Z</time>
      </trkpt>
      <trkpt lat="47.83285" lon="1.96556">
        <ele>98</ele>
        <time>2017-01-22T09:37:23.157Z</time>
      </trkpt>
      <trkpt lat="47.83285" lon="1.96556">
        <ele>98</ele>
        <time>2017-01-22T09:37:24.154Z</time>
      </trkpt>
      <trkpt lat="47.83288" lon="1.9655">
        <ele>97</ele>
        <time>2017-01-22T09:37:25.144Z</time>
      </trkpt>
      <trkpt lat="47.83288" lon="1.9655">
        <ele>97</ele>
        <time>2017-01-22T09:37:26.150Z</time>
      </trkpt>
      <trkpt lat="47.83295" lon="1.9654">
        <ele>98</ele>
        <time>2017-01-22T09:37:27.132Z</time>
      </trkpt>
      <trkpt lat="47.83298" lon="1.96536">
        <ele>97</ele>
        <time>2017-01-22T09:37:28.143Z</time>
      </trkpt>
      <trkpt lat="47.83298" lon="1.96536">
        <ele>97</ele>
        <time>2017-01-22T09:37:29.149Z</time>
      </trkpt>
      <trkpt lat="47.83304" lon="1.96535">
        <ele>98</ele>
        <time>2017-01-22T09:37:30.125Z</time>
      </trkpt>
      <trkpt lat="47.83308" lon="1.96536">
        <ele>98</ele>
        <time>2017-01-22T09:37:31.155Z</time>
      </trkpt>
      <trkpt lat="47.83308" lon="1.96536">
        <ele>98</ele>
        <time>2017-01-22T09:37:32.132Z</time>
      </trkpt>
      <trkpt lat="47.83314" lon="1.96543">
        <ele>98</ele>
        <time>2017-01-22T09:37:33.167Z</time>
      </trkpt>
      <trkpt lat="47.83314" lon="1.96543">
        <ele>98</ele>
        <time>2017-01-22T09:37:34.121Z</time>
      </trkpt>
      <trkpt lat="47.83319" lon="1.96546">
        <ele>98</ele>
        <time>2017-01-22T09:37:35.122Z</time>
      </trkpt>
      <trkpt lat="47.83319" lon="1.96546">
        <ele>98</ele>
        <time>2017-01-22T09:37:36.129Z</time>
      </trkpt>
      <trkpt lat="47.83324" lon="1.96548">
        <ele>97</ele>
        <time>2017-01-22T09:37:37.154Z</time>
      </trkpt>
      <trkpt lat="47.83327" lon="1.96552">
        <ele>97</ele>
        <time>2017-01-22T09:37:38.152Z</time>
      </trkpt>
      <trkpt lat="47.83327" lon="1.96552">
        <ele>97</ele>
        <time>2017-01-22T09:37:39.154Z</time>
      </trkpt>
      <trkpt lat="47.83329" lon="1.96562">
        <ele>97</ele>
        <time>2017-01-22T09:37:40.158Z</time>
      </trkpt>
      <trkpt lat="47.83329" lon="1.96562">
        <ele>97</ele>
        <time>2017-01-22T09:37:41.124Z</time>
      </trkpt>
      <trkpt lat="47.83329" lon="1.96576">
        <ele>97</ele>
        <time>2017-01-22T09:37:42.152Z</time>
      </trkpt>
      <trkpt lat="47.83329" lon="1.96576">
        <ele>97</ele>
        <time>2017-01-22T09:37:43.155Z</time>
      </trkpt>
      <trkpt lat="47.83328" lon="1.96599">
        <ele>96</ele>
        <time>2017-01-22T09:37:44.158Z</time>
      </trkpt>
      <trkpt lat="47.83328" lon="1.96599">
        <ele>96</ele>
        <time>2017-01-22T09:37:45.144Z</time>
      </trkpt>
      <trkpt lat="47.83326" lon="1.96615">
        <ele>95</ele>
        <time>2017-01-22T09:37:46.151Z</time>
      </trkpt>
      <trkpt lat="47.83326" lon="1.96615">
        <ele>95</ele>
        <time>2017-01-22T09:37:47.136Z</time>
      </trkpt>
      <trkpt lat="47.83325" lon="1.96623">
        <ele>95</ele>
        <time>2017-01-22T09:37:48.151Z</time>
      </trkpt>
      <trkpt lat="47.83325" lon="1.96623">
        <ele>95</ele>
        <time>2017-01-22T09:37:49.118Z</time>
      </trkpt>
      <trkpt lat="47.83323" lon="1.9664">
        <ele>94</ele>
        <time>2017-01-22T09:37:50.140Z</time>
      </trkpt>
      <trkpt lat="47.83321" lon="1.96656">
        <ele>93</ele>
        <time>2017-01-22T09:37:51.152Z</time>
      </trkpt>
      <trkpt lat="47.83321" lon="1.96656">
        <ele>93</ele>
        <time>2017-01-22T09:37:52.142Z</time>
      </trkpt>
      <trkpt lat="47.83321" lon="1.96656">
        <ele>93</ele>
        <time>2017-01-22T09:37:53.151Z</time>
      </trkpt>
      <trkpt lat="47.83318" lon="1.96672">
        <ele>93</ele>
        <time>2017-01-22T09:37:54.119Z</time>
      </trkpt>
      <trkpt lat="47.83318" lon="1.96672">
        <ele>93</ele>
        <time>2017-01-22T09:37:55.125Z</time>
      </trkpt>
      <trkpt lat="47.83315" lon="1.96682">
        <ele>92</ele>
        <time>2017-01-22T09:37:56.140Z</time>
      </trkpt>
      <trkpt lat="47.83313" lon="1.96689">
        <ele>92</ele>
        <time>2017-01-22T09:37:57.152Z</time>
      </trkpt>
      <trkpt lat="47.83313" lon="1.96689">
        <ele>92</ele>
        <time>2017-01-22T09:37:58.118Z</time>
      </trkpt>
      <trkpt lat="47.83311" lon="1.96701">
        <ele>92</ele>
        <time>2017-01-22T09:37:59.149Z</time>
      </trkpt>
      <trkpt lat="47.83308" lon="1.96716">
        <ele>91</ele>
        <time>2017-01-22T09:38:00.155Z</time>
      </trkpt>
      <trkpt lat="47.83306" lon="1.96723">
        <ele>91</ele>
        <time>2017-01-22T09:38:01.156Z</time>
      </trkpt>
      <trkpt lat="47.83306" lon="1.96723">
        <ele>91</ele>
        <time>2017-01-22T09:38:02.148Z</time>
      </trkpt>
      <trkpt lat="47.83305" lon="1.9673">
        <ele>91</ele>
        <time>2017-01-22T09:38:03.118Z</time>
      </trkpt>
      <trkpt lat="47.83303" lon="1.96737">
        <ele>90</ele>
        <time>2017-01-22T09:38:04.118Z</time>
      </trkpt>
      <trkpt lat="47.83303" lon="1.96737">
        <ele>90</ele>
        <time>2017-01-22T09:38:05.128Z</time>
      </trkpt>
      <trkpt lat="47.83301" lon="1.96752">
        <ele>90</ele>
        <time>2017-01-22T09:38:06.149Z</time>
      </trkpt>
      <trkpt lat="47.83301" lon="1.96752">
        <ele>90</ele>
        <time>2017-01-22T09:38:07.139Z</time>
      </trkpt>
      <trkpt lat="47.833" lon="1.96773">
        <ele>89</ele>
        <time>2017-01-22T09:38:08.150Z</time>
      </trkpt>
      <trkpt lat="47.833" lon="1.96773">
        <ele>89</ele>
        <time>2017-01-22T09:38:09.119Z</time>
      </trkpt>
      <trkpt lat="47.833" lon="1.96773">
        <ele>89</ele>
        <time>2017-01-22T09:38:10.125Z</time>
      </trkpt>
      <trkpt lat="47.83296" lon="1.96783">
        <ele>88</ele>
        <time>2017-01-22T09:38:11.142Z</time>
      </trkpt>
      <trkpt lat="47.83295" lon="1.96792">
        <ele>87</ele>
        <time>2017-01-22T09:38:12.165Z</time>
      </trkpt>
      <trkpt lat="47.83295" lon="1.96792">
        <ele>87</ele>
        <time>2017-01-22T09:38:13.150Z</time>
      </trkpt>
      <trkpt lat="47.83295" lon="1.96792">
        <ele>87</ele>
        <time>2017-01-22T09:38:14.154Z</time>
      </trkpt>
      <trkpt lat="47.83295" lon="1.96801">
        <ele>86</ele>
        <time>2017-01-22T09:38:15.120Z</time>
      </trkpt>
      <trkpt lat="47.83295" lon="1.96801">
        <ele>86</ele>
        <time>2017-01-22T09:38:16.126Z</time>
      </trkpt>
      <trkpt lat="47.83291" lon="1.96808">
        <ele>85</ele>
        <time>2017-01-22T09:38:17.133Z</time>
      </trkpt>
      <trkpt lat="47.83287" lon="1.9681">
        <ele>84</ele>
        <time>2017-01-22T09:38:18.146Z</time>
      </trkpt>
      <trkpt lat="47.83287" lon="1.9681">
        <ele>84</ele>
        <time>2017-01-22T09:38:19.153Z</time>
      </trkpt>
      <trkpt lat="47.83277" lon="1.96809">
        <ele>84</ele>
        <time>2017-01-22T09:38:20.118Z</time>
      </trkpt>
      <trkpt lat="47.83273" lon="1.96807">
        <ele>84</ele>
        <time>2017-01-22T09:38:21.128Z</time>
      </trkpt>
      <trkpt lat="47.83265" lon="1.96803">
        <ele>84</ele>
        <time>2017-01-22T09:38:22.150Z</time>
      </trkpt>
      <trkpt lat="47.83265" lon="1.96803">
        <ele>84</ele>
        <time>2017-01-22T09:38:23.120Z</time>
      </trkpt>
      <trkpt lat="47.83265" lon="1.96803">
        <ele>84</ele>
        <time>2017-01-22T09:38:24.127Z</time>
      </trkpt>
      <trkpt lat="47.83256" lon="1.96798">
        <ele>83</ele>
        <time>2017-01-22T09:38:25.143Z</time>
      </trkpt>
      <trkpt lat="47.83256" lon="1.96798">
        <ele>83</ele>
        <time>2017-01-22T09:38:26.149Z</time>
      </trkpt>
      <trkpt lat="47.83247" lon="1.96793">
        <ele>84</ele>
        <time>2017-01-22T09:38:27.138Z</time>
      </trkpt>
      <trkpt lat="47.83238" lon="1.96789">
        <ele>84</ele>
        <time>2017-01-22T09:38:28.147Z</time>
      </trkpt>
      <trkpt lat="47.83238" lon="1.96789">
        <ele>84</ele>
        <time>2017-01-22T09:38:29.123Z</time>
      </trkpt>
      <trkpt lat="47.83238" lon="1.96789">
        <ele>84</ele>
        <time>2017-01-22T09:38:30.130Z</time>
      </trkpt>
      <trkpt lat="47.83227" lon="1.96788">
        <ele>84</ele>
        <time>2017-01-22T09:38:31.126Z</time>
      </trkpt>
      <trkpt lat="47.83217" lon="1.96783">
        <ele>85</ele>
        <time>2017-01-22T09:38:32.148Z</time>
      </trkpt>
      <trkpt lat="47.83217" lon="1.96783">
        <ele>85</ele>
        <time>2017-01-22T09:38:33.147Z</time>
      </trkpt>
      <trkpt lat="47.83217" lon="1.96783">
        <ele>85</ele>
        <time>2017-01-22T09:38:34.154Z</time>
      </trkpt>
      <trkpt lat="47.83207" lon="1.96777">
        <ele>86</ele>
        <time>2017-01-22T09:38:35.157Z</time>
      </trkpt>
      <trkpt lat="47.83207" lon="1.96777">
        <ele>86</ele>
        <time>2017-01-22T09:38:36.123Z</time>
      </trkpt>
      <trkpt lat="47.83196" lon="1.96771">
        <ele>86</ele>
        <time>2017-01-22T09:38:37.132Z</time>
      </trkpt>
      <trkpt lat="47.83196" lon="1.96771">
        <ele>86</ele>
        <time>2017-01-22T09:38:38.154Z</time>
      </trkpt>
      <trkpt lat="47.83186" lon="1.96767">
        <ele>87</ele>
        <time>2017-01-22T09:38:39.134Z</time>
      </trkpt>
      <trkpt lat="47.83179" lon="1.96769">
        <ele>89</ele>
        <time>2017-01-22T09:38:40.151Z</time>
      </trkpt>
      <trkpt lat="47.83179" lon="1.96769">
        <ele>89</ele>
        <time>2017-01-22T09:38:41.155Z</time>
      </trkpt>
      <trkpt lat="47.83179" lon="1.96769">
        <ele>89</ele>
        <time>2017-01-22T09:38:42.150Z</time>
      </trkpt>
      <trkpt lat="47.83173" lon="1.96777">
        <ele>91</ele>
        <time>2017-01-22T09:38:43.134Z</time>
      </trkpt>
      <trkpt lat="47.83173" lon="1.96777">
        <ele>91</ele>
        <time>2017-01-22T09:38:44.149Z</time>
      </trkpt>
      <trkpt lat="47.83169" lon="1.96791">
        <ele>92</ele>
        <time>2017-01-22T09:38:45.134Z</time>
      </trkpt>
      <trkpt lat="47.83167" lon="1.96797">
        <ele>94</ele>
        <time>2017-01-22T09:38:46.145Z</time>
      </trkpt>
      <trkpt lat="47.83164" lon="1.96811">
        <ele>94</ele>
        <time>2017-01-22T09:38:47.152Z</time>
      </trkpt>
      <trkpt lat="47.83164" lon="1.96811">
        <ele>94</ele>
        <time>2017-01-22T09:38:48.148Z</time>
      </trkpt>
      <trkpt lat="47.83161" lon="1.96824">
        <ele>95</ele>
        <time>2017-01-22T09:38:49.165Z</time>
      </trkpt>
      <trkpt lat="47.83161" lon="1.96824">
        <ele>95</ele>
        <time>2017-01-22T09:38:50.122Z</time>
      </trkpt>
      <trkpt lat="47.8316" lon="1.96831">
        <ele>94</ele>
        <time>2017-01-22T09:38:51.136Z</time>
      </trkpt>
      <trkpt lat="47.83158" lon="1.96837">
        <ele>94</ele>
        <time>2017-01-22T09:38:52.157Z</time>
      </trkpt>
      <trkpt lat="47.83158" lon="1.96837">
        <ele>94</ele>
        <time>2017-01-22T09:38:53.123Z</time>
      </trkpt>
      <trkpt lat="47.83156" lon="1.9685">
        <ele>94</ele>
        <time>2017-01-22T09:38:54.130Z</time>
      </trkpt>
      <trkpt lat="47.83156" lon="1.9685">
        <ele>94</ele>
        <time>2017-01-22T09:38:55.153Z</time>
      </trkpt>
      <trkpt lat="47.83155" lon="1.96862">
        <ele>94</ele>
        <time>2017-01-22T09:38:56.148Z</time>
      </trkpt>
      <trkpt lat="47.83154" lon="1.96868">
        <ele>93</ele>
        <time>2017-01-22T09:38:57.145Z</time>
      </trkpt>
      <trkpt lat="47.83154" lon="1.96868">
        <ele>93</ele>
        <time>2017-01-22T09:38:58.155Z</time>
      </trkpt>
      <trkpt lat="47.83151" lon="1.96881">
        <ele>94</ele>
        <time>2017-01-22T09:38:59.118Z</time>
      </trkpt>
      <trkpt lat="47.83151" lon="1.96881">
        <ele>94</ele>
        <time>2017-01-22T09:39:00.124Z</time>
      </trkpt>
      <trkpt lat="47.83148" lon="1.96893">
        <ele>94</ele>
        <time>2017-01-22T09:39:01.150Z</time>
      </trkpt>
      <trkpt lat="47.83148" lon="1.96893">
        <ele>94</ele>
        <time>2017-01-22T09:39:02.155Z</time>
      </trkpt>
      <trkpt lat="47.83145" lon="1.96906">
        <ele>94</ele>
        <time>2017-01-22T09:39:03.157Z</time>
      </trkpt>
      <trkpt lat="47.83145" lon="1.96906">
        <ele>94</ele>
        <time>2017-01-22T09:39:04.136Z</time>
      </trkpt>
      <trkpt lat="47.83143" lon="1.96919">
        <ele>95</ele>
        <time>2017-01-22T09:39:05.139Z</time>
      </trkpt>
      <trkpt lat="47.83143" lon="1.96919">
        <ele>95</ele>
        <time>2017-01-22T09:39:06.154Z</time>
      </trkpt>
      <trkpt lat="47.83141" lon="1.96931">
        <ele>95</ele>
        <time>2017-01-22T09:39:07.138Z</time>
      </trkpt>
      <trkpt lat="47.83141" lon="1.96931">
        <ele>95</ele>
        <time>2017-01-22T09:39:08.145Z</time>
      </trkpt>
      <trkpt lat="47.83137" lon="1.96943">
        <ele>96</ele>
        <time>2017-01-22T09:39:09.127Z</time>
      </trkpt>
      <trkpt lat="47.83137" lon="1.96943">
        <ele>96</ele>
        <time>2017-01-22T09:39:10.154Z</time>
      </trkpt>
      <trkpt lat="47.83135" lon="1.96951">
        <ele>96</ele>
        <time>2017-01-22T09:39:11.121Z</time>
      </trkpt>
      <trkpt lat="47.83135" lon="1.96951">
        <ele>96</ele>
        <time>2017-01-22T09:39:12.127Z</time>
      </trkpt>
      <trkpt lat="47.83133" lon="1.96961">
        <ele>97</ele>
        <time>2017-01-22T09:39:13.118Z</time>
      </trkpt>
      <trkpt lat="47.83132" lon="1.96966">
        <ele>97</ele>
        <time>2017-01-22T09:39:14.146Z</time>
      </trkpt>
      <trkpt lat="47.8313" lon="1.96971">
        <ele>98</ele>
        <time>2017-01-22T09:39:15.121Z</time>
      </trkpt>
      <trkpt lat="47.8313" lon="1.96971">
        <ele>98</ele>
        <time>2017-01-22T09:39:16.126Z</time>
      </trkpt>
      <trkpt lat="47.83128" lon="1.96983">
        <ele>98</ele>
        <time>2017-01-22T09:39:17.119Z</time>
      </trkpt>
      <trkpt lat="47.83128" lon="1.96983">
        <ele>98</ele>
        <time>2017-01-22T09:39:18.126Z</time>
      </trkpt>
      <trkpt lat="47.83125" lon="1.96994">
        <ele>99</ele>
        <time>2017-01-22T09:39:19.133Z</time>
      </trkpt>
      <trkpt lat="47.83123" lon="1.97">
        <ele>99</ele>
        <time>2017-01-22T09:39:20.156Z</time>
      </trkpt>
      <trkpt lat="47.83123" lon="1.97">
        <ele>99</ele>
        <time>2017-01-22T09:39:21.122Z</time>
      </trkpt>
      <trkpt lat="47.83119" lon="1.97011">
        <ele>99</ele>
        <time>2017-01-22T09:39:22.129Z</time>
      </trkpt>
      <trkpt lat="47.83116" lon="1.97017">
        <ele>99</ele>
        <time>2017-01-22T09:39:23.122Z</time>
      </trkpt>
      <trkpt lat="47.83116" lon="1.97017">
        <ele>99</ele>
        <time>2017-01-22T09:39:24.129Z</time>
      </trkpt>
      <trkpt lat="47.83112" lon="1.97028">
        <ele>100</ele>
        <time>2017-01-22T09:39:25.119Z</time>
      </trkpt>
      <trkpt lat="47.83112" lon="1.97028">
        <ele>100</ele>
        <time>2017-01-22T09:39:26.124Z</time>
      </trkpt>
      <trkpt lat="47.83107" lon="1.97038">
        <ele>100</ele>
        <time>2017-01-22T09:39:27.156Z</time>
      </trkpt>
      <trkpt lat="47.83107" lon="1.97038">
        <ele>100</ele>
        <time>2017-01-22T09:39:28.122Z</time>
      </trkpt>
      <trkpt lat="47.83101" lon="1.97049">
        <ele>100</ele>
        <time>2017-01-22T09:39:29.128Z</time>
      </trkpt>
      <trkpt lat="47.83101" lon="1.97049">
        <ele>100</ele>
        <time>2017-01-22T09:39:30.153Z</time>
      </trkpt>
      <trkpt lat="47.8309" lon="1.9706">
        <ele>100</ele>
        <time>2017-01-22T09:39:31.146Z</time>
      </trkpt>
      <trkpt lat="47.83085" lon="1.97066">
        <ele>100</ele>
        <time>2017-01-22T09:39:32.127Z</time>
      </trkpt>
      <trkpt lat="47.83085" lon="1.97066">
        <ele>100</ele>
        <time>2017-01-22T09:39:33.133Z</time>
      </trkpt>
      <trkpt lat="47.83077" lon="1.97076">
        <ele>101</ele>
        <time>2017-01-22T09:39:34.131Z</time>
      </trkpt>
      <trkpt lat="47.83069" lon="1.97087">
        <ele>101</ele>
        <time>2017-01-22T09:39:35.156Z</time>
      </trkpt>
      <trkpt lat="47.83069" lon="1.97087">
        <ele>101</ele>
        <time>2017-01-22T09:39:36.122Z</time>
      </trkpt>
      <trkpt lat="47.83066" lon="1.97092">
        <ele>101</ele>
        <time>2017-01-22T09:39:37.128Z</time>
      </trkpt>
      <trkpt lat="47.83066" lon="1.97092">
        <ele>101</ele>
        <time>2017-01-22T09:39:38.149Z</time>
      </trkpt>
      <trkpt lat="47.83057" lon="1.97102">
        <ele>102</ele>
        <time>2017-01-22T09:39:39.138Z</time>
      </trkpt>
      <trkpt lat="47.83057" lon="1.97102">
        <ele>102</ele>
        <time>2017-01-22T09:39:40.146Z</time>
      </trkpt>
      <trkpt lat="47.83049" lon="1.97112">
        <ele>102</ele>
        <time>2017-01-22T09:39:41.157Z</time>
      </trkpt>
      <trkpt lat="47.83049" lon="1.97112">
        <ele>102</ele>
        <time>2017-01-22T09:39:42.127Z</time>
      </trkpt>
      <trkpt lat="47.8304" lon="1.97122">
        <ele>104</ele>
        <time>2017-01-22T09:39:43.157Z</time>
      </trkpt>
      <trkpt lat="47.83036" lon="1.97127">
        <ele>104</ele>
        <time>2017-01-22T09:39:44.122Z</time>
      </trkpt>
      <trkpt lat="47.83036" lon="1.97127">
        <ele>104</ele>
        <time>2017-01-22T09:39:45.129Z</time>
      </trkpt>
      <trkpt lat="47.83028" lon="1.97137">
        <ele>105</ele>
        <time>2017-01-22T09:39:46.141Z</time>
      </trkpt>
      <trkpt lat="47.83028" lon="1.97137">
        <ele>105</ele>
        <time>2017-01-22T09:39:47.155Z</time>
      </trkpt>
      <trkpt lat="47.8302" lon="1.97147">
        <ele>105</ele>
        <time>2017-01-22T09:39:48.144Z</time>
      </trkpt>
      <trkpt lat="47.8302" lon="1.97147">
        <ele>105</ele>
        <time>2017-01-22T09:39:49.150Z</time>
      </trkpt>
      <trkpt lat="47.83012" lon="1.97157">
        <ele>105</ele>
        <time>2017-01-22T09:39:50.118Z</time>
      </trkpt>
      <trkpt lat="47.83009" lon="1.97163">
        <ele>105</ele>
        <time>2017-01-22T09:39:51.148Z</time>
      </trkpt>
      <trkpt lat="47.83009" lon="1.97163">
        <ele>105</ele>
        <time>2017-01-22T09:39:52.128Z</time>
      </trkpt>
      <trkpt lat="47.83002" lon="1.97173">
        <ele>105</ele>
        <time>2017-01-22T09:39:53.151Z</time>
      </trkpt>
      <trkpt lat="47.83002" lon="1.97173">
        <ele>105</ele>
        <time>2017-01-22T09:39:54.150Z</time>
      </trkpt>
      <trkpt lat="47.82994" lon="1.97182">
        <ele>105</ele>
        <time>2017-01-22T09:39:55.143Z</time>
      </trkpt>
      <trkpt lat="47.82987" lon="1.97191">
        <ele>106</ele>
        <time>2017-01-22T09:39:56.152Z</time>
      </trkpt>
      <trkpt lat="47.82987" lon="1.97191">
        <ele>106</ele>
        <time>2017-01-22T09:39:57.133Z</time>
      </trkpt>
      <trkpt lat="47.82983" lon="1.97196">
        <ele>106</ele>
        <time>2017-01-22T09:39:58.143Z</time>
      </trkpt>
      <trkpt lat="47.82975" lon="1.97204">
        <ele>106</ele>
        <time>2017-01-22T09:39:59.152Z</time>
      </trkpt>
      <trkpt lat="47.82975" lon="1.97204">
        <ele>106</ele>
        <time>2017-01-22T09:40:00.119Z</time>
      </trkpt>
      <trkpt lat="47.82975" lon="1.97204">
        <ele>106</ele>
        <time>2017-01-22T09:40:01.125Z</time>
      </trkpt>
      <trkpt lat="47.82968" lon="1.97213">
        <ele>107</ele>
        <time>2017-01-22T09:40:02.120Z</time>
      </trkpt>
      <trkpt lat="47.82965" lon="1.97217">
        <ele>107</ele>
        <time>2017-01-22T09:40:03.128Z</time>
      </trkpt>
      <trkpt lat="47.82965" lon="1.97217">
        <ele>107</ele>
        <time>2017-01-22T09:40:04.118Z</time>
      </trkpt>
      <trkpt lat="47.82962" lon="1.9723">
        <ele>107</ele>
        <time>2017-01-22T09:40:05.141Z</time>
      </trkpt>
      <trkpt lat="47.82962" lon="1.9723">
        <ele>107</ele>
        <time>2017-01-22T09:40:06.155Z</time>
      </trkpt>
      <trkpt lat="47.82959" lon="1.97239">
        <ele>108</ele>
        <time>2017-01-22T09:40:07.128Z</time>
      </trkpt>
      <trkpt lat="47.82958" lon="1.97243">
        <ele>108</ele>
        <time>2017-01-22T09:40:08.143Z</time>
      </trkpt>
      <trkpt lat="47.82959" lon="1.97246">
        <ele>107</ele>
        <time>2017-01-22T09:40:09.152Z</time>
      </trkpt>
      <trkpt lat="47.82959" lon="1.97246">
        <ele>107</ele>
        <time>2017-01-22T09:40:10.130Z</time>
      </trkpt>
      <trkpt lat="47.82959" lon="1.97246">
        <ele>107</ele>
        <time>2017-01-22T09:40:11.137Z</time>
      </trkpt>
      <trkpt lat="47.82958" lon="1.97246">
        <ele>107</ele>
        <time>2017-01-22T09:40:12.164Z</time>
      </trkpt>
      <trkpt lat="47.82962" lon="1.97237">
        <ele>105</ele>
        <time>2017-01-22T09:40:13.139Z</time>
      </trkpt>
      <trkpt lat="47.82964" lon="1.97231">
        <ele>105</ele>
        <time>2017-01-22T09:40:14.148Z</time>
      </trkpt>
      <trkpt lat="47.82964" lon="1.97231">
        <ele>105</ele>
        <time>2017-01-22T09:40:15.154Z</time>
      </trkpt>
      <trkpt lat="47.82964" lon="1.97231">
        <ele>105</ele>
        <time>2017-01-22T09:40:16.120Z</time>
      </trkpt>
      <trkpt lat="47.82963" lon="1.97227">
        <ele>105</ele>
        <time>2017-01-22T09:40:17.147Z</time>
      </trkpt>
      <trkpt lat="47.82961" lon="1.97227">
        <ele>104</ele>
        <time>2017-01-22T09:40:18.156Z</time>
      </trkpt>
      <trkpt lat="47.82961" lon="1.97227">
        <ele>104</ele>
        <time>2017-01-22T09:40:19.122Z</time>
      </trkpt>
      <trkpt lat="47.82959" lon="1.97232">
        <ele>104</ele>
        <time>2017-01-22T09:40:20.155Z</time>
      </trkpt>
      <trkpt lat="47.82959" lon="1.97232">
        <ele>104</ele>
        <time>2017-01-22T09:40:21.121Z</time>
      </trkpt>
      <trkpt lat="47.82957" lon="1.97238">
        <ele>104</ele>
        <time>2017-01-22T09:40:22.128Z</time>
      </trkpt>
      <trkpt lat="47.82956" lon="1.97242">
        <ele>104</ele>
        <time>2017-01-22T09:40:23.142Z</time>
      </trkpt>
      <trkpt lat="47.82958" lon="1.97252">
        <ele>104</ele>
        <time>2017-01-22T09:40:24.149Z</time>
      </trkpt>
      <trkpt lat="47.82958" lon="1.97252">
        <ele>104</ele>
        <time>2017-01-22T09:40:25.151Z</time>
      </trkpt>
      <trkpt lat="47.82959" lon="1.97256">
        <ele>104</ele>
        <time>2017-01-22T09:40:26.138Z</time>
      </trkpt>
      <trkpt lat="47.82963" lon="1.97264">
        <ele>103</ele>
        <time>2017-01-22T09:40:27.147Z</time>
      </trkpt>
      <trkpt lat="47.82963" lon="1.97264">
        <ele>103</ele>
        <time>2017-01-22T09:40:28.154Z</time>
      </trkpt>
      <trkpt lat="47.82963" lon="1.97264">
        <ele>103</ele>
        <time>2017-01-22T09:40:29.150Z</time>
      </trkpt>
      <trkpt lat="47.8297" lon="1.9728">
        <ele>103</ele>
        <time>2017-01-22T09:40:30.134Z</time>
      </trkpt>
      <trkpt lat="47.82978" lon="1.97293">
        <ele>102</ele>
        <time>2017-01-22T09:40:31.156Z</time>
      </trkpt>
      <trkpt lat="47.82978" lon="1.97293">
        <ele>102</ele>
        <time>2017-01-22T09:40:32.146Z</time>
      </trkpt>
      <trkpt lat="47.82983" lon="1.97297">
        <ele>102</ele>
        <time>2017-01-22T09:40:33.122Z</time>
      </trkpt>
      <trkpt lat="47.82983" lon="1.97297">
        <ele>102</ele>
        <time>2017-01-22T09:40:34.128Z</time>
      </trkpt>
      <trkpt lat="47.82993" lon="1.97293">
        <ele>101</ele>
        <time>2017-01-22T09:40:35.156Z</time>
      </trkpt>
      <trkpt lat="47.82993" lon="1.97293">
        <ele>101</ele>
        <time>2017-01-22T09:40:36.123Z</time>
      </trkpt>
      <trkpt lat="47.82993" lon="1.97293">
        <ele>101</ele>
        <time>2017-01-22T09:40:37.128Z</time>
      </trkpt>
      <trkpt lat="47.83" lon="1.97286">
        <ele>99</ele>
        <time>2017-01-22T09:40:38.150Z</time>
      </trkpt>
      <trkpt lat="47.83003" lon="1.97283">
        <ele>98</ele>
        <time>2017-01-22T09:40:39.146Z</time>
      </trkpt>
      <trkpt lat="47.83003" lon="1.97283">
        <ele>98</ele>
        <time>2017-01-22T09:40:40.151Z</time>
      </trkpt>
      <trkpt lat="47.83014" lon="1.9727">
        <ele>97</ele>
        <time>2017-01-22T09:40:41.155Z</time>
      </trkpt>
      <trkpt lat="47.83014" lon="1.9727">
        <ele>97</ele>
        <time>2017-01-22T09:40:42.141Z</time>
      </trkpt>
      <trkpt lat="47.83014" lon="1.9727">
        <ele>97</ele>
        <time>2017-01-22T09:40:43.154Z</time>
      </trkpt>
      <trkpt lat="47.83022" lon="1.9726">
        <ele>96</ele>
        <time>2017-01-22T09:40:44.155Z</time>
      </trkpt>
      <trkpt lat="47.83022" lon="1.9726">
        <ele>96</ele>
        <time>2017-01-22T09:40:45.122Z</time>
      </trkpt>
      <trkpt lat="47.8303" lon="1.9725">
        <ele>95</ele>
        <time>2017-01-22T09:40:46.128Z</time>
      </trkpt>
      <trkpt lat="47.8303" lon="1.9725">
        <ele>95</ele>
        <time>2017-01-22T09:40:47.152Z</time>
      </trkpt>
      <trkpt lat="47.83038" lon="1.97241">
        <ele>95</ele>
        <time>2017-01-22T09:40:48.159Z</time>
      </trkpt>
      <trkpt lat="47.83038" lon="1.97241">
        <ele>95</ele>
        <time>2017-01-22T09:40:49.142Z</time>
      </trkpt>
      <trkpt lat="47.83046" lon="1.97234">
        <ele>94</ele>
        <time>2017-01-22T09:40:50.118Z</time>
      </trkpt>
      <trkpt lat="47.83046" lon="1.97234">
        <ele>94</ele>
        <time>2017-01-22T09:40:51.128Z</time>
      </trkpt>
      <trkpt lat="47.83053" lon="1.97233">
        <ele>94</ele>
        <time>2017-01-22T09:40:52.152Z</time>
      </trkpt>
      <trkpt lat="47.83053" lon="1.97233">
        <ele>94</ele>
        <time>2017-01-22T09:40:53.118Z</time>
      </trkpt>
      <trkpt lat="47.8306" lon="1.97231">
        <ele>94</ele>
        <time>2017-01-22T09:40:54.126Z</time>
      </trkpt>
      <trkpt lat="47.83063" lon="1.97227">
        <ele>94</ele>
        <time>2017-01-22T09:40:55.155Z</time>
      </trkpt>
      <trkpt lat="47.83063" lon="1.97227">
        <ele>94</ele>
        <time>2017-01-22T09:40:56.121Z</time>
      </trkpt>
      <trkpt lat="47.8307" lon="1.97217">
        <ele>94</ele>
        <time>2017-01-22T09:40:57.128Z</time>
      </trkpt>
      <trkpt lat="47.83074" lon="1.97213">
        <ele>94</ele>
        <time>2017-01-22T09:40:58.137Z</time>
      </trkpt>
      <trkpt lat="47.83081" lon="1.97204">
        <ele>94</ele>
        <time>2017-01-22T09:40:59.153Z</time>
      </trkpt>
      <trkpt lat="47.83081" lon="1.97204">
        <ele>94</ele>
        <time>2017-01-22T09:41:00.140Z</time>
      </trkpt>
      <trkpt lat="47.83081" lon="1.97204">
        <ele>94</ele>
        <time>2017-01-22T09:41:01.152Z</time>
      </trkpt>
      <trkpt lat="47.83089" lon="1.97195">
        <ele>93</ele>
        <time>2017-01-22T09:41:02.140Z</time>
      </trkpt>
      <trkpt lat="47.83089" lon="1.97195">
        <ele>93</ele>
        <time>2017-01-22T09:41:03.147Z</time>
      </trkpt>
      <trkpt lat="47.831" lon="1.97183">
        <ele>93</ele>
        <time>2017-01-22T09:41:04.140Z</time>
      </trkpt>
      <trkpt lat="47.831" lon="1.97183">
        <ele>93</ele>
        <time>2017-01-22T09:41:05.142Z</time>
      </trkpt>
      <trkpt lat="47.83103" lon="1.97179">
        <ele>93</ele>
        <time>2017-01-22T09:41:06.121Z</time>
      </trkpt>
      <trkpt lat="47.83106" lon="1.97175">
        <ele>93</ele>
        <time>2017-01-22T09:41:07.130Z</time>
      </trkpt>
      <trkpt lat="47.83106" lon="1.97175">
        <ele>93</ele>
        <time>2017-01-22T09:41:08.141Z</time>
      </trkpt>
      <trkpt lat="47.83113" lon="1.97166">
        <ele>92</ele>
        <time>2017-01-22T09:41:09.127Z</time>
      </trkpt>
      <trkpt lat="47.8312" lon="1.97157">
        <ele>91</ele>
        <time>2017-01-22T09:41:10.145Z</time>
      </trkpt>
      <trkpt lat="47.83124" lon="1.97152">
        <ele>91</ele>
        <time>2017-01-22T09:41:11.154Z</time>
      </trkpt>
      <trkpt lat="47.83124" lon="1.97152">
        <ele>91</ele>
        <time>2017-01-22T09:41:12.148Z</time>
      </trkpt>
      <trkpt lat="47.83124" lon="1.97152">
        <ele>91</ele>
        <time>2017-01-22T09:41:13.151Z</time>
      </trkpt>
      <trkpt lat="47.83132" lon="1.97143">
        <ele>91</ele>
        <time>2017-01-22T09:41:14.154Z</time>
      </trkpt>
      <trkpt lat="47.83132" lon="1.97143">
        <ele>91</ele>
        <time>2017-01-22T09:41:15.120Z</time>
      </trkpt>
      <trkpt lat="47.8314" lon="1.97141">
        <ele>90</ele>
        <time>2017-01-22T09:41:16.128Z</time>
      </trkpt>
      <trkpt lat="47.83145" lon="1.97141">
        <ele>90</ele>
        <time>2017-01-22T09:41:17.133Z</time>
      </trkpt>
      <trkpt lat="47.83149" lon="1.97143">
        <ele>90</ele>
        <time>2017-01-22T09:41:18.166Z</time>
      </trkpt>
      <trkpt lat="47.83149" lon="1.97143">
        <ele>90</ele>
        <time>2017-01-22T09:41:19.131Z</time>
      </trkpt>
      <trkpt lat="47.83159" lon="1.97148">
        <ele>90</ele>
        <time>2017-01-22T09:41:20.134Z</time>
      </trkpt>
      <trkpt lat="47.83167" lon="1.97155">
        <ele>90</ele>
        <time>2017-01-22T09:41:21.163Z</time>
      </trkpt>
      <trkpt lat="47.83167" lon="1.97155">
        <ele>90</ele>
        <time>2017-01-22T09:41:22.120Z</time>
      </trkpt>
      <trkpt lat="47.83171" lon="1.97159">
        <ele>90</ele>
        <time>2017-01-22T09:41:23.128Z</time>
      </trkpt>
      <trkpt lat="47.83171" lon="1.97159">
        <ele>90</ele>
        <time>2017-01-22T09:41:24.147Z</time>
      </trkpt>
      <trkpt lat="47.83178" lon="1.97162">
        <ele>90</ele>
        <time>2017-01-22T09:41:25.153Z</time>
      </trkpt>
      <trkpt lat="47.83181" lon="1.9716">
        <ele>89</ele>
        <time>2017-01-22T09:41:26.134Z</time>
      </trkpt>
      <trkpt lat="47.83181" lon="1.9716">
        <ele>89</ele>
        <time>2017-01-22T09:41:27.143Z</time>
      </trkpt>
      <trkpt lat="47.83187" lon="1.97151">
        <ele>89</ele>
        <time>2017-01-22T09:41:28.129Z</time>
      </trkpt>
      <trkpt lat="47.83187" lon="1.97151">
        <ele>89</ele>
        <time>2017-01-22T09:41:29.152Z</time>
      </trkpt>
      <trkpt lat="47.83194" lon="1.97142">
        <ele>89</ele>
        <time>2017-01-22T09:41:30.155Z</time>
      </trkpt>
      <trkpt lat="47.83194" lon="1.97142">
        <ele>89</ele>
        <time>2017-01-22T09:41:31.121Z</time>
      </trkpt>
      <trkpt lat="47.83202" lon="1.97134">
        <ele>88</ele>
        <time>2017-01-22T09:41:32.127Z</time>
      </trkpt>
      <trkpt lat="47.83205" lon="1.97129">
        <ele>88</ele>
        <time>2017-01-22T09:41:33.142Z</time>
      </trkpt>
      <trkpt lat="47.83211" lon="1.97123">
        <ele>87</ele>
        <time>2017-01-22T09:41:34.151Z</time>
      </trkpt>
      <trkpt lat="47.83211" lon="1.97123">
        <ele>87</ele>
        <time>2017-01-22T09:41:35.138Z</time>
      </trkpt>
      <trkpt lat="47.83215" lon="1.97121">
        <ele>87</ele>
        <time>2017-01-22T09:41:36.119Z</time>
      </trkpt>
      <trkpt lat="47.83215" lon="1.97121">
        <ele>87</ele>
        <time>2017-01-22T09:41:37.151Z</time>
      </trkpt>
      <trkpt lat="47.83222" lon="1.97121">
        <ele>87</ele>
        <time>2017-01-22T09:41:38.118Z</time>
      </trkpt>
      <trkpt lat="47.83222" lon="1.97121">
        <ele>87</ele>
        <time>2017-01-22T09:41:39.125Z</time>
      </trkpt>
      <trkpt lat="47.83228" lon="1.97124">
        <ele>87</ele>
        <time>2017-01-22T09:41:40.146Z</time>
      </trkpt>
      <trkpt lat="47.83228" lon="1.97124">
        <ele>87</ele>
        <time>2017-01-22T09:41:41.152Z</time>
      </trkpt>
      <trkpt lat="47.83232" lon="1.97132">
        <ele>87</ele>
        <time>2017-01-22T09:41:42.147Z</time>
      </trkpt>
      <trkpt lat="47.83235" lon="1.97143">
        <ele>87</ele>
        <time>2017-01-22T09:41:43.153Z</time>
      </trkpt>
      <trkpt lat="47.83235" lon="1.97143">
        <ele>87</ele>
        <time>2017-01-22T09:41:44.144Z</time>
      </trkpt>
      <trkpt lat="47.83235" lon="1.97143">
        <ele>87</ele>
        <time>2017-01-22T09:41:45.151Z</time>
      </trkpt>
      <trkpt lat="47.83238" lon="1.97157">
        <ele>88</ele>
        <time>2017-01-22T09:41:46.155Z</time>
      </trkpt>
      <trkpt lat="47.83238" lon="1.97157">
        <ele>88</ele>
        <time>2017-01-22T09:41:47.120Z</time>
      </trkpt>
      <trkpt lat="47.83241" lon="1.9717">
        <ele>88</ele>
        <time>2017-01-22T09:41:48.129Z</time>
      </trkpt>
      <trkpt lat="47.83241" lon="1.9717">
        <ele>88</ele>
        <time>2017-01-22T09:41:49.152Z</time>
      </trkpt>
      <trkpt lat="47.83245" lon="1.97184">
        <ele>88</ele>
        <time>2017-01-22T09:41:50.141Z</time>
      </trkpt>
      <trkpt lat="47.83249" lon="1.97196">
        <ele>89</ele>
        <time>2017-01-22T09:41:51.149Z</time>
      </trkpt>
      <trkpt lat="47.83249" lon="1.97196">
        <ele>89</ele>
        <time>2017-01-22T09:41:52.127Z</time>
      </trkpt>
      <trkpt lat="47.83251" lon="1.97202">
        <ele>89</ele>
        <time>2017-01-22T09:41:53.154Z</time>
      </trkpt>
      <trkpt lat="47.83251" lon="1.97202">
        <ele>89</ele>
        <time>2017-01-22T09:41:54.121Z</time>
      </trkpt>
      <trkpt lat="47.83255" lon="1.97215">
        <ele>89</ele>
        <time>2017-01-22T09:41:55.144Z</time>
      </trkpt>
      <trkpt lat="47.83255" lon="1.97215">
        <ele>89</ele>
        <time>2017-01-22T09:41:56.151Z</time>
      </trkpt>
      <trkpt lat="47.83257" lon="1.97229">
        <ele>90</ele>
        <time>2017-01-22T09:41:57.124Z</time>
      </trkpt>
      <trkpt lat="47.83259" lon="1.97236">
        <ele>89</ele>
        <time>2017-01-22T09:41:58.137Z</time>
      </trkpt>
      <trkpt lat="47.83259" lon="1.97236">
        <ele>89</ele>
        <time>2017-01-22T09:41:59.149Z</time>
      </trkpt>
      <trkpt lat="47.83263" lon="1.97256">
        <ele>88</ele>
        <time>2017-01-22T09:42:00.156Z</time>
      </trkpt>
      <trkpt lat="47.83263" lon="1.97256">
        <ele>88</ele>
        <time>2017-01-22T09:42:01.142Z</time>
      </trkpt>
      <trkpt lat="47.83266" lon="1.97269">
        <ele>88</ele>
        <time>2017-01-22T09:42:02.153Z</time>
      </trkpt>
      <trkpt lat="47.83266" lon="1.97269">
        <ele>88</ele>
        <time>2017-01-22T09:42:03.124Z</time>
      </trkpt>
      <trkpt lat="47.83266" lon="1.97269">
        <ele>88</ele>
        <time>2017-01-22T09:42:04.124Z</time>
      </trkpt>
      <trkpt lat="47.83271" lon="1.97289">
        <ele>87</ele>
        <time>2017-01-22T09:42:05.149Z</time>
      </trkpt>
      <trkpt lat="47.83271" lon="1.97289">
        <ele>87</ele>
        <time>2017-01-22T09:42:06.156Z</time>
      </trkpt>
      <trkpt lat="47.83271" lon="1.97289">
        <ele>87</ele>
        <time>2017-01-22T09:42:07.121Z</time>
      </trkpt>
      <trkpt lat="47.83273" lon="1.97302">
        <ele>87</ele>
        <time>2017-01-22T09:42:08.148Z</time>
      </trkpt>
      <trkpt lat="47.83273" lon="1.97302">
        <ele>87</ele>
        <time>2017-01-22T09:42:09.150Z</time>
      </trkpt>
      <trkpt lat="47.83277" lon="1.97312">
        <ele>87</ele>
        <time>2017-01-22T09:42:10.144Z</time>
      </trkpt>
      <trkpt lat="47.8328" lon="1.97316">
        <ele>87</ele>
        <time>2017-01-22T09:42:11.122Z</time>
      </trkpt>
      <trkpt lat="47.8328" lon="1.97316">
        <ele>87</ele>
        <time>2017-01-22T09:42:12.128Z</time>
      </trkpt>
      <trkpt lat="47.83287" lon="1.9732">
        <ele>87</ele>
        <time>2017-01-22T09:42:13.149Z</time>
      </trkpt>
      <trkpt lat="47.83291" lon="1.97329">
        <ele>87</ele>
        <time>2017-01-22T09:42:14.155Z</time>
      </trkpt>
      <trkpt lat="47.83291" lon="1.97329">
        <ele>87</ele>
        <time>2017-01-22T09:42:15.141Z</time>
      </trkpt>
      <trkpt lat="47.83291" lon="1.97341">
        <ele>87</ele>
        <time>2017-01-22T09:42:16.148Z</time>
      </trkpt>
      <trkpt lat="47.83291" lon="1.97348">
        <ele>87</ele>
        <time>2017-01-22T09:42:17.155Z</time>
      </trkpt>
      <trkpt lat="47.83291" lon="1.97348">
        <ele>87</ele>
        <time>2017-01-22T09:42:18.122Z</time>
      </trkpt>
      <trkpt lat="47.83291" lon="1.97348">
        <ele>87</ele>
        <time>2017-01-22T09:42:19.128Z</time>
      </trkpt>
      <trkpt lat="47.83293" lon="1.97359">
        <ele>87</ele>
        <time>2017-01-22T09:42:20.149Z</time>
      </trkpt>
      <trkpt lat="47.83293" lon="1.97359">
        <ele>87</ele>
        <time>2017-01-22T09:42:21.151Z</time>
      </trkpt>
      <trkpt lat="47.83292" lon="1.97369">
        <ele>86</ele>
        <time>2017-01-22T09:42:22.135Z</time>
      </trkpt>
      <trkpt lat="47.8329" lon="1.9738">
        <ele>87</ele>
        <time>2017-01-22T09:42:23.151Z</time>
      </trkpt>
      <trkpt lat="47.8329" lon="1.9738">
        <ele>87</ele>
        <time>2017-01-22T09:42:24.128Z</time>
      </trkpt>
      <trkpt lat="47.8329" lon="1.9738">
        <ele>87</ele>
        <time>2017-01-22T09:42:25.149Z</time>
      </trkpt>
      <trkpt lat="47.83291" lon="1.97393">
        <ele>87</ele>
        <time>2017-01-22T09:42:26.134Z</time>
      </trkpt>
      <trkpt lat="47.83293" lon="1.97399">
        <ele>87</ele>
        <time>2017-01-22T09:42:27.141Z</time>
      </trkpt>
      <trkpt lat="47.83296" lon="1.9741">
        <ele>88</ele>
        <time>2017-01-22T09:42:28.149Z</time>
      </trkpt>
      <trkpt lat="47.83296" lon="1.9741">
        <ele>88</ele>
        <time>2017-01-22T09:42:29.144Z</time>
      </trkpt>
      <trkpt lat="47.83297" lon="1.97417">
        <ele>88</ele>
        <time>2017-01-22T09:42:30.131Z</time>
      </trkpt>
      <trkpt lat="47.83298" lon="1.9743">
        <ele>88</ele>
        <time>2017-01-22T09:42:31.149Z</time>
      </trkpt>
      <trkpt lat="47.83298" lon="1.9743">
        <ele>88</ele>
        <time>2017-01-22T09:42:32.118Z</time>
      </trkpt>
      <trkpt lat="47.83299" lon="1.97436">
        <ele>87</ele>
        <time>2017-01-22T09:42:33.127Z</time>
      </trkpt>
      <trkpt lat="47.83299" lon="1.97436">
        <ele>87</ele>
        <time>2017-01-22T09:42:34.151Z</time>
      </trkpt>
      <trkpt lat="47.83296" lon="1.97446">
        <ele>88</ele>
        <time>2017-01-22T09:42:35.148Z</time>
      </trkpt>
      <trkpt lat="47.83293" lon="1.97451">
        <ele>88</ele>
        <time>2017-01-22T09:42:36.126Z</time>
      </trkpt>
      <trkpt lat="47.83293" lon="1.97451">
        <ele>88</ele>
        <time>2017-01-22T09:42:37.141Z</time>
      </trkpt>
      <trkpt lat="47.83289" lon="1.97461">
        <ele>89</ele>
        <time>2017-01-22T09:42:38.153Z</time>
      </trkpt>
      <trkpt lat="47.83289" lon="1.97461">
        <ele>89</ele>
        <time>2017-01-22T09:42:39.122Z</time>
      </trkpt>
      <trkpt lat="47.83287" lon="1.97474">
        <ele>88</ele>
        <time>2017-01-22T09:42:40.128Z</time>
      </trkpt>
      <trkpt lat="47.83288" lon="1.97481">
        <ele>88</ele>
        <time>2017-01-22T09:42:41.135Z</time>
      </trkpt>
      <trkpt lat="47.83288" lon="1.97488">
        <ele>88</ele>
        <time>2017-01-22T09:42:42.155Z</time>
      </trkpt>
      <trkpt lat="47.83288" lon="1.97488">
        <ele>88</ele>
        <time>2017-01-22T09:42:43.127Z</time>
      </trkpt>
      <trkpt lat="47.83289" lon="1.97502">
        <ele>87</ele>
        <time>2017-01-22T09:42:44.144Z</time>
      </trkpt>
      <trkpt lat="47.83289" lon="1.97502">
        <ele>87</ele>
        <time>2017-01-22T09:42:45.151Z</time>
      </trkpt>
      <trkpt lat="47.83287" lon="1.97516">
        <ele>87</ele>
        <time>2017-01-22T09:42:46.149Z</time>
      </trkpt>
      <trkpt lat="47.83283" lon="1.9753">
        <ele>87</ele>
        <time>2017-01-22T09:42:47.155Z</time>
      </trkpt>
      <trkpt lat="47.83283" lon="1.9753">
        <ele>87</ele>
        <time>2017-01-22T09:42:48.121Z</time>
      </trkpt>
      <trkpt lat="47.83283" lon="1.9753">
        <ele>87</ele>
        <time>2017-01-22T09:42:49.127Z</time>
      </trkpt>
      <trkpt lat="47.83279" lon="1.97544">
        <ele>87</ele>
        <time>2017-01-22T09:42:50.123Z</time>
      </trkpt>
      <trkpt lat="47.83279" lon="1.97544">
        <ele>87</ele>
        <time>2017-01-22T09:42:51.129Z</time>
      </trkpt>
      <trkpt lat="47.83272" lon="1.97563">
        <ele>87</ele>
        <time>2017-01-22T09:42:52.149Z</time>
      </trkpt>
      <trkpt lat="47.83272" lon="1.97563">
        <ele>87</ele>
        <time>2017-01-22T09:42:53.159Z</time>
      </trkpt>
      <trkpt lat="47.8327" lon="1.9757">
        <ele>87</ele>
        <time>2017-01-22T09:42:54.151Z</time>
      </trkpt>
      <trkpt lat="47.8327" lon="1.9757">
        <ele>87</ele>
        <time>2017-01-22T09:42:55.145Z</time>
      </trkpt>
      <trkpt lat="47.83263" lon="1.9759">
        <ele>87</ele>
        <time>2017-01-22T09:42:56.151Z</time>
      </trkpt>
      <trkpt lat="47.83263" lon="1.9759">
        <ele>87</ele>
        <time>2017-01-22T09:42:57.157Z</time>
      </trkpt>
      <trkpt lat="47.83261" lon="1.97596">
        <ele>86</ele>
        <time>2017-01-22T09:42:58.137Z</time>
      </trkpt>
      <trkpt lat="47.83261" lon="1.97596">
        <ele>86</ele>
        <time>2017-01-22T09:42:59.149Z</time>
      </trkpt>
      <trkpt lat="47.83254" lon="1.97607">
        <ele>86</ele>
        <time>2017-01-22T09:43:00.163Z</time>
      </trkpt>
      <trkpt lat="47.83254" lon="1.97607">
        <ele>86</ele>
        <time>2017-01-22T09:43:01.154Z</time>
      </trkpt>
      <trkpt lat="47.83249" lon="1.97619">
        <ele>86</ele>
        <time>2017-01-22T09:43:02.155Z</time>
      </trkpt>
      <trkpt lat="47.83249" lon="1.97619">
        <ele>86</ele>
        <time>2017-01-22T09:43:03.120Z</time>
      </trkpt>
      <trkpt lat="47.83245" lon="1.97633">
        <ele>86</ele>
        <time>2017-01-22T09:43:04.130Z</time>
      </trkpt>
      <trkpt lat="47.83242" lon="1.97648">
        <ele>86</ele>
        <time>2017-01-22T09:43:05.155Z</time>
      </trkpt>
      <trkpt lat="47.83242" lon="1.97648">
        <ele>86</ele>
        <time>2017-01-22T09:43:06.144Z</time>
      </trkpt>
      <trkpt lat="47.83242" lon="1.97648">
        <ele>86</ele>
        <time>2017-01-22T09:43:07.151Z</time>
      </trkpt>
      <trkpt lat="47.8324" lon="1.97662">
        <ele>86</ele>
        <time>2017-01-22T09:43:08.153Z</time>
      </trkpt>
      <trkpt lat="47.8324" lon="1.97662">
        <ele>86</ele>
        <time>2017-01-22T09:43:09.119Z</time>
      </trkpt>
      <trkpt lat="47.83235" lon="1.97675">
        <ele>86</ele>
        <time>2017-01-22T09:43:10.125Z</time>
      </trkpt>
      <trkpt lat="47.83235" lon="1.97675">
        <ele>86</ele>
        <time>2017-01-22T09:43:11.153Z</time>
      </trkpt>
      <trkpt lat="47.83232" lon="1.9769">
        <ele>87</ele>
        <time>2017-01-22T09:43:12.124Z</time>
      </trkpt>
      <trkpt lat="47.83232" lon="1.9769">
        <ele>87</ele>
        <time>2017-01-22T09:43:13.130Z</time>
      </trkpt>
      <trkpt lat="47.83235" lon="1.97705">
        <ele>87</ele>
        <time>2017-01-22T09:43:14.118Z</time>
      </trkpt>
      <trkpt lat="47.83237" lon="1.97711">
        <ele>87</ele>
        <time>2017-01-22T09:43:15.124Z</time>
      </trkpt>
      <trkpt lat="47.83237" lon="1.97711">
        <ele>87</ele>
        <time>2017-01-22T09:43:16.130Z</time>
      </trkpt>
      <trkpt lat="47.83238" lon="1.97731">
        <ele>86</ele>
        <time>2017-01-22T09:43:17.156Z</time>
      </trkpt>
      <trkpt lat="47.83238" lon="1.97731">
        <ele>86</ele>
        <time>2017-01-22T09:43:18.122Z</time>
      </trkpt>
      <trkpt lat="47.83238" lon="1.97731">
        <ele>86</ele>
        <time>2017-01-22T09:43:19.153Z</time>
      </trkpt>
      <trkpt lat="47.83232" lon="1.97744">
        <ele>86</ele>
        <time>2017-01-22T09:43:20.156Z</time>
      </trkpt>
      <trkpt lat="47.83232" lon="1.97744">
        <ele>86</ele>
        <time>2017-01-22T09:43:21.122Z</time>
      </trkpt>
      <trkpt lat="47.83228" lon="1.97759">
        <ele>87</ele>
        <time>2017-01-22T09:43:22.129Z</time>
      </trkpt>
      <trkpt lat="47.83228" lon="1.97759">
        <ele>87</ele>
        <time>2017-01-22T09:43:23.150Z</time>
      </trkpt>
      <trkpt lat="47.83227" lon="1.97776">
        <ele>87</ele>
        <time>2017-01-22T09:43:24.137Z</time>
      </trkpt>
      <trkpt lat="47.8323" lon="1.97792">
        <ele>87</ele>
        <time>2017-01-22T09:43:25.148Z</time>
      </trkpt>
      <trkpt lat="47.8323" lon="1.97792">
        <ele>87</ele>
        <time>2017-01-22T09:43:26.135Z</time>
      </trkpt>
      <trkpt lat="47.83232" lon="1.978">
        <ele>87</ele>
        <time>2017-01-22T09:43:27.121Z</time>
      </trkpt>
      <trkpt lat="47.83232" lon="1.978">
        <ele>87</ele>
        <time>2017-01-22T09:43:28.128Z</time>
      </trkpt>
      <trkpt lat="47.83238" lon="1.97814">
        <ele>87</ele>
        <time>2017-01-22T09:43:29.151Z</time>
      </trkpt>
      <trkpt lat="47.83242" lon="1.97819">
        <ele>87</ele>
        <time>2017-01-22T09:43:30.163Z</time>
      </trkpt>
      <trkpt lat="47.83242" lon="1.97819">
        <ele>87</ele>
        <time>2017-01-22T09:43:31.154Z</time>
      </trkpt>
      <trkpt lat="47.83248" lon="1.9783">
        <ele>87</ele>
        <time>2017-01-22T09:43:32.141Z</time>
      </trkpt>
      <trkpt lat="47.83251" lon="1.97844">
        <ele>87</ele>
        <time>2017-01-22T09:43:33.149Z</time>
      </trkpt>
      <trkpt lat="47.83251" lon="1.97844">
        <ele>87</ele>
        <time>2017-01-22T09:43:34.142Z</time>
      </trkpt>
      <trkpt lat="47.83251" lon="1.97844">
        <ele>87</ele>
        <time>2017-01-22T09:43:35.152Z</time>
      </trkpt>
      <trkpt lat="47.83255" lon="1.97857">
        <ele>86</ele>
        <time>2017-01-22T09:43:36.120Z</time>
      </trkpt>
      <trkpt lat="47.83255" lon="1.97857">
        <ele>86</ele>
        <time>2017-01-22T09:43:37.126Z</time>
      </trkpt>
      <trkpt lat="47.83256" lon="1.97872">
        <ele>87</ele>
        <time>2017-01-22T09:43:38.145Z</time>
      </trkpt>
      <trkpt lat="47.83256" lon="1.97872">
        <ele>87</ele>
        <time>2017-01-22T09:43:39.153Z</time>
      </trkpt>
      <trkpt lat="47.83253" lon="1.97887">
        <ele>87</ele>
        <time>2017-01-22T09:43:40.149Z</time>
      </trkpt>
      <trkpt lat="47.83253" lon="1.97903">
        <ele>87</ele>
        <time>2017-01-22T09:43:41.155Z</time>
      </trkpt>
      <trkpt lat="47.83253" lon="1.97903">
        <ele>87</ele>
        <time>2017-01-22T09:43:42.142Z</time>
      </trkpt>
      <trkpt lat="47.83253" lon="1.97903">
        <ele>87</ele>
        <time>2017-01-22T09:43:43.153Z</time>
      </trkpt>
      <trkpt lat="47.83255" lon="1.97918">
        <ele>87</ele>
        <time>2017-01-22T09:43:44.140Z</time>
      </trkpt>
      <trkpt lat="47.83262" lon="1.97925">
        <ele>90</ele>
        <time>2017-01-22T09:43:45.148Z</time>
      </trkpt>
      <trkpt lat="47.83262" lon="1.97925">
        <ele>90</ele>
        <time>2017-01-22T09:43:46.128Z</time>
      </trkpt>
      <trkpt lat="47.83265" lon="1.97925">
        <ele>91</ele>
        <time>2017-01-22T09:43:47.121Z</time>
      </trkpt>
      <trkpt lat="47.83269" lon="1.97926">
        <ele>91</ele>
        <time>2017-01-22T09:43:48.128Z</time>
      </trkpt>
      <trkpt lat="47.83269" lon="1.97926">
        <ele>91</ele>
        <time>2017-01-22T09:43:49.153Z</time>
      </trkpt>
      <trkpt lat="47.83277" lon="1.97929">
        <ele>91</ele>
        <time>2017-01-22T09:43:50.124Z</time>
      </trkpt>
      <trkpt lat="47.83277" lon="1.97929">
        <ele>91</ele>
        <time>2017-01-22T09:43:51.130Z</time>
      </trkpt>
      <trkpt lat="47.83287" lon="1.97935">
        <ele>90</ele>
        <time>2017-01-22T09:43:52.137Z</time>
      </trkpt>
      <trkpt lat="47.83298" lon="1.9794">
        <ele>88</ele>
        <time>2017-01-22T09:43:53.193Z</time>
      </trkpt>
      <trkpt lat="47.83298" lon="1.9794">
        <ele>88</ele>
        <time>2017-01-22T09:43:54.126Z</time>
      </trkpt>
      <trkpt lat="47.83298" lon="1.9794">
        <ele>88</ele>
        <time>2017-01-22T09:43:55.142Z</time>
      </trkpt>
      <trkpt lat="47.8331" lon="1.97942">
        <ele>87</ele>
        <time>2017-01-22T09:43:56.134Z</time>
      </trkpt>
      <trkpt lat="47.83316" lon="1.97942">
        <ele>86</ele>
        <time>2017-01-22T09:43:57.151Z</time>
      </trkpt>
      <trkpt lat="47.83321" lon="1.9794">
        <ele>86</ele>
        <time>2017-01-22T09:43:58.150Z</time>
      </trkpt>
      <trkpt lat="47.83321" lon="1.9794">
        <ele>86</ele>
        <time>2017-01-22T09:43:59.203Z</time>
      </trkpt>
      <trkpt lat="47.83332" lon="1.97936">
        <ele>85</ele>
        <time>2017-01-22T09:44:00.123Z</time>
      </trkpt>
      <trkpt lat="47.83332" lon="1.97936">
        <ele>85</ele>
        <time>2017-01-22T09:44:01.128Z</time>
      </trkpt>
      <trkpt lat="47.83341" lon="1.97931">
        <ele>85</ele>
        <time>2017-01-22T09:44:02.133Z</time>
      </trkpt>
      <trkpt lat="47.83346" lon="1.97926">
        <ele>85</ele>
        <time>2017-01-22T09:44:03.125Z</time>
      </trkpt>
      <trkpt lat="47.83352" lon="1.97914">
        <ele>85</ele>
        <time>2017-01-22T09:44:04.153Z</time>
      </trkpt>
      <trkpt lat="47.83356" lon="1.97909">
        <ele>85</ele>
        <time>2017-01-22T09:44:05.155Z</time>
      </trkpt>
      <trkpt lat="47.83356" lon="1.97909">
        <ele>85</ele>
        <time>2017-01-22T09:44:06.140Z</time>
      </trkpt>
      <trkpt lat="47.83361" lon="1.979">
        <ele>84</ele>
        <time>2017-01-22T09:44:07.151Z</time>
      </trkpt>
      <trkpt lat="47.83361" lon="1.979">
        <ele>84</ele>
        <time>2017-01-22T09:44:08.143Z</time>
      </trkpt>
      <trkpt lat="47.83365" lon="1.97895">
        <ele>84</ele>
        <time>2017-01-22T09:44:09.138Z</time>
      </trkpt>
      <trkpt lat="47.83367" lon="1.97891">
        <ele>84</ele>
        <time>2017-01-22T09:44:10.144Z</time>
      </trkpt>
      <trkpt lat="47.8337" lon="1.97884">
        <ele>84</ele>
        <time>2017-01-22T09:44:11.151Z</time>
      </trkpt>
      <trkpt lat="47.8337" lon="1.97884">
        <ele>84</ele>
        <time>2017-01-22T09:44:12.138Z</time>
      </trkpt>
      <trkpt lat="47.8337" lon="1.97884">
        <ele>84</ele>
        <time>2017-01-22T09:44:13.148Z</time>
      </trkpt>
      <trkpt lat="47.83374" lon="1.97883">
        <ele>83</ele>
        <time>2017-01-22T09:44:14.149Z</time>
      </trkpt>
      <trkpt lat="47.83376" lon="1.97882">
        <ele>83</ele>
        <time>2017-01-22T09:44:15.156Z</time>
      </trkpt>
      <trkpt lat="47.83376" lon="1.97882">
        <ele>83</ele>
        <time>2017-01-22T09:44:16.122Z</time>
      </trkpt>
      <trkpt lat="47.83376" lon="1.97882">
        <ele>83</ele>
        <time>2017-01-22T09:44:17.128Z</time>
      </trkpt>
      <trkpt lat="47.83378" lon="1.97877">
        <ele>83</ele>
        <time>2017-01-22T09:44:18.139Z</time>
      </trkpt>
      <trkpt lat="47.83378" lon="1.97877">
        <ele>83</ele>
        <time>2017-01-22T09:44:19.150Z</time>
      </trkpt>
      <trkpt lat="47.83379" lon="1.97869">
        <ele>83</ele>
        <time>2017-01-22T09:44:20.147Z</time>
      </trkpt>
      <trkpt lat="47.83379" lon="1.97869">
        <ele>83</ele>
        <time>2017-01-22T09:44:21.154Z</time>
      </trkpt>
      <trkpt lat="47.83381" lon="1.9786">
        <ele>83</ele>
        <time>2017-01-22T09:44:22.118Z</time>
      </trkpt>
      <trkpt lat="47.83381" lon="1.9786">
        <ele>83</ele>
        <time>2017-01-22T09:44:23.128Z</time>
      </trkpt>
      <trkpt lat="47.83384" lon="1.97851">
        <ele>83</ele>
        <time>2017-01-22T09:44:24.124Z</time>
      </trkpt>
      <trkpt lat="47.83384" lon="1.97851">
        <ele>83</ele>
        <time>2017-01-22T09:44:25.154Z</time>
      </trkpt>
      <trkpt lat="47.83387" lon="1.97843">
        <ele>83</ele>
        <time>2017-01-22T09:44:26.145Z</time>
      </trkpt>
      <trkpt lat="47.83391" lon="1.97835">
        <ele>83</ele>
        <time>2017-01-22T09:44:27.151Z</time>
      </trkpt>
      <trkpt lat="47.83391" lon="1.97835">
        <ele>83</ele>
        <time>2017-01-22T09:44:28.143Z</time>
      </trkpt>
      <trkpt lat="47.83391" lon="1.97835">
        <ele>83</ele>
        <time>2017-01-22T09:44:29.155Z</time>
      </trkpt>
      <trkpt lat="47.83396" lon="1.97827">
        <ele>83</ele>
        <time>2017-01-22T09:44:30.156Z</time>
      </trkpt>
      <trkpt lat="47.83396" lon="1.97827">
        <ele>83</ele>
        <time>2017-01-22T09:44:31.122Z</time>
      </trkpt>
      <trkpt lat="47.83401" lon="1.97818">
        <ele>83</ele>
        <time>2017-01-22T09:44:32.128Z</time>
      </trkpt>
      <trkpt lat="47.83401" lon="1.97818">
        <ele>83</ele>
        <time>2017-01-22T09:44:33.154Z</time>
      </trkpt>
      <trkpt lat="47.83403" lon="1.9781">
        <ele>83</ele>
        <time>2017-01-22T09:44:34.144Z</time>
      </trkpt>
      <trkpt lat="47.83407" lon="1.97801">
        <ele>83</ele>
        <time>2017-01-22T09:44:35.152Z</time>
      </trkpt>
      <trkpt lat="47.83407" lon="1.97801">
        <ele>83</ele>
        <time>2017-01-22T09:44:36.120Z</time>
      </trkpt>
      <trkpt lat="47.83407" lon="1.97801">
        <ele>83</ele>
        <time>2017-01-22T09:44:37.128Z</time>
      </trkpt>
      <trkpt lat="47.83411" lon="1.97793">
        <ele>83</ele>
        <time>2017-01-22T09:44:38.123Z</time>
      </trkpt>
      <trkpt lat="47.83411" lon="1.97793">
        <ele>83</ele>
        <time>2017-01-22T09:44:39.130Z</time>
      </trkpt>
      <trkpt lat="47.83415" lon="1.97787">
        <ele>83</ele>
        <time>2017-01-22T09:44:40.150Z</time>
      </trkpt>
      <trkpt lat="47.83415" lon="1.97787">
        <ele>83</ele>
        <time>2017-01-22T09:44:41.151Z</time>
      </trkpt>
      <trkpt lat="47.83417" lon="1.9778">
        <ele>83</ele>
        <time>2017-01-22T09:44:42.125Z</time>
      </trkpt>
      <trkpt lat="47.83417" lon="1.9778">
        <ele>83</ele>
        <time>2017-01-22T09:44:43.130Z</time>
      </trkpt>
      <trkpt lat="47.8342" lon="1.9777">
        <ele>83</ele>
        <time>2017-01-22T09:44:44.137Z</time>
      </trkpt>
      <trkpt lat="47.8342" lon="1.9777">
        <ele>83</ele>
        <time>2017-01-22T09:44:45.154Z</time>
      </trkpt>
      <trkpt lat="47.83423" lon="1.97758">
        <ele>82</ele>
        <time>2017-01-22T09:44:46.142Z</time>
      </trkpt>
      <trkpt lat="47.83423" lon="1.97758">
        <ele>82</ele>
        <time>2017-01-22T09:44:47.149Z</time>
      </trkpt>
      <trkpt lat="47.83426" lon="1.97743">
        <ele>82</ele>
        <time>2017-01-22T09:44:48.150Z</time>
      </trkpt>
      <trkpt lat="47.83426" lon="1.97743">
        <ele>82</ele>
        <time>2017-01-22T09:44:49.154Z</time>
      </trkpt>
      <trkpt lat="47.83429" lon="1.97728">
        <ele>82</ele>
        <time>2017-01-22T09:44:50.144Z</time>
      </trkpt>
      <trkpt lat="47.83432" lon="1.97714">
        <ele>82</ele>
        <time>2017-01-22T09:44:51.151Z</time>
      </trkpt>
      <trkpt lat="47.83432" lon="1.97714">
        <ele>82</ele>
        <time>2017-01-22T09:44:52.137Z</time>
      </trkpt>
      <trkpt lat="47.83433" lon="1.97706">
        <ele>83</ele>
        <time>2017-01-22T09:44:53.154Z</time>
      </trkpt>
      <trkpt lat="47.83433" lon="1.97706">
        <ele>83</ele>
        <time>2017-01-22T09:44:54.120Z</time>
      </trkpt>
      <trkpt lat="47.83435" lon="1.97693">
        <ele>83</ele>
        <time>2017-01-22T09:44:55.145Z</time>
      </trkpt>
      <trkpt lat="47.83436" lon="1.97688">
        <ele>83</ele>
        <time>2017-01-22T09:44:56.153Z</time>
      </trkpt>
      <trkpt lat="47.83436" lon="1.97688">
        <ele>83</ele>
        <time>2017-01-22T09:44:57.119Z</time>
      </trkpt>
      <trkpt lat="47.8344" lon="1.97678">
        <ele>83</ele>
        <time>2017-01-22T09:44:58.126Z</time>
      </trkpt>
      <trkpt lat="47.8344" lon="1.97678">
        <ele>83</ele>
        <time>2017-01-22T09:44:59.132Z</time>
      </trkpt>
      <trkpt lat="47.83444" lon="1.97666">
        <ele>84</ele>
        <time>2017-01-22T09:45:00.120Z</time>
      </trkpt>
      <trkpt lat="47.83444" lon="1.97666">
        <ele>84</ele>
        <time>2017-01-22T09:45:01.127Z</time>
      </trkpt>
      <trkpt lat="47.83447" lon="1.97655">
        <ele>84</ele>
        <time>2017-01-22T09:45:02.124Z</time>
      </trkpt>
      <trkpt lat="47.83447" lon="1.97655">
        <ele>84</ele>
        <time>2017-01-22T09:45:03.130Z</time>
      </trkpt>
      <trkpt lat="47.83453" lon="1.97648">
        <ele>84</ele>
        <time>2017-01-22T09:45:04.148Z</time>
      </trkpt>
      <trkpt lat="47.83453" lon="1.97648">
        <ele>84</ele>
        <time>2017-01-22T09:45:05.119Z</time>
      </trkpt>
      <trkpt lat="47.8346" lon="1.97644">
        <ele>85</ele>
        <time>2017-01-22T09:45:06.125Z</time>
      </trkpt>
      <trkpt lat="47.8346" lon="1.97644">
        <ele>85</ele>
        <time>2017-01-22T09:45:07.154Z</time>
      </trkpt>
      <trkpt lat="47.83467" lon="1.97644">
        <ele>86</ele>
        <time>2017-01-22T09:45:08.131Z</time>
      </trkpt>
      <trkpt lat="47.83467" lon="1.97644">
        <ele>86</ele>
        <time>2017-01-22T09:45:09.145Z</time>
      </trkpt>
      <trkpt lat="47.83472" lon="1.97651">
        <ele>86</ele>
        <time>2017-01-22T09:45:10.124Z</time>
      </trkpt>
      <trkpt lat="47.83472" lon="1.97651">
        <ele>86</ele>
        <time>2017-01-22T09:45:11.154Z</time>
      </trkpt>
      <trkpt lat="47.83476" lon="1.97662">
        <ele>87</ele>
        <time>2017-01-22T09:45:12.124Z</time>
      </trkpt>
      <trkpt lat="47.83476" lon="1.97662">
        <ele>87</ele>
        <time>2017-01-22T09:45:13.131Z</time>
      </trkpt>
      <trkpt lat="47.83478" lon="1.97674">
        <ele>87</ele>
        <time>2017-01-22T09:45:14.150Z</time>
      </trkpt>
      <trkpt lat="47.83478" lon="1.97674">
        <ele>87</ele>
        <time>2017-01-22T09:45:15.153Z</time>
      </trkpt>
      <trkpt lat="47.83475" lon="1.97687">
        <ele>87</ele>
        <time>2017-01-22T09:45:16.122Z</time>
      </trkpt>
      <trkpt lat="47.83473" lon="1.97693">
        <ele>87</ele>
        <time>2017-01-22T09:45:17.129Z</time>
      </trkpt>
      <trkpt lat="47.83471" lon="1.97699">
        <ele>87</ele>
        <time>2017-01-22T09:45:18.163Z</time>
      </trkpt>
      <trkpt lat="47.83471" lon="1.97699">
        <ele>87</ele>
        <time>2017-01-22T09:45:19.141Z</time>
      </trkpt>
      <trkpt lat="47.83467" lon="1.97709">
        <ele>87</ele>
        <time>2017-01-22T09:45:20.132Z</time>
      </trkpt>
      <trkpt lat="47.83465" lon="1.97714">
        <ele>87</ele>
        <time>2017-01-22T09:45:21.142Z</time>
      </trkpt>
      <trkpt lat="47.83462" lon="1.97724">
        <ele>87</ele>
        <time>2017-01-22T09:45:22.150Z</time>
      </trkpt>
      <trkpt lat="47.83462" lon="1.97724">
        <ele>87</ele>
        <time>2017-01-22T09:45:23.146Z</time>
      </trkpt>
      <trkpt lat="47.83462" lon="1.97724">
        <ele>87</ele>
        <time>2017-01-22T09:45:24.168Z</time>
      </trkpt>
      <trkpt lat="47.83459" lon="1.97733">
        <ele>87</ele>
        <time>2017-01-22T09:45:25.124Z</time>
      </trkpt>
      <trkpt lat="47.83458" lon="1.97738">
        <ele>87</ele>
        <time>2017-01-22T09:45:26.131Z</time>
      </trkpt>
      <trkpt lat="47.83455" lon="1.97747">
        <ele>87</ele>
        <time>2017-01-22T09:45:27.151Z</time>
      </trkpt>
      <trkpt lat="47.83455" lon="1.97747">
        <ele>87</ele>
        <time>2017-01-22T09:45:28.153Z</time>
      </trkpt>
      <trkpt lat="47.83453" lon="1.97752">
        <ele>87</ele>
        <time>2017-01-22T09:45:29.155Z</time>
      </trkpt>
      <trkpt lat="47.83453" lon="1.97752">
        <ele>87</ele>
        <time>2017-01-22T09:45:30.121Z</time>
      </trkpt>
      <trkpt lat="47.8345" lon="1.9776">
        <ele>87</ele>
        <time>2017-01-22T09:45:31.129Z</time>
      </trkpt>
      <trkpt lat="47.8345" lon="1.9776">
        <ele>87</ele>
        <time>2017-01-22T09:45:32.153Z</time>
      </trkpt>
      <trkpt lat="47.83446" lon="1.97768">
        <ele>87</ele>
        <time>2017-01-22T09:45:33.127Z</time>
      </trkpt>
      <trkpt lat="47.83446" lon="1.97768">
        <ele>87</ele>
        <time>2017-01-22T09:45:34.134Z</time>
      </trkpt>
      <trkpt lat="47.83443" lon="1.97779">
        <ele>87</ele>
        <time>2017-01-22T09:45:35.150Z</time>
      </trkpt>
      <trkpt lat="47.83443" lon="1.97779">
        <ele>87</ele>
        <time>2017-01-22T09:45:36.155Z</time>
      </trkpt>
      <trkpt lat="47.83438" lon="1.97788">
        <ele>88</ele>
        <time>2017-01-22T09:45:37.138Z</time>
      </trkpt>
      <trkpt lat="47.83438" lon="1.97788">
        <ele>88</ele>
        <time>2017-01-22T09:45:38.150Z</time>
      </trkpt>
      <trkpt lat="47.83436" lon="1.97799">
        <ele>89</ele>
        <time>2017-01-22T09:45:39.142Z</time>
      </trkpt>
      <trkpt lat="47.83436" lon="1.97799">
        <ele>89</ele>
        <time>2017-01-22T09:45:40.161Z</time>
      </trkpt>
      <trkpt lat="47.83434" lon="1.97812">
        <ele>89</ele>
        <time>2017-01-22T09:45:41.125Z</time>
      </trkpt>
      <trkpt lat="47.83434" lon="1.97812">
        <ele>89</ele>
        <time>2017-01-22T09:45:42.132Z</time>
      </trkpt>
      <trkpt lat="47.83431" lon="1.97825">
        <ele>89</ele>
        <time>2017-01-22T09:45:43.150Z</time>
      </trkpt>
      <trkpt lat="47.83431" lon="1.97825">
        <ele>89</ele>
        <time>2017-01-22T09:45:44.126Z</time>
      </trkpt>
      <trkpt lat="47.83427" lon="1.97834">
        <ele>90</ele>
        <time>2017-01-22T09:45:45.124Z</time>
      </trkpt>
      <trkpt lat="47.83427" lon="1.97834">
        <ele>90</ele>
        <time>2017-01-22T09:45:46.121Z</time>
      </trkpt>
      <trkpt lat="47.83419" lon="1.97844">
        <ele>90</ele>
        <time>2017-01-22T09:45:47.128Z</time>
      </trkpt>
      <trkpt lat="47.83415" lon="1.9785">
        <ele>91</ele>
        <time>2017-01-22T09:45:48.128Z</time>
      </trkpt>
      <trkpt lat="47.83415" lon="1.9785">
        <ele>91</ele>
        <time>2017-01-22T09:45:49.142Z</time>
      </trkpt>
      <trkpt lat="47.8341" lon="1.97863">
        <ele>91</ele>
        <time>2017-01-22T09:45:50.156Z</time>
      </trkpt>
      <trkpt lat="47.8341" lon="1.97863">
        <ele>91</ele>
        <time>2017-01-22T09:45:51.122Z</time>
      </trkpt>
      <trkpt lat="47.83407" lon="1.97875">
        <ele>91</ele>
        <time>2017-01-22T09:45:52.143Z</time>
      </trkpt>
      <trkpt lat="47.83405" lon="1.97884">
        <ele>92</ele>
        <time>2017-01-22T09:45:53.156Z</time>
      </trkpt>
      <trkpt lat="47.83405" lon="1.97884">
        <ele>92</ele>
        <time>2017-01-22T09:45:54.160Z</time>
      </trkpt>
      <trkpt lat="47.83405" lon="1.97884">
        <ele>92</ele>
        <time>2017-01-22T09:45:55.155Z</time>
      </trkpt>
      <trkpt lat="47.834" lon="1.9789">
        <ele>92</ele>
        <time>2017-01-22T09:45:56.142Z</time>
      </trkpt>
      <trkpt lat="47.834" lon="1.9789">
        <ele>92</ele>
        <time>2017-01-22T09:45:57.150Z</time>
      </trkpt>
      <trkpt lat="47.83395" lon="1.97899">
        <ele>92</ele>
        <time>2017-01-22T09:45:58.143Z</time>
      </trkpt>
      <trkpt lat="47.83395" lon="1.97899">
        <ele>92</ele>
        <time>2017-01-22T09:45:59.152Z</time>
      </trkpt>
      <trkpt lat="47.8339" lon="1.9791">
        <ele>92</ele>
        <time>2017-01-22T09:46:00.118Z</time>
      </trkpt>
      <trkpt lat="47.8339" lon="1.9791">
        <ele>92</ele>
        <time>2017-01-22T09:46:01.125Z</time>
      </trkpt>
      <trkpt lat="47.83385" lon="1.97922">
        <ele>92</ele>
        <time>2017-01-22T09:46:02.132Z</time>
      </trkpt>
      <trkpt lat="47.83385" lon="1.97922">
        <ele>92</ele>
        <time>2017-01-22T09:46:03.153Z</time>
      </trkpt>
      <trkpt lat="47.83382" lon="1.97934">
        <ele>92</ele>
        <time>2017-01-22T09:46:04.147Z</time>
      </trkpt>
      <trkpt lat="47.83382" lon="1.97934">
        <ele>92</ele>
        <time>2017-01-22T09:46:05.142Z</time>
      </trkpt>
      <trkpt lat="47.83382" lon="1.9795">
        <ele>92</ele>
        <time>2017-01-22T09:46:06.120Z</time>
      </trkpt>
      <trkpt lat="47.83382" lon="1.9795">
        <ele>92</ele>
        <time>2017-01-22T09:46:07.126Z</time>
      </trkpt>
      <trkpt lat="47.83381" lon="1.97962">
        <ele>91</ele>
        <time>2017-01-22T09:46:08.133Z</time>
      </trkpt>
      <trkpt lat="47.83381" lon="1.97962">
        <ele>91</ele>
        <time>2017-01-22T09:46:09.153Z</time>
      </trkpt>
      <trkpt lat="47.8338" lon="1.97973">
        <ele>90</ele>
        <time>2017-01-22T09:46:10.122Z</time>
      </trkpt>
      <trkpt lat="47.8338" lon="1.97973">
        <ele>90</ele>
        <time>2017-01-22T09:46:11.128Z</time>
      </trkpt>
      <trkpt lat="47.8338" lon="1.97983">
        <ele>90</ele>
        <time>2017-01-22T09:46:12.137Z</time>
      </trkpt>
      <trkpt lat="47.8338" lon="1.97988">
        <ele>90</ele>
        <time>2017-01-22T09:46:13.144Z</time>
      </trkpt>
      <trkpt lat="47.83382" lon="1.97994">
        <ele>90</ele>
        <time>2017-01-22T09:46:14.152Z</time>
      </trkpt>
      <trkpt lat="47.83382" lon="1.97994">
        <ele>90</ele>
        <time>2017-01-22T09:46:15.119Z</time>
      </trkpt>
      <trkpt lat="47.83382" lon="1.97994">
        <ele>90</ele>
        <time>2017-01-22T09:46:16.125Z</time>
      </trkpt>
      <trkpt lat="47.83385" lon="1.97995">
        <ele>90</ele>
        <time>2017-01-22T09:46:17.125Z</time>
      </trkpt>
      <trkpt lat="47.83387" lon="1.97994">
        <ele>90</ele>
        <time>2017-01-22T09:46:18.136Z</time>
      </trkpt>
      <trkpt lat="47.83387" lon="1.97994">
        <ele>90</ele>
        <time>2017-01-22T09:46:19.148Z</time>
      </trkpt>
      <trkpt lat="47.83391" lon="1.97996">
        <ele>89</ele>
        <time>2017-01-22T09:46:20.147Z</time>
      </trkpt>
      <trkpt lat="47.83393" lon="1.97995">
        <ele>89</ele>
        <time>2017-01-22T09:46:21.132Z</time>
      </trkpt>
      <trkpt lat="47.83397" lon="1.97997">
        <ele>89</ele>
        <time>2017-01-22T09:46:22.152Z</time>
      </trkpt>
      <trkpt lat="47.83397" lon="1.97997">
        <ele>89</ele>
        <time>2017-01-22T09:46:23.154Z</time>
      </trkpt>
      <trkpt lat="47.83397" lon="1.97997">
        <ele>89</ele>
        <time>2017-01-22T09:46:24.120Z</time>
      </trkpt>
      <trkpt lat="47.83398" lon="1.98005">
        <ele>88</ele>
        <time>2017-01-22T09:46:25.154Z</time>
      </trkpt>
      <trkpt lat="47.83398" lon="1.9801">
        <ele>88</ele>
        <time>2017-01-22T09:46:26.148Z</time>
      </trkpt>
      <trkpt lat="47.83398" lon="1.9801">
        <ele>88</ele>
        <time>2017-01-22T09:46:27.151Z</time>
      </trkpt>
      <trkpt lat="47.83398" lon="1.98022">
        <ele>88</ele>
        <time>2017-01-22T09:46:28.125Z</time>
      </trkpt>
      <trkpt lat="47.83398" lon="1.98022">
        <ele>88</ele>
        <time>2017-01-22T09:46:29.131Z</time>
      </trkpt>
      <trkpt lat="47.83398" lon="1.98035">
        <ele>88</ele>
        <time>2017-01-22T09:46:30.143Z</time>
      </trkpt>
      <trkpt lat="47.83398" lon="1.98035">
        <ele>88</ele>
        <time>2017-01-22T09:46:31.154Z</time>
      </trkpt>
      <trkpt lat="47.83398" lon="1.98048">
        <ele>87</ele>
        <time>2017-01-22T09:46:32.122Z</time>
      </trkpt>
      <trkpt lat="47.83398" lon="1.98048">
        <ele>87</ele>
        <time>2017-01-22T09:46:33.132Z</time>
      </trkpt>
      <trkpt lat="47.83399" lon="1.98059">
        <ele>87</ele>
        <time>2017-01-22T09:46:34.143Z</time>
      </trkpt>
      <trkpt lat="47.83399" lon="1.98059">
        <ele>87</ele>
        <time>2017-01-22T09:46:35.152Z</time>
      </trkpt>
      <trkpt lat="47.83397" lon="1.9807">
        <ele>87</ele>
        <time>2017-01-22T09:46:36.136Z</time>
      </trkpt>
      <trkpt lat="47.83397" lon="1.9807">
        <ele>87</ele>
        <time>2017-01-22T09:46:37.145Z</time>
      </trkpt>
      <trkpt lat="47.83394" lon="1.98081">
        <ele>87</ele>
        <time>2017-01-22T09:46:38.157Z</time>
      </trkpt>
      <trkpt lat="47.83394" lon="1.98081">
        <ele>87</ele>
        <time>2017-01-22T09:46:39.122Z</time>
      </trkpt>
      <trkpt lat="47.83393" lon="1.98092">
        <ele>87</ele>
        <time>2017-01-22T09:46:40.132Z</time>
      </trkpt>
      <trkpt lat="47.83399" lon="1.98102">
        <ele>87</ele>
        <time>2017-01-22T09:46:41.151Z</time>
      </trkpt>
      <trkpt lat="47.83399" lon="1.98102">
        <ele>87</ele>
        <time>2017-01-22T09:46:42.131Z</time>
      </trkpt>
      <trkpt lat="47.83399" lon="1.98102">
        <ele>87</ele>
        <time>2017-01-22T09:46:43.153Z</time>
      </trkpt>
      <trkpt lat="47.83407" lon="1.98111">
        <ele>86</ele>
        <time>2017-01-22T09:46:44.121Z</time>
      </trkpt>
      <trkpt lat="47.83411" lon="1.98116">
        <ele>86</ele>
        <time>2017-01-22T09:46:45.128Z</time>
      </trkpt>
      <trkpt lat="47.8342" lon="1.98126">
        <ele>85</ele>
        <time>2017-01-22T09:46:46.147Z</time>
      </trkpt>
      <trkpt lat="47.8342" lon="1.98126">
        <ele>85</ele>
        <time>2017-01-22T09:46:47.146Z</time>
      </trkpt>
      <trkpt lat="47.83424" lon="1.98132">
        <ele>85</ele>
        <time>2017-01-22T09:46:48.136Z</time>
      </trkpt>
      <trkpt lat="47.83428" lon="1.98138">
        <ele>85</ele>
        <time>2017-01-22T09:46:49.153Z</time>
      </trkpt>
      <trkpt lat="47.83428" lon="1.98138">
        <ele>85</ele>
        <time>2017-01-22T09:46:50.119Z</time>
      </trkpt>
      <trkpt lat="47.83435" lon="1.9815">
        <ele>85</ele>
        <time>2017-01-22T09:46:51.125Z</time>
      </trkpt>
      <trkpt lat="47.83435" lon="1.9815">
        <ele>85</ele>
        <time>2017-01-22T09:46:52.131Z</time>
      </trkpt>
      <trkpt lat="47.83442" lon="1.98164">
        <ele>85</ele>
        <time>2017-01-22T09:46:53.127Z</time>
      </trkpt>
      <trkpt lat="47.83446" lon="1.98172">
        <ele>85</ele>
        <time>2017-01-22T09:46:54.135Z</time>
      </trkpt>
      <trkpt lat="47.83446" lon="1.98172">
        <ele>85</ele>
        <time>2017-01-22T09:46:55.148Z</time>
      </trkpt>
      <trkpt lat="47.83452" lon="1.98187">
        <ele>85</ele>
        <time>2017-01-22T09:46:56.124Z</time>
      </trkpt>
      <trkpt lat="47.83455" lon="1.98195">
        <ele>85</ele>
        <time>2017-01-22T09:46:57.136Z</time>
      </trkpt>
      <trkpt lat="47.83455" lon="1.98195">
        <ele>85</ele>
        <time>2017-01-22T09:46:58.144Z</time>
      </trkpt>
      <trkpt lat="47.8346" lon="1.98211">
        <ele>85</ele>
        <time>2017-01-22T09:46:59.126Z</time>
      </trkpt>
      <trkpt lat="47.83463" lon="1.98219">
        <ele>85</ele>
        <time>2017-01-22T09:47:00.132Z</time>
      </trkpt>
      <trkpt lat="47.83467" lon="1.98233">
        <ele>86</ele>
        <time>2017-01-22T09:47:01.152Z</time>
      </trkpt>
      <trkpt lat="47.83467" lon="1.98233">
        <ele>86</ele>
        <time>2017-01-22T09:47:02.143Z</time>
      </trkpt>
      <trkpt lat="47.83471" lon="1.98248">
        <ele>85</ele>
        <time>2017-01-22T09:47:03.151Z</time>
      </trkpt>
      <trkpt lat="47.83471" lon="1.98248">
        <ele>85</ele>
        <time>2017-01-22T09:47:04.118Z</time>
      </trkpt>
      <trkpt lat="47.83471" lon="1.98248">
        <ele>85</ele>
        <time>2017-01-22T09:47:05.128Z</time>
      </trkpt>
      <trkpt lat="47.83476" lon="1.98264">
        <ele>85</ele>
        <time>2017-01-22T09:47:06.141Z</time>
      </trkpt>
      <trkpt lat="47.83476" lon="1.98264">
        <ele>85</ele>
        <time>2017-01-22T09:47:07.155Z</time>
      </trkpt>
      <trkpt lat="47.8348" lon="1.98281">
        <ele>85</ele>
        <time>2017-01-22T09:47:08.153Z</time>
      </trkpt>
      <trkpt lat="47.8348" lon="1.98281">
        <ele>85</ele>
        <time>2017-01-22T09:47:09.134Z</time>
      </trkpt>
      <trkpt lat="47.83485" lon="1.98298">
        <ele>85</ele>
        <time>2017-01-22T09:47:10.154Z</time>
      </trkpt>
      <trkpt lat="47.83485" lon="1.98298">
        <ele>85</ele>
        <time>2017-01-22T09:47:11.155Z</time>
      </trkpt>
      <trkpt lat="47.8349" lon="1.98315">
        <ele>85</ele>
        <time>2017-01-22T09:47:12.135Z</time>
      </trkpt>
      <trkpt lat="47.83492" lon="1.98323">
        <ele>85</ele>
        <time>2017-01-22T09:47:13.148Z</time>
      </trkpt>
      <trkpt lat="47.83497" lon="1.9834">
        <ele>85</ele>
        <time>2017-01-22T09:47:14.154Z</time>
      </trkpt>
      <trkpt lat="47.83497" lon="1.9834">
        <ele>85</ele>
        <time>2017-01-22T09:47:15.132Z</time>
      </trkpt>
      <trkpt lat="47.83497" lon="1.9834">
        <ele>85</ele>
        <time>2017-01-22T09:47:16.144Z</time>
      </trkpt>
      <trkpt lat="47.83502" lon="1.98357">
        <ele>85</ele>
        <time>2017-01-22T09:47:17.138Z</time>
      </trkpt>
      <trkpt lat="47.83504" lon="1.98365">
        <ele>85</ele>
        <time>2017-01-22T09:47:18.154Z</time>
      </trkpt>
      <trkpt lat="47.83504" lon="1.98365">
        <ele>85</ele>
        <time>2017-01-22T09:47:19.132Z</time>
      </trkpt>
      <trkpt lat="47.83509" lon="1.98382">
        <ele>85</ele>
        <time>2017-01-22T09:47:20.154Z</time>
      </trkpt>
      <trkpt lat="47.83509" lon="1.98382">
        <ele>85</ele>
        <time>2017-01-22T09:47:21.151Z</time>
      </trkpt>
      <trkpt lat="47.83513" lon="1.98398">
        <ele>85</ele>
        <time>2017-01-22T09:47:22.134Z</time>
      </trkpt>
      <trkpt lat="47.83513" lon="1.98398">
        <ele>85</ele>
        <time>2017-01-22T09:47:23.145Z</time>
      </trkpt>
      <trkpt lat="47.83518" lon="1.98414">
        <ele>85</ele>
        <time>2017-01-22T09:47:24.154Z</time>
      </trkpt>
      <trkpt lat="47.83518" lon="1.98414">
        <ele>85</ele>
        <time>2017-01-22T09:47:25.132Z</time>
      </trkpt>
      <trkpt lat="47.83523" lon="1.9843">
        <ele>84</ele>
        <time>2017-01-22T09:47:26.154Z</time>
      </trkpt>
      <trkpt lat="47.83523" lon="1.9843">
        <ele>84</ele>
        <time>2017-01-22T09:47:27.124Z</time>
      </trkpt>
      <trkpt lat="47.83527" lon="1.98446">
        <ele>84</ele>
        <time>2017-01-22T09:47:28.152Z</time>
      </trkpt>
      <trkpt lat="47.83527" lon="1.98446">
        <ele>84</ele>
        <time>2017-01-22T09:47:29.134Z</time>
      </trkpt>
      <trkpt lat="47.83532" lon="1.98462">
        <ele>85</ele>
        <time>2017-01-22T09:47:30.137Z</time>
      </trkpt>
      <trkpt lat="47.83532" lon="1.98462">
        <ele>85</ele>
        <time>2017-01-22T09:47:31.143Z</time>
      </trkpt>
      <trkpt lat="47.83536" lon="1.98477">
        <ele>85</ele>
        <time>2017-01-22T09:47:32.131Z</time>
      </trkpt>
      <trkpt lat="47.83538" lon="1.98484">
        <ele>85</ele>
        <time>2017-01-22T09:47:33.144Z</time>
      </trkpt>
      <trkpt lat="47.83543" lon="1.98499">
        <ele>85</ele>
        <time>2017-01-22T09:47:34.242Z</time>
      </trkpt>
      <trkpt lat="47.83543" lon="1.98499">
        <ele>85</ele>
        <time>2017-01-22T09:47:35.124Z</time>
      </trkpt>
      <trkpt lat="47.83545" lon="1.98507">
        <ele>85</ele>
        <time>2017-01-22T09:47:36.131Z</time>
      </trkpt>
      <trkpt lat="47.83549" lon="1.98521">
        <ele>85</ele>
        <time>2017-01-22T09:47:37.150Z</time>
      </trkpt>
      <trkpt lat="47.83549" lon="1.98521">
        <ele>85</ele>
        <time>2017-01-22T09:47:38.119Z</time>
      </trkpt>
      <trkpt lat="47.83549" lon="1.98521">
        <ele>85</ele>
        <time>2017-01-22T09:47:39.125Z</time>
      </trkpt>
      <trkpt lat="47.83553" lon="1.98537">
        <ele>85</ele>
        <time>2017-01-22T09:47:40.146Z</time>
      </trkpt>
      <trkpt lat="47.83555" lon="1.98544">
        <ele>85</ele>
        <time>2017-01-22T09:47:41.157Z</time>
      </trkpt>
      <trkpt lat="47.83555" lon="1.98544">
        <ele>85</ele>
        <time>2017-01-22T09:47:42.123Z</time>
      </trkpt>
      <trkpt lat="47.8356" lon="1.9856">
        <ele>85</ele>
        <time>2017-01-22T09:47:43.156Z</time>
      </trkpt>
      <trkpt lat="47.83562" lon="1.98567">
        <ele>85</ele>
        <time>2017-01-22T09:47:44.163Z</time>
      </trkpt>
      <trkpt lat="47.83562" lon="1.98567">
        <ele>85</ele>
        <time>2017-01-22T09:47:45.152Z</time>
      </trkpt>
      <trkpt lat="47.83566" lon="1.98582">
        <ele>85</ele>
        <time>2017-01-22T09:47:46.158Z</time>
      </trkpt>
      <trkpt lat="47.83566" lon="1.98582">
        <ele>85</ele>
        <time>2017-01-22T09:47:47.123Z</time>
      </trkpt>
      <trkpt lat="47.83569" lon="1.98597">
        <ele>86</ele>
        <time>2017-01-22T09:47:48.129Z</time>
      </trkpt>
      <trkpt lat="47.83571" lon="1.98605">
        <ele>86</ele>
        <time>2017-01-22T09:47:49.123Z</time>
      </trkpt>
      <trkpt lat="47.83571" lon="1.98605">
        <ele>86</ele>
        <time>2017-01-22T09:47:50.132Z</time>
      </trkpt>
      <trkpt lat="47.83575" lon="1.9862">
        <ele>87</ele>
        <time>2017-01-22T09:47:51.149Z</time>
      </trkpt>
      <trkpt lat="47.83576" lon="1.98628">
        <ele>87</ele>
        <time>2017-01-22T09:47:52.154Z</time>
      </trkpt>
      <trkpt lat="47.83576" lon="1.98628">
        <ele>87</ele>
        <time>2017-01-22T09:47:53.120Z</time>
      </trkpt>
      <trkpt lat="47.8358" lon="1.98643">
        <ele>86</ele>
        <time>2017-01-22T09:47:54.174Z</time>
      </trkpt>
      <trkpt lat="47.83581" lon="1.9865">
        <ele>86</ele>
        <time>2017-01-22T09:47:55.122Z</time>
      </trkpt>
      <trkpt lat="47.83581" lon="1.9865">
        <ele>86</ele>
        <time>2017-01-22T09:47:56.129Z</time>
      </trkpt>
      <trkpt lat="47.83584" lon="1.98665">
        <ele>86</ele>
        <time>2017-01-22T09:47:57.133Z</time>
      </trkpt>
      <trkpt lat="47.83587" lon="1.98679">
        <ele>86</ele>
        <time>2017-01-22T09:47:58.150Z</time>
      </trkpt>
      <trkpt lat="47.83587" lon="1.98679">
        <ele>86</ele>
        <time>2017-01-22T09:47:59.121Z</time>
      </trkpt>
      <trkpt lat="47.83588" lon="1.98687">
        <ele>86</ele>
        <time>2017-01-22T09:48:00.128Z</time>
      </trkpt>
      <trkpt lat="47.83588" lon="1.98687">
        <ele>86</ele>
        <time>2017-01-22T09:48:01.135Z</time>
      </trkpt>
      <trkpt lat="47.83591" lon="1.987">
        <ele>86</ele>
        <time>2017-01-22T09:48:02.155Z</time>
      </trkpt>
      <trkpt lat="47.83591" lon="1.987">
        <ele>86</ele>
        <time>2017-01-22T09:48:03.130Z</time>
      </trkpt>
      <trkpt lat="47.83594" lon="1.98713">
        <ele>87</ele>
        <time>2017-01-22T09:48:04.154Z</time>
      </trkpt>
      <trkpt lat="47.83594" lon="1.98713">
        <ele>87</ele>
        <time>2017-01-22T09:48:05.128Z</time>
      </trkpt>
      <trkpt lat="47.83596" lon="1.98724">
        <ele>88</ele>
        <time>2017-01-22T09:48:06.140Z</time>
      </trkpt>
      <trkpt lat="47.83596" lon="1.98724">
        <ele>88</ele>
        <time>2017-01-22T09:48:07.150Z</time>
      </trkpt>
      <trkpt lat="47.83602" lon="1.9873">
        <ele>87</ele>
        <time>2017-01-22T09:48:08.156Z</time>
      </trkpt>
      <trkpt lat="47.83602" lon="1.9873">
        <ele>87</ele>
        <time>2017-01-22T09:48:09.122Z</time>
      </trkpt>
      <trkpt lat="47.83609" lon="1.98731">
        <ele>86</ele>
        <time>2017-01-22T09:48:10.151Z</time>
      </trkpt>
      <trkpt lat="47.83618" lon="1.98732">
        <ele>85</ele>
        <time>2017-01-22T09:48:11.157Z</time>
      </trkpt>
      <trkpt lat="47.83618" lon="1.98732">
        <ele>85</ele>
        <time>2017-01-22T09:48:12.142Z</time>
      </trkpt>
      <trkpt lat="47.83623" lon="1.98731">
        <ele>84</ele>
        <time>2017-01-22T09:48:13.145Z</time>
      </trkpt>
      <trkpt lat="47.83632" lon="1.9873">
        <ele>84</ele>
        <time>2017-01-22T09:48:14.167Z</time>
      </trkpt>
      <trkpt lat="47.83632" lon="1.9873">
        <ele>84</ele>
        <time>2017-01-22T09:48:15.148Z</time>
      </trkpt>
      <trkpt lat="47.83636" lon="1.9873">
        <ele>83</ele>
        <time>2017-01-22T09:48:16.154Z</time>
      </trkpt>
      <trkpt lat="47.83636" lon="1.9873">
        <ele>83</ele>
        <time>2017-01-22T09:48:17.120Z</time>
      </trkpt>
      <trkpt lat="47.83646" lon="1.98732">
        <ele>83</ele>
        <time>2017-01-22T09:48:18.126Z</time>
      </trkpt>
      <trkpt lat="47.83646" lon="1.98732">
        <ele>83</ele>
        <time>2017-01-22T09:48:19.155Z</time>
      </trkpt>
      <trkpt lat="47.83655" lon="1.98734">
        <ele>84</ele>
        <time>2017-01-22T09:48:20.135Z</time>
      </trkpt>
      <trkpt lat="47.83664" lon="1.98734">
        <ele>84</ele>
        <time>2017-01-22T09:48:21.155Z</time>
      </trkpt>
      <trkpt lat="47.83664" lon="1.98734">
        <ele>84</ele>
        <time>2017-01-22T09:48:22.121Z</time>
      </trkpt>
      <trkpt lat="47.83664" lon="1.98734">
        <ele>84</ele>
        <time>2017-01-22T09:48:23.127Z</time>
      </trkpt>
      <trkpt lat="47.83671" lon="1.98728">
        <ele>86</ele>
        <time>2017-01-22T09:48:24.144Z</time>
      </trkpt>
      <trkpt lat="47.83678" lon="1.98721">
        <ele>85</ele>
        <time>2017-01-22T09:48:25.154Z</time>
      </trkpt>
      <trkpt lat="47.83678" lon="1.98721">
        <ele>85</ele>
        <time>2017-01-22T09:48:26.146Z</time>
      </trkpt>
      <trkpt lat="47.83678" lon="1.98721">
        <ele>85</ele>
        <time>2017-01-22T09:48:27.156Z</time>
      </trkpt>
      <trkpt lat="47.83686" lon="1.9872">
        <ele>86</ele>
        <time>2017-01-22T09:48:28.127Z</time>
      </trkpt>
      <trkpt lat="47.83686" lon="1.9872">
        <ele>86</ele>
        <time>2017-01-22T09:48:29.133Z</time>
      </trkpt>
      <trkpt lat="47.83693" lon="1.9872">
        <ele>86</ele>
        <time>2017-01-22T09:48:30.152Z</time>
      </trkpt>
      <trkpt lat="47.83693" lon="1.9872">
        <ele>86</ele>
        <time>2017-01-22T09:48:31.155Z</time>
      </trkpt>
      <trkpt lat="47.837" lon="1.98721">
        <ele>86</ele>
        <time>2017-01-22T09:48:32.120Z</time>
      </trkpt>
      <trkpt lat="47.837" lon="1.98721">
        <ele>86</ele>
        <time>2017-01-22T09:48:33.126Z</time>
      </trkpt>
      <trkpt lat="47.83709" lon="1.98727">
        <ele>87</ele>
        <time>2017-01-22T09:48:34.151Z</time>
      </trkpt>
      <trkpt lat="47.83709" lon="1.98727">
        <ele>87</ele>
        <time>2017-01-22T09:48:35.158Z</time>
      </trkpt>
      <trkpt lat="47.83719" lon="1.98733">
        <ele>87</ele>
        <time>2017-01-22T09:48:36.155Z</time>
      </trkpt>
      <trkpt lat="47.83719" lon="1.98733">
        <ele>87</ele>
        <time>2017-01-22T09:48:37.121Z</time>
      </trkpt>
      <trkpt lat="47.83729" lon="1.9874">
        <ele>87</ele>
        <time>2017-01-22T09:48:38.129Z</time>
      </trkpt>
      <trkpt lat="47.83734" lon="1.98743">
        <ele>87</ele>
        <time>2017-01-22T09:48:39.155Z</time>
      </trkpt>
      <trkpt lat="47.83734" lon="1.98743">
        <ele>87</ele>
        <time>2017-01-22T09:48:40.121Z</time>
      </trkpt>
      <trkpt lat="47.83744" lon="1.9875">
        <ele>87</ele>
        <time>2017-01-22T09:48:41.128Z</time>
      </trkpt>
      <trkpt lat="47.83749" lon="1.98754">
        <ele>87</ele>
        <time>2017-01-22T09:48:42.124Z</time>
      </trkpt>
      <trkpt lat="47.83749" lon="1.98754">
        <ele>87</ele>
        <time>2017-01-22T09:48:43.130Z</time>
      </trkpt>
      <trkpt lat="47.83758" lon="1.9876">
        <ele>88</ele>
        <time>2017-01-22T09:48:44.139Z</time>
      </trkpt>
      <trkpt lat="47.83763" lon="1.98763">
        <ele>88</ele>
        <time>2017-01-22T09:48:45.144Z</time>
      </trkpt>
      <trkpt lat="47.83772" lon="1.9877">
        <ele>88</ele>
        <time>2017-01-22T09:48:46.154Z</time>
      </trkpt>
      <trkpt lat="47.83772" lon="1.9877">
        <ele>88</ele>
        <time>2017-01-22T09:48:47.121Z</time>
      </trkpt>
      <trkpt lat="47.83772" lon="1.9877">
        <ele>88</ele>
        <time>2017-01-22T09:48:48.127Z</time>
      </trkpt>
      <trkpt lat="47.83777" lon="1.98781">
        <ele>88</ele>
        <time>2017-01-22T09:48:49.125Z</time>
      </trkpt>
      <trkpt lat="47.83777" lon="1.98781">
        <ele>88</ele>
        <time>2017-01-22T09:48:50.131Z</time>
      </trkpt>
      <trkpt lat="47.83781" lon="1.98795">
        <ele>88</ele>
        <time>2017-01-22T09:48:51.144Z</time>
      </trkpt>
      <trkpt lat="47.83781" lon="1.98795">
        <ele>88</ele>
        <time>2017-01-22T09:48:52.150Z</time>
      </trkpt>
      <trkpt lat="47.83783" lon="1.9881">
        <ele>89</ele>
        <time>2017-01-22T09:48:53.138Z</time>
      </trkpt>
      <trkpt lat="47.83785" lon="1.98824">
        <ele>89</ele>
        <time>2017-01-22T09:48:54.145Z</time>
      </trkpt>
      <trkpt lat="47.83785" lon="1.98824">
        <ele>89</ele>
        <time>2017-01-22T09:48:55.155Z</time>
      </trkpt>
      <trkpt lat="47.83786" lon="1.98831">
        <ele>89</ele>
        <time>2017-01-22T09:48:56.155Z</time>
      </trkpt>
      <trkpt lat="47.83786" lon="1.98831">
        <ele>89</ele>
        <time>2017-01-22T09:48:57.121Z</time>
      </trkpt>
      <trkpt lat="47.83788" lon="1.98845">
        <ele>89</ele>
        <time>2017-01-22T09:48:58.128Z</time>
      </trkpt>
      <trkpt lat="47.83788" lon="1.98845">
        <ele>89</ele>
        <time>2017-01-22T09:48:59.169Z</time>
      </trkpt>
      <trkpt lat="47.8379" lon="1.9886">
        <ele>89</ele>
        <time>2017-01-22T09:49:00.136Z</time>
      </trkpt>
      <trkpt lat="47.83791" lon="1.98874">
        <ele>89</ele>
        <time>2017-01-22T09:49:01.156Z</time>
      </trkpt>
      <trkpt lat="47.83791" lon="1.98874">
        <ele>89</ele>
        <time>2017-01-22T09:49:02.144Z</time>
      </trkpt>
      <trkpt lat="47.83791" lon="1.98874">
        <ele>89</ele>
        <time>2017-01-22T09:49:03.155Z</time>
      </trkpt>
      <trkpt lat="47.83794" lon="1.98888">
        <ele>89</ele>
        <time>2017-01-22T09:49:04.154Z</time>
      </trkpt>
      <trkpt lat="47.83794" lon="1.98888">
        <ele>89</ele>
        <time>2017-01-22T09:49:05.147Z</time>
      </trkpt>
      <trkpt lat="47.838" lon="1.98907">
        <ele>90</ele>
        <time>2017-01-22T09:49:06.157Z</time>
      </trkpt>
      <trkpt lat="47.838" lon="1.98907">
        <ele>90</ele>
        <time>2017-01-22T09:49:07.149Z</time>
      </trkpt>
      <trkpt lat="47.83803" lon="1.9892">
        <ele>90</ele>
        <time>2017-01-22T09:49:08.155Z</time>
      </trkpt>
      <trkpt lat="47.83803" lon="1.9892">
        <ele>90</ele>
        <time>2017-01-22T09:49:09.128Z</time>
      </trkpt>
      <trkpt lat="47.83803" lon="1.9892">
        <ele>90</ele>
        <time>2017-01-22T09:49:10.134Z</time>
      </trkpt>
      <trkpt lat="47.83806" lon="1.98932">
        <ele>90</ele>
        <time>2017-01-22T09:49:11.138Z</time>
      </trkpt>
      <trkpt lat="47.83809" lon="1.98937">
        <ele>90</ele>
        <time>2017-01-22T09:49:12.118Z</time>
      </trkpt>
      <trkpt lat="47.83809" lon="1.98937">
        <ele>90</ele>
        <time>2017-01-22T09:49:13.124Z</time>
      </trkpt>
      <trkpt lat="47.83815" lon="1.98945">
        <ele>90</ele>
        <time>2017-01-22T09:49:14.154Z</time>
      </trkpt>
      <trkpt lat="47.83817" lon="1.9895">
        <ele>90</ele>
        <time>2017-01-22T09:49:15.155Z</time>
      </trkpt>
      <trkpt lat="47.83819" lon="1.98954">
        <ele>90</ele>
        <time>2017-01-22T09:49:16.139Z</time>
      </trkpt>
      <trkpt lat="47.8382" lon="1.98964">
        <ele>90</ele>
        <time>2017-01-22T09:49:17.151Z</time>
      </trkpt>
      <trkpt lat="47.8382" lon="1.98964">
        <ele>90</ele>
        <time>2017-01-22T09:49:18.121Z</time>
      </trkpt>
      <trkpt lat="47.8382" lon="1.98968">
        <ele>91</ele>
        <time>2017-01-22T09:49:19.125Z</time>
      </trkpt>
      <trkpt lat="47.8382" lon="1.98968">
        <ele>91</ele>
        <time>2017-01-22T09:49:20.131Z</time>
      </trkpt>
      <trkpt lat="47.8382" lon="1.98979">
        <ele>91</ele>
        <time>2017-01-22T09:49:21.142Z</time>
      </trkpt>
      <trkpt lat="47.83819" lon="1.98991">
        <ele>90</ele>
        <time>2017-01-22T09:49:22.154Z</time>
      </trkpt>
      <trkpt lat="47.83819" lon="1.98991">
        <ele>90</ele>
        <time>2017-01-22T09:49:23.125Z</time>
      </trkpt>
      <trkpt lat="47.83818" lon="1.98996">
        <ele>90</ele>
        <time>2017-01-22T09:49:24.131Z</time>
      </trkpt>
      <trkpt lat="47.83818" lon="1.98996">
        <ele>90</ele>
        <time>2017-01-22T09:49:25.147Z</time>
      </trkpt>
      <trkpt lat="47.83815" lon="1.99006">
        <ele>90</ele>
        <time>2017-01-22T09:49:26.125Z</time>
      </trkpt>
      <trkpt lat="47.83815" lon="1.99006">
        <ele>90</ele>
        <time>2017-01-22T09:49:27.130Z</time>
      </trkpt>
      <trkpt lat="47.8381" lon="1.99016">
        <ele>90</ele>
        <time>2017-01-22T09:49:28.122Z</time>
      </trkpt>
      <trkpt lat="47.8381" lon="1.99016">
        <ele>90</ele>
        <time>2017-01-22T09:49:29.128Z</time>
      </trkpt>
      <trkpt lat="47.83806" lon="1.99025">
        <ele>90</ele>
        <time>2017-01-22T09:49:30.155Z</time>
      </trkpt>
      <trkpt lat="47.83804" lon="1.99037">
        <ele>90</ele>
        <time>2017-01-22T09:49:31.152Z</time>
      </trkpt>
      <trkpt lat="47.83804" lon="1.99037">
        <ele>90</ele>
        <time>2017-01-22T09:49:32.142Z</time>
      </trkpt>
      <trkpt lat="47.83803" lon="1.99042">
        <ele>90</ele>
        <time>2017-01-22T09:49:33.127Z</time>
      </trkpt>
      <trkpt lat="47.83803" lon="1.99042">
        <ele>90</ele>
        <time>2017-01-22T09:49:34.133Z</time>
      </trkpt>
      <trkpt lat="47.83804" lon="1.99051">
        <ele>90</ele>
        <time>2017-01-22T09:49:35.154Z</time>
      </trkpt>
      <trkpt lat="47.83804" lon="1.99051">
        <ele>90</ele>
        <time>2017-01-22T09:49:36.156Z</time>
      </trkpt>
      <trkpt lat="47.83808" lon="1.99052">
        <ele>90</ele>
        <time>2017-01-22T09:49:37.155Z</time>
      </trkpt>
      <trkpt lat="47.83808" lon="1.99052">
        <ele>90</ele>
        <time>2017-01-22T09:49:38.121Z</time>
      </trkpt>
      <trkpt lat="47.83813" lon="1.99048">
        <ele>89</ele>
        <time>2017-01-22T09:49:39.154Z</time>
      </trkpt>
      <trkpt lat="47.83817" lon="1.99047">
        <ele>90</ele>
        <time>2017-01-22T09:49:40.150Z</time>
      </trkpt>
      <trkpt lat="47.83817" lon="1.99047">
        <ele>90</ele>
        <time>2017-01-22T09:49:41.156Z</time>
      </trkpt>
      <trkpt lat="47.83825" lon="1.99048">
        <ele>90</ele>
        <time>2017-01-22T09:49:42.154Z</time>
      </trkpt>
      <trkpt lat="47.83825" lon="1.99048">
        <ele>90</ele>
        <time>2017-01-22T09:49:43.120Z</time>
      </trkpt>
      <trkpt lat="47.83833" lon="1.99054">
        <ele>90</ele>
        <time>2017-01-22T09:49:44.127Z</time>
      </trkpt>
      <trkpt lat="47.83833" lon="1.99054">
        <ele>90</ele>
        <time>2017-01-22T09:49:45.156Z</time>
      </trkpt>
      <trkpt lat="47.83841" lon="1.9906">
        <ele>90</ele>
        <time>2017-01-22T09:49:46.120Z</time>
      </trkpt>
      <trkpt lat="47.83841" lon="1.9906">
        <ele>90</ele>
        <time>2017-01-22T09:49:47.127Z</time>
      </trkpt>
      <trkpt lat="47.8385" lon="1.99065">
        <ele>90</ele>
        <time>2017-01-22T09:49:48.133Z</time>
      </trkpt>
      <trkpt lat="47.83854" lon="1.99067">
        <ele>90</ele>
        <time>2017-01-22T09:49:49.121Z</time>
      </trkpt>
      <trkpt lat="47.83854" lon="1.99067">
        <ele>90</ele>
        <time>2017-01-22T09:49:50.127Z</time>
      </trkpt>
      <trkpt lat="47.83862" lon="1.99072">
        <ele>90</ele>
        <time>2017-01-22T09:49:51.133Z</time>
      </trkpt>
      <trkpt lat="47.83862" lon="1.99072">
        <ele>90</ele>
        <time>2017-01-22T09:49:52.168Z</time>
      </trkpt>
      <trkpt lat="47.83871" lon="1.99076">
        <ele>89</ele>
        <time>2017-01-22T09:49:53.119Z</time>
      </trkpt>
      <trkpt lat="47.83875" lon="1.99079">
        <ele>90</ele>
        <time>2017-01-22T09:49:54.125Z</time>
      </trkpt>
      <trkpt lat="47.83875" lon="1.99079">
        <ele>90</ele>
        <time>2017-01-22T09:49:55.131Z</time>
      </trkpt>
      <trkpt lat="47.83884" lon="1.99084">
        <ele>90</ele>
        <time>2017-01-22T09:49:56.135Z</time>
      </trkpt>
      <trkpt lat="47.83884" lon="1.99084">
        <ele>90</ele>
        <time>2017-01-22T09:49:57.151Z</time>
      </trkpt>
      <trkpt lat="47.83894" lon="1.99088">
        <ele>90</ele>
        <time>2017-01-22T09:49:58.120Z</time>
      </trkpt>
      <trkpt lat="47.83894" lon="1.99088">
        <ele>90</ele>
        <time>2017-01-22T09:49:59.126Z</time>
      </trkpt>
      <trkpt lat="47.83903" lon="1.99086">
        <ele>90</ele>
        <time>2017-01-22T09:50:00.130Z</time>
      </trkpt>
      <trkpt lat="47.83903" lon="1.99086">
        <ele>90</ele>
        <time>2017-01-22T09:50:01.138Z</time>
      </trkpt>
      <trkpt lat="47.83907" lon="1.99075">
        <ele>89</ele>
        <time>2017-01-22T09:50:02.145Z</time>
      </trkpt>
      <trkpt lat="47.83907" lon="1.99075">
        <ele>89</ele>
        <time>2017-01-22T09:50:03.155Z</time>
      </trkpt>
      <trkpt lat="47.83907" lon="1.99061">
        <ele>89</ele>
        <time>2017-01-22T09:50:04.135Z</time>
      </trkpt>
      <trkpt lat="47.83907" lon="1.99061">
        <ele>89</ele>
        <time>2017-01-22T09:50:05.121Z</time>
      </trkpt>
      <trkpt lat="47.83904" lon="1.99047">
        <ele>89</ele>
        <time>2017-01-22T09:50:06.132Z</time>
      </trkpt>
      <trkpt lat="47.83904" lon="1.99047">
        <ele>89</ele>
        <time>2017-01-22T09:50:07.156Z</time>
      </trkpt>
      <trkpt lat="47.839" lon="1.99033">
        <ele>89</ele>
        <time>2017-01-22T09:50:08.153Z</time>
      </trkpt>
      <trkpt lat="47.839" lon="1.99033">
        <ele>89</ele>
        <time>2017-01-22T09:50:09.119Z</time>
      </trkpt>
      <trkpt lat="47.83896" lon="1.9902">
        <ele>90</ele>
        <time>2017-01-22T09:50:10.127Z</time>
      </trkpt>
      <trkpt lat="47.83894" lon="1.99013">
        <ele>89</ele>
        <time>2017-01-22T09:50:11.125Z</time>
      </trkpt>
      <trkpt lat="47.83894" lon="1.99013">
        <ele>89</ele>
        <time>2017-01-22T09:50:12.131Z</time>
      </trkpt>
      <trkpt lat="47.83891" lon="1.98999">
        <ele>89</ele>
        <time>2017-01-22T09:50:13.154Z</time>
      </trkpt>
      <trkpt lat="47.83891" lon="1.98999">
        <ele>89</ele>
        <time>2017-01-22T09:50:14.120Z</time>
      </trkpt>
      <trkpt lat="47.8389" lon="1.98984">
        <ele>89</ele>
        <time>2017-01-22T09:50:15.124Z</time>
      </trkpt>
      <trkpt lat="47.8389" lon="1.98984">
        <ele>89</ele>
        <time>2017-01-22T09:50:16.130Z</time>
      </trkpt>
      <trkpt lat="47.83894" lon="1.98971">
        <ele>90</ele>
        <time>2017-01-22T09:50:17.148Z</time>
      </trkpt>
      <trkpt lat="47.83897" lon="1.98968">
        <ele>90</ele>
        <time>2017-01-22T09:50:18.118Z</time>
      </trkpt>
      <trkpt lat="47.83897" lon="1.98968">
        <ele>90</ele>
        <time>2017-01-22T09:50:19.130Z</time>
      </trkpt>
      <trkpt lat="47.83905" lon="1.9897">
        <ele>90</ele>
        <time>2017-01-22T09:50:20.119Z</time>
      </trkpt>
      <trkpt lat="47.83905" lon="1.9897">
        <ele>90</ele>
        <time>2017-01-22T09:50:21.125Z</time>
      </trkpt>
      <trkpt lat="47.83912" lon="1.98977">
        <ele>90</ele>
        <time>2017-01-22T09:50:22.132Z</time>
      </trkpt>
      <trkpt lat="47.83915" lon="1.98982">
        <ele>91</ele>
        <time>2017-01-22T09:50:23.148Z</time>
      </trkpt>
      <trkpt lat="47.83919" lon="1.98996">
        <ele>91</ele>
        <time>2017-01-22T09:50:24.154Z</time>
      </trkpt>
      <trkpt lat="47.83919" lon="1.98996">
        <ele>91</ele>
        <time>2017-01-22T09:50:25.144Z</time>
      </trkpt>
      <trkpt lat="47.83919" lon="1.98996">
        <ele>91</ele>
        <time>2017-01-22T09:50:26.156Z</time>
      </trkpt>
      <trkpt lat="47.83923" lon="1.9901">
        <ele>91</ele>
        <time>2017-01-22T09:50:27.145Z</time>
      </trkpt>
      <trkpt lat="47.83928" lon="1.99024">
        <ele>91</ele>
        <time>2017-01-22T09:50:28.153Z</time>
      </trkpt>
      <trkpt lat="47.83928" lon="1.99024">
        <ele>91</ele>
        <time>2017-01-22T09:50:29.120Z</time>
      </trkpt>
      <trkpt lat="47.83932" lon="1.99031">
        <ele>91</ele>
        <time>2017-01-22T09:50:30.152Z</time>
      </trkpt>
      <trkpt lat="47.83932" lon="1.99031">
        <ele>91</ele>
        <time>2017-01-22T09:50:31.118Z</time>
      </trkpt>
      <trkpt lat="47.83938" lon="1.99043">
        <ele>91</ele>
        <time>2017-01-22T09:50:32.128Z</time>
      </trkpt>
      <trkpt lat="47.83941" lon="1.9905">
        <ele>91</ele>
        <time>2017-01-22T09:50:33.118Z</time>
      </trkpt>
      <trkpt lat="47.83941" lon="1.9905">
        <ele>91</ele>
        <time>2017-01-22T09:50:34.124Z</time>
      </trkpt>
      <trkpt lat="47.83948" lon="1.99061">
        <ele>91</ele>
        <time>2017-01-22T09:50:35.130Z</time>
      </trkpt>
      <trkpt lat="47.83952" lon="1.99067">
        <ele>91</ele>
        <time>2017-01-22T09:50:36.133Z</time>
      </trkpt>
      <trkpt lat="47.83952" lon="1.99067">
        <ele>91</ele>
        <time>2017-01-22T09:50:37.148Z</time>
      </trkpt>
      <trkpt lat="47.8396" lon="1.99077">
        <ele>90</ele>
        <time>2017-01-22T09:50:38.150Z</time>
      </trkpt>
      <trkpt lat="47.8396" lon="1.99077">
        <ele>90</ele>
        <time>2017-01-22T09:50:39.169Z</time>
      </trkpt>
      <trkpt lat="47.83967" lon="1.99088">
        <ele>90</ele>
        <time>2017-01-22T09:50:40.124Z</time>
      </trkpt>
      <trkpt lat="47.83967" lon="1.99088">
        <ele>90</ele>
        <time>2017-01-22T09:50:41.131Z</time>
      </trkpt>
      <trkpt lat="47.83973" lon="1.991">
        <ele>90</ele>
        <time>2017-01-22T09:50:42.145Z</time>
      </trkpt>
      <trkpt lat="47.83973" lon="1.991">
        <ele>90</ele>
        <time>2017-01-22T09:50:43.154Z</time>
      </trkpt>
      <trkpt lat="47.8398" lon="1.99109">
        <ele>90</ele>
        <time>2017-01-22T09:50:44.147Z</time>
      </trkpt>
      <trkpt lat="47.83988" lon="1.99114">
        <ele>89</ele>
        <time>2017-01-22T09:50:45.153Z</time>
      </trkpt>
      <trkpt lat="47.83988" lon="1.99114">
        <ele>89</ele>
        <time>2017-01-22T09:50:46.120Z</time>
      </trkpt>
      <trkpt lat="47.83988" lon="1.99114">
        <ele>89</ele>
        <time>2017-01-22T09:50:47.126Z</time>
      </trkpt>
      <trkpt lat="47.83994" lon="1.99108">
        <ele>89</ele>
        <time>2017-01-22T09:50:48.131Z</time>
      </trkpt>
      <trkpt lat="47.83994" lon="1.99108">
        <ele>89</ele>
        <time>2017-01-22T09:50:49.136Z</time>
      </trkpt>
      <trkpt lat="47.83998" lon="1.99096">
        <ele>89</ele>
        <time>2017-01-22T09:50:50.153Z</time>
      </trkpt>
      <trkpt lat="47.83999" lon="1.99089">
        <ele>89</ele>
        <time>2017-01-22T09:50:51.158Z</time>
      </trkpt>
      <trkpt lat="47.83999" lon="1.99089">
        <ele>89</ele>
        <time>2017-01-22T09:50:52.124Z</time>
      </trkpt>
      <trkpt lat="47.83998" lon="1.99075">
        <ele>89</ele>
        <time>2017-01-22T09:50:53.130Z</time>
      </trkpt>
      <trkpt lat="47.83997" lon="1.99068">
        <ele>89</ele>
        <time>2017-01-22T09:50:54.152Z</time>
      </trkpt>
      <trkpt lat="47.83997" lon="1.99068">
        <ele>89</ele>
        <time>2017-01-22T09:50:55.118Z</time>
      </trkpt>
      <trkpt lat="47.83995" lon="1.99054">
        <ele>89</ele>
        <time>2017-01-22T09:50:56.124Z</time>
      </trkpt>
      <trkpt lat="47.83995" lon="1.99054">
        <ele>89</ele>
        <time>2017-01-22T09:50:57.129Z</time>
      </trkpt>
      <trkpt lat="47.83993" lon="1.99039">
        <ele>88</ele>
        <time>2017-01-22T09:50:58.132Z</time>
      </trkpt>
      <trkpt lat="47.83993" lon="1.99039">
        <ele>88</ele>
        <time>2017-01-22T09:50:59.147Z</time>
      </trkpt>
      <trkpt lat="47.83993" lon="1.99025">
        <ele>88</ele>
        <time>2017-01-22T09:51:00.154Z</time>
      </trkpt>
      <trkpt lat="47.83993" lon="1.99025">
        <ele>88</ele>
        <time>2017-01-22T09:51:01.156Z</time>
      </trkpt>
      <trkpt lat="47.83995" lon="1.99012">
        <ele>88</ele>
        <time>2017-01-22T09:51:02.157Z</time>
      </trkpt>
      <trkpt lat="47.83995" lon="1.99012">
        <ele>88</ele>
        <time>2017-01-22T09:51:03.122Z</time>
      </trkpt>
      <trkpt lat="47.84005" lon="1.99">
        <ele>88</ele>
        <time>2017-01-22T09:51:04.144Z</time>
      </trkpt>
      <trkpt lat="47.84005" lon="1.99">
        <ele>88</ele>
        <time>2017-01-22T09:51:05.156Z</time>
      </trkpt>
      <trkpt lat="47.84005" lon="1.99">
        <ele>88</ele>
        <time>2017-01-22T09:51:06.122Z</time>
      </trkpt>
      <trkpt lat="47.84015" lon="1.98997">
        <ele>89</ele>
        <time>2017-01-22T09:51:07.130Z</time>
      </trkpt>
      <trkpt lat="47.84015" lon="1.98997">
        <ele>89</ele>
        <time>2017-01-22T09:51:08.169Z</time>
      </trkpt>
      <trkpt lat="47.84024" lon="1.98992">
        <ele>89</ele>
        <time>2017-01-22T09:51:09.154Z</time>
      </trkpt>
      <trkpt lat="47.84024" lon="1.98992">
        <ele>89</ele>
        <time>2017-01-22T09:51:10.119Z</time>
      </trkpt>
      <trkpt lat="47.84031" lon="1.98982">
        <ele>89</ele>
        <time>2017-01-22T09:51:11.126Z</time>
      </trkpt>
      <trkpt lat="47.84033" lon="1.98976">
        <ele>88</ele>
        <time>2017-01-22T09:51:12.157Z</time>
      </trkpt>
      <trkpt lat="47.84033" lon="1.98976">
        <ele>88</ele>
        <time>2017-01-22T09:51:13.129Z</time>
      </trkpt>
      <trkpt lat="47.84035" lon="1.98962">
        <ele>88</ele>
        <time>2017-01-22T09:51:14.136Z</time>
      </trkpt>
      <trkpt lat="47.84035" lon="1.98955">
        <ele>88</ele>
        <time>2017-01-22T09:51:15.152Z</time>
      </trkpt>
      <trkpt lat="47.84035" lon="1.98955">
        <ele>88</ele>
        <time>2017-01-22T09:51:16.156Z</time>
      </trkpt>
      <trkpt lat="47.84029" lon="1.98943">
        <ele>88</ele>
        <time>2017-01-22T09:51:17.134Z</time>
      </trkpt>
      <trkpt lat="47.84029" lon="1.98943">
        <ele>88</ele>
        <time>2017-01-22T09:51:18.150Z</time>
      </trkpt>
      <trkpt lat="47.84021" lon="1.98934">
        <ele>88</ele>
        <time>2017-01-22T09:51:19.127Z</time>
      </trkpt>
      <trkpt lat="47.84021" lon="1.98934">
        <ele>88</ele>
        <time>2017-01-22T09:51:20.132Z</time>
      </trkpt>
      <trkpt lat="47.84012" lon="1.98926">
        <ele>89</ele>
        <time>2017-01-22T09:51:21.135Z</time>
      </trkpt>
      <trkpt lat="47.84012" lon="1.98926">
        <ele>89</ele>
        <time>2017-01-22T09:51:22.150Z</time>
      </trkpt>
      <trkpt lat="47.84003" lon="1.98919">
        <ele>88</ele>
        <time>2017-01-22T09:51:23.119Z</time>
      </trkpt>
      <trkpt lat="47.84003" lon="1.98919">
        <ele>88</ele>
        <time>2017-01-22T09:51:24.118Z</time>
      </trkpt>
      <trkpt lat="47.83994" lon="1.98912">
        <ele>88</ele>
        <time>2017-01-22T09:51:25.145Z</time>
      </trkpt>
      <trkpt lat="47.83984" lon="1.98905">
        <ele>88</ele>
        <time>2017-01-22T09:51:26.153Z</time>
      </trkpt>
      <trkpt lat="47.83984" lon="1.98905">
        <ele>88</ele>
        <time>2017-01-22T09:51:27.141Z</time>
      </trkpt>
      <trkpt lat="47.83984" lon="1.98905">
        <ele>88</ele>
        <time>2017-01-22T09:51:28.165Z</time>
      </trkpt>
      <trkpt lat="47.83974" lon="1.98898">
        <ele>89</ele>
        <time>2017-01-22T09:51:29.144Z</time>
      </trkpt>
      <trkpt lat="47.83969" lon="1.98895">
        <ele>89</ele>
        <time>2017-01-22T09:51:30.151Z</time>
      </trkpt>
      <trkpt lat="47.83959" lon="1.98888">
        <ele>90</ele>
        <time>2017-01-22T09:51:31.163Z</time>
      </trkpt>
      <trkpt lat="47.83959" lon="1.98888">
        <ele>90</ele>
        <time>2017-01-22T09:51:32.119Z</time>
      </trkpt>
      <trkpt lat="47.83959" lon="1.98888">
        <ele>90</ele>
        <time>2017-01-22T09:51:33.125Z</time>
      </trkpt>
      <trkpt lat="47.8395" lon="1.98881">
        <ele>90</ele>
        <time>2017-01-22T09:51:34.124Z</time>
      </trkpt>
      <trkpt lat="47.8395" lon="1.98881">
        <ele>90</ele>
        <time>2017-01-22T09:51:35.130Z</time>
      </trkpt>
      <trkpt lat="47.83941" lon="1.98873">
        <ele>90</ele>
        <time>2017-01-22T09:51:36.147Z</time>
      </trkpt>
      <trkpt lat="47.83941" lon="1.98873">
        <ele>90</ele>
        <time>2017-01-22T09:51:37.157Z</time>
      </trkpt>
      <trkpt lat="47.83933" lon="1.98864">
        <ele>90</ele>
        <time>2017-01-22T09:51:38.125Z</time>
      </trkpt>
      <trkpt lat="47.83933" lon="1.98864">
        <ele>90</ele>
        <time>2017-01-22T09:51:39.131Z</time>
      </trkpt>
      <trkpt lat="47.83926" lon="1.98852">
        <ele>90</ele>
        <time>2017-01-22T09:51:40.155Z</time>
      </trkpt>
      <trkpt lat="47.83926" lon="1.98852">
        <ele>90</ele>
        <time>2017-01-22T09:51:41.159Z</time>
      </trkpt>
      <trkpt lat="47.83919" lon="1.98841">
        <ele>89</ele>
        <time>2017-01-22T09:51:42.151Z</time>
      </trkpt>
      <trkpt lat="47.8391" lon="1.98833">
        <ele>89</ele>
        <time>2017-01-22T09:51:43.156Z</time>
      </trkpt>
      <trkpt lat="47.8391" lon="1.98833">
        <ele>89</ele>
        <time>2017-01-22T09:51:44.136Z</time>
      </trkpt>
      <trkpt lat="47.83905" lon="1.98831">
        <ele>90</ele>
        <time>2017-01-22T09:51:45.145Z</time>
      </trkpt>
      <trkpt lat="47.83896" lon="1.98831">
        <ele>90</ele>
        <time>2017-01-22T09:51:46.153Z</time>
      </trkpt>
      <trkpt lat="47.83896" lon="1.98831">
        <ele>90</ele>
        <time>2017-01-22T09:51:47.143Z</time>
      </trkpt>
      <trkpt lat="47.83892" lon="1.98834">
        <ele>91</ele>
        <time>2017-01-22T09:51:48.132Z</time>
      </trkpt>
      <trkpt lat="47.83892" lon="1.98834">
        <ele>91</ele>
        <time>2017-01-22T09:51:49.148Z</time>
      </trkpt>
      <trkpt lat="47.83884" lon="1.98839">
        <ele>91</ele>
        <time>2017-01-22T09:51:50.156Z</time>
      </trkpt>
      <trkpt lat="47.8388" lon="1.98839">
        <ele>91</ele>
        <time>2017-01-22T09:51:51.132Z</time>
      </trkpt>
      <trkpt lat="47.8388" lon="1.98839">
        <ele>91</ele>
        <time>2017-01-22T09:51:52.150Z</time>
      </trkpt>
      <trkpt lat="47.83871" lon="1.98834">
        <ele>92</ele>
        <time>2017-01-22T09:51:53.118Z</time>
      </trkpt>
      <trkpt lat="47.83871" lon="1.98834">
        <ele>92</ele>
        <time>2017-01-22T09:51:54.123Z</time>
      </trkpt>
      <trkpt lat="47.83863" lon="1.98827">
        <ele>92</ele>
        <time>2017-01-22T09:51:55.152Z</time>
      </trkpt>
      <trkpt lat="47.83863" lon="1.98827">
        <ele>92</ele>
        <time>2017-01-22T09:51:56.118Z</time>
      </trkpt>
      <trkpt lat="47.83854" lon="1.98821">
        <ele>92</ele>
        <time>2017-01-22T09:51:57.125Z</time>
      </trkpt>
      <trkpt lat="47.83854" lon="1.98821">
        <ele>92</ele>
        <time>2017-01-22T09:51:58.131Z</time>
      </trkpt>
      <trkpt lat="47.83845" lon="1.98817">
        <ele>92</ele>
        <time>2017-01-22T09:51:59.135Z</time>
      </trkpt>
      <trkpt lat="47.83837" lon="1.98812">
        <ele>92</ele>
        <time>2017-01-22T09:52:00.152Z</time>
      </trkpt>
      <trkpt lat="47.83837" lon="1.98812">
        <ele>92</ele>
        <time>2017-01-22T09:52:01.135Z</time>
      </trkpt>
      <trkpt lat="47.83837" lon="1.98812">
        <ele>92</ele>
        <time>2017-01-22T09:52:02.156Z</time>
      </trkpt>
      <trkpt lat="47.83829" lon="1.98807">
        <ele>93</ele>
        <time>2017-01-22T09:52:03.149Z</time>
      </trkpt>
      <trkpt lat="47.83829" lon="1.98807">
        <ele>93</ele>
        <time>2017-01-22T09:52:04.130Z</time>
      </trkpt>
      <trkpt lat="47.8382" lon="1.98801">
        <ele>92</ele>
        <time>2017-01-22T09:52:05.136Z</time>
      </trkpt>
      <trkpt lat="47.8382" lon="1.98801">
        <ele>92</ele>
        <time>2017-01-22T09:52:06.148Z</time>
      </trkpt>
      <trkpt lat="47.83811" lon="1.98795">
        <ele>92</ele>
        <time>2017-01-22T09:52:07.134Z</time>
      </trkpt>
      <trkpt lat="47.83811" lon="1.98795">
        <ele>92</ele>
        <time>2017-01-22T09:52:08.155Z</time>
      </trkpt>
      <trkpt lat="47.83803" lon="1.98789">
        <ele>92</ele>
        <time>2017-01-22T09:52:09.154Z</time>
      </trkpt>
      <trkpt lat="47.83803" lon="1.98789">
        <ele>92</ele>
        <time>2017-01-22T09:52:10.120Z</time>
      </trkpt>
      <trkpt lat="47.83795" lon="1.98783">
        <ele>92</ele>
        <time>2017-01-22T09:52:11.126Z</time>
      </trkpt>
      <trkpt lat="47.83791" lon="1.98781">
        <ele>92</ele>
        <time>2017-01-22T09:52:12.123Z</time>
      </trkpt>
      <trkpt lat="47.83791" lon="1.98781">
        <ele>92</ele>
        <time>2017-01-22T09:52:13.130Z</time>
      </trkpt>
      <trkpt lat="47.83784" lon="1.98775">
        <ele>93</ele>
        <time>2017-01-22T09:52:14.145Z</time>
      </trkpt>
      <trkpt lat="47.83784" lon="1.98775">
        <ele>93</ele>
        <time>2017-01-22T09:52:15.156Z</time>
      </trkpt>
      <trkpt lat="47.83781" lon="1.98765">
        <ele>94</ele>
        <time>2017-01-22T09:52:16.144Z</time>
      </trkpt>
      <trkpt lat="47.83783" lon="1.98753">
        <ele>94</ele>
        <time>2017-01-22T09:52:17.154Z</time>
      </trkpt>
      <trkpt lat="47.83783" lon="1.98753">
        <ele>94</ele>
        <time>2017-01-22T09:52:18.143Z</time>
      </trkpt>
      <trkpt lat="47.83783" lon="1.98753">
        <ele>94</ele>
        <time>2017-01-22T09:52:19.155Z</time>
      </trkpt>
      <trkpt lat="47.83787" lon="1.9874">
        <ele>94</ele>
        <time>2017-01-22T09:52:20.155Z</time>
      </trkpt>
      <trkpt lat="47.83787" lon="1.9874">
        <ele>94</ele>
        <time>2017-01-22T09:52:21.121Z</time>
      </trkpt>
      <trkpt lat="47.83791" lon="1.98726">
        <ele>94</ele>
        <time>2017-01-22T09:52:22.128Z</time>
      </trkpt>
      <trkpt lat="47.83791" lon="1.98726">
        <ele>94</ele>
        <time>2017-01-22T09:52:23.159Z</time>
      </trkpt>
      <trkpt lat="47.83795" lon="1.98712">
        <ele>93</ele>
        <time>2017-01-22T09:52:24.135Z</time>
      </trkpt>
      <trkpt lat="47.83799" lon="1.98697">
        <ele>93</ele>
        <time>2017-01-22T09:52:25.155Z</time>
      </trkpt>
      <trkpt lat="47.83799" lon="1.98697">
        <ele>93</ele>
        <time>2017-01-22T09:52:26.143Z</time>
      </trkpt>
      <trkpt lat="47.83801" lon="1.98689">
        <ele>94</ele>
        <time>2017-01-22T09:52:27.155Z</time>
      </trkpt>
      <trkpt lat="47.83801" lon="1.98689">
        <ele>94</ele>
        <time>2017-01-22T09:52:28.121Z</time>
      </trkpt>
      <trkpt lat="47.83805" lon="1.98674">
        <ele>93</ele>
        <time>2017-01-22T09:52:29.158Z</time>
      </trkpt>
      <trkpt lat="47.83807" lon="1.98666">
        <ele>93</ele>
        <time>2017-01-22T09:52:30.152Z</time>
      </trkpt>
      <trkpt lat="47.83807" lon="1.98666">
        <ele>93</ele>
        <time>2017-01-22T09:52:31.156Z</time>
      </trkpt>
      <trkpt lat="47.83814" lon="1.98643">
        <ele>93</ele>
        <time>2017-01-22T09:52:32.155Z</time>
      </trkpt>
      <trkpt lat="47.83814" lon="1.98643">
        <ele>93</ele>
        <time>2017-01-22T09:52:33.143Z</time>
      </trkpt>
      <trkpt lat="47.83818" lon="1.98627">
        <ele>93</ele>
        <time>2017-01-22T09:52:34.154Z</time>
      </trkpt>
      <trkpt lat="47.83818" lon="1.98627">
        <ele>93</ele>
        <time>2017-01-22T09:52:35.145Z</time>
      </trkpt>
      <trkpt lat="47.83818" lon="1.98627">
        <ele>93</ele>
        <time>2017-01-22T09:52:36.153Z</time>
      </trkpt>
      <trkpt lat="47.83823" lon="1.98612">
        <ele>93</ele>
        <time>2017-01-22T09:52:37.119Z</time>
      </trkpt>
      <trkpt lat="47.83823" lon="1.98612">
        <ele>93</ele>
        <time>2017-01-22T09:52:38.127Z</time>
      </trkpt>
      <trkpt lat="47.83827" lon="1.98596">
        <ele>93</ele>
        <time>2017-01-22T09:52:39.157Z</time>
      </trkpt>
      <trkpt lat="47.83827" lon="1.98596">
        <ele>93</ele>
        <time>2017-01-22T09:52:40.123Z</time>
      </trkpt>
      <trkpt lat="47.83832" lon="1.9858">
        <ele>93</ele>
        <time>2017-01-22T09:52:41.130Z</time>
      </trkpt>
      <trkpt lat="47.83834" lon="1.98572">
        <ele>93</ele>
        <time>2017-01-22T09:52:42.124Z</time>
      </trkpt>
      <trkpt lat="47.83834" lon="1.98572">
        <ele>93</ele>
        <time>2017-01-22T09:52:43.130Z</time>
      </trkpt>
      <trkpt lat="47.83839" lon="1.98555">
        <ele>93</ele>
        <time>2017-01-22T09:52:44.139Z</time>
      </trkpt>
      <trkpt lat="47.83839" lon="1.98555">
        <ele>93</ele>
        <time>2017-01-22T09:52:45.158Z</time>
      </trkpt>
      <trkpt lat="47.83843" lon="1.98539">
        <ele>93</ele>
        <time>2017-01-22T09:52:46.128Z</time>
      </trkpt>
      <trkpt lat="47.83843" lon="1.98539">
        <ele>93</ele>
        <time>2017-01-22T09:52:47.135Z</time>
      </trkpt>
      <trkpt lat="47.83848" lon="1.98523">
        <ele>93</ele>
        <time>2017-01-22T09:52:48.150Z</time>
      </trkpt>
      <trkpt lat="47.83848" lon="1.98523">
        <ele>93</ele>
        <time>2017-01-22T09:52:49.156Z</time>
      </trkpt>
      <trkpt lat="47.83852" lon="1.98507">
        <ele>93</ele>
        <time>2017-01-22T09:52:50.134Z</time>
      </trkpt>
      <trkpt lat="47.83857" lon="1.9849">
        <ele>93</ele>
        <time>2017-01-22T09:52:51.153Z</time>
      </trkpt>
      <trkpt lat="47.83857" lon="1.9849">
        <ele>93</ele>
        <time>2017-01-22T09:52:52.146Z</time>
      </trkpt>
      <trkpt lat="47.83857" lon="1.9849">
        <ele>93</ele>
        <time>2017-01-22T09:52:53.157Z</time>
      </trkpt>
      <trkpt lat="47.83862" lon="1.98474">
        <ele>93</ele>
        <time>2017-01-22T09:52:54.133Z</time>
      </trkpt>
      <trkpt lat="47.83866" lon="1.98459">
        <ele>92</ele>
        <time>2017-01-22T09:52:55.154Z</time>
      </trkpt>
      <trkpt lat="47.83866" lon="1.98459">
        <ele>92</ele>
        <time>2017-01-22T09:52:56.146Z</time>
      </trkpt>
      <trkpt lat="47.83868" lon="1.98451">
        <ele>92</ele>
        <time>2017-01-22T09:52:57.119Z</time>
      </trkpt>
      <trkpt lat="47.83868" lon="1.98451">
        <ele>92</ele>
        <time>2017-01-22T09:52:58.125Z</time>
      </trkpt>
      <trkpt lat="47.83873" lon="1.98435">
        <ele>93</ele>
        <time>2017-01-22T09:52:59.131Z</time>
      </trkpt>
      <trkpt lat="47.83873" lon="1.98435">
        <ele>93</ele>
        <time>2017-01-22T09:53:00.125Z</time>
      </trkpt>
      <trkpt lat="47.83877" lon="1.98419">
        <ele>93</ele>
        <time>2017-01-22T09:53:01.125Z</time>
      </trkpt>
      <trkpt lat="47.83877" lon="1.98419">
        <ele>93</ele>
        <time>2017-01-22T09:53:02.131Z</time>
      </trkpt>
      <trkpt lat="47.83882" lon="1.98403">
        <ele>92</ele>
        <time>2017-01-22T09:53:03.150Z</time>
      </trkpt>
      <trkpt lat="47.83882" lon="1.98403">
        <ele>92</ele>
        <time>2017-01-22T09:53:04.124Z</time>
      </trkpt>
      <trkpt lat="47.83886" lon="1.98387">
        <ele>92</ele>
        <time>2017-01-22T09:53:05.134Z</time>
      </trkpt>
      <trkpt lat="47.83886" lon="1.98387">
        <ele>92</ele>
        <time>2017-01-22T09:53:06.150Z</time>
      </trkpt>
      <trkpt lat="47.83891" lon="1.98371">
        <ele>92</ele>
        <time>2017-01-22T09:53:07.146Z</time>
      </trkpt>
      <trkpt lat="47.83891" lon="1.98371">
        <ele>92</ele>
        <time>2017-01-22T09:53:08.157Z</time>
      </trkpt>
      <trkpt lat="47.83895" lon="1.98356">
        <ele>92</ele>
        <time>2017-01-22T09:53:09.143Z</time>
      </trkpt>
      <trkpt lat="47.839" lon="1.9834">
        <ele>93</ele>
        <time>2017-01-22T09:53:10.151Z</time>
      </trkpt>
      <trkpt lat="47.839" lon="1.9834">
        <ele>93</ele>
        <time>2017-01-22T09:53:11.142Z</time>
      </trkpt>
      <trkpt lat="47.83902" lon="1.98333">
        <ele>93</ele>
        <time>2017-01-22T09:53:12.125Z</time>
      </trkpt>
      <trkpt lat="47.83902" lon="1.98333">
        <ele>93</ele>
        <time>2017-01-22T09:53:13.131Z</time>
      </trkpt>
      <trkpt lat="47.83906" lon="1.98318">
        <ele>94</ele>
        <time>2017-01-22T09:53:14.155Z</time>
      </trkpt>
      <trkpt lat="47.83906" lon="1.98318">
        <ele>94</ele>
        <time>2017-01-22T09:53:15.120Z</time>
      </trkpt>
      <trkpt lat="47.83911" lon="1.98302">
        <ele>94</ele>
        <time>2017-01-22T09:53:16.132Z</time>
      </trkpt>
      <trkpt lat="47.83911" lon="1.98302">
        <ele>94</ele>
        <time>2017-01-22T09:53:17.138Z</time>
      </trkpt>
      <trkpt lat="47.83915" lon="1.98286">
        <ele>94</ele>
        <time>2017-01-22T09:53:18.157Z</time>
      </trkpt>
      <trkpt lat="47.83915" lon="1.98286">
        <ele>94</ele>
        <time>2017-01-22T09:53:19.137Z</time>
      </trkpt>
      <trkpt lat="47.8392" lon="1.98271">
        <ele>94</ele>
        <time>2017-01-22T09:53:20.134Z</time>
      </trkpt>
      <trkpt lat="47.8392" lon="1.98271">
        <ele>94</ele>
        <time>2017-01-22T09:53:21.154Z</time>
      </trkpt>
      <trkpt lat="47.83925" lon="1.98255">
        <ele>94</ele>
        <time>2017-01-22T09:53:22.120Z</time>
      </trkpt>
      <trkpt lat="47.83925" lon="1.98255">
        <ele>94</ele>
        <time>2017-01-22T09:53:23.127Z</time>
      </trkpt>
      <trkpt lat="47.8393" lon="1.9824">
        <ele>93</ele>
        <time>2017-01-22T09:53:24.147Z</time>
      </trkpt>
      <trkpt lat="47.83934" lon="1.98224">
        <ele>93</ele>
        <time>2017-01-22T09:53:25.153Z</time>
      </trkpt>
      <trkpt lat="47.83934" lon="1.98224">
        <ele>93</ele>
        <time>2017-01-22T09:53:26.122Z</time>
      </trkpt>
      <trkpt lat="47.83936" lon="1.98216">
        <ele>93</ele>
        <time>2017-01-22T09:53:27.142Z</time>
      </trkpt>
      <trkpt lat="47.83936" lon="1.98216">
        <ele>93</ele>
        <time>2017-01-22T09:53:28.149Z</time>
      </trkpt>
      <trkpt lat="47.83941" lon="1.98202">
        <ele>93</ele>
        <time>2017-01-22T09:53:29.145Z</time>
      </trkpt>
      <trkpt lat="47.83945" lon="1.98188">
        <ele>93</ele>
        <time>2017-01-22T09:53:30.155Z</time>
      </trkpt>
      <trkpt lat="47.83945" lon="1.98188">
        <ele>93</ele>
        <time>2017-01-22T09:53:31.120Z</time>
      </trkpt>
      <trkpt lat="47.83945" lon="1.98188">
        <ele>93</ele>
        <time>2017-01-22T09:53:32.127Z</time>
      </trkpt>
      <trkpt lat="47.8395" lon="1.98173">
        <ele>93</ele>
        <time>2017-01-22T09:53:33.151Z</time>
      </trkpt>
      <trkpt lat="47.83954" lon="1.98157">
        <ele>93</ele>
        <time>2017-01-22T09:53:34.157Z</time>
      </trkpt>
      <trkpt lat="47.83954" lon="1.98157">
        <ele>93</ele>
        <time>2017-01-22T09:53:35.145Z</time>
      </trkpt>
      <trkpt lat="47.83956" lon="1.9815">
        <ele>93</ele>
        <time>2017-01-22T09:53:36.126Z</time>
      </trkpt>
      <trkpt lat="47.83956" lon="1.9815">
        <ele>93</ele>
        <time>2017-01-22T09:53:37.132Z</time>
      </trkpt>
      <trkpt lat="47.8396" lon="1.98135">
        <ele>93</ele>
        <time>2017-01-22T09:53:38.125Z</time>
      </trkpt>
      <trkpt lat="47.83963" lon="1.98128">
        <ele>93</ele>
        <time>2017-01-22T09:53:39.132Z</time>
      </trkpt>
      <trkpt lat="47.83963" lon="1.98128">
        <ele>93</ele>
        <time>2017-01-22T09:53:40.147Z</time>
      </trkpt>
      <trkpt lat="47.83967" lon="1.98114">
        <ele>92</ele>
        <time>2017-01-22T09:53:41.158Z</time>
      </trkpt>
      <trkpt lat="47.83969" lon="1.98106">
        <ele>92</ele>
        <time>2017-01-22T09:53:42.122Z</time>
      </trkpt>
      <trkpt lat="47.83969" lon="1.98106">
        <ele>92</ele>
        <time>2017-01-22T09:53:43.128Z</time>
      </trkpt>
      <trkpt lat="47.83973" lon="1.98093">
        <ele>92</ele>
        <time>2017-01-22T09:53:44.134Z</time>
      </trkpt>
      <trkpt lat="47.83975" lon="1.98087">
        <ele>92</ele>
        <time>2017-01-22T09:53:45.119Z</time>
      </trkpt>
      <trkpt lat="47.83975" lon="1.98087">
        <ele>92</ele>
        <time>2017-01-22T09:53:46.125Z</time>
      </trkpt>
      <trkpt lat="47.83977" lon="1.98074">
        <ele>92</ele>
        <time>2017-01-22T09:53:47.131Z</time>
      </trkpt>
      <trkpt lat="47.83977" lon="1.98074">
        <ele>92</ele>
        <time>2017-01-22T09:53:48.169Z</time>
      </trkpt>
      <trkpt lat="47.83973" lon="1.98062">
        <ele>93</ele>
        <time>2017-01-22T09:53:49.158Z</time>
      </trkpt>
      <trkpt lat="47.8397" lon="1.98057">
        <ele>93</ele>
        <time>2017-01-22T09:53:50.130Z</time>
      </trkpt>
      <trkpt lat="47.8397" lon="1.98057">
        <ele>93</ele>
        <time>2017-01-22T09:53:51.138Z</time>
      </trkpt>
      <trkpt lat="47.83959" lon="1.98043">
        <ele>94</ele>
        <time>2017-01-22T09:53:52.157Z</time>
      </trkpt>
      <trkpt lat="47.83959" lon="1.98043">
        <ele>94</ele>
        <time>2017-01-22T09:53:53.123Z</time>
      </trkpt>
      <trkpt lat="47.83959" lon="1.98043">
        <ele>94</ele>
        <time>2017-01-22T09:53:54.129Z</time>
      </trkpt>
      <trkpt lat="47.83951" lon="1.98033">
        <ele>93</ele>
        <time>2017-01-22T09:53:55.144Z</time>
      </trkpt>
      <trkpt lat="47.83951" lon="1.98033">
        <ele>93</ele>
        <time>2017-01-22T09:53:56.150Z</time>
      </trkpt>
      <trkpt lat="47.83944" lon="1.98024">
        <ele>93</ele>
        <time>2017-01-22T09:53:57.134Z</time>
      </trkpt>
      <trkpt lat="47.83944" lon="1.98024">
        <ele>93</ele>
        <time>2017-01-22T09:53:58.156Z</time>
      </trkpt>
      <trkpt lat="47.83936" lon="1.98014">
        <ele>93</ele>
        <time>2017-01-22T09:53:59.147Z</time>
      </trkpt>
      <trkpt lat="47.83932" lon="1.98009">
        <ele>93</ele>
        <time>2017-01-22T09:54:00.119Z</time>
      </trkpt>
      <trkpt lat="47.83932" lon="1.98009">
        <ele>93</ele>
        <time>2017-01-22T09:54:01.125Z</time>
      </trkpt>
      <trkpt lat="47.83923" lon="1.97999">
        <ele>93</ele>
        <time>2017-01-22T09:54:02.147Z</time>
      </trkpt>
      <trkpt lat="47.83914" lon="1.97988">
        <ele>93</ele>
        <time>2017-01-22T09:54:03.153Z</time>
      </trkpt>
      <trkpt lat="47.83914" lon="1.97988">
        <ele>93</ele>
        <time>2017-01-22T09:54:04.124Z</time>
      </trkpt>
      <trkpt lat="47.83914" lon="1.97988">
        <ele>93</ele>
        <time>2017-01-22T09:54:05.131Z</time>
      </trkpt>
      <trkpt lat="47.83906" lon="1.97976">
        <ele>93</ele>
        <time>2017-01-22T09:54:06.122Z</time>
      </trkpt>
      <trkpt lat="47.83906" lon="1.97976">
        <ele>93</ele>
        <time>2017-01-22T09:54:07.129Z</time>
      </trkpt>
      <trkpt lat="47.83892" lon="1.97959">
        <ele>92</ele>
        <time>2017-01-22T09:54:08.155Z</time>
      </trkpt>
      <trkpt lat="47.83892" lon="1.97959">
        <ele>92</ele>
        <time>2017-01-22T09:54:09.121Z</time>
      </trkpt>
      <trkpt lat="47.83892" lon="1.97959">
        <ele>92</ele>
        <time>2017-01-22T09:54:10.128Z</time>
      </trkpt>
      <trkpt lat="47.83878" lon="1.97942">
        <ele>92</ele>
        <time>2017-01-22T09:54:11.155Z</time>
      </trkpt>
      <trkpt lat="47.83878" lon="1.97942">
        <ele>92</ele>
        <time>2017-01-22T09:54:12.120Z</time>
      </trkpt>
      <trkpt lat="47.83878" lon="1.97942">
        <ele>92</ele>
        <time>2017-01-22T09:54:13.125Z</time>
      </trkpt>
      <trkpt lat="47.83869" lon="1.97929">
        <ele>92</ele>
        <time>2017-01-22T09:54:14.124Z</time>
      </trkpt>
      <trkpt lat="47.83869" lon="1.97929">
        <ele>92</ele>
        <time>2017-01-22T09:54:15.130Z</time>
      </trkpt>
      <trkpt lat="47.8386" lon="1.97918">
        <ele>92</ele>
        <time>2017-01-22T09:54:16.146Z</time>
      </trkpt>
      <trkpt lat="47.8386" lon="1.97918">
        <ele>92</ele>
        <time>2017-01-22T09:54:17.158Z</time>
      </trkpt>
      <trkpt lat="47.8385" lon="1.97907">
        <ele>92</ele>
        <time>2017-01-22T09:54:18.122Z</time>
      </trkpt>
      <trkpt lat="47.8385" lon="1.97907">
        <ele>92</ele>
        <time>2017-01-22T09:54:19.128Z</time>
      </trkpt>
      <trkpt lat="47.83841" lon="1.97894">
        <ele>92</ele>
        <time>2017-01-22T09:54:20.136Z</time>
      </trkpt>
      <trkpt lat="47.83841" lon="1.97894">
        <ele>92</ele>
        <time>2017-01-22T09:54:21.157Z</time>
      </trkpt>
      <trkpt lat="47.83831" lon="1.97882">
        <ele>92</ele>
        <time>2017-01-22T09:54:22.125Z</time>
      </trkpt>
      <trkpt lat="47.83831" lon="1.97882">
        <ele>92</ele>
        <time>2017-01-22T09:54:23.132Z</time>
      </trkpt>
      <trkpt lat="47.83821" lon="1.9787">
        <ele>92</ele>
        <time>2017-01-22T09:54:24.147Z</time>
      </trkpt>
      <trkpt lat="47.83811" lon="1.97857">
        <ele>93</ele>
        <time>2017-01-22T09:54:25.152Z</time>
      </trkpt>
      <trkpt lat="47.83811" lon="1.97857">
        <ele>93</ele>
        <time>2017-01-22T09:54:26.145Z</time>
      </trkpt>
      <trkpt lat="47.83801" lon="1.97845">
        <ele>93</ele>
        <time>2017-01-22T09:54:27.152Z</time>
      </trkpt>
      <trkpt lat="47.83801" lon="1.97845">
        <ele>93</ele>
        <time>2017-01-22T09:54:28.120Z</time>
      </trkpt>
      <trkpt lat="47.83796" lon="1.97839">
        <ele>93</ele>
        <time>2017-01-22T09:54:29.126Z</time>
      </trkpt>
      <trkpt lat="47.83791" lon="1.97833">
        <ele>93</ele>
        <time>2017-01-22T09:54:30.155Z</time>
      </trkpt>
      <trkpt lat="47.83791" lon="1.97833">
        <ele>93</ele>
        <time>2017-01-22T09:54:31.120Z</time>
      </trkpt>
      <trkpt lat="47.83781" lon="1.9782">
        <ele>93</ele>
        <time>2017-01-22T09:54:32.127Z</time>
      </trkpt>
      <trkpt lat="47.83776" lon="1.97814">
        <ele>93</ele>
        <time>2017-01-22T09:54:33.154Z</time>
      </trkpt>
      <trkpt lat="47.83771" lon="1.97808">
        <ele>93</ele>
        <time>2017-01-22T09:54:34.120Z</time>
      </trkpt>
      <trkpt lat="47.83771" lon="1.97808">
        <ele>93</ele>
        <time>2017-01-22T09:54:35.126Z</time>
      </trkpt>
      <trkpt lat="47.83761" lon="1.97795">
        <ele>93</ele>
        <time>2017-01-22T09:54:36.157Z</time>
      </trkpt>
      <trkpt lat="47.83756" lon="1.97788">
        <ele>93</ele>
        <time>2017-01-22T09:54:37.152Z</time>
      </trkpt>
      <trkpt lat="47.83756" lon="1.97788">
        <ele>93</ele>
        <time>2017-01-22T09:54:38.156Z</time>
      </trkpt>
      <trkpt lat="47.83746" lon="1.97775">
        <ele>93</ele>
        <time>2017-01-22T09:54:39.132Z</time>
      </trkpt>
      <trkpt lat="47.83736" lon="1.97762">
        <ele>93</ele>
        <time>2017-01-22T09:54:40.152Z</time>
      </trkpt>
      <trkpt lat="47.83736" lon="1.97762">
        <ele>93</ele>
        <time>2017-01-22T09:54:41.135Z</time>
      </trkpt>
      <trkpt lat="47.83736" lon="1.97762">
        <ele>93</ele>
        <time>2017-01-22T09:54:42.132Z</time>
      </trkpt>
      <trkpt lat="47.83726" lon="1.97749">
        <ele>92</ele>
        <time>2017-01-22T09:54:43.156Z</time>
      </trkpt>
      <trkpt lat="47.83726" lon="1.97749">
        <ele>92</ele>
        <time>2017-01-22T09:54:44.121Z</time>
      </trkpt>
      <trkpt lat="47.83716" lon="1.97737">
        <ele>92</ele>
        <time>2017-01-22T09:54:45.157Z</time>
      </trkpt>
      <trkpt lat="47.83711" lon="1.9773">
        <ele>92</ele>
        <time>2017-01-22T09:54:46.155Z</time>
      </trkpt>
      <trkpt lat="47.83711" lon="1.9773">
        <ele>92</ele>
        <time>2017-01-22T09:54:47.157Z</time>
      </trkpt>
      <trkpt lat="47.83702" lon="1.97717">
        <ele>92</ele>
        <time>2017-01-22T09:54:48.147Z</time>
      </trkpt>
      <trkpt lat="47.83692" lon="1.97705">
        <ele>92</ele>
        <time>2017-01-22T09:54:49.154Z</time>
      </trkpt>
      <trkpt lat="47.83692" lon="1.97705">
        <ele>92</ele>
        <time>2017-01-22T09:54:50.125Z</time>
      </trkpt>
      <trkpt lat="47.83688" lon="1.97699">
        <ele>92</ele>
        <time>2017-01-22T09:54:51.132Z</time>
      </trkpt>
      <trkpt lat="47.83688" lon="1.97699">
        <ele>92</ele>
        <time>2017-01-22T09:54:52.146Z</time>
      </trkpt>
      <trkpt lat="47.83673" lon="1.9768">
        <ele>92</ele>
        <time>2017-01-22T09:54:53.154Z</time>
      </trkpt>
      <trkpt lat="47.83673" lon="1.9768">
        <ele>92</ele>
        <time>2017-01-22T09:54:54.119Z</time>
      </trkpt>
      <trkpt lat="47.83673" lon="1.9768">
        <ele>92</ele>
        <time>2017-01-22T09:54:55.125Z</time>
      </trkpt>
      <trkpt lat="47.83663" lon="1.97668">
        <ele>92</ele>
        <time>2017-01-22T09:54:56.126Z</time>
      </trkpt>
      <trkpt lat="47.83663" lon="1.97668">
        <ele>92</ele>
        <time>2017-01-22T09:54:57.132Z</time>
      </trkpt>
      <trkpt lat="47.83654" lon="1.97656">
        <ele>92</ele>
        <time>2017-01-22T09:54:58.172Z</time>
      </trkpt>
      <trkpt lat="47.83649" lon="1.9765">
        <ele>92</ele>
        <time>2017-01-22T09:54:59.119Z</time>
      </trkpt>
      <trkpt lat="47.83649" lon="1.9765">
        <ele>92</ele>
        <time>2017-01-22T09:55:00.127Z</time>
      </trkpt>
      <trkpt lat="47.8364" lon="1.97638">
        <ele>92</ele>
        <time>2017-01-22T09:55:01.146Z</time>
      </trkpt>
      <trkpt lat="47.8364" lon="1.97638">
        <ele>92</ele>
        <time>2017-01-22T09:55:02.153Z</time>
      </trkpt>
      <trkpt lat="47.83631" lon="1.97626">
        <ele>92</ele>
        <time>2017-01-22T09:55:03.132Z</time>
      </trkpt>
      <trkpt lat="47.83631" lon="1.97626">
        <ele>92</ele>
        <time>2017-01-22T09:55:04.124Z</time>
      </trkpt>
      <trkpt lat="47.83621" lon="1.97614">
        <ele>92</ele>
        <time>2017-01-22T09:55:05.132Z</time>
      </trkpt>
      <trkpt lat="47.83617" lon="1.97608">
        <ele>92</ele>
        <time>2017-01-22T09:55:06.154Z</time>
      </trkpt>
      <trkpt lat="47.83617" lon="1.97608">
        <ele>92</ele>
        <time>2017-01-22T09:55:07.120Z</time>
      </trkpt>
      <trkpt lat="47.83607" lon="1.97596">
        <ele>92</ele>
        <time>2017-01-22T09:55:08.127Z</time>
      </trkpt>
      <trkpt lat="47.83603" lon="1.9759">
        <ele>92</ele>
        <time>2017-01-22T09:55:09.152Z</time>
      </trkpt>
      <trkpt lat="47.83603" lon="1.9759">
        <ele>92</ele>
        <time>2017-01-22T09:55:10.118Z</time>
      </trkpt>
      <trkpt lat="47.83593" lon="1.97578">
        <ele>92</ele>
        <time>2017-01-22T09:55:11.125Z</time>
      </trkpt>
      <trkpt lat="47.83588" lon="1.97572">
        <ele>92</ele>
        <time>2017-01-22T09:55:12.154Z</time>
      </trkpt>
      <trkpt lat="47.83588" lon="1.97572">
        <ele>92</ele>
        <time>2017-01-22T09:55:13.120Z</time>
      </trkpt>
      <trkpt lat="47.83577" lon="1.9756">
        <ele>92</ele>
        <time>2017-01-22T09:55:14.128Z</time>
      </trkpt>
      <trkpt lat="47.83572" lon="1.97555">
        <ele>91</ele>
        <time>2017-01-22T09:55:15.135Z</time>
      </trkpt>
      <trkpt lat="47.83561" lon="1.97545">
        <ele>92</ele>
        <time>2017-01-22T09:55:16.157Z</time>
      </trkpt>
      <trkpt lat="47.83561" lon="1.97545">
        <ele>92</ele>
        <time>2017-01-22T09:55:17.143Z</time>
      </trkpt>
      <trkpt lat="47.83555" lon="1.97539">
        <ele>92</ele>
        <time>2017-01-22T09:55:18.125Z</time>
      </trkpt>
      <trkpt lat="47.83555" lon="1.97539">
        <ele>92</ele>
        <time>2017-01-22T09:55:19.131Z</time>
      </trkpt>
      <trkpt lat="47.83544" lon="1.97529">
        <ele>92</ele>
        <time>2017-01-22T09:55:20.120Z</time>
      </trkpt>
      <trkpt lat="47.83538" lon="1.97524">
        <ele>92</ele>
        <time>2017-01-22T09:55:21.122Z</time>
      </trkpt>
      <trkpt lat="47.83538" lon="1.97524">
        <ele>92</ele>
        <time>2017-01-22T09:55:22.128Z</time>
      </trkpt>
      <trkpt lat="47.83528" lon="1.97513">
        <ele>92</ele>
        <time>2017-01-22T09:55:23.145Z</time>
      </trkpt>
      <trkpt lat="47.83528" lon="1.97513">
        <ele>92</ele>
        <time>2017-01-22T09:55:24.157Z</time>
      </trkpt>
      <trkpt lat="47.83518" lon="1.97503">
        <ele>92</ele>
        <time>2017-01-22T09:55:25.151Z</time>
      </trkpt>
      <trkpt lat="47.83507" lon="1.97494">
        <ele>92</ele>
        <time>2017-01-22T09:55:26.157Z</time>
      </trkpt>
      <trkpt lat="47.83507" lon="1.97494">
        <ele>92</ele>
        <time>2017-01-22T09:55:27.142Z</time>
      </trkpt>
      <trkpt lat="47.83507" lon="1.97494">
        <ele>92</ele>
        <time>2017-01-22T09:55:28.203Z</time>
      </trkpt>
      <trkpt lat="47.83497" lon="1.97485">
        <ele>92</ele>
        <time>2017-01-22T09:55:29.156Z</time>
      </trkpt>
      <trkpt lat="47.83497" lon="1.97485">
        <ele>92</ele>
        <time>2017-01-22T09:55:30.122Z</time>
      </trkpt>
      <trkpt lat="47.83485" lon="1.97476">
        <ele>93</ele>
        <time>2017-01-22T09:55:31.128Z</time>
      </trkpt>
      <trkpt lat="47.83485" lon="1.97476">
        <ele>93</ele>
        <time>2017-01-22T09:55:32.157Z</time>
      </trkpt>
      <trkpt lat="47.83474" lon="1.97468">
        <ele>93</ele>
        <time>2017-01-22T09:55:33.143Z</time>
      </trkpt>
      <trkpt lat="47.83462" lon="1.97461">
        <ele>92</ele>
        <time>2017-01-22T09:55:34.155Z</time>
      </trkpt>
      <trkpt lat="47.83462" lon="1.97461">
        <ele>92</ele>
        <time>2017-01-22T09:55:35.124Z</time>
      </trkpt>
      <trkpt lat="47.83457" lon="1.97459">
        <ele>93</ele>
        <time>2017-01-22T09:55:36.135Z</time>
      </trkpt>
      <trkpt lat="47.83446" lon="1.97453">
        <ele>93</ele>
        <time>2017-01-22T09:55:37.154Z</time>
      </trkpt>
      <trkpt lat="47.83446" lon="1.97453">
        <ele>93</ele>
        <time>2017-01-22T09:55:38.134Z</time>
      </trkpt>
      <trkpt lat="47.83446" lon="1.97453">
        <ele>93</ele>
        <time>2017-01-22T09:55:39.174Z</time>
      </trkpt>
      <trkpt lat="47.83436" lon="1.97449">
        <ele>93</ele>
        <time>2017-01-22T09:55:40.135Z</time>
      </trkpt>
      <trkpt lat="47.83436" lon="1.97449">
        <ele>93</ele>
        <time>2017-01-22T09:55:41.149Z</time>
      </trkpt>
      <trkpt lat="47.83427" lon="1.97445">
        <ele>94</ele>
        <time>2017-01-22T09:55:42.124Z</time>
      </trkpt>
      <trkpt lat="47.83427" lon="1.97445">
        <ele>94</ele>
        <time>2017-01-22T09:55:43.130Z</time>
      </trkpt>
      <trkpt lat="47.83418" lon="1.97442">
        <ele>94</ele>
        <time>2017-01-22T09:55:44.119Z</time>
      </trkpt>
      <trkpt lat="47.83418" lon="1.97442">
        <ele>94</ele>
        <time>2017-01-22T09:55:45.126Z</time>
      </trkpt>
      <trkpt lat="47.83408" lon="1.97441">
        <ele>94</ele>
        <time>2017-01-22T09:55:46.132Z</time>
      </trkpt>
      <trkpt lat="47.83408" lon="1.97441">
        <ele>94</ele>
        <time>2017-01-22T09:55:47.158Z</time>
      </trkpt>
      <trkpt lat="47.83399" lon="1.9744">
        <ele>94</ele>
        <time>2017-01-22T09:55:48.135Z</time>
      </trkpt>
      <trkpt lat="47.83389" lon="1.9744">
        <ele>94</ele>
        <time>2017-01-22T09:55:49.154Z</time>
      </trkpt>
      <trkpt lat="47.83389" lon="1.9744">
        <ele>94</ele>
        <time>2017-01-22T09:55:50.173Z</time>
      </trkpt>
      <trkpt lat="47.83389" lon="1.9744">
        <ele>94</ele>
        <time>2017-01-22T09:55:51.126Z</time>
      </trkpt>
      <trkpt lat="47.83381" lon="1.97441">
        <ele>95</ele>
        <time>2017-01-22T09:55:52.151Z</time>
      </trkpt>
      <trkpt lat="47.83372" lon="1.97441">
        <ele>95</ele>
        <time>2017-01-22T09:55:53.157Z</time>
      </trkpt>
      <trkpt lat="47.83372" lon="1.97441">
        <ele>95</ele>
        <time>2017-01-22T09:55:54.149Z</time>
      </trkpt>
      <trkpt lat="47.83372" lon="1.97441">
        <ele>95</ele>
        <time>2017-01-22T09:55:55.158Z</time>
      </trkpt>
      <trkpt lat="47.83364" lon="1.97443">
        <ele>95</ele>
        <time>2017-01-22T09:55:56.147Z</time>
      </trkpt>
      <trkpt lat="47.83364" lon="1.97443">
        <ele>95</ele>
        <time>2017-01-22T09:55:57.154Z</time>
      </trkpt>
      <trkpt lat="47.83355" lon="1.97444">
        <ele>95</ele>
        <time>2017-01-22T09:55:58.130Z</time>
      </trkpt>
      <trkpt lat="47.83355" lon="1.97444">
        <ele>95</ele>
        <time>2017-01-22T09:55:59.159Z</time>
      </trkpt>
      <trkpt lat="47.83345" lon="1.97443">
        <ele>95</ele>
        <time>2017-01-22T09:56:00.125Z</time>
      </trkpt>
      <trkpt lat="47.83345" lon="1.97443">
        <ele>95</ele>
        <time>2017-01-22T09:56:01.130Z</time>
      </trkpt>
      <trkpt lat="47.83335" lon="1.97442">
        <ele>95</ele>
        <time>2017-01-22T09:56:02.138Z</time>
      </trkpt>
      <trkpt lat="47.83331" lon="1.97441">
        <ele>95</ele>
        <time>2017-01-22T09:56:03.140Z</time>
      </trkpt>
      <trkpt lat="47.83331" lon="1.97441">
        <ele>95</ele>
        <time>2017-01-22T09:56:04.132Z</time>
      </trkpt>
      <trkpt lat="47.8332" lon="1.97429">
        <ele>96</ele>
        <time>2017-01-22T09:56:05.155Z</time>
      </trkpt>
      <trkpt lat="47.8332" lon="1.97429">
        <ele>96</ele>
        <time>2017-01-22T09:56:06.121Z</time>
      </trkpt>
      <trkpt lat="47.8332" lon="1.97429">
        <ele>96</ele>
        <time>2017-01-22T09:56:07.127Z</time>
      </trkpt>
      <trkpt lat="47.83316" lon="1.97419">
        <ele>96</ele>
        <time>2017-01-22T09:56:08.159Z</time>
      </trkpt>
      <trkpt lat="47.83313" lon="1.97414">
        <ele>96</ele>
        <time>2017-01-22T09:56:09.166Z</time>
      </trkpt>
      <trkpt lat="47.83313" lon="1.97414">
        <ele>96</ele>
        <time>2017-01-22T09:56:10.158Z</time>
      </trkpt>
      <trkpt lat="47.83308" lon="1.97404">
        <ele>96</ele>
        <time>2017-01-22T09:56:11.150Z</time>
      </trkpt>
      <trkpt lat="47.83303" lon="1.97394">
        <ele>96</ele>
        <time>2017-01-22T09:56:12.156Z</time>
      </trkpt>
      <trkpt lat="47.83303" lon="1.97394">
        <ele>96</ele>
        <time>2017-01-22T09:56:13.124Z</time>
      </trkpt>
      <trkpt lat="47.83303" lon="1.97394">
        <ele>96</ele>
        <time>2017-01-22T09:56:14.130Z</time>
      </trkpt>
      <trkpt lat="47.83299" lon="1.97385">
        <ele>95</ele>
        <time>2017-01-22T09:56:15.124Z</time>
      </trkpt>
      <trkpt lat="47.83299" lon="1.97385">
        <ele>95</ele>
        <time>2017-01-22T09:56:16.131Z</time>
      </trkpt>
      <trkpt lat="47.83296" lon="1.97377">
        <ele>95</ele>
        <time>2017-01-22T09:56:17.139Z</time>
      </trkpt>
      <trkpt lat="47.83294" lon="1.97372">
        <ele>95</ele>
        <time>2017-01-22T09:56:18.145Z</time>
      </trkpt>
      <trkpt lat="47.8329" lon="1.97364">
        <ele>95</ele>
        <time>2017-01-22T09:56:19.154Z</time>
      </trkpt>
      <trkpt lat="47.8329" lon="1.97364">
        <ele>95</ele>
        <time>2017-01-22T09:56:20.121Z</time>
      </trkpt>
      <trkpt lat="47.83288" lon="1.9736">
        <ele>95</ele>
        <time>2017-01-22T09:56:21.121Z</time>
      </trkpt>
      <trkpt lat="47.83288" lon="1.9736">
        <ele>95</ele>
        <time>2017-01-22T09:56:22.128Z</time>
      </trkpt>
      <trkpt lat="47.83285" lon="1.9735">
        <ele>94</ele>
        <time>2017-01-22T09:56:23.160Z</time>
      </trkpt>
      <trkpt lat="47.83283" lon="1.97345">
        <ele>95</ele>
        <time>2017-01-22T09:56:24.158Z</time>
      </trkpt>
      <trkpt lat="47.83281" lon="1.97341">
        <ele>95</ele>
        <time>2017-01-22T09:56:25.121Z</time>
      </trkpt>
      <trkpt lat="47.83281" lon="1.97341">
        <ele>95</ele>
        <time>2017-01-22T09:56:26.127Z</time>
      </trkpt>
      <trkpt lat="47.83274" lon="1.97336">
        <ele>96</ele>
        <time>2017-01-22T09:56:27.134Z</time>
      </trkpt>
      <trkpt lat="47.8327" lon="1.97336">
        <ele>96</ele>
        <time>2017-01-22T09:56:28.146Z</time>
      </trkpt>
      <trkpt lat="47.83263" lon="1.97343">
        <ele>96</ele>
        <time>2017-01-22T09:56:29.154Z</time>
      </trkpt>
      <trkpt lat="47.83263" lon="1.97343">
        <ele>96</ele>
        <time>2017-01-22T09:56:30.137Z</time>
      </trkpt>
      <trkpt lat="47.83262" lon="1.9735">
        <ele>96</ele>
        <time>2017-01-22T09:56:31.125Z</time>
      </trkpt>
      <trkpt lat="47.83262" lon="1.9735">
        <ele>96</ele>
        <time>2017-01-22T09:56:32.131Z</time>
      </trkpt>
      <trkpt lat="47.83265" lon="1.97362">
        <ele>95</ele>
        <time>2017-01-22T09:56:33.128Z</time>
      </trkpt>
      <trkpt lat="47.83269" lon="1.97366">
        <ele>95</ele>
        <time>2017-01-22T09:56:34.127Z</time>
      </trkpt>
      <trkpt lat="47.83269" lon="1.97366">
        <ele>95</ele>
        <time>2017-01-22T09:56:35.134Z</time>
      </trkpt>
      <trkpt lat="47.83277" lon="1.97369">
        <ele>95</ele>
        <time>2017-01-22T09:56:36.127Z</time>
      </trkpt>
      <trkpt lat="47.83277" lon="1.97369">
        <ele>95</ele>
        <time>2017-01-22T09:56:37.133Z</time>
      </trkpt>
      <trkpt lat="47.83287" lon="1.97374">
        <ele>95</ele>
        <time>2017-01-22T09:56:38.128Z</time>
      </trkpt>
      <trkpt lat="47.83287" lon="1.97374">
        <ele>95</ele>
        <time>2017-01-22T09:56:39.135Z</time>
      </trkpt>
      <trkpt lat="47.83295" lon="1.97382">
        <ele>96</ele>
        <time>2017-01-22T09:56:40.159Z</time>
      </trkpt>
      <trkpt lat="47.83299" lon="1.97387">
        <ele>96</ele>
        <time>2017-01-22T09:56:41.160Z</time>
      </trkpt>
      <trkpt lat="47.83302" lon="1.97393">
        <ele>96</ele>
        <time>2017-01-22T09:56:42.146Z</time>
      </trkpt>
      <trkpt lat="47.83302" lon="1.97393">
        <ele>96</ele>
        <time>2017-01-22T09:56:43.153Z</time>
      </trkpt>
      <trkpt lat="47.83309" lon="1.97404">
        <ele>96</ele>
        <time>2017-01-22T09:56:44.120Z</time>
      </trkpt>
      <trkpt lat="47.83312" lon="1.9741">
        <ele>96</ele>
        <time>2017-01-22T09:56:45.147Z</time>
      </trkpt>
      <trkpt lat="47.83318" lon="1.97422">
        <ele>96</ele>
        <time>2017-01-22T09:56:46.154Z</time>
      </trkpt>
      <trkpt lat="47.83318" lon="1.97422">
        <ele>96</ele>
        <time>2017-01-22T09:56:47.150Z</time>
      </trkpt>
      <trkpt lat="47.83322" lon="1.97428">
        <ele>96</ele>
        <time>2017-01-22T09:56:48.145Z</time>
      </trkpt>
      <trkpt lat="47.83322" lon="1.97428">
        <ele>96</ele>
        <time>2017-01-22T09:56:49.155Z</time>
      </trkpt>
      <trkpt lat="47.83329" lon="1.97438">
        <ele>96</ele>
        <time>2017-01-22T09:56:50.130Z</time>
      </trkpt>
      <trkpt lat="47.83334" lon="1.9744">
        <ele>95</ele>
        <time>2017-01-22T09:56:51.130Z</time>
      </trkpt>
      <trkpt lat="47.83334" lon="1.9744">
        <ele>95</ele>
        <time>2017-01-22T09:56:52.136Z</time>
      </trkpt>
      <trkpt lat="47.83344" lon="1.97441">
        <ele>95</ele>
        <time>2017-01-22T09:56:53.159Z</time>
      </trkpt>
      <trkpt lat="47.83348" lon="1.97441">
        <ele>95</ele>
        <time>2017-01-22T09:56:54.153Z</time>
      </trkpt>
      <trkpt lat="47.83348" lon="1.97441">
        <ele>95</ele>
        <time>2017-01-22T09:56:55.158Z</time>
      </trkpt>
      <trkpt lat="47.83358" lon="1.97442">
        <ele>94</ele>
        <time>2017-01-22T09:56:56.153Z</time>
      </trkpt>
      <trkpt lat="47.83362" lon="1.97441">
        <ele>94</ele>
        <time>2017-01-22T09:56:57.130Z</time>
      </trkpt>
      <trkpt lat="47.83362" lon="1.97441">
        <ele>94</ele>
        <time>2017-01-22T09:56:58.137Z</time>
      </trkpt>
      <trkpt lat="47.83372" lon="1.9744">
        <ele>93</ele>
        <time>2017-01-22T09:56:59.144Z</time>
      </trkpt>
      <trkpt lat="47.83376" lon="1.9744">
        <ele>93</ele>
        <time>2017-01-22T09:57:00.157Z</time>
      </trkpt>
      <trkpt lat="47.83376" lon="1.9744">
        <ele>93</ele>
        <time>2017-01-22T09:57:01.123Z</time>
      </trkpt>
      <trkpt lat="47.83386" lon="1.9744">
        <ele>92</ele>
        <time>2017-01-22T09:57:02.119Z</time>
      </trkpt>
      <trkpt lat="47.83386" lon="1.9744">
        <ele>92</ele>
        <time>2017-01-22T09:57:03.128Z</time>
      </trkpt>
      <trkpt lat="47.83396" lon="1.9744">
        <ele>91</ele>
        <time>2017-01-22T09:57:04.132Z</time>
      </trkpt>
      <trkpt lat="47.83396" lon="1.9744">
        <ele>91</ele>
        <time>2017-01-22T09:57:05.155Z</time>
      </trkpt>
      <trkpt lat="47.83405" lon="1.97439">
        <ele>91</ele>
        <time>2017-01-22T09:57:06.121Z</time>
      </trkpt>
      <trkpt lat="47.83405" lon="1.97439">
        <ele>91</ele>
        <time>2017-01-22T09:57:07.127Z</time>
      </trkpt>
      <trkpt lat="47.83414" lon="1.97441">
        <ele>90</ele>
        <time>2017-01-22T09:57:08.157Z</time>
      </trkpt>
      <trkpt lat="47.83414" lon="1.97441">
        <ele>90</ele>
        <time>2017-01-22T09:57:09.123Z</time>
      </trkpt>
      <trkpt lat="47.83422" lon="1.97443">
        <ele>89</ele>
        <time>2017-01-22T09:57:10.157Z</time>
      </trkpt>
      <trkpt lat="47.83425" lon="1.97445">
        <ele>89</ele>
        <time>2017-01-22T09:57:11.162Z</time>
      </trkpt>
      <trkpt lat="47.83426" lon="1.97445">
        <ele>89</ele>
        <time>2017-01-22T09:57:12.130Z</time>
      </trkpt>
      <trkpt lat="47.83426" lon="1.97445">
        <ele>89</ele>
        <time>2017-01-22T09:57:13.150Z</time>
      </trkpt>
      <trkpt lat="47.83429" lon="1.97441">
        <ele>91</ele>
        <time>2017-01-22T09:57:14.122Z</time>
      </trkpt>
      <trkpt lat="47.83428" lon="1.97438">
        <ele>91</ele>
        <time>2017-01-22T09:57:15.128Z</time>
      </trkpt>
      <trkpt lat="47.83428" lon="1.97438">
        <ele>91</ele>
        <time>2017-01-22T09:57:16.134Z</time>
      </trkpt>
      <trkpt lat="47.83425" lon="1.97435">
        <ele>91</ele>
        <time>2017-01-22T09:57:17.124Z</time>
      </trkpt>
      <trkpt lat="47.83423" lon="1.97434">
        <ele>92</ele>
        <time>2017-01-22T09:57:18.154Z</time>
      </trkpt>
      <trkpt lat="47.83423" lon="1.97434">
        <ele>92</ele>
        <time>2017-01-22T09:57:19.120Z</time>
      </trkpt>
      <trkpt lat="47.8342" lon="1.97432">
        <ele>92</ele>
        <time>2017-01-22T09:57:20.126Z</time>
      </trkpt>
      <trkpt lat="47.8342" lon="1.9743">
        <ele>93</ele>
        <time>2017-01-22T09:57:21.132Z</time>
      </trkpt>
      <trkpt lat="47.83419" lon="1.97426">
        <ele>93</ele>
        <time>2017-01-22T09:57:22.129Z</time>
      </trkpt>
      <trkpt lat="47.83419" lon="1.97426">
        <ele>93</ele>
        <time>2017-01-22T09:57:23.166Z</time>
      </trkpt>
      <trkpt lat="47.8342" lon="1.97417">
        <ele>93</ele>
        <time>2017-01-22T09:57:24.125Z</time>
      </trkpt>
      <trkpt lat="47.8342" lon="1.97417">
        <ele>93</ele>
        <time>2017-01-22T09:57:25.131Z</time>
      </trkpt>
      <trkpt lat="47.8342" lon="1.97406">
        <ele>93</ele>
        <time>2017-01-22T09:57:26.144Z</time>
      </trkpt>
      <trkpt lat="47.8342" lon="1.97406">
        <ele>93</ele>
        <time>2017-01-22T09:57:27.159Z</time>
      </trkpt>
      <trkpt lat="47.83421" lon="1.97388">
        <ele>93</ele>
        <time>2017-01-22T09:57:28.159Z</time>
      </trkpt>
      <trkpt lat="47.83421" lon="1.97388">
        <ele>93</ele>
        <time>2017-01-22T09:57:29.152Z</time>
      </trkpt>
      <trkpt lat="47.83421" lon="1.97388">
        <ele>93</ele>
        <time>2017-01-22T09:57:30.118Z</time>
      </trkpt>
      <trkpt lat="47.83419" lon="1.97377">
        <ele>93</ele>
        <time>2017-01-22T09:57:31.124Z</time>
      </trkpt>
      <trkpt lat="47.83418" lon="1.97371">
        <ele>93</ele>
        <time>2017-01-22T09:57:32.137Z</time>
      </trkpt>
      <trkpt lat="47.83418" lon="1.97371">
        <ele>93</ele>
        <time>2017-01-22T09:57:33.159Z</time>
      </trkpt>
      <trkpt lat="47.83416" lon="1.97358">
        <ele>93</ele>
        <time>2017-01-22T09:57:34.135Z</time>
      </trkpt>
      <trkpt lat="47.83416" lon="1.97358">
        <ele>93</ele>
        <time>2017-01-22T09:57:35.150Z</time>
      </trkpt>
      <trkpt lat="47.83415" lon="1.97344">
        <ele>93</ele>
        <time>2017-01-22T09:57:36.119Z</time>
      </trkpt>
      <trkpt lat="47.83415" lon="1.97344">
        <ele>93</ele>
        <time>2017-01-22T09:57:37.126Z</time>
      </trkpt>
      <trkpt lat="47.83413" lon="1.97331">
        <ele>93</ele>
        <time>2017-01-22T09:57:38.134Z</time>
      </trkpt>
      <trkpt lat="47.83412" lon="1.97324">
        <ele>93</ele>
        <time>2017-01-22T09:57:39.147Z</time>
      </trkpt>
      <trkpt lat="47.83411" lon="1.97309">
        <ele>93</ele>
        <time>2017-01-22T09:57:40.155Z</time>
      </trkpt>
      <trkpt lat="47.83411" lon="1.97309">
        <ele>93</ele>
        <time>2017-01-22T09:57:41.147Z</time>
      </trkpt>
      <trkpt lat="47.8341" lon="1.97302">
        <ele>93</ele>
        <time>2017-01-22T09:57:42.155Z</time>
      </trkpt>
      <trkpt lat="47.8341" lon="1.97302">
        <ele>93</ele>
        <time>2017-01-22T09:57:43.122Z</time>
      </trkpt>
      <trkpt lat="47.83409" lon="1.97287">
        <ele>93</ele>
        <time>2017-01-22T09:57:44.126Z</time>
      </trkpt>
      <trkpt lat="47.83409" lon="1.97287">
        <ele>93</ele>
        <time>2017-01-22T09:57:45.132Z</time>
      </trkpt>
      <trkpt lat="47.8341" lon="1.97265">
        <ele>93</ele>
        <time>2017-01-22T09:57:46.154Z</time>
      </trkpt>
      <trkpt lat="47.8341" lon="1.97265">
        <ele>93</ele>
        <time>2017-01-22T09:57:47.120Z</time>
      </trkpt>
      <trkpt lat="47.8341" lon="1.97258">
        <ele>92</ele>
        <time>2017-01-22T09:57:48.136Z</time>
      </trkpt>
      <trkpt lat="47.83411" lon="1.97243">
        <ele>92</ele>
        <time>2017-01-22T09:57:49.154Z</time>
      </trkpt>
      <trkpt lat="47.83411" lon="1.97243">
        <ele>92</ele>
        <time>2017-01-22T09:57:50.158Z</time>
      </trkpt>
      <trkpt lat="47.83412" lon="1.97235">
        <ele>92</ele>
        <time>2017-01-22T09:57:51.144Z</time>
      </trkpt>
      <trkpt lat="47.83414" lon="1.9722">
        <ele>92</ele>
        <time>2017-01-22T09:57:52.156Z</time>
      </trkpt>
      <trkpt lat="47.83414" lon="1.9722">
        <ele>92</ele>
        <time>2017-01-22T09:57:53.131Z</time>
      </trkpt>
      <trkpt lat="47.83415" lon="1.97213">
        <ele>92</ele>
        <time>2017-01-22T09:57:54.147Z</time>
      </trkpt>
      <trkpt lat="47.83417" lon="1.97198">
        <ele>91</ele>
        <time>2017-01-22T09:57:55.154Z</time>
      </trkpt>
      <trkpt lat="47.83417" lon="1.97198">
        <ele>91</ele>
        <time>2017-01-22T09:57:56.120Z</time>
      </trkpt>
      <trkpt lat="47.83417" lon="1.9719">
        <ele>91</ele>
        <time>2017-01-22T09:57:57.148Z</time>
      </trkpt>
      <trkpt lat="47.83417" lon="1.97182">
        <ele>91</ele>
        <time>2017-01-22T09:57:58.139Z</time>
      </trkpt>
      <trkpt lat="47.83417" lon="1.97182">
        <ele>91</ele>
        <time>2017-01-22T09:57:59.161Z</time>
      </trkpt>
      <trkpt lat="47.83417" lon="1.97167">
        <ele>91</ele>
        <time>2017-01-22T09:58:00.168Z</time>
      </trkpt>
      <trkpt lat="47.83417" lon="1.97167">
        <ele>91</ele>
        <time>2017-01-22T09:58:01.159Z</time>
      </trkpt>
      <trkpt lat="47.83415" lon="1.97151">
        <ele>91</ele>
        <time>2017-01-22T09:58:02.133Z</time>
      </trkpt>
      <trkpt lat="47.83413" lon="1.97144">
        <ele>91</ele>
        <time>2017-01-22T09:58:03.120Z</time>
      </trkpt>
      <trkpt lat="47.83413" lon="1.97144">
        <ele>91</ele>
        <time>2017-01-22T09:58:04.133Z</time>
      </trkpt>
      <trkpt lat="47.83409" lon="1.97129">
        <ele>91</ele>
        <time>2017-01-22T09:58:05.123Z</time>
      </trkpt>
      <trkpt lat="47.83407" lon="1.97122">
        <ele>90</ele>
        <time>2017-01-22T09:58:06.129Z</time>
      </trkpt>
      <trkpt lat="47.83407" lon="1.97122">
        <ele>90</ele>
        <time>2017-01-22T09:58:07.136Z</time>
      </trkpt>
      <trkpt lat="47.83403" lon="1.97109">
        <ele>90</ele>
        <time>2017-01-22T09:58:08.155Z</time>
      </trkpt>
      <trkpt lat="47.83403" lon="1.97109">
        <ele>90</ele>
        <time>2017-01-22T09:58:09.159Z</time>
      </trkpt>
      <trkpt lat="47.83399" lon="1.97094">
        <ele>90</ele>
        <time>2017-01-22T09:58:10.135Z</time>
      </trkpt>
      <trkpt lat="47.83395" lon="1.97078">
        <ele>90</ele>
        <time>2017-01-22T09:58:11.156Z</time>
      </trkpt>
      <trkpt lat="47.83395" lon="1.97078">
        <ele>90</ele>
        <time>2017-01-22T09:58:12.152Z</time>
      </trkpt>
      <trkpt lat="47.83395" lon="1.97078">
        <ele>90</ele>
        <time>2017-01-22T09:58:13.122Z</time>
      </trkpt>
      <trkpt lat="47.83392" lon="1.97064">
        <ele>91</ele>
        <time>2017-01-22T09:58:14.119Z</time>
      </trkpt>
      <trkpt lat="47.83392" lon="1.97064">
        <ele>91</ele>
        <time>2017-01-22T09:58:15.125Z</time>
      </trkpt>
      <trkpt lat="47.83391" lon="1.97049">
        <ele>91</ele>
        <time>2017-01-22T09:58:16.133Z</time>
      </trkpt>
      <trkpt lat="47.83392" lon="1.97042">
        <ele>90</ele>
        <time>2017-01-22T09:58:17.126Z</time>
      </trkpt>
      <trkpt lat="47.83392" lon="1.97042">
        <ele>90</ele>
        <time>2017-01-22T09:58:18.132Z</time>
      </trkpt>
      <trkpt lat="47.83393" lon="1.97028">
        <ele>90</ele>
        <time>2017-01-22T09:58:19.140Z</time>
      </trkpt>
      <trkpt lat="47.83393" lon="1.97028">
        <ele>90</ele>
        <time>2017-01-22T09:58:20.158Z</time>
      </trkpt>
      <trkpt lat="47.83393" lon="1.97013">
        <ele>90</ele>
        <time>2017-01-22T09:58:21.141Z</time>
      </trkpt>
      <trkpt lat="47.83393" lon="1.97013">
        <ele>90</ele>
        <time>2017-01-22T09:58:22.154Z</time>
      </trkpt>
      <trkpt lat="47.83392" lon="1.96999">
        <ele>90</ele>
        <time>2017-01-22T09:58:23.130Z</time>
      </trkpt>
      <trkpt lat="47.83392" lon="1.96993">
        <ele>90</ele>
        <time>2017-01-22T09:58:24.155Z</time>
      </trkpt>
      <trkpt lat="47.83392" lon="1.96993">
        <ele>90</ele>
        <time>2017-01-22T09:58:25.158Z</time>
      </trkpt>
      <trkpt lat="47.83393" lon="1.9698">
        <ele>89</ele>
        <time>2017-01-22T09:58:26.147Z</time>
      </trkpt>
      <trkpt lat="47.83393" lon="1.96968">
        <ele>89</ele>
        <time>2017-01-22T09:58:27.155Z</time>
      </trkpt>
      <trkpt lat="47.83393" lon="1.96968">
        <ele>89</ele>
        <time>2017-01-22T09:58:28.156Z</time>
      </trkpt>
      <trkpt lat="47.83393" lon="1.96968">
        <ele>89</ele>
        <time>2017-01-22T09:58:29.122Z</time>
      </trkpt>
      <trkpt lat="47.83392" lon="1.96958">
        <ele>89</ele>
        <time>2017-01-22T09:58:30.126Z</time>
      </trkpt>
      <trkpt lat="47.83392" lon="1.96958">
        <ele>89</ele>
        <time>2017-01-22T09:58:31.132Z</time>
      </trkpt>
      <trkpt lat="47.8339" lon="1.96947">
        <ele>89</ele>
        <time>2017-01-22T09:58:32.148Z</time>
      </trkpt>
      <trkpt lat="47.8339" lon="1.96947">
        <ele>89</ele>
        <time>2017-01-22T09:58:33.124Z</time>
      </trkpt>
      <trkpt lat="47.83389" lon="1.96936">
        <ele>90</ele>
        <time>2017-01-22T09:58:34.149Z</time>
      </trkpt>
      <trkpt lat="47.83388" lon="1.96922">
        <ele>90</ele>
        <time>2017-01-22T09:58:35.156Z</time>
      </trkpt>
      <trkpt lat="47.83388" lon="1.96922">
        <ele>90</ele>
        <time>2017-01-22T09:58:36.152Z</time>
      </trkpt>
      <trkpt lat="47.83388" lon="1.96922">
        <ele>90</ele>
        <time>2017-01-22T09:58:37.118Z</time>
      </trkpt>
      <trkpt lat="47.83386" lon="1.969">
        <ele>91</ele>
        <time>2017-01-22T09:58:38.155Z</time>
      </trkpt>
      <trkpt lat="47.83386" lon="1.969">
        <ele>91</ele>
        <time>2017-01-22T09:58:39.121Z</time>
      </trkpt>
      <trkpt lat="47.83386" lon="1.969">
        <ele>91</ele>
        <time>2017-01-22T09:58:40.127Z</time>
      </trkpt>
      <trkpt lat="47.83387" lon="1.96886">
        <ele>91</ele>
        <time>2017-01-22T09:58:41.126Z</time>
      </trkpt>
      <trkpt lat="47.83388" lon="1.9688">
        <ele>92</ele>
        <time>2017-01-22T09:58:42.136Z</time>
      </trkpt>
      <trkpt lat="47.83388" lon="1.9688">
        <ele>92</ele>
        <time>2017-01-22T09:58:43.168Z</time>
      </trkpt>
      <trkpt lat="47.83392" lon="1.96868">
        <ele>92</ele>
        <time>2017-01-22T09:58:44.154Z</time>
      </trkpt>
      <trkpt lat="47.83392" lon="1.96868">
        <ele>92</ele>
        <time>2017-01-22T09:58:45.121Z</time>
      </trkpt>
      <trkpt lat="47.83397" lon="1.96858">
        <ele>92</ele>
        <time>2017-01-22T09:58:46.128Z</time>
      </trkpt>
      <trkpt lat="47.83397" lon="1.96858">
        <ele>92</ele>
        <time>2017-01-22T09:58:47.135Z</time>
      </trkpt>
      <trkpt lat="47.83403" lon="1.96851">
        <ele>92</ele>
        <time>2017-01-22T09:58:48.150Z</time>
      </trkpt>
      <trkpt lat="47.83406" lon="1.96845">
        <ele>92</ele>
        <time>2017-01-22T09:58:49.157Z</time>
      </trkpt>
      <trkpt lat="47.83406" lon="1.96845">
        <ele>92</ele>
        <time>2017-01-22T09:58:50.130Z</time>
      </trkpt>
      <trkpt lat="47.83406" lon="1.96845">
        <ele>92</ele>
        <time>2017-01-22T09:58:51.157Z</time>
      </trkpt>
      <trkpt lat="47.83403" lon="1.96838">
        <ele>93</ele>
        <time>2017-01-22T09:58:52.125Z</time>
      </trkpt>
      <trkpt lat="47.83403" lon="1.96838">
        <ele>93</ele>
        <time>2017-01-22T09:58:53.132Z</time>
      </trkpt>
      <trkpt lat="47.83399" lon="1.96831">
        <ele>93</ele>
        <time>2017-01-22T09:58:54.165Z</time>
      </trkpt>
      <trkpt lat="47.83399" lon="1.96831">
        <ele>93</ele>
        <time>2017-01-22T09:58:55.158Z</time>
      </trkpt>
      <trkpt lat="47.83393" lon="1.96822">
        <ele>93</ele>
        <time>2017-01-22T09:58:56.129Z</time>
      </trkpt>
      <trkpt lat="47.83393" lon="1.96822">
        <ele>93</ele>
        <time>2017-01-22T09:58:57.135Z</time>
      </trkpt>
      <trkpt lat="47.83389" lon="1.96812">
        <ele>94</ele>
        <time>2017-01-22T09:58:58.142Z</time>
      </trkpt>
      <trkpt lat="47.83389" lon="1.96812">
        <ele>94</ele>
        <time>2017-01-22T09:58:59.160Z</time>
      </trkpt>
      <trkpt lat="47.83385" lon="1.96802">
        <ele>94</ele>
        <time>2017-01-22T09:59:00.144Z</time>
      </trkpt>
      <trkpt lat="47.83383" lon="1.9679">
        <ele>94</ele>
        <time>2017-01-22T09:59:01.154Z</time>
      </trkpt>
      <trkpt lat="47.83383" lon="1.9679">
        <ele>94</ele>
        <time>2017-01-22T09:59:02.142Z</time>
      </trkpt>
      <trkpt lat="47.83383" lon="1.9679">
        <ele>94</ele>
        <time>2017-01-22T09:59:03.159Z</time>
      </trkpt>
      <trkpt lat="47.83386" lon="1.96779">
        <ele>94</ele>
        <time>2017-01-22T09:59:04.147Z</time>
      </trkpt>
      <trkpt lat="47.83386" lon="1.96779">
        <ele>94</ele>
        <time>2017-01-22T09:59:05.143Z</time>
      </trkpt>
      <trkpt lat="47.83394" lon="1.96771">
        <ele>93</ele>
        <time>2017-01-22T09:59:06.151Z</time>
      </trkpt>
      <trkpt lat="47.83394" lon="1.96771">
        <ele>93</ele>
        <time>2017-01-22T09:59:07.132Z</time>
      </trkpt>
      <trkpt lat="47.83403" lon="1.96767">
        <ele>93</ele>
        <time>2017-01-22T09:59:08.148Z</time>
      </trkpt>
      <trkpt lat="47.83403" lon="1.96767">
        <ele>93</ele>
        <time>2017-01-22T09:59:09.159Z</time>
      </trkpt>
      <trkpt lat="47.83412" lon="1.96762">
        <ele>92</ele>
        <time>2017-01-22T09:59:10.135Z</time>
      </trkpt>
      <trkpt lat="47.83416" lon="1.96758">
        <ele>92</ele>
        <time>2017-01-22T09:59:11.143Z</time>
      </trkpt>
      <trkpt lat="47.83419" lon="1.96754">
        <ele>92</ele>
        <time>2017-01-22T09:59:12.150Z</time>
      </trkpt>
      <trkpt lat="47.83419" lon="1.96754">
        <ele>92</ele>
        <time>2017-01-22T09:59:13.119Z</time>
      </trkpt>
      <trkpt lat="47.83422" lon="1.96745">
        <ele>93</ele>
        <time>2017-01-22T09:59:14.127Z</time>
      </trkpt>
      <trkpt lat="47.83422" lon="1.96741">
        <ele>93</ele>
        <time>2017-01-22T09:59:15.153Z</time>
      </trkpt>
      <trkpt lat="47.83422" lon="1.96741">
        <ele>93</ele>
        <time>2017-01-22T09:59:16.119Z</time>
      </trkpt>
      <trkpt lat="47.83422" lon="1.96733">
        <ele>93</ele>
        <time>2017-01-22T09:59:17.126Z</time>
      </trkpt>
      <trkpt lat="47.83422" lon="1.96729">
        <ele>93</ele>
        <time>2017-01-22T09:59:18.123Z</time>
      </trkpt>
      <trkpt lat="47.83422" lon="1.96729">
        <ele>93</ele>
        <time>2017-01-22T09:59:19.129Z</time>
      </trkpt>
      <trkpt lat="47.83425" lon="1.96722">
        <ele>92</ele>
        <time>2017-01-22T09:59:20.136Z</time>
      </trkpt>
      <trkpt lat="47.83425" lon="1.96722">
        <ele>92</ele>
        <time>2017-01-22T09:59:21.159Z</time>
      </trkpt>
      <trkpt lat="47.83429" lon="1.96716">
        <ele>92</ele>
        <time>2017-01-22T09:59:22.143Z</time>
      </trkpt>
      <trkpt lat="47.83429" lon="1.96716">
        <ele>92</ele>
        <time>2017-01-22T09:59:23.155Z</time>
      </trkpt>
      <trkpt lat="47.83431" lon="1.9671">
        <ele>92</ele>
        <time>2017-01-22T09:59:24.149Z</time>
      </trkpt>
      <trkpt lat="47.8343" lon="1.96706">
        <ele>92</ele>
        <time>2017-01-22T09:59:25.156Z</time>
      </trkpt>
      <trkpt lat="47.8343" lon="1.96706">
        <ele>92</ele>
        <time>2017-01-22T09:59:26.142Z</time>
      </trkpt>
      <trkpt lat="47.83429" lon="1.96704">
        <ele>92</ele>
        <time>2017-01-22T09:59:27.134Z</time>
      </trkpt>
      <trkpt lat="47.83429" lon="1.96704">
        <ele>92</ele>
        <time>2017-01-22T09:59:28.148Z</time>
      </trkpt>
      <trkpt lat="47.83426" lon="1.96696">
        <ele>92</ele>
        <time>2017-01-22T09:59:29.144Z</time>
      </trkpt>
      <trkpt lat="47.83426" lon="1.96696">
        <ele>92</ele>
        <time>2017-01-22T09:59:30.129Z</time>
      </trkpt>
      <trkpt lat="47.83423" lon="1.96684">
        <ele>92</ele>
        <time>2017-01-22T09:59:31.135Z</time>
      </trkpt>
      <trkpt lat="47.83423" lon="1.96684">
        <ele>92</ele>
        <time>2017-01-22T09:59:32.144Z</time>
      </trkpt>
      <trkpt lat="47.83418" lon="1.96671">
        <ele>92</ele>
        <time>2017-01-22T09:59:33.158Z</time>
      </trkpt>
      <trkpt lat="47.83416" lon="1.96665">
        <ele>92</ele>
        <time>2017-01-22T09:59:34.160Z</time>
      </trkpt>
      <trkpt lat="47.83414" lon="1.96658">
        <ele>92</ele>
        <time>2017-01-22T09:59:35.126Z</time>
      </trkpt>
      <trkpt lat="47.83414" lon="1.96658">
        <ele>92</ele>
        <time>2017-01-22T09:59:36.132Z</time>
      </trkpt>
      <trkpt lat="47.83409" lon="1.96646">
        <ele>93</ele>
        <time>2017-01-22T09:59:37.154Z</time>
      </trkpt>
      <trkpt lat="47.83409" lon="1.96646">
        <ele>93</ele>
        <time>2017-01-22T09:59:38.120Z</time>
      </trkpt>
      <trkpt lat="47.83403" lon="1.96634">
        <ele>93</ele>
        <time>2017-01-22T09:59:39.146Z</time>
      </trkpt>
      <trkpt lat="47.83396" lon="1.96624">
        <ele>93</ele>
        <time>2017-01-22T09:59:40.155Z</time>
      </trkpt>
      <trkpt lat="47.83396" lon="1.96624">
        <ele>93</ele>
        <time>2017-01-22T09:59:41.128Z</time>
      </trkpt>
      <trkpt lat="47.83393" lon="1.96619">
        <ele>93</ele>
        <time>2017-01-22T09:59:42.147Z</time>
      </trkpt>
      <trkpt lat="47.83393" lon="1.96619">
        <ele>93</ele>
        <time>2017-01-22T09:59:43.133Z</time>
      </trkpt>
      <trkpt lat="47.83387" lon="1.9661">
        <ele>94</ele>
        <time>2017-01-22T09:59:44.148Z</time>
      </trkpt>
      <trkpt lat="47.83382" lon="1.96601">
        <ele>94</ele>
        <time>2017-01-22T09:59:45.155Z</time>
      </trkpt>
      <trkpt lat="47.83382" lon="1.96601">
        <ele>94</ele>
        <time>2017-01-22T09:59:46.144Z</time>
      </trkpt>
      <trkpt lat="47.83382" lon="1.96601">
        <ele>94</ele>
        <time>2017-01-22T09:59:47.160Z</time>
      </trkpt>
      <trkpt lat="47.83378" lon="1.96592">
        <ele>94</ele>
        <time>2017-01-22T09:59:48.145Z</time>
      </trkpt>
      <trkpt lat="47.83375" lon="1.96582">
        <ele>94</ele>
        <time>2017-01-22T09:59:49.155Z</time>
      </trkpt>
      <trkpt lat="47.83375" lon="1.96582">
        <ele>94</ele>
        <time>2017-01-22T09:59:50.129Z</time>
      </trkpt>
      <trkpt lat="47.83373" lon="1.96577">
        <ele>95</ele>
        <time>2017-01-22T09:59:51.135Z</time>
      </trkpt>
      <trkpt lat="47.83373" lon="1.96577">
        <ele>95</ele>
        <time>2017-01-22T09:59:52.149Z</time>
      </trkpt>
      <trkpt lat="47.8337" lon="1.96568">
        <ele>95</ele>
        <time>2017-01-22T09:59:53.120Z</time>
      </trkpt>
      <trkpt lat="47.8337" lon="1.96568">
        <ele>95</ele>
        <time>2017-01-22T09:59:54.125Z</time>
      </trkpt>
      <trkpt lat="47.83367" lon="1.96559">
        <ele>96</ele>
        <time>2017-01-22T09:59:55.121Z</time>
      </trkpt>
      <trkpt lat="47.83367" lon="1.96559">
        <ele>96</ele>
        <time>2017-01-22T09:59:56.127Z</time>
      </trkpt>
      <trkpt lat="47.83363" lon="1.9655">
        <ele>96</ele>
        <time>2017-01-22T09:59:57.134Z</time>
      </trkpt>
      <trkpt lat="47.83363" lon="1.9655">
        <ele>96</ele>
        <time>2017-01-22T09:59:58.160Z</time>
      </trkpt>
      <trkpt lat="47.8336" lon="1.9654">
        <ele>96</ele>
        <time>2017-01-22T09:59:59.145Z</time>
      </trkpt>
      <trkpt lat="47.8336" lon="1.9654">
        <ele>96</ele>
        <time>2017-01-22T10:00:00.124Z</time>
      </trkpt>
      <trkpt lat="47.83356" lon="1.9653">
        <ele>97</ele>
        <time>2017-01-22T10:00:01.130Z</time>
      </trkpt>
      <trkpt lat="47.83356" lon="1.9653">
        <ele>97</ele>
        <time>2017-01-22T10:00:02.160Z</time>
      </trkpt>
      <trkpt lat="47.83353" lon="1.9652">
        <ele>97</ele>
        <time>2017-01-22T10:00:03.135Z</time>
      </trkpt>
      <trkpt lat="47.83351" lon="1.96516">
        <ele>97</ele>
        <time>2017-01-22T10:00:04.135Z</time>
      </trkpt>
      <trkpt lat="47.83351" lon="1.96516">
        <ele>97</ele>
        <time>2017-01-22T10:00:05.161Z</time>
      </trkpt>
      <trkpt lat="47.83348" lon="1.96506">
        <ele>97</ele>
        <time>2017-01-22T10:00:06.131Z</time>
      </trkpt>
      <trkpt lat="47.83348" lon="1.96506">
        <ele>97</ele>
        <time>2017-01-22T10:00:07.138Z</time>
      </trkpt>
      <trkpt lat="47.83345" lon="1.96497">
        <ele>97</ele>
        <time>2017-01-22T10:00:08.133Z</time>
      </trkpt>
      <trkpt lat="47.83343" lon="1.96493">
        <ele>97</ele>
        <time>2017-01-22T10:00:09.142Z</time>
      </trkpt>
      <trkpt lat="47.83341" lon="1.96493">
        <ele>98</ele>
        <time>2017-01-22T10:00:10.130Z</time>
      </trkpt>
      <trkpt lat="47.83341" lon="1.96493">
        <ele>98</ele>
        <time>2017-01-22T10:00:11.136Z</time>
      </trkpt>
      <trkpt lat="47.83338" lon="1.96499">
        <ele>98</ele>
        <time>2017-01-22T10:00:12.144Z</time>
      </trkpt>
      <trkpt lat="47.83338" lon="1.96499">
        <ele>98</ele>
        <time>2017-01-22T10:00:13.157Z</time>
      </trkpt>
      <trkpt lat="47.83339" lon="1.96508">
        <ele>99</ele>
        <time>2017-01-22T10:00:14.133Z</time>
      </trkpt>
      <trkpt lat="47.83339" lon="1.96508">
        <ele>99</ele>
        <time>2017-01-22T10:00:15.141Z</time>
      </trkpt>
      <trkpt lat="47.8334" lon="1.96516">
        <ele>99</ele>
        <time>2017-01-22T10:00:16.154Z</time>
      </trkpt>
      <trkpt lat="47.8334" lon="1.96516">
        <ele>99</ele>
        <time>2017-01-22T10:00:17.119Z</time>
      </trkpt>
      <trkpt lat="47.83339" lon="1.96521">
        <ele>99</ele>
        <time>2017-01-22T10:00:18.156Z</time>
      </trkpt>
      <trkpt lat="47.83339" lon="1.96521">
        <ele>99</ele>
        <time>2017-01-22T10:00:19.122Z</time>
      </trkpt>
      <trkpt lat="47.83338" lon="1.96523">
        <ele>99</ele>
        <time>2017-01-22T10:00:20.128Z</time>
      </trkpt>
      <trkpt lat="47.83338" lon="1.96523">
        <ele>100</ele>
        <time>2017-01-22T10:00:21.155Z</time>
      </trkpt>
      <trkpt lat="47.83338" lon="1.96523">
        <ele>100</ele>
        <time>2017-01-22T10:00:22.134Z</time>
      </trkpt>
      <trkpt lat="47.83338" lon="1.96523">
        <ele>100</ele>
        <time>2017-01-22T10:00:23.144Z</time>
      </trkpt>
      <trkpt lat="47.8333" lon="1.9652">
        <ele>99</ele>
        <time>2017-01-22T10:00:24.157Z</time>
      </trkpt>
      <trkpt lat="47.83328" lon="1.96518">
        <ele>99</ele>
        <time>2017-01-22T10:00:25.144Z</time>
      </trkpt>
      <trkpt lat="47.83328" lon="1.96518">
        <ele>99</ele>
        <time>2017-01-22T10:00:26.152Z</time>
      </trkpt>
      <trkpt lat="47.83328" lon="1.96511">
        <ele>99</ele>
        <time>2017-01-22T10:00:27.124Z</time>
      </trkpt>
      <trkpt lat="47.83327" lon="1.96506">
        <ele>99</ele>
        <time>2017-01-22T10:00:28.135Z</time>
      </trkpt>
      <trkpt lat="47.83327" lon="1.96506">
        <ele>99</ele>
        <time>2017-01-22T10:00:29.118Z</time>
      </trkpt>
      <trkpt lat="47.83327" lon="1.96495">
        <ele>100</ele>
        <time>2017-01-22T10:00:30.124Z</time>
      </trkpt>
      <trkpt lat="47.83327" lon="1.96495">
        <ele>100</ele>
        <time>2017-01-22T10:00:31.118Z</time>
      </trkpt>
      <trkpt lat="47.83326" lon="1.96483">
        <ele>101</ele>
        <time>2017-01-22T10:00:32.152Z</time>
      </trkpt>
      <trkpt lat="47.83325" lon="1.96477">
        <ele>101</ele>
        <time>2017-01-22T10:00:33.145Z</time>
      </trkpt>
      <trkpt lat="47.83325" lon="1.96477">
        <ele>101</ele>
        <time>2017-01-22T10:00:34.154Z</time>
      </trkpt>
      <trkpt lat="47.83324" lon="1.96465">
        <ele>102</ele>
        <time>2017-01-22T10:00:35.154Z</time>
      </trkpt>
      <trkpt lat="47.83324" lon="1.96465">
        <ele>102</ele>
        <time>2017-01-22T10:00:36.140Z</time>
      </trkpt>
      <trkpt lat="47.83322" lon="1.96451">
        <ele>103</ele>
        <time>2017-01-22T10:00:37.147Z</time>
      </trkpt>
      <trkpt lat="47.83322" lon="1.96451">
        <ele>103</ele>
        <time>2017-01-22T10:00:38.134Z</time>
      </trkpt>
      <trkpt lat="47.83322" lon="1.96437">
        <ele>103</ele>
        <time>2017-01-22T10:00:39.135Z</time>
      </trkpt>
      <trkpt lat="47.83322" lon="1.96431">
        <ele>103</ele>
        <time>2017-01-22T10:00:40.124Z</time>
      </trkpt>
      <trkpt lat="47.83322" lon="1.96431">
        <ele>103</ele>
        <time>2017-01-22T10:00:41.152Z</time>
      </trkpt>
      <trkpt lat="47.83322" lon="1.96417">
        <ele>102</ele>
        <time>2017-01-22T10:00:42.121Z</time>
      </trkpt>
      <trkpt lat="47.83322" lon="1.9641">
        <ele>102</ele>
        <time>2017-01-22T10:00:43.134Z</time>
      </trkpt>
      <trkpt lat="47.83322" lon="1.9641">
        <ele>102</ele>
        <time>2017-01-22T10:00:44.130Z</time>
      </trkpt>
      <trkpt lat="47.83323" lon="1.96396">
        <ele>103</ele>
        <time>2017-01-22T10:00:45.136Z</time>
      </trkpt>
      <trkpt lat="47.83324" lon="1.96389">
        <ele>103</ele>
        <time>2017-01-22T10:00:46.155Z</time>
      </trkpt>
      <trkpt lat="47.83324" lon="1.96389">
        <ele>103</ele>
        <time>2017-01-22T10:00:47.131Z</time>
      </trkpt>
      <trkpt lat="47.83325" lon="1.96377">
        <ele>102</ele>
        <time>2017-01-22T10:00:48.137Z</time>
      </trkpt>
      <trkpt lat="47.83325" lon="1.96371">
        <ele>103</ele>
        <time>2017-01-22T10:00:49.137Z</time>
      </trkpt>
      <trkpt lat="47.83325" lon="1.96371">
        <ele>103</ele>
        <time>2017-01-22T10:00:50.123Z</time>
      </trkpt>
      <trkpt lat="47.8332" lon="1.96363">
        <ele>103</ele>
        <time>2017-01-22T10:00:51.137Z</time>
      </trkpt>
      <trkpt lat="47.83317" lon="1.9636">
        <ele>102</ele>
        <time>2017-01-22T10:00:52.149Z</time>
      </trkpt>
      <trkpt lat="47.83317" lon="1.9636">
        <ele>102</ele>
        <time>2017-01-22T10:00:53.126Z</time>
      </trkpt>
      <trkpt lat="47.83308" lon="1.96355">
        <ele>103</ele>
        <time>2017-01-22T10:00:54.133Z</time>
      </trkpt>
      <trkpt lat="47.83308" lon="1.96355">
        <ele>103</ele>
        <time>2017-01-22T10:00:55.118Z</time>
      </trkpt>
      <trkpt lat="47.83299" lon="1.9635">
        <ele>103</ele>
        <time>2017-01-22T10:00:56.125Z</time>
      </trkpt>
      <trkpt lat="47.83299" lon="1.9635">
        <ele>103</ele>
        <time>2017-01-22T10:00:57.153Z</time>
      </trkpt>
      <trkpt lat="47.83292" lon="1.96345">
        <ele>103</ele>
        <time>2017-01-22T10:00:58.121Z</time>
      </trkpt>
      <trkpt lat="47.83292" lon="1.96345">
        <ele>103</ele>
        <time>2017-01-22T10:00:59.158Z</time>
      </trkpt>
      <trkpt lat="47.83284" lon="1.96341">
        <ele>103</ele>
        <time>2017-01-22T10:01:00.149Z</time>
      </trkpt>
      <trkpt lat="47.83284" lon="1.96341">
        <ele>103</ele>
        <time>2017-01-22T10:01:01.155Z</time>
      </trkpt>
      <trkpt lat="47.83275" lon="1.96336">
        <ele>104</ele>
        <time>2017-01-22T10:01:02.121Z</time>
      </trkpt>
      <trkpt lat="47.83275" lon="1.96336">
        <ele>104</ele>
        <time>2017-01-22T10:01:03.155Z</time>
      </trkpt>
      <trkpt lat="47.83266" lon="1.96332">
        <ele>105</ele>
        <time>2017-01-22T10:01:04.135Z</time>
      </trkpt>
      <trkpt lat="47.83262" lon="1.96329">
        <ele>105</ele>
        <time>2017-01-22T10:01:05.124Z</time>
      </trkpt>
      <trkpt lat="47.83262" lon="1.96329">
        <ele>105</ele>
        <time>2017-01-22T10:01:06.154Z</time>
      </trkpt>
      <trkpt lat="47.83254" lon="1.96323">
        <ele>106</ele>
        <time>2017-01-22T10:01:07.134Z</time>
      </trkpt>
      <trkpt lat="47.83254" lon="1.96323">
        <ele>106</ele>
        <time>2017-01-22T10:01:08.120Z</time>
      </trkpt>
      <trkpt lat="47.83245" lon="1.96319">
        <ele>106</ele>
        <time>2017-01-22T10:01:09.145Z</time>
      </trkpt>
      <trkpt lat="47.83241" lon="1.96317">
        <ele>107</ele>
        <time>2017-01-22T10:01:10.132Z</time>
      </trkpt>
      <trkpt lat="47.83241" lon="1.96317">
        <ele>107</ele>
        <time>2017-01-22T10:01:11.139Z</time>
      </trkpt>
      <trkpt lat="47.83233" lon="1.96313">
        <ele>109</ele>
        <time>2017-01-22T10:01:12.145Z</time>
      </trkpt>
      <trkpt lat="47.83233" lon="1.96313">
        <ele>109</ele>
        <time>2017-01-22T10:01:13.131Z</time>
      </trkpt>
      <trkpt lat="47.83225" lon="1.96309">
        <ele>111</ele>
        <time>2017-01-22T10:01:14.146Z</time>
      </trkpt>
      <trkpt lat="47.83221" lon="1.96306">
        <ele>111</ele>
        <time>2017-01-22T10:01:15.124Z</time>
      </trkpt>
      <trkpt lat="47.83221" lon="1.96306">
        <ele>111</ele>
        <time>2017-01-22T10:01:16.153Z</time>
      </trkpt>
      <trkpt lat="47.83212" lon="1.963">
        <ele>111</ele>
        <time>2017-01-22T10:01:17.120Z</time>
      </trkpt>
      <trkpt lat="47.83212" lon="1.963">
        <ele>111</ele>
        <time>2017-01-22T10:01:18.150Z</time>
      </trkpt>
      <trkpt lat="47.83203" lon="1.96295">
        <ele>111</ele>
        <time>2017-01-22T10:01:19.155Z</time>
      </trkpt>
      <trkpt lat="47.83203" lon="1.96295">
        <ele>111</ele>
        <time>2017-01-22T10:01:20.140Z</time>
      </trkpt>
      <trkpt lat="47.83195" lon="1.96291">
        <ele>111</ele>
        <time>2017-01-22T10:01:21.156Z</time>
      </trkpt>
      <trkpt lat="47.83192" lon="1.96287">
        <ele>111</ele>
        <time>2017-01-22T10:01:22.155Z</time>
      </trkpt>
      <trkpt lat="47.83192" lon="1.96287">
        <ele>111</ele>
        <time>2017-01-22T10:01:23.134Z</time>
      </trkpt>
      <trkpt lat="47.83191" lon="1.96276">
        <ele>112</ele>
        <time>2017-01-22T10:01:24.157Z</time>
      </trkpt>
      <trkpt lat="47.83191" lon="1.96276">
        <ele>112</ele>
        <time>2017-01-22T10:01:25.141Z</time>
      </trkpt>
      <trkpt lat="47.83193" lon="1.96264">
        <ele>111</ele>
        <time>2017-01-22T10:01:26.125Z</time>
      </trkpt>
      <trkpt lat="47.83193" lon="1.96264">
        <ele>111</ele>
        <time>2017-01-22T10:01:27.137Z</time>
      </trkpt>
      <trkpt lat="47.83196" lon="1.96251">
        <ele>111</ele>
        <time>2017-01-22T10:01:28.144Z</time>
      </trkpt>
      <trkpt lat="47.83196" lon="1.96251">
        <ele>111</ele>
        <time>2017-01-22T10:01:29.127Z</time>
      </trkpt>
      <trkpt lat="47.83199" lon="1.96237">
        <ele>110</ele>
        <time>2017-01-22T10:01:30.125Z</time>
      </trkpt>
      <trkpt lat="47.83199" lon="1.96237">
        <ele>110</ele>
        <time>2017-01-22T10:01:31.153Z</time>
      </trkpt>
      <trkpt lat="47.83202" lon="1.96224">
        <ele>110</ele>
        <time>2017-01-22T10:01:32.119Z</time>
      </trkpt>
      <trkpt lat="47.83202" lon="1.96224">
        <ele>110</ele>
        <time>2017-01-22T10:01:33.136Z</time>
      </trkpt>
      <trkpt lat="47.83204" lon="1.96212">
        <ele>109</ele>
        <time>2017-01-22T10:01:34.132Z</time>
      </trkpt>
      <trkpt lat="47.83204" lon="1.96212">
        <ele>109</ele>
        <time>2017-01-22T10:01:35.156Z</time>
      </trkpt>
      <trkpt lat="47.83206" lon="1.96201">
        <ele>109</ele>
        <time>2017-01-22T10:01:36.123Z</time>
      </trkpt>
      <trkpt lat="47.83207" lon="1.96195">
        <ele>109</ele>
        <time>2017-01-22T10:01:37.134Z</time>
      </trkpt>
      <trkpt lat="47.83207" lon="1.96195">
        <ele>109</ele>
        <time>2017-01-22T10:01:38.138Z</time>
      </trkpt>
      <trkpt lat="47.83206" lon="1.96186">
        <ele>108</ele>
        <time>2017-01-22T10:01:39.146Z</time>
      </trkpt>
      <trkpt lat="47.83202" lon="1.96185">
        <ele>108</ele>
        <time>2017-01-22T10:01:40.155Z</time>
      </trkpt>
      <trkpt lat="47.83199" lon="1.96183">
        <ele>107</ele>
        <time>2017-01-22T10:01:41.157Z</time>
      </trkpt>
      <trkpt lat="47.83199" lon="1.96183">
        <ele>107</ele>
        <time>2017-01-22T10:01:42.138Z</time>
      </trkpt>
      <trkpt lat="47.83191" lon="1.96179">
        <ele>107</ele>
        <time>2017-01-22T10:01:43.165Z</time>
      </trkpt>
      <trkpt lat="47.83191" lon="1.96179">
        <ele>107</ele>
        <time>2017-01-22T10:01:44.128Z</time>
      </trkpt>
      <trkpt lat="47.83184" lon="1.96174">
        <ele>106</ele>
        <time>2017-01-22T10:01:45.134Z</time>
      </trkpt>
      <trkpt lat="47.8318" lon="1.96172">
        <ele>106</ele>
        <time>2017-01-22T10:01:46.153Z</time>
      </trkpt>
      <trkpt lat="47.8318" lon="1.96172">
        <ele>106</ele>
        <time>2017-01-22T10:01:47.121Z</time>
      </trkpt>
      <trkpt lat="47.83172" lon="1.96167">
        <ele>106</ele>
        <time>2017-01-22T10:01:48.145Z</time>
      </trkpt>
      <trkpt lat="47.83172" lon="1.96167">
        <ele>106</ele>
        <time>2017-01-22T10:01:49.142Z</time>
      </trkpt>
      <trkpt lat="47.83165" lon="1.96163">
        <ele>107</ele>
        <time>2017-01-22T10:01:50.155Z</time>
      </trkpt>
      <trkpt lat="47.83165" lon="1.96163">
        <ele>107</ele>
        <time>2017-01-22T10:01:51.121Z</time>
      </trkpt>
      <trkpt lat="47.83157" lon="1.96158">
        <ele>107</ele>
        <time>2017-01-22T10:01:52.155Z</time>
      </trkpt>
      <trkpt lat="47.83157" lon="1.96158">
        <ele>107</ele>
        <time>2017-01-22T10:01:53.139Z</time>
      </trkpt>
      <trkpt lat="47.8315" lon="1.96152">
        <ele>107</ele>
        <time>2017-01-22T10:01:54.123Z</time>
      </trkpt>
      <trkpt lat="47.83147" lon="1.9615">
        <ele>107</ele>
        <time>2017-01-22T10:01:55.133Z</time>
      </trkpt>
      <trkpt lat="47.83147" lon="1.9615">
        <ele>107</ele>
        <time>2017-01-22T10:01:56.143Z</time>
      </trkpt>
      <trkpt lat="47.83139" lon="1.96148">
        <ele>109</ele>
        <time>2017-01-22T10:01:57.155Z</time>
      </trkpt>
      <trkpt lat="47.83136" lon="1.96146">
        <ele>109</ele>
        <time>2017-01-22T10:01:58.139Z</time>
      </trkpt>
      <trkpt lat="47.83136" lon="1.96146">
        <ele>109</ele>
        <time>2017-01-22T10:01:59.124Z</time>
      </trkpt>
      <trkpt lat="47.83128" lon="1.96141">
        <ele>109</ele>
        <time>2017-01-22T10:02:00.154Z</time>
      </trkpt>
      <trkpt lat="47.83125" lon="1.96139">
        <ele>109</ele>
        <time>2017-01-22T10:02:01.143Z</time>
      </trkpt>
      <trkpt lat="47.8312" lon="1.96137">
        <ele>109</ele>
        <time>2017-01-22T10:02:02.130Z</time>
      </trkpt>
      <trkpt lat="47.8312" lon="1.96137">
        <ele>109</ele>
        <time>2017-01-22T10:02:03.122Z</time>
      </trkpt>
      <trkpt lat="47.83112" lon="1.96133">
        <ele>110</ele>
        <time>2017-01-22T10:02:04.142Z</time>
      </trkpt>
      <trkpt lat="47.83109" lon="1.96132">
        <ele>110</ele>
        <time>2017-01-22T10:02:05.157Z</time>
      </trkpt>
      <trkpt lat="47.83109" lon="1.96132">
        <ele>110</ele>
        <time>2017-01-22T10:02:06.133Z</time>
      </trkpt>
      <trkpt lat="47.83102" lon="1.96128">
        <ele>110</ele>
        <time>2017-01-22T10:02:07.122Z</time>
      </trkpt>
      <trkpt lat="47.83102" lon="1.96128">
        <ele>110</ele>
        <time>2017-01-22T10:02:08.153Z</time>
      </trkpt>
      <trkpt lat="47.83096" lon="1.96128">
        <ele>110</ele>
        <time>2017-01-22T10:02:09.121Z</time>
      </trkpt>
      <trkpt lat="47.83093" lon="1.96128">
        <ele>110</ele>
        <time>2017-01-22T10:02:10.130Z</time>
      </trkpt>
      <trkpt lat="47.83093" lon="1.96128">
        <ele>110</ele>
        <time>2017-01-22T10:02:11.150Z</time>
      </trkpt>
      <trkpt lat="47.83087" lon="1.9613">
        <ele>110</ele>
        <time>2017-01-22T10:02:12.157Z</time>
      </trkpt>
      <trkpt lat="47.83087" lon="1.9613">
        <ele>110</ele>
        <time>2017-01-22T10:02:13.123Z</time>
      </trkpt>
      <trkpt lat="47.83082" lon="1.96133">
        <ele>110</ele>
        <time>2017-01-22T10:02:14.125Z</time>
      </trkpt>
      <trkpt lat="47.83082" lon="1.96133">
        <ele>110</ele>
        <time>2017-01-22T10:02:15.141Z</time>
      </trkpt>
      <trkpt lat="47.83077" lon="1.96139">
        <ele>110</ele>
        <time>2017-01-22T10:02:16.155Z</time>
      </trkpt>
      <trkpt lat="47.83075" lon="1.96142">
        <ele>110</ele>
        <time>2017-01-22T10:02:17.125Z</time>
      </trkpt>
      <trkpt lat="47.83075" lon="1.96142">
        <ele>110</ele>
        <time>2017-01-22T10:02:18.153Z</time>
      </trkpt>
      <trkpt lat="47.83071" lon="1.96146">
        <ele>110</ele>
        <time>2017-01-22T10:02:19.120Z</time>
      </trkpt>
      <trkpt lat="47.83069" lon="1.96148">
        <ele>110</ele>
        <time>2017-01-22T10:02:20.156Z</time>
      </trkpt>
      <trkpt lat="47.83069" lon="1.96148">
        <ele>110</ele>
        <time>2017-01-22T10:02:21.141Z</time>
      </trkpt>
      <trkpt lat="47.83063" lon="1.96152">
        <ele>110</ele>
        <time>2017-01-22T10:02:22.154Z</time>
      </trkpt>
      <trkpt lat="47.83063" lon="1.96152">
        <ele>110</ele>
        <time>2017-01-22T10:02:23.156Z</time>
      </trkpt>
      <trkpt lat="47.83059" lon="1.96157">
        <ele>110</ele>
        <time>2017-01-22T10:02:24.157Z</time>
      </trkpt>
      <trkpt lat="47.83057" lon="1.9616">
        <ele>109</ele>
        <time>2017-01-22T10:02:25.147Z</time>
      </trkpt>
      <trkpt lat="47.83057" lon="1.9616">
        <ele>109</ele>
        <time>2017-01-22T10:02:26.119Z</time>
      </trkpt>
      <trkpt lat="47.83052" lon="1.96166">
        <ele>109</ele>
        <time>2017-01-22T10:02:27.125Z</time>
      </trkpt>
      <trkpt lat="47.83052" lon="1.96166">
        <ele>109</ele>
        <time>2017-01-22T10:02:28.152Z</time>
      </trkpt>
      <trkpt lat="47.83046" lon="1.96169">
        <ele>108</ele>
        <time>2017-01-22T10:02:29.145Z</time>
      </trkpt>
      <trkpt lat="47.83046" lon="1.96169">
        <ele>108</ele>
        <time>2017-01-22T10:02:30.150Z</time>
      </trkpt>
      <trkpt lat="47.8304" lon="1.96164">
        <ele>108</ele>
        <time>2017-01-22T10:02:31.157Z</time>
      </trkpt>
      <trkpt lat="47.8304" lon="1.96164">
        <ele>108</ele>
        <time>2017-01-22T10:02:32.143Z</time>
      </trkpt>
      <trkpt lat="47.83034" lon="1.9616">
        <ele>108</ele>
        <time>2017-01-22T10:02:33.126Z</time>
      </trkpt>
      <trkpt lat="47.83031" lon="1.96159">
        <ele>107</ele>
        <time>2017-01-22T10:02:34.138Z</time>
      </trkpt>
      <trkpt lat="47.83031" lon="1.96159">
        <ele>107</ele>
        <time>2017-01-22T10:02:35.122Z</time>
      </trkpt>
      <trkpt lat="47.83025" lon="1.96163">
        <ele>108</ele>
        <time>2017-01-22T10:02:36.135Z</time>
      </trkpt>
      <trkpt lat="47.83025" lon="1.96163">
        <ele>108</ele>
        <time>2017-01-22T10:02:37.124Z</time>
      </trkpt>
      <trkpt lat="47.83021" lon="1.9617">
        <ele>108</ele>
        <time>2017-01-22T10:02:38.132Z</time>
      </trkpt>
      <trkpt lat="47.83019" lon="1.96174">
        <ele>108</ele>
        <time>2017-01-22T10:02:39.119Z</time>
      </trkpt>
      <trkpt lat="47.83019" lon="1.96174">
        <ele>108</ele>
        <time>2017-01-22T10:02:40.140Z</time>
      </trkpt>
      <trkpt lat="47.83013" lon="1.96179">
        <ele>108</ele>
        <time>2017-01-22T10:02:41.156Z</time>
      </trkpt>
      <trkpt lat="47.83013" lon="1.96179">
        <ele>108</ele>
        <time>2017-01-22T10:02:42.142Z</time>
      </trkpt>
      <trkpt lat="47.83006" lon="1.96179">
        <ele>109</ele>
        <time>2017-01-22T10:02:43.125Z</time>
      </trkpt>
      <trkpt lat="47.83006" lon="1.96179">
        <ele>109</ele>
        <time>2017-01-22T10:02:44.128Z</time>
      </trkpt>
      <trkpt lat="47.83" lon="1.96176">
        <ele>110</ele>
        <time>2017-01-22T10:02:45.155Z</time>
      </trkpt>
      <trkpt lat="47.82997" lon="1.96174">
        <ele>110</ele>
        <time>2017-01-22T10:02:46.157Z</time>
      </trkpt>
      <trkpt lat="47.82997" lon="1.96174">
        <ele>110</ele>
        <time>2017-01-22T10:02:47.144Z</time>
      </trkpt>
      <trkpt lat="47.82992" lon="1.96171">
        <ele>110</ele>
        <time>2017-01-22T10:02:48.152Z</time>
      </trkpt>
      <trkpt lat="47.82989" lon="1.96171">
        <ele>110</ele>
        <time>2017-01-22T10:02:49.135Z</time>
      </trkpt>
      <trkpt lat="47.82989" lon="1.96171">
        <ele>110</ele>
        <time>2017-01-22T10:02:50.140Z</time>
      </trkpt>
      <trkpt lat="47.82985" lon="1.96168">
        <ele>110</ele>
        <time>2017-01-22T10:02:51.151Z</time>
      </trkpt>
      <trkpt lat="47.82982" lon="1.96166">
        <ele>111</ele>
        <time>2017-01-22T10:02:52.155Z</time>
      </trkpt>
      <trkpt lat="47.82982" lon="1.96166">
        <ele>111</ele>
        <time>2017-01-22T10:02:53.141Z</time>
      </trkpt>
      <trkpt lat="47.82977" lon="1.96161">
        <ele>110</ele>
        <time>2017-01-22T10:02:54.128Z</time>
      </trkpt>
      <trkpt lat="47.82974" lon="1.9616">
        <ele>110</ele>
        <time>2017-01-22T10:02:55.133Z</time>
      </trkpt>
      <trkpt lat="47.82974" lon="1.9616">
        <ele>110</ele>
        <time>2017-01-22T10:02:56.137Z</time>
      </trkpt>
      <trkpt lat="47.82969" lon="1.96156">
        <ele>110</ele>
        <time>2017-01-22T10:02:57.145Z</time>
      </trkpt>
      <trkpt lat="47.82966" lon="1.96154">
        <ele>111</ele>
        <time>2017-01-22T10:02:58.120Z</time>
      </trkpt>
      <trkpt lat="47.82966" lon="1.96154">
        <ele>111</ele>
        <time>2017-01-22T10:02:59.146Z</time>
      </trkpt>
      <trkpt lat="47.8296" lon="1.96151">
        <ele>111</ele>
        <time>2017-01-22T10:03:00.155Z</time>
      </trkpt>
      <trkpt lat="47.82957" lon="1.96149">
        <ele>111</ele>
        <time>2017-01-22T10:03:01.157Z</time>
      </trkpt>
      <trkpt lat="47.82957" lon="1.96149">
        <ele>111</ele>
        <time>2017-01-22T10:03:02.144Z</time>
      </trkpt>
      <trkpt lat="47.82952" lon="1.96146">
        <ele>111</ele>
        <time>2017-01-22T10:03:03.155Z</time>
      </trkpt>
      <trkpt lat="47.82952" lon="1.96146">
        <ele>111</ele>
        <time>2017-01-22T10:03:04.137Z</time>
      </trkpt>
      <trkpt lat="47.82946" lon="1.96142">
        <ele>111</ele>
        <time>2017-01-22T10:03:05.148Z</time>
      </trkpt>
      <trkpt lat="47.82943" lon="1.9614">
        <ele>111</ele>
        <time>2017-01-22T10:03:06.134Z</time>
      </trkpt>
      <trkpt lat="47.8294" lon="1.96138">
        <ele>112</ele>
        <time>2017-01-22T10:03:07.152Z</time>
      </trkpt>
      <trkpt lat="47.8294" lon="1.96138">
        <ele>112</ele>
        <time>2017-01-22T10:03:08.139Z</time>
      </trkpt>
      <trkpt lat="47.82934" lon="1.96134">
        <ele>112</ele>
        <time>2017-01-22T10:03:09.154Z</time>
      </trkpt>
      <trkpt lat="47.82931" lon="1.96133">
        <ele>113</ele>
        <time>2017-01-22T10:03:10.126Z</time>
      </trkpt>
      <trkpt lat="47.82931" lon="1.96133">
        <ele>113</ele>
        <time>2017-01-22T10:03:11.154Z</time>
      </trkpt>
      <trkpt lat="47.82924" lon="1.96129">
        <ele>113</ele>
        <time>2017-01-22T10:03:12.120Z</time>
      </trkpt>
      <trkpt lat="47.8292" lon="1.96127">
        <ele>114</ele>
        <time>2017-01-22T10:03:13.135Z</time>
      </trkpt>
      <trkpt lat="47.8292" lon="1.96127">
        <ele>114</ele>
        <time>2017-01-22T10:03:14.141Z</time>
      </trkpt>
      <trkpt lat="47.82915" lon="1.96123">
        <ele>114</ele>
        <time>2017-01-22T10:03:15.149Z</time>
      </trkpt>
      <trkpt lat="47.82911" lon="1.96121">
        <ele>114</ele>
        <time>2017-01-22T10:03:16.147Z</time>
      </trkpt>
      <trkpt lat="47.82911" lon="1.96121">
        <ele>114</ele>
        <time>2017-01-22T10:03:17.133Z</time>
      </trkpt>
      <trkpt lat="47.82904" lon="1.96117">
        <ele>115</ele>
        <time>2017-01-22T10:03:18.140Z</time>
      </trkpt>
      <trkpt lat="47.829" lon="1.96115">
        <ele>115</ele>
        <time>2017-01-22T10:03:19.142Z</time>
      </trkpt>
      <trkpt lat="47.829" lon="1.96115">
        <ele>115</ele>
        <time>2017-01-22T10:03:20.128Z</time>
      </trkpt>
      <trkpt lat="47.82894" lon="1.9611">
        <ele>116</ele>
        <time>2017-01-22T10:03:21.135Z</time>
      </trkpt>
      <trkpt lat="47.8289" lon="1.96108">
        <ele>116</ele>
        <time>2017-01-22T10:03:22.144Z</time>
      </trkpt>
      <trkpt lat="47.8289" lon="1.96108">
        <ele>116</ele>
        <time>2017-01-22T10:03:23.130Z</time>
      </trkpt>
      <trkpt lat="47.82886" lon="1.96102">
        <ele>117</ele>
        <time>2017-01-22T10:03:24.137Z</time>
      </trkpt>
      <trkpt lat="47.82886" lon="1.96098">
        <ele>117</ele>
        <time>2017-01-22T10:03:25.134Z</time>
      </trkpt>
      <trkpt lat="47.82886" lon="1.96098">
        <ele>117</ele>
        <time>2017-01-22T10:03:26.120Z</time>
      </trkpt>
      <trkpt lat="47.82888" lon="1.96091">
        <ele>117</ele>
        <time>2017-01-22T10:03:27.126Z</time>
      </trkpt>
      <trkpt lat="47.82889" lon="1.96087">
        <ele>117</ele>
        <time>2017-01-22T10:03:28.155Z</time>
      </trkpt>
      <trkpt lat="47.82889" lon="1.96087">
        <ele>117</ele>
        <time>2017-01-22T10:03:29.128Z</time>
      </trkpt>
      <trkpt lat="47.82892" lon="1.96079">
        <ele>117</ele>
        <time>2017-01-22T10:03:30.142Z</time>
      </trkpt>
      <trkpt lat="47.82892" lon="1.96075">
        <ele>117</ele>
        <time>2017-01-22T10:03:31.130Z</time>
      </trkpt>
      <trkpt lat="47.82892" lon="1.96075">
        <ele>117</ele>
        <time>2017-01-22T10:03:32.153Z</time>
      </trkpt>
      <trkpt lat="47.82895" lon="1.96067">
        <ele>116</ele>
        <time>2017-01-22T10:03:33.155Z</time>
      </trkpt>
      <trkpt lat="47.82897" lon="1.96064">
        <ele>116</ele>
        <time>2017-01-22T10:03:34.141Z</time>
      </trkpt>
      <trkpt lat="47.82897" lon="1.96064">
        <ele>116</ele>
        <time>2017-01-22T10:03:35.127Z</time>
      </trkpt>
      <trkpt lat="47.82901" lon="1.96057">
        <ele>115</ele>
        <time>2017-01-22T10:03:36.144Z</time>
      </trkpt>
      <trkpt lat="47.82903" lon="1.96053">
        <ele>115</ele>
        <time>2017-01-22T10:03:37.155Z</time>
      </trkpt>
      <trkpt lat="47.82903" lon="1.96053">
        <ele>115</ele>
        <time>2017-01-22T10:03:38.139Z</time>
      </trkpt>
      <trkpt lat="47.82906" lon="1.96045">
        <ele>115</ele>
        <time>2017-01-22T10:03:39.155Z</time>
      </trkpt>
      <trkpt lat="47.82906" lon="1.96045">
        <ele>115</ele>
        <time>2017-01-22T10:03:40.141Z</time>
      </trkpt>
      <trkpt lat="47.8291" lon="1.96037">
        <ele>114</ele>
        <time>2017-01-22T10:03:41.155Z</time>
      </trkpt>
      <trkpt lat="47.8291" lon="1.96037">
        <ele>114</ele>
        <time>2017-01-22T10:03:42.139Z</time>
      </trkpt>
      <trkpt lat="47.82913" lon="1.96029">
        <ele>113</ele>
        <time>2017-01-22T10:03:43.119Z</time>
      </trkpt>
      <trkpt lat="47.82913" lon="1.96029">
        <ele>113</ele>
        <time>2017-01-22T10:03:44.156Z</time>
      </trkpt>
      <trkpt lat="47.82917" lon="1.96021">
        <ele>113</ele>
        <time>2017-01-22T10:03:45.125Z</time>
      </trkpt>
      <trkpt lat="47.82919" lon="1.96016">
        <ele>112</ele>
        <time>2017-01-22T10:03:46.154Z</time>
      </trkpt>
      <trkpt lat="47.82919" lon="1.96016">
        <ele>112</ele>
        <time>2017-01-22T10:03:47.139Z</time>
      </trkpt>
      <trkpt lat="47.82923" lon="1.96008">
        <ele>111</ele>
        <time>2017-01-22T10:03:48.146Z</time>
      </trkpt>
      <trkpt lat="47.82923" lon="1.96008">
        <ele>111</ele>
        <time>2017-01-22T10:03:49.131Z</time>
      </trkpt>
      <trkpt lat="47.82927" lon="1.95999">
        <ele>111</ele>
        <time>2017-01-22T10:03:50.139Z</time>
      </trkpt>
      <trkpt lat="47.8293" lon="1.95994">
        <ele>110</ele>
        <time>2017-01-22T10:03:51.122Z</time>
      </trkpt>
      <trkpt lat="47.82932" lon="1.9599">
        <ele>110</ele>
        <time>2017-01-22T10:03:52.131Z</time>
      </trkpt>
      <trkpt lat="47.82932" lon="1.9599">
        <ele>110</ele>
        <time>2017-01-22T10:03:53.157Z</time>
      </trkpt>
      <trkpt lat="47.82937" lon="1.95981">
        <ele>109</ele>
        <time>2017-01-22T10:03:54.152Z</time>
      </trkpt>
      <trkpt lat="47.82937" lon="1.95981">
        <ele>109</ele>
        <time>2017-01-22T10:03:55.121Z</time>
      </trkpt>
      <trkpt lat="47.82942" lon="1.95971">
        <ele>108</ele>
        <time>2017-01-22T10:03:56.129Z</time>
      </trkpt>
      <trkpt lat="47.82942" lon="1.95971">
        <ele>108</ele>
        <time>2017-01-22T10:03:57.140Z</time>
      </trkpt>
      <trkpt lat="47.82946" lon="1.95962">
        <ele>108</ele>
        <time>2017-01-22T10:03:58.155Z</time>
      </trkpt>
      <trkpt lat="47.82946" lon="1.95962">
        <ele>108</ele>
        <time>2017-01-22T10:03:59.129Z</time>
      </trkpt>
      <trkpt lat="47.82951" lon="1.95952">
        <ele>107</ele>
        <time>2017-01-22T10:04:00.155Z</time>
      </trkpt>
      <trkpt lat="47.82954" lon="1.95948">
        <ele>107</ele>
        <time>2017-01-22T10:04:01.141Z</time>
      </trkpt>
      <trkpt lat="47.82954" lon="1.95948">
        <ele>107</ele>
        <time>2017-01-22T10:04:02.126Z</time>
      </trkpt>
      <trkpt lat="47.82958" lon="1.95938">
        <ele>105</ele>
        <time>2017-01-22T10:04:03.150Z</time>
      </trkpt>
      <trkpt lat="47.82958" lon="1.95938">
        <ele>105</ele>
        <time>2017-01-22T10:04:04.136Z</time>
      </trkpt>
      <trkpt lat="47.82962" lon="1.95927">
        <ele>105</ele>
        <time>2017-01-22T10:04:05.152Z</time>
      </trkpt>
      <trkpt lat="47.82962" lon="1.95927">
        <ele>105</ele>
        <time>2017-01-22T10:04:06.139Z</time>
      </trkpt>
      <trkpt lat="47.82967" lon="1.95917">
        <ele>103</ele>
        <time>2017-01-22T10:04:07.154Z</time>
      </trkpt>
      <trkpt lat="47.82967" lon="1.95917">
        <ele>103</ele>
        <time>2017-01-22T10:04:08.139Z</time>
      </trkpt>
      <trkpt lat="47.8297" lon="1.95909">
        <ele>103</ele>
        <time>2017-01-22T10:04:09.128Z</time>
      </trkpt>
      <trkpt lat="47.8297" lon="1.95909">
        <ele>103</ele>
        <time>2017-01-22T10:04:10.133Z</time>
      </trkpt>
      <trkpt lat="47.82972" lon="1.95905">
        <ele>102</ele>
        <time>2017-01-22T10:04:11.140Z</time>
      </trkpt>
      <trkpt lat="47.82971" lon="1.95905">
        <ele>102</ele>
        <time>2017-01-22T10:04:12.145Z</time>
      </trkpt>
      <trkpt lat="47.82971" lon="1.95905">
        <ele>102</ele>
        <time>2017-01-22T10:04:13.153Z</time>
      </trkpt>
      <trkpt lat="47.82971" lon="1.95904">
        <ele>102</ele>
        <time>2017-01-22T10:04:14.141Z</time>
      </trkpt>
      <trkpt lat="47.82971" lon="1.95904">
        <ele>102</ele>
        <time>2017-01-22T10:04:15.140Z</time>
      </trkpt>
      <trkpt lat="47.82975" lon="1.95896">
        <ele>103</ele>
        <time>2017-01-22T10:04:16.141Z</time>
      </trkpt>
      <trkpt lat="47.82975" lon="1.95896">
        <ele>103</ele>
        <time>2017-01-22T10:04:17.139Z</time>
      </trkpt>
      <trkpt lat="47.82976" lon="1.95892">
        <ele>103</ele>
        <time>2017-01-22T10:04:18.138Z</time>
      </trkpt>
      <trkpt lat="47.82976" lon="1.95892">
        <ele>103</ele>
        <time>2017-01-22T10:04:19.138Z</time>
      </trkpt>
      <trkpt lat="47.82979" lon="1.95884">
        <ele>103</ele>
        <time>2017-01-22T10:04:20.144Z</time>
      </trkpt>
      <trkpt lat="47.82984" lon="1.95873">
        <ele>103</ele>
        <time>2017-01-22T10:04:21.150Z</time>
      </trkpt>
      <trkpt lat="47.82986" lon="1.95868">
        <ele>103</ele>
        <time>2017-01-22T10:04:22.144Z</time>
      </trkpt>
      <trkpt lat="47.82988" lon="1.95862">
        <ele>103</ele>
        <time>2017-01-22T10:04:23.157Z</time>
      </trkpt>
      <trkpt lat="47.82988" lon="1.95862">
        <ele>103</ele>
        <time>2017-01-22T10:04:24.154Z</time>
      </trkpt>
      <trkpt lat="47.82988" lon="1.95862">
        <ele>103</ele>
        <time>2017-01-22T10:04:25.126Z</time>
      </trkpt>
      <trkpt lat="47.82995" lon="1.9585">
        <ele>103</ele>
        <time>2017-01-22T10:04:26.130Z</time>
      </trkpt>
      <trkpt lat="47.82995" lon="1.9585">
        <ele>103</ele>
        <time>2017-01-22T10:04:27.136Z</time>
      </trkpt>
      <trkpt lat="47.83002" lon="1.9584">
        <ele>103</ele>
        <time>2017-01-22T10:04:28.133Z</time>
      </trkpt>
      <trkpt lat="47.83009" lon="1.95829">
        <ele>102</ele>
        <time>2017-01-22T10:04:29.140Z</time>
      </trkpt>
      <trkpt lat="47.83009" lon="1.95829">
        <ele>102</ele>
        <time>2017-01-22T10:04:30.147Z</time>
      </trkpt>
      <trkpt lat="47.83009" lon="1.95829">
        <ele>102</ele>
        <time>2017-01-22T10:04:31.119Z</time>
      </trkpt>
      <trkpt lat="47.83014" lon="1.95817">
        <ele>102</ele>
        <time>2017-01-22T10:04:32.144Z</time>
      </trkpt>
      <trkpt lat="47.83021" lon="1.95805">
        <ele>101</ele>
        <time>2017-01-22T10:04:33.149Z</time>
      </trkpt>
      <trkpt lat="47.83021" lon="1.95805">
        <ele>101</ele>
        <time>2017-01-22T10:04:34.127Z</time>
      </trkpt>
      <trkpt lat="47.83021" lon="1.95805">
        <ele>101</ele>
        <time>2017-01-22T10:04:35.140Z</time>
      </trkpt>
      <trkpt lat="47.83026" lon="1.95795">
        <ele>101</ele>
        <time>2017-01-22T10:04:36.125Z</time>
      </trkpt>
      <trkpt lat="47.83031" lon="1.95784">
        <ele>101</ele>
        <time>2017-01-22T10:04:37.138Z</time>
      </trkpt>
      <trkpt lat="47.83031" lon="1.95784">
        <ele>101</ele>
        <time>2017-01-22T10:04:38.140Z</time>
      </trkpt>
      <trkpt lat="47.83033" lon="1.95777">
        <ele>100</ele>
        <time>2017-01-22T10:04:39.134Z</time>
      </trkpt>
      <trkpt lat="47.83039" lon="1.95765">
        <ele>100</ele>
        <time>2017-01-22T10:04:40.140Z</time>
      </trkpt>
      <trkpt lat="47.83039" lon="1.95765">
        <ele>100</ele>
        <time>2017-01-22T10:04:41.126Z</time>
      </trkpt>
      <trkpt lat="47.83042" lon="1.9576">
        <ele>100</ele>
        <time>2017-01-22T10:04:42.146Z</time>
      </trkpt>
      <trkpt lat="47.83042" lon="1.9576">
        <ele>100</ele>
        <time>2017-01-22T10:04:43.120Z</time>
      </trkpt>
      <trkpt lat="47.83048" lon="1.95744">
        <ele>99</ele>
        <time>2017-01-22T10:04:44.136Z</time>
      </trkpt>
      <trkpt lat="47.83048" lon="1.95744">
        <ele>99</ele>
        <time>2017-01-22T10:04:45.141Z</time>
      </trkpt>
      <trkpt lat="47.83048" lon="1.95744">
        <ele>99</ele>
        <time>2017-01-22T10:04:46.125Z</time>
      </trkpt>
      <trkpt lat="47.83048" lon="1.95732">
        <ele>99</ele>
        <time>2017-01-22T10:04:47.145Z</time>
      </trkpt>
      <trkpt lat="47.83044" lon="1.95724">
        <ele>99</ele>
        <time>2017-01-22T10:04:48.155Z</time>
      </trkpt>
      <trkpt lat="47.83044" lon="1.95724">
        <ele>99</ele>
        <time>2017-01-22T10:04:49.140Z</time>
      </trkpt>
      <trkpt lat="47.83038" lon="1.9572">
        <ele>99</ele>
        <time>2017-01-22T10:04:50.176Z</time>
      </trkpt>
      <trkpt lat="47.83038" lon="1.9572">
        <ele>99</ele>
        <time>2017-01-22T10:04:51.123Z</time>
      </trkpt>
      <trkpt lat="47.83038" lon="1.9572">
        <ele>99</ele>
        <time>2017-01-22T10:04:52.133Z</time>
      </trkpt>
      <trkpt lat="47.83029" lon="1.95719">
        <ele>99</ele>
        <time>2017-01-22T10:04:53.139Z</time>
      </trkpt>
      <trkpt lat="47.83021" lon="1.95717">
        <ele>99</ele>
        <time>2017-01-22T10:04:54.193Z</time>
      </trkpt>
      <trkpt lat="47.83021" lon="1.95717">
        <ele>99</ele>
        <time>2017-01-22T10:04:55.129Z</time>
      </trkpt>
      <trkpt lat="47.83021" lon="1.95717">
        <ele>99</ele>
        <time>2017-01-22T10:04:56.136Z</time>
      </trkpt>
      <trkpt lat="47.83013" lon="1.95716">
        <ele>98</ele>
        <time>2017-01-22T10:04:57.133Z</time>
      </trkpt>
      <trkpt lat="47.83004" lon="1.95716">
        <ele>98</ele>
        <time>2017-01-22T10:04:58.173Z</time>
      </trkpt>
      <trkpt lat="47.83004" lon="1.95716">
        <ele>98</ele>
        <time>2017-01-22T10:04:59.120Z</time>
      </trkpt>
      <trkpt lat="47.82999" lon="1.95716">
        <ele>98</ele>
        <time>2017-01-22T10:05:00.135Z</time>
      </trkpt>
      <trkpt lat="47.82999" lon="1.95716">
        <ele>98</ele>
        <time>2017-01-22T10:05:01.141Z</time>
      </trkpt>
      <trkpt lat="47.82986" lon="1.95714">
        <ele>98</ele>
        <time>2017-01-22T10:05:02.143Z</time>
      </trkpt>
      <trkpt lat="47.82986" lon="1.95714">
        <ele>98</ele>
        <time>2017-01-22T10:05:03.137Z</time>
      </trkpt>
      <trkpt lat="47.82986" lon="1.95714">
        <ele>98</ele>
        <time>2017-01-22T10:05:04.129Z</time>
      </trkpt>
      <trkpt lat="47.82978" lon="1.95713">
        <ele>98</ele>
        <time>2017-01-22T10:05:05.140Z</time>
      </trkpt>
      <trkpt lat="47.82978" lon="1.95713">
        <ele>98</ele>
        <time>2017-01-22T10:05:06.129Z</time>
      </trkpt>
      <trkpt lat="47.82981" lon="1.95707">
        <ele>98</ele>
        <time>2017-01-22T10:05:07.136Z</time>
      </trkpt>
      <trkpt lat="47.82981" lon="1.95707">
        <ele>98</ele>
        <time>2017-01-22T10:05:08.125Z</time>
      </trkpt>
      <trkpt lat="47.82987" lon="1.95703">
        <ele>98</ele>
        <time>2017-01-22T10:05:09.135Z</time>
      </trkpt>
      <trkpt lat="47.82987" lon="1.95703">
        <ele>98</ele>
        <time>2017-01-22T10:05:10.118Z</time>
      </trkpt>
      <trkpt lat="47.8299" lon="1.957">
        <ele>99</ele>
        <time>2017-01-22T10:05:11.143Z</time>
      </trkpt>
      <trkpt lat="47.8299" lon="1.957">
        <ele>99</ele>
        <time>2017-01-22T10:05:12.155Z</time>
      </trkpt>
      <trkpt lat="47.82996" lon="1.95691">
        <ele>98</ele>
        <time>2017-01-22T10:05:13.150Z</time>
      </trkpt>
      <trkpt lat="47.83002" lon="1.95682">
        <ele>98</ele>
        <time>2017-01-22T10:05:14.157Z</time>
      </trkpt>
      <trkpt lat="47.83002" lon="1.95682">
        <ele>98</ele>
        <time>2017-01-22T10:05:15.143Z</time>
      </trkpt>
      <trkpt lat="47.83002" lon="1.95682">
        <ele>98</ele>
        <time>2017-01-22T10:05:16.140Z</time>
      </trkpt>
      <trkpt lat="47.83008" lon="1.95672">
        <ele>98</ele>
        <time>2017-01-22T10:05:17.153Z</time>
      </trkpt>
      <trkpt lat="47.83008" lon="1.95672">
        <ele>98</ele>
        <time>2017-01-22T10:05:18.119Z</time>
      </trkpt>
      <trkpt lat="47.83014" lon="1.95661">
        <ele>99</ele>
        <time>2017-01-22T10:05:19.132Z</time>
      </trkpt>
      <trkpt lat="47.83014" lon="1.95661">
        <ele>99</ele>
        <time>2017-01-22T10:05:20.141Z</time>
      </trkpt>
      <trkpt lat="47.83019" lon="1.95651">
        <ele>99</ele>
        <time>2017-01-22T10:05:21.141Z</time>
      </trkpt>
      <trkpt lat="47.83024" lon="1.95641">
        <ele>99</ele>
        <time>2017-01-22T10:05:22.147Z</time>
      </trkpt>
      <trkpt lat="47.83024" lon="1.95641">
        <ele>99</ele>
        <time>2017-01-22T10:05:23.124Z</time>
      </trkpt>
      <trkpt lat="47.83024" lon="1.95641">
        <ele>99</ele>
        <time>2017-01-22T10:05:24.133Z</time>
      </trkpt>
      <trkpt lat="47.83029" lon="1.95631">
        <ele>99</ele>
        <time>2017-01-22T10:05:25.146Z</time>
      </trkpt>
      <trkpt lat="47.83035" lon="1.95622">
        <ele>99</ele>
        <time>2017-01-22T10:05:26.154Z</time>
      </trkpt>
      <trkpt lat="47.83035" lon="1.95622">
        <ele>99</ele>
        <time>2017-01-22T10:05:27.139Z</time>
      </trkpt>
      <trkpt lat="47.83035" lon="1.95622">
        <ele>99</ele>
        <time>2017-01-22T10:05:28.149Z</time>
      </trkpt>
      <trkpt lat="47.8304" lon="1.95612">
        <ele>99</ele>
        <time>2017-01-22T10:05:29.131Z</time>
      </trkpt>
      <trkpt lat="47.83047" lon="1.95603">
        <ele>99</ele>
        <time>2017-01-22T10:05:30.142Z</time>
      </trkpt>
      <trkpt lat="47.83047" lon="1.95603">
        <ele>99</ele>
        <time>2017-01-22T10:05:31.132Z</time>
      </trkpt>
      <trkpt lat="47.83053" lon="1.95595">
        <ele>99</ele>
        <time>2017-01-22T10:05:32.138Z</time>
      </trkpt>
      <trkpt lat="47.83053" lon="1.95595">
        <ele>99</ele>
        <time>2017-01-22T10:05:33.148Z</time>
      </trkpt>
      <trkpt lat="47.83059" lon="1.95586">
        <ele>99</ele>
        <time>2017-01-22T10:05:34.203Z</time>
      </trkpt>
      <trkpt lat="47.83059" lon="1.95586">
        <ele>99</ele>
        <time>2017-01-22T10:05:35.132Z</time>
      </trkpt>
      <trkpt lat="47.83064" lon="1.95577">
        <ele>100</ele>
        <time>2017-01-22T10:05:36.138Z</time>
      </trkpt>
      <trkpt lat="47.83064" lon="1.95577">
        <ele>100</ele>
        <time>2017-01-22T10:05:37.130Z</time>
      </trkpt>
      <trkpt lat="47.83064" lon="1.95577">
        <ele>100</ele>
        <time>2017-01-22T10:05:38.139Z</time>
      </trkpt>
      <trkpt lat="47.83069" lon="1.95568">
        <ele>100</ele>
        <time>2017-01-22T10:05:39.140Z</time>
      </trkpt>
      <trkpt lat="47.83073" lon="1.95559">
        <ele>100</ele>
        <time>2017-01-22T10:05:40.146Z</time>
      </trkpt>
      <trkpt lat="47.83073" lon="1.95559">
        <ele>100</ele>
        <time>2017-01-22T10:05:41.151Z</time>
      </trkpt>
      <trkpt lat="47.83073" lon="1.95559">
        <ele>100</ele>
        <time>2017-01-22T10:05:42.140Z</time>
      </trkpt>
      <trkpt lat="47.83077" lon="1.9555">
        <ele>101</ele>
        <time>2017-01-22T10:05:43.151Z</time>
      </trkpt>
      <trkpt lat="47.83079" lon="1.9554">
        <ele>101</ele>
        <time>2017-01-22T10:05:44.157Z</time>
      </trkpt>
      <trkpt lat="47.83079" lon="1.9554">
        <ele>101</ele>
        <time>2017-01-22T10:05:45.144Z</time>
      </trkpt>
      <trkpt lat="47.83075" lon="1.95536">
        <ele>102</ele>
        <time>2017-01-22T10:05:46.173Z</time>
      </trkpt>
      <trkpt lat="47.83075" lon="1.95536">
        <ele>102</ele>
        <time>2017-01-22T10:05:47.132Z</time>
      </trkpt>
      <trkpt lat="47.83071" lon="1.95533">
        <ele>102</ele>
        <time>2017-01-22T10:05:48.127Z</time>
      </trkpt>
      <trkpt lat="47.83071" lon="1.95533">
        <ele>102</ele>
        <time>2017-01-22T10:05:49.139Z</time>
      </trkpt>
      <trkpt lat="47.83061" lon="1.95524">
        <ele>103</ele>
        <time>2017-01-22T10:05:50.137Z</time>
      </trkpt>
      <trkpt lat="47.83061" lon="1.95524">
        <ele>103</ele>
        <time>2017-01-22T10:05:51.126Z</time>
      </trkpt>
      <trkpt lat="47.83055" lon="1.95517">
        <ele>104</ele>
        <time>2017-01-22T10:05:52.138Z</time>
      </trkpt>
      <trkpt lat="47.83052" lon="1.95514">
        <ele>104</ele>
        <time>2017-01-22T10:05:53.145Z</time>
      </trkpt>
      <trkpt lat="47.83052" lon="1.95514">
        <ele>104</ele>
        <time>2017-01-22T10:05:54.132Z</time>
      </trkpt>
      <trkpt lat="47.83049" lon="1.9551">
        <ele>105</ele>
        <time>2017-01-22T10:05:55.144Z</time>
      </trkpt>
      <trkpt lat="47.83043" lon="1.95503">
        <ele>106</ele>
        <time>2017-01-22T10:05:56.151Z</time>
      </trkpt>
      <trkpt lat="47.83043" lon="1.95503">
        <ele>106</ele>
        <time>2017-01-22T10:05:57.157Z</time>
      </trkpt>
      <trkpt lat="47.83043" lon="1.95503">
        <ele>106</ele>
        <time>2017-01-22T10:05:58.140Z</time>
      </trkpt>
      <trkpt lat="47.83036" lon="1.95492">
        <ele>107</ele>
        <time>2017-01-22T10:05:59.124Z</time>
      </trkpt>
      <trkpt lat="47.8303" lon="1.95487">
        <ele>108</ele>
        <time>2017-01-22T10:06:00.146Z</time>
      </trkpt>
      <trkpt lat="47.8303" lon="1.95487">
        <ele>108</ele>
        <time>2017-01-22T10:06:01.141Z</time>
      </trkpt>
      <trkpt lat="47.83024" lon="1.95482">
        <ele>108</ele>
        <time>2017-01-22T10:06:02.147Z</time>
      </trkpt>
      <trkpt lat="47.83024" lon="1.95482">
        <ele>108</ele>
        <time>2017-01-22T10:06:03.135Z</time>
      </trkpt>
      <trkpt lat="47.83018" lon="1.95474">
        <ele>110</ele>
        <time>2017-01-22T10:06:04.178Z</time>
      </trkpt>
      <trkpt lat="47.83018" lon="1.95474">
        <ele>110</ele>
        <time>2017-01-22T10:06:05.137Z</time>
      </trkpt>
      <trkpt lat="47.83011" lon="1.95467">
        <ele>111</ele>
        <time>2017-01-22T10:06:06.143Z</time>
      </trkpt>
      <trkpt lat="47.83011" lon="1.95467">
        <ele>111</ele>
        <time>2017-01-22T10:06:07.154Z</time>
      </trkpt>
      <trkpt lat="47.83008" lon="1.95463">
        <ele>111</ele>
        <time>2017-01-22T10:06:08.132Z</time>
      </trkpt>
      <trkpt lat="47.83002" lon="1.95456">
        <ele>113</ele>
        <time>2017-01-22T10:06:09.137Z</time>
      </trkpt>
      <trkpt lat="47.83002" lon="1.95456">
        <ele>113</ele>
        <time>2017-01-22T10:06:10.144Z</time>
      </trkpt>
      <trkpt lat="47.82996" lon="1.95449">
        <ele>114</ele>
        <time>2017-01-22T10:06:11.201Z</time>
      </trkpt>
      <trkpt lat="47.82996" lon="1.95449">
        <ele>114</ele>
        <time>2017-01-22T10:06:12.147Z</time>
      </trkpt>
      <trkpt lat="47.8299" lon="1.95441">
        <ele>116</ele>
        <time>2017-01-22T10:06:13.156Z</time>
      </trkpt>
      <trkpt lat="47.8299" lon="1.95441">
        <ele>116</ele>
        <time>2017-01-22T10:06:14.142Z</time>
      </trkpt>
      <trkpt lat="47.82985" lon="1.95432">
        <ele>117</ele>
        <time>2017-01-22T10:06:15.201Z</time>
      </trkpt>
      <trkpt lat="47.82985" lon="1.95432">
        <ele>117</ele>
        <time>2017-01-22T10:06:16.154Z</time>
      </trkpt>
      <trkpt lat="47.82985" lon="1.95432">
        <ele>117</ele>
        <time>2017-01-22T10:06:17.121Z</time>
      </trkpt>
      <trkpt lat="47.82979" lon="1.95424">
        <ele>119</ele>
        <time>2017-01-22T10:06:18.137Z</time>
      </trkpt>
      <trkpt lat="47.82979" lon="1.95424">
        <ele>119</ele>
        <time>2017-01-22T10:06:19.144Z</time>
      </trkpt>
      <trkpt lat="47.82969" lon="1.95414">
        <ele>121</ele>
        <time>2017-01-22T10:06:20.144Z</time>
      </trkpt>
      <trkpt lat="47.82969" lon="1.95414">
        <ele>121</ele>
        <time>2017-01-22T10:06:21.130Z</time>
      </trkpt>
      <trkpt lat="47.82969" lon="1.95414">
        <ele>121</ele>
        <time>2017-01-22T10:06:22.141Z</time>
      </trkpt>
      <trkpt lat="47.82963" lon="1.95408">
        <ele>123</ele>
        <time>2017-01-22T10:06:23.134Z</time>
      </trkpt>
      <trkpt lat="47.82957" lon="1.95401">
        <ele>124</ele>
        <time>2017-01-22T10:06:24.139Z</time>
      </trkpt>
      <trkpt lat="47.82957" lon="1.95401">
        <ele>124</ele>
        <time>2017-01-22T10:06:25.130Z</time>
      </trkpt>
      <trkpt lat="47.82957" lon="1.95401">
        <ele>124</ele>
        <time>2017-01-22T10:06:26.142Z</time>
      </trkpt>
      <trkpt lat="47.82951" lon="1.95393">
        <ele>125</ele>
        <time>2017-01-22T10:06:27.126Z</time>
      </trkpt>
      <trkpt lat="47.82944" lon="1.95377">
        <ele>126</ele>
        <time>2017-01-22T10:06:28.143Z</time>
      </trkpt>
      <trkpt lat="47.82944" lon="1.95377">
        <ele>126</ele>
        <time>2017-01-22T10:06:29.137Z</time>
      </trkpt>
      <trkpt lat="47.82944" lon="1.95377">
        <ele>126</ele>
        <time>2017-01-22T10:06:30.140Z</time>
      </trkpt>
      <trkpt lat="47.82935" lon="1.95367">
        <ele>127</ele>
        <time>2017-01-22T10:06:31.127Z</time>
      </trkpt>
      <trkpt lat="47.82929" lon="1.9536">
        <ele>129</ele>
        <time>2017-01-22T10:06:32.137Z</time>
      </trkpt>
      <trkpt lat="47.82929" lon="1.9536">
        <ele>129</ele>
        <time>2017-01-22T10:06:33.156Z</time>
      </trkpt>
      <trkpt lat="47.82929" lon="1.9536">
        <ele>129</ele>
        <time>2017-01-22T10:06:34.137Z</time>
      </trkpt>
      <trkpt lat="47.82922" lon="1.95352">
        <ele>130</ele>
        <time>2017-01-22T10:06:35.118Z</time>
      </trkpt>
      <trkpt lat="47.82922" lon="1.95352">
        <ele>130</ele>
        <time>2017-01-22T10:06:36.136Z</time>
      </trkpt>
      <trkpt lat="47.82917" lon="1.95346">
        <ele>132</ele>
        <time>2017-01-22T10:06:37.157Z</time>
      </trkpt>
      <trkpt lat="47.82914" lon="1.95342">
        <ele>133</ele>
        <time>2017-01-22T10:06:38.123Z</time>
      </trkpt>
      <trkpt lat="47.82912" lon="1.95339">
        <ele>134</ele>
        <time>2017-01-22T10:06:39.131Z</time>
      </trkpt>
      <trkpt lat="47.82904" lon="1.9533">
        <ele>135</ele>
        <time>2017-01-22T10:06:40.142Z</time>
      </trkpt>
      <trkpt lat="47.82904" lon="1.9533">
        <ele>135</ele>
        <time>2017-01-22T10:06:41.133Z</time>
      </trkpt>
      <trkpt lat="47.82899" lon="1.95326">
        <ele>136</ele>
        <time>2017-01-22T10:06:42.121Z</time>
      </trkpt>
      <trkpt lat="47.82899" lon="1.95326">
        <ele>136</ele>
        <time>2017-01-22T10:06:43.139Z</time>
      </trkpt>
      <trkpt lat="47.8289" lon="1.95314">
        <ele>136</ele>
        <time>2017-01-22T10:06:44.134Z</time>
      </trkpt>
      <trkpt lat="47.82885" lon="1.95309">
        <ele>137</ele>
        <time>2017-01-22T10:06:45.152Z</time>
      </trkpt>
      <trkpt lat="47.82885" lon="1.95309">
        <ele>137</ele>
        <time>2017-01-22T10:06:46.140Z</time>
      </trkpt>
      <trkpt lat="47.82878" lon="1.95299">
        <ele>137</ele>
        <time>2017-01-22T10:06:47.141Z</time>
      </trkpt>
      <trkpt lat="47.82872" lon="1.9529">
        <ele>136</ele>
        <time>2017-01-22T10:06:48.152Z</time>
      </trkpt>
      <trkpt lat="47.82872" lon="1.9529">
        <ele>136</ele>
        <time>2017-01-22T10:06:49.151Z</time>
      </trkpt>
      <trkpt lat="47.82872" lon="1.9529">
        <ele>136</ele>
        <time>2017-01-22T10:06:50.133Z</time>
      </trkpt>
      <trkpt lat="47.82867" lon="1.9528">
        <ele>135</ele>
        <time>2017-01-22T10:06:51.149Z</time>
      </trkpt>
      <trkpt lat="47.8286" lon="1.95272">
        <ele>135</ele>
        <time>2017-01-22T10:06:52.155Z</time>
      </trkpt>
      <trkpt lat="47.8286" lon="1.95272">
        <ele>135</ele>
        <time>2017-01-22T10:06:53.139Z</time>
      </trkpt>
      <trkpt lat="47.8286" lon="1.95272">
        <ele>135</ele>
        <time>2017-01-22T10:06:54.146Z</time>
      </trkpt>
      <trkpt lat="47.82856" lon="1.95265">
        <ele>136</ele>
        <time>2017-01-22T10:06:55.141Z</time>
      </trkpt>
      <trkpt lat="47.82849" lon="1.95258">
        <ele>137</ele>
        <time>2017-01-22T10:06:56.148Z</time>
      </trkpt>
      <trkpt lat="47.82849" lon="1.95258">
        <ele>137</ele>
        <time>2017-01-22T10:06:57.134Z</time>
      </trkpt>
      <trkpt lat="47.82849" lon="1.95258">
        <ele>137</ele>
        <time>2017-01-22T10:06:58.141Z</time>
      </trkpt>
      <trkpt lat="47.82842" lon="1.95249">
        <ele>137</ele>
        <time>2017-01-22T10:06:59.144Z</time>
      </trkpt>
      <trkpt lat="47.82833" lon="1.9524">
        <ele>138</ele>
        <time>2017-01-22T10:07:00.150Z</time>
      </trkpt>
      <trkpt lat="47.82833" lon="1.9524">
        <ele>138</ele>
        <time>2017-01-22T10:07:01.136Z</time>
      </trkpt>
      <trkpt lat="47.82833" lon="1.9524">
        <ele>138</ele>
        <time>2017-01-22T10:07:02.141Z</time>
      </trkpt>
      <trkpt lat="47.82823" lon="1.95228">
        <ele>139</ele>
        <time>2017-01-22T10:07:03.144Z</time>
      </trkpt>
      <trkpt lat="47.82823" lon="1.95228">
        <ele>139</ele>
        <time>2017-01-22T10:07:04.128Z</time>
      </trkpt>
      <trkpt lat="47.82815" lon="1.95218">
        <ele>139</ele>
        <time>2017-01-22T10:07:05.157Z</time>
      </trkpt>
      <trkpt lat="47.82815" lon="1.95218">
        <ele>139</ele>
        <time>2017-01-22T10:07:06.145Z</time>
      </trkpt>
      <trkpt lat="47.8281" lon="1.95207">
        <ele>137</ele>
        <time>2017-01-22T10:07:07.157Z</time>
      </trkpt>
      <trkpt lat="47.82806" lon="1.95203">
        <ele>137</ele>
        <time>2017-01-22T10:07:08.154Z</time>
      </trkpt>
      <trkpt lat="47.82806" lon="1.95203">
        <ele>137</ele>
        <time>2017-01-22T10:07:09.129Z</time>
      </trkpt>
      <trkpt lat="47.82806" lon="1.95203">
        <ele>137</ele>
        <time>2017-01-22T10:07:10.134Z</time>
      </trkpt>
      <trkpt lat="47.82796" lon="1.95191">
        <ele>136</ele>
        <time>2017-01-22T10:07:11.143Z</time>
      </trkpt>
      <trkpt lat="47.82796" lon="1.95191">
        <ele>136</ele>
        <time>2017-01-22T10:07:12.154Z</time>
      </trkpt>
      <trkpt lat="47.82796" lon="1.95191">
        <ele>136</ele>
        <time>2017-01-22T10:07:13.120Z</time>
      </trkpt>
      <trkpt lat="47.82793" lon="1.95188">
        <ele>136</ele>
        <time>2017-01-22T10:07:14.141Z</time>
      </trkpt>
      <trkpt lat="47.82791" lon="1.95186">
        <ele>136</ele>
        <time>2017-01-22T10:07:15.137Z</time>
      </trkpt>
      <trkpt lat="47.82791" lon="1.95186">
        <ele>136</ele>
        <time>2017-01-22T10:07:16.140Z</time>
      </trkpt>
      <trkpt lat="47.82789" lon="1.95183">
        <ele>135</ele>
        <time>2017-01-22T10:07:17.143Z</time>
      </trkpt>
      <trkpt lat="47.82789" lon="1.95182">
        <ele>135</ele>
        <time>2017-01-22T10:07:18.150Z</time>
      </trkpt>
      <trkpt lat="47.82789" lon="1.95182">
        <ele>135</ele>
        <time>2017-01-22T10:07:19.135Z</time>
      </trkpt>
      <trkpt lat="47.82789" lon="1.95182">
        <ele>135</ele>
        <time>2017-01-22T10:07:20.143Z</time>
      </trkpt>
      <trkpt lat="47.82788" lon="1.9518">
        <ele>135</ele>
        <time>2017-01-22T10:07:21.136Z</time>
      </trkpt>
      <trkpt lat="47.82788" lon="1.9518">
        <ele>135</ele>
        <time>2017-01-22T10:07:22.140Z</time>
      </trkpt>
      <trkpt lat="47.82784" lon="1.95176">
        <ele>135</ele>
        <time>2017-01-22T10:07:23.137Z</time>
      </trkpt>
      <trkpt lat="47.82784" lon="1.95176">
        <ele>135</ele>
        <time>2017-01-22T10:07:24.140Z</time>
      </trkpt>
      <trkpt lat="47.8278" lon="1.95172">
        <ele>135</ele>
        <time>2017-01-22T10:07:25.124Z</time>
      </trkpt>
      <trkpt lat="47.82776" lon="1.95168">
        <ele>135</ele>
        <time>2017-01-22T10:07:26.140Z</time>
      </trkpt>
      <trkpt lat="47.82776" lon="1.95168">
        <ele>135</ele>
        <time>2017-01-22T10:07:27.129Z</time>
      </trkpt>
      <trkpt lat="47.82776" lon="1.95168">
        <ele>135</ele>
        <time>2017-01-22T10:07:28.142Z</time>
      </trkpt>
      <trkpt lat="47.82771" lon="1.95162">
        <ele>135</ele>
        <time>2017-01-22T10:07:29.155Z</time>
      </trkpt>
      <trkpt lat="47.82771" lon="1.95162">
        <ele>135</ele>
        <time>2017-01-22T10:07:30.126Z</time>
      </trkpt>
      <trkpt lat="47.82765" lon="1.95156">
        <ele>135</ele>
        <time>2017-01-22T10:07:31.157Z</time>
      </trkpt>
      <trkpt lat="47.82762" lon="1.95151">
        <ele>136</ele>
        <time>2017-01-22T10:07:32.154Z</time>
      </trkpt>
      <trkpt lat="47.82762" lon="1.95151">
        <ele>136</ele>
        <time>2017-01-22T10:07:33.119Z</time>
      </trkpt>
      <trkpt lat="47.82756" lon="1.95143">
        <ele>137</ele>
        <time>2017-01-22T10:07:34.141Z</time>
      </trkpt>
      <trkpt lat="47.82749" lon="1.95134">
        <ele>138</ele>
        <time>2017-01-22T10:07:35.147Z</time>
      </trkpt>
      <trkpt lat="47.82749" lon="1.95134">
        <ele>138</ele>
        <time>2017-01-22T10:07:36.141Z</time>
      </trkpt>
      <trkpt lat="47.82744" lon="1.95126">
        <ele>139</ele>
        <time>2017-01-22T10:07:37.149Z</time>
      </trkpt>
      <trkpt lat="47.82741" lon="1.95123">
        <ele>140</ele>
        <time>2017-01-22T10:07:38.194Z</time>
      </trkpt>
      <trkpt lat="47.82741" lon="1.95123">
        <ele>140</ele>
        <time>2017-01-22T10:07:39.123Z</time>
      </trkpt>
      <trkpt lat="47.82741" lon="1.95123">
        <ele>140</ele>
        <time>2017-01-22T10:07:40.129Z</time>
      </trkpt>
      <trkpt lat="47.82735" lon="1.95114">
        <ele>141</ele>
        <time>2017-01-22T10:07:41.137Z</time>
      </trkpt>
      <trkpt lat="47.82735" lon="1.95114">
        <ele>141</ele>
        <time>2017-01-22T10:07:42.140Z</time>
      </trkpt>
      <trkpt lat="47.82727" lon="1.95105">
        <ele>142</ele>
        <time>2017-01-22T10:07:43.130Z</time>
      </trkpt>
      <trkpt lat="47.82719" lon="1.95096">
        <ele>143</ele>
        <time>2017-01-22T10:07:44.139Z</time>
      </trkpt>
      <trkpt lat="47.82719" lon="1.95096">
        <ele>143</ele>
        <time>2017-01-22T10:07:45.157Z</time>
      </trkpt>
      <trkpt lat="47.82719" lon="1.95096">
        <ele>143</ele>
        <time>2017-01-22T10:07:46.134Z</time>
      </trkpt>
      <trkpt lat="47.82713" lon="1.95086">
        <ele>144</ele>
        <time>2017-01-22T10:07:47.120Z</time>
      </trkpt>
      <trkpt lat="47.82709" lon="1.95081">
        <ele>144</ele>
        <time>2017-01-22T10:07:48.144Z</time>
      </trkpt>
      <trkpt lat="47.82703" lon="1.95071">
        <ele>145</ele>
        <time>2017-01-22T10:07:49.152Z</time>
      </trkpt>
      <trkpt lat="47.82703" lon="1.95071">
        <ele>145</ele>
        <time>2017-01-22T10:07:50.121Z</time>
      </trkpt>
      <trkpt lat="47.82698" lon="1.95065">
        <ele>146</ele>
        <time>2017-01-22T10:07:51.153Z</time>
      </trkpt>
      <trkpt lat="47.82698" lon="1.95065">
        <ele>146</ele>
        <time>2017-01-22T10:07:52.140Z</time>
      </trkpt>
      <trkpt lat="47.8269" lon="1.95056">
        <ele>147</ele>
        <time>2017-01-22T10:07:53.128Z</time>
      </trkpt>
      <trkpt lat="47.82683" lon="1.95048">
        <ele>148</ele>
        <time>2017-01-22T10:07:54.137Z</time>
      </trkpt>
      <trkpt lat="47.8268" lon="1.95045">
        <ele>149</ele>
        <time>2017-01-22T10:07:55.150Z</time>
      </trkpt>
      <trkpt lat="47.8268" lon="1.95045">
        <ele>149</ele>
        <time>2017-01-22T10:07:56.133Z</time>
      </trkpt>
      <trkpt lat="47.82675" lon="1.95039">
        <ele>150</ele>
        <time>2017-01-22T10:07:57.139Z</time>
      </trkpt>
      <trkpt lat="47.82675" lon="1.95039">
        <ele>150</ele>
        <time>2017-01-22T10:07:58.124Z</time>
      </trkpt>
      <trkpt lat="47.82675" lon="1.95039">
        <ele>150</ele>
        <time>2017-01-22T10:07:59.140Z</time>
      </trkpt>
      <trkpt lat="47.8267" lon="1.95034">
        <ele>151</ele>
        <time>2017-01-22T10:08:00.147Z</time>
      </trkpt>
      <trkpt lat="47.82668" lon="1.95032">
        <ele>151</ele>
        <time>2017-01-22T10:08:01.153Z</time>
      </trkpt>
      <trkpt lat="47.82668" lon="1.95032">
        <ele>151</ele>
        <time>2017-01-22T10:08:02.144Z</time>
      </trkpt>
      <trkpt lat="47.82665" lon="1.95025">
        <ele>150</ele>
        <time>2017-01-22T10:08:03.173Z</time>
      </trkpt>
      <trkpt lat="47.82665" lon="1.95025">
        <ele>150</ele>
        <time>2017-01-22T10:08:04.126Z</time>
      </trkpt>
      <trkpt lat="47.82663" lon="1.95023">
        <ele>150</ele>
        <time>2017-01-22T10:08:05.152Z</time>
      </trkpt>
      <trkpt lat="47.82663" lon="1.95023">
        <ele>150</ele>
        <time>2017-01-22T10:08:06.143Z</time>
      </trkpt>
      <trkpt lat="47.82661" lon="1.95022">
        <ele>149</ele>
        <time>2017-01-22T10:08:07.149Z</time>
      </trkpt>
      <trkpt lat="47.82659" lon="1.9502">
        <ele>149</ele>
        <time>2017-01-22T10:08:08.156Z</time>
      </trkpt>
      <trkpt lat="47.82659" lon="1.9502">
        <ele>149</ele>
        <time>2017-01-22T10:08:09.133Z</time>
      </trkpt>
      <trkpt lat="47.82655" lon="1.95016">
        <ele>149</ele>
        <time>2017-01-22T10:08:10.140Z</time>
      </trkpt>
      <trkpt lat="47.82655" lon="1.95016">
        <ele>149</ele>
        <time>2017-01-22T10:08:11.127Z</time>
      </trkpt>
      <trkpt lat="47.82655" lon="1.95016">
        <ele>149</ele>
        <time>2017-01-22T10:08:12.155Z</time>
      </trkpt>
      <trkpt lat="47.82653" lon="1.95013">
        <ele>148</ele>
        <time>2017-01-22T10:08:13.124Z</time>
      </trkpt>
      <trkpt lat="47.82653" lon="1.95013">
        <ele>148</ele>
        <time>2017-01-22T10:08:14.135Z</time>
      </trkpt>
      <trkpt lat="47.82649" lon="1.95011">
        <ele>148</ele>
        <time>2017-01-22T10:08:15.129Z</time>
      </trkpt>
      <trkpt lat="47.82648" lon="1.95012">
        <ele>147</ele>
        <time>2017-01-22T10:08:16.144Z</time>
      </trkpt>
      <trkpt lat="47.82643" lon="1.95017">
        <ele>147</ele>
        <time>2017-01-22T10:08:17.150Z</time>
      </trkpt>
      <trkpt lat="47.82642" lon="1.9502">
        <ele>147</ele>
        <time>2017-01-22T10:08:18.149Z</time>
      </trkpt>
      <trkpt lat="47.82642" lon="1.9502">
        <ele>147</ele>
        <time>2017-01-22T10:08:19.120Z</time>
      </trkpt>
      <trkpt lat="47.82639" lon="1.95024">
        <ele>146</ele>
        <time>2017-01-22T10:08:20.143Z</time>
      </trkpt>
      <trkpt lat="47.82633" lon="1.95033">
        <ele>146</ele>
        <time>2017-01-22T10:08:21.195Z</time>
      </trkpt>
      <trkpt lat="47.82633" lon="1.95033">
        <ele>146</ele>
        <time>2017-01-22T10:08:22.135Z</time>
      </trkpt>
      <trkpt lat="47.82633" lon="1.95033">
        <ele>146</ele>
        <time>2017-01-22T10:08:23.141Z</time>
      </trkpt>
      <trkpt lat="47.82627" lon="1.95043">
        <ele>146</ele>
        <time>2017-01-22T10:08:24.154Z</time>
      </trkpt>
      <trkpt lat="47.82627" lon="1.95043">
        <ele>146</ele>
        <time>2017-01-22T10:08:25.120Z</time>
      </trkpt>
      <trkpt lat="47.82621" lon="1.95053">
        <ele>145</ele>
        <time>2017-01-22T10:08:26.131Z</time>
      </trkpt>
      <trkpt lat="47.82621" lon="1.95053">
        <ele>145</ele>
        <time>2017-01-22T10:08:27.138Z</time>
      </trkpt>
      <trkpt lat="47.82614" lon="1.95064">
        <ele>145</ele>
        <time>2017-01-22T10:08:28.147Z</time>
      </trkpt>
      <trkpt lat="47.8261" lon="1.95069">
        <ele>145</ele>
        <time>2017-01-22T10:08:29.120Z</time>
      </trkpt>
      <trkpt lat="47.82603" lon="1.9508">
        <ele>145</ele>
        <time>2017-01-22T10:08:30.137Z</time>
      </trkpt>
      <trkpt lat="47.82603" lon="1.9508">
        <ele>145</ele>
        <time>2017-01-22T10:08:31.147Z</time>
      </trkpt>
      <trkpt lat="47.82603" lon="1.9508">
        <ele>145</ele>
        <time>2017-01-22T10:08:32.141Z</time>
      </trkpt>
      <trkpt lat="47.82594" lon="1.95092">
        <ele>145</ele>
        <time>2017-01-22T10:08:33.144Z</time>
      </trkpt>
      <trkpt lat="47.82584" lon="1.95106">
        <ele>145</ele>
        <time>2017-01-22T10:08:34.152Z</time>
      </trkpt>
      <trkpt lat="47.82584" lon="1.95106">
        <ele>145</ele>
        <time>2017-01-22T10:08:35.154Z</time>
      </trkpt>
      <trkpt lat="47.82584" lon="1.95106">
        <ele>145</ele>
        <time>2017-01-22T10:08:36.120Z</time>
      </trkpt>
      <trkpt lat="47.82576" lon="1.9512">
        <ele>144</ele>
        <time>2017-01-22T10:08:37.130Z</time>
      </trkpt>
      <trkpt lat="47.82576" lon="1.9512">
        <ele>144</ele>
        <time>2017-01-22T10:08:38.137Z</time>
      </trkpt>
      <trkpt lat="47.82562" lon="1.9514">
        <ele>143</ele>
        <time>2017-01-22T10:08:39.150Z</time>
      </trkpt>
      <trkpt lat="47.82562" lon="1.9514">
        <ele>143</ele>
        <time>2017-01-22T10:08:40.137Z</time>
      </trkpt>
      <trkpt lat="47.82562" lon="1.9514">
        <ele>143</ele>
        <time>2017-01-22T10:08:41.146Z</time>
      </trkpt>
      <trkpt lat="47.82554" lon="1.95152">
        <ele>142</ele>
        <time>2017-01-22T10:08:42.134Z</time>
      </trkpt>
      <trkpt lat="47.82545" lon="1.95165">
        <ele>141</ele>
        <time>2017-01-22T10:08:43.141Z</time>
      </trkpt>
      <trkpt lat="47.82541" lon="1.95172">
        <ele>141</ele>
        <time>2017-01-22T10:08:44.184Z</time>
      </trkpt>
      <trkpt lat="47.82541" lon="1.95172">
        <ele>141</ele>
        <time>2017-01-22T10:08:45.157Z</time>
      </trkpt>
      <trkpt lat="47.82541" lon="1.95172">
        <ele>141</ele>
        <time>2017-01-22T10:08:46.128Z</time>
      </trkpt>
      <trkpt lat="47.82528" lon="1.95191">
        <ele>140</ele>
        <time>2017-01-22T10:08:47.201Z</time>
      </trkpt>
      <trkpt lat="47.82528" lon="1.95191">
        <ele>140</ele>
        <time>2017-01-22T10:08:48.131Z</time>
      </trkpt>
      <trkpt lat="47.8252" lon="1.95203">
        <ele>139</ele>
        <time>2017-01-22T10:08:49.138Z</time>
      </trkpt>
      <trkpt lat="47.8252" lon="1.95203">
        <ele>139</ele>
        <time>2017-01-22T10:08:50.144Z</time>
      </trkpt>
      <trkpt lat="47.82513" lon="1.95216">
        <ele>138</ele>
        <time>2017-01-22T10:08:51.162Z</time>
      </trkpt>
      <trkpt lat="47.82513" lon="1.95216">
        <ele>138</ele>
        <time>2017-01-22T10:08:52.152Z</time>
      </trkpt>
      <trkpt lat="47.82513" lon="1.95216">
        <ele>138</ele>
        <time>2017-01-22T10:08:53.118Z</time>
      </trkpt>
      <trkpt lat="47.82505" lon="1.95228">
        <ele>137</ele>
        <time>2017-01-22T10:08:54.128Z</time>
      </trkpt>
      <trkpt lat="47.82505" lon="1.95228">
        <ele>137</ele>
        <time>2017-01-22T10:08:55.140Z</time>
      </trkpt>
      <trkpt lat="47.82495" lon="1.95247">
        <ele>136</ele>
        <time>2017-01-22T10:08:56.161Z</time>
      </trkpt>
      <trkpt lat="47.82495" lon="1.95247">
        <ele>136</ele>
        <time>2017-01-22T10:08:57.148Z</time>
      </trkpt>
      <trkpt lat="47.82487" lon="1.9526">
        <ele>135</ele>
        <time>2017-01-22T10:08:58.162Z</time>
      </trkpt>
      <trkpt lat="47.82487" lon="1.9526">
        <ele>135</ele>
        <time>2017-01-22T10:08:59.119Z</time>
      </trkpt>
      <trkpt lat="47.82484" lon="1.95266">
        <ele>135</ele>
        <time>2017-01-22T10:09:00.136Z</time>
      </trkpt>
      <trkpt lat="47.82484" lon="1.95266">
        <ele>135</ele>
        <time>2017-01-22T10:09:01.143Z</time>
      </trkpt>
      <trkpt lat="47.82478" lon="1.9528">
        <ele>134</ele>
        <time>2017-01-22T10:09:02.134Z</time>
      </trkpt>
      <trkpt lat="47.82478" lon="1.9528">
        <ele>134</ele>
        <time>2017-01-22T10:09:03.142Z</time>
      </trkpt>
      <trkpt lat="47.82472" lon="1.95293">
        <ele>134</ele>
        <time>2017-01-22T10:09:04.153Z</time>
      </trkpt>
      <trkpt lat="47.82464" lon="1.95307">
        <ele>133</ele>
        <time>2017-01-22T10:09:05.148Z</time>
      </trkpt>
      <trkpt lat="47.82464" lon="1.95307">
        <ele>133</ele>
        <time>2017-01-22T10:09:06.142Z</time>
      </trkpt>
      <trkpt lat="47.82457" lon="1.9532">
        <ele>133</ele>
        <time>2017-01-22T10:09:07.162Z</time>
      </trkpt>
      <trkpt lat="47.82457" lon="1.9532">
        <ele>133</ele>
        <time>2017-01-22T10:09:08.130Z</time>
      </trkpt>
      <trkpt lat="47.82457" lon="1.9532">
        <ele>133</ele>
        <time>2017-01-22T10:09:09.138Z</time>
      </trkpt>
      <trkpt lat="47.8245" lon="1.95334">
        <ele>132</ele>
        <time>2017-01-22T10:09:10.150Z</time>
      </trkpt>
      <trkpt lat="47.8245" lon="1.95334">
        <ele>132</ele>
        <time>2017-01-22T10:09:11.141Z</time>
      </trkpt>
      <trkpt lat="47.82443" lon="1.95347">
        <ele>132</ele>
        <time>2017-01-22T10:09:12.144Z</time>
      </trkpt>
      <trkpt lat="47.82434" lon="1.95359">
        <ele>131</ele>
        <time>2017-01-22T10:09:13.150Z</time>
      </trkpt>
      <trkpt lat="47.82434" lon="1.95359">
        <ele>131</ele>
        <time>2017-01-22T10:09:14.136Z</time>
      </trkpt>
      <trkpt lat="47.8243" lon="1.95366">
        <ele>131</ele>
        <time>2017-01-22T10:09:15.118Z</time>
      </trkpt>
      <trkpt lat="47.8243" lon="1.95366">
        <ele>131</ele>
        <time>2017-01-22T10:09:16.135Z</time>
      </trkpt>
      <trkpt lat="47.82421" lon="1.95376">
        <ele>128</ele>
        <time>2017-01-22T10:09:17.148Z</time>
      </trkpt>
      <trkpt lat="47.82417" lon="1.95382">
        <ele>127</ele>
        <time>2017-01-22T10:09:18.119Z</time>
      </trkpt>
      <trkpt lat="47.82408" lon="1.95392">
        <ele>127</ele>
        <time>2017-01-22T10:09:19.139Z</time>
      </trkpt>
      <trkpt lat="47.82408" lon="1.95392">
        <ele>127</ele>
        <time>2017-01-22T10:09:20.120Z</time>
      </trkpt>
      <trkpt lat="47.82404" lon="1.95398">
        <ele>127</ele>
        <time>2017-01-22T10:09:21.143Z</time>
      </trkpt>
      <trkpt lat="47.82395" lon="1.95409">
        <ele>126</ele>
        <time>2017-01-22T10:09:22.162Z</time>
      </trkpt>
      <trkpt lat="47.82395" lon="1.95409">
        <ele>126</ele>
        <time>2017-01-22T10:09:23.138Z</time>
      </trkpt>
      <trkpt lat="47.8239" lon="1.95414">
        <ele>126</ele>
        <time>2017-01-22T10:09:24.144Z</time>
      </trkpt>
      <trkpt lat="47.82382" lon="1.95424">
        <ele>126</ele>
        <time>2017-01-22T10:09:25.150Z</time>
      </trkpt>
      <trkpt lat="47.82382" lon="1.95424">
        <ele>126</ele>
        <time>2017-01-22T10:09:26.146Z</time>
      </trkpt>
      <trkpt lat="47.82382" lon="1.95424">
        <ele>126</ele>
        <time>2017-01-22T10:09:27.141Z</time>
      </trkpt>
      <trkpt lat="47.82372" lon="1.95434">
        <ele>125</ele>
        <time>2017-01-22T10:09:28.134Z</time>
      </trkpt>
      <trkpt lat="47.82364" lon="1.95444">
        <ele>125</ele>
        <time>2017-01-22T10:09:29.140Z</time>
      </trkpt>
      <trkpt lat="47.82364" lon="1.95444">
        <ele>125</ele>
        <time>2017-01-22T10:09:30.126Z</time>
      </trkpt>
      <trkpt lat="47.82359" lon="1.95449">
        <ele>125</ele>
        <time>2017-01-22T10:09:31.131Z</time>
      </trkpt>
      <trkpt lat="47.8235" lon="1.95457">
        <ele>125</ele>
        <time>2017-01-22T10:09:32.138Z</time>
      </trkpt>
      <trkpt lat="47.8235" lon="1.95457">
        <ele>125</ele>
        <time>2017-01-22T10:09:33.137Z</time>
      </trkpt>
      <trkpt lat="47.8235" lon="1.95457">
        <ele>125</ele>
        <time>2017-01-22T10:09:34.156Z</time>
      </trkpt>
      <trkpt lat="47.82341" lon="1.95466">
        <ele>124</ele>
        <time>2017-01-22T10:09:35.152Z</time>
      </trkpt>
      <trkpt lat="47.82341" lon="1.95466">
        <ele>124</ele>
        <time>2017-01-22T10:09:36.118Z</time>
      </trkpt>
      <trkpt lat="47.82326" lon="1.95474">
        <ele>121</ele>
        <time>2017-01-22T10:09:37.139Z</time>
      </trkpt>
      <trkpt lat="47.82326" lon="1.95474">
        <ele>121</ele>
        <time>2017-01-22T10:09:38.144Z</time>
      </trkpt>
      <trkpt lat="47.82326" lon="1.95474">
        <ele>121</ele>
        <time>2017-01-22T10:09:39.141Z</time>
      </trkpt>
      <trkpt lat="47.82319" lon="1.95468">
        <ele>118</ele>
        <time>2017-01-22T10:09:40.120Z</time>
      </trkpt>
      <trkpt lat="47.82315" lon="1.95457">
        <ele>116</ele>
        <time>2017-01-22T10:09:41.141Z</time>
      </trkpt>
      <trkpt lat="47.82315" lon="1.95457">
        <ele>116</ele>
        <time>2017-01-22T10:09:42.141Z</time>
      </trkpt>
      <trkpt lat="47.82313" lon="1.9545">
        <ele>115</ele>
        <time>2017-01-22T10:09:43.134Z</time>
      </trkpt>
      <trkpt lat="47.82307" lon="1.95437">
        <ele>113</ele>
        <time>2017-01-22T10:09:44.140Z</time>
      </trkpt>
      <trkpt lat="47.82307" lon="1.95437">
        <ele>113</ele>
        <time>2017-01-22T10:09:45.128Z</time>
      </trkpt>
      <trkpt lat="47.82307" lon="1.95437">
        <ele>113</ele>
        <time>2017-01-22T10:09:46.155Z</time>
      </trkpt>
      <trkpt lat="47.82301" lon="1.95422">
        <ele>111</ele>
        <time>2017-01-22T10:09:47.143Z</time>
      </trkpt>
      <trkpt lat="47.82295" lon="1.95408">
        <ele>110</ele>
        <time>2017-01-22T10:09:48.149Z</time>
      </trkpt>
      <trkpt lat="47.82295" lon="1.95408">
        <ele>110</ele>
        <time>2017-01-22T10:09:49.136Z</time>
      </trkpt>
      <trkpt lat="47.82295" lon="1.95408">
        <ele>110</ele>
        <time>2017-01-22T10:09:50.143Z</time>
      </trkpt>
      <trkpt lat="47.82289" lon="1.95393">
        <ele>109</ele>
        <time>2017-01-22T10:09:51.146Z</time>
      </trkpt>
      <trkpt lat="47.82284" lon="1.95379">
        <ele>108</ele>
        <time>2017-01-22T10:09:52.152Z</time>
      </trkpt>
      <trkpt lat="47.82284" lon="1.95379">
        <ele>108</ele>
        <time>2017-01-22T10:09:53.141Z</time>
      </trkpt>
      <trkpt lat="47.82281" lon="1.95373">
        <ele>108</ele>
        <time>2017-01-22T10:09:54.124Z</time>
      </trkpt>
      <trkpt lat="47.82278" lon="1.95366">
        <ele>108</ele>
        <time>2017-01-22T10:09:55.125Z</time>
      </trkpt>
      <trkpt lat="47.82275" lon="1.9536">
        <ele>107</ele>
        <time>2017-01-22T10:09:56.143Z</time>
      </trkpt>
      <trkpt lat="47.82275" lon="1.9536">
        <ele>107</ele>
        <time>2017-01-22T10:09:57.152Z</time>
      </trkpt>
      <trkpt lat="47.82269" lon="1.95345">
        <ele>107</ele>
        <time>2017-01-22T10:09:58.151Z</time>
      </trkpt>
      <trkpt lat="47.82263" lon="1.95332">
        <ele>107</ele>
        <time>2017-01-22T10:09:59.157Z</time>
      </trkpt>
      <trkpt lat="47.82263" lon="1.95332">
        <ele>107</ele>
        <time>2017-01-22T10:10:00.142Z</time>
      </trkpt>
      <trkpt lat="47.82257" lon="1.95317">
        <ele>107</ele>
        <time>2017-01-22T10:10:01.189Z</time>
      </trkpt>
      <trkpt lat="47.82257" lon="1.95317">
        <ele>107</ele>
        <time>2017-01-22T10:10:02.132Z</time>
      </trkpt>
      <trkpt lat="47.82254" lon="1.95309">
        <ele>107</ele>
        <time>2017-01-22T10:10:03.140Z</time>
      </trkpt>
      <trkpt lat="47.82254" lon="1.95309">
        <ele>107</ele>
        <time>2017-01-22T10:10:04.133Z</time>
      </trkpt>
      <trkpt lat="47.82248" lon="1.95295">
        <ele>107</ele>
        <time>2017-01-22T10:10:05.122Z</time>
      </trkpt>
      <trkpt lat="47.82245" lon="1.95286">
        <ele>107</ele>
        <time>2017-01-22T10:10:06.133Z</time>
      </trkpt>
      <trkpt lat="47.82239" lon="1.95271">
        <ele>107</ele>
        <time>2017-01-22T10:10:07.139Z</time>
      </trkpt>
      <trkpt lat="47.82239" lon="1.95271">
        <ele>107</ele>
        <time>2017-01-22T10:10:08.130Z</time>
      </trkpt>
      <trkpt lat="47.82236" lon="1.95263">
        <ele>107</ele>
        <time>2017-01-22T10:10:09.126Z</time>
      </trkpt>
      <trkpt lat="47.82233" lon="1.95256">
        <ele>107</ele>
        <time>2017-01-22T10:10:10.133Z</time>
      </trkpt>
      <trkpt lat="47.82233" lon="1.95256">
        <ele>107</ele>
        <time>2017-01-22T10:10:11.141Z</time>
      </trkpt>
      <trkpt lat="47.82226" lon="1.95241">
        <ele>107</ele>
        <time>2017-01-22T10:10:12.124Z</time>
      </trkpt>
      <trkpt lat="47.82224" lon="1.95234">
        <ele>108</ele>
        <time>2017-01-22T10:10:13.132Z</time>
      </trkpt>
      <trkpt lat="47.82224" lon="1.95234">
        <ele>108</ele>
        <time>2017-01-22T10:10:14.139Z</time>
      </trkpt>
      <trkpt lat="47.82218" lon="1.9522">
        <ele>108</ele>
        <time>2017-01-22T10:10:15.151Z</time>
      </trkpt>
      <trkpt lat="47.82218" lon="1.9522">
        <ele>108</ele>
        <time>2017-01-22T10:10:16.144Z</time>
      </trkpt>
      <trkpt lat="47.82211" lon="1.95207">
        <ele>108</ele>
        <time>2017-01-22T10:10:17.136Z</time>
      </trkpt>
      <trkpt lat="47.82204" lon="1.95194">
        <ele>108</ele>
        <time>2017-01-22T10:10:18.142Z</time>
      </trkpt>
      <trkpt lat="47.82204" lon="1.95194">
        <ele>108</ele>
        <time>2017-01-22T10:10:19.149Z</time>
      </trkpt>
      <trkpt lat="47.82199" lon="1.95182">
        <ele>108</ele>
        <time>2017-01-22T10:10:20.200Z</time>
      </trkpt>
      <trkpt lat="47.82199" lon="1.95182">
        <ele>108</ele>
        <time>2017-01-22T10:10:21.139Z</time>
      </trkpt>
      <trkpt lat="47.82193" lon="1.95169">
        <ele>108</ele>
        <time>2017-01-22T10:10:22.146Z</time>
      </trkpt>
      <trkpt lat="47.82193" lon="1.95169">
        <ele>108</ele>
        <time>2017-01-22T10:10:23.130Z</time>
      </trkpt>
      <trkpt lat="47.82188" lon="1.95156">
        <ele>107</ele>
        <time>2017-01-22T10:10:24.139Z</time>
      </trkpt>
      <trkpt lat="47.82188" lon="1.95156">
        <ele>107</ele>
        <time>2017-01-22T10:10:25.146Z</time>
      </trkpt>
      <trkpt lat="47.82182" lon="1.95147">
        <ele>107</ele>
        <time>2017-01-22T10:10:26.205Z</time>
      </trkpt>
      <trkpt lat="47.82182" lon="1.95147">
        <ele>107</ele>
        <time>2017-01-22T10:10:27.140Z</time>
      </trkpt>
      <trkpt lat="47.82173" lon="1.95143">
        <ele>107</ele>
        <time>2017-01-22T10:10:28.146Z</time>
      </trkpt>
      <trkpt lat="47.82173" lon="1.95143">
        <ele>107</ele>
        <time>2017-01-22T10:10:29.132Z</time>
      </trkpt>
      <trkpt lat="47.82173" lon="1.95143">
        <ele>107</ele>
        <time>2017-01-22T10:10:30.141Z</time>
      </trkpt>
      <trkpt lat="47.82166" lon="1.95147">
        <ele>106</ele>
        <time>2017-01-22T10:10:31.130Z</time>
      </trkpt>
      <trkpt lat="47.82158" lon="1.95155">
        <ele>106</ele>
        <time>2017-01-22T10:10:32.138Z</time>
      </trkpt>
      <trkpt lat="47.82158" lon="1.95155">
        <ele>106</ele>
        <time>2017-01-22T10:10:33.143Z</time>
      </trkpt>
      <trkpt lat="47.82158" lon="1.95155">
        <ele>106</ele>
        <time>2017-01-22T10:10:34.132Z</time>
      </trkpt>
      <trkpt lat="47.82144" lon="1.95155">
        <ele>107</ele>
        <time>2017-01-22T10:10:35.143Z</time>
      </trkpt>
      <trkpt lat="47.82144" lon="1.95155">
        <ele>107</ele>
        <time>2017-01-22T10:10:36.143Z</time>
      </trkpt>
      <trkpt lat="47.82134" lon="1.95152">
        <ele>107</ele>
        <time>2017-01-22T10:10:37.149Z</time>
      </trkpt>
      <trkpt lat="47.82134" lon="1.95152">
        <ele>107</ele>
        <time>2017-01-22T10:10:38.139Z</time>
      </trkpt>
      <trkpt lat="47.82134" lon="1.95152">
        <ele>107</ele>
        <time>2017-01-22T10:10:39.158Z</time>
      </trkpt>
      <trkpt lat="47.82123" lon="1.95149">
        <ele>107</ele>
        <time>2017-01-22T10:10:40.125Z</time>
      </trkpt>
      <trkpt lat="47.82112" lon="1.95147">
        <ele>108</ele>
        <time>2017-01-22T10:10:41.139Z</time>
      </trkpt>
      <trkpt lat="47.82106" lon="1.95147">
        <ele>108</ele>
        <time>2017-01-22T10:10:42.146Z</time>
      </trkpt>
      <trkpt lat="47.82101" lon="1.95147">
        <ele>108</ele>
        <time>2017-01-22T10:10:43.148Z</time>
      </trkpt>
      <trkpt lat="47.82101" lon="1.95147">
        <ele>108</ele>
        <time>2017-01-22T10:10:44.135Z</time>
      </trkpt>
      <trkpt lat="47.8209" lon="1.95146">
        <ele>107</ele>
        <time>2017-01-22T10:10:45.141Z</time>
      </trkpt>
      <trkpt lat="47.82085" lon="1.95145">
        <ele>107</ele>
        <time>2017-01-22T10:10:46.149Z</time>
      </trkpt>
      <trkpt lat="47.82085" lon="1.95145">
        <ele>107</ele>
        <time>2017-01-22T10:10:47.136Z</time>
      </trkpt>
      <trkpt lat="47.82085" lon="1.95145">
        <ele>107</ele>
        <time>2017-01-22T10:10:48.142Z</time>
      </trkpt>
      <trkpt lat="47.82074" lon="1.95144">
        <ele>107</ele>
        <time>2017-01-22T10:10:49.139Z</time>
      </trkpt>
      <trkpt lat="47.82065" lon="1.95138">
        <ele>107</ele>
        <time>2017-01-22T10:10:50.155Z</time>
      </trkpt>
      <trkpt lat="47.82065" lon="1.95138">
        <ele>107</ele>
        <time>2017-01-22T10:10:51.146Z</time>
      </trkpt>
      <trkpt lat="47.82057" lon="1.95128">
        <ele>107</ele>
        <time>2017-01-22T10:10:52.200Z</time>
      </trkpt>
      <trkpt lat="47.82057" lon="1.95128">
        <ele>107</ele>
        <time>2017-01-22T10:10:53.124Z</time>
      </trkpt>
      <trkpt lat="47.82053" lon="1.95123">
        <ele>107</ele>
        <time>2017-01-22T10:10:54.131Z</time>
      </trkpt>
      <trkpt lat="47.82053" lon="1.95123">
        <ele>107</ele>
        <time>2017-01-22T10:10:55.139Z</time>
      </trkpt>
      <trkpt lat="47.8204" lon="1.95113">
        <ele>107</ele>
        <time>2017-01-22T10:10:56.155Z</time>
      </trkpt>
      <trkpt lat="47.8204" lon="1.95113">
        <ele>107</ele>
        <time>2017-01-22T10:10:57.121Z</time>
      </trkpt>
      <trkpt lat="47.8203" lon="1.95112">
        <ele>107</ele>
        <time>2017-01-22T10:10:58.139Z</time>
      </trkpt>
      <trkpt lat="47.8203" lon="1.95112">
        <ele>107</ele>
        <time>2017-01-22T10:10:59.128Z</time>
      </trkpt>
      <trkpt lat="47.82025" lon="1.95113">
        <ele>107</ele>
        <time>2017-01-22T10:11:00.157Z</time>
      </trkpt>
      <trkpt lat="47.82025" lon="1.95113">
        <ele>107</ele>
        <time>2017-01-22T10:11:01.127Z</time>
      </trkpt>
      <trkpt lat="47.82017" lon="1.95121">
        <ele>107</ele>
        <time>2017-01-22T10:11:02.137Z</time>
      </trkpt>
      <trkpt lat="47.82013" lon="1.95125">
        <ele>107</ele>
        <time>2017-01-22T10:11:03.152Z</time>
      </trkpt>
      <trkpt lat="47.8201" lon="1.95131">
        <ele>107</ele>
        <time>2017-01-22T10:11:04.154Z</time>
      </trkpt>
      <trkpt lat="47.82007" lon="1.95145">
        <ele>106</ele>
        <time>2017-01-22T10:11:05.137Z</time>
      </trkpt>
      <trkpt lat="47.82007" lon="1.95145">
        <ele>106</ele>
        <time>2017-01-22T10:11:06.153Z</time>
      </trkpt>
      <trkpt lat="47.82007" lon="1.95145">
        <ele>106</ele>
        <time>2017-01-22T10:11:07.119Z</time>
      </trkpt>
      <trkpt lat="47.82008" lon="1.95159">
        <ele>107</ele>
        <time>2017-01-22T10:11:08.120Z</time>
      </trkpt>
      <trkpt lat="47.82009" lon="1.95165">
        <ele>107</ele>
        <time>2017-01-22T10:11:09.154Z</time>
      </trkpt>
      <trkpt lat="47.82009" lon="1.95165">
        <ele>107</ele>
        <time>2017-01-22T10:11:10.120Z</time>
      </trkpt>
      <trkpt lat="47.82014" lon="1.95177">
        <ele>107</ele>
        <time>2017-01-22T10:11:11.142Z</time>
      </trkpt>
      <trkpt lat="47.82014" lon="1.95177">
        <ele>107</ele>
        <time>2017-01-22T10:11:12.144Z</time>
      </trkpt>
      <trkpt lat="47.8202" lon="1.95187">
        <ele>107</ele>
        <time>2017-01-22T10:11:13.131Z</time>
      </trkpt>
      <trkpt lat="47.82026" lon="1.95197">
        <ele>108</ele>
        <time>2017-01-22T10:11:14.139Z</time>
      </trkpt>
      <trkpt lat="47.82026" lon="1.95197">
        <ele>108</ele>
        <time>2017-01-22T10:11:15.145Z</time>
      </trkpt>
      <trkpt lat="47.82029" lon="1.95207">
        <ele>107</ele>
        <time>2017-01-22T10:11:16.201Z</time>
      </trkpt>
      <trkpt lat="47.82029" lon="1.95207">
        <ele>107</ele>
        <time>2017-01-22T10:11:17.119Z</time>
      </trkpt>
      <trkpt lat="47.82029" lon="1.95207">
        <ele>107</ele>
        <time>2017-01-22T10:11:18.125Z</time>
      </trkpt>
      <trkpt lat="47.82029" lon="1.95219">
        <ele>107</ele>
        <time>2017-01-22T10:11:19.138Z</time>
      </trkpt>
      <trkpt lat="47.82029" lon="1.95219">
        <ele>107</ele>
        <time>2017-01-22T10:11:20.143Z</time>
      </trkpt>
      <trkpt lat="47.82031" lon="1.95232">
        <ele>108</ele>
        <time>2017-01-22T10:11:21.119Z</time>
      </trkpt>
      <trkpt lat="47.82031" lon="1.95232">
        <ele>108</ele>
        <time>2017-01-22T10:11:22.138Z</time>
      </trkpt>
      <trkpt lat="47.82033" lon="1.95243">
        <ele>108</ele>
        <time>2017-01-22T10:11:23.143Z</time>
      </trkpt>
      <trkpt lat="47.82031" lon="1.9525">
        <ele>109</ele>
        <time>2017-01-22T10:11:24.149Z</time>
      </trkpt>
      <trkpt lat="47.82031" lon="1.9525">
        <ele>109</ele>
        <time>2017-01-22T10:11:25.135Z</time>
      </trkpt>
      <trkpt lat="47.82031" lon="1.9525">
        <ele>109</ele>
        <time>2017-01-22T10:11:26.144Z</time>
      </trkpt>
      <trkpt lat="47.82027" lon="1.95253">
        <ele>109</ele>
        <time>2017-01-22T10:11:27.142Z</time>
      </trkpt>
      <trkpt lat="47.82027" lon="1.95253">
        <ele>109</ele>
        <time>2017-01-22T10:11:28.121Z</time>
      </trkpt>
      <trkpt lat="47.82025" lon="1.95259">
        <ele>109</ele>
        <time>2017-01-22T10:11:29.141Z</time>
      </trkpt>
      <trkpt lat="47.82023" lon="1.95268">
        <ele>110</ele>
        <time>2017-01-22T10:11:30.147Z</time>
      </trkpt>
      <trkpt lat="47.82023" lon="1.95268">
        <ele>110</ele>
        <time>2017-01-22T10:11:31.118Z</time>
      </trkpt>
      <trkpt lat="47.82023" lon="1.95268">
        <ele>110</ele>
        <time>2017-01-22T10:11:32.124Z</time>
      </trkpt>
      <trkpt lat="47.82022" lon="1.95276">
        <ele>110</ele>
        <time>2017-01-22T10:11:33.135Z</time>
      </trkpt>
      <trkpt lat="47.82023" lon="1.95289">
        <ele>110</ele>
        <time>2017-01-22T10:11:34.141Z</time>
      </trkpt>
      <trkpt lat="47.82023" lon="1.95289">
        <ele>110</ele>
        <time>2017-01-22T10:11:35.131Z</time>
      </trkpt>
      <trkpt lat="47.82023" lon="1.95289">
        <ele>110</ele>
        <time>2017-01-22T10:11:36.141Z</time>
      </trkpt>
      <trkpt lat="47.82021" lon="1.95312">
        <ele>111</ele>
        <time>2017-01-22T10:11:37.143Z</time>
      </trkpt>
      <trkpt lat="47.82021" lon="1.95312">
        <ele>111</ele>
        <time>2017-01-22T10:11:38.130Z</time>
      </trkpt>
      <trkpt lat="47.82021" lon="1.95312">
        <ele>111</ele>
        <time>2017-01-22T10:11:39.139Z</time>
      </trkpt>
      <trkpt lat="47.82014" lon="1.95334">
        <ele>112</ele>
        <time>2017-01-22T10:11:40.148Z</time>
      </trkpt>
      <trkpt lat="47.82014" lon="1.95334">
        <ele>112</ele>
        <time>2017-01-22T10:11:41.136Z</time>
      </trkpt>
      <trkpt lat="47.82015" lon="1.95348">
        <ele>112</ele>
        <time>2017-01-22T10:11:42.142Z</time>
      </trkpt>
      <trkpt lat="47.82015" lon="1.95348">
        <ele>112</ele>
        <time>2017-01-22T10:11:43.133Z</time>
      </trkpt>
      <trkpt lat="47.82017" lon="1.95363">
        <ele>112</ele>
        <time>2017-01-22T10:11:44.140Z</time>
      </trkpt>
      <trkpt lat="47.82017" lon="1.95363">
        <ele>112</ele>
        <time>2017-01-22T10:11:45.137Z</time>
      </trkpt>
      <trkpt lat="47.82018" lon="1.95369">
        <ele>112</ele>
        <time>2017-01-22T10:11:46.143Z</time>
      </trkpt>
      <trkpt lat="47.82019" lon="1.95383">
        <ele>112</ele>
        <time>2017-01-22T10:11:47.149Z</time>
      </trkpt>
      <trkpt lat="47.82019" lon="1.95383">
        <ele>112</ele>
        <time>2017-01-22T10:11:48.136Z</time>
      </trkpt>
      <trkpt lat="47.82019" lon="1.95383">
        <ele>112</ele>
        <time>2017-01-22T10:11:49.141Z</time>
      </trkpt>
      <trkpt lat="47.8202" lon="1.95397">
        <ele>113</ele>
        <time>2017-01-22T10:11:50.132Z</time>
      </trkpt>
      <trkpt lat="47.8202" lon="1.95404">
        <ele>113</ele>
        <time>2017-01-22T10:11:51.120Z</time>
      </trkpt>
      <trkpt lat="47.8202" lon="1.95404">
        <ele>113</ele>
        <time>2017-01-22T10:11:52.157Z</time>
      </trkpt>
      <trkpt lat="47.82021" lon="1.95418">
        <ele>113</ele>
        <time>2017-01-22T10:11:53.143Z</time>
      </trkpt>
      <trkpt lat="47.82021" lon="1.95433">
        <ele>113</ele>
        <time>2017-01-22T10:11:54.149Z</time>
      </trkpt>
      <trkpt lat="47.82021" lon="1.95433">
        <ele>113</ele>
        <time>2017-01-22T10:11:55.135Z</time>
      </trkpt>
      <trkpt lat="47.82021" lon="1.95433">
        <ele>113</ele>
        <time>2017-01-22T10:11:56.143Z</time>
      </trkpt>
      <trkpt lat="47.82021" lon="1.95454">
        <ele>113</ele>
        <time>2017-01-22T10:11:57.154Z</time>
      </trkpt>
      <trkpt lat="47.82021" lon="1.95454">
        <ele>113</ele>
        <time>2017-01-22T10:11:58.155Z</time>
      </trkpt>
      <trkpt lat="47.82021" lon="1.95454">
        <ele>113</ele>
        <time>2017-01-22T10:11:59.121Z</time>
      </trkpt>
      <trkpt lat="47.82021" lon="1.95468">
        <ele>114</ele>
        <time>2017-01-22T10:12:00.155Z</time>
      </trkpt>
      <trkpt lat="47.82021" lon="1.95468">
        <ele>114</ele>
        <time>2017-01-22T10:12:01.121Z</time>
      </trkpt>
      <trkpt lat="47.82021" lon="1.95488">
        <ele>114</ele>
        <time>2017-01-22T10:12:02.144Z</time>
      </trkpt>
      <trkpt lat="47.82021" lon="1.95488">
        <ele>114</ele>
        <time>2017-01-22T10:12:03.149Z</time>
      </trkpt>
      <trkpt lat="47.82023" lon="1.95502">
        <ele>115</ele>
        <time>2017-01-22T10:12:04.139Z</time>
      </trkpt>
      <trkpt lat="47.82024" lon="1.95509">
        <ele>115</ele>
        <time>2017-01-22T10:12:05.145Z</time>
      </trkpt>
      <trkpt lat="47.82024" lon="1.95509">
        <ele>115</ele>
        <time>2017-01-22T10:12:06.126Z</time>
      </trkpt>
      <trkpt lat="47.82023" lon="1.95524">
        <ele>116</ele>
        <time>2017-01-22T10:12:07.142Z</time>
      </trkpt>
      <trkpt lat="47.82022" lon="1.95531">
        <ele>116</ele>
        <time>2017-01-22T10:12:08.192Z</time>
      </trkpt>
      <trkpt lat="47.82022" lon="1.95531">
        <ele>116</ele>
        <time>2017-01-22T10:12:09.123Z</time>
      </trkpt>
      <trkpt lat="47.82018" lon="1.95546">
        <ele>116</ele>
        <time>2017-01-22T10:12:10.152Z</time>
      </trkpt>
      <trkpt lat="47.82018" lon="1.95546">
        <ele>116</ele>
        <time>2017-01-22T10:12:11.119Z</time>
      </trkpt>
      <trkpt lat="47.82018" lon="1.95553">
        <ele>116</ele>
        <time>2017-01-22T10:12:12.122Z</time>
      </trkpt>
      <trkpt lat="47.82018" lon="1.9557">
        <ele>116</ele>
        <time>2017-01-22T10:12:13.140Z</time>
      </trkpt>
      <trkpt lat="47.82018" lon="1.9557">
        <ele>116</ele>
        <time>2017-01-22T10:12:14.126Z</time>
      </trkpt>
      <trkpt lat="47.82018" lon="1.9557">
        <ele>116</ele>
        <time>2017-01-22T10:12:15.141Z</time>
      </trkpt>
      <trkpt lat="47.82018" lon="1.95584">
        <ele>117</ele>
        <time>2017-01-22T10:12:16.134Z</time>
      </trkpt>
      <trkpt lat="47.82019" lon="1.95598">
        <ele>117</ele>
        <time>2017-01-22T10:12:17.140Z</time>
      </trkpt>
      <trkpt lat="47.8202" lon="1.95605">
        <ele>117</ele>
        <time>2017-01-22T10:12:18.163Z</time>
      </trkpt>
      <trkpt lat="47.8202" lon="1.95605">
        <ele>117</ele>
        <time>2017-01-22T10:12:19.122Z</time>
      </trkpt>
      <trkpt lat="47.8202" lon="1.95605">
        <ele>117</ele>
        <time>2017-01-22T10:12:20.135Z</time>
      </trkpt>
      <trkpt lat="47.82021" lon="1.95618">
        <ele>116</ele>
        <time>2017-01-22T10:12:21.145Z</time>
      </trkpt>
      <trkpt lat="47.82021" lon="1.95618">
        <ele>116</ele>
        <time>2017-01-22T10:12:22.151Z</time>
      </trkpt>
      <trkpt lat="47.8202" lon="1.9563">
        <ele>117</ele>
        <time>2017-01-22T10:12:23.153Z</time>
      </trkpt>
      <trkpt lat="47.8202" lon="1.9563">
        <ele>117</ele>
        <time>2017-01-22T10:12:24.119Z</time>
      </trkpt>
      <trkpt lat="47.82019" lon="1.95642">
        <ele>117</ele>
        <time>2017-01-22T10:12:25.132Z</time>
      </trkpt>
      <trkpt lat="47.82019" lon="1.95648">
        <ele>117</ele>
        <time>2017-01-22T10:12:26.141Z</time>
      </trkpt>
      <trkpt lat="47.82019" lon="1.95655">
        <ele>117</ele>
        <time>2017-01-22T10:12:27.154Z</time>
      </trkpt>
      <trkpt lat="47.82019" lon="1.95655">
        <ele>117</ele>
        <time>2017-01-22T10:12:28.120Z</time>
      </trkpt>
      <trkpt lat="47.82021" lon="1.95668">
        <ele>117</ele>
        <time>2017-01-22T10:12:29.136Z</time>
      </trkpt>
      <trkpt lat="47.82021" lon="1.95668">
        <ele>117</ele>
        <time>2017-01-22T10:12:30.142Z</time>
      </trkpt>
      <trkpt lat="47.82024" lon="1.95683">
        <ele>116</ele>
        <time>2017-01-22T10:12:31.154Z</time>
      </trkpt>
      <trkpt lat="47.82024" lon="1.95683">
        <ele>116</ele>
        <time>2017-01-22T10:12:32.120Z</time>
      </trkpt>
      <trkpt lat="47.82024" lon="1.95695">
        <ele>116</ele>
        <time>2017-01-22T10:12:33.157Z</time>
      </trkpt>
      <trkpt lat="47.82024" lon="1.95695">
        <ele>116</ele>
        <time>2017-01-22T10:12:34.143Z</time>
      </trkpt>
      <trkpt lat="47.82023" lon="1.95706">
        <ele>116</ele>
        <time>2017-01-22T10:12:35.151Z</time>
      </trkpt>
      <trkpt lat="47.82022" lon="1.95716">
        <ele>116</ele>
        <time>2017-01-22T10:12:36.141Z</time>
      </trkpt>
      <trkpt lat="47.82022" lon="1.95716">
        <ele>116</ele>
        <time>2017-01-22T10:12:37.137Z</time>
      </trkpt>
      <trkpt lat="47.82022" lon="1.95716">
        <ele>116</ele>
        <time>2017-01-22T10:12:38.143Z</time>
      </trkpt>
      <trkpt lat="47.8202" lon="1.95727">
        <ele>116</ele>
        <time>2017-01-22T10:12:39.134Z</time>
      </trkpt>
      <trkpt lat="47.82016" lon="1.95741">
        <ele>116</ele>
        <time>2017-01-22T10:12:40.141Z</time>
      </trkpt>
      <trkpt lat="47.82016" lon="1.95741">
        <ele>116</ele>
        <time>2017-01-22T10:12:41.131Z</time>
      </trkpt>
      <trkpt lat="47.82016" lon="1.95741">
        <ele>116</ele>
        <time>2017-01-22T10:12:42.140Z</time>
      </trkpt>
      <trkpt lat="47.82015" lon="1.95763">
        <ele>116</ele>
        <time>2017-01-22T10:12:43.143Z</time>
      </trkpt>
      <trkpt lat="47.82015" lon="1.95763">
        <ele>116</ele>
        <time>2017-01-22T10:12:44.131Z</time>
      </trkpt>
      <trkpt lat="47.82016" lon="1.9577">
        <ele>116</ele>
        <time>2017-01-22T10:12:45.141Z</time>
      </trkpt>
      <trkpt lat="47.82018" lon="1.95784">
        <ele>116</ele>
        <time>2017-01-22T10:12:46.156Z</time>
      </trkpt>
      <trkpt lat="47.82018" lon="1.95784">
        <ele>116</ele>
        <time>2017-01-22T10:12:47.137Z</time>
      </trkpt>
      <trkpt lat="47.82018" lon="1.95784">
        <ele>116</ele>
        <time>2017-01-22T10:12:48.141Z</time>
      </trkpt>
      <trkpt lat="47.82019" lon="1.95798">
        <ele>116</ele>
        <time>2017-01-22T10:12:49.144Z</time>
      </trkpt>
      <trkpt lat="47.82022" lon="1.9581">
        <ele>116</ele>
        <time>2017-01-22T10:12:50.150Z</time>
      </trkpt>
      <trkpt lat="47.82022" lon="1.9581">
        <ele>116</ele>
        <time>2017-01-22T10:12:51.152Z</time>
      </trkpt>
      <trkpt lat="47.82027" lon="1.9582">
        <ele>115</ele>
        <time>2017-01-22T10:12:52.171Z</time>
      </trkpt>
      <trkpt lat="47.8203" lon="1.95826">
        <ele>115</ele>
        <time>2017-01-22T10:12:53.145Z</time>
      </trkpt>
      <trkpt lat="47.8203" lon="1.95826">
        <ele>115</ele>
        <time>2017-01-22T10:12:54.134Z</time>
      </trkpt>
      <trkpt lat="47.82034" lon="1.95839">
        <ele>115</ele>
        <time>2017-01-22T10:12:55.140Z</time>
      </trkpt>
      <trkpt lat="47.82035" lon="1.95845">
        <ele>114</ele>
        <time>2017-01-22T10:12:56.143Z</time>
      </trkpt>
      <trkpt lat="47.82035" lon="1.95845">
        <ele>114</ele>
        <time>2017-01-22T10:12:57.133Z</time>
      </trkpt>
      <trkpt lat="47.82036" lon="1.95857">
        <ele>113</ele>
        <time>2017-01-22T10:12:58.148Z</time>
      </trkpt>
      <trkpt lat="47.82036" lon="1.95857">
        <ele>113</ele>
        <time>2017-01-22T10:12:59.135Z</time>
      </trkpt>
      <trkpt lat="47.82036" lon="1.95869">
        <ele>113</ele>
        <time>2017-01-22T10:13:00.142Z</time>
      </trkpt>
      <trkpt lat="47.82036" lon="1.95869">
        <ele>113</ele>
        <time>2017-01-22T10:13:01.136Z</time>
      </trkpt>
      <trkpt lat="47.82036" lon="1.95869">
        <ele>113</ele>
        <time>2017-01-22T10:13:02.155Z</time>
      </trkpt>
      <trkpt lat="47.82037" lon="1.95881">
        <ele>112</ele>
        <time>2017-01-22T10:13:03.130Z</time>
      </trkpt>
      <trkpt lat="47.82036" lon="1.95887">
        <ele>112</ele>
        <time>2017-01-22T10:13:04.129Z</time>
      </trkpt>
      <trkpt lat="47.82033" lon="1.95897">
        <ele>112</ele>
        <time>2017-01-22T10:13:05.144Z</time>
      </trkpt>
      <trkpt lat="47.82033" lon="1.95897">
        <ele>112</ele>
        <time>2017-01-22T10:13:06.141Z</time>
      </trkpt>
      <trkpt lat="47.82033" lon="1.9591">
        <ele>111</ele>
        <time>2017-01-22T10:13:07.147Z</time>
      </trkpt>
      <trkpt lat="47.82033" lon="1.9591">
        <ele>111</ele>
        <time>2017-01-22T10:13:08.128Z</time>
      </trkpt>
      <trkpt lat="47.82036" lon="1.95922">
        <ele>111</ele>
        <time>2017-01-22T10:13:09.143Z</time>
      </trkpt>
      <trkpt lat="47.82036" lon="1.95922">
        <ele>111</ele>
        <time>2017-01-22T10:13:10.130Z</time>
      </trkpt>
      <trkpt lat="47.82036" lon="1.95922">
        <ele>111</ele>
        <time>2017-01-22T10:13:11.141Z</time>
      </trkpt>
      <trkpt lat="47.82035" lon="1.95943">
        <ele>111</ele>
        <time>2017-01-22T10:13:12.154Z</time>
      </trkpt>
      <trkpt lat="47.82035" lon="1.95943">
        <ele>111</ele>
        <time>2017-01-22T10:13:13.130Z</time>
      </trkpt>
      <trkpt lat="47.82031" lon="1.95955">
        <ele>111</ele>
        <time>2017-01-22T10:13:14.140Z</time>
      </trkpt>
      <trkpt lat="47.8203" lon="1.95962">
        <ele>111</ele>
        <time>2017-01-22T10:13:15.148Z</time>
      </trkpt>
      <trkpt lat="47.8203" lon="1.95962">
        <ele>111</ele>
        <time>2017-01-22T10:13:16.143Z</time>
      </trkpt>
      <trkpt lat="47.8203" lon="1.95978">
        <ele>110</ele>
        <time>2017-01-22T10:13:17.149Z</time>
      </trkpt>
      <trkpt lat="47.8203" lon="1.95978">
        <ele>110</ele>
        <time>2017-01-22T10:13:18.129Z</time>
      </trkpt>
      <trkpt lat="47.8203" lon="1.95985">
        <ele>110</ele>
        <time>2017-01-22T10:13:19.142Z</time>
      </trkpt>
      <trkpt lat="47.8203" lon="1.95985">
        <ele>110</ele>
        <time>2017-01-22T10:13:20.143Z</time>
      </trkpt>
      <trkpt lat="47.82028" lon="1.96001">
        <ele>110</ele>
        <time>2017-01-22T10:13:21.125Z</time>
      </trkpt>
      <trkpt lat="47.82029" lon="1.96009">
        <ele>111</ele>
        <time>2017-01-22T10:13:22.132Z</time>
      </trkpt>
      <trkpt lat="47.82029" lon="1.96009">
        <ele>111</ele>
        <time>2017-01-22T10:13:23.141Z</time>
      </trkpt>
      <trkpt lat="47.8203" lon="1.96023">
        <ele>110</ele>
        <time>2017-01-22T10:13:24.122Z</time>
      </trkpt>
      <trkpt lat="47.8203" lon="1.96023">
        <ele>110</ele>
        <time>2017-01-22T10:13:25.138Z</time>
      </trkpt>
      <trkpt lat="47.82033" lon="1.96036">
        <ele>110</ele>
        <time>2017-01-22T10:13:26.141Z</time>
      </trkpt>
      <trkpt lat="47.82033" lon="1.96036">
        <ele>110</ele>
        <time>2017-01-22T10:13:27.142Z</time>
      </trkpt>
      <trkpt lat="47.82034" lon="1.9605">
        <ele>110</ele>
        <time>2017-01-22T10:13:28.146Z</time>
      </trkpt>
      <trkpt lat="47.82035" lon="1.96063">
        <ele>110</ele>
        <time>2017-01-22T10:13:29.152Z</time>
      </trkpt>
      <trkpt lat="47.82035" lon="1.96063">
        <ele>110</ele>
        <time>2017-01-22T10:13:30.141Z</time>
      </trkpt>
      <trkpt lat="47.82036" lon="1.96077">
        <ele>109</ele>
        <time>2017-01-22T10:13:31.184Z</time>
      </trkpt>
      <trkpt lat="47.82036" lon="1.96077">
        <ele>109</ele>
        <time>2017-01-22T10:13:32.135Z</time>
      </trkpt>
      <trkpt lat="47.82036" lon="1.96083">
        <ele>109</ele>
        <time>2017-01-22T10:13:33.122Z</time>
      </trkpt>
      <trkpt lat="47.82037" lon="1.96089">
        <ele>110</ele>
        <time>2017-01-22T10:13:34.135Z</time>
      </trkpt>
      <trkpt lat="47.82038" lon="1.96102">
        <ele>109</ele>
        <time>2017-01-22T10:13:35.141Z</time>
      </trkpt>
      <trkpt lat="47.82038" lon="1.96108">
        <ele>110</ele>
        <time>2017-01-22T10:13:36.149Z</time>
      </trkpt>
      <trkpt lat="47.82038" lon="1.96108">
        <ele>110</ele>
        <time>2017-01-22T10:13:37.147Z</time>
      </trkpt>
      <trkpt lat="47.82038" lon="1.96108">
        <ele>110</ele>
        <time>2017-01-22T10:13:38.141Z</time>
      </trkpt>
      <trkpt lat="47.82039" lon="1.96119">
        <ele>110</ele>
        <time>2017-01-22T10:13:39.154Z</time>
      </trkpt>
      <trkpt lat="47.82039" lon="1.96119">
        <ele>110</ele>
        <time>2017-01-22T10:13:40.120Z</time>
      </trkpt>
      <trkpt lat="47.82039" lon="1.96134">
        <ele>110</ele>
        <time>2017-01-22T10:13:41.139Z</time>
      </trkpt>
      <trkpt lat="47.82039" lon="1.96134">
        <ele>110</ele>
        <time>2017-01-22T10:13:42.144Z</time>
      </trkpt>
      <trkpt lat="47.82039" lon="1.9615">
        <ele>110</ele>
        <time>2017-01-22T10:13:43.134Z</time>
      </trkpt>
      <trkpt lat="47.8204" lon="1.96164">
        <ele>110</ele>
        <time>2017-01-22T10:13:44.141Z</time>
      </trkpt>
      <trkpt lat="47.8204" lon="1.96164">
        <ele>110</ele>
        <time>2017-01-22T10:13:45.132Z</time>
      </trkpt>
      <trkpt lat="47.8204" lon="1.96164">
        <ele>110</ele>
        <time>2017-01-22T10:13:46.140Z</time>
      </trkpt>
      <trkpt lat="47.82042" lon="1.96178">
        <ele>110</ele>
        <time>2017-01-22T10:13:47.143Z</time>
      </trkpt>
      <trkpt lat="47.82043" lon="1.96191">
        <ele>110</ele>
        <time>2017-01-22T10:13:48.149Z</time>
      </trkpt>
      <trkpt lat="47.82043" lon="1.96191">
        <ele>110</ele>
        <time>2017-01-22T10:13:49.134Z</time>
      </trkpt>
      <trkpt lat="47.82043" lon="1.96203">
        <ele>110</ele>
        <time>2017-01-22T10:13:50.141Z</time>
      </trkpt>
      <trkpt lat="47.82043" lon="1.96203">
        <ele>110</ele>
        <time>2017-01-22T10:13:51.156Z</time>
      </trkpt>
      <trkpt lat="47.82043" lon="1.96203">
        <ele>110</ele>
        <time>2017-01-22T10:13:52.135Z</time>
      </trkpt>
      <trkpt lat="47.82044" lon="1.96226">
        <ele>111</ele>
        <time>2017-01-22T10:13:53.144Z</time>
      </trkpt>
      <trkpt lat="47.82044" lon="1.96226">
        <ele>111</ele>
        <time>2017-01-22T10:13:54.131Z</time>
      </trkpt>
      <trkpt lat="47.82044" lon="1.96226">
        <ele>111</ele>
        <time>2017-01-22T10:13:55.137Z</time>
      </trkpt>
      <trkpt lat="47.82046" lon="1.96242">
        <ele>111</ele>
        <time>2017-01-22T10:13:56.130Z</time>
      </trkpt>
      <trkpt lat="47.82047" lon="1.96258">
        <ele>111</ele>
        <time>2017-01-22T10:13:57.152Z</time>
      </trkpt>
      <trkpt lat="47.82047" lon="1.96258">
        <ele>111</ele>
        <time>2017-01-22T10:13:58.133Z</time>
      </trkpt>
      <trkpt lat="47.82047" lon="1.96258">
        <ele>111</ele>
        <time>2017-01-22T10:13:59.143Z</time>
      </trkpt>
      <trkpt lat="47.82049" lon="1.96281">
        <ele>111</ele>
        <time>2017-01-22T10:14:00.147Z</time>
      </trkpt>
      <trkpt lat="47.82049" lon="1.96281">
        <ele>111</ele>
        <time>2017-01-22T10:14:01.134Z</time>
      </trkpt>
      <trkpt lat="47.82049" lon="1.96281">
        <ele>111</ele>
        <time>2017-01-22T10:14:02.143Z</time>
      </trkpt>
      <trkpt lat="47.8205" lon="1.96295">
        <ele>111</ele>
        <time>2017-01-22T10:14:03.121Z</time>
      </trkpt>
      <trkpt lat="47.8205" lon="1.96295">
        <ele>111</ele>
        <time>2017-01-22T10:14:04.135Z</time>
      </trkpt>
      <trkpt lat="47.82051" lon="1.96318">
        <ele>111</ele>
        <time>2017-01-22T10:14:05.144Z</time>
      </trkpt>
      <trkpt lat="47.82051" lon="1.96318">
        <ele>111</ele>
        <time>2017-01-22T10:14:06.132Z</time>
      </trkpt>
      <trkpt lat="47.8205" lon="1.96332">
        <ele>110</ele>
        <time>2017-01-22T10:14:07.141Z</time>
      </trkpt>
      <trkpt lat="47.8205" lon="1.96332">
        <ele>110</ele>
        <time>2017-01-22T10:14:08.135Z</time>
      </trkpt>
      <trkpt lat="47.82049" lon="1.96342">
        <ele>110</ele>
        <time>2017-01-22T10:14:09.141Z</time>
      </trkpt>
      <trkpt lat="47.82049" lon="1.96342">
        <ele>110</ele>
        <time>2017-01-22T10:14:10.148Z</time>
      </trkpt>
      <trkpt lat="47.82048" lon="1.96348">
        <ele>110</ele>
        <time>2017-01-22T10:14:11.201Z</time>
      </trkpt>
      <trkpt lat="47.82048" lon="1.96348">
        <ele>110</ele>
        <time>2017-01-22T10:14:12.135Z</time>
      </trkpt>
      <trkpt lat="47.82042" lon="1.96354">
        <ele>110</ele>
        <time>2017-01-22T10:14:13.141Z</time>
      </trkpt>
      <trkpt lat="47.82042" lon="1.96354">
        <ele>110</ele>
        <time>2017-01-22T10:14:14.144Z</time>
      </trkpt>
      <trkpt lat="47.82039" lon="1.96359">
        <ele>110</ele>
        <time>2017-01-22T10:14:15.121Z</time>
      </trkpt>
      <trkpt lat="47.82039" lon="1.96359">
        <ele>110</ele>
        <time>2017-01-22T10:14:16.139Z</time>
      </trkpt>
      <trkpt lat="47.82035" lon="1.9637">
        <ele>110</ele>
        <time>2017-01-22T10:14:17.132Z</time>
      </trkpt>
      <trkpt lat="47.82035" lon="1.9637">
        <ele>110</ele>
        <time>2017-01-22T10:14:18.140Z</time>
      </trkpt>
      <trkpt lat="47.82029" lon="1.96384">
        <ele>110</ele>
        <time>2017-01-22T10:14:19.128Z</time>
      </trkpt>
      <trkpt lat="47.82027" lon="1.9639">
        <ele>110</ele>
        <time>2017-01-22T10:14:20.135Z</time>
      </trkpt>
      <trkpt lat="47.82027" lon="1.9639">
        <ele>110</ele>
        <time>2017-01-22T10:14:21.142Z</time>
      </trkpt>
      <trkpt lat="47.82021" lon="1.96402">
        <ele>110</ele>
        <time>2017-01-22T10:14:22.132Z</time>
      </trkpt>
      <trkpt lat="47.82021" lon="1.96402">
        <ele>110</ele>
        <time>2017-01-22T10:14:23.139Z</time>
      </trkpt>
      <trkpt lat="47.82013" lon="1.96419">
        <ele>109</ele>
        <time>2017-01-22T10:14:24.131Z</time>
      </trkpt>
      <trkpt lat="47.82013" lon="1.96419">
        <ele>109</ele>
        <time>2017-01-22T10:14:25.153Z</time>
      </trkpt>
      <trkpt lat="47.82013" lon="1.96419">
        <ele>109</ele>
        <time>2017-01-22T10:14:26.123Z</time>
      </trkpt>
      <trkpt lat="47.82008" lon="1.96432">
        <ele>109</ele>
        <time>2017-01-22T10:14:27.145Z</time>
      </trkpt>
      <trkpt lat="47.82003" lon="1.96445">
        <ele>109</ele>
        <time>2017-01-22T10:14:28.202Z</time>
      </trkpt>
      <trkpt lat="47.82003" lon="1.96445">
        <ele>109</ele>
        <time>2017-01-22T10:14:29.137Z</time>
      </trkpt>
      <trkpt lat="47.81999" lon="1.96459">
        <ele>110</ele>
        <time>2017-01-22T10:14:30.155Z</time>
      </trkpt>
      <trkpt lat="47.81999" lon="1.96459">
        <ele>110</ele>
        <time>2017-01-22T10:14:31.121Z</time>
      </trkpt>
      <trkpt lat="47.81999" lon="1.96459">
        <ele>110</ele>
        <time>2017-01-22T10:14:32.143Z</time>
      </trkpt>
      <trkpt lat="47.81994" lon="1.96472">
        <ele>110</ele>
        <time>2017-01-22T10:14:33.129Z</time>
      </trkpt>
      <trkpt lat="47.81994" lon="1.96472">
        <ele>110</ele>
        <time>2017-01-22T10:14:34.139Z</time>
      </trkpt>
      <trkpt lat="47.81989" lon="1.96485">
        <ele>110</ele>
        <time>2017-01-22T10:14:35.130Z</time>
      </trkpt>
      <trkpt lat="47.81989" lon="1.96485">
        <ele>110</ele>
        <time>2017-01-22T10:14:36.144Z</time>
      </trkpt>
      <trkpt lat="47.81984" lon="1.96498">
        <ele>111</ele>
        <time>2017-01-22T10:14:37.128Z</time>
      </trkpt>
      <trkpt lat="47.81981" lon="1.96505">
        <ele>111</ele>
        <time>2017-01-22T10:14:38.137Z</time>
      </trkpt>
      <trkpt lat="47.81977" lon="1.96516">
        <ele>111</ele>
        <time>2017-01-22T10:14:39.144Z</time>
      </trkpt>
      <trkpt lat="47.81977" lon="1.96516">
        <ele>111</ele>
        <time>2017-01-22T10:14:40.144Z</time>
      </trkpt>
      <trkpt lat="47.81973" lon="1.96528">
        <ele>111</ele>
        <time>2017-01-22T10:14:41.150Z</time>
      </trkpt>
      <trkpt lat="47.81973" lon="1.96528">
        <ele>111</ele>
        <time>2017-01-22T10:14:42.140Z</time>
      </trkpt>
      <trkpt lat="47.81973" lon="1.96528">
        <ele>111</ele>
        <time>2017-01-22T10:14:43.147Z</time>
      </trkpt>
      <trkpt lat="47.81969" lon="1.96542">
        <ele>110</ele>
        <time>2017-01-22T10:14:44.124Z</time>
      </trkpt>
      <trkpt lat="47.81967" lon="1.9655">
        <ele>109</ele>
        <time>2017-01-22T10:14:45.143Z</time>
      </trkpt>
      <trkpt lat="47.81963" lon="1.96564">
        <ele>109</ele>
        <time>2017-01-22T10:14:46.192Z</time>
      </trkpt>
      <trkpt lat="47.81961" lon="1.9657">
        <ele>109</ele>
        <time>2017-01-22T10:14:47.144Z</time>
      </trkpt>
      <trkpt lat="47.81961" lon="1.9657">
        <ele>109</ele>
        <time>2017-01-22T10:14:48.123Z</time>
      </trkpt>
      <trkpt lat="47.81957" lon="1.96581">
        <ele>109</ele>
        <time>2017-01-22T10:14:49.142Z</time>
      </trkpt>
      <trkpt lat="47.81955" lon="1.96586">
        <ele>109</ele>
        <time>2017-01-22T10:14:50.143Z</time>
      </trkpt>
      <trkpt lat="47.81955" lon="1.96586">
        <ele>109</ele>
        <time>2017-01-22T10:14:51.133Z</time>
      </trkpt>
      <trkpt lat="47.81955" lon="1.96586">
        <ele>109</ele>
        <time>2017-01-22T10:14:52.143Z</time>
      </trkpt>
      <trkpt lat="47.81951" lon="1.96596">
        <ele>108</ele>
        <time>2017-01-22T10:14:53.147Z</time>
      </trkpt>
      <trkpt lat="47.81949" lon="1.96607">
        <ele>109</ele>
        <time>2017-01-22T10:14:54.157Z</time>
      </trkpt>
      <trkpt lat="47.81949" lon="1.96607">
        <ele>109</ele>
        <time>2017-01-22T10:14:55.143Z</time>
      </trkpt>
      <trkpt lat="47.81949" lon="1.96607">
        <ele>109</ele>
        <time>2017-01-22T10:14:56.145Z</time>
      </trkpt>
      <trkpt lat="47.81943" lon="1.96615">
        <ele>109</ele>
        <time>2017-01-22T10:14:57.131Z</time>
      </trkpt>
      <trkpt lat="47.81935" lon="1.96618">
        <ele>109</ele>
        <time>2017-01-22T10:14:58.140Z</time>
      </trkpt>
      <trkpt lat="47.81931" lon="1.96616">
        <ele>109</ele>
        <time>2017-01-22T10:14:59.147Z</time>
      </trkpt>
      <trkpt lat="47.81931" lon="1.96616">
        <ele>109</ele>
        <time>2017-01-22T10:15:00.124Z</time>
      </trkpt>
      <trkpt lat="47.81927" lon="1.96613">
        <ele>109</ele>
        <time>2017-01-22T10:15:01.135Z</time>
      </trkpt>
      <trkpt lat="47.81927" lon="1.96613">
        <ele>109</ele>
        <time>2017-01-22T10:15:02.143Z</time>
      </trkpt>
      <trkpt lat="47.8192" lon="1.96608">
        <ele>110</ele>
        <time>2017-01-22T10:15:03.130Z</time>
      </trkpt>
      <trkpt lat="47.8192" lon="1.96608">
        <ele>110</ele>
        <time>2017-01-22T10:15:04.118Z</time>
      </trkpt>
      <trkpt lat="47.81911" lon="1.96604">
        <ele>110</ele>
        <time>2017-01-22T10:15:05.132Z</time>
      </trkpt>
      <trkpt lat="47.81902" lon="1.96599">
        <ele>110</ele>
        <time>2017-01-22T10:15:06.140Z</time>
      </trkpt>
      <trkpt lat="47.81898" lon="1.96596">
        <ele>110</ele>
        <time>2017-01-22T10:15:07.155Z</time>
      </trkpt>
      <trkpt lat="47.81898" lon="1.96596">
        <ele>110</ele>
        <time>2017-01-22T10:15:08.125Z</time>
      </trkpt>
      <trkpt lat="47.81889" lon="1.9659">
        <ele>110</ele>
        <time>2017-01-22T10:15:09.153Z</time>
      </trkpt>
      <trkpt lat="47.81889" lon="1.9659">
        <ele>110</ele>
        <time>2017-01-22T10:15:10.119Z</time>
      </trkpt>
      <trkpt lat="47.81889" lon="1.9659">
        <ele>110</ele>
        <time>2017-01-22T10:15:11.142Z</time>
      </trkpt>
      <trkpt lat="47.81876" lon="1.96582">
        <ele>111</ele>
        <time>2017-01-22T10:15:12.143Z</time>
      </trkpt>
      <trkpt lat="47.81876" lon="1.96582">
        <ele>111</ele>
        <time>2017-01-22T10:15:13.157Z</time>
      </trkpt>
      <trkpt lat="47.81868" lon="1.96576">
        <ele>111</ele>
        <time>2017-01-22T10:15:14.141Z</time>
      </trkpt>
      <trkpt lat="47.81868" lon="1.96576">
        <ele>111</ele>
        <time>2017-01-22T10:15:15.126Z</time>
      </trkpt>
      <trkpt lat="47.81864" lon="1.96572">
        <ele>111</ele>
        <time>2017-01-22T10:15:16.143Z</time>
      </trkpt>
      <trkpt lat="47.81856" lon="1.96562">
        <ele>111</ele>
        <time>2017-01-22T10:15:17.164Z</time>
      </trkpt>
      <trkpt lat="47.81856" lon="1.96562">
        <ele>111</ele>
        <time>2017-01-22T10:15:18.121Z</time>
      </trkpt>
      <trkpt lat="47.81856" lon="1.96562">
        <ele>111</ele>
        <time>2017-01-22T10:15:19.132Z</time>
      </trkpt>
      <trkpt lat="47.81846" lon="1.96555">
        <ele>111</ele>
        <time>2017-01-22T10:15:20.154Z</time>
      </trkpt>
      <trkpt lat="47.81846" lon="1.96555">
        <ele>111</ele>
        <time>2017-01-22T10:15:21.119Z</time>
      </trkpt>
      <trkpt lat="47.81838" lon="1.96549">
        <ele>111</ele>
        <time>2017-01-22T10:15:22.155Z</time>
      </trkpt>
      <trkpt lat="47.81838" lon="1.96549">
        <ele>111</ele>
        <time>2017-01-22T10:15:23.121Z</time>
      </trkpt>
      <trkpt lat="47.81829" lon="1.96542">
        <ele>112</ele>
        <time>2017-01-22T10:15:24.141Z</time>
      </trkpt>
      <trkpt lat="47.81829" lon="1.96542">
        <ele>112</ele>
        <time>2017-01-22T10:15:25.143Z</time>
      </trkpt>
      <trkpt lat="47.8182" lon="1.96534">
        <ele>113</ele>
        <time>2017-01-22T10:15:26.125Z</time>
      </trkpt>
      <trkpt lat="47.81811" lon="1.96527">
        <ele>113</ele>
        <time>2017-01-22T10:15:27.141Z</time>
      </trkpt>
      <trkpt lat="47.81811" lon="1.96527">
        <ele>113</ele>
        <time>2017-01-22T10:15:28.148Z</time>
      </trkpt>
      <trkpt lat="47.81807" lon="1.96524">
        <ele>113</ele>
        <time>2017-01-22T10:15:29.139Z</time>
      </trkpt>
      <trkpt lat="47.81799" lon="1.96518">
        <ele>112</ele>
        <time>2017-01-22T10:15:30.145Z</time>
      </trkpt>
      <trkpt lat="47.81799" lon="1.96518">
        <ele>112</ele>
        <time>2017-01-22T10:15:31.134Z</time>
      </trkpt>
      <trkpt lat="47.81791" lon="1.96512">
        <ele>112</ele>
        <time>2017-01-22T10:15:32.156Z</time>
      </trkpt>
      <trkpt lat="47.81791" lon="1.96512">
        <ele>112</ele>
        <time>2017-01-22T10:15:33.122Z</time>
      </trkpt>
      <trkpt lat="47.81784" lon="1.96506">
        <ele>112</ele>
        <time>2017-01-22T10:15:34.155Z</time>
      </trkpt>
      <trkpt lat="47.81784" lon="1.96506">
        <ele>112</ele>
        <time>2017-01-22T10:15:35.152Z</time>
      </trkpt>
      <trkpt lat="47.81784" lon="1.96506">
        <ele>112</ele>
        <time>2017-01-22T10:15:36.118Z</time>
      </trkpt>
      <trkpt lat="47.81776" lon="1.965">
        <ele>112</ele>
        <time>2017-01-22T10:15:37.133Z</time>
      </trkpt>
      <trkpt lat="47.81776" lon="1.965">
        <ele>112</ele>
        <time>2017-01-22T10:15:38.144Z</time>
      </trkpt>
      <trkpt lat="47.81767" lon="1.96494">
        <ele>112</ele>
        <time>2017-01-22T10:15:39.149Z</time>
      </trkpt>
      <trkpt lat="47.81759" lon="1.96488">
        <ele>112</ele>
        <time>2017-01-22T10:15:40.157Z</time>
      </trkpt>
      <trkpt lat="47.81759" lon="1.96488">
        <ele>112</ele>
        <time>2017-01-22T10:15:41.124Z</time>
      </trkpt>
      <trkpt lat="47.81755" lon="1.96485">
        <ele>112</ele>
        <time>2017-01-22T10:15:42.140Z</time>
      </trkpt>
      <trkpt lat="47.81747" lon="1.9648">
        <ele>112</ele>
        <time>2017-01-22T10:15:43.147Z</time>
      </trkpt>
      <trkpt lat="47.81742" lon="1.96478">
        <ele>112</ele>
        <time>2017-01-22T10:15:44.140Z</time>
      </trkpt>
      <trkpt lat="47.81738" lon="1.96475">
        <ele>113</ele>
        <time>2017-01-22T10:15:45.144Z</time>
      </trkpt>
      <trkpt lat="47.81738" lon="1.96475">
        <ele>113</ele>
        <time>2017-01-22T10:15:46.141Z</time>
      </trkpt>
      <trkpt lat="47.81738" lon="1.96475">
        <ele>113</ele>
        <time>2017-01-22T10:15:47.148Z</time>
      </trkpt>
      <trkpt lat="47.81731" lon="1.9647">
        <ele>112</ele>
        <time>2017-01-22T10:15:48.144Z</time>
      </trkpt>
      <trkpt lat="47.81723" lon="1.96464">
        <ele>113</ele>
        <time>2017-01-22T10:15:49.150Z</time>
      </trkpt>
      <trkpt lat="47.81723" lon="1.96464">
        <ele>113</ele>
        <time>2017-01-22T10:15:50.135Z</time>
      </trkpt>
      <trkpt lat="47.81723" lon="1.96464">
        <ele>113</ele>
        <time>2017-01-22T10:15:51.144Z</time>
      </trkpt>
      <trkpt lat="47.8171" lon="1.96454">
        <ele>114</ele>
        <time>2017-01-22T10:15:52.152Z</time>
      </trkpt>
      <trkpt lat="47.8171" lon="1.96454">
        <ele>114</ele>
        <time>2017-01-22T10:15:53.121Z</time>
      </trkpt>
      <trkpt lat="47.8171" lon="1.96454">
        <ele>114</ele>
        <time>2017-01-22T10:15:54.141Z</time>
      </trkpt>
      <trkpt lat="47.81702" lon="1.96447">
        <ele>114</ele>
        <time>2017-01-22T10:15:55.144Z</time>
      </trkpt>
      <trkpt lat="47.81694" lon="1.96441">
        <ele>114</ele>
        <time>2017-01-22T10:15:56.150Z</time>
      </trkpt>
      <trkpt lat="47.81694" lon="1.96441">
        <ele>114</ele>
        <time>2017-01-22T10:15:57.145Z</time>
      </trkpt>
      <trkpt lat="47.81691" lon="1.96437">
        <ele>114</ele>
        <time>2017-01-22T10:15:58.140Z</time>
      </trkpt>
      <trkpt lat="47.81683" lon="1.96431">
        <ele>115</ele>
        <time>2017-01-22T10:15:59.156Z</time>
      </trkpt>
      <trkpt lat="47.8168" lon="1.96429">
        <ele>116</ele>
        <time>2017-01-22T10:16:00.149Z</time>
      </trkpt>
      <trkpt lat="47.8168" lon="1.96429">
        <ele>116</ele>
        <time>2017-01-22T10:16:01.118Z</time>
      </trkpt>
      <trkpt lat="47.81676" lon="1.96426">
        <ele>116</ele>
        <time>2017-01-22T10:16:02.122Z</time>
      </trkpt>
      <trkpt lat="47.81676" lon="1.96426">
        <ele>116</ele>
        <time>2017-01-22T10:16:03.139Z</time>
      </trkpt>
      <trkpt lat="47.8167" lon="1.96421">
        <ele>116</ele>
        <time>2017-01-22T10:16:04.122Z</time>
      </trkpt>
      <trkpt lat="47.81663" lon="1.96417">
        <ele>117</ele>
        <time>2017-01-22T10:16:05.140Z</time>
      </trkpt>
      <trkpt lat="47.81663" lon="1.96417">
        <ele>117</ele>
        <time>2017-01-22T10:16:06.123Z</time>
      </trkpt>
      <trkpt lat="47.81663" lon="1.96417">
        <ele>117</ele>
        <time>2017-01-22T10:16:07.144Z</time>
      </trkpt>
      <trkpt lat="47.81656" lon="1.96412">
        <ele>117</ele>
        <time>2017-01-22T10:16:08.133Z</time>
      </trkpt>
      <trkpt lat="47.8165" lon="1.96407">
        <ele>116</ele>
        <time>2017-01-22T10:16:09.141Z</time>
      </trkpt>
      <trkpt lat="47.8165" lon="1.96407">
        <ele>116</ele>
        <time>2017-01-22T10:16:10.133Z</time>
      </trkpt>
      <trkpt lat="47.8165" lon="1.96407">
        <ele>116</ele>
        <time>2017-01-22T10:16:11.143Z</time>
      </trkpt>
      <trkpt lat="47.81638" lon="1.96397">
        <ele>116</ele>
        <time>2017-01-22T10:16:12.144Z</time>
      </trkpt>
      <trkpt lat="47.81638" lon="1.96397">
        <ele>116</ele>
        <time>2017-01-22T10:16:13.134Z</time>
      </trkpt>
      <trkpt lat="47.8163" lon="1.9639">
        <ele>116</ele>
        <time>2017-01-22T10:16:14.140Z</time>
      </trkpt>
      <trkpt lat="47.8163" lon="1.9639">
        <ele>116</ele>
        <time>2017-01-22T10:16:15.126Z</time>
      </trkpt>
      <trkpt lat="47.81625" lon="1.96387">
        <ele>116</ele>
        <time>2017-01-22T10:16:16.136Z</time>
      </trkpt>
      <trkpt lat="47.81625" lon="1.96387">
        <ele>116</ele>
        <time>2017-01-22T10:16:17.144Z</time>
      </trkpt>
      <trkpt lat="47.81616" lon="1.96379">
        <ele>115</ele>
        <time>2017-01-22T10:16:18.155Z</time>
      </trkpt>
      <trkpt lat="47.81616" lon="1.96379">
        <ele>115</ele>
        <time>2017-01-22T10:16:19.121Z</time>
      </trkpt>
      <trkpt lat="47.81606" lon="1.96369">
        <ele>116</ele>
        <time>2017-01-22T10:16:20.135Z</time>
      </trkpt>
      <trkpt lat="47.81606" lon="1.96369">
        <ele>116</ele>
        <time>2017-01-22T10:16:21.143Z</time>
      </trkpt>
      <trkpt lat="47.81596" lon="1.96361">
        <ele>117</ele>
        <time>2017-01-22T10:16:22.141Z</time>
      </trkpt>
      <trkpt lat="47.81586" lon="1.96354">
        <ele>118</ele>
        <time>2017-01-22T10:16:23.148Z</time>
      </trkpt>
      <trkpt lat="47.81586" lon="1.96354">
        <ele>118</ele>
        <time>2017-01-22T10:16:24.148Z</time>
      </trkpt>
      <trkpt lat="47.81577" lon="1.96348">
        <ele>119</ele>
        <time>2017-01-22T10:16:25.154Z</time>
      </trkpt>
      <trkpt lat="47.81573" lon="1.96345">
        <ele>120</ele>
        <time>2017-01-22T10:16:26.140Z</time>
      </trkpt>
      <trkpt lat="47.81573" lon="1.96345">
        <ele>120</ele>
        <time>2017-01-22T10:16:27.146Z</time>
      </trkpt>
      <trkpt lat="47.81565" lon="1.96339">
        <ele>121</ele>
        <time>2017-01-22T10:16:28.163Z</time>
      </trkpt>
      <trkpt lat="47.81565" lon="1.96339">
        <ele>121</ele>
        <time>2017-01-22T10:16:29.125Z</time>
      </trkpt>
      <trkpt lat="47.81556" lon="1.96333">
        <ele>122</ele>
        <time>2017-01-22T10:16:30.141Z</time>
      </trkpt>
      <trkpt lat="47.81556" lon="1.96333">
        <ele>122</ele>
        <time>2017-01-22T10:16:31.149Z</time>
      </trkpt>
      <trkpt lat="47.81549" lon="1.96325">
        <ele>126</ele>
        <time>2017-01-22T10:16:32.163Z</time>
      </trkpt>
      <trkpt lat="47.81549" lon="1.96325">
        <ele>126</ele>
        <time>2017-01-22T10:16:33.133Z</time>
      </trkpt>
      <trkpt lat="47.81549" lon="1.96325">
        <ele>126</ele>
        <time>2017-01-22T10:16:34.139Z</time>
      </trkpt>
      <trkpt lat="47.81541" lon="1.9632">
        <ele>127</ele>
        <time>2017-01-22T10:16:35.133Z</time>
      </trkpt>
      <trkpt lat="47.81532" lon="1.96314">
        <ele>127</ele>
        <time>2017-01-22T10:16:36.192Z</time>
      </trkpt>
      <trkpt lat="47.81532" lon="1.96314">
        <ele>127</ele>
        <time>2017-01-22T10:16:37.118Z</time>
      </trkpt>
      <trkpt lat="47.81532" lon="1.96314">
        <ele>127</ele>
        <time>2017-01-22T10:16:38.125Z</time>
      </trkpt>
      <trkpt lat="47.81519" lon="1.96304">
        <ele>128</ele>
        <time>2017-01-22T10:16:39.147Z</time>
      </trkpt>
      <trkpt lat="47.81519" lon="1.96304">
        <ele>128</ele>
        <time>2017-01-22T10:16:40.124Z</time>
      </trkpt>
      <trkpt lat="47.81519" lon="1.96304">
        <ele>128</ele>
        <time>2017-01-22T10:16:41.133Z</time>
      </trkpt>
      <trkpt lat="47.8151" lon="1.96297">
        <ele>129</ele>
        <time>2017-01-22T10:16:42.143Z</time>
      </trkpt>
      <trkpt lat="47.8151" lon="1.96297">
        <ele>129</ele>
        <time>2017-01-22T10:16:43.144Z</time>
      </trkpt>
      <trkpt lat="47.81502" lon="1.9629">
        <ele>129</ele>
        <time>2017-01-22T10:16:44.126Z</time>
      </trkpt>
      <trkpt lat="47.81497" lon="1.96287">
        <ele>129</ele>
        <time>2017-01-22T10:16:45.135Z</time>
      </trkpt>
      <trkpt lat="47.81497" lon="1.96287">
        <ele>129</ele>
        <time>2017-01-22T10:16:46.148Z</time>
      </trkpt>
      <trkpt lat="47.81483" lon="1.96278">
        <ele>130</ele>
        <time>2017-01-22T10:16:47.146Z</time>
      </trkpt>
      <trkpt lat="47.81478" lon="1.96276">
        <ele>130</ele>
        <time>2017-01-22T10:16:48.138Z</time>
      </trkpt>
      <trkpt lat="47.81478" lon="1.96276">
        <ele>130</ele>
        <time>2017-01-22T10:16:49.148Z</time>
      </trkpt>
      <trkpt lat="47.81469" lon="1.96271">
        <ele>131</ele>
        <time>2017-01-22T10:16:50.155Z</time>
      </trkpt>
      <trkpt lat="47.81469" lon="1.96271">
        <ele>131</ele>
        <time>2017-01-22T10:16:51.120Z</time>
      </trkpt>
      <trkpt lat="47.81469" lon="1.96271">
        <ele>131</ele>
        <time>2017-01-22T10:16:52.144Z</time>
      </trkpt>
      <trkpt lat="47.8146" lon="1.96264">
        <ele>131</ele>
        <time>2017-01-22T10:16:53.142Z</time>
      </trkpt>
      <trkpt lat="47.81451" lon="1.96257">
        <ele>131</ele>
        <time>2017-01-22T10:16:54.148Z</time>
      </trkpt>
      <trkpt lat="47.81451" lon="1.96257">
        <ele>131</ele>
        <time>2017-01-22T10:16:55.120Z</time>
      </trkpt>
      <trkpt lat="47.81447" lon="1.96254">
        <ele>131</ele>
        <time>2017-01-22T10:16:56.152Z</time>
      </trkpt>
      <trkpt lat="47.81447" lon="1.96254">
        <ele>131</ele>
        <time>2017-01-22T10:16:57.118Z</time>
      </trkpt>
      <trkpt lat="47.81438" lon="1.96247">
        <ele>130</ele>
        <time>2017-01-22T10:16:58.147Z</time>
      </trkpt>
      <trkpt lat="47.81433" lon="1.96244">
        <ele>130</ele>
        <time>2017-01-22T10:16:59.152Z</time>
      </trkpt>
      <trkpt lat="47.81433" lon="1.96244">
        <ele>130</ele>
        <time>2017-01-22T10:17:00.144Z</time>
      </trkpt>
      <trkpt lat="47.81424" lon="1.96236">
        <ele>129</ele>
        <time>2017-01-22T10:17:01.125Z</time>
      </trkpt>
      <trkpt lat="47.81424" lon="1.96236">
        <ele>129</ele>
        <time>2017-01-22T10:17:02.134Z</time>
      </trkpt>
      <trkpt lat="47.8141" lon="1.96224">
        <ele>126</ele>
        <time>2017-01-22T10:17:03.144Z</time>
      </trkpt>
      <trkpt lat="47.8141" lon="1.96224">
        <ele>126</ele>
        <time>2017-01-22T10:17:04.142Z</time>
      </trkpt>
      <trkpt lat="47.81399" lon="1.96216">
        <ele>125</ele>
        <time>2017-01-22T10:17:05.151Z</time>
      </trkpt>
      <trkpt lat="47.81399" lon="1.96216">
        <ele>125</ele>
        <time>2017-01-22T10:17:06.143Z</time>
      </trkpt>
      <trkpt lat="47.81399" lon="1.96216">
        <ele>125</ele>
        <time>2017-01-22T10:17:07.144Z</time>
      </trkpt>
      <trkpt lat="47.8139" lon="1.96208">
        <ele>125</ele>
        <time>2017-01-22T10:17:08.144Z</time>
      </trkpt>
      <trkpt lat="47.8138" lon="1.96199">
        <ele>124</ele>
        <time>2017-01-22T10:17:09.150Z</time>
      </trkpt>
      <trkpt lat="47.8138" lon="1.96199">
        <ele>124</ele>
        <time>2017-01-22T10:17:10.142Z</time>
      </trkpt>
      <trkpt lat="47.8138" lon="1.96199">
        <ele>124</ele>
        <time>2017-01-22T10:17:11.151Z</time>
      </trkpt>
      <trkpt lat="47.81365" lon="1.96187">
        <ele>122</ele>
        <time>2017-01-22T10:17:12.134Z</time>
      </trkpt>
      <trkpt lat="47.81365" lon="1.96187">
        <ele>122</ele>
        <time>2017-01-22T10:17:13.121Z</time>
      </trkpt>
      <trkpt lat="47.8136" lon="1.96182">
        <ele>121</ele>
        <time>2017-01-22T10:17:14.121Z</time>
      </trkpt>
      <trkpt lat="47.8136" lon="1.96182">
        <ele>121</ele>
        <time>2017-01-22T10:17:15.136Z</time>
      </trkpt>
      <trkpt lat="47.81352" lon="1.96173">
        <ele>120</ele>
        <time>2017-01-22T10:17:16.150Z</time>
      </trkpt>
      <trkpt lat="47.81352" lon="1.96173">
        <ele>120</ele>
        <time>2017-01-22T10:17:17.118Z</time>
      </trkpt>
      <trkpt lat="47.81342" lon="1.96168">
        <ele>120</ele>
        <time>2017-01-22T10:17:18.124Z</time>
      </trkpt>
      <trkpt lat="47.81334" lon="1.96167">
        <ele>119</ele>
        <time>2017-01-22T10:17:19.143Z</time>
      </trkpt>
      <trkpt lat="47.81334" lon="1.96167">
        <ele>119</ele>
        <time>2017-01-22T10:17:20.148Z</time>
      </trkpt>
      <trkpt lat="47.81334" lon="1.96167">
        <ele>119</ele>
        <time>2017-01-22T10:17:21.119Z</time>
      </trkpt>
      <trkpt lat="47.81325" lon="1.9617">
        <ele>118</ele>
        <time>2017-01-22T10:17:22.124Z</time>
      </trkpt>
      <trkpt lat="47.81325" lon="1.9617">
        <ele>118</ele>
        <time>2017-01-22T10:17:23.134Z</time>
      </trkpt>
      <trkpt lat="47.81318" lon="1.96179">
        <ele>118</ele>
        <time>2017-01-22T10:17:24.132Z</time>
      </trkpt>
      <trkpt lat="47.81318" lon="1.96179">
        <ele>118</ele>
        <time>2017-01-22T10:17:25.144Z</time>
      </trkpt>
      <trkpt lat="47.81313" lon="1.96197">
        <ele>117</ele>
        <time>2017-01-22T10:17:26.150Z</time>
      </trkpt>
      <trkpt lat="47.81313" lon="1.96197">
        <ele>117</ele>
        <time>2017-01-22T10:17:27.136Z</time>
      </trkpt>
      <trkpt lat="47.81313" lon="1.96197">
        <ele>117</ele>
        <time>2017-01-22T10:17:28.156Z</time>
      </trkpt>
      <trkpt lat="47.81314" lon="1.9621">
        <ele>115</ele>
        <time>2017-01-22T10:17:29.124Z</time>
      </trkpt>
      <trkpt lat="47.81314" lon="1.9621">
        <ele>115</ele>
        <time>2017-01-22T10:17:30.141Z</time>
      </trkpt>
      <trkpt lat="47.81314" lon="1.96224">
        <ele>115</ele>
        <time>2017-01-22T10:17:31.148Z</time>
      </trkpt>
      <trkpt lat="47.81314" lon="1.96238">
        <ele>115</ele>
        <time>2017-01-22T10:17:32.205Z</time>
      </trkpt>
      <trkpt lat="47.81314" lon="1.96238">
        <ele>115</ele>
        <time>2017-01-22T10:17:33.135Z</time>
      </trkpt>
      <trkpt lat="47.81314" lon="1.96252">
        <ele>115</ele>
        <time>2017-01-22T10:17:34.142Z</time>
      </trkpt>
      <trkpt lat="47.81314" lon="1.96259">
        <ele>115</ele>
        <time>2017-01-22T10:17:35.152Z</time>
      </trkpt>
      <trkpt lat="47.81314" lon="1.96259">
        <ele>115</ele>
        <time>2017-01-22T10:17:36.145Z</time>
      </trkpt>
      <trkpt lat="47.81315" lon="1.96273">
        <ele>115</ele>
        <time>2017-01-22T10:17:37.152Z</time>
      </trkpt>
      <trkpt lat="47.81315" lon="1.96273">
        <ele>115</ele>
        <time>2017-01-22T10:17:38.135Z</time>
      </trkpt>
      <trkpt lat="47.81315" lon="1.96288">
        <ele>114</ele>
        <time>2017-01-22T10:17:39.153Z</time>
      </trkpt>
      <trkpt lat="47.81315" lon="1.96288">
        <ele>114</ele>
        <time>2017-01-22T10:17:40.128Z</time>
      </trkpt>
      <trkpt lat="47.81315" lon="1.96288">
        <ele>114</ele>
        <time>2017-01-22T10:17:41.145Z</time>
      </trkpt>
      <trkpt lat="47.81316" lon="1.96309">
        <ele>114</ele>
        <time>2017-01-22T10:17:42.148Z</time>
      </trkpt>
      <trkpt lat="47.81316" lon="1.96309">
        <ele>114</ele>
        <time>2017-01-22T10:17:43.135Z</time>
      </trkpt>
      <trkpt lat="47.81317" lon="1.96322">
        <ele>114</ele>
        <time>2017-01-22T10:17:44.141Z</time>
      </trkpt>
      <trkpt lat="47.81317" lon="1.96329">
        <ele>114</ele>
        <time>2017-01-22T10:17:45.154Z</time>
      </trkpt>
      <trkpt lat="47.81317" lon="1.96329">
        <ele>114</ele>
        <time>2017-01-22T10:17:46.121Z</time>
      </trkpt>
      <trkpt lat="47.81317" lon="1.96342">
        <ele>115</ele>
        <time>2017-01-22T10:17:47.146Z</time>
      </trkpt>
      <trkpt lat="47.81317" lon="1.96342">
        <ele>115</ele>
        <time>2017-01-22T10:17:48.133Z</time>
      </trkpt>
      <trkpt lat="47.81318" lon="1.96356">
        <ele>115</ele>
        <time>2017-01-22T10:17:49.140Z</time>
      </trkpt>
      <trkpt lat="47.81318" lon="1.96356">
        <ele>115</ele>
        <time>2017-01-22T10:17:50.135Z</time>
      </trkpt>
      <trkpt lat="47.81318" lon="1.96356">
        <ele>115</ele>
        <time>2017-01-22T10:17:51.120Z</time>
      </trkpt>
      <trkpt lat="47.81318" lon="1.96371">
        <ele>115</ele>
        <time>2017-01-22T10:17:52.133Z</time>
      </trkpt>
      <trkpt lat="47.81318" lon="1.96371">
        <ele>115</ele>
        <time>2017-01-22T10:17:53.145Z</time>
      </trkpt>
      <trkpt lat="47.81318" lon="1.96386">
        <ele>115</ele>
        <time>2017-01-22T10:17:54.134Z</time>
      </trkpt>
      <trkpt lat="47.81318" lon="1.96401">
        <ele>115</ele>
        <time>2017-01-22T10:17:55.141Z</time>
      </trkpt>
      <trkpt lat="47.81318" lon="1.96401">
        <ele>115</ele>
        <time>2017-01-22T10:17:56.154Z</time>
      </trkpt>
      <trkpt lat="47.81318" lon="1.96401">
        <ele>115</ele>
        <time>2017-01-22T10:17:57.119Z</time>
      </trkpt>
      <trkpt lat="47.81318" lon="1.96417">
        <ele>114</ele>
        <time>2017-01-22T10:17:58.141Z</time>
      </trkpt>
      <trkpt lat="47.81318" lon="1.96432">
        <ele>114</ele>
        <time>2017-01-22T10:17:59.148Z</time>
      </trkpt>
      <trkpt lat="47.81318" lon="1.96432">
        <ele>114</ele>
        <time>2017-01-22T10:18:00.136Z</time>
      </trkpt>
      <trkpt lat="47.81318" lon="1.96432">
        <ele>114</ele>
        <time>2017-01-22T10:18:01.144Z</time>
      </trkpt>
      <trkpt lat="47.81322" lon="1.96443">
        <ele>114</ele>
        <time>2017-01-22T10:18:02.143Z</time>
      </trkpt>
      <trkpt lat="47.8133" lon="1.96451">
        <ele>114</ele>
        <time>2017-01-22T10:18:03.148Z</time>
      </trkpt>
      <trkpt lat="47.8133" lon="1.96451">
        <ele>114</ele>
        <time>2017-01-22T10:18:04.123Z</time>
      </trkpt>
      <trkpt lat="47.81338" lon="1.96457">
        <ele>114</ele>
        <time>2017-01-22T10:18:05.156Z</time>
      </trkpt>
      <trkpt lat="47.81343" lon="1.9646">
        <ele>114</ele>
        <time>2017-01-22T10:18:06.142Z</time>
      </trkpt>
      <trkpt lat="47.81343" lon="1.9646">
        <ele>114</ele>
        <time>2017-01-22T10:18:07.122Z</time>
      </trkpt>
      <trkpt lat="47.81343" lon="1.9646">
        <ele>114</ele>
        <time>2017-01-22T10:18:08.141Z</time>
      </trkpt>
      <trkpt lat="47.81352" lon="1.96466">
        <ele>113</ele>
        <time>2017-01-22T10:18:09.150Z</time>
      </trkpt>
      <trkpt lat="47.81362" lon="1.96472">
        <ele>113</ele>
        <time>2017-01-22T10:18:10.182Z</time>
      </trkpt>
      <trkpt lat="47.81362" lon="1.96472">
        <ele>113</ele>
        <time>2017-01-22T10:18:11.123Z</time>
      </trkpt>
      <trkpt lat="47.81366" lon="1.96474">
        <ele>113</ele>
        <time>2017-01-22T10:18:12.132Z</time>
      </trkpt>
      <trkpt lat="47.81366" lon="1.96474">
        <ele>113</ele>
        <time>2017-01-22T10:18:13.138Z</time>
      </trkpt>
      <trkpt lat="47.81375" lon="1.9648">
        <ele>112</ele>
        <time>2017-01-22T10:18:14.135Z</time>
      </trkpt>
      <trkpt lat="47.81375" lon="1.9648">
        <ele>112</ele>
        <time>2017-01-22T10:18:15.142Z</time>
      </trkpt>
      <trkpt lat="47.81383" lon="1.96485">
        <ele>112</ele>
        <time>2017-01-22T10:18:16.148Z</time>
      </trkpt>
      <trkpt lat="47.81392" lon="1.96491">
        <ele>112</ele>
        <time>2017-01-22T10:18:17.171Z</time>
      </trkpt>
      <trkpt lat="47.81392" lon="1.96491">
        <ele>112</ele>
        <time>2017-01-22T10:18:18.139Z</time>
      </trkpt>
      <trkpt lat="47.814" lon="1.96496">
        <ele>112</ele>
        <time>2017-01-22T10:18:19.145Z</time>
      </trkpt>
      <trkpt lat="47.814" lon="1.96496">
        <ele>112</ele>
        <time>2017-01-22T10:18:20.152Z</time>
      </trkpt>
      <trkpt lat="47.81405" lon="1.96499">
        <ele>112</ele>
        <time>2017-01-22T10:18:21.142Z</time>
      </trkpt>
      <trkpt lat="47.81414" lon="1.96505">
        <ele>113</ele>
        <time>2017-01-22T10:18:22.148Z</time>
      </trkpt>
      <trkpt lat="47.81414" lon="1.96505">
        <ele>113</ele>
        <time>2017-01-22T10:18:23.152Z</time>
      </trkpt>
      <trkpt lat="47.81414" lon="1.96505">
        <ele>113</ele>
        <time>2017-01-22T10:18:24.144Z</time>
      </trkpt>
      <trkpt lat="47.81424" lon="1.96511">
        <ele>112</ele>
        <time>2017-01-22T10:18:25.150Z</time>
      </trkpt>
      <trkpt lat="47.81433" lon="1.96516">
        <ele>113</ele>
        <time>2017-01-22T10:18:26.157Z</time>
      </trkpt>
      <trkpt lat="47.81433" lon="1.96516">
        <ele>113</ele>
        <time>2017-01-22T10:18:27.118Z</time>
      </trkpt>
      <trkpt lat="47.81433" lon="1.96516">
        <ele>113</ele>
        <time>2017-01-22T10:18:28.126Z</time>
      </trkpt>
      <trkpt lat="47.81445" lon="1.96524">
        <ele>112</ele>
        <time>2017-01-22T10:18:29.141Z</time>
      </trkpt>
      <trkpt lat="47.81445" lon="1.96524">
        <ele>112</ele>
        <time>2017-01-22T10:18:30.147Z</time>
      </trkpt>
      <trkpt lat="47.81445" lon="1.96524">
        <ele>112</ele>
        <time>2017-01-22T10:18:31.144Z</time>
      </trkpt>
      <trkpt lat="47.81458" lon="1.96532">
        <ele>112</ele>
        <time>2017-01-22T10:18:32.151Z</time>
      </trkpt>
      <trkpt lat="47.81458" lon="1.96532">
        <ele>112</ele>
        <time>2017-01-22T10:18:33.141Z</time>
      </trkpt>
      <trkpt lat="47.81462" lon="1.96535">
        <ele>112</ele>
        <time>2017-01-22T10:18:34.148Z</time>
      </trkpt>
      <trkpt lat="47.8147" lon="1.9654">
        <ele>112</ele>
        <time>2017-01-22T10:18:35.145Z</time>
      </trkpt>
      <trkpt lat="47.8147" lon="1.9654">
        <ele>112</ele>
        <time>2017-01-22T10:18:36.136Z</time>
      </trkpt>
      <trkpt lat="47.81474" lon="1.96543">
        <ele>112</ele>
        <time>2017-01-22T10:18:37.156Z</time>
      </trkpt>
      <trkpt lat="47.81474" lon="1.96543">
        <ele>112</ele>
        <time>2017-01-22T10:18:38.122Z</time>
      </trkpt>
      <trkpt lat="47.81482" lon="1.96549">
        <ele>112</ele>
        <time>2017-01-22T10:18:39.130Z</time>
      </trkpt>
      <trkpt lat="47.81482" lon="1.96549">
        <ele>112</ele>
        <time>2017-01-22T10:18:40.145Z</time>
      </trkpt>
      <trkpt lat="47.81491" lon="1.96554">
        <ele>111</ele>
        <time>2017-01-22T10:18:41.155Z</time>
      </trkpt>
      <trkpt lat="47.81491" lon="1.96554">
        <ele>111</ele>
        <time>2017-01-22T10:18:42.120Z</time>
      </trkpt>
      <trkpt lat="47.81499" lon="1.9656">
        <ele>111</ele>
        <time>2017-01-22T10:18:43.128Z</time>
      </trkpt>
      <trkpt lat="47.81499" lon="1.9656">
        <ele>111</ele>
        <time>2017-01-22T10:18:44.135Z</time>
      </trkpt>
      <trkpt lat="47.81507" lon="1.96567">
        <ele>111</ele>
        <time>2017-01-22T10:18:45.142Z</time>
      </trkpt>
      <trkpt lat="47.81515" lon="1.96572">
        <ele>111</ele>
        <time>2017-01-22T10:18:46.148Z</time>
      </trkpt>
      <trkpt lat="47.81515" lon="1.96572">
        <ele>111</ele>
        <time>2017-01-22T10:18:47.145Z</time>
      </trkpt>
      <trkpt lat="47.81519" lon="1.96575">
        <ele>111</ele>
        <time>2017-01-22T10:18:48.130Z</time>
      </trkpt>
      <trkpt lat="47.81519" lon="1.96575">
        <ele>111</ele>
        <time>2017-01-22T10:18:49.137Z</time>
      </trkpt>
      <trkpt lat="47.81533" lon="1.96583">
        <ele>110</ele>
        <time>2017-01-22T10:18:50.145Z</time>
      </trkpt>
      <trkpt lat="47.81533" lon="1.96583">
        <ele>110</ele>
        <time>2017-01-22T10:18:51.140Z</time>
      </trkpt>
      <trkpt lat="47.81533" lon="1.96583">
        <ele>110</ele>
        <time>2017-01-22T10:18:52.118Z</time>
      </trkpt>
      <trkpt lat="47.81542" lon="1.96589">
        <ele>110</ele>
        <time>2017-01-22T10:18:53.145Z</time>
      </trkpt>
      <trkpt lat="47.81547" lon="1.96593">
        <ele>110</ele>
        <time>2017-01-22T10:18:54.140Z</time>
      </trkpt>
      <trkpt lat="47.81547" lon="1.96593">
        <ele>110</ele>
        <time>2017-01-22T10:18:55.145Z</time>
      </trkpt>
      <trkpt lat="47.81557" lon="1.96599">
        <ele>109</ele>
        <time>2017-01-22T10:18:56.153Z</time>
      </trkpt>
      <trkpt lat="47.81557" lon="1.96599">
        <ele>109</ele>
        <time>2017-01-22T10:18:57.120Z</time>
      </trkpt>
      <trkpt lat="47.81568" lon="1.96606">
        <ele>108</ele>
        <time>2017-01-22T10:18:58.145Z</time>
      </trkpt>
      <trkpt lat="47.81572" lon="1.96609">
        <ele>108</ele>
        <time>2017-01-22T10:18:59.140Z</time>
      </trkpt>
      <trkpt lat="47.81572" lon="1.96609">
        <ele>108</ele>
        <time>2017-01-22T10:19:00.144Z</time>
      </trkpt>
      <trkpt lat="47.8158" lon="1.96617">
        <ele>108</ele>
        <time>2017-01-22T10:19:01.123Z</time>
      </trkpt>
      <trkpt lat="47.8158" lon="1.96617">
        <ele>108</ele>
        <time>2017-01-22T10:19:02.136Z</time>
      </trkpt>
      <trkpt lat="47.81584" lon="1.96625">
        <ele>107</ele>
        <time>2017-01-22T10:19:03.143Z</time>
      </trkpt>
      <trkpt lat="47.81587" lon="1.96634">
        <ele>108</ele>
        <time>2017-01-22T10:19:04.153Z</time>
      </trkpt>
      <trkpt lat="47.81587" lon="1.96634">
        <ele>108</ele>
        <time>2017-01-22T10:19:05.132Z</time>
      </trkpt>
      <trkpt lat="47.81587" lon="1.96634">
        <ele>108</ele>
        <time>2017-01-22T10:19:06.142Z</time>
      </trkpt>
      <trkpt lat="47.81593" lon="1.96641">
        <ele>109</ele>
        <time>2017-01-22T10:19:07.134Z</time>
      </trkpt>
      <trkpt lat="47.81601" lon="1.96641">
        <ele>109</ele>
        <time>2017-01-22T10:19:08.143Z</time>
      </trkpt>
      <trkpt lat="47.81601" lon="1.96641">
        <ele>109</ele>
        <time>2017-01-22T10:19:09.134Z</time>
      </trkpt>
      <trkpt lat="47.81601" lon="1.96641">
        <ele>109</ele>
        <time>2017-01-22T10:19:10.146Z</time>
      </trkpt>
      <trkpt lat="47.81609" lon="1.9664">
        <ele>108</ele>
        <time>2017-01-22T10:19:11.136Z</time>
      </trkpt>
      <trkpt lat="47.81617" lon="1.9664">
        <ele>108</ele>
        <time>2017-01-22T10:19:12.144Z</time>
      </trkpt>
      <trkpt lat="47.81617" lon="1.9664">
        <ele>108</ele>
        <time>2017-01-22T10:19:13.145Z</time>
      </trkpt>
      <trkpt lat="47.81621" lon="1.96641">
        <ele>108</ele>
        <time>2017-01-22T10:19:14.144Z</time>
      </trkpt>
      <trkpt lat="47.8163" lon="1.96647">
        <ele>108</ele>
        <time>2017-01-22T10:19:15.150Z</time>
      </trkpt>
      <trkpt lat="47.8163" lon="1.96647">
        <ele>108</ele>
        <time>2017-01-22T10:19:16.135Z</time>
      </trkpt>
      <trkpt lat="47.8164" lon="1.96654">
        <ele>108</ele>
        <time>2017-01-22T10:19:17.153Z</time>
      </trkpt>
      <trkpt lat="47.8164" lon="1.96654">
        <ele>108</ele>
        <time>2017-01-22T10:19:18.140Z</time>
      </trkpt>
      <trkpt lat="47.81644" lon="1.96656">
        <ele>108</ele>
        <time>2017-01-22T10:19:19.129Z</time>
      </trkpt>
      <trkpt lat="47.81644" lon="1.96656">
        <ele>108</ele>
        <time>2017-01-22T10:19:20.141Z</time>
      </trkpt>
      <trkpt lat="47.81653" lon="1.96661">
        <ele>109</ele>
        <time>2017-01-22T10:19:21.134Z</time>
      </trkpt>
      <trkpt lat="47.81653" lon="1.96661">
        <ele>109</ele>
        <time>2017-01-22T10:19:22.145Z</time>
      </trkpt>
      <trkpt lat="47.81664" lon="1.96668">
        <ele>109</ele>
        <time>2017-01-22T10:19:23.122Z</time>
      </trkpt>
      <trkpt lat="47.81669" lon="1.96671">
        <ele>109</ele>
        <time>2017-01-22T10:19:24.140Z</time>
      </trkpt>
      <trkpt lat="47.8168" lon="1.96678">
        <ele>110</ele>
        <time>2017-01-22T10:19:25.146Z</time>
      </trkpt>
      <trkpt lat="47.8168" lon="1.96678">
        <ele>110</ele>
        <time>2017-01-22T10:19:26.119Z</time>
      </trkpt>
      <trkpt lat="47.81685" lon="1.96681">
        <ele>110</ele>
        <time>2017-01-22T10:19:27.131Z</time>
      </trkpt>
      <trkpt lat="47.81696" lon="1.9669">
        <ele>110</ele>
        <time>2017-01-22T10:19:28.143Z</time>
      </trkpt>
      <trkpt lat="47.81696" lon="1.9669">
        <ele>110</ele>
        <time>2017-01-22T10:19:29.127Z</time>
      </trkpt>
      <trkpt lat="47.81701" lon="1.96694">
        <ele>110</ele>
        <time>2017-01-22T10:19:30.145Z</time>
      </trkpt>
      <trkpt lat="47.81712" lon="1.96701">
        <ele>110</ele>
        <time>2017-01-22T10:19:31.189Z</time>
      </trkpt>
      <trkpt lat="47.81712" lon="1.96701">
        <ele>110</ele>
        <time>2017-01-22T10:19:32.124Z</time>
      </trkpt>
      <trkpt lat="47.81712" lon="1.96701">
        <ele>110</ele>
        <time>2017-01-22T10:19:33.152Z</time>
      </trkpt>
      <trkpt lat="47.81722" lon="1.96709">
        <ele>111</ele>
        <time>2017-01-22T10:19:34.155Z</time>
      </trkpt>
      <trkpt lat="47.81722" lon="1.96709">
        <ele>111</ele>
        <time>2017-01-22T10:19:35.121Z</time>
      </trkpt>
      <trkpt lat="47.81736" lon="1.96718">
        <ele>111</ele>
        <time>2017-01-22T10:19:36.155Z</time>
      </trkpt>
      <trkpt lat="47.81736" lon="1.96718">
        <ele>111</ele>
        <time>2017-01-22T10:19:37.121Z</time>
      </trkpt>
      <trkpt lat="47.8175" lon="1.96725">
        <ele>110</ele>
        <time>2017-01-22T10:19:38.133Z</time>
      </trkpt>
      <trkpt lat="47.81763" lon="1.96734">
        <ele>110</ele>
        <time>2017-01-22T10:19:39.145Z</time>
      </trkpt>
      <trkpt lat="47.81763" lon="1.96734">
        <ele>110</ele>
        <time>2017-01-22T10:19:40.133Z</time>
      </trkpt>
      <trkpt lat="47.81763" lon="1.96734">
        <ele>110</ele>
        <time>2017-01-22T10:19:41.146Z</time>
      </trkpt>
      <trkpt lat="47.81777" lon="1.96741">
        <ele>110</ele>
        <time>2017-01-22T10:19:42.122Z</time>
      </trkpt>
      <trkpt lat="47.8179" lon="1.96749">
        <ele>111</ele>
        <time>2017-01-22T10:19:43.141Z</time>
      </trkpt>
      <trkpt lat="47.8179" lon="1.96749">
        <ele>111</ele>
        <time>2017-01-22T10:19:44.136Z</time>
      </trkpt>
      <trkpt lat="47.81797" lon="1.96751">
        <ele>111</ele>
        <time>2017-01-22T10:19:45.128Z</time>
      </trkpt>
      <trkpt lat="47.81797" lon="1.96751">
        <ele>111</ele>
        <time>2017-01-22T10:19:46.140Z</time>
      </trkpt>
      <trkpt lat="47.81811" lon="1.96747">
        <ele>112</ele>
        <time>2017-01-22T10:19:47.147Z</time>
      </trkpt>
      <trkpt lat="47.81811" lon="1.96747">
        <ele>112</ele>
        <time>2017-01-22T10:19:48.147Z</time>
      </trkpt>
      <trkpt lat="47.81823" lon="1.96738">
        <ele>112</ele>
        <time>2017-01-22T10:19:49.154Z</time>
      </trkpt>
      <trkpt lat="47.81823" lon="1.96738">
        <ele>112</ele>
        <time>2017-01-22T10:19:50.120Z</time>
      </trkpt>
      <trkpt lat="47.81834" lon="1.9673">
        <ele>112</ele>
        <time>2017-01-22T10:19:51.128Z</time>
      </trkpt>
      <trkpt lat="47.8184" lon="1.96726">
        <ele>112</ele>
        <time>2017-01-22T10:19:52.154Z</time>
      </trkpt>
      <trkpt lat="47.8184" lon="1.96726">
        <ele>112</ele>
        <time>2017-01-22T10:19:53.120Z</time>
      </trkpt>
      <trkpt lat="47.8185" lon="1.96718">
        <ele>111</ele>
        <time>2017-01-22T10:19:54.134Z</time>
      </trkpt>
      <trkpt lat="47.8185" lon="1.96718">
        <ele>111</ele>
        <time>2017-01-22T10:19:55.161Z</time>
      </trkpt>
      <trkpt lat="47.81859" lon="1.9671">
        <ele>112</ele>
        <time>2017-01-22T10:19:56.133Z</time>
      </trkpt>
      <trkpt lat="47.81868" lon="1.96698">
        <ele>112</ele>
        <time>2017-01-22T10:19:57.143Z</time>
      </trkpt>
      <trkpt lat="47.81868" lon="1.96698">
        <ele>112</ele>
        <time>2017-01-22T10:19:58.119Z</time>
      </trkpt>
      <trkpt lat="47.81868" lon="1.96698">
        <ele>112</ele>
        <time>2017-01-22T10:19:59.144Z</time>
      </trkpt>
      <trkpt lat="47.81875" lon="1.96682">
        <ele>112</ele>
        <time>2017-01-22T10:20:00.143Z</time>
      </trkpt>
      <trkpt lat="47.81883" lon="1.96668">
        <ele>111</ele>
        <time>2017-01-22T10:20:01.150Z</time>
      </trkpt>
      <trkpt lat="47.81883" lon="1.96668">
        <ele>111</ele>
        <time>2017-01-22T10:20:02.124Z</time>
      </trkpt>
      <trkpt lat="47.81888" lon="1.96662">
        <ele>112</ele>
        <time>2017-01-22T10:20:03.151Z</time>
      </trkpt>
      <trkpt lat="47.81898" lon="1.96653">
        <ele>111</ele>
        <time>2017-01-22T10:20:04.146Z</time>
      </trkpt>
      <trkpt lat="47.81898" lon="1.96653">
        <ele>111</ele>
        <time>2017-01-22T10:20:05.147Z</time>
      </trkpt>
      <trkpt lat="47.81909" lon="1.96642">
        <ele>111</ele>
        <time>2017-01-22T10:20:06.156Z</time>
      </trkpt>
      <trkpt lat="47.81909" lon="1.96642">
        <ele>111</ele>
        <time>2017-01-22T10:20:07.136Z</time>
      </trkpt>
      <trkpt lat="47.81915" lon="1.96637">
        <ele>111</ele>
        <time>2017-01-22T10:20:08.148Z</time>
      </trkpt>
      <trkpt lat="47.81927" lon="1.96628">
        <ele>110</ele>
        <time>2017-01-22T10:20:09.154Z</time>
      </trkpt>
      <trkpt lat="47.81927" lon="1.96628">
        <ele>110</ele>
        <time>2017-01-22T10:20:10.142Z</time>
      </trkpt>
      <trkpt lat="47.81927" lon="1.96628">
        <ele>110</ele>
        <time>2017-01-22T10:20:11.149Z</time>
      </trkpt>
      <trkpt lat="47.81945" lon="1.96624">
        <ele>107</ele>
        <time>2017-01-22T10:20:12.154Z</time>
      </trkpt>
      <trkpt lat="47.81945" lon="1.96624">
        <ele>107</ele>
        <time>2017-01-22T10:20:13.141Z</time>
      </trkpt>
      <trkpt lat="47.81958" lon="1.96628">
        <ele>107</ele>
        <time>2017-01-22T10:20:14.147Z</time>
      </trkpt>
      <trkpt lat="47.81958" lon="1.96628">
        <ele>107</ele>
        <time>2017-01-22T10:20:15.122Z</time>
      </trkpt>
      <trkpt lat="47.81958" lon="1.96628">
        <ele>107</ele>
        <time>2017-01-22T10:20:16.133Z</time>
      </trkpt>
      <trkpt lat="47.81977" lon="1.96637">
        <ele>106</ele>
        <time>2017-01-22T10:20:17.141Z</time>
      </trkpt>
      <trkpt lat="47.81977" lon="1.96637">
        <ele>106</ele>
        <time>2017-01-22T10:20:18.125Z</time>
      </trkpt>
      <trkpt lat="47.81984" lon="1.9664">
        <ele>106</ele>
        <time>2017-01-22T10:20:19.135Z</time>
      </trkpt>
      <trkpt lat="47.81997" lon="1.96647">
        <ele>106</ele>
        <time>2017-01-22T10:20:20.141Z</time>
      </trkpt>
      <trkpt lat="47.81997" lon="1.96647">
        <ele>106</ele>
        <time>2017-01-22T10:20:21.124Z</time>
      </trkpt>
      <trkpt lat="47.82004" lon="1.9665">
        <ele>106</ele>
        <time>2017-01-22T10:20:22.142Z</time>
      </trkpt>
      <trkpt lat="47.82004" lon="1.9665">
        <ele>106</ele>
        <time>2017-01-22T10:20:23.162Z</time>
      </trkpt>
      <trkpt lat="47.82015" lon="1.96657">
        <ele>106</ele>
        <time>2017-01-22T10:20:24.135Z</time>
      </trkpt>
      <trkpt lat="47.82026" lon="1.96662">
        <ele>106</ele>
        <time>2017-01-22T10:20:25.144Z</time>
      </trkpt>
      <trkpt lat="47.82026" lon="1.96662">
        <ele>106</ele>
        <time>2017-01-22T10:20:26.134Z</time>
      </trkpt>
      <trkpt lat="47.82026" lon="1.96662">
        <ele>106</ele>
        <time>2017-01-22T10:20:27.145Z</time>
      </trkpt>
      <trkpt lat="47.82036" lon="1.96666">
        <ele>106</ele>
        <time>2017-01-22T10:20:28.143Z</time>
      </trkpt>
      <trkpt lat="47.82047" lon="1.9667">
        <ele>106</ele>
        <time>2017-01-22T10:20:29.148Z</time>
      </trkpt>
      <trkpt lat="47.82047" lon="1.9667">
        <ele>106</ele>
        <time>2017-01-22T10:20:30.143Z</time>
      </trkpt>
      <trkpt lat="47.82058" lon="1.96675">
        <ele>106</ele>
        <time>2017-01-22T10:20:31.151Z</time>
      </trkpt>
      <trkpt lat="47.82058" lon="1.96675">
        <ele>106</ele>
        <time>2017-01-22T10:20:32.153Z</time>
      </trkpt>
      <trkpt lat="47.82058" lon="1.96675">
        <ele>106</ele>
        <time>2017-01-22T10:20:33.118Z</time>
      </trkpt>
      <trkpt lat="47.82068" lon="1.96682">
        <ele>106</ele>
        <time>2017-01-22T10:20:34.126Z</time>
      </trkpt>
      <trkpt lat="47.82068" lon="1.96682">
        <ele>106</ele>
        <time>2017-01-22T10:20:35.146Z</time>
      </trkpt>
      <trkpt lat="47.82078" lon="1.96688">
        <ele>106</ele>
        <time>2017-01-22T10:20:36.149Z</time>
      </trkpt>
      <trkpt lat="47.82087" lon="1.96696">
        <ele>106</ele>
        <time>2017-01-22T10:20:37.156Z</time>
      </trkpt>
      <trkpt lat="47.82087" lon="1.96696">
        <ele>106</ele>
        <time>2017-01-22T10:20:38.129Z</time>
      </trkpt>
      <trkpt lat="47.82091" lon="1.96699">
        <ele>106</ele>
        <time>2017-01-22T10:20:39.154Z</time>
      </trkpt>
      <trkpt lat="47.82091" lon="1.96699">
        <ele>106</ele>
        <time>2017-01-22T10:20:40.120Z</time>
      </trkpt>
      <trkpt lat="47.82099" lon="1.96706">
        <ele>106</ele>
        <time>2017-01-22T10:20:41.119Z</time>
      </trkpt>
      <trkpt lat="47.82102" lon="1.96707">
        <ele>106</ele>
        <time>2017-01-22T10:20:42.135Z</time>
      </trkpt>
      <trkpt lat="47.82102" lon="1.96707">
        <ele>106</ele>
        <time>2017-01-22T10:20:43.141Z</time>
      </trkpt>
      <trkpt lat="47.82107" lon="1.96708">
        <ele>105</ele>
        <time>2017-01-22T10:20:44.122Z</time>
      </trkpt>
      <trkpt lat="47.82108" lon="1.96708">
        <ele>105</ele>
        <time>2017-01-22T10:20:45.123Z</time>
      </trkpt>
      <trkpt lat="47.82108" lon="1.96708">
        <ele>105</ele>
        <time>2017-01-22T10:20:46.140Z</time>
      </trkpt>
      <trkpt lat="47.82114" lon="1.9671">
        <ele>105</ele>
        <time>2017-01-22T10:20:47.136Z</time>
      </trkpt>
      <trkpt lat="47.82117" lon="1.96712">
        <ele>105</ele>
        <time>2017-01-22T10:20:48.146Z</time>
      </trkpt>
      <trkpt lat="47.82123" lon="1.96719">
        <ele>105</ele>
        <time>2017-01-22T10:20:49.152Z</time>
      </trkpt>
      <trkpt lat="47.82123" lon="1.96719">
        <ele>105</ele>
        <time>2017-01-22T10:20:50.119Z</time>
      </trkpt>
      <trkpt lat="47.82123" lon="1.96719">
        <ele>105</ele>
        <time>2017-01-22T10:20:51.146Z</time>
      </trkpt>
      <trkpt lat="47.82129" lon="1.9673">
        <ele>104</ele>
        <time>2017-01-22T10:20:52.152Z</time>
      </trkpt>
      <trkpt lat="47.82129" lon="1.9673">
        <ele>104</ele>
        <time>2017-01-22T10:20:53.120Z</time>
      </trkpt>
      <trkpt lat="47.82136" lon="1.96742">
        <ele>104</ele>
        <time>2017-01-22T10:20:54.129Z</time>
      </trkpt>
      <trkpt lat="47.82136" lon="1.96742">
        <ele>104</ele>
        <time>2017-01-22T10:20:55.145Z</time>
      </trkpt>
      <trkpt lat="47.82141" lon="1.96756">
        <ele>104</ele>
        <time>2017-01-22T10:20:56.154Z</time>
      </trkpt>
      <trkpt lat="47.82141" lon="1.96756">
        <ele>104</ele>
        <time>2017-01-22T10:20:57.119Z</time>
      </trkpt>
      <trkpt lat="47.82145" lon="1.96771">
        <ele>104</ele>
        <time>2017-01-22T10:20:58.152Z</time>
      </trkpt>
      <trkpt lat="47.82145" lon="1.96771">
        <ele>104</ele>
        <time>2017-01-22T10:20:59.145Z</time>
      </trkpt>
      <trkpt lat="47.82151" lon="1.96784">
        <ele>104</ele>
        <time>2017-01-22T10:21:00.119Z</time>
      </trkpt>
      <trkpt lat="47.82151" lon="1.96784">
        <ele>104</ele>
        <time>2017-01-22T10:21:01.140Z</time>
      </trkpt>
      <trkpt lat="47.82161" lon="1.96791">
        <ele>104</ele>
        <time>2017-01-22T10:21:02.153Z</time>
      </trkpt>
      <trkpt lat="47.82161" lon="1.96791">
        <ele>104</ele>
        <time>2017-01-22T10:21:03.118Z</time>
      </trkpt>
      <trkpt lat="47.82168" lon="1.96788">
        <ele>105</ele>
        <time>2017-01-22T10:21:04.132Z</time>
      </trkpt>
      <trkpt lat="47.82168" lon="1.96788">
        <ele>105</ele>
        <time>2017-01-22T10:21:05.126Z</time>
      </trkpt>
      <trkpt lat="47.82171" lon="1.9678">
        <ele>105</ele>
        <time>2017-01-22T10:21:06.151Z</time>
      </trkpt>
      <trkpt lat="47.82172" lon="1.9677">
        <ele>106</ele>
        <time>2017-01-22T10:21:07.157Z</time>
      </trkpt>
      <trkpt lat="47.82172" lon="1.9677">
        <ele>106</ele>
        <time>2017-01-22T10:21:08.129Z</time>
      </trkpt>
      <trkpt lat="47.82172" lon="1.9677">
        <ele>106</ele>
        <time>2017-01-22T10:21:09.147Z</time>
      </trkpt>
      <trkpt lat="47.8217" lon="1.96757">
        <ele>106</ele>
        <time>2017-01-22T10:21:10.121Z</time>
      </trkpt>
      <trkpt lat="47.8217" lon="1.96757">
        <ele>106</ele>
        <time>2017-01-22T10:21:11.133Z</time>
      </trkpt>
      <trkpt lat="47.82164" lon="1.96739">
        <ele>107</ele>
        <time>2017-01-22T10:21:12.144Z</time>
      </trkpt>
      <trkpt lat="47.82164" lon="1.96739">
        <ele>107</ele>
        <time>2017-01-22T10:21:13.150Z</time>
      </trkpt>
      <trkpt lat="47.82164" lon="1.96739">
        <ele>107</ele>
        <time>2017-01-22T10:21:14.146Z</time>
      </trkpt>
      <trkpt lat="47.82163" lon="1.96726">
        <ele>108</ele>
        <time>2017-01-22T10:21:15.151Z</time>
      </trkpt>
      <trkpt lat="47.82165" lon="1.96715">
        <ele>108</ele>
        <time>2017-01-22T10:21:16.159Z</time>
      </trkpt>
      <trkpt lat="47.82168" lon="1.9671">
        <ele>108</ele>
        <time>2017-01-22T10:21:17.150Z</time>
      </trkpt>
      <trkpt lat="47.82168" lon="1.9671">
        <ele>108</ele>
        <time>2017-01-22T10:21:18.125Z</time>
      </trkpt>
      <trkpt lat="47.82172" lon="1.96696">
        <ele>107</ele>
        <time>2017-01-22T10:21:19.142Z</time>
      </trkpt>
      <trkpt lat="47.82172" lon="1.96696">
        <ele>107</ele>
        <time>2017-01-22T10:21:20.148Z</time>
      </trkpt>
      <trkpt lat="47.82174" lon="1.96691">
        <ele>107</ele>
        <time>2017-01-22T10:21:21.155Z</time>
      </trkpt>
      <trkpt lat="47.82174" lon="1.96691">
        <ele>107</ele>
        <time>2017-01-22T10:21:22.122Z</time>
      </trkpt>
      <trkpt lat="47.82181" lon="1.96681">
        <ele>107</ele>
        <time>2017-01-22T10:21:23.145Z</time>
      </trkpt>
      <trkpt lat="47.82185" lon="1.96677">
        <ele>107</ele>
        <time>2017-01-22T10:21:24.147Z</time>
      </trkpt>
      <trkpt lat="47.82189" lon="1.96672">
        <ele>106</ele>
        <time>2017-01-22T10:21:25.143Z</time>
      </trkpt>
      <trkpt lat="47.82197" lon="1.96667">
        <ele>106</ele>
        <time>2017-01-22T10:21:26.158Z</time>
      </trkpt>
      <trkpt lat="47.82197" lon="1.96667">
        <ele>106</ele>
        <time>2017-01-22T10:21:27.135Z</time>
      </trkpt>
      <trkpt lat="47.82197" lon="1.96667">
        <ele>106</ele>
        <time>2017-01-22T10:21:28.147Z</time>
      </trkpt>
      <trkpt lat="47.82207" lon="1.96667">
        <ele>106</ele>
        <time>2017-01-22T10:21:29.150Z</time>
      </trkpt>
      <trkpt lat="47.82217" lon="1.96665">
        <ele>106</ele>
        <time>2017-01-22T10:21:30.155Z</time>
      </trkpt>
      <trkpt lat="47.82217" lon="1.96665">
        <ele>106</ele>
        <time>2017-01-22T10:21:31.139Z</time>
      </trkpt>
      <trkpt lat="47.82217" lon="1.96665">
        <ele>106</ele>
        <time>2017-01-22T10:21:32.147Z</time>
      </trkpt>
      <trkpt lat="47.82227" lon="1.9666">
        <ele>106</ele>
        <time>2017-01-22T10:21:33.123Z</time>
      </trkpt>
      <trkpt lat="47.82227" lon="1.9666">
        <ele>106</ele>
        <time>2017-01-22T10:21:34.131Z</time>
      </trkpt>
      <trkpt lat="47.82235" lon="1.96653">
        <ele>106</ele>
        <time>2017-01-22T10:21:35.150Z</time>
      </trkpt>
      <trkpt lat="47.82235" lon="1.96653">
        <ele>106</ele>
        <time>2017-01-22T10:21:36.163Z</time>
      </trkpt>
      <trkpt lat="47.8224" lon="1.96639">
        <ele>105</ele>
        <time>2017-01-22T10:21:37.131Z</time>
      </trkpt>
      <trkpt lat="47.8224" lon="1.96639">
        <ele>105</ele>
        <time>2017-01-22T10:21:38.139Z</time>
      </trkpt>
      <trkpt lat="47.82247" lon="1.96626">
        <ele>105</ele>
        <time>2017-01-22T10:21:39.146Z</time>
      </trkpt>
      <trkpt lat="47.82247" lon="1.96626">
        <ele>105</ele>
        <time>2017-01-22T10:21:40.152Z</time>
      </trkpt>
      <trkpt lat="47.82255" lon="1.96621">
        <ele>105</ele>
        <time>2017-01-22T10:21:41.155Z</time>
      </trkpt>
      <trkpt lat="47.82255" lon="1.96621">
        <ele>105</ele>
        <time>2017-01-22T10:21:42.121Z</time>
      </trkpt>
      <trkpt lat="47.82262" lon="1.96619">
        <ele>104</ele>
        <time>2017-01-22T10:21:43.131Z</time>
      </trkpt>
      <trkpt lat="47.82262" lon="1.96619">
        <ele>104</ele>
        <time>2017-01-22T10:21:44.147Z</time>
      </trkpt>
      <trkpt lat="47.82267" lon="1.96615">
        <ele>104</ele>
        <time>2017-01-22T10:21:45.134Z</time>
      </trkpt>
      <trkpt lat="47.82269" lon="1.96606">
        <ele>104</ele>
        <time>2017-01-22T10:21:46.143Z</time>
      </trkpt>
      <trkpt lat="47.82269" lon="1.96602">
        <ele>104</ele>
        <time>2017-01-22T10:21:47.162Z</time>
      </trkpt>
      <trkpt lat="47.82269" lon="1.96602">
        <ele>104</ele>
        <time>2017-01-22T10:21:48.124Z</time>
      </trkpt>
      <trkpt lat="47.82268" lon="1.96593">
        <ele>103</ele>
        <time>2017-01-22T10:21:49.144Z</time>
      </trkpt>
      <trkpt lat="47.82268" lon="1.96593">
        <ele>103</ele>
        <time>2017-01-22T10:21:50.151Z</time>
      </trkpt>
      <trkpt lat="47.82268" lon="1.96593">
        <ele>103</ele>
        <time>2017-01-22T10:21:51.142Z</time>
      </trkpt>
      <trkpt lat="47.82267" lon="1.96585">
        <ele>103</ele>
        <time>2017-01-22T10:21:52.147Z</time>
      </trkpt>
      <trkpt lat="47.82268" lon="1.96578">
        <ele>103</ele>
        <time>2017-01-22T10:21:53.153Z</time>
      </trkpt>
      <trkpt lat="47.82268" lon="1.96574">
        <ele>103</ele>
        <time>2017-01-22T10:21:54.145Z</time>
      </trkpt>
      <trkpt lat="47.82268" lon="1.96574">
        <ele>103</ele>
        <time>2017-01-22T10:21:55.121Z</time>
      </trkpt>
      <trkpt lat="47.82269" lon="1.96565">
        <ele>103</ele>
        <time>2017-01-22T10:21:56.141Z</time>
      </trkpt>
      <trkpt lat="47.82269" lon="1.96565">
        <ele>103</ele>
        <time>2017-01-22T10:21:57.135Z</time>
      </trkpt>
      <trkpt lat="47.82269" lon="1.96565">
        <ele>103</ele>
        <time>2017-01-22T10:21:58.146Z</time>
      </trkpt>
      <trkpt lat="47.82271" lon="1.96556">
        <ele>103</ele>
        <time>2017-01-22T10:21:59.123Z</time>
      </trkpt>
      <trkpt lat="47.82273" lon="1.96547">
        <ele>104</ele>
        <time>2017-01-22T10:22:00.140Z</time>
      </trkpt>
      <trkpt lat="47.82273" lon="1.96547">
        <ele>104</ele>
        <time>2017-01-22T10:22:01.125Z</time>
      </trkpt>
      <trkpt lat="47.82274" lon="1.96542">
        <ele>103</ele>
        <time>2017-01-22T10:22:02.145Z</time>
      </trkpt>
      <trkpt lat="47.82274" lon="1.96537">
        <ele>103</ele>
        <time>2017-01-22T10:22:03.154Z</time>
      </trkpt>
      <trkpt lat="47.82274" lon="1.96537">
        <ele>103</ele>
        <time>2017-01-22T10:22:04.146Z</time>
      </trkpt>
      <trkpt lat="47.82276" lon="1.96527">
        <ele>103</ele>
        <time>2017-01-22T10:22:05.144Z</time>
      </trkpt>
      <trkpt lat="47.82276" lon="1.96527">
        <ele>103</ele>
        <time>2017-01-22T10:22:06.118Z</time>
      </trkpt>
      <trkpt lat="47.82276" lon="1.96516">
        <ele>103</ele>
        <time>2017-01-22T10:22:07.142Z</time>
      </trkpt>
      <trkpt lat="47.82278" lon="1.96506">
        <ele>104</ele>
        <time>2017-01-22T10:22:08.148Z</time>
      </trkpt>
      <trkpt lat="47.82278" lon="1.96506">
        <ele>104</ele>
        <time>2017-01-22T10:22:09.136Z</time>
      </trkpt>
      <trkpt lat="47.82278" lon="1.96506">
        <ele>104</ele>
        <time>2017-01-22T10:22:10.146Z</time>
      </trkpt>
      <trkpt lat="47.82282" lon="1.96498">
        <ele>105</ele>
        <time>2017-01-22T10:22:11.126Z</time>
      </trkpt>
      <trkpt lat="47.82282" lon="1.96498">
        <ele>105</ele>
        <time>2017-01-22T10:22:12.139Z</time>
      </trkpt>
      <trkpt lat="47.8229" lon="1.96489">
        <ele>105</ele>
        <time>2017-01-22T10:22:13.158Z</time>
      </trkpt>
      <trkpt lat="47.82293" lon="1.96484">
        <ele>106</ele>
        <time>2017-01-22T10:22:14.118Z</time>
      </trkpt>
      <trkpt lat="47.82293" lon="1.96484">
        <ele>106</ele>
        <time>2017-01-22T10:22:15.123Z</time>
      </trkpt>
      <trkpt lat="47.82296" lon="1.96472">
        <ele>107</ele>
        <time>2017-01-22T10:22:16.137Z</time>
      </trkpt>
      <trkpt lat="47.82296" lon="1.96472">
        <ele>107</ele>
        <time>2017-01-22T10:22:17.146Z</time>
      </trkpt>
      <trkpt lat="47.82296" lon="1.96461">
        <ele>108</ele>
        <time>2017-01-22T10:22:18.146Z</time>
      </trkpt>
      <trkpt lat="47.82298" lon="1.96451">
        <ele>109</ele>
        <time>2017-01-22T10:22:19.151Z</time>
      </trkpt>
      <trkpt lat="47.82298" lon="1.96451">
        <ele>109</ele>
        <time>2017-01-22T10:22:20.138Z</time>
      </trkpt>
      <trkpt lat="47.823" lon="1.96447">
        <ele>110</ele>
        <time>2017-01-22T10:22:21.155Z</time>
      </trkpt>
      <trkpt lat="47.823" lon="1.96447">
        <ele>110</ele>
        <time>2017-01-22T10:22:22.121Z</time>
      </trkpt>
      <trkpt lat="47.82304" lon="1.96438">
        <ele>110</ele>
        <time>2017-01-22T10:22:23.146Z</time>
      </trkpt>
      <trkpt lat="47.82306" lon="1.96434">
        <ele>110</ele>
        <time>2017-01-22T10:22:24.152Z</time>
      </trkpt>
      <trkpt lat="47.82306" lon="1.96434">
        <ele>110</ele>
        <time>2017-01-22T10:22:25.146Z</time>
      </trkpt>
      <trkpt lat="47.82311" lon="1.96425">
        <ele>111</ele>
        <time>2017-01-22T10:22:26.158Z</time>
      </trkpt>
      <trkpt lat="47.82311" lon="1.96425">
        <ele>111</ele>
        <time>2017-01-22T10:22:27.124Z</time>
      </trkpt>
      <trkpt lat="47.82316" lon="1.96415">
        <ele>111</ele>
        <time>2017-01-22T10:22:28.147Z</time>
      </trkpt>
      <trkpt lat="47.82318" lon="1.96411">
        <ele>112</ele>
        <time>2017-01-22T10:22:29.141Z</time>
      </trkpt>
      <trkpt lat="47.82318" lon="1.96411">
        <ele>112</ele>
        <time>2017-01-22T10:22:30.146Z</time>
      </trkpt>
      <trkpt lat="47.82326" lon="1.96408">
        <ele>112</ele>
        <time>2017-01-22T10:22:31.145Z</time>
      </trkpt>
      <trkpt lat="47.82335" lon="1.96405">
        <ele>113</ele>
        <time>2017-01-22T10:22:32.150Z</time>
      </trkpt>
      <trkpt lat="47.82339" lon="1.96403">
        <ele>114</ele>
        <time>2017-01-22T10:22:33.203Z</time>
      </trkpt>
      <trkpt lat="47.82339" lon="1.96403">
        <ele>114</ele>
        <time>2017-01-22T10:22:34.140Z</time>
      </trkpt>
      <trkpt lat="47.82347" lon="1.96394">
        <ele>115</ele>
        <time>2017-01-22T10:22:35.146Z</time>
      </trkpt>
      <trkpt lat="47.82347" lon="1.96394">
        <ele>115</ele>
        <time>2017-01-22T10:22:36.143Z</time>
      </trkpt>
      <trkpt lat="47.82347" lon="1.96394">
        <ele>115</ele>
        <time>2017-01-22T10:22:37.187Z</time>
      </trkpt>
      <trkpt lat="47.82352" lon="1.96382">
        <ele>116</ele>
        <time>2017-01-22T10:22:38.122Z</time>
      </trkpt>
      <trkpt lat="47.82354" lon="1.96376">
        <ele>116</ele>
        <time>2017-01-22T10:22:39.140Z</time>
      </trkpt>
      <trkpt lat="47.82354" lon="1.96369">
        <ele>116</ele>
        <time>2017-01-22T10:22:40.146Z</time>
      </trkpt>
      <trkpt lat="47.82352" lon="1.96356">
        <ele>117</ele>
        <time>2017-01-22T10:22:41.153Z</time>
      </trkpt>
      <trkpt lat="47.82352" lon="1.96356">
        <ele>117</ele>
        <time>2017-01-22T10:22:42.136Z</time>
      </trkpt>
      <trkpt lat="47.82346" lon="1.96348">
        <ele>118</ele>
        <time>2017-01-22T10:22:43.156Z</time>
      </trkpt>
      <trkpt lat="47.82346" lon="1.96348">
        <ele>118</ele>
        <time>2017-01-22T10:22:44.121Z</time>
      </trkpt>
      <trkpt lat="47.82344" lon="1.96337">
        <ele>119</ele>
        <time>2017-01-22T10:22:45.142Z</time>
      </trkpt>
      <trkpt lat="47.82344" lon="1.96337">
        <ele>119</ele>
        <time>2017-01-22T10:22:46.158Z</time>
      </trkpt>
      <trkpt lat="47.82344" lon="1.96337">
        <ele>119</ele>
        <time>2017-01-22T10:22:47.125Z</time>
      </trkpt>
      <trkpt lat="47.82344" lon="1.96326">
        <ele>121</ele>
        <time>2017-01-22T10:22:48.125Z</time>
      </trkpt>
      <trkpt lat="47.82344" lon="1.96326">
        <ele>121</ele>
        <time>2017-01-22T10:22:49.134Z</time>
      </trkpt>
      <trkpt lat="47.82345" lon="1.96315">
        <ele>122</ele>
        <time>2017-01-22T10:22:50.141Z</time>
      </trkpt>
      <trkpt lat="47.82345" lon="1.96315">
        <ele>122</ele>
        <time>2017-01-22T10:22:51.148Z</time>
      </trkpt>
      <trkpt lat="47.82346" lon="1.96303">
        <ele>123</ele>
        <time>2017-01-22T10:22:52.154Z</time>
      </trkpt>
      <trkpt lat="47.82346" lon="1.96303">
        <ele>123</ele>
        <time>2017-01-22T10:22:53.120Z</time>
      </trkpt>
      <trkpt lat="47.82351" lon="1.96292">
        <ele>124</ele>
        <time>2017-01-22T10:22:54.130Z</time>
      </trkpt>
      <trkpt lat="47.82351" lon="1.96292">
        <ele>124</ele>
        <time>2017-01-22T10:22:55.146Z</time>
      </trkpt>
      <trkpt lat="47.82355" lon="1.96283">
        <ele>125</ele>
        <time>2017-01-22T10:22:56.134Z</time>
      </trkpt>
      <trkpt lat="47.82355" lon="1.96283">
        <ele>125</ele>
        <time>2017-01-22T10:22:57.140Z</time>
      </trkpt>
      <trkpt lat="47.82358" lon="1.96274">
        <ele>126</ele>
        <time>2017-01-22T10:22:58.147Z</time>
      </trkpt>
      <trkpt lat="47.82359" lon="1.96269">
        <ele>126</ele>
        <time>2017-01-22T10:22:59.136Z</time>
      </trkpt>
      <trkpt lat="47.82363" lon="1.96261">
        <ele>127</ele>
        <time>2017-01-22T10:23:00.142Z</time>
      </trkpt>
      <trkpt lat="47.82363" lon="1.96261">
        <ele>127</ele>
        <time>2017-01-22T10:23:01.155Z</time>
      </trkpt>
      <trkpt lat="47.82363" lon="1.96261">
        <ele>127</ele>
        <time>2017-01-22T10:23:02.147Z</time>
      </trkpt>
      <trkpt lat="47.82366" lon="1.96252">
        <ele>128</ele>
        <time>2017-01-22T10:23:03.154Z</time>
      </trkpt>
      <trkpt lat="47.82369" lon="1.96243">
        <ele>129</ele>
        <time>2017-01-22T10:23:04.144Z</time>
      </trkpt>
      <trkpt lat="47.82369" lon="1.96243">
        <ele>129</ele>
        <time>2017-01-22T10:23:05.144Z</time>
      </trkpt>
      <trkpt lat="47.82372" lon="1.96234">
        <ele>129</ele>
        <time>2017-01-22T10:23:06.149Z</time>
      </trkpt>
      <trkpt lat="47.82372" lon="1.96234">
        <ele>129</ele>
        <time>2017-01-22T10:23:07.137Z</time>
      </trkpt>
      <trkpt lat="47.82372" lon="1.96234">
        <ele>129</ele>
        <time>2017-01-22T10:23:08.148Z</time>
      </trkpt>
      <trkpt lat="47.82376" lon="1.96228">
        <ele>129</ele>
        <time>2017-01-22T10:23:09.145Z</time>
      </trkpt>
      <trkpt lat="47.82379" lon="1.96225">
        <ele>130</ele>
        <time>2017-01-22T10:23:10.151Z</time>
      </trkpt>
      <trkpt lat="47.82379" lon="1.96225">
        <ele>130</ele>
        <time>2017-01-22T10:23:11.138Z</time>
      </trkpt>
      <trkpt lat="47.82379" lon="1.96225">
        <ele>130</ele>
        <time>2017-01-22T10:23:12.147Z</time>
      </trkpt>
      <trkpt lat="47.82387" lon="1.96219">
        <ele>131</ele>
        <time>2017-01-22T10:23:13.165Z</time>
      </trkpt>
      <trkpt lat="47.82387" lon="1.96219">
        <ele>131</ele>
        <time>2017-01-22T10:23:14.154Z</time>
      </trkpt>
      <trkpt lat="47.82387" lon="1.96219">
        <ele>131</ele>
        <time>2017-01-22T10:23:15.120Z</time>
      </trkpt>
      <trkpt lat="47.82389" lon="1.96215">
        <ele>131</ele>
        <time>2017-01-22T10:23:16.145Z</time>
      </trkpt>
      <trkpt lat="47.82395" lon="1.96213">
        <ele>132</ele>
        <time>2017-01-22T10:23:17.152Z</time>
      </trkpt>
      <trkpt lat="47.82397" lon="1.96211">
        <ele>132</ele>
        <time>2017-01-22T10:23:18.202Z</time>
      </trkpt>
      <trkpt lat="47.82397" lon="1.96211">
        <ele>132</ele>
        <time>2017-01-22T10:23:19.134Z</time>
      </trkpt>
      <trkpt lat="47.82397" lon="1.96211">
        <ele>132</ele>
        <time>2017-01-22T10:23:20.147Z</time>
      </trkpt>
      <trkpt lat="47.82401" lon="1.96204">
        <ele>133</ele>
        <time>2017-01-22T10:23:21.154Z</time>
      </trkpt>
      <trkpt lat="47.82401" lon="1.96204">
        <ele>133</ele>
        <time>2017-01-22T10:23:22.120Z</time>
      </trkpt>
      <trkpt lat="47.82402" lon="1.96196">
        <ele>134</ele>
        <time>2017-01-22T10:23:23.150Z</time>
      </trkpt>
      <trkpt lat="47.82402" lon="1.96187">
        <ele>134</ele>
        <time>2017-01-22T10:23:24.156Z</time>
      </trkpt>
      <trkpt lat="47.82401" lon="1.96183">
        <ele>135</ele>
        <time>2017-01-22T10:23:25.142Z</time>
      </trkpt>
      <trkpt lat="47.82401" lon="1.96183">
        <ele>135</ele>
        <time>2017-01-22T10:23:26.145Z</time>
      </trkpt>
      <trkpt lat="47.82397" lon="1.96176">
        <ele>136</ele>
        <time>2017-01-22T10:23:27.151Z</time>
      </trkpt>
      <trkpt lat="47.82397" lon="1.96176">
        <ele>136</ele>
        <time>2017-01-22T10:23:28.135Z</time>
      </trkpt>
      <trkpt lat="47.82392" lon="1.96168">
        <ele>137</ele>
        <time>2017-01-22T10:23:29.143Z</time>
      </trkpt>
      <trkpt lat="47.82392" lon="1.96168">
        <ele>137</ele>
        <time>2017-01-22T10:23:30.135Z</time>
      </trkpt>
      <trkpt lat="47.82392" lon="1.96168">
        <ele>137</ele>
        <time>2017-01-22T10:23:31.151Z</time>
      </trkpt>
      <trkpt lat="47.82386" lon="1.96159">
        <ele>138</ele>
        <time>2017-01-22T10:23:32.154Z</time>
      </trkpt>
      <trkpt lat="47.82386" lon="1.96159">
        <ele>138</ele>
        <time>2017-01-22T10:23:33.124Z</time>
      </trkpt>
      <trkpt lat="47.82381" lon="1.96151">
        <ele>139</ele>
        <time>2017-01-22T10:23:34.135Z</time>
      </trkpt>
      <trkpt lat="47.82375" lon="1.9614">
        <ele>140</ele>
        <time>2017-01-22T10:23:35.141Z</time>
      </trkpt>
      <trkpt lat="47.82375" lon="1.9614">
        <ele>140</ele>
        <time>2017-01-22T10:23:36.130Z</time>
      </trkpt>
      <trkpt lat="47.82371" lon="1.96133">
        <ele>141</ele>
        <time>2017-01-22T10:23:37.143Z</time>
      </trkpt>
      <trkpt lat="47.82365" lon="1.96121">
        <ele>142</ele>
        <time>2017-01-22T10:23:38.160Z</time>
      </trkpt>
      <trkpt lat="47.82365" lon="1.96121">
        <ele>142</ele>
        <time>2017-01-22T10:23:39.149Z</time>
      </trkpt>
      <trkpt lat="47.82361" lon="1.96109">
        <ele>142</ele>
        <time>2017-01-22T10:23:40.156Z</time>
      </trkpt>
      <trkpt lat="47.82358" lon="1.96104">
        <ele>143</ele>
        <time>2017-01-22T10:23:41.140Z</time>
      </trkpt>
      <trkpt lat="47.82358" lon="1.96104">
        <ele>143</ele>
        <time>2017-01-22T10:23:42.144Z</time>
      </trkpt>
      <trkpt lat="47.82352" lon="1.96091">
        <ele>144</ele>
        <time>2017-01-22T10:23:43.153Z</time>
      </trkpt>
      <trkpt lat="47.82352" lon="1.96091">
        <ele>144</ele>
        <time>2017-01-22T10:23:44.120Z</time>
      </trkpt>
      <trkpt lat="47.82352" lon="1.96091">
        <ele>144</ele>
        <time>2017-01-22T10:23:45.127Z</time>
      </trkpt>
      <trkpt lat="47.82348" lon="1.96081">
        <ele>145</ele>
        <time>2017-01-22T10:23:46.137Z</time>
      </trkpt>
      <trkpt lat="47.82348" lon="1.96081">
        <ele>145</ele>
        <time>2017-01-22T10:23:47.145Z</time>
      </trkpt>
      <trkpt lat="47.82342" lon="1.96071">
        <ele>146</ele>
        <time>2017-01-22T10:23:48.139Z</time>
      </trkpt>
      <trkpt lat="47.82342" lon="1.96071">
        <ele>146</ele>
        <time>2017-01-22T10:23:49.147Z</time>
      </trkpt>
      <trkpt lat="47.82338" lon="1.9606">
        <ele>147</ele>
        <time>2017-01-22T10:23:50.136Z</time>
      </trkpt>
      <trkpt lat="47.8233" lon="1.9604">
        <ele>148</ele>
        <time>2017-01-22T10:23:51.143Z</time>
      </trkpt>
      <trkpt lat="47.8233" lon="1.9604">
        <ele>148</ele>
        <time>2017-01-22T10:23:52.123Z</time>
      </trkpt>
      <trkpt lat="47.82327" lon="1.96033">
        <ele>149</ele>
        <time>2017-01-22T10:23:53.127Z</time>
      </trkpt>
      <trkpt lat="47.82319" lon="1.96013">
        <ele>150</ele>
        <time>2017-01-22T10:23:54.143Z</time>
      </trkpt>
      <trkpt lat="47.82319" lon="1.96013">
        <ele>150</ele>
        <time>2017-01-22T10:23:55.135Z</time>
      </trkpt>
      <trkpt lat="47.82319" lon="1.96013">
        <ele>150</ele>
        <time>2017-01-22T10:23:56.148Z</time>
      </trkpt>
      <trkpt lat="47.82314" lon="1.95997">
        <ele>151</ele>
        <time>2017-01-22T10:23:57.155Z</time>
      </trkpt>
      <trkpt lat="47.82314" lon="1.95997">
        <ele>151</ele>
        <time>2017-01-22T10:23:58.121Z</time>
      </trkpt>
      <trkpt lat="47.82306" lon="1.95985">
        <ele>150</ele>
        <time>2017-01-22T10:23:59.136Z</time>
      </trkpt>
      <trkpt lat="47.82306" lon="1.95985">
        <ele>150</ele>
        <time>2017-01-22T10:24:00.145Z</time>
      </trkpt>
      <trkpt lat="47.82299" lon="1.95964">
        <ele>151</ele>
        <time>2017-01-22T10:24:01.151Z</time>
      </trkpt>
      <trkpt lat="47.82299" lon="1.95964">
        <ele>151</ele>
        <time>2017-01-22T10:24:02.140Z</time>
      </trkpt>
      <trkpt lat="47.82296" lon="1.9595">
        <ele>152</ele>
        <time>2017-01-22T10:24:03.146Z</time>
      </trkpt>
      <trkpt lat="47.82296" lon="1.9595">
        <ele>152</ele>
        <time>2017-01-22T10:24:04.132Z</time>
      </trkpt>
      <trkpt lat="47.8229" lon="1.95936">
        <ele>152</ele>
        <time>2017-01-22T10:24:05.157Z</time>
      </trkpt>
      <trkpt lat="47.82287" lon="1.95928">
        <ele>152</ele>
        <time>2017-01-22T10:24:06.147Z</time>
      </trkpt>
      <trkpt lat="47.82287" lon="1.95928">
        <ele>152</ele>
        <time>2017-01-22T10:24:07.136Z</time>
      </trkpt>
      <trkpt lat="47.82287" lon="1.95928">
        <ele>152</ele>
        <time>2017-01-22T10:24:08.144Z</time>
      </trkpt>
      <trkpt lat="47.8228" lon="1.95912">
        <ele>150</ele>
        <time>2017-01-22T10:24:09.151Z</time>
      </trkpt>
      <trkpt lat="47.82275" lon="1.95899">
        <ele>151</ele>
        <time>2017-01-22T10:24:10.157Z</time>
      </trkpt>
      <trkpt lat="47.82275" lon="1.95899">
        <ele>151</ele>
        <time>2017-01-22T10:24:11.152Z</time>
      </trkpt>
      <trkpt lat="47.82275" lon="1.95899">
        <ele>151</ele>
        <time>2017-01-22T10:24:12.145Z</time>
      </trkpt>
      <trkpt lat="47.82271" lon="1.95887">
        <ele>152</ele>
        <time>2017-01-22T10:24:13.121Z</time>
      </trkpt>
      <trkpt lat="47.82271" lon="1.95887">
        <ele>152</ele>
        <time>2017-01-22T10:24:14.144Z</time>
      </trkpt>
      <trkpt lat="47.82263" lon="1.95875">
        <ele>151</ele>
        <time>2017-01-22T10:24:15.138Z</time>
      </trkpt>
      <trkpt lat="47.82263" lon="1.95875">
        <ele>151</ele>
        <time>2017-01-22T10:24:16.146Z</time>
      </trkpt>
      <trkpt lat="47.8226" lon="1.95862">
        <ele>152</ele>
        <time>2017-01-22T10:24:17.141Z</time>
      </trkpt>
      <trkpt lat="47.82258" lon="1.95849">
        <ele>153</ele>
        <time>2017-01-22T10:24:18.148Z</time>
      </trkpt>
      <trkpt lat="47.82258" lon="1.95849">
        <ele>153</ele>
        <time>2017-01-22T10:24:19.135Z</time>
      </trkpt>
      <trkpt lat="47.82258" lon="1.95849">
        <ele>153</ele>
        <time>2017-01-22T10:24:20.150Z</time>
      </trkpt>
      <trkpt lat="47.82255" lon="1.95836">
        <ele>153</ele>
        <time>2017-01-22T10:24:21.153Z</time>
      </trkpt>
      <trkpt lat="47.82255" lon="1.95836">
        <ele>153</ele>
        <time>2017-01-22T10:24:22.119Z</time>
      </trkpt>
      <trkpt lat="47.82252" lon="1.95824">
        <ele>154</ele>
        <time>2017-01-22T10:24:23.127Z</time>
      </trkpt>
      <trkpt lat="47.82251" lon="1.95818">
        <ele>154</ele>
        <time>2017-01-22T10:24:24.125Z</time>
      </trkpt>
      <trkpt lat="47.82251" lon="1.95818">
        <ele>154</ele>
        <time>2017-01-22T10:24:25.139Z</time>
      </trkpt>
      <trkpt lat="47.82246" lon="1.95804">
        <ele>154</ele>
        <time>2017-01-22T10:24:26.128Z</time>
      </trkpt>
      <trkpt lat="47.82241" lon="1.95797">
        <ele>152</ele>
        <time>2017-01-22T10:24:27.121Z</time>
      </trkpt>
      <trkpt lat="47.82233" lon="1.95781">
        <ele>150</ele>
        <time>2017-01-22T10:24:28.145Z</time>
      </trkpt>
      <trkpt lat="47.82233" lon="1.95781">
        <ele>150</ele>
        <time>2017-01-22T10:24:29.137Z</time>
      </trkpt>
      <trkpt lat="47.82229" lon="1.95772">
        <ele>149</ele>
        <time>2017-01-22T10:24:30.150Z</time>
      </trkpt>
      <trkpt lat="47.82222" lon="1.95756">
        <ele>148</ele>
        <time>2017-01-22T10:24:31.156Z</time>
      </trkpt>
      <trkpt lat="47.82222" lon="1.95756">
        <ele>148</ele>
        <time>2017-01-22T10:24:32.120Z</time>
      </trkpt>
      <trkpt lat="47.82218" lon="1.95748">
        <ele>147</ele>
        <time>2017-01-22T10:24:33.129Z</time>
      </trkpt>
      <trkpt lat="47.82218" lon="1.95748">
        <ele>147</ele>
        <time>2017-01-22T10:24:34.142Z</time>
      </trkpt>
      <trkpt lat="47.82212" lon="1.95733">
        <ele>144</ele>
        <time>2017-01-22T10:24:35.136Z</time>
      </trkpt>
      <trkpt lat="47.82212" lon="1.95733">
        <ele>144</ele>
        <time>2017-01-22T10:24:36.147Z</time>
      </trkpt>
      <trkpt lat="47.82209" lon="1.95721">
        <ele>143</ele>
        <time>2017-01-22T10:24:37.133Z</time>
      </trkpt>
      <trkpt lat="47.82209" lon="1.95721">
        <ele>143</ele>
        <time>2017-01-22T10:24:38.140Z</time>
      </trkpt>
      <trkpt lat="47.82211" lon="1.95707">
        <ele>142</ele>
        <time>2017-01-22T10:24:39.138Z</time>
      </trkpt>
      <trkpt lat="47.82213" lon="1.95702">
        <ele>141</ele>
        <time>2017-01-22T10:24:40.147Z</time>
      </trkpt>
      <trkpt lat="47.8222" lon="1.95692">
        <ele>140</ele>
        <time>2017-01-22T10:24:41.154Z</time>
      </trkpt>
      <trkpt lat="47.8222" lon="1.95692">
        <ele>140</ele>
        <time>2017-01-22T10:24:42.138Z</time>
      </trkpt>
      <trkpt lat="47.82223" lon="1.95686">
        <ele>140</ele>
        <time>2017-01-22T10:24:43.133Z</time>
      </trkpt>
      <trkpt lat="47.82232" lon="1.95675">
        <ele>139</ele>
        <time>2017-01-22T10:24:44.144Z</time>
      </trkpt>
      <trkpt lat="47.82232" lon="1.95675">
        <ele>139</ele>
        <time>2017-01-22T10:24:45.152Z</time>
      </trkpt>
      <trkpt lat="47.82232" lon="1.95675">
        <ele>139</ele>
        <time>2017-01-22T10:24:46.120Z</time>
      </trkpt>
      <trkpt lat="47.82239" lon="1.95663">
        <ele>138</ele>
        <time>2017-01-22T10:24:47.154Z</time>
      </trkpt>
      <trkpt lat="47.82239" lon="1.95663">
        <ele>138</ele>
        <time>2017-01-22T10:24:48.120Z</time>
      </trkpt>
      <trkpt lat="47.82252" lon="1.95643">
        <ele>137</ele>
        <time>2017-01-22T10:24:49.146Z</time>
      </trkpt>
      <trkpt lat="47.82252" lon="1.95643">
        <ele>137</ele>
        <time>2017-01-22T10:24:50.151Z</time>
      </trkpt>
      <trkpt lat="47.82256" lon="1.95637">
        <ele>137</ele>
        <time>2017-01-22T10:24:51.156Z</time>
      </trkpt>
      <trkpt lat="47.82256" lon="1.95637">
        <ele>137</ele>
        <time>2017-01-22T10:24:52.122Z</time>
      </trkpt>
      <trkpt lat="47.82264" lon="1.95624">
        <ele>136</ele>
        <time>2017-01-22T10:24:53.149Z</time>
      </trkpt>
      <trkpt lat="47.82268" lon="1.95619">
        <ele>136</ele>
        <time>2017-01-22T10:24:54.154Z</time>
      </trkpt>
      <trkpt lat="47.82268" lon="1.95619">
        <ele>136</ele>
        <time>2017-01-22T10:24:55.148Z</time>
      </trkpt>
      <trkpt lat="47.82275" lon="1.95608">
        <ele>135</ele>
        <time>2017-01-22T10:24:56.157Z</time>
      </trkpt>
      <trkpt lat="47.82275" lon="1.95608">
        <ele>135</ele>
        <time>2017-01-22T10:24:57.123Z</time>
      </trkpt>
      <trkpt lat="47.82283" lon="1.95597">
        <ele>134</ele>
        <time>2017-01-22T10:24:58.118Z</time>
      </trkpt>
      <trkpt lat="47.82283" lon="1.95597">
        <ele>134</ele>
        <time>2017-01-22T10:24:59.148Z</time>
      </trkpt>
      <trkpt lat="47.82293" lon="1.95583">
        <ele>133</ele>
        <time>2017-01-22T10:25:00.147Z</time>
      </trkpt>
      <trkpt lat="47.82303" lon="1.95571">
        <ele>131</ele>
        <time>2017-01-22T10:25:01.153Z</time>
      </trkpt>
      <trkpt lat="47.82303" lon="1.95571">
        <ele>131</ele>
        <time>2017-01-22T10:25:02.123Z</time>
      </trkpt>
      <trkpt lat="47.82307" lon="1.95568">
        <ele>130</ele>
        <time>2017-01-22T10:25:03.137Z</time>
      </trkpt>
      <trkpt lat="47.82315" lon="1.95566">
        <ele>129</ele>
        <time>2017-01-22T10:25:04.147Z</time>
      </trkpt>
      <trkpt lat="47.82315" lon="1.95566">
        <ele>129</ele>
        <time>2017-01-22T10:25:05.138Z</time>
      </trkpt>
      <trkpt lat="47.82317" lon="1.95567">
        <ele>129</ele>
        <time>2017-01-22T10:25:06.141Z</time>
      </trkpt>
      <trkpt lat="47.82317" lon="1.95567">
        <ele>129</ele>
        <time>2017-01-22T10:25:07.148Z</time>
      </trkpt>
      <trkpt lat="47.8232" lon="1.95572">
        <ele>128</ele>
        <time>2017-01-22T10:25:08.144Z</time>
      </trkpt>
      <trkpt lat="47.82322" lon="1.9558">
        <ele>128</ele>
        <time>2017-01-22T10:25:09.150Z</time>
      </trkpt>
      <trkpt lat="47.82322" lon="1.9558">
        <ele>128</ele>
        <time>2017-01-22T10:25:10.137Z</time>
      </trkpt>
      <trkpt lat="47.82322" lon="1.9558">
        <ele>128</ele>
        <time>2017-01-22T10:25:11.148Z</time>
      </trkpt>
      <trkpt lat="47.82323" lon="1.95589">
        <ele>128</ele>
        <time>2017-01-22T10:25:12.150Z</time>
      </trkpt>
      <trkpt lat="47.82327" lon="1.95597">
        <ele>127</ele>
        <time>2017-01-22T10:25:13.156Z</time>
      </trkpt>
      <trkpt lat="47.82327" lon="1.95597">
        <ele>127</ele>
        <time>2017-01-22T10:25:14.143Z</time>
      </trkpt>
      <trkpt lat="47.82329" lon="1.956">
        <ele>127</ele>
        <time>2017-01-22T10:25:15.136Z</time>
      </trkpt>
      <trkpt lat="47.82329" lon="1.956">
        <ele>127</ele>
        <time>2017-01-22T10:25:16.142Z</time>
      </trkpt>
      <trkpt lat="47.82334" lon="1.9561">
        <ele>128</ele>
        <time>2017-01-22T10:25:17.147Z</time>
      </trkpt>
      <trkpt lat="47.82335" lon="1.95615">
        <ele>128</ele>
        <time>2017-01-22T10:25:18.143Z</time>
      </trkpt>
      <trkpt lat="47.82339" lon="1.95626">
        <ele>127</ele>
        <time>2017-01-22T10:25:19.148Z</time>
      </trkpt>
      <trkpt lat="47.82339" lon="1.95626">
        <ele>127</ele>
        <time>2017-01-22T10:25:20.135Z</time>
      </trkpt>
      <trkpt lat="47.82342" lon="1.95631">
        <ele>127</ele>
        <time>2017-01-22T10:25:21.142Z</time>
      </trkpt>
      <trkpt lat="47.82346" lon="1.95642">
        <ele>127</ele>
        <time>2017-01-22T10:25:22.148Z</time>
      </trkpt>
      <trkpt lat="47.82346" lon="1.95642">
        <ele>127</ele>
        <time>2017-01-22T10:25:23.148Z</time>
      </trkpt>
      <trkpt lat="47.82348" lon="1.95647">
        <ele>127</ele>
        <time>2017-01-22T10:25:24.124Z</time>
      </trkpt>
      <trkpt lat="47.82348" lon="1.95647">
        <ele>127</ele>
        <time>2017-01-22T10:25:25.130Z</time>
      </trkpt>
      <trkpt lat="47.82353" lon="1.95657">
        <ele>126</ele>
        <time>2017-01-22T10:25:26.144Z</time>
      </trkpt>
      <trkpt lat="47.82353" lon="1.95657">
        <ele>126</ele>
        <time>2017-01-22T10:25:27.147Z</time>
      </trkpt>
      <trkpt lat="47.82356" lon="1.95668">
        <ele>126</ele>
        <time>2017-01-22T10:25:28.147Z</time>
      </trkpt>
      <trkpt lat="47.82356" lon="1.95668">
        <ele>126</ele>
        <time>2017-01-22T10:25:29.134Z</time>
      </trkpt>
      <trkpt lat="47.82364" lon="1.95687">
        <ele>125</ele>
        <time>2017-01-22T10:25:30.144Z</time>
      </trkpt>
      <trkpt lat="47.82364" lon="1.95687">
        <ele>125</ele>
        <time>2017-01-22T10:25:31.150Z</time>
      </trkpt>
      <trkpt lat="47.82366" lon="1.95692">
        <ele>125</ele>
        <time>2017-01-22T10:25:32.124Z</time>
      </trkpt>
      <trkpt lat="47.82371" lon="1.95701">
        <ele>124</ele>
        <time>2017-01-22T10:25:33.144Z</time>
      </trkpt>
      <trkpt lat="47.82371" lon="1.95701">
        <ele>124</ele>
        <time>2017-01-22T10:25:34.142Z</time>
      </trkpt>
      <trkpt lat="47.82371" lon="1.95701">
        <ele>124</ele>
        <time>2017-01-22T10:25:35.148Z</time>
      </trkpt>
      <trkpt lat="47.82378" lon="1.95707">
        <ele>124</ele>
        <time>2017-01-22T10:25:36.151Z</time>
      </trkpt>
      <trkpt lat="47.82383" lon="1.95716">
        <ele>123</ele>
        <time>2017-01-22T10:25:37.157Z</time>
      </trkpt>
      <trkpt lat="47.82383" lon="1.95716">
        <ele>123</ele>
        <time>2017-01-22T10:25:38.164Z</time>
      </trkpt>
      <trkpt lat="47.82386" lon="1.9572">
        <ele>123</ele>
        <time>2017-01-22T10:25:39.121Z</time>
      </trkpt>
      <trkpt lat="47.82391" lon="1.95729">
        <ele>123</ele>
        <time>2017-01-22T10:25:40.139Z</time>
      </trkpt>
      <trkpt lat="47.82391" lon="1.95729">
        <ele>123</ele>
        <time>2017-01-22T10:25:41.132Z</time>
      </trkpt>
      <trkpt lat="47.82393" lon="1.95735">
        <ele>122</ele>
        <time>2017-01-22T10:25:42.138Z</time>
      </trkpt>
      <trkpt lat="47.82395" lon="1.95746">
        <ele>122</ele>
        <time>2017-01-22T10:25:43.144Z</time>
      </trkpt>
      <trkpt lat="47.82395" lon="1.95746">
        <ele>122</ele>
        <time>2017-01-22T10:25:44.151Z</time>
      </trkpt>
      <trkpt lat="47.82395" lon="1.95758">
        <ele>122</ele>
        <time>2017-01-22T10:25:45.198Z</time>
      </trkpt>
      <trkpt lat="47.82395" lon="1.95758">
        <ele>122</ele>
        <time>2017-01-22T10:25:46.153Z</time>
      </trkpt>
      <trkpt lat="47.82395" lon="1.95758">
        <ele>122</ele>
        <time>2017-01-22T10:25:47.119Z</time>
      </trkpt>
      <trkpt lat="47.82396" lon="1.9577">
        <ele>122</ele>
        <time>2017-01-22T10:25:48.143Z</time>
      </trkpt>
      <trkpt lat="47.82393" lon="1.95779">
        <ele>121</ele>
        <time>2017-01-22T10:25:49.149Z</time>
      </trkpt>
      <trkpt lat="47.82393" lon="1.95779">
        <ele>121</ele>
        <time>2017-01-22T10:25:50.128Z</time>
      </trkpt>
      <trkpt lat="47.82393" lon="1.95779">
        <ele>121</ele>
        <time>2017-01-22T10:25:51.148Z</time>
      </trkpt>
      <trkpt lat="47.82388" lon="1.95785">
        <ele>121</ele>
        <time>2017-01-22T10:25:52.135Z</time>
      </trkpt>
      <trkpt lat="47.82387" lon="1.95793">
        <ele>121</ele>
        <time>2017-01-22T10:25:53.143Z</time>
      </trkpt>
      <trkpt lat="47.82387" lon="1.95793">
        <ele>121</ele>
        <time>2017-01-22T10:25:54.135Z</time>
      </trkpt>
      <trkpt lat="47.82388" lon="1.95798">
        <ele>121</ele>
        <time>2017-01-22T10:25:55.154Z</time>
      </trkpt>
      <trkpt lat="47.82388" lon="1.95798">
        <ele>121</ele>
        <time>2017-01-22T10:25:56.120Z</time>
      </trkpt>
      <trkpt lat="47.82394" lon="1.9581">
        <ele>121</ele>
        <time>2017-01-22T10:25:57.153Z</time>
      </trkpt>
      <trkpt lat="47.82394" lon="1.9581">
        <ele>121</ele>
        <time>2017-01-22T10:25:58.119Z</time>
      </trkpt>
      <trkpt lat="47.824" lon="1.95823">
        <ele>121</ele>
        <time>2017-01-22T10:25:59.134Z</time>
      </trkpt>
      <trkpt lat="47.824" lon="1.95823">
        <ele>121</ele>
        <time>2017-01-22T10:26:00.147Z</time>
      </trkpt>
      <trkpt lat="47.8241" lon="1.95842">
        <ele>120</ele>
        <time>2017-01-22T10:26:01.147Z</time>
      </trkpt>
      <trkpt lat="47.8241" lon="1.95842">
        <ele>120</ele>
        <time>2017-01-22T10:26:02.134Z</time>
      </trkpt>
      <trkpt lat="47.8241" lon="1.95842">
        <ele>120</ele>
        <time>2017-01-22T10:26:03.145Z</time>
      </trkpt>
      <trkpt lat="47.82417" lon="1.95855">
        <ele>119</ele>
        <time>2017-01-22T10:26:04.119Z</time>
      </trkpt>
      <trkpt lat="47.8242" lon="1.95862">
        <ele>119</ele>
        <time>2017-01-22T10:26:05.143Z</time>
      </trkpt>
      <trkpt lat="47.82427" lon="1.95877">
        <ele>119</ele>
        <time>2017-01-22T10:26:06.149Z</time>
      </trkpt>
      <trkpt lat="47.82427" lon="1.95877">
        <ele>119</ele>
        <time>2017-01-22T10:26:07.134Z</time>
      </trkpt>
      <trkpt lat="47.8243" lon="1.95884">
        <ele>119</ele>
        <time>2017-01-22T10:26:08.141Z</time>
      </trkpt>
      <trkpt lat="47.82433" lon="1.9589">
        <ele>119</ele>
        <time>2017-01-22T10:26:09.149Z</time>
      </trkpt>
      <trkpt lat="47.82436" lon="1.95905">
        <ele>119</ele>
        <time>2017-01-22T10:26:10.155Z</time>
      </trkpt>
      <trkpt lat="47.82436" lon="1.95905">
        <ele>119</ele>
        <time>2017-01-22T10:26:11.142Z</time>
      </trkpt>
      <trkpt lat="47.82436" lon="1.95905">
        <ele>119</ele>
        <time>2017-01-22T10:26:12.147Z</time>
      </trkpt>
      <trkpt lat="47.82441" lon="1.95922">
        <ele>118</ele>
        <time>2017-01-22T10:26:13.119Z</time>
      </trkpt>
      <trkpt lat="47.82441" lon="1.95922">
        <ele>118</ele>
        <time>2017-01-22T10:26:14.126Z</time>
      </trkpt>
      <trkpt lat="47.82445" lon="1.95939">
        <ele>118</ele>
        <time>2017-01-22T10:26:15.147Z</time>
      </trkpt>
      <trkpt lat="47.82445" lon="1.95939">
        <ele>118</ele>
        <time>2017-01-22T10:26:16.148Z</time>
      </trkpt>
      <trkpt lat="47.82449" lon="1.95955">
        <ele>118</ele>
        <time>2017-01-22T10:26:17.143Z</time>
      </trkpt>
      <trkpt lat="47.82451" lon="1.95972">
        <ele>118</ele>
        <time>2017-01-22T10:26:18.149Z</time>
      </trkpt>
      <trkpt lat="47.82451" lon="1.95972">
        <ele>118</ele>
        <time>2017-01-22T10:26:19.137Z</time>
      </trkpt>
      <trkpt lat="47.82455" lon="1.95988">
        <ele>118</ele>
        <time>2017-01-22T10:26:20.145Z</time>
      </trkpt>
      <trkpt lat="47.82455" lon="1.95988">
        <ele>118</ele>
        <time>2017-01-22T10:26:21.161Z</time>
      </trkpt>
      <trkpt lat="47.82455" lon="1.95988">
        <ele>118</ele>
        <time>2017-01-22T10:26:22.138Z</time>
      </trkpt>
      <trkpt lat="47.8246" lon="1.96005">
        <ele>118</ele>
        <time>2017-01-22T10:26:23.125Z</time>
      </trkpt>
      <trkpt lat="47.8246" lon="1.96005">
        <ele>118</ele>
        <time>2017-01-22T10:26:24.138Z</time>
      </trkpt>
      <trkpt lat="47.82464" lon="1.96021">
        <ele>118</ele>
        <time>2017-01-22T10:26:25.149Z</time>
      </trkpt>
      <trkpt lat="47.82467" lon="1.96039">
        <ele>118</ele>
        <time>2017-01-22T10:26:26.205Z</time>
      </trkpt>
      <trkpt lat="47.82467" lon="1.96039">
        <ele>118</ele>
        <time>2017-01-22T10:26:27.149Z</time>
      </trkpt>
      <trkpt lat="47.82472" lon="1.96055">
        <ele>118</ele>
        <time>2017-01-22T10:26:28.156Z</time>
      </trkpt>
      <trkpt lat="47.82472" lon="1.96055">
        <ele>118</ele>
        <time>2017-01-22T10:26:29.155Z</time>
      </trkpt>
      <trkpt lat="47.82472" lon="1.96055">
        <ele>118</ele>
        <time>2017-01-22T10:26:30.121Z</time>
      </trkpt>
      <trkpt lat="47.82478" lon="1.96068">
        <ele>118</ele>
        <time>2017-01-22T10:26:31.134Z</time>
      </trkpt>
      <trkpt lat="47.82478" lon="1.96068">
        <ele>118</ele>
        <time>2017-01-22T10:26:32.149Z</time>
      </trkpt>
      <trkpt lat="47.82484" lon="1.96085">
        <ele>118</ele>
        <time>2017-01-22T10:26:33.157Z</time>
      </trkpt>
      <trkpt lat="47.82484" lon="1.96085">
        <ele>118</ele>
        <time>2017-01-22T10:26:34.123Z</time>
      </trkpt>
      <trkpt lat="47.8249" lon="1.96103">
        <ele>118</ele>
        <time>2017-01-22T10:26:35.132Z</time>
      </trkpt>
      <trkpt lat="47.8249" lon="1.96103">
        <ele>118</ele>
        <time>2017-01-22T10:26:36.146Z</time>
      </trkpt>
      <trkpt lat="47.82491" lon="1.9612">
        <ele>118</ele>
        <time>2017-01-22T10:26:37.136Z</time>
      </trkpt>
      <trkpt lat="47.82488" lon="1.96133">
        <ele>119</ele>
        <time>2017-01-22T10:26:38.147Z</time>
      </trkpt>
      <trkpt lat="47.82488" lon="1.96133">
        <ele>119</ele>
        <time>2017-01-22T10:26:39.126Z</time>
      </trkpt>
      <trkpt lat="47.82484" lon="1.96138">
        <ele>119</ele>
        <time>2017-01-22T10:26:40.154Z</time>
      </trkpt>
      <trkpt lat="47.82484" lon="1.96138">
        <ele>119</ele>
        <time>2017-01-22T10:26:41.120Z</time>
      </trkpt>
      <trkpt lat="47.82476" lon="1.96149">
        <ele>119</ele>
        <time>2017-01-22T10:26:42.153Z</time>
      </trkpt>
      <trkpt lat="47.82476" lon="1.96149">
        <ele>119</ele>
        <time>2017-01-22T10:26:43.147Z</time>
      </trkpt>
      <trkpt lat="47.82467" lon="1.9616">
        <ele>120</ele>
        <time>2017-01-22T10:26:44.143Z</time>
      </trkpt>
      <trkpt lat="47.82459" lon="1.96172">
        <ele>120</ele>
        <time>2017-01-22T10:26:45.149Z</time>
      </trkpt>
      <trkpt lat="47.82459" lon="1.96172">
        <ele>120</ele>
        <time>2017-01-22T10:26:46.150Z</time>
      </trkpt>
      <trkpt lat="47.8245" lon="1.96182">
        <ele>120</ele>
        <time>2017-01-22T10:26:47.204Z</time>
      </trkpt>
      <trkpt lat="47.8245" lon="1.96182">
        <ele>120</ele>
        <time>2017-01-22T10:26:48.144Z</time>
      </trkpt>
      <trkpt lat="47.82443" lon="1.96193">
        <ele>121</ele>
        <time>2017-01-22T10:26:49.150Z</time>
      </trkpt>
      <trkpt lat="47.82443" lon="1.96193">
        <ele>121</ele>
        <time>2017-01-22T10:26:50.138Z</time>
      </trkpt>
      <trkpt lat="47.82439" lon="1.96199">
        <ele>121</ele>
        <time>2017-01-22T10:26:51.118Z</time>
      </trkpt>
      <trkpt lat="47.82439" lon="1.96199">
        <ele>121</ele>
        <time>2017-01-22T10:26:52.125Z</time>
      </trkpt>
      <trkpt lat="47.82439" lon="1.96215">
        <ele>121</ele>
        <time>2017-01-22T10:26:53.131Z</time>
      </trkpt>
      <trkpt lat="47.82441" lon="1.96222">
        <ele>121</ele>
        <time>2017-01-22T10:26:54.139Z</time>
      </trkpt>
      <trkpt lat="47.82449" lon="1.96236">
        <ele>121</ele>
        <time>2017-01-22T10:26:55.145Z</time>
      </trkpt>
      <trkpt lat="47.82449" lon="1.96236">
        <ele>121</ele>
        <time>2017-01-22T10:26:56.133Z</time>
      </trkpt>
      <trkpt lat="47.82449" lon="1.96236">
        <ele>121</ele>
        <time>2017-01-22T10:26:57.142Z</time>
      </trkpt>
      <trkpt lat="47.82457" lon="1.96249">
        <ele>120</ele>
        <time>2017-01-22T10:26:58.129Z</time>
      </trkpt>
      <trkpt lat="47.82457" lon="1.96249">
        <ele>120</ele>
        <time>2017-01-22T10:26:59.147Z</time>
      </trkpt>
      <trkpt lat="47.82465" lon="1.96261">
        <ele>119</ele>
        <time>2017-01-22T10:27:00.133Z</time>
      </trkpt>
      <trkpt lat="47.82465" lon="1.96261">
        <ele>119</ele>
        <time>2017-01-22T10:27:01.138Z</time>
      </trkpt>
      <trkpt lat="47.82475" lon="1.96274">
        <ele>119</ele>
        <time>2017-01-22T10:27:02.149Z</time>
      </trkpt>
      <trkpt lat="47.82479" lon="1.9628">
        <ele>118</ele>
        <time>2017-01-22T10:27:03.142Z</time>
      </trkpt>
      <trkpt lat="47.82479" lon="1.9628">
        <ele>118</ele>
        <time>2017-01-22T10:27:04.122Z</time>
      </trkpt>
      <trkpt lat="47.82493" lon="1.96294">
        <ele>117</ele>
        <time>2017-01-22T10:27:05.142Z</time>
      </trkpt>
      <trkpt lat="47.82493" lon="1.96294">
        <ele>117</ele>
        <time>2017-01-22T10:27:06.151Z</time>
      </trkpt>
      <trkpt lat="47.82504" lon="1.96297">
        <ele>117</ele>
        <time>2017-01-22T10:27:07.157Z</time>
      </trkpt>
      <trkpt lat="47.82509" lon="1.96299">
        <ele>117</ele>
        <time>2017-01-22T10:27:08.155Z</time>
      </trkpt>
      <trkpt lat="47.82509" lon="1.96299">
        <ele>117</ele>
        <time>2017-01-22T10:27:09.134Z</time>
      </trkpt>
      <trkpt lat="47.82518" lon="1.96303">
        <ele>116</ele>
        <time>2017-01-22T10:27:10.146Z</time>
      </trkpt>
      <trkpt lat="47.82518" lon="1.96303">
        <ele>116</ele>
        <time>2017-01-22T10:27:11.135Z</time>
      </trkpt>
      <trkpt lat="47.82531" lon="1.96308">
        <ele>115</ele>
        <time>2017-01-22T10:27:12.144Z</time>
      </trkpt>
      <trkpt lat="47.82531" lon="1.96308">
        <ele>115</ele>
        <time>2017-01-22T10:27:13.154Z</time>
      </trkpt>
      <trkpt lat="47.82537" lon="1.96311">
        <ele>115</ele>
        <time>2017-01-22T10:27:14.152Z</time>
      </trkpt>
      <trkpt lat="47.82537" lon="1.96311">
        <ele>115</ele>
        <time>2017-01-22T10:27:15.118Z</time>
      </trkpt>
      <trkpt lat="47.82549" lon="1.96316">
        <ele>114</ele>
        <time>2017-01-22T10:27:16.142Z</time>
      </trkpt>
      <trkpt lat="47.82549" lon="1.96316">
        <ele>114</ele>
        <time>2017-01-22T10:27:17.162Z</time>
      </trkpt>
      <trkpt lat="47.82564" lon="1.96327">
        <ele>112</ele>
        <time>2017-01-22T10:27:18.144Z</time>
      </trkpt>
      <trkpt lat="47.82564" lon="1.96327">
        <ele>112</ele>
        <time>2017-01-22T10:27:19.152Z</time>
      </trkpt>
      <trkpt lat="47.82572" lon="1.96333">
        <ele>112</ele>
        <time>2017-01-22T10:27:20.157Z</time>
      </trkpt>
      <trkpt lat="47.82572" lon="1.96333">
        <ele>112</ele>
        <time>2017-01-22T10:27:21.125Z</time>
      </trkpt>
      <trkpt lat="47.82575" lon="1.96333">
        <ele>112</ele>
        <time>2017-01-22T10:27:22.131Z</time>
      </trkpt>
      <trkpt lat="47.82575" lon="1.96333">
        <ele>112</ele>
        <time>2017-01-22T10:27:23.137Z</time>
      </trkpt>
      <trkpt lat="47.82582" lon="1.96336">
        <ele>111</ele>
        <time>2017-01-22T10:27:24.154Z</time>
      </trkpt>
      <trkpt lat="47.82582" lon="1.96336">
        <ele>111</ele>
        <time>2017-01-22T10:27:25.121Z</time>
      </trkpt>
      <trkpt lat="47.82591" lon="1.96339">
        <ele>111</ele>
        <time>2017-01-22T10:27:26.143Z</time>
      </trkpt>
      <trkpt lat="47.82599" lon="1.96343">
        <ele>111</ele>
        <time>2017-01-22T10:27:27.149Z</time>
      </trkpt>
      <trkpt lat="47.82599" lon="1.96343">
        <ele>111</ele>
        <time>2017-01-22T10:27:28.136Z</time>
      </trkpt>
      <trkpt lat="47.82599" lon="1.96343">
        <ele>111</ele>
        <time>2017-01-22T10:27:29.119Z</time>
      </trkpt>
      <trkpt lat="47.82613" lon="1.96347">
        <ele>110</ele>
        <time>2017-01-22T10:27:30.154Z</time>
      </trkpt>
      <trkpt lat="47.82613" lon="1.96347">
        <ele>110</ele>
        <time>2017-01-22T10:27:31.120Z</time>
      </trkpt>
      <trkpt lat="47.82613" lon="1.96347">
        <ele>110</ele>
        <time>2017-01-22T10:27:32.129Z</time>
      </trkpt>
      <trkpt lat="47.82622" lon="1.9635">
        <ele>111</ele>
        <time>2017-01-22T10:27:33.134Z</time>
      </trkpt>
      <trkpt lat="47.82622" lon="1.9635">
        <ele>111</ele>
        <time>2017-01-22T10:27:34.143Z</time>
      </trkpt>
      <trkpt lat="47.82631" lon="1.96353">
        <ele>112</ele>
        <time>2017-01-22T10:27:35.149Z</time>
      </trkpt>
      <trkpt lat="47.82631" lon="1.96353">
        <ele>112</ele>
        <time>2017-01-22T10:27:36.149Z</time>
      </trkpt>
      <trkpt lat="47.8264" lon="1.96355">
        <ele>113</ele>
        <time>2017-01-22T10:27:37.137Z</time>
      </trkpt>
      <trkpt lat="47.8264" lon="1.96355">
        <ele>113</ele>
        <time>2017-01-22T10:27:38.144Z</time>
      </trkpt>
      <trkpt lat="47.82649" lon="1.96358">
        <ele>112</ele>
        <time>2017-01-22T10:27:39.137Z</time>
      </trkpt>
      <trkpt lat="47.82649" lon="1.96358">
        <ele>112</ele>
        <time>2017-01-22T10:27:40.148Z</time>
      </trkpt>
      <trkpt lat="47.82658" lon="1.96361">
        <ele>112</ele>
        <time>2017-01-22T10:27:41.143Z</time>
      </trkpt>
      <trkpt lat="47.82666" lon="1.96363">
        <ele>111</ele>
        <time>2017-01-22T10:27:42.149Z</time>
      </trkpt>
      <trkpt lat="47.82666" lon="1.96363">
        <ele>111</ele>
        <time>2017-01-22T10:27:43.118Z</time>
      </trkpt>
      <trkpt lat="47.82666" lon="1.96363">
        <ele>111</ele>
        <time>2017-01-22T10:27:44.124Z</time>
      </trkpt>
      <trkpt lat="47.82673" lon="1.96365">
        <ele>110</ele>
        <time>2017-01-22T10:27:45.141Z</time>
      </trkpt>
      <trkpt lat="47.8268" lon="1.96366">
        <ele>109</ele>
        <time>2017-01-22T10:27:46.147Z</time>
      </trkpt>
      <trkpt lat="47.8268" lon="1.96366">
        <ele>109</ele>
        <time>2017-01-22T10:27:47.163Z</time>
      </trkpt>
      <trkpt lat="47.82684" lon="1.96366">
        <ele>109</ele>
        <time>2017-01-22T10:27:48.134Z</time>
      </trkpt>
      <trkpt lat="47.82684" lon="1.96366">
        <ele>109</ele>
        <time>2017-01-22T10:27:49.140Z</time>
      </trkpt>
      <trkpt lat="47.82694" lon="1.96365">
        <ele>109</ele>
        <time>2017-01-22T10:27:50.154Z</time>
      </trkpt>
      <trkpt lat="47.82694" lon="1.96365">
        <ele>109</ele>
        <time>2017-01-22T10:27:51.120Z</time>
      </trkpt>
      <trkpt lat="47.82694" lon="1.96365">
        <ele>109</ele>
        <time>2017-01-22T10:27:52.147Z</time>
      </trkpt>
      <trkpt lat="47.827" lon="1.96363">
        <ele>109</ele>
        <time>2017-01-22T10:27:53.153Z</time>
      </trkpt>
      <trkpt lat="47.827" lon="1.96363">
        <ele>109</ele>
        <time>2017-01-22T10:27:54.119Z</time>
      </trkpt>
      <trkpt lat="47.82706" lon="1.96364">
        <ele>109</ele>
        <time>2017-01-22T10:27:55.126Z</time>
      </trkpt>
      <trkpt lat="47.82706" lon="1.96364">
        <ele>109</ele>
        <time>2017-01-22T10:27:56.148Z</time>
      </trkpt>
      <trkpt lat="47.82709" lon="1.96374">
        <ele>109</ele>
        <time>2017-01-22T10:27:57.135Z</time>
      </trkpt>
      <trkpt lat="47.82714" lon="1.96386">
        <ele>109</ele>
        <time>2017-01-22T10:27:58.151Z</time>
      </trkpt>
      <trkpt lat="47.82718" lon="1.96392">
        <ele>110</ele>
        <time>2017-01-22T10:27:59.146Z</time>
      </trkpt>
      <trkpt lat="47.82718" lon="1.96392">
        <ele>110</ele>
        <time>2017-01-22T10:28:00.122Z</time>
      </trkpt>
      <trkpt lat="47.82718" lon="1.96392">
        <ele>110</ele>
        <time>2017-01-22T10:28:01.132Z</time>
      </trkpt>
      <trkpt lat="47.82727" lon="1.9641">
        <ele>110</ele>
        <time>2017-01-22T10:28:02.157Z</time>
      </trkpt>
      <trkpt lat="47.82727" lon="1.9641">
        <ele>110</ele>
        <time>2017-01-22T10:28:03.148Z</time>
      </trkpt>
      <trkpt lat="47.82727" lon="1.9641">
        <ele>110</ele>
        <time>2017-01-22T10:28:04.130Z</time>
      </trkpt>
      <trkpt lat="47.82734" lon="1.96422">
        <ele>110</ele>
        <time>2017-01-22T10:28:05.134Z</time>
      </trkpt>
      <trkpt lat="47.82738" lon="1.96428">
        <ele>109</ele>
        <time>2017-01-22T10:28:06.143Z</time>
      </trkpt>
      <trkpt lat="47.82745" lon="1.9644">
        <ele>109</ele>
        <time>2017-01-22T10:28:07.149Z</time>
      </trkpt>
      <trkpt lat="47.82745" lon="1.9644">
        <ele>109</ele>
        <time>2017-01-22T10:28:08.136Z</time>
      </trkpt>
      <trkpt lat="47.82748" lon="1.96446">
        <ele>109</ele>
        <time>2017-01-22T10:28:09.123Z</time>
      </trkpt>
      <trkpt lat="47.82755" lon="1.96458">
        <ele>108</ele>
        <time>2017-01-22T10:28:10.152Z</time>
      </trkpt>
      <trkpt lat="47.82755" lon="1.96458">
        <ele>108</ele>
        <time>2017-01-22T10:28:11.123Z</time>
      </trkpt>
      <trkpt lat="47.82759" lon="1.96463">
        <ele>108</ele>
        <time>2017-01-22T10:28:12.138Z</time>
      </trkpt>
      <trkpt lat="47.82768" lon="1.96473">
        <ele>108</ele>
        <time>2017-01-22T10:28:13.145Z</time>
      </trkpt>
      <trkpt lat="47.82773" lon="1.9648">
        <ele>107</ele>
        <time>2017-01-22T10:28:14.151Z</time>
      </trkpt>
      <trkpt lat="47.82773" lon="1.9648">
        <ele>107</ele>
        <time>2017-01-22T10:28:15.155Z</time>
      </trkpt>
      <trkpt lat="47.82773" lon="1.9648">
        <ele>107</ele>
        <time>2017-01-22T10:28:16.122Z</time>
      </trkpt>
      <trkpt lat="47.82782" lon="1.96492">
        <ele>107</ele>
        <time>2017-01-22T10:28:17.138Z</time>
      </trkpt>
      <trkpt lat="47.82782" lon="1.96492">
        <ele>107</ele>
        <time>2017-01-22T10:28:18.148Z</time>
      </trkpt>
      <trkpt lat="47.82793" lon="1.96505">
        <ele>106</ele>
        <time>2017-01-22T10:28:19.144Z</time>
      </trkpt>
      <trkpt lat="47.82798" lon="1.96511">
        <ele>106</ele>
        <time>2017-01-22T10:28:20.123Z</time>
      </trkpt>
      <trkpt lat="47.82798" lon="1.96511">
        <ele>106</ele>
        <time>2017-01-22T10:28:21.149Z</time>
      </trkpt>
      <trkpt lat="47.82809" lon="1.96525">
        <ele>105</ele>
        <time>2017-01-22T10:28:22.131Z</time>
      </trkpt>
      <trkpt lat="47.82814" lon="1.96531">
        <ele>104</ele>
        <time>2017-01-22T10:28:23.140Z</time>
      </trkpt>
      <trkpt lat="47.82825" lon="1.96545">
        <ele>103</ele>
        <time>2017-01-22T10:28:24.146Z</time>
      </trkpt>
      <trkpt lat="47.82825" lon="1.96545">
        <ele>103</ele>
        <time>2017-01-22T10:28:25.144Z</time>
      </trkpt>
      <trkpt lat="47.82836" lon="1.96556">
        <ele>103</ele>
        <time>2017-01-22T10:28:26.151Z</time>
      </trkpt>
      <trkpt lat="47.82836" lon="1.96556">
        <ele>103</ele>
        <time>2017-01-22T10:28:27.139Z</time>
      </trkpt>
      <trkpt lat="47.82841" lon="1.96561">
        <ele>103</ele>
        <time>2017-01-22T10:28:28.121Z</time>
      </trkpt>
      <trkpt lat="47.82841" lon="1.96561">
        <ele>103</ele>
        <time>2017-01-22T10:28:29.127Z</time>
      </trkpt>
      <trkpt lat="47.82849" lon="1.96567">
        <ele>104</ele>
        <time>2017-01-22T10:28:30.151Z</time>
      </trkpt>
      <trkpt lat="47.82849" lon="1.96567">
        <ele>104</ele>
        <time>2017-01-22T10:28:31.120Z</time>
      </trkpt>
      <trkpt lat="47.82857" lon="1.96564">
        <ele>104</ele>
        <time>2017-01-22T10:28:32.154Z</time>
      </trkpt>
      <trkpt lat="47.82857" lon="1.96564">
        <ele>104</ele>
        <time>2017-01-22T10:28:33.120Z</time>
      </trkpt>
      <trkpt lat="47.82857" lon="1.96564">
        <ele>104</ele>
        <time>2017-01-22T10:28:34.126Z</time>
      </trkpt>
      <trkpt lat="47.82863" lon="1.96559">
        <ele>104</ele>
        <time>2017-01-22T10:28:35.150Z</time>
      </trkpt>
      <trkpt lat="47.82863" lon="1.96559">
        <ele>104</ele>
        <time>2017-01-22T10:28:36.148Z</time>
      </trkpt>
      <trkpt lat="47.8287" lon="1.96562">
        <ele>105</ele>
        <time>2017-01-22T10:28:37.120Z</time>
      </trkpt>
      <trkpt lat="47.8287" lon="1.96562">
        <ele>105</ele>
        <time>2017-01-22T10:28:38.126Z</time>
      </trkpt>
      <trkpt lat="47.82879" lon="1.96569">
        <ele>105</ele>
        <time>2017-01-22T10:28:39.134Z</time>
      </trkpt>
      <trkpt lat="47.82879" lon="1.96569">
        <ele>105</ele>
        <time>2017-01-22T10:28:40.149Z</time>
      </trkpt>
      <trkpt lat="47.8289" lon="1.96574">
        <ele>106</ele>
        <time>2017-01-22T10:28:41.135Z</time>
      </trkpt>
      <trkpt lat="47.82901" lon="1.96579">
        <ele>106</ele>
        <time>2017-01-22T10:28:42.147Z</time>
      </trkpt>
      <trkpt lat="47.82901" lon="1.96579">
        <ele>106</ele>
        <time>2017-01-22T10:28:43.147Z</time>
      </trkpt>
      <trkpt lat="47.82907" lon="1.96582">
        <ele>106</ele>
        <time>2017-01-22T10:28:44.124Z</time>
      </trkpt>
      <trkpt lat="47.82912" lon="1.96585">
        <ele>106</ele>
        <time>2017-01-22T10:28:45.138Z</time>
      </trkpt>
      <trkpt lat="47.82924" lon="1.9659">
        <ele>105</ele>
        <time>2017-01-22T10:28:46.144Z</time>
      </trkpt>
      <trkpt lat="47.82924" lon="1.9659">
        <ele>105</ele>
        <time>2017-01-22T10:28:47.120Z</time>
      </trkpt>
      <trkpt lat="47.82931" lon="1.96593">
        <ele>105</ele>
        <time>2017-01-22T10:28:48.128Z</time>
      </trkpt>
      <trkpt lat="47.82931" lon="1.96593">
        <ele>105</ele>
        <time>2017-01-22T10:28:49.138Z</time>
      </trkpt>
      <trkpt lat="47.82948" lon="1.96604">
        <ele>104</ele>
        <time>2017-01-22T10:28:50.152Z</time>
      </trkpt>
      <trkpt lat="47.82948" lon="1.96604">
        <ele>104</ele>
        <time>2017-01-22T10:28:51.158Z</time>
      </trkpt>
      <trkpt lat="47.82948" lon="1.96604">
        <ele>104</ele>
        <time>2017-01-22T10:28:52.148Z</time>
      </trkpt>
      <trkpt lat="47.82957" lon="1.96612">
        <ele>104</ele>
        <time>2017-01-22T10:28:53.135Z</time>
      </trkpt>
      <trkpt lat="47.8296" lon="1.96615">
        <ele>103</ele>
        <time>2017-01-22T10:28:54.160Z</time>
      </trkpt>
      <trkpt lat="47.8296" lon="1.96615">
        <ele>103</ele>
        <time>2017-01-22T10:28:55.144Z</time>
      </trkpt>
      <trkpt lat="47.82964" lon="1.96615">
        <ele>102</ele>
        <time>2017-01-22T10:28:56.156Z</time>
      </trkpt>
      <trkpt lat="47.82964" lon="1.96615">
        <ele>102</ele>
        <time>2017-01-22T10:28:57.136Z</time>
      </trkpt>
      <trkpt lat="47.82963" lon="1.96609">
        <ele>101</ele>
        <time>2017-01-22T10:28:58.144Z</time>
      </trkpt>
      <trkpt lat="47.82963" lon="1.96609">
        <ele>101</ele>
        <time>2017-01-22T10:28:59.150Z</time>
      </trkpt>
      <trkpt lat="47.82958" lon="1.96607">
        <ele>100</ele>
        <time>2017-01-22T10:29:00.156Z</time>
      </trkpt>
      <trkpt lat="47.82958" lon="1.96607">
        <ele>100</ele>
        <time>2017-01-22T10:29:01.149Z</time>
      </trkpt>
      <trkpt lat="47.82954" lon="1.96606">
        <ele>100</ele>
        <time>2017-01-22T10:29:02.149Z</time>
      </trkpt>
      <trkpt lat="47.82951" lon="1.96603">
        <ele>100</ele>
        <time>2017-01-22T10:29:03.144Z</time>
      </trkpt>
      <trkpt lat="47.82951" lon="1.96603">
        <ele>100</ele>
        <time>2017-01-22T10:29:04.139Z</time>
      </trkpt>
      <trkpt lat="47.82941" lon="1.96599">
        <ele>101</ele>
        <time>2017-01-22T10:29:05.123Z</time>
      </trkpt>
      <trkpt lat="47.82937" lon="1.96597">
        <ele>101</ele>
        <time>2017-01-22T10:29:06.149Z</time>
      </trkpt>
      <trkpt lat="47.82937" lon="1.96597">
        <ele>101</ele>
        <time>2017-01-22T10:29:07.154Z</time>
      </trkpt>
      <trkpt lat="47.82928" lon="1.96592">
        <ele>101</ele>
        <time>2017-01-22T10:29:08.123Z</time>
      </trkpt>
      <trkpt lat="47.82919" lon="1.96588">
        <ele>101</ele>
        <time>2017-01-22T10:29:09.146Z</time>
      </trkpt>
      <trkpt lat="47.82919" lon="1.96588">
        <ele>101</ele>
        <time>2017-01-22T10:29:10.135Z</time>
      </trkpt>
      <trkpt lat="47.82919" lon="1.96588">
        <ele>101</ele>
        <time>2017-01-22T10:29:11.149Z</time>
      </trkpt>
      <trkpt lat="47.82909" lon="1.96584">
        <ele>101</ele>
        <time>2017-01-22T10:29:12.140Z</time>
      </trkpt>
      <trkpt lat="47.82899" lon="1.9658">
        <ele>101</ele>
        <time>2017-01-22T10:29:13.147Z</time>
      </trkpt>
      <trkpt lat="47.82899" lon="1.9658">
        <ele>101</ele>
        <time>2017-01-22T10:29:14.140Z</time>
      </trkpt>
      <trkpt lat="47.82894" lon="1.96577">
        <ele>100</ele>
        <time>2017-01-22T10:29:15.134Z</time>
      </trkpt>
      <trkpt lat="47.82894" lon="1.96577">
        <ele>100</ele>
        <time>2017-01-22T10:29:16.142Z</time>
      </trkpt>
      <trkpt lat="47.8288" lon="1.96572">
        <ele>100</ele>
        <time>2017-01-22T10:29:17.154Z</time>
      </trkpt>
      <trkpt lat="47.8288" lon="1.96572">
        <ele>100</ele>
        <time>2017-01-22T10:29:18.138Z</time>
      </trkpt>
      <trkpt lat="47.82872" lon="1.96568">
        <ele>100</ele>
        <time>2017-01-22T10:29:19.144Z</time>
      </trkpt>
      <trkpt lat="47.82872" lon="1.96568">
        <ele>100</ele>
        <time>2017-01-22T10:29:20.125Z</time>
      </trkpt>
      <trkpt lat="47.82872" lon="1.96568">
        <ele>100</ele>
        <time>2017-01-22T10:29:21.148Z</time>
      </trkpt>
      <trkpt lat="47.82866" lon="1.96564">
        <ele>101</ele>
        <time>2017-01-22T10:29:22.145Z</time>
      </trkpt>
      <trkpt lat="47.82859" lon="1.96558">
        <ele>101</ele>
        <time>2017-01-22T10:29:23.151Z</time>
      </trkpt>
      <trkpt lat="47.82859" lon="1.96558">
        <ele>101</ele>
        <time>2017-01-22T10:29:24.127Z</time>
      </trkpt>
      <trkpt lat="47.82859" lon="1.96558">
        <ele>101</ele>
        <time>2017-01-22T10:29:25.149Z</time>
      </trkpt>
      <trkpt lat="47.82856" lon="1.96553">
        <ele>100</ele>
        <time>2017-01-22T10:29:26.137Z</time>
      </trkpt>
      <trkpt lat="47.82859" lon="1.96544">
        <ele>101</ele>
        <time>2017-01-22T10:29:27.146Z</time>
      </trkpt>
      <trkpt lat="47.82859" lon="1.96544">
        <ele>101</ele>
        <time>2017-01-22T10:29:28.155Z</time>
      </trkpt>
      <trkpt lat="47.82862" lon="1.96539">
        <ele>101</ele>
        <time>2017-01-22T10:29:29.125Z</time>
      </trkpt>
      <trkpt lat="47.82862" lon="1.96539">
        <ele>101</ele>
        <time>2017-01-22T10:29:30.134Z</time>
      </trkpt>
      <trkpt lat="47.82866" lon="1.96526">
        <ele>100</ele>
        <time>2017-01-22T10:29:31.139Z</time>
      </trkpt>
      <trkpt lat="47.8287" lon="1.96513">
        <ele>101</ele>
        <time>2017-01-22T10:29:32.149Z</time>
      </trkpt>
      <trkpt lat="47.8287" lon="1.96513">
        <ele>101</ele>
        <time>2017-01-22T10:29:33.156Z</time>
      </trkpt>
      <trkpt lat="47.8287" lon="1.96513">
        <ele>101</ele>
        <time>2017-01-22T10:29:34.122Z</time>
      </trkpt>
      <trkpt lat="47.82877" lon="1.96497">
        <ele>100</ele>
        <time>2017-01-22T10:29:35.150Z</time>
      </trkpt>
      <trkpt lat="47.82877" lon="1.96497">
        <ele>100</ele>
        <time>2017-01-22T10:29:36.156Z</time>
      </trkpt>
      <trkpt lat="47.82877" lon="1.96497">
        <ele>100</ele>
        <time>2017-01-22T10:29:37.126Z</time>
      </trkpt>
      <trkpt lat="47.8288" lon="1.96488">
        <ele>100</ele>
        <time>2017-01-22T10:29:38.155Z</time>
      </trkpt>
      <trkpt lat="47.8288" lon="1.96488">
        <ele>100</ele>
        <time>2017-01-22T10:29:39.120Z</time>
      </trkpt>
      <trkpt lat="47.82884" lon="1.96478">
        <ele>100</ele>
        <time>2017-01-22T10:29:40.127Z</time>
      </trkpt>
      <trkpt lat="47.82884" lon="1.96478">
        <ele>100</ele>
        <time>2017-01-22T10:29:41.149Z</time>
      </trkpt>
      <trkpt lat="47.82888" lon="1.96469">
        <ele>100</ele>
        <time>2017-01-22T10:29:42.144Z</time>
      </trkpt>
      <trkpt lat="47.82893" lon="1.9646">
        <ele>100</ele>
        <time>2017-01-22T10:29:43.150Z</time>
      </trkpt>
      <trkpt lat="47.82894" lon="1.96454">
        <ele>100</ele>
        <time>2017-01-22T10:29:44.156Z</time>
      </trkpt>
      <trkpt lat="47.82894" lon="1.96454">
        <ele>100</ele>
        <time>2017-01-22T10:29:45.144Z</time>
      </trkpt>
      <trkpt lat="47.82898" lon="1.96445">
        <ele>100</ele>
        <time>2017-01-22T10:29:46.151Z</time>
      </trkpt>
      <trkpt lat="47.82898" lon="1.96445">
        <ele>100</ele>
        <time>2017-01-22T10:29:47.154Z</time>
      </trkpt>
      <trkpt lat="47.829" lon="1.9644">
        <ele>100</ele>
        <time>2017-01-22T10:29:48.154Z</time>
      </trkpt>
      <trkpt lat="47.829" lon="1.9644">
        <ele>100</ele>
        <time>2017-01-22T10:29:49.124Z</time>
      </trkpt>
      <trkpt lat="47.82903" lon="1.96432">
        <ele>100</ele>
        <time>2017-01-22T10:29:50.137Z</time>
      </trkpt>
      <trkpt lat="47.82903" lon="1.96432">
        <ele>100</ele>
        <time>2017-01-22T10:29:51.149Z</time>
      </trkpt>
      <trkpt lat="47.82906" lon="1.96424">
        <ele>100</ele>
        <time>2017-01-22T10:29:52.142Z</time>
      </trkpt>
      <trkpt lat="47.82908" lon="1.96418">
        <ele>100</ele>
        <time>2017-01-22T10:29:53.148Z</time>
      </trkpt>
      <trkpt lat="47.82908" lon="1.96418">
        <ele>100</ele>
        <time>2017-01-22T10:29:54.139Z</time>
      </trkpt>
      <trkpt lat="47.8291" lon="1.96415">
        <ele>100</ele>
        <time>2017-01-22T10:29:55.128Z</time>
      </trkpt>
      <trkpt lat="47.82912" lon="1.96411">
        <ele>101</ele>
        <time>2017-01-22T10:29:56.152Z</time>
      </trkpt>
      <trkpt lat="47.82915" lon="1.96404">
        <ele>101</ele>
        <time>2017-01-22T10:29:57.158Z</time>
      </trkpt>
      <trkpt lat="47.82915" lon="1.96404">
        <ele>101</ele>
        <time>2017-01-22T10:29:58.130Z</time>
      </trkpt>
      <trkpt lat="47.82918" lon="1.96396">
        <ele>101</ele>
        <time>2017-01-22T10:29:59.146Z</time>
      </trkpt>
      <trkpt lat="47.82918" lon="1.96396">
        <ele>101</ele>
        <time>2017-01-22T10:30:00.142Z</time>
      </trkpt>
      <trkpt lat="47.82918" lon="1.96396">
        <ele>101</ele>
        <time>2017-01-22T10:30:01.148Z</time>
      </trkpt>
      <trkpt lat="47.82921" lon="1.9639">
        <ele>102</ele>
        <time>2017-01-22T10:30:02.143Z</time>
      </trkpt>
      <trkpt lat="47.82924" lon="1.96382">
        <ele>102</ele>
        <time>2017-01-22T10:30:03.149Z</time>
      </trkpt>
      <trkpt lat="47.82924" lon="1.96382">
        <ele>102</ele>
        <time>2017-01-22T10:30:04.142Z</time>
      </trkpt>
      <trkpt lat="47.82926" lon="1.96379">
        <ele>103</ele>
        <time>2017-01-22T10:30:05.128Z</time>
      </trkpt>
      <trkpt lat="47.8293" lon="1.96373">
        <ele>103</ele>
        <time>2017-01-22T10:30:06.146Z</time>
      </trkpt>
      <trkpt lat="47.82932" lon="1.9637">
        <ele>103</ele>
        <time>2017-01-22T10:30:07.154Z</time>
      </trkpt>
      <trkpt lat="47.82932" lon="1.9637">
        <ele>103</ele>
        <time>2017-01-22T10:30:08.154Z</time>
      </trkpt>
      <trkpt lat="47.82932" lon="1.9637">
        <ele>103</ele>
        <time>2017-01-22T10:30:09.120Z</time>
      </trkpt>
      <trkpt lat="47.82935" lon="1.96363">
        <ele>103</ele>
        <time>2017-01-22T10:30:10.127Z</time>
      </trkpt>
      <trkpt lat="47.82935" lon="1.96363">
        <ele>103</ele>
        <time>2017-01-22T10:30:11.149Z</time>
      </trkpt>
      <trkpt lat="47.82936" lon="1.96356">
        <ele>104</ele>
        <time>2017-01-22T10:30:12.150Z</time>
      </trkpt>
      <trkpt lat="47.82938" lon="1.9635">
        <ele>104</ele>
        <time>2017-01-22T10:30:13.156Z</time>
      </trkpt>
      <trkpt lat="47.82938" lon="1.9635">
        <ele>104</ele>
        <time>2017-01-22T10:30:14.142Z</time>
      </trkpt>
      <trkpt lat="47.82938" lon="1.9635">
        <ele>104</ele>
        <time>2017-01-22T10:30:15.150Z</time>
      </trkpt>
      <trkpt lat="47.82941" lon="1.96347">
        <ele>104</ele>
        <time>2017-01-22T10:30:16.150Z</time>
      </trkpt>
      <trkpt lat="47.82946" lon="1.96345">
        <ele>105</ele>
        <time>2017-01-22T10:30:17.156Z</time>
      </trkpt>
      <trkpt lat="47.82946" lon="1.96345">
        <ele>105</ele>
        <time>2017-01-22T10:30:18.129Z</time>
      </trkpt>
      <trkpt lat="47.82946" lon="1.96345">
        <ele>105</ele>
        <time>2017-01-22T10:30:19.149Z</time>
      </trkpt>
      <trkpt lat="47.82949" lon="1.96342">
        <ele>105</ele>
        <time>2017-01-22T10:30:20.154Z</time>
      </trkpt>
      <trkpt lat="47.82949" lon="1.96342">
        <ele>105</ele>
        <time>2017-01-22T10:30:21.120Z</time>
      </trkpt>
      <trkpt lat="47.82953" lon="1.96342">
        <ele>105</ele>
        <time>2017-01-22T10:30:22.153Z</time>
      </trkpt>
      <trkpt lat="47.82953" lon="1.96342">
        <ele>105</ele>
        <time>2017-01-22T10:30:23.119Z</time>
      </trkpt>
      <trkpt lat="47.82955" lon="1.96344">
        <ele>105</ele>
        <time>2017-01-22T10:30:24.125Z</time>
      </trkpt>
      <trkpt lat="47.82955" lon="1.96344">
        <ele>105</ele>
        <time>2017-01-22T10:30:25.149Z</time>
      </trkpt>
      <trkpt lat="47.82957" lon="1.96344">
        <ele>105</ele>
        <time>2017-01-22T10:30:26.145Z</time>
      </trkpt>
      <trkpt lat="47.8296" lon="1.96344">
        <ele>105</ele>
        <time>2017-01-22T10:30:27.157Z</time>
      </trkpt>
      <trkpt lat="47.8296" lon="1.96344">
        <ele>105</ele>
        <time>2017-01-22T10:30:28.154Z</time>
      </trkpt>
      <trkpt lat="47.82961" lon="1.96343">
        <ele>105</ele>
        <time>2017-01-22T10:30:29.154Z</time>
      </trkpt>
      <trkpt lat="47.82961" lon="1.96343">
        <ele>105</ele>
        <time>2017-01-22T10:30:30.120Z</time>
      </trkpt>
      <trkpt lat="47.82964" lon="1.96339">
        <ele>105</ele>
        <time>2017-01-22T10:30:31.149Z</time>
      </trkpt>
      <trkpt lat="47.82965" lon="1.96337">
        <ele>105</ele>
        <time>2017-01-22T10:30:32.148Z</time>
      </trkpt>
      <trkpt lat="47.82965" lon="1.96337">
        <ele>105</ele>
        <time>2017-01-22T10:30:33.149Z</time>
      </trkpt>
      <trkpt lat="47.82966" lon="1.96331">
        <ele>105</ele>
        <time>2017-01-22T10:30:34.142Z</time>
      </trkpt>
      <trkpt lat="47.82965" lon="1.96327">
        <ele>105</ele>
        <time>2017-01-22T10:30:35.148Z</time>
      </trkpt>
      <trkpt lat="47.82965" lon="1.96327">
        <ele>105</ele>
        <time>2017-01-22T10:30:36.162Z</time>
      </trkpt>
      <trkpt lat="47.82965" lon="1.96327">
        <ele>105</ele>
        <time>2017-01-22T10:30:37.148Z</time>
      </trkpt>
      <trkpt lat="47.82964" lon="1.96323">
        <ele>105</ele>
        <time>2017-01-22T10:30:38.155Z</time>
      </trkpt>
      <trkpt lat="47.82964" lon="1.96323">
        <ele>105</ele>
        <time>2017-01-22T10:30:39.121Z</time>
      </trkpt>
      <trkpt lat="47.82965" lon="1.96317">
        <ele>105</ele>
        <time>2017-01-22T10:30:40.128Z</time>
      </trkpt>
      <trkpt lat="47.82965" lon="1.96317">
        <ele>105</ele>
        <time>2017-01-22T10:30:41.149Z</time>
      </trkpt>
      <trkpt lat="47.82966" lon="1.96311">
        <ele>105</ele>
        <time>2017-01-22T10:30:42.140Z</time>
      </trkpt>
      <trkpt lat="47.82968" lon="1.96304">
        <ele>105</ele>
        <time>2017-01-22T10:30:43.147Z</time>
      </trkpt>
      <trkpt lat="47.82968" lon="1.96304">
        <ele>105</ele>
        <time>2017-01-22T10:30:44.131Z</time>
      </trkpt>
      <trkpt lat="47.8297" lon="1.96299">
        <ele>105</ele>
        <time>2017-01-22T10:30:45.136Z</time>
      </trkpt>
      <trkpt lat="47.82973" lon="1.9629">
        <ele>105</ele>
        <time>2017-01-22T10:30:46.147Z</time>
      </trkpt>
      <trkpt lat="47.82973" lon="1.9629">
        <ele>105</ele>
        <time>2017-01-22T10:30:47.152Z</time>
      </trkpt>
      <trkpt lat="47.82973" lon="1.9629">
        <ele>105</ele>
        <time>2017-01-22T10:30:48.119Z</time>
      </trkpt>
      <trkpt lat="47.82976" lon="1.96282">
        <ele>105</ele>
        <time>2017-01-22T10:30:49.141Z</time>
      </trkpt>
      <trkpt lat="47.82976" lon="1.96282">
        <ele>105</ele>
        <time>2017-01-22T10:30:50.146Z</time>
      </trkpt>
      <trkpt lat="47.82979" lon="1.96277">
        <ele>105</ele>
        <time>2017-01-22T10:30:51.156Z</time>
      </trkpt>
      <trkpt lat="47.82979" lon="1.96277">
        <ele>105</ele>
        <time>2017-01-22T10:30:52.121Z</time>
      </trkpt>
      <trkpt lat="47.82985" lon="1.96272">
        <ele>105</ele>
        <time>2017-01-22T10:30:53.139Z</time>
      </trkpt>
      <trkpt lat="47.82985" lon="1.96272">
        <ele>105</ele>
        <time>2017-01-22T10:30:54.152Z</time>
      </trkpt>
      <trkpt lat="47.82991" lon="1.96271">
        <ele>104</ele>
        <time>2017-01-22T10:30:55.139Z</time>
      </trkpt>
      <trkpt lat="47.82997" lon="1.96272">
        <ele>104</ele>
        <time>2017-01-22T10:30:56.154Z</time>
      </trkpt>
      <trkpt lat="47.82997" lon="1.96272">
        <ele>104</ele>
        <time>2017-01-22T10:30:57.121Z</time>
      </trkpt>
      <trkpt lat="47.82997" lon="1.96272">
        <ele>104</ele>
        <time>2017-01-22T10:30:58.130Z</time>
      </trkpt>
      <trkpt lat="47.83004" lon="1.96274">
        <ele>104</ele>
        <time>2017-01-22T10:30:59.144Z</time>
      </trkpt>
      <trkpt lat="47.8301" lon="1.96277">
        <ele>104</ele>
        <time>2017-01-22T10:31:00.150Z</time>
      </trkpt>
      <trkpt lat="47.8301" lon="1.96277">
        <ele>104</ele>
        <time>2017-01-22T10:31:01.119Z</time>
      </trkpt>
      <trkpt lat="47.8301" lon="1.96277">
        <ele>104</ele>
        <time>2017-01-22T10:31:02.150Z</time>
      </trkpt>
      <trkpt lat="47.83016" lon="1.96279">
        <ele>104</ele>
        <time>2017-01-22T10:31:03.143Z</time>
      </trkpt>
      <trkpt lat="47.83016" lon="1.96279">
        <ele>104</ele>
        <time>2017-01-22T10:31:04.131Z</time>
      </trkpt>
      <trkpt lat="47.83021" lon="1.9628">
        <ele>105</ele>
        <time>2017-01-22T10:31:05.151Z</time>
      </trkpt>
      <trkpt lat="47.83026" lon="1.9628">
        <ele>105</ele>
        <time>2017-01-22T10:31:06.157Z</time>
      </trkpt>
      <trkpt lat="47.83029" lon="1.9628">
        <ele>105</ele>
        <time>2017-01-22T10:31:07.152Z</time>
      </trkpt>
      <trkpt lat="47.83029" lon="1.9628">
        <ele>105</ele>
        <time>2017-01-22T10:31:08.140Z</time>
      </trkpt>
      <trkpt lat="47.83032" lon="1.96281">
        <ele>104</ele>
        <time>2017-01-22T10:31:09.152Z</time>
      </trkpt>
      <trkpt lat="47.83032" lon="1.96281">
        <ele>104</ele>
        <time>2017-01-22T10:31:10.118Z</time>
      </trkpt>
      <trkpt lat="47.83037" lon="1.96285">
        <ele>106</ele>
        <time>2017-01-22T10:31:11.146Z</time>
      </trkpt>
      <trkpt lat="47.83042" lon="1.96294">
        <ele>106</ele>
        <time>2017-01-22T10:31:12.152Z</time>
      </trkpt>
      <trkpt lat="47.83042" lon="1.96294">
        <ele>106</ele>
        <time>2017-01-22T10:31:13.129Z</time>
      </trkpt>
      <trkpt lat="47.83044" lon="1.963">
        <ele>106</ele>
        <time>2017-01-22T10:31:14.131Z</time>
      </trkpt>
      <trkpt lat="47.83044" lon="1.96316">
        <ele>106</ele>
        <time>2017-01-22T10:31:15.147Z</time>
      </trkpt>
      <trkpt lat="47.83044" lon="1.96316">
        <ele>106</ele>
        <time>2017-01-22T10:31:16.148Z</time>
      </trkpt>
      <trkpt lat="47.83044" lon="1.96316">
        <ele>106</ele>
        <time>2017-01-22T10:31:17.165Z</time>
      </trkpt>
      <trkpt lat="47.83039" lon="1.96331">
        <ele>106</ele>
        <time>2017-01-22T10:31:18.134Z</time>
      </trkpt>
      <trkpt lat="47.83039" lon="1.96331">
        <ele>106</ele>
        <time>2017-01-22T10:31:19.143Z</time>
      </trkpt>
      <trkpt lat="47.83036" lon="1.96348">
        <ele>106</ele>
        <time>2017-01-22T10:31:20.128Z</time>
      </trkpt>
      <trkpt lat="47.83034" lon="1.96357">
        <ele>106</ele>
        <time>2017-01-22T10:31:21.118Z</time>
      </trkpt>
      <trkpt lat="47.83034" lon="1.96357">
        <ele>106</ele>
        <time>2017-01-22T10:31:22.124Z</time>
      </trkpt>
      <trkpt lat="47.83034" lon="1.96374">
        <ele>105</ele>
        <time>2017-01-22T10:31:23.147Z</time>
      </trkpt>
      <trkpt lat="47.83034" lon="1.96374">
        <ele>105</ele>
        <time>2017-01-22T10:31:24.149Z</time>
      </trkpt>
      <trkpt lat="47.83038" lon="1.9639">
        <ele>105</ele>
        <time>2017-01-22T10:31:25.154Z</time>
      </trkpt>
      <trkpt lat="47.83038" lon="1.9639">
        <ele>105</ele>
        <time>2017-01-22T10:31:26.120Z</time>
      </trkpt>
      <trkpt lat="47.83047" lon="1.96404">
        <ele>104</ele>
        <time>2017-01-22T10:31:27.127Z</time>
      </trkpt>
      <trkpt lat="47.83047" lon="1.96404">
        <ele>104</ele>
        <time>2017-01-22T10:31:28.147Z</time>
      </trkpt>
      <trkpt lat="47.83058" lon="1.96414">
        <ele>104</ele>
        <time>2017-01-22T10:31:29.123Z</time>
      </trkpt>
      <trkpt lat="47.83069" lon="1.96421">
        <ele>104</ele>
        <time>2017-01-22T10:31:30.147Z</time>
      </trkpt>
      <trkpt lat="47.83069" lon="1.96421">
        <ele>104</ele>
        <time>2017-01-22T10:31:31.136Z</time>
      </trkpt>
      <trkpt lat="47.83069" lon="1.96421">
        <ele>104</ele>
        <time>2017-01-22T10:31:32.149Z</time>
      </trkpt>
      <trkpt lat="47.8308" lon="1.96426">
        <ele>104</ele>
        <time>2017-01-22T10:31:33.125Z</time>
      </trkpt>
      <trkpt lat="47.8308" lon="1.96426">
        <ele>104</ele>
        <time>2017-01-22T10:31:34.132Z</time>
      </trkpt>
      <trkpt lat="47.83091" lon="1.96431">
        <ele>104</ele>
        <time>2017-01-22T10:31:35.153Z</time>
      </trkpt>
      <trkpt lat="47.83091" lon="1.96431">
        <ele>104</ele>
        <time>2017-01-22T10:31:36.149Z</time>
      </trkpt>
      <trkpt lat="47.83101" lon="1.96435">
        <ele>104</ele>
        <time>2017-01-22T10:31:37.140Z</time>
      </trkpt>
      <trkpt lat="47.83112" lon="1.96439">
        <ele>103</ele>
        <time>2017-01-22T10:31:38.148Z</time>
      </trkpt>
      <trkpt lat="47.83112" lon="1.96439">
        <ele>103</ele>
        <time>2017-01-22T10:31:39.139Z</time>
      </trkpt>
      <trkpt lat="47.83123" lon="1.96443">
        <ele>103</ele>
        <time>2017-01-22T10:31:40.146Z</time>
      </trkpt>
      <trkpt lat="47.83123" lon="1.96443">
        <ele>103</ele>
        <time>2017-01-22T10:31:41.154Z</time>
      </trkpt>
      <trkpt lat="47.83123" lon="1.96443">
        <ele>103</ele>
        <time>2017-01-22T10:31:42.119Z</time>
      </trkpt>
      <trkpt lat="47.83133" lon="1.96446">
        <ele>103</ele>
        <time>2017-01-22T10:31:43.123Z</time>
      </trkpt>
      <trkpt lat="47.83133" lon="1.96446">
        <ele>103</ele>
        <time>2017-01-22T10:31:44.130Z</time>
      </trkpt>
      <trkpt lat="47.83142" lon="1.96447">
        <ele>103</ele>
        <time>2017-01-22T10:31:45.157Z</time>
      </trkpt>
      <trkpt lat="47.83142" lon="1.96447">
        <ele>103</ele>
        <time>2017-01-22T10:31:46.151Z</time>
      </trkpt>
      <trkpt lat="47.8315" lon="1.96452">
        <ele>103</ele>
        <time>2017-01-22T10:31:47.125Z</time>
      </trkpt>
      <trkpt lat="47.8315" lon="1.96452">
        <ele>103</ele>
        <time>2017-01-22T10:31:48.137Z</time>
      </trkpt>
      <trkpt lat="47.83158" lon="1.96459">
        <ele>103</ele>
        <time>2017-01-22T10:31:49.128Z</time>
      </trkpt>
      <trkpt lat="47.83158" lon="1.96459">
        <ele>103</ele>
        <time>2017-01-22T10:31:50.150Z</time>
      </trkpt>
      <trkpt lat="47.83167" lon="1.96457">
        <ele>103</ele>
        <time>2017-01-22T10:31:51.123Z</time>
      </trkpt>
      <trkpt lat="47.83167" lon="1.96457">
        <ele>103</ele>
        <time>2017-01-22T10:31:52.132Z</time>
      </trkpt>
      <trkpt lat="47.83177" lon="1.96455">
        <ele>103</ele>
        <time>2017-01-22T10:31:53.163Z</time>
      </trkpt>
      <trkpt lat="47.83181" lon="1.96454">
        <ele>104</ele>
        <time>2017-01-22T10:31:54.150Z</time>
      </trkpt>
      <trkpt lat="47.83181" lon="1.96454">
        <ele>104</ele>
        <time>2017-01-22T10:31:55.149Z</time>
      </trkpt>
      <trkpt lat="47.83191" lon="1.96455">
        <ele>104</ele>
        <time>2017-01-22T10:31:56.126Z</time>
      </trkpt>
      <trkpt lat="47.83196" lon="1.96454">
        <ele>104</ele>
        <time>2017-01-22T10:31:57.136Z</time>
      </trkpt>
      <trkpt lat="47.83196" lon="1.96454">
        <ele>104</ele>
        <time>2017-01-22T10:31:58.142Z</time>
      </trkpt>
      <trkpt lat="47.83204" lon="1.96453">
        <ele>104</ele>
        <time>2017-01-22T10:31:59.155Z</time>
      </trkpt>
      <trkpt lat="47.83204" lon="1.96453">
        <ele>104</ele>
        <time>2017-01-22T10:32:00.121Z</time>
      </trkpt>
      <trkpt lat="47.83212" lon="1.9645">
        <ele>104</ele>
        <time>2017-01-22T10:32:01.129Z</time>
      </trkpt>
      <trkpt lat="47.83212" lon="1.9645">
        <ele>104</ele>
        <time>2017-01-22T10:32:02.150Z</time>
      </trkpt>
      <trkpt lat="47.8322" lon="1.96448">
        <ele>104</ele>
        <time>2017-01-22T10:32:03.156Z</time>
      </trkpt>
      <trkpt lat="47.83228" lon="1.96447">
        <ele>105</ele>
        <time>2017-01-22T10:32:04.146Z</time>
      </trkpt>
      <trkpt lat="47.83228" lon="1.96447">
        <ele>105</ele>
        <time>2017-01-22T10:32:05.146Z</time>
      </trkpt>
      <trkpt lat="47.83228" lon="1.96447">
        <ele>105</ele>
        <time>2017-01-22T10:32:06.120Z</time>
      </trkpt>
      <trkpt lat="47.83235" lon="1.96445">
        <ele>106</ele>
        <time>2017-01-22T10:32:07.149Z</time>
      </trkpt>
      <trkpt lat="47.83239" lon="1.96445">
        <ele>107</ele>
        <time>2017-01-22T10:32:08.148Z</time>
      </trkpt>
      <trkpt lat="47.83239" lon="1.96445">
        <ele>107</ele>
        <time>2017-01-22T10:32:09.149Z</time>
      </trkpt>
      <trkpt lat="47.83247" lon="1.96444">
        <ele>108</ele>
        <time>2017-01-22T10:32:10.138Z</time>
      </trkpt>
      <trkpt lat="47.83255" lon="1.96445">
        <ele>109</ele>
        <time>2017-01-22T10:32:11.146Z</time>
      </trkpt>
      <trkpt lat="47.83259" lon="1.96445">
        <ele>109</ele>
        <time>2017-01-22T10:32:12.155Z</time>
      </trkpt>
      <trkpt lat="47.83259" lon="1.96445">
        <ele>109</ele>
        <time>2017-01-22T10:32:13.141Z</time>
      </trkpt>
      <trkpt lat="47.83266" lon="1.96447">
        <ele>109</ele>
        <time>2017-01-22T10:32:14.148Z</time>
      </trkpt>
      <trkpt lat="47.83266" lon="1.96447">
        <ele>109</ele>
        <time>2017-01-22T10:32:15.155Z</time>
      </trkpt>
      <trkpt lat="47.83266" lon="1.96447">
        <ele>109</ele>
        <time>2017-01-22T10:32:16.150Z</time>
      </trkpt>
      <trkpt lat="47.83273" lon="1.9645">
        <ele>109</ele>
        <time>2017-01-22T10:32:17.130Z</time>
      </trkpt>
      <trkpt lat="47.83273" lon="1.9645">
        <ele>109</ele>
        <time>2017-01-22T10:32:18.144Z</time>
      </trkpt>
      <trkpt lat="47.83275" lon="1.9646">
        <ele>110</ele>
        <time>2017-01-22T10:32:19.156Z</time>
      </trkpt>
      <trkpt lat="47.83275" lon="1.9646">
        <ele>110</ele>
        <time>2017-01-22T10:32:20.122Z</time>
      </trkpt>
      <trkpt lat="47.83274" lon="1.96469">
        <ele>111</ele>
        <time>2017-01-22T10:32:21.146Z</time>
      </trkpt>
      <trkpt lat="47.83276" lon="1.96473">
        <ele>110</ele>
        <time>2017-01-22T10:32:22.152Z</time>
      </trkpt>
      <trkpt lat="47.83276" lon="1.96473">
        <ele>110</ele>
        <time>2017-01-22T10:32:23.123Z</time>
      </trkpt>
      <trkpt lat="47.83276" lon="1.96473">
        <ele>110</ele>
        <time>2017-01-22T10:32:24.128Z</time>
      </trkpt>
      <trkpt lat="47.83279" lon="1.96474">
        <ele>111</ele>
        <time>2017-01-22T10:32:25.148Z</time>
      </trkpt>
      <trkpt lat="47.83279" lon="1.96474">
        <ele>111</ele>
        <time>2017-01-22T10:32:26.120Z</time>
      </trkpt>
      <trkpt lat="47.83282" lon="1.96473">
        <ele>110</ele>
        <time>2017-01-22T10:32:27.144Z</time>
      </trkpt>
      <trkpt lat="47.83282" lon="1.96473">
        <ele>110</ele>
        <time>2017-01-22T10:32:28.150Z</time>
      </trkpt>
      <trkpt lat="47.83282" lon="1.96473">
        <ele>110</ele>
        <time>2017-01-22T10:32:29.138Z</time>
      </trkpt>
      <trkpt lat="47.83282" lon="1.96474">
        <ele>110</ele>
        <time>2017-01-22T10:32:30.143Z</time>
      </trkpt>
    </trkseg>
  </trk>
</gpx>